<?xml version="1.0" encoding="UTF-8" standalone="no" ?>
<gpx xmlns="http://www.topografix.com/GPX/1/1" xmlns:xsi="http://www.w3.org/2001/XMLSchema-instance" xsi:schemaLocation="http://www.topografix.com/GPX/1/1 http://www.topografix.com/GPX/1/1/gpx.xsd" version="1.1" creator="VisuGPX - https://www.visugpx.com">
  <metadata>
    <name>2016-02-21 08h12 Baladoune Borris34</name>
    <desc><![CDATA[2016-02-21 08h12 Baladoune Borris34]]></desc>
  </metadata>
  <trk>
    <name><![CDATA[2016-02-21 08:12 Baladoune Borris34]]></name>
    <trkseg>
      <trkpt lat="43.618" lon="3.83942">
        <ele>120.3</ele>
        <time>2016-02-21T07:12:03Z</time>
      </trkpt>
      <trkpt lat="43.61791" lon="3.83944">
        <ele>83.29</ele>
        <time>2016-02-21T07:12:05Z</time>
      </trkpt>
      <trkpt lat="43.61775" lon="3.83967">
        <ele>83.29</ele>
        <time>2016-02-21T07:12:07Z</time>
      </trkpt>
      <trkpt lat="43.61766" lon="3.83974">
        <ele>82.81</ele>
        <time>2016-02-21T07:12:08Z</time>
      </trkpt>
      <trkpt lat="43.61694" lon="3.84026">
        <ele>82.81</ele>
        <time>2016-02-21T07:12:17Z</time>
      </trkpt>
      <trkpt lat="43.61694" lon="3.84025">
        <ele>82.33</ele>
        <time>2016-02-21T07:12:27Z</time>
      </trkpt>
      <trkpt lat="43.61674" lon="3.84046">
        <ele>82.81</ele>
        <time>2016-02-21T07:12:38Z</time>
      </trkpt>
      <trkpt lat="43.61631" lon="3.84089">
        <ele>83.29</ele>
        <time>2016-02-21T07:12:45Z</time>
      </trkpt>
      <trkpt lat="43.61624" lon="3.84091">
        <ele>83.29</ele>
        <time>2016-02-21T07:12:46Z</time>
      </trkpt>
      <trkpt lat="43.61617" lon="3.84087">
        <ele>83.29</ele>
        <time>2016-02-21T07:12:47Z</time>
      </trkpt>
      <trkpt lat="43.61609" lon="3.84076">
        <ele>82.81</ele>
        <time>2016-02-21T07:12:48Z</time>
      </trkpt>
      <trkpt lat="43.61602" lon="3.84065">
        <ele>82.81</ele>
        <time>2016-02-21T07:12:49Z</time>
      </trkpt>
      <trkpt lat="43.61558" lon="3.84008">
        <ele>79.93</ele>
        <time>2016-02-21T07:12:54Z</time>
      </trkpt>
      <trkpt lat="43.61546" lon="3.83999">
        <ele>78.97</ele>
        <time>2016-02-21T07:12:55Z</time>
      </trkpt>
      <trkpt lat="43.61533" lon="3.83991">
        <ele>78</ele>
        <time>2016-02-21T07:12:56Z</time>
      </trkpt>
      <trkpt lat="43.61365" lon="3.83908">
        <ele>69.35</ele>
        <time>2016-02-21T07:13:08Z</time>
      </trkpt>
      <trkpt lat="43.61235" lon="3.83888">
        <ele>66.47</ele>
        <time>2016-02-21T07:13:16Z</time>
      </trkpt>
      <trkpt lat="43.6103" lon="3.83885">
        <ele>65.51</ele>
        <time>2016-02-21T07:13:29Z</time>
      </trkpt>
      <trkpt lat="43.60829" lon="3.83811">
        <ele>68.87</ele>
        <time>2016-02-21T07:13:41Z</time>
      </trkpt>
      <trkpt lat="43.60671" lon="3.83794">
        <ele>65.03</ele>
        <time>2016-02-21T07:13:49Z</time>
      </trkpt>
      <trkpt lat="43.60532" lon="3.83852">
        <ele>59.74</ele>
        <time>2016-02-21T07:13:56Z</time>
      </trkpt>
      <trkpt lat="43.60295" lon="3.83925">
        <ele>50.61</ele>
        <time>2016-02-21T07:14:08Z</time>
      </trkpt>
      <trkpt lat="43.60076" lon="3.8399">
        <ele>45.32</ele>
        <time>2016-02-21T07:14:19Z</time>
      </trkpt>
      <trkpt lat="43.59934" lon="3.84108">
        <ele>41.95</ele>
        <time>2016-02-21T07:14:27Z</time>
      </trkpt>
      <trkpt lat="43.59739" lon="3.84322">
        <ele>41.47</ele>
        <time>2016-02-21T07:14:39Z</time>
      </trkpt>
      <trkpt lat="43.59656" lon="3.84498">
        <ele>46.76</ele>
        <time>2016-02-21T07:14:47Z</time>
      </trkpt>
      <trkpt lat="43.59554" lon="3.84746">
        <ele>54.45</ele>
        <time>2016-02-21T07:14:58Z</time>
      </trkpt>
      <trkpt lat="43.59418" lon="3.85046">
        <ele>57.34</ele>
        <time>2016-02-21T07:15:10Z</time>
      </trkpt>
      <trkpt lat="43.59311" lon="3.85184">
        <ele>56.37</ele>
        <time>2016-02-21T07:15:18Z</time>
      </trkpt>
      <trkpt lat="43.59256" lon="3.85256">
        <ele>55.89</ele>
        <time>2016-02-21T07:15:24Z</time>
      </trkpt>
      <trkpt lat="43.59171" lon="3.85382">
        <ele>55.41</ele>
        <time>2016-02-21T07:15:32Z</time>
      </trkpt>
      <trkpt lat="43.59065" lon="3.85495">
        <ele>52.53</ele>
        <time>2016-02-21T07:15:41Z</time>
      </trkpt>
      <trkpt lat="43.59057" lon="3.85498">
        <ele>52.05</ele>
        <time>2016-02-21T07:15:42Z</time>
      </trkpt>
      <trkpt lat="43.5905" lon="3.85499">
        <ele>52.05</ele>
        <time>2016-02-21T07:15:43Z</time>
      </trkpt>
      <trkpt lat="43.59039" lon="3.855">
        <ele>51.57</ele>
        <time>2016-02-21T07:15:45Z</time>
      </trkpt>
      <trkpt lat="43.59019" lon="3.85515">
        <ele>50.13</ele>
        <time>2016-02-21T07:15:48Z</time>
      </trkpt>
      <trkpt lat="43.59012" lon="3.85523">
        <ele>50.13</ele>
        <time>2016-02-21T07:15:49Z</time>
      </trkpt>
      <trkpt lat="43.59007" lon="3.85532">
        <ele>49.65</ele>
        <time>2016-02-21T07:15:50Z</time>
      </trkpt>
      <trkpt lat="43.58997" lon="3.85549">
        <ele>49.16</ele>
        <time>2016-02-21T07:15:52Z</time>
      </trkpt>
      <trkpt lat="43.58991" lon="3.85553">
        <ele>49.16</ele>
        <time>2016-02-21T07:15:53Z</time>
      </trkpt>
      <trkpt lat="43.58986" lon="3.85549">
        <ele>48.68</ele>
        <time>2016-02-21T07:15:54Z</time>
      </trkpt>
      <trkpt lat="43.58981" lon="3.85545">
        <ele>48.2</ele>
        <time>2016-02-21T07:15:55Z</time>
      </trkpt>
      <trkpt lat="43.58978" lon="3.85537">
        <ele>48.68</ele>
        <time>2016-02-21T07:15:56Z</time>
      </trkpt>
      <trkpt lat="43.58975" lon="3.85531">
        <ele>48.68</ele>
        <time>2016-02-21T07:15:57Z</time>
      </trkpt>
      <trkpt lat="43.58971" lon="3.85527">
        <ele>48.68</ele>
        <time>2016-02-21T07:15:58Z</time>
      </trkpt>
      <trkpt lat="43.58967" lon="3.85526">
        <ele>48.68</ele>
        <time>2016-02-21T07:15:59Z</time>
      </trkpt>
      <trkpt lat="43.58964" lon="3.85527">
        <ele>48.68</ele>
        <time>2016-02-21T07:16:00Z</time>
      </trkpt>
      <trkpt lat="43.58963" lon="3.85529">
        <ele>48.68</ele>
        <time>2016-02-21T07:16:01Z</time>
      </trkpt>
      <trkpt lat="43.58964" lon="3.85532">
        <ele>47.24</ele>
        <time>2016-02-21T07:16:16Z</time>
      </trkpt>
      <trkpt lat="43.58967" lon="3.8553">
        <ele>44.84</ele>
        <time>2016-02-21T07:18:23Z</time>
      </trkpt>
      <trkpt lat="43.58964" lon="3.85533">
        <ele>44.36</ele>
        <time>2016-02-21T07:26:42Z</time>
      </trkpt>
      <trkpt lat="43.58965" lon="3.85532">
        <ele>40.99</ele>
        <time>2016-02-21T07:26:52Z</time>
      </trkpt>
      <trkpt lat="43.58963" lon="3.85522">
        <ele>41.95</ele>
        <time>2016-02-21T07:26:59Z</time>
      </trkpt>
      <trkpt lat="43.58966" lon="3.85523">
        <ele>43.88</ele>
        <time>2016-02-21T07:27:12Z</time>
      </trkpt>
      <trkpt lat="43.58966" lon="3.85524">
        <ele>43.88</ele>
        <time>2016-02-21T07:27:29Z</time>
      </trkpt>
      <trkpt lat="43.5897" lon="3.8553">
        <ele>44.36</ele>
        <time>2016-02-21T07:27:42Z</time>
      </trkpt>
      <trkpt lat="43.58987" lon="3.85547">
        <ele>44.84</ele>
        <time>2016-02-21T07:27:49Z</time>
      </trkpt>
      <trkpt lat="43.58992" lon="3.85548">
        <ele>44.84</ele>
        <time>2016-02-21T07:27:50Z</time>
      </trkpt>
      <trkpt lat="43.58998" lon="3.85544">
        <ele>44.84</ele>
        <time>2016-02-21T07:27:51Z</time>
      </trkpt>
      <trkpt lat="43.59003" lon="3.85536">
        <ele>44.84</ele>
        <time>2016-02-21T07:27:52Z</time>
      </trkpt>
      <trkpt lat="43.59007" lon="3.85527">
        <ele>44.84</ele>
        <time>2016-02-21T07:27:53Z</time>
      </trkpt>
      <trkpt lat="43.59011" lon="3.85518">
        <ele>44.84</ele>
        <time>2016-02-21T07:27:54Z</time>
      </trkpt>
      <trkpt lat="43.59015" lon="3.85511">
        <ele>45.32</ele>
        <time>2016-02-21T07:27:55Z</time>
      </trkpt>
      <trkpt lat="43.5902" lon="3.85507">
        <ele>45.32</ele>
        <time>2016-02-21T07:27:56Z</time>
      </trkpt>
      <trkpt lat="43.59025" lon="3.85504">
        <ele>45.8</ele>
        <time>2016-02-21T07:27:57Z</time>
      </trkpt>
      <trkpt lat="43.5905" lon="3.85498">
        <ele>51.57</ele>
        <time>2016-02-21T07:28:05Z</time>
      </trkpt>
      <trkpt lat="43.59051" lon="3.85501">
        <ele>51.57</ele>
        <time>2016-02-21T07:28:06Z</time>
      </trkpt>
      <trkpt lat="43.59051" lon="3.85504">
        <ele>51.57</ele>
        <time>2016-02-21T07:28:07Z</time>
      </trkpt>
      <trkpt lat="43.59051" lon="3.85509">
        <ele>51.57</ele>
        <time>2016-02-21T07:28:08Z</time>
      </trkpt>
      <trkpt lat="43.59049" lon="3.85514">
        <ele>51.57</ele>
        <time>2016-02-21T07:28:09Z</time>
      </trkpt>
      <trkpt lat="43.59044" lon="3.85519">
        <ele>52.05</ele>
        <time>2016-02-21T07:28:10Z</time>
      </trkpt>
      <trkpt lat="43.59036" lon="3.85526">
        <ele>52.05</ele>
        <time>2016-02-21T07:28:11Z</time>
      </trkpt>
      <trkpt lat="43.58999" lon="3.85563">
        <ele>51.57</ele>
        <time>2016-02-21T07:28:15Z</time>
      </trkpt>
      <trkpt lat="43.58987" lon="3.8557">
        <ele>50.61</ele>
        <time>2016-02-21T07:28:16Z</time>
      </trkpt>
      <trkpt lat="43.58974" lon="3.85575">
        <ele>49.65</ele>
        <time>2016-02-21T07:28:17Z</time>
      </trkpt>
      <trkpt lat="43.5896" lon="3.85574">
        <ele>49.16</ele>
        <time>2016-02-21T07:28:18Z</time>
      </trkpt>
      <trkpt lat="43.58945" lon="3.85569">
        <ele>48.68</ele>
        <time>2016-02-21T07:28:19Z</time>
      </trkpt>
      <trkpt lat="43.58934" lon="3.85561">
        <ele>48.2</ele>
        <time>2016-02-21T07:28:20Z</time>
      </trkpt>
      <trkpt lat="43.58924" lon="3.8555">
        <ele>47.72</ele>
        <time>2016-02-21T07:28:21Z</time>
      </trkpt>
      <trkpt lat="43.58913" lon="3.85539">
        <ele>47.72</ele>
        <time>2016-02-21T07:28:22Z</time>
      </trkpt>
      <trkpt lat="43.58838" lon="3.85459">
        <ele>45.8</ele>
        <time>2016-02-21T07:28:30Z</time>
      </trkpt>
      <trkpt lat="43.58792" lon="3.85414">
        <ele>43.4</ele>
        <time>2016-02-21T07:28:39Z</time>
      </trkpt>
      <trkpt lat="43.58703" lon="3.85321">
        <ele>39.07</ele>
        <time>2016-02-21T07:28:50Z</time>
      </trkpt>
      <trkpt lat="43.586" lon="3.85212">
        <ele>35.23</ele>
        <time>2016-02-21T07:28:59Z</time>
      </trkpt>
      <trkpt lat="43.58529" lon="3.85127">
        <ele>33.3</ele>
        <time>2016-02-21T07:29:05Z</time>
      </trkpt>
      <trkpt lat="43.58521" lon="3.8511">
        <ele>32.82</ele>
        <time>2016-02-21T07:29:06Z</time>
      </trkpt>
      <trkpt lat="43.58465" lon="3.84953">
        <ele>26.57</ele>
        <time>2016-02-21T07:29:16Z</time>
      </trkpt>
      <trkpt lat="43.58417" lon="3.84858">
        <ele>24.17</ele>
        <time>2016-02-21T07:29:24Z</time>
      </trkpt>
      <trkpt lat="43.58414" lon="3.84845">
        <ele>24.17</ele>
        <time>2016-02-21T07:29:25Z</time>
      </trkpt>
      <trkpt lat="43.58414" lon="3.84831">
        <ele>24.65</ele>
        <time>2016-02-21T07:29:26Z</time>
      </trkpt>
      <trkpt lat="43.58415" lon="3.84817">
        <ele>24.65</ele>
        <time>2016-02-21T07:29:27Z</time>
      </trkpt>
      <trkpt lat="43.58414" lon="3.84803">
        <ele>24.65</ele>
        <time>2016-02-21T07:29:28Z</time>
      </trkpt>
      <trkpt lat="43.5841" lon="3.8479">
        <ele>24.65</ele>
        <time>2016-02-21T07:29:29Z</time>
      </trkpt>
      <trkpt lat="43.58404" lon="3.84779">
        <ele>24.65</ele>
        <time>2016-02-21T07:29:30Z</time>
      </trkpt>
      <trkpt lat="43.58396" lon="3.84771">
        <ele>24.65</ele>
        <time>2016-02-21T07:29:31Z</time>
      </trkpt>
      <trkpt lat="43.58386" lon="3.84766">
        <ele>24.65</ele>
        <time>2016-02-21T07:29:32Z</time>
      </trkpt>
      <trkpt lat="43.58376" lon="3.84765">
        <ele>24.65</ele>
        <time>2016-02-21T07:29:33Z</time>
      </trkpt>
      <trkpt lat="43.58366" lon="3.84767">
        <ele>24.65</ele>
        <time>2016-02-21T07:29:34Z</time>
      </trkpt>
      <trkpt lat="43.58356" lon="3.84774">
        <ele>24.65</ele>
        <time>2016-02-21T07:29:35Z</time>
      </trkpt>
      <trkpt lat="43.58347" lon="3.84783">
        <ele>24.65</ele>
        <time>2016-02-21T07:29:36Z</time>
      </trkpt>
      <trkpt lat="43.58339" lon="3.84791">
        <ele>24.17</ele>
        <time>2016-02-21T07:29:37Z</time>
      </trkpt>
      <trkpt lat="43.58329" lon="3.84797">
        <ele>24.17</ele>
        <time>2016-02-21T07:29:38Z</time>
      </trkpt>
      <trkpt lat="43.58317" lon="3.848">
        <ele>23.69</ele>
        <time>2016-02-21T07:29:39Z</time>
      </trkpt>
      <trkpt lat="43.58305" lon="3.848">
        <ele>23.69</ele>
        <time>2016-02-21T07:29:40Z</time>
      </trkpt>
      <trkpt lat="43.58292" lon="3.848">
        <ele>24.17</ele>
        <time>2016-02-21T07:29:41Z</time>
      </trkpt>
      <trkpt lat="43.5815" lon="3.84802">
        <ele>24.65</ele>
        <time>2016-02-21T07:29:50Z</time>
      </trkpt>
      <trkpt lat="43.57896" lon="3.84828">
        <ele>33.3</ele>
        <time>2016-02-21T07:30:05Z</time>
      </trkpt>
      <trkpt lat="43.5762" lon="3.84861">
        <ele>33.3</ele>
        <time>2016-02-21T07:30:21Z</time>
      </trkpt>
      <trkpt lat="43.57553" lon="3.84867">
        <ele>30.42</ele>
        <time>2016-02-21T07:30:26Z</time>
      </trkpt>
      <trkpt lat="43.57544" lon="3.84866">
        <ele>29.94</ele>
        <time>2016-02-21T07:30:27Z</time>
      </trkpt>
      <trkpt lat="43.57536" lon="3.84863">
        <ele>28.98</ele>
        <time>2016-02-21T07:30:28Z</time>
      </trkpt>
      <trkpt lat="43.57528" lon="3.84861">
        <ele>28.5</ele>
        <time>2016-02-21T07:30:29Z</time>
      </trkpt>
      <trkpt lat="43.5752" lon="3.84862">
        <ele>28.5</ele>
        <time>2016-02-21T07:30:30Z</time>
      </trkpt>
      <trkpt lat="43.57509" lon="3.84867">
        <ele>28.5</ele>
        <time>2016-02-21T07:30:31Z</time>
      </trkpt>
      <trkpt lat="43.57496" lon="3.8487">
        <ele>28.02</ele>
        <time>2016-02-21T07:30:32Z</time>
      </trkpt>
      <trkpt lat="43.57481" lon="3.84873">
        <ele>28.02</ele>
        <time>2016-02-21T07:30:33Z</time>
      </trkpt>
      <trkpt lat="43.57346" lon="3.84888">
        <ele>26.57</ele>
        <time>2016-02-21T07:30:40Z</time>
      </trkpt>
      <trkpt lat="43.57215" lon="3.84906">
        <ele>25.13</ele>
        <time>2016-02-21T07:30:48Z</time>
      </trkpt>
      <trkpt lat="43.57174" lon="3.84911">
        <ele>25.13</ele>
        <time>2016-02-21T07:30:53Z</time>
      </trkpt>
      <trkpt lat="43.57162" lon="3.84902">
        <ele>24.65</ele>
        <time>2016-02-21T07:30:57Z</time>
      </trkpt>
      <trkpt lat="43.57157" lon="3.84891">
        <ele>25.13</ele>
        <time>2016-02-21T07:30:58Z</time>
      </trkpt>
      <trkpt lat="43.57148" lon="3.84881">
        <ele>25.13</ele>
        <time>2016-02-21T07:30:59Z</time>
      </trkpt>
      <trkpt lat="43.57136" lon="3.84874">
        <ele>25.13</ele>
        <time>2016-02-21T07:31:00Z</time>
      </trkpt>
      <trkpt lat="43.57124" lon="3.84873">
        <ele>25.13</ele>
        <time>2016-02-21T07:31:01Z</time>
      </trkpt>
      <trkpt lat="43.57111" lon="3.84877">
        <ele>25.13</ele>
        <time>2016-02-21T07:31:02Z</time>
      </trkpt>
      <trkpt lat="43.571" lon="3.84886">
        <ele>25.13</ele>
        <time>2016-02-21T07:31:03Z</time>
      </trkpt>
      <trkpt lat="43.5709" lon="3.84898">
        <ele>25.13</ele>
        <time>2016-02-21T07:31:04Z</time>
      </trkpt>
      <trkpt lat="43.57081" lon="3.84911">
        <ele>25.13</ele>
        <time>2016-02-21T07:31:05Z</time>
      </trkpt>
      <trkpt lat="43.57071" lon="3.84922">
        <ele>25.13</ele>
        <time>2016-02-21T07:31:06Z</time>
      </trkpt>
      <trkpt lat="43.57059" lon="3.84932">
        <ele>25.13</ele>
        <time>2016-02-21T07:31:07Z</time>
      </trkpt>
      <trkpt lat="43.57045" lon="3.84937">
        <ele>25.61</ele>
        <time>2016-02-21T07:31:08Z</time>
      </trkpt>
      <trkpt lat="43.56912" lon="3.84973">
        <ele>27.05</ele>
        <time>2016-02-21T07:31:16Z</time>
      </trkpt>
      <trkpt lat="43.56763" lon="3.84992">
        <ele>26.09</ele>
        <time>2016-02-21T07:31:23Z</time>
      </trkpt>
      <trkpt lat="43.56562" lon="3.85014">
        <ele>22.25</ele>
        <time>2016-02-21T07:31:31Z</time>
      </trkpt>
      <trkpt lat="43.56373" lon="3.85024">
        <ele>20.32</ele>
        <time>2016-02-21T07:31:39Z</time>
      </trkpt>
      <trkpt lat="43.56236" lon="3.84991">
        <ele>16.48</ele>
        <time>2016-02-21T07:31:46Z</time>
      </trkpt>
      <trkpt lat="43.56008" lon="3.84914">
        <ele>12.63</ele>
        <time>2016-02-21T07:31:58Z</time>
      </trkpt>
      <trkpt lat="43.55858" lon="3.84876">
        <ele>13.6</ele>
        <time>2016-02-21T07:32:07Z</time>
      </trkpt>
      <trkpt lat="43.55714" lon="3.84866">
        <ele>14.56</ele>
        <time>2016-02-21T07:32:16Z</time>
      </trkpt>
      <trkpt lat="43.55636" lon="3.84864">
        <ele>15.04</ele>
        <time>2016-02-21T07:32:22Z</time>
      </trkpt>
      <trkpt lat="43.55623" lon="3.84859">
        <ele>15.04</ele>
        <time>2016-02-21T07:32:23Z</time>
      </trkpt>
      <trkpt lat="43.55611" lon="3.84853">
        <ele>15.04</ele>
        <time>2016-02-21T07:32:24Z</time>
      </trkpt>
      <trkpt lat="43.556" lon="3.84845">
        <ele>15.04</ele>
        <time>2016-02-21T07:32:25Z</time>
      </trkpt>
      <trkpt lat="43.55589" lon="3.84836">
        <ele>14.56</ele>
        <time>2016-02-21T07:32:26Z</time>
      </trkpt>
      <trkpt lat="43.55579" lon="3.84825">
        <ele>14.56</ele>
        <time>2016-02-21T07:32:27Z</time>
      </trkpt>
      <trkpt lat="43.55569" lon="3.84812">
        <ele>14.56</ele>
        <time>2016-02-21T07:32:28Z</time>
      </trkpt>
      <trkpt lat="43.55561" lon="3.84799">
        <ele>14.56</ele>
        <time>2016-02-21T07:32:29Z</time>
      </trkpt>
      <trkpt lat="43.55554" lon="3.84784">
        <ele>14.56</ele>
        <time>2016-02-21T07:32:30Z</time>
      </trkpt>
      <trkpt lat="43.55547" lon="3.84768">
        <ele>15.04</ele>
        <time>2016-02-21T07:32:31Z</time>
      </trkpt>
      <trkpt lat="43.55542" lon="3.8475">
        <ele>15.04</ele>
        <time>2016-02-21T07:32:32Z</time>
      </trkpt>
      <trkpt lat="43.55537" lon="3.84731">
        <ele>15.52</ele>
        <time>2016-02-21T07:32:33Z</time>
      </trkpt>
      <trkpt lat="43.55478" lon="3.84511">
        <ele>12.63</ele>
        <time>2016-02-21T07:32:44Z</time>
      </trkpt>
      <trkpt lat="43.55396" lon="3.84202">
        <ele>17.92</ele>
        <time>2016-02-21T07:32:57Z</time>
      </trkpt>
      <trkpt lat="43.5533" lon="3.83981">
        <ele>26.57</ele>
        <time>2016-02-21T07:33:06Z</time>
      </trkpt>
      <trkpt lat="43.55295" lon="3.83848">
        <ele>30.42</ele>
        <time>2016-02-21T07:33:11Z</time>
      </trkpt>
      <trkpt lat="43.55287" lon="3.83826">
        <ele>31.86</ele>
        <time>2016-02-21T07:33:15Z</time>
      </trkpt>
      <trkpt lat="43.55287" lon="3.8383">
        <ele>34.26</ele>
        <time>2016-02-21T07:33:56Z</time>
      </trkpt>
      <trkpt lat="43.55283" lon="3.83815">
        <ele>31.86</ele>
        <time>2016-02-21T07:35:53Z</time>
      </trkpt>
      <trkpt lat="43.55267" lon="3.8378">
        <ele>31.38</ele>
        <time>2016-02-21T07:36:13Z</time>
      </trkpt>
      <trkpt lat="43.5521" lon="3.83631">
        <ele>31.86</ele>
        <time>2016-02-21T07:36:20Z</time>
      </trkpt>
      <trkpt lat="43.55134" lon="3.83434">
        <ele>32.34</ele>
        <time>2016-02-21T07:36:26Z</time>
      </trkpt>
      <trkpt lat="43.5498" lon="3.83028">
        <ele>38.59</ele>
        <time>2016-02-21T07:36:37Z</time>
      </trkpt>
      <trkpt lat="43.54852" lon="3.82696">
        <ele>34.74</ele>
        <time>2016-02-21T07:36:46Z</time>
      </trkpt>
      <trkpt lat="43.54734" lon="3.82492">
        <ele>36.19</ele>
        <time>2016-02-21T07:36:52Z</time>
      </trkpt>
      <trkpt lat="43.54577" lon="3.82354">
        <ele>40.03</ele>
        <time>2016-02-21T07:36:58Z</time>
      </trkpt>
      <trkpt lat="43.54396" lon="3.82291">
        <ele>40.03</ele>
        <time>2016-02-21T07:37:04Z</time>
      </trkpt>
      <trkpt lat="43.54099" lon="3.8228">
        <ele>36.67</ele>
        <time>2016-02-21T07:37:13Z</time>
      </trkpt>
      <trkpt lat="43.53472" lon="3.82265">
        <ele>43.88</ele>
        <time>2016-02-21T07:37:32Z</time>
      </trkpt>
      <trkpt lat="43.5299" lon="3.82243">
        <ele>40.51</ele>
        <time>2016-02-21T07:37:47Z</time>
      </trkpt>
      <trkpt lat="43.52809" lon="3.82162">
        <ele>40.03</ele>
        <time>2016-02-21T07:37:53Z</time>
      </trkpt>
      <trkpt lat="43.52654" lon="3.82004">
        <ele>38.59</ele>
        <time>2016-02-21T07:37:59Z</time>
      </trkpt>
      <trkpt lat="43.52446" lon="3.81682">
        <ele>35.23</ele>
        <time>2016-02-21T07:38:09Z</time>
      </trkpt>
      <trkpt lat="43.52171" lon="3.81235">
        <ele>40.99</ele>
        <time>2016-02-21T07:38:23Z</time>
      </trkpt>
      <trkpt lat="43.52006" lon="3.80965">
        <ele>38.11</ele>
        <time>2016-02-21T07:38:31Z</time>
      </trkpt>
      <trkpt lat="43.51873" lon="3.80856">
        <ele>31.38</ele>
        <time>2016-02-21T07:38:36Z</time>
      </trkpt>
      <trkpt lat="43.51659" lon="3.80743">
        <ele>21.77</ele>
        <time>2016-02-21T07:38:44Z</time>
      </trkpt>
      <trkpt lat="43.51541" lon="3.8066">
        <ele>16</ele>
        <time>2016-02-21T07:38:50Z</time>
      </trkpt>
      <trkpt lat="43.51498" lon="3.80633">
        <ele>15.04</ele>
        <time>2016-02-21T07:38:55Z</time>
      </trkpt>
      <trkpt lat="43.5148" lon="3.80622">
        <ele>14.56</ele>
        <time>2016-02-21T07:39:03Z</time>
      </trkpt>
      <trkpt lat="43.51466" lon="3.80617">
        <ele>15.52</ele>
        <time>2016-02-21T07:39:40Z</time>
      </trkpt>
      <trkpt lat="43.5142" lon="3.80581">
        <ele>15.52</ele>
        <time>2016-02-21T07:39:46Z</time>
      </trkpt>
      <trkpt lat="43.51342" lon="3.80501">
        <ele>14.08</ele>
        <time>2016-02-21T07:39:52Z</time>
      </trkpt>
      <trkpt lat="43.51214" lon="3.80311">
        <ele>10.23</ele>
        <time>2016-02-21T07:40:00Z</time>
      </trkpt>
      <trkpt lat="43.51023" lon="3.80004">
        <ele>12.63</ele>
        <time>2016-02-21T07:40:11Z</time>
      </trkpt>
      <trkpt lat="43.50873" lon="3.79763">
        <ele>12.63</ele>
        <time>2016-02-21T07:40:21Z</time>
      </trkpt>
      <trkpt lat="43.50675" lon="3.79447">
        <ele>11.67</ele>
        <time>2016-02-21T07:40:33Z</time>
      </trkpt>
      <trkpt lat="43.50488" lon="3.79164">
        <ele>8.79</ele>
        <time>2016-02-21T07:40:45Z</time>
      </trkpt>
      <trkpt lat="43.50322" lon="3.78994">
        <ele>8.31</ele>
        <time>2016-02-21T07:40:53Z</time>
      </trkpt>
      <trkpt lat="43.50221" lon="3.78843">
        <ele>8.31</ele>
        <time>2016-02-21T07:40:59Z</time>
      </trkpt>
      <trkpt lat="43.50146" lon="3.7871">
        <ele>8.79</ele>
        <time>2016-02-21T07:41:06Z</time>
      </trkpt>
      <trkpt lat="43.50115" lon="3.78658">
        <ele>9.27</ele>
        <time>2016-02-21T07:41:11Z</time>
      </trkpt>
      <trkpt lat="43.50111" lon="3.78648">
        <ele>9.75</ele>
        <time>2016-02-21T07:41:12Z</time>
      </trkpt>
      <trkpt lat="43.50108" lon="3.78636">
        <ele>9.75</ele>
        <time>2016-02-21T07:41:13Z</time>
      </trkpt>
      <trkpt lat="43.50106" lon="3.78625">
        <ele>9.75</ele>
        <time>2016-02-21T07:41:14Z</time>
      </trkpt>
      <trkpt lat="43.50104" lon="3.78615">
        <ele>9.75</ele>
        <time>2016-02-21T07:41:15Z</time>
      </trkpt>
      <trkpt lat="43.501" lon="3.78606">
        <ele>9.75</ele>
        <time>2016-02-21T07:41:16Z</time>
      </trkpt>
      <trkpt lat="43.50092" lon="3.78599">
        <ele>9.75</ele>
        <time>2016-02-21T07:41:17Z</time>
      </trkpt>
      <trkpt lat="43.50083" lon="3.78587">
        <ele>9.27</ele>
        <time>2016-02-21T07:41:18Z</time>
      </trkpt>
      <trkpt lat="43.50074" lon="3.7857">
        <ele>9.27</ele>
        <time>2016-02-21T07:41:19Z</time>
      </trkpt>
      <trkpt lat="43.50064" lon="3.78551">
        <ele>9.27</ele>
        <time>2016-02-21T07:41:20Z</time>
      </trkpt>
      <trkpt lat="43.49989" lon="3.78403">
        <ele>7.35</ele>
        <time>2016-02-21T07:41:26Z</time>
      </trkpt>
      <trkpt lat="43.49856" lon="3.78159">
        <ele>9.75</ele>
        <time>2016-02-21T07:41:34Z</time>
      </trkpt>
      <trkpt lat="43.49704" lon="3.77881">
        <ele>17.44</ele>
        <time>2016-02-21T07:41:44Z</time>
      </trkpt>
      <trkpt lat="43.49573" lon="3.77702">
        <ele>17.92</ele>
        <time>2016-02-21T07:41:52Z</time>
      </trkpt>
      <trkpt lat="43.49384" lon="3.77577">
        <ele>16.96</ele>
        <time>2016-02-21T07:42:01Z</time>
      </trkpt>
      <trkpt lat="43.49125" lon="3.77411">
        <ele>8.79</ele>
        <time>2016-02-21T07:42:12Z</time>
      </trkpt>
      <trkpt lat="43.48853" lon="3.77243">
        <ele>5.42</ele>
        <time>2016-02-21T07:42:24Z</time>
      </trkpt>
      <trkpt lat="43.48831" lon="3.77234">
        <ele>5.42</ele>
        <time>2016-02-21T07:42:25Z</time>
      </trkpt>
      <trkpt lat="43.48808" lon="3.77229">
        <ele>5.42</ele>
        <time>2016-02-21T07:42:26Z</time>
      </trkpt>
      <trkpt lat="43.48784" lon="3.77226">
        <ele>4.94</ele>
        <time>2016-02-21T07:42:27Z</time>
      </trkpt>
      <trkpt lat="43.48758" lon="3.77227">
        <ele>4.94</ele>
        <time>2016-02-21T07:42:28Z</time>
      </trkpt>
      <trkpt lat="43.48732" lon="3.77228">
        <ele>4.94</ele>
        <time>2016-02-21T07:42:29Z</time>
      </trkpt>
      <trkpt lat="43.48577" lon="3.77244">
        <ele>5.91</ele>
        <time>2016-02-21T07:42:36Z</time>
      </trkpt>
      <trkpt lat="43.48337" lon="3.77268">
        <ele>6.87</ele>
        <time>2016-02-21T07:42:49Z</time>
      </trkpt>
      <trkpt lat="43.48147" lon="3.77285">
        <ele>7.35</ele>
        <time>2016-02-21T07:42:59Z</time>
      </trkpt>
      <trkpt lat="43.47971" lon="3.77259">
        <ele>8.31</ele>
        <time>2016-02-21T07:43:08Z</time>
      </trkpt>
      <trkpt lat="43.47833" lon="3.77205">
        <ele>8.31</ele>
        <time>2016-02-21T07:43:14Z</time>
      </trkpt>
      <trkpt lat="43.47587" lon="3.77095">
        <ele>8.79</ele>
        <time>2016-02-21T07:43:23Z</time>
      </trkpt>
      <trkpt lat="43.47306" lon="3.76967">
        <ele>9.75</ele>
        <time>2016-02-21T07:43:34Z</time>
      </trkpt>
      <trkpt lat="43.47141" lon="3.76831">
        <ele>7.83</ele>
        <time>2016-02-21T07:43:42Z</time>
      </trkpt>
      <trkpt lat="43.46854" lon="3.76606">
        <ele>6.39</ele>
        <time>2016-02-21T07:43:55Z</time>
      </trkpt>
      <trkpt lat="43.46832" lon="3.76598">
        <ele>6.39</ele>
        <time>2016-02-21T07:43:56Z</time>
      </trkpt>
      <trkpt lat="43.46811" lon="3.76594">
        <ele>5.91</ele>
        <time>2016-02-21T07:43:57Z</time>
      </trkpt>
      <trkpt lat="43.46789" lon="3.76592">
        <ele>5.91</ele>
        <time>2016-02-21T07:43:58Z</time>
      </trkpt>
      <trkpt lat="43.46767" lon="3.76594">
        <ele>5.42</ele>
        <time>2016-02-21T07:43:59Z</time>
      </trkpt>
      <trkpt lat="43.46746" lon="3.76598">
        <ele>5.42</ele>
        <time>2016-02-21T07:44:00Z</time>
      </trkpt>
      <trkpt lat="43.46725" lon="3.76605">
        <ele>4.94</ele>
        <time>2016-02-21T07:44:01Z</time>
      </trkpt>
      <trkpt lat="43.46706" lon="3.76615">
        <ele>4.94</ele>
        <time>2016-02-21T07:44:02Z</time>
      </trkpt>
      <trkpt lat="43.46688" lon="3.76625">
        <ele>4.94</ele>
        <time>2016-02-21T07:44:03Z</time>
      </trkpt>
      <trkpt lat="43.46673" lon="3.76636">
        <ele>4.94</ele>
        <time>2016-02-21T07:44:04Z</time>
      </trkpt>
      <trkpt lat="43.4663" lon="3.76665">
        <ele>5.91</ele>
        <time>2016-02-21T07:44:09Z</time>
      </trkpt>
      <trkpt lat="43.46622" lon="3.76666">
        <ele>5.91</ele>
        <time>2016-02-21T07:44:10Z</time>
      </trkpt>
      <trkpt lat="43.46613" lon="3.76664">
        <ele>6.39</ele>
        <time>2016-02-21T07:44:11Z</time>
      </trkpt>
      <trkpt lat="43.46604" lon="3.76662">
        <ele>5.91</ele>
        <time>2016-02-21T07:44:12Z</time>
      </trkpt>
      <trkpt lat="43.46595" lon="3.76667">
        <ele>6.39</ele>
        <time>2016-02-21T07:44:13Z</time>
      </trkpt>
      <trkpt lat="43.46585" lon="3.76672">
        <ele>5.91</ele>
        <time>2016-02-21T07:44:14Z</time>
      </trkpt>
      <trkpt lat="43.46574" lon="3.76674">
        <ele>5.91</ele>
        <time>2016-02-21T07:44:15Z</time>
      </trkpt>
      <trkpt lat="43.46561" lon="3.7667">
        <ele>5.42</ele>
        <time>2016-02-21T07:44:16Z</time>
      </trkpt>
      <trkpt lat="43.46545" lon="3.76664">
        <ele>4.94</ele>
        <time>2016-02-21T07:44:17Z</time>
      </trkpt>
      <trkpt lat="43.46509" lon="3.76654">
        <ele>5.42</ele>
        <time>2016-02-21T07:44:19Z</time>
      </trkpt>
      <trkpt lat="43.4649" lon="3.76653">
        <ele>5.42</ele>
        <time>2016-02-21T07:44:20Z</time>
      </trkpt>
      <trkpt lat="43.4647" lon="3.76655">
        <ele>5.91</ele>
        <time>2016-02-21T07:44:21Z</time>
      </trkpt>
      <trkpt lat="43.46451" lon="3.76661">
        <ele>5.91</ele>
        <time>2016-02-21T07:44:22Z</time>
      </trkpt>
      <trkpt lat="43.46431" lon="3.7667">
        <ele>5.91</ele>
        <time>2016-02-21T07:44:23Z</time>
      </trkpt>
      <trkpt lat="43.46411" lon="3.76682">
        <ele>6.39</ele>
        <time>2016-02-21T07:44:24Z</time>
      </trkpt>
      <trkpt lat="43.46176" lon="3.76819">
        <ele>11.19</ele>
        <time>2016-02-21T07:44:35Z</time>
      </trkpt>
      <trkpt lat="43.46011" lon="3.76874">
        <ele>8.79</ele>
        <time>2016-02-21T07:44:43Z</time>
      </trkpt>
      <trkpt lat="43.45836" lon="3.7688">
        <ele>4.46</ele>
        <time>2016-02-21T07:44:50Z</time>
      </trkpt>
      <trkpt lat="43.45673" lon="3.76838">
        <ele>3.5</ele>
        <time>2016-02-21T07:44:57Z</time>
      </trkpt>
      <trkpt lat="43.45508" lon="3.76742">
        <ele>3.98</ele>
        <time>2016-02-21T07:45:05Z</time>
      </trkpt>
      <trkpt lat="43.45343" lon="3.76593">
        <ele>2.06</ele>
        <time>2016-02-21T07:45:13Z</time>
      </trkpt>
      <trkpt lat="43.45133" lon="3.76395">
        <ele>2.54</ele>
        <time>2016-02-21T07:45:24Z</time>
      </trkpt>
      <trkpt lat="43.44946" lon="3.76246">
        <ele>3.5</ele>
        <time>2016-02-21T07:45:35Z</time>
      </trkpt>
      <trkpt lat="43.44819" lon="3.76213">
        <ele>3.5</ele>
        <time>2016-02-21T07:45:42Z</time>
      </trkpt>
      <trkpt lat="43.44683" lon="3.76238">
        <ele>4.94</ele>
        <time>2016-02-21T07:45:50Z</time>
      </trkpt>
      <trkpt lat="43.44455" lon="3.76339">
        <ele>9.27</ele>
        <time>2016-02-21T07:46:02Z</time>
      </trkpt>
      <trkpt lat="43.44246" lon="3.76369">
        <ele>4.46</ele>
        <time>2016-02-21T07:46:12Z</time>
      </trkpt>
      <trkpt lat="43.44069" lon="3.76334">
        <ele>2.54</ele>
        <time>2016-02-21T07:46:20Z</time>
      </trkpt>
      <trkpt lat="43.43896" lon="3.76244">
        <ele>3.02</ele>
        <time>2016-02-21T07:46:29Z</time>
      </trkpt>
      <trkpt lat="43.43725" lon="3.76086">
        <ele>1.1</ele>
        <time>2016-02-21T07:46:39Z</time>
      </trkpt>
      <trkpt lat="43.43561" lon="3.75919">
        <ele>0.14</ele>
        <time>2016-02-21T07:46:49Z</time>
      </trkpt>
      <trkpt lat="43.43266" lon="3.75632">
        <ele>0.62</ele>
        <time>2016-02-21T07:47:05Z</time>
      </trkpt>
      <trkpt lat="43.43075" lon="3.75485">
        <ele>1.1</ele>
        <time>2016-02-21T07:47:15Z</time>
      </trkpt>
      <trkpt lat="43.42826" lon="3.7526">
        <ele>1.58</ele>
        <time>2016-02-21T07:47:29Z</time>
      </trkpt>
      <trkpt lat="43.42617" lon="3.75022">
        <ele>7.35</ele>
        <time>2016-02-21T07:47:42Z</time>
      </trkpt>
      <trkpt lat="43.42505" lon="3.74831">
        <ele>6.87</ele>
        <time>2016-02-21T07:47:51Z</time>
      </trkpt>
      <trkpt lat="43.42404" lon="3.74596">
        <ele>3.5</ele>
        <time>2016-02-21T07:48:00Z</time>
      </trkpt>
      <trkpt lat="43.42309" lon="3.7432">
        <ele>3.5</ele>
        <time>2016-02-21T07:48:11Z</time>
      </trkpt>
      <trkpt lat="43.42188" lon="3.73945">
        <ele>3.5</ele>
        <time>2016-02-21T07:48:25Z</time>
      </trkpt>
      <trkpt lat="43.42089" lon="3.73669">
        <ele>3.5</ele>
        <time>2016-02-21T07:48:34Z</time>
      </trkpt>
      <trkpt lat="43.42001" lon="3.73414">
        <ele>3.02</ele>
        <time>2016-02-21T07:48:43Z</time>
      </trkpt>
      <trkpt lat="43.41842" lon="3.72942">
        <ele>3.02</ele>
        <time>2016-02-21T07:49:00Z</time>
      </trkpt>
      <trkpt lat="43.41752" lon="3.72688">
        <ele>5.91</ele>
        <time>2016-02-21T07:49:10Z</time>
      </trkpt>
      <trkpt lat="43.41712" lon="3.72594">
        <ele>9.27</ele>
        <time>2016-02-21T07:49:17Z</time>
      </trkpt>
      <trkpt lat="43.41703" lon="3.72553">
        <ele>9.75</ele>
        <time>2016-02-21T07:49:21Z</time>
      </trkpt>
      <trkpt lat="43.41703" lon="3.72544">
        <ele>9.75</ele>
        <time>2016-02-21T07:49:22Z</time>
      </trkpt>
      <trkpt lat="43.41704" lon="3.72537">
        <ele>9.75</ele>
        <time>2016-02-21T07:49:23Z</time>
      </trkpt>
      <trkpt lat="43.41707" lon="3.7253">
        <ele>9.75</ele>
        <time>2016-02-21T07:49:24Z</time>
      </trkpt>
      <trkpt lat="43.41712" lon="3.72524">
        <ele>9.75</ele>
        <time>2016-02-21T07:49:25Z</time>
      </trkpt>
      <trkpt lat="43.41719" lon="3.72517">
        <ele>9.75</ele>
        <time>2016-02-21T07:49:26Z</time>
      </trkpt>
      <trkpt lat="43.41728" lon="3.7251">
        <ele>9.75</ele>
        <time>2016-02-21T07:49:27Z</time>
      </trkpt>
      <trkpt lat="43.41769" lon="3.72476">
        <ele>8.31</ele>
        <time>2016-02-21T07:49:31Z</time>
      </trkpt>
      <trkpt lat="43.41783" lon="3.72478">
        <ele>7.83</ele>
        <time>2016-02-21T07:49:32Z</time>
      </trkpt>
      <trkpt lat="43.41798" lon="3.72482">
        <ele>7.83</ele>
        <time>2016-02-21T07:49:33Z</time>
      </trkpt>
      <trkpt lat="43.41811" lon="3.72488">
        <ele>8.31</ele>
        <time>2016-02-21T07:49:34Z</time>
      </trkpt>
      <trkpt lat="43.41825" lon="3.72492">
        <ele>8.79</ele>
        <time>2016-02-21T07:49:35Z</time>
      </trkpt>
      <trkpt lat="43.41838" lon="3.72495">
        <ele>9.27</ele>
        <time>2016-02-21T07:49:36Z</time>
      </trkpt>
      <trkpt lat="43.41851" lon="3.72496">
        <ele>9.27</ele>
        <time>2016-02-21T07:49:37Z</time>
      </trkpt>
      <trkpt lat="43.41864" lon="3.72494">
        <ele>9.75</ele>
        <time>2016-02-21T07:49:38Z</time>
      </trkpt>
      <trkpt lat="43.41879" lon="3.72491">
        <ele>9.27</ele>
        <time>2016-02-21T07:49:39Z</time>
      </trkpt>
      <trkpt lat="43.41895" lon="3.72486">
        <ele>8.79</ele>
        <time>2016-02-21T07:49:40Z</time>
      </trkpt>
      <trkpt lat="43.42015" lon="3.72445">
        <ele>5.42</ele>
        <time>2016-02-21T07:49:46Z</time>
      </trkpt>
      <trkpt lat="43.42192" lon="3.72379">
        <ele>4.94</ele>
        <time>2016-02-21T07:49:54Z</time>
      </trkpt>
      <trkpt lat="43.42277" lon="3.72346">
        <ele>5.91</ele>
        <time>2016-02-21T07:50:00Z</time>
      </trkpt>
      <trkpt lat="43.42308" lon="3.72335">
        <ele>5.91</ele>
        <time>2016-02-21T07:50:06Z</time>
      </trkpt>
      <trkpt lat="43.42331" lon="3.7233">
        <ele>5.91</ele>
        <time>2016-02-21T07:50:14Z</time>
      </trkpt>
      <trkpt lat="43.42338" lon="3.72334">
        <ele>5.42</ele>
        <time>2016-02-21T07:50:15Z</time>
      </trkpt>
      <trkpt lat="43.42348" lon="3.72339">
        <ele>5.42</ele>
        <time>2016-02-21T07:50:16Z</time>
      </trkpt>
      <trkpt lat="43.42394" lon="3.72365">
        <ele>5.42</ele>
        <time>2016-02-21T07:50:20Z</time>
      </trkpt>
      <trkpt lat="43.42406" lon="3.72366">
        <ele>5.42</ele>
        <time>2016-02-21T07:50:21Z</time>
      </trkpt>
      <trkpt lat="43.42418" lon="3.72361">
        <ele>5.42</ele>
        <time>2016-02-21T07:50:22Z</time>
      </trkpt>
      <trkpt lat="43.42428" lon="3.7235">
        <ele>4.94</ele>
        <time>2016-02-21T07:50:23Z</time>
      </trkpt>
      <trkpt lat="43.42436" lon="3.72335">
        <ele>4.94</ele>
        <time>2016-02-21T07:50:24Z</time>
      </trkpt>
      <trkpt lat="43.42441" lon="3.7232">
        <ele>4.94</ele>
        <time>2016-02-21T07:50:25Z</time>
      </trkpt>
      <trkpt lat="43.42441" lon="3.72303">
        <ele>4.94</ele>
        <time>2016-02-21T07:50:26Z</time>
      </trkpt>
      <trkpt lat="43.42435" lon="3.72286">
        <ele>4.94</ele>
        <time>2016-02-21T07:50:27Z</time>
      </trkpt>
      <trkpt lat="43.42429" lon="3.72272">
        <ele>4.46</ele>
        <time>2016-02-21T07:50:28Z</time>
      </trkpt>
      <trkpt lat="43.42418" lon="3.72262">
        <ele>4.94</ele>
        <time>2016-02-21T07:50:29Z</time>
      </trkpt>
      <trkpt lat="43.42405" lon="3.72256">
        <ele>4.94</ele>
        <time>2016-02-21T07:50:30Z</time>
      </trkpt>
      <trkpt lat="43.42392" lon="3.72253">
        <ele>4.94</ele>
        <time>2016-02-21T07:50:31Z</time>
      </trkpt>
      <trkpt lat="43.4238" lon="3.72252">
        <ele>5.42</ele>
        <time>2016-02-21T07:50:32Z</time>
      </trkpt>
      <trkpt lat="43.4237" lon="3.72252">
        <ele>5.91</ele>
        <time>2016-02-21T07:50:33Z</time>
      </trkpt>
      <trkpt lat="43.42323" lon="3.72251">
        <ele>6.87</ele>
        <time>2016-02-21T07:50:38Z</time>
      </trkpt>
      <trkpt lat="43.42316" lon="3.72248">
        <ele>6.87</ele>
        <time>2016-02-21T07:50:39Z</time>
      </trkpt>
      <trkpt lat="43.42308" lon="3.72239">
        <ele>6.87</ele>
        <time>2016-02-21T07:50:40Z</time>
      </trkpt>
      <trkpt lat="43.42302" lon="3.72226">
        <ele>6.39</ele>
        <time>2016-02-21T07:50:41Z</time>
      </trkpt>
      <trkpt lat="43.42298" lon="3.72209">
        <ele>6.39</ele>
        <time>2016-02-21T07:50:42Z</time>
      </trkpt>
      <trkpt lat="43.42294" lon="3.72189">
        <ele>5.91</ele>
        <time>2016-02-21T07:50:43Z</time>
      </trkpt>
      <trkpt lat="43.4229" lon="3.72168">
        <ele>5.91</ele>
        <time>2016-02-21T07:50:44Z</time>
      </trkpt>
      <trkpt lat="43.42253" lon="3.71912">
        <ele>2.54</ele>
        <time>2016-02-21T07:50:55Z</time>
      </trkpt>
      <trkpt lat="43.42261" lon="3.71713">
        <ele>2.54</ele>
        <time>2016-02-21T07:51:02Z</time>
      </trkpt>
      <trkpt lat="43.42296" lon="3.71376">
        <ele>2.54</ele>
        <time>2016-02-21T07:51:13Z</time>
      </trkpt>
      <trkpt lat="43.4231" lon="3.71171">
        <ele>2.54</ele>
        <time>2016-02-21T07:51:21Z</time>
      </trkpt>
      <trkpt lat="43.42326" lon="3.71024">
        <ele>2.06</ele>
        <time>2016-02-21T07:51:29Z</time>
      </trkpt>
      <trkpt lat="43.42332" lon="3.71007">
        <ele>2.06</ele>
        <time>2016-02-21T07:51:30Z</time>
      </trkpt>
      <trkpt lat="43.42339" lon="3.70989">
        <ele>2.06</ele>
        <time>2016-02-21T07:51:31Z</time>
      </trkpt>
      <trkpt lat="43.42349" lon="3.70973">
        <ele>1.58</ele>
        <time>2016-02-21T07:51:32Z</time>
      </trkpt>
      <trkpt lat="43.42359" lon="3.70957">
        <ele>2.06</ele>
        <time>2016-02-21T07:51:33Z</time>
      </trkpt>
      <trkpt lat="43.4237" lon="3.70942">
        <ele>2.06</ele>
        <time>2016-02-21T07:51:34Z</time>
      </trkpt>
      <trkpt lat="43.42419" lon="3.70869">
        <ele>4.46</ele>
        <time>2016-02-21T07:51:39Z</time>
      </trkpt>
      <trkpt lat="43.42423" lon="3.70855">
        <ele>4.46</ele>
        <time>2016-02-21T07:51:40Z</time>
      </trkpt>
      <trkpt lat="43.42427" lon="3.70842">
        <ele>4.46</ele>
        <time>2016-02-21T07:51:41Z</time>
      </trkpt>
      <trkpt lat="43.42429" lon="3.70831">
        <ele>4.94</ele>
        <time>2016-02-21T07:51:42Z</time>
      </trkpt>
      <trkpt lat="43.42433" lon="3.70823">
        <ele>4.94</ele>
        <time>2016-02-21T07:51:43Z</time>
      </trkpt>
      <trkpt lat="43.42436" lon="3.70817">
        <ele>4.94</ele>
        <time>2016-02-21T07:51:44Z</time>
      </trkpt>
      <trkpt lat="43.42442" lon="3.70812">
        <ele>4.94</ele>
        <time>2016-02-21T07:51:45Z</time>
      </trkpt>
      <trkpt lat="43.42452" lon="3.7081">
        <ele>5.42</ele>
        <time>2016-02-21T07:51:46Z</time>
      </trkpt>
      <trkpt lat="43.42465" lon="3.70807">
        <ele>5.42</ele>
        <time>2016-02-21T07:51:47Z</time>
      </trkpt>
      <trkpt lat="43.4248" lon="3.70803">
        <ele>5.42</ele>
        <time>2016-02-21T07:51:48Z</time>
      </trkpt>
      <trkpt lat="43.426" lon="3.70743">
        <ele>3.5</ele>
        <time>2016-02-21T07:51:55Z</time>
      </trkpt>
      <trkpt lat="43.42797" lon="3.70629">
        <ele>2.06</ele>
        <time>2016-02-21T07:52:05Z</time>
      </trkpt>
      <trkpt lat="43.43038" lon="3.70489">
        <ele>2.54</ele>
        <time>2016-02-21T07:52:17Z</time>
      </trkpt>
      <trkpt lat="43.43163" lon="3.70372">
        <ele>2.06</ele>
        <time>2016-02-21T07:52:24Z</time>
      </trkpt>
      <trkpt lat="43.4329" lon="3.70269">
        <ele>2.54</ele>
        <time>2016-02-21T07:52:32Z</time>
      </trkpt>
      <trkpt lat="43.43468" lon="3.70179">
        <ele>2.06</ele>
        <time>2016-02-21T07:52:41Z</time>
      </trkpt>
      <trkpt lat="43.43723" lon="3.70053">
        <ele>3.02</ele>
        <time>2016-02-21T07:52:52Z</time>
      </trkpt>
      <trkpt lat="43.44003" lon="3.69914">
        <ele>2.54</ele>
        <time>2016-02-21T07:53:04Z</time>
      </trkpt>
      <trkpt lat="43.44196" lon="3.69803">
        <ele>2.54</ele>
        <time>2016-02-21T07:53:13Z</time>
      </trkpt>
      <trkpt lat="43.44245" lon="3.69761">
        <ele>4.94</ele>
        <time>2016-02-21T07:53:18Z</time>
      </trkpt>
      <trkpt lat="43.44327" lon="3.69692">
        <ele>4.94</ele>
        <time>2016-02-21T07:53:26Z</time>
      </trkpt>
      <trkpt lat="43.44426" lon="3.69598">
        <ele>4.46</ele>
        <time>2016-02-21T07:53:35Z</time>
      </trkpt>
      <trkpt lat="43.4453" lon="3.69497">
        <ele>3.98</ele>
        <time>2016-02-21T07:53:43Z</time>
      </trkpt>
      <trkpt lat="43.44588" lon="3.69438">
        <ele>4.94</ele>
        <time>2016-02-21T07:53:50Z</time>
      </trkpt>
      <trkpt lat="43.44608" lon="3.6942">
        <ele>4.94</ele>
        <time>2016-02-21T07:53:55Z</time>
      </trkpt>
      <trkpt lat="43.44613" lon="3.69419">
        <ele>5.42</ele>
        <time>2016-02-21T07:53:56Z</time>
      </trkpt>
      <trkpt lat="43.44619" lon="3.69419">
        <ele>5.42</ele>
        <time>2016-02-21T07:53:57Z</time>
      </trkpt>
      <trkpt lat="43.44625" lon="3.69418">
        <ele>4.94</ele>
        <time>2016-02-21T07:53:58Z</time>
      </trkpt>
      <trkpt lat="43.4463" lon="3.69417">
        <ele>4.94</ele>
        <time>2016-02-21T07:53:59Z</time>
      </trkpt>
      <trkpt lat="43.44634" lon="3.69415">
        <ele>4.94</ele>
        <time>2016-02-21T07:54:00Z</time>
      </trkpt>
      <trkpt lat="43.44637" lon="3.69413">
        <ele>4.94</ele>
        <time>2016-02-21T07:54:01Z</time>
      </trkpt>
      <trkpt lat="43.44639" lon="3.69413">
        <ele>4.94</ele>
        <time>2016-02-21T07:54:02Z</time>
      </trkpt>
      <trkpt lat="43.44641" lon="3.69413">
        <ele>4.46</ele>
        <time>2016-02-21T07:54:03Z</time>
      </trkpt>
      <trkpt lat="43.44643" lon="3.69413">
        <ele>4.46</ele>
        <time>2016-02-21T07:54:04Z</time>
      </trkpt>
      <trkpt lat="43.44645" lon="3.69414">
        <ele>4.46</ele>
        <time>2016-02-21T07:54:05Z</time>
      </trkpt>
      <trkpt lat="43.44647" lon="3.69415">
        <ele>4.46</ele>
        <time>2016-02-21T07:54:06Z</time>
      </trkpt>
      <trkpt lat="43.4466" lon="3.69413">
        <ele>3.98</ele>
        <time>2016-02-21T07:54:18Z</time>
      </trkpt>
      <trkpt lat="43.44661" lon="3.69411">
        <ele>3.98</ele>
        <time>2016-02-21T07:54:19Z</time>
      </trkpt>
      <trkpt lat="43.4466" lon="3.69409">
        <ele>3.5</ele>
        <time>2016-02-21T07:54:20Z</time>
      </trkpt>
      <trkpt lat="43.4466" lon="3.69407">
        <ele>3.5</ele>
        <time>2016-02-21T07:54:21Z</time>
      </trkpt>
      <trkpt lat="43.44658" lon="3.69407">
        <ele>3.02</ele>
        <time>2016-02-21T07:54:35Z</time>
      </trkpt>
      <trkpt lat="43.44656" lon="3.69407">
        <ele>4.46</ele>
        <time>2016-02-21T07:55:00Z</time>
      </trkpt>
      <trkpt lat="43.44654" lon="3.6941">
        <ele>4.94</ele>
        <time>2016-02-21T08:15:07Z</time>
      </trkpt>
      <trkpt lat="43.44655" lon="3.69408">
        <ele>4.46</ele>
        <time>2016-02-21T08:15:31Z</time>
      </trkpt>
      <trkpt lat="43.44649" lon="3.69409">
        <ele>4.46</ele>
        <time>2016-02-21T08:15:35Z</time>
      </trkpt>
      <trkpt lat="43.44645" lon="3.69415">
        <ele>7.35</ele>
        <time>2016-02-21T08:15:47Z</time>
      </trkpt>
      <trkpt lat="43.44643" lon="3.69418">
        <ele>7.35</ele>
        <time>2016-02-21T08:16:05Z</time>
      </trkpt>
      <trkpt lat="43.44641" lon="3.69414">
        <ele>7.35</ele>
        <time>2016-02-21T08:16:11Z</time>
      </trkpt>
      <trkpt lat="43.4464" lon="3.69404">
        <ele>7.35</ele>
        <time>2016-02-21T08:16:14Z</time>
      </trkpt>
      <trkpt lat="43.44643" lon="3.69398">
        <ele>6.87</ele>
        <time>2016-02-21T08:16:15Z</time>
      </trkpt>
      <trkpt lat="43.44648" lon="3.69392">
        <ele>6.87</ele>
        <time>2016-02-21T08:16:16Z</time>
      </trkpt>
      <trkpt lat="43.44655" lon="3.69387">
        <ele>6.39</ele>
        <time>2016-02-21T08:16:17Z</time>
      </trkpt>
      <trkpt lat="43.44663" lon="3.69383">
        <ele>6.39</ele>
        <time>2016-02-21T08:16:18Z</time>
      </trkpt>
      <trkpt lat="43.4479" lon="3.69309">
        <ele>5.91</ele>
        <time>2016-02-21T08:16:31Z</time>
      </trkpt>
      <trkpt lat="43.44895" lon="3.69209">
        <ele>8.31</ele>
        <time>2016-02-21T08:16:41Z</time>
      </trkpt>
      <trkpt lat="43.44921" lon="3.6918">
        <ele>9.27</ele>
        <time>2016-02-21T08:16:44Z</time>
      </trkpt>
      <trkpt lat="43.44929" lon="3.69168">
        <ele>9.75</ele>
        <time>2016-02-21T08:16:45Z</time>
      </trkpt>
      <trkpt lat="43.45016" lon="3.69058">
        <ele>14.56</ele>
        <time>2016-02-21T08:16:53Z</time>
      </trkpt>
      <trkpt lat="43.45117" lon="3.68996">
        <ele>18.4</ele>
        <time>2016-02-21T08:16:59Z</time>
      </trkpt>
      <trkpt lat="43.45157" lon="3.6899">
        <ele>18.88</ele>
        <time>2016-02-21T08:17:01Z</time>
      </trkpt>
      <trkpt lat="43.45177" lon="3.6899">
        <ele>18.88</ele>
        <time>2016-02-21T08:17:02Z</time>
      </trkpt>
      <trkpt lat="43.4531" lon="3.6904">
        <ele>18.88</ele>
        <time>2016-02-21T08:17:09Z</time>
      </trkpt>
      <trkpt lat="43.45506" lon="3.69178">
        <ele>17.44</ele>
        <time>2016-02-21T08:17:20Z</time>
      </trkpt>
      <trkpt lat="43.45617" lon="3.69183">
        <ele>16.96</ele>
        <time>2016-02-21T08:17:27Z</time>
      </trkpt>
      <trkpt lat="43.45696" lon="3.69175">
        <ele>16.96</ele>
        <time>2016-02-21T08:17:35Z</time>
      </trkpt>
      <trkpt lat="43.45703" lon="3.69175">
        <ele>16.96</ele>
        <time>2016-02-21T08:17:36Z</time>
      </trkpt>
      <trkpt lat="43.4571" lon="3.69177">
        <ele>16.96</ele>
        <time>2016-02-21T08:17:37Z</time>
      </trkpt>
      <trkpt lat="43.45717" lon="3.69183">
        <ele>16.96</ele>
        <time>2016-02-21T08:17:38Z</time>
      </trkpt>
      <trkpt lat="43.45722" lon="3.69193">
        <ele>16.48</ele>
        <time>2016-02-21T08:17:39Z</time>
      </trkpt>
      <trkpt lat="43.45725" lon="3.69206">
        <ele>16.48</ele>
        <time>2016-02-21T08:17:40Z</time>
      </trkpt>
      <trkpt lat="43.45728" lon="3.69218">
        <ele>16.48</ele>
        <time>2016-02-21T08:17:41Z</time>
      </trkpt>
      <trkpt lat="43.45733" lon="3.69231">
        <ele>16.96</ele>
        <time>2016-02-21T08:17:42Z</time>
      </trkpt>
      <trkpt lat="43.4574" lon="3.69241">
        <ele>17.44</ele>
        <time>2016-02-21T08:17:43Z</time>
      </trkpt>
      <trkpt lat="43.45748" lon="3.69247">
        <ele>17.92</ele>
        <time>2016-02-21T08:17:44Z</time>
      </trkpt>
      <trkpt lat="43.45757" lon="3.6925">
        <ele>17.92</ele>
        <time>2016-02-21T08:17:45Z</time>
      </trkpt>
      <trkpt lat="43.45766" lon="3.6925">
        <ele>17.92</ele>
        <time>2016-02-21T08:17:46Z</time>
      </trkpt>
      <trkpt lat="43.45774" lon="3.69246">
        <ele>17.92</ele>
        <time>2016-02-21T08:17:47Z</time>
      </trkpt>
      <trkpt lat="43.45781" lon="3.6924">
        <ele>17.44</ele>
        <time>2016-02-21T08:17:48Z</time>
      </trkpt>
      <trkpt lat="43.45787" lon="3.69232">
        <ele>17.44</ele>
        <time>2016-02-21T08:17:49Z</time>
      </trkpt>
      <trkpt lat="43.45792" lon="3.69223">
        <ele>16.96</ele>
        <time>2016-02-21T08:17:50Z</time>
      </trkpt>
      <trkpt lat="43.45795" lon="3.69211">
        <ele>16.48</ele>
        <time>2016-02-21T08:17:51Z</time>
      </trkpt>
      <trkpt lat="43.45797" lon="3.69197">
        <ele>16</ele>
        <time>2016-02-21T08:17:52Z</time>
      </trkpt>
      <trkpt lat="43.45795" lon="3.69183">
        <ele>15.52</ele>
        <time>2016-02-21T08:17:53Z</time>
      </trkpt>
      <trkpt lat="43.45792" lon="3.69168">
        <ele>15.04</ele>
        <time>2016-02-21T08:17:54Z</time>
      </trkpt>
      <trkpt lat="43.45788" lon="3.69154">
        <ele>15.04</ele>
        <time>2016-02-21T08:17:55Z</time>
      </trkpt>
      <trkpt lat="43.45785" lon="3.69139">
        <ele>14.56</ele>
        <time>2016-02-21T08:17:56Z</time>
      </trkpt>
      <trkpt lat="43.45787" lon="3.69127">
        <ele>14.08</ele>
        <time>2016-02-21T08:17:57Z</time>
      </trkpt>
      <trkpt lat="43.45794" lon="3.69115">
        <ele>14.08</ele>
        <time>2016-02-21T08:17:58Z</time>
      </trkpt>
      <trkpt lat="43.45804" lon="3.69108">
        <ele>13.6</ele>
        <time>2016-02-21T08:17:59Z</time>
      </trkpt>
      <trkpt lat="43.45816" lon="3.69101">
        <ele>13.6</ele>
        <time>2016-02-21T08:18:00Z</time>
      </trkpt>
      <trkpt lat="43.45827" lon="3.69094">
        <ele>13.6</ele>
        <time>2016-02-21T08:18:01Z</time>
      </trkpt>
      <trkpt lat="43.45838" lon="3.69083">
        <ele>13.12</ele>
        <time>2016-02-21T08:18:02Z</time>
      </trkpt>
      <trkpt lat="43.45848" lon="3.69069">
        <ele>13.12</ele>
        <time>2016-02-21T08:18:03Z</time>
      </trkpt>
      <trkpt lat="43.45858" lon="3.69055">
        <ele>12.63</ele>
        <time>2016-02-21T08:18:04Z</time>
      </trkpt>
      <trkpt lat="43.45929" lon="3.68915">
        <ele>11.67</ele>
        <time>2016-02-21T08:18:13Z</time>
      </trkpt>
      <trkpt lat="43.45985" lon="3.6874">
        <ele>12.63</ele>
        <time>2016-02-21T08:18:25Z</time>
      </trkpt>
      <trkpt lat="43.46012" lon="3.68658">
        <ele>14.56</ele>
        <time>2016-02-21T08:18:32Z</time>
      </trkpt>
      <trkpt lat="43.46016" lon="3.6865">
        <ele>15.04</ele>
        <time>2016-02-21T08:18:33Z</time>
      </trkpt>
      <trkpt lat="43.46019" lon="3.68644">
        <ele>15.04</ele>
        <time>2016-02-21T08:18:34Z</time>
      </trkpt>
      <trkpt lat="43.46024" lon="3.6864">
        <ele>15.04</ele>
        <time>2016-02-21T08:18:35Z</time>
      </trkpt>
      <trkpt lat="43.46029" lon="3.68637">
        <ele>15.04</ele>
        <time>2016-02-21T08:18:36Z</time>
      </trkpt>
      <trkpt lat="43.46036" lon="3.68641">
        <ele>15.04</ele>
        <time>2016-02-21T08:18:37Z</time>
      </trkpt>
      <trkpt lat="43.46044" lon="3.68644">
        <ele>15.04</ele>
        <time>2016-02-21T08:18:38Z</time>
      </trkpt>
      <trkpt lat="43.46053" lon="3.68647">
        <ele>15.04</ele>
        <time>2016-02-21T08:18:39Z</time>
      </trkpt>
      <trkpt lat="43.46061" lon="3.68648">
        <ele>15.04</ele>
        <time>2016-02-21T08:18:40Z</time>
      </trkpt>
      <trkpt lat="43.46068" lon="3.68648">
        <ele>14.56</ele>
        <time>2016-02-21T08:18:41Z</time>
      </trkpt>
      <trkpt lat="43.46075" lon="3.68646">
        <ele>14.08</ele>
        <time>2016-02-21T08:18:42Z</time>
      </trkpt>
      <trkpt lat="43.46079" lon="3.68644">
        <ele>14.08</ele>
        <time>2016-02-21T08:18:43Z</time>
      </trkpt>
      <trkpt lat="43.46082" lon="3.68641">
        <ele>14.08</ele>
        <time>2016-02-21T08:18:44Z</time>
      </trkpt>
      <trkpt lat="43.46084" lon="3.68635">
        <ele>14.08</ele>
        <time>2016-02-21T08:18:45Z</time>
      </trkpt>
      <trkpt lat="43.46086" lon="3.68628">
        <ele>13.6</ele>
        <time>2016-02-21T08:18:46Z</time>
      </trkpt>
      <trkpt lat="43.46089" lon="3.68618">
        <ele>13.12</ele>
        <time>2016-02-21T08:18:47Z</time>
      </trkpt>
      <trkpt lat="43.46093" lon="3.68609">
        <ele>13.12</ele>
        <time>2016-02-21T08:18:48Z</time>
      </trkpt>
      <trkpt lat="43.46098" lon="3.68601">
        <ele>12.63</ele>
        <time>2016-02-21T08:18:49Z</time>
      </trkpt>
      <trkpt lat="43.46103" lon="3.68592">
        <ele>11.67</ele>
        <time>2016-02-21T08:18:50Z</time>
      </trkpt>
      <trkpt lat="43.46114" lon="3.68571">
        <ele>10.71</ele>
        <time>2016-02-21T08:18:52Z</time>
      </trkpt>
      <trkpt lat="43.46117" lon="3.68559">
        <ele>10.23</ele>
        <time>2016-02-21T08:18:53Z</time>
      </trkpt>
      <trkpt lat="43.4612" lon="3.68547">
        <ele>9.75</ele>
        <time>2016-02-21T08:18:54Z</time>
      </trkpt>
      <trkpt lat="43.46121" lon="3.68534">
        <ele>9.27</ele>
        <time>2016-02-21T08:18:55Z</time>
      </trkpt>
      <trkpt lat="43.46121" lon="3.68523">
        <ele>8.79</ele>
        <time>2016-02-21T08:18:56Z</time>
      </trkpt>
      <trkpt lat="43.4612" lon="3.6851">
        <ele>8.31</ele>
        <time>2016-02-21T08:18:57Z</time>
      </trkpt>
      <trkpt lat="43.46119" lon="3.68497">
        <ele>7.83</ele>
        <time>2016-02-21T08:18:58Z</time>
      </trkpt>
      <trkpt lat="43.46118" lon="3.68483">
        <ele>7.83</ele>
        <time>2016-02-21T08:18:59Z</time>
      </trkpt>
      <trkpt lat="43.46118" lon="3.6847">
        <ele>7.35</ele>
        <time>2016-02-21T08:19:00Z</time>
      </trkpt>
      <trkpt lat="43.46121" lon="3.68457">
        <ele>6.87</ele>
        <time>2016-02-21T08:19:01Z</time>
      </trkpt>
      <trkpt lat="43.46127" lon="3.68446">
        <ele>6.39</ele>
        <time>2016-02-21T08:19:02Z</time>
      </trkpt>
      <trkpt lat="43.46135" lon="3.68438">
        <ele>5.91</ele>
        <time>2016-02-21T08:19:03Z</time>
      </trkpt>
      <trkpt lat="43.46145" lon="3.68434">
        <ele>5.42</ele>
        <time>2016-02-21T08:19:04Z</time>
      </trkpt>
      <trkpt lat="43.46157" lon="3.68437">
        <ele>4.94</ele>
        <time>2016-02-21T08:19:05Z</time>
      </trkpt>
      <trkpt lat="43.46169" lon="3.68443">
        <ele>3.98</ele>
        <time>2016-02-21T08:19:06Z</time>
      </trkpt>
      <trkpt lat="43.4618" lon="3.68452">
        <ele>3.5</ele>
        <time>2016-02-21T08:19:07Z</time>
      </trkpt>
      <trkpt lat="43.46192" lon="3.68461">
        <ele>3.5</ele>
        <time>2016-02-21T08:19:08Z</time>
      </trkpt>
      <trkpt lat="43.4622" lon="3.68476">
        <ele>3.02</ele>
        <time>2016-02-21T08:19:10Z</time>
      </trkpt>
      <trkpt lat="43.46235" lon="3.6848">
        <ele>2.06</ele>
        <time>2016-02-21T08:19:11Z</time>
      </trkpt>
      <trkpt lat="43.4625" lon="3.68481">
        <ele>1.1</ele>
        <time>2016-02-21T08:19:12Z</time>
      </trkpt>
      <trkpt lat="43.46387" lon="3.68476">
        <ele>3.02</ele>
        <time>2016-02-21T08:19:19Z</time>
      </trkpt>
      <trkpt lat="43.466" lon="3.68461">
        <ele>3.98</ele>
        <time>2016-02-21T08:19:28Z</time>
      </trkpt>
      <trkpt lat="43.46625" lon="3.68471">
        <ele>3.98</ele>
        <time>2016-02-21T08:19:29Z</time>
      </trkpt>
      <trkpt lat="43.4665" lon="3.68486">
        <ele>4.46</ele>
        <time>2016-02-21T08:19:30Z</time>
      </trkpt>
      <trkpt lat="43.46672" lon="3.68502">
        <ele>4.46</ele>
        <time>2016-02-21T08:19:31Z</time>
      </trkpt>
      <trkpt lat="43.46693" lon="3.68517">
        <ele>4.46</ele>
        <time>2016-02-21T08:19:32Z</time>
      </trkpt>
      <trkpt lat="43.46728" lon="3.68551">
        <ele>4.46</ele>
        <time>2016-02-21T08:19:34Z</time>
      </trkpt>
      <trkpt lat="43.46754" lon="3.6858">
        <ele>4.94</ele>
        <time>2016-02-21T08:19:36Z</time>
      </trkpt>
      <trkpt lat="43.46766" lon="3.68587">
        <ele>5.42</ele>
        <time>2016-02-21T08:19:37Z</time>
      </trkpt>
      <trkpt lat="43.4678" lon="3.68589">
        <ele>4.46</ele>
        <time>2016-02-21T08:19:38Z</time>
      </trkpt>
      <trkpt lat="43.46795" lon="3.68579">
        <ele>4.94</ele>
        <time>2016-02-21T08:19:39Z</time>
      </trkpt>
      <trkpt lat="43.46814" lon="3.6857">
        <ele>4.94</ele>
        <time>2016-02-21T08:19:40Z</time>
      </trkpt>
      <trkpt lat="43.46833" lon="3.68556">
        <ele>4.94</ele>
        <time>2016-02-21T08:19:41Z</time>
      </trkpt>
      <trkpt lat="43.46851" lon="3.68538">
        <ele>5.42</ele>
        <time>2016-02-21T08:19:42Z</time>
      </trkpt>
      <trkpt lat="43.46868" lon="3.68518">
        <ele>5.42</ele>
        <time>2016-02-21T08:19:43Z</time>
      </trkpt>
      <trkpt lat="43.46884" lon="3.68497">
        <ele>5.42</ele>
        <time>2016-02-21T08:19:44Z</time>
      </trkpt>
      <trkpt lat="43.47005" lon="3.68327">
        <ele>6.87</ele>
        <time>2016-02-21T08:19:53Z</time>
      </trkpt>
      <trkpt lat="43.4705" lon="3.6827">
        <ele>7.35</ele>
        <time>2016-02-21T08:19:58Z</time>
      </trkpt>
      <trkpt lat="43.47055" lon="3.68265">
        <ele>6.87</ele>
        <time>2016-02-21T08:19:59Z</time>
      </trkpt>
      <trkpt lat="43.4706" lon="3.68264">
        <ele>5.91</ele>
        <time>2016-02-21T08:20:00Z</time>
      </trkpt>
      <trkpt lat="43.47063" lon="3.68265">
        <ele>3.98</ele>
        <time>2016-02-21T08:20:07Z</time>
      </trkpt>
      <trkpt lat="43.47067" lon="3.6826">
        <ele>3.5</ele>
        <time>2016-02-21T08:20:16Z</time>
      </trkpt>
      <trkpt lat="43.4707" lon="3.68251">
        <ele>3.5</ele>
        <time>2016-02-21T08:20:17Z</time>
      </trkpt>
      <trkpt lat="43.47074" lon="3.68239">
        <ele>3.98</ele>
        <time>2016-02-21T08:20:18Z</time>
      </trkpt>
      <trkpt lat="43.47109" lon="3.68115">
        <ele>6.39</ele>
        <time>2016-02-21T08:20:25Z</time>
      </trkpt>
      <trkpt lat="43.47112" lon="3.68095">
        <ele>6.87</ele>
        <time>2016-02-21T08:20:26Z</time>
      </trkpt>
      <trkpt lat="43.47114" lon="3.68076">
        <ele>7.35</ele>
        <time>2016-02-21T08:20:27Z</time>
      </trkpt>
      <trkpt lat="43.47122" lon="3.68024">
        <ele>9.27</ele>
        <time>2016-02-21T08:20:30Z</time>
      </trkpt>
      <trkpt lat="43.47126" lon="3.6801">
        <ele>10.23</ele>
        <time>2016-02-21T08:20:31Z</time>
      </trkpt>
      <trkpt lat="43.47132" lon="3.67999">
        <ele>10.71</ele>
        <time>2016-02-21T08:20:32Z</time>
      </trkpt>
      <trkpt lat="43.47141" lon="3.67992">
        <ele>10.71</ele>
        <time>2016-02-21T08:20:33Z</time>
      </trkpt>
      <trkpt lat="43.47151" lon="3.67987">
        <ele>10.71</ele>
        <time>2016-02-21T08:20:34Z</time>
      </trkpt>
      <trkpt lat="43.47161" lon="3.67982">
        <ele>10.71</ele>
        <time>2016-02-21T08:20:35Z</time>
      </trkpt>
      <trkpt lat="43.47192" lon="3.6797">
        <ele>10.23</ele>
        <time>2016-02-21T08:20:38Z</time>
      </trkpt>
      <trkpt lat="43.47203" lon="3.67968">
        <ele>10.23</ele>
        <time>2016-02-21T08:20:39Z</time>
      </trkpt>
      <trkpt lat="43.47214" lon="3.67968">
        <ele>10.23</ele>
        <time>2016-02-21T08:20:40Z</time>
      </trkpt>
      <trkpt lat="43.47224" lon="3.6797">
        <ele>10.23</ele>
        <time>2016-02-21T08:20:41Z</time>
      </trkpt>
      <trkpt lat="43.47234" lon="3.67973">
        <ele>10.23</ele>
        <time>2016-02-21T08:20:42Z</time>
      </trkpt>
      <trkpt lat="43.47242" lon="3.6798">
        <ele>9.75</ele>
        <time>2016-02-21T08:20:43Z</time>
      </trkpt>
      <trkpt lat="43.47249" lon="3.6799">
        <ele>8.79</ele>
        <time>2016-02-21T08:20:44Z</time>
      </trkpt>
      <trkpt lat="43.47253" lon="3.68007">
        <ele>8.79</ele>
        <time>2016-02-21T08:20:45Z</time>
      </trkpt>
      <trkpt lat="43.47254" lon="3.68025">
        <ele>8.79</ele>
        <time>2016-02-21T08:20:46Z</time>
      </trkpt>
      <trkpt lat="43.4725" lon="3.68037">
        <ele>7.83</ele>
        <time>2016-02-21T08:20:47Z</time>
      </trkpt>
      <trkpt lat="43.47238" lon="3.68047">
        <ele>5.91</ele>
        <time>2016-02-21T08:20:48Z</time>
      </trkpt>
      <trkpt lat="43.47228" lon="3.68054">
        <ele>4.46</ele>
        <time>2016-02-21T08:20:49Z</time>
      </trkpt>
      <trkpt lat="43.47214" lon="3.68057">
        <ele>3.98</ele>
        <time>2016-02-21T08:20:50Z</time>
      </trkpt>
      <trkpt lat="43.472" lon="3.68058">
        <ele>3.98</ele>
        <time>2016-02-21T08:20:51Z</time>
      </trkpt>
      <trkpt lat="43.47186" lon="3.6805">
        <ele>3.5</ele>
        <time>2016-02-21T08:20:52Z</time>
      </trkpt>
      <trkpt lat="43.47174" lon="3.6804">
        <ele>3.02</ele>
        <time>2016-02-21T08:20:53Z</time>
      </trkpt>
      <trkpt lat="43.47165" lon="3.68025">
        <ele>3.02</ele>
        <time>2016-02-21T08:20:54Z</time>
      </trkpt>
      <trkpt lat="43.47158" lon="3.68009">
        <ele>3.5</ele>
        <time>2016-02-21T08:20:55Z</time>
      </trkpt>
      <trkpt lat="43.47152" lon="3.67989">
        <ele>3.5</ele>
        <time>2016-02-21T08:20:56Z</time>
      </trkpt>
      <trkpt lat="43.47146" lon="3.67967">
        <ele>3.02</ele>
        <time>2016-02-21T08:20:57Z</time>
      </trkpt>
      <trkpt lat="43.47139" lon="3.67942">
        <ele>3.02</ele>
        <time>2016-02-21T08:20:58Z</time>
      </trkpt>
      <trkpt lat="43.47044" lon="3.6769">
        <ele>3.5</ele>
        <time>2016-02-21T08:21:08Z</time>
      </trkpt>
      <trkpt lat="43.4692" lon="3.67466">
        <ele>3.5</ele>
        <time>2016-02-21T08:21:17Z</time>
      </trkpt>
      <trkpt lat="43.46704" lon="3.67081">
        <ele>3.02</ele>
        <time>2016-02-21T08:21:32Z</time>
      </trkpt>
      <trkpt lat="43.46578" lon="3.66921">
        <ele>3.02</ele>
        <time>2016-02-21T08:21:39Z</time>
      </trkpt>
      <trkpt lat="43.46319" lon="3.66662">
        <ele>4.46</ele>
        <time>2016-02-21T08:21:51Z</time>
      </trkpt>
      <trkpt lat="43.45933" lon="3.663">
        <ele>21.77</ele>
        <time>2016-02-21T08:22:08Z</time>
      </trkpt>
      <trkpt lat="43.45617" lon="3.65993">
        <ele>32.82</ele>
        <time>2016-02-21T08:22:22Z</time>
      </trkpt>
      <trkpt lat="43.45512" lon="3.65808">
        <ele>29.46</ele>
        <time>2016-02-21T08:22:28Z</time>
      </trkpt>
      <trkpt lat="43.45359" lon="3.65483">
        <ele>24.17</ele>
        <time>2016-02-21T08:22:39Z</time>
      </trkpt>
      <trkpt lat="43.45336" lon="3.65427">
        <ele>23.21</ele>
        <time>2016-02-21T08:22:42Z</time>
      </trkpt>
      <trkpt lat="43.45333" lon="3.6541">
        <ele>23.21</ele>
        <time>2016-02-21T08:22:43Z</time>
      </trkpt>
      <trkpt lat="43.45329" lon="3.65394">
        <ele>23.21</ele>
        <time>2016-02-21T08:22:44Z</time>
      </trkpt>
      <trkpt lat="43.45325" lon="3.65382">
        <ele>23.21</ele>
        <time>2016-02-21T08:22:45Z</time>
      </trkpt>
      <trkpt lat="43.45317" lon="3.65374">
        <ele>23.21</ele>
        <time>2016-02-21T08:22:46Z</time>
      </trkpt>
      <trkpt lat="43.45307" lon="3.65363">
        <ele>22.73</ele>
        <time>2016-02-21T08:22:47Z</time>
      </trkpt>
      <trkpt lat="43.45297" lon="3.65347">
        <ele>22.25</ele>
        <time>2016-02-21T08:22:48Z</time>
      </trkpt>
      <trkpt lat="43.45288" lon="3.65327">
        <ele>21.77</ele>
        <time>2016-02-21T08:22:49Z</time>
      </trkpt>
      <trkpt lat="43.45205" lon="3.65141">
        <ele>19.36</ele>
        <time>2016-02-21T08:22:57Z</time>
      </trkpt>
      <trkpt lat="43.4499" lon="3.64684">
        <ele>16</ele>
        <time>2016-02-21T08:23:16Z</time>
      </trkpt>
      <trkpt lat="43.44926" lon="3.64548">
        <ele>16</ele>
        <time>2016-02-21T08:23:23Z</time>
      </trkpt>
      <trkpt lat="43.44921" lon="3.64532">
        <ele>15.52</ele>
        <time>2016-02-21T08:23:24Z</time>
      </trkpt>
      <trkpt lat="43.44919" lon="3.64516">
        <ele>16</ele>
        <time>2016-02-21T08:23:25Z</time>
      </trkpt>
      <trkpt lat="43.44916" lon="3.64502">
        <ele>16</ele>
        <time>2016-02-21T08:23:26Z</time>
      </trkpt>
      <trkpt lat="43.44912" lon="3.64491">
        <ele>16.48</ele>
        <time>2016-02-21T08:23:27Z</time>
      </trkpt>
      <trkpt lat="43.44903" lon="3.64483">
        <ele>16.48</ele>
        <time>2016-02-21T08:23:28Z</time>
      </trkpt>
      <trkpt lat="43.44893" lon="3.64471">
        <ele>16.48</ele>
        <time>2016-02-21T08:23:29Z</time>
      </trkpt>
      <trkpt lat="43.44884" lon="3.64456">
        <ele>16.48</ele>
        <time>2016-02-21T08:23:30Z</time>
      </trkpt>
      <trkpt lat="43.44876" lon="3.6444">
        <ele>16.48</ele>
        <time>2016-02-21T08:23:31Z</time>
      </trkpt>
      <trkpt lat="43.44868" lon="3.64423">
        <ele>16.48</ele>
        <time>2016-02-21T08:23:32Z</time>
      </trkpt>
      <trkpt lat="43.44776" lon="3.64226">
        <ele>17.92</ele>
        <time>2016-02-21T08:23:43Z</time>
      </trkpt>
      <trkpt lat="43.4468" lon="3.63996">
        <ele>20.32</ele>
        <time>2016-02-21T08:23:53Z</time>
      </trkpt>
      <trkpt lat="43.446" lon="3.63767">
        <ele>22.25</ele>
        <time>2016-02-21T08:24:03Z</time>
      </trkpt>
      <trkpt lat="43.44509" lon="3.63511">
        <ele>24.65</ele>
        <time>2016-02-21T08:24:16Z</time>
      </trkpt>
      <trkpt lat="43.44481" lon="3.63432">
        <ele>25.13</ele>
        <time>2016-02-21T08:24:22Z</time>
      </trkpt>
      <trkpt lat="43.44477" lon="3.63424">
        <ele>24.65</ele>
        <time>2016-02-21T08:24:23Z</time>
      </trkpt>
      <trkpt lat="43.44473" lon="3.63418">
        <ele>24.65</ele>
        <time>2016-02-21T08:24:24Z</time>
      </trkpt>
      <trkpt lat="43.44467" lon="3.63412">
        <ele>24.17</ele>
        <time>2016-02-21T08:24:25Z</time>
      </trkpt>
      <trkpt lat="43.44461" lon="3.63407">
        <ele>24.17</ele>
        <time>2016-02-21T08:24:26Z</time>
      </trkpt>
      <trkpt lat="43.44454" lon="3.63404">
        <ele>23.69</ele>
        <time>2016-02-21T08:24:27Z</time>
      </trkpt>
      <trkpt lat="43.44447" lon="3.63402">
        <ele>23.21</ele>
        <time>2016-02-21T08:24:28Z</time>
      </trkpt>
      <trkpt lat="43.44439" lon="3.63403">
        <ele>22.73</ele>
        <time>2016-02-21T08:24:29Z</time>
      </trkpt>
      <trkpt lat="43.44431" lon="3.63403">
        <ele>22.73</ele>
        <time>2016-02-21T08:24:30Z</time>
      </trkpt>
      <trkpt lat="43.44422" lon="3.634">
        <ele>22.25</ele>
        <time>2016-02-21T08:24:31Z</time>
      </trkpt>
      <trkpt lat="43.44414" lon="3.63395">
        <ele>21.77</ele>
        <time>2016-02-21T08:24:32Z</time>
      </trkpt>
      <trkpt lat="43.44407" lon="3.63386">
        <ele>21.29</ele>
        <time>2016-02-21T08:24:33Z</time>
      </trkpt>
      <trkpt lat="43.44401" lon="3.63377">
        <ele>20.81</ele>
        <time>2016-02-21T08:24:34Z</time>
      </trkpt>
      <trkpt lat="43.44396" lon="3.63367">
        <ele>20.32</ele>
        <time>2016-02-21T08:24:35Z</time>
      </trkpt>
      <trkpt lat="43.44337" lon="3.63292">
        <ele>16</ele>
        <time>2016-02-21T08:24:44Z</time>
      </trkpt>
      <trkpt lat="43.44332" lon="3.63282">
        <ele>15.52</ele>
        <time>2016-02-21T08:24:45Z</time>
      </trkpt>
      <trkpt lat="43.4433" lon="3.63272">
        <ele>15.52</ele>
        <time>2016-02-21T08:24:46Z</time>
      </trkpt>
      <trkpt lat="43.44329" lon="3.63262">
        <ele>15.04</ele>
        <time>2016-02-21T08:24:47Z</time>
      </trkpt>
      <trkpt lat="43.4433" lon="3.63254">
        <ele>15.52</ele>
        <time>2016-02-21T08:24:48Z</time>
      </trkpt>
      <trkpt lat="43.44331" lon="3.63246">
        <ele>15.04</ele>
        <time>2016-02-21T08:24:49Z</time>
      </trkpt>
      <trkpt lat="43.44333" lon="3.63238">
        <ele>15.52</ele>
        <time>2016-02-21T08:24:50Z</time>
      </trkpt>
      <trkpt lat="43.44336" lon="3.6323">
        <ele>15.52</ele>
        <time>2016-02-21T08:24:51Z</time>
      </trkpt>
      <trkpt lat="43.44342" lon="3.63199">
        <ele>15.52</ele>
        <time>2016-02-21T08:24:54Z</time>
      </trkpt>
      <trkpt lat="43.44341" lon="3.63187">
        <ele>15.04</ele>
        <time>2016-02-21T08:24:55Z</time>
      </trkpt>
      <trkpt lat="43.44337" lon="3.63175">
        <ele>15.04</ele>
        <time>2016-02-21T08:24:56Z</time>
      </trkpt>
      <trkpt lat="43.44331" lon="3.63163">
        <ele>14.56</ele>
        <time>2016-02-21T08:24:57Z</time>
      </trkpt>
      <trkpt lat="43.44324" lon="3.63151">
        <ele>14.56</ele>
        <time>2016-02-21T08:24:58Z</time>
      </trkpt>
      <trkpt lat="43.4424" lon="3.63011">
        <ele>11.67</ele>
        <time>2016-02-21T08:25:07Z</time>
      </trkpt>
      <trkpt lat="43.44111" lon="3.628">
        <ele>10.23</ele>
        <time>2016-02-21T08:25:17Z</time>
      </trkpt>
      <trkpt lat="43.43988" lon="3.6259">
        <ele>10.23</ele>
        <time>2016-02-21T08:25:23Z</time>
      </trkpt>
      <trkpt lat="43.43828" lon="3.62322">
        <ele>9.75</ele>
        <time>2016-02-21T08:25:32Z</time>
      </trkpt>
      <trkpt lat="43.43621" lon="3.61977">
        <ele>8.31</ele>
        <time>2016-02-21T08:25:45Z</time>
      </trkpt>
      <trkpt lat="43.43559" lon="3.61857">
        <ele>7.83</ele>
        <time>2016-02-21T08:25:52Z</time>
      </trkpt>
      <trkpt lat="43.43556" lon="3.61843">
        <ele>7.83</ele>
        <time>2016-02-21T08:25:53Z</time>
      </trkpt>
      <trkpt lat="43.43554" lon="3.61829">
        <ele>7.83</ele>
        <time>2016-02-21T08:25:54Z</time>
      </trkpt>
      <trkpt lat="43.43551" lon="3.61815">
        <ele>7.83</ele>
        <time>2016-02-21T08:25:55Z</time>
      </trkpt>
      <trkpt lat="43.43546" lon="3.61804">
        <ele>7.83</ele>
        <time>2016-02-21T08:25:56Z</time>
      </trkpt>
      <trkpt lat="43.43539" lon="3.61797">
        <ele>7.35</ele>
        <time>2016-02-21T08:25:57Z</time>
      </trkpt>
      <trkpt lat="43.43529" lon="3.61793">
        <ele>7.35</ele>
        <time>2016-02-21T08:25:58Z</time>
      </trkpt>
      <trkpt lat="43.43517" lon="3.61787">
        <ele>7.35</ele>
        <time>2016-02-21T08:25:59Z</time>
      </trkpt>
      <trkpt lat="43.43503" lon="3.61776">
        <ele>7.35</ele>
        <time>2016-02-21T08:26:00Z</time>
      </trkpt>
      <trkpt lat="43.4349" lon="3.61759">
        <ele>6.87</ele>
        <time>2016-02-21T08:26:01Z</time>
      </trkpt>
      <trkpt lat="43.43478" lon="3.6174">
        <ele>6.87</ele>
        <time>2016-02-21T08:26:02Z</time>
      </trkpt>
      <trkpt lat="43.43465" lon="3.61719">
        <ele>6.87</ele>
        <time>2016-02-21T08:26:03Z</time>
      </trkpt>
      <trkpt lat="43.43353" lon="3.61531">
        <ele>5.91</ele>
        <time>2016-02-21T08:26:11Z</time>
      </trkpt>
      <trkpt lat="43.432" lon="3.61272">
        <ele>4.46</ele>
        <time>2016-02-21T08:26:23Z</time>
      </trkpt>
      <trkpt lat="43.43067" lon="3.61049">
        <ele>4.94</ele>
        <time>2016-02-21T08:26:35Z</time>
      </trkpt>
      <trkpt lat="43.42999" lon="3.60936">
        <ele>4.94</ele>
        <time>2016-02-21T08:26:43Z</time>
      </trkpt>
      <trkpt lat="43.42998" lon="3.60924">
        <ele>5.42</ele>
        <time>2016-02-21T08:26:44Z</time>
      </trkpt>
      <trkpt lat="43.42998" lon="3.60911">
        <ele>4.94</ele>
        <time>2016-02-21T08:26:45Z</time>
      </trkpt>
      <trkpt lat="43.42999" lon="3.60897">
        <ele>4.94</ele>
        <time>2016-02-21T08:26:46Z</time>
      </trkpt>
      <trkpt lat="43.42996" lon="3.60884">
        <ele>4.94</ele>
        <time>2016-02-21T08:26:47Z</time>
      </trkpt>
      <trkpt lat="43.4299" lon="3.60875">
        <ele>4.94</ele>
        <time>2016-02-21T08:26:48Z</time>
      </trkpt>
      <trkpt lat="43.42981" lon="3.60869">
        <ele>4.46</ele>
        <time>2016-02-21T08:26:49Z</time>
      </trkpt>
      <trkpt lat="43.42971" lon="3.60866">
        <ele>4.46</ele>
        <time>2016-02-21T08:26:50Z</time>
      </trkpt>
      <trkpt lat="43.4296" lon="3.60861">
        <ele>4.46</ele>
        <time>2016-02-21T08:26:51Z</time>
      </trkpt>
      <trkpt lat="43.4295" lon="3.60851">
        <ele>4.94</ele>
        <time>2016-02-21T08:26:52Z</time>
      </trkpt>
      <trkpt lat="43.42941" lon="3.60838">
        <ele>4.94</ele>
        <time>2016-02-21T08:26:53Z</time>
      </trkpt>
      <trkpt lat="43.42932" lon="3.60823">
        <ele>5.42</ele>
        <time>2016-02-21T08:26:54Z</time>
      </trkpt>
      <trkpt lat="43.42838" lon="3.60668">
        <ele>9.27</ele>
        <time>2016-02-21T08:27:05Z</time>
      </trkpt>
      <trkpt lat="43.42761" lon="3.60537">
        <ele>10.23</ele>
        <time>2016-02-21T08:27:16Z</time>
      </trkpt>
      <trkpt lat="43.42758" lon="3.6053">
        <ele>10.23</ele>
        <time>2016-02-21T08:27:17Z</time>
      </trkpt>
      <trkpt lat="43.42757" lon="3.60522">
        <ele>10.23</ele>
        <time>2016-02-21T08:27:18Z</time>
      </trkpt>
      <trkpt lat="43.42756" lon="3.60514">
        <ele>11.19</ele>
        <time>2016-02-21T08:27:19Z</time>
      </trkpt>
      <trkpt lat="43.42758" lon="3.60504">
        <ele>11.67</ele>
        <time>2016-02-21T08:27:20Z</time>
      </trkpt>
      <trkpt lat="43.4276" lon="3.60497">
        <ele>11.67</ele>
        <time>2016-02-21T08:27:21Z</time>
      </trkpt>
      <trkpt lat="43.42763" lon="3.60484">
        <ele>12.15</ele>
        <time>2016-02-21T08:27:24Z</time>
      </trkpt>
      <trkpt lat="43.42766" lon="3.60478">
        <ele>12.63</ele>
        <time>2016-02-21T08:27:25Z</time>
      </trkpt>
      <trkpt lat="43.42809" lon="3.60396">
        <ele>17.92</ele>
        <time>2016-02-21T08:27:32Z</time>
      </trkpt>
      <trkpt lat="43.4288" lon="3.60228">
        <ele>19.84</ele>
        <time>2016-02-21T08:27:44Z</time>
      </trkpt>
      <trkpt lat="43.42929" lon="3.60117">
        <ele>19.84</ele>
        <time>2016-02-21T08:27:54Z</time>
      </trkpt>
      <trkpt lat="43.42932" lon="3.60111">
        <ele>19.84</ele>
        <time>2016-02-21T08:28:01Z</time>
      </trkpt>
      <trkpt lat="43.42943" lon="3.60086">
        <ele>20.32</ele>
        <time>2016-02-21T08:28:15Z</time>
      </trkpt>
      <trkpt lat="43.42976" lon="3.60007">
        <ele>20.81</ele>
        <time>2016-02-21T08:28:21Z</time>
      </trkpt>
      <trkpt lat="43.4307" lon="3.59795">
        <ele>23.69</ele>
        <time>2016-02-21T08:28:36Z</time>
      </trkpt>
      <trkpt lat="43.43098" lon="3.59722">
        <ele>24.65</ele>
        <time>2016-02-21T08:28:42Z</time>
      </trkpt>
      <trkpt lat="43.43103" lon="3.59713">
        <ele>24.65</ele>
        <time>2016-02-21T08:28:43Z</time>
      </trkpt>
      <trkpt lat="43.43109" lon="3.59706">
        <ele>25.13</ele>
        <time>2016-02-21T08:28:44Z</time>
      </trkpt>
      <trkpt lat="43.43123" lon="3.59692">
        <ele>25.13</ele>
        <time>2016-02-21T08:28:46Z</time>
      </trkpt>
      <trkpt lat="43.43127" lon="3.59683">
        <ele>25.13</ele>
        <time>2016-02-21T08:28:47Z</time>
      </trkpt>
      <trkpt lat="43.4313" lon="3.59673">
        <ele>25.13</ele>
        <time>2016-02-21T08:28:48Z</time>
      </trkpt>
      <trkpt lat="43.43131" lon="3.59661">
        <ele>25.13</ele>
        <time>2016-02-21T08:28:49Z</time>
      </trkpt>
      <trkpt lat="43.43133" lon="3.59648">
        <ele>25.13</ele>
        <time>2016-02-21T08:28:50Z</time>
      </trkpt>
      <trkpt lat="43.43137" lon="3.59635">
        <ele>25.61</ele>
        <time>2016-02-21T08:28:51Z</time>
      </trkpt>
      <trkpt lat="43.43142" lon="3.59623">
        <ele>25.61</ele>
        <time>2016-02-21T08:28:52Z</time>
      </trkpt>
      <trkpt lat="43.43149" lon="3.59611">
        <ele>26.09</ele>
        <time>2016-02-21T08:28:53Z</time>
      </trkpt>
      <trkpt lat="43.43157" lon="3.59598">
        <ele>26.57</ele>
        <time>2016-02-21T08:28:54Z</time>
      </trkpt>
      <trkpt lat="43.43164" lon="3.59583">
        <ele>27.05</ele>
        <time>2016-02-21T08:28:55Z</time>
      </trkpt>
      <trkpt lat="43.43242" lon="3.59407">
        <ele>30.9</ele>
        <time>2016-02-21T08:29:05Z</time>
      </trkpt>
      <trkpt lat="43.43286" lon="3.59307">
        <ele>30.9</ele>
        <time>2016-02-21T08:29:12Z</time>
      </trkpt>
      <trkpt lat="43.43335" lon="3.59198">
        <ele>29.94</ele>
        <time>2016-02-21T08:29:17Z</time>
      </trkpt>
      <trkpt lat="43.43492" lon="3.58847">
        <ele>25.13</ele>
        <time>2016-02-21T08:29:31Z</time>
      </trkpt>
      <trkpt lat="43.4362" lon="3.58558">
        <ele>17.92</ele>
        <time>2016-02-21T08:29:41Z</time>
      </trkpt>
      <trkpt lat="43.43765" lon="3.58231">
        <ele>16.48</ele>
        <time>2016-02-21T08:29:51Z</time>
      </trkpt>
      <trkpt lat="43.43902" lon="3.57922">
        <ele>21.29</ele>
        <time>2016-02-21T08:30:01Z</time>
      </trkpt>
      <trkpt lat="43.43966" lon="3.57781">
        <ele>21.29</ele>
        <time>2016-02-21T08:30:07Z</time>
      </trkpt>
      <trkpt lat="43.43987" lon="3.57751">
        <ele>21.77</ele>
        <time>2016-02-21T08:30:09Z</time>
      </trkpt>
      <trkpt lat="43.43998" lon="3.57741">
        <ele>21.29</ele>
        <time>2016-02-21T08:30:10Z</time>
      </trkpt>
      <trkpt lat="43.44018" lon="3.57724">
        <ele>21.77</ele>
        <time>2016-02-21T08:30:12Z</time>
      </trkpt>
      <trkpt lat="43.44022" lon="3.5771">
        <ele>21.77</ele>
        <time>2016-02-21T08:30:13Z</time>
      </trkpt>
      <trkpt lat="43.44022" lon="3.57693">
        <ele>21.77</ele>
        <time>2016-02-21T08:30:14Z</time>
      </trkpt>
      <trkpt lat="43.44023" lon="3.57673">
        <ele>21.77</ele>
        <time>2016-02-21T08:30:15Z</time>
      </trkpt>
      <trkpt lat="43.44028" lon="3.5765">
        <ele>21.77</ele>
        <time>2016-02-21T08:30:16Z</time>
      </trkpt>
      <trkpt lat="43.44036" lon="3.57628">
        <ele>21.77</ele>
        <time>2016-02-21T08:30:17Z</time>
      </trkpt>
      <trkpt lat="43.44046" lon="3.57604">
        <ele>22.25</ele>
        <time>2016-02-21T08:30:18Z</time>
      </trkpt>
      <trkpt lat="43.4414" lon="3.57386">
        <ele>31.86</ele>
        <time>2016-02-21T08:30:26Z</time>
      </trkpt>
      <trkpt lat="43.443" lon="3.57021">
        <ele>39.55</ele>
        <time>2016-02-21T08:30:39Z</time>
      </trkpt>
      <trkpt lat="43.4447" lon="3.56638">
        <ele>41.95</ele>
        <time>2016-02-21T08:30:52Z</time>
      </trkpt>
      <trkpt lat="43.44657" lon="3.56215">
        <ele>46.76</ele>
        <time>2016-02-21T08:31:05Z</time>
      </trkpt>
      <trkpt lat="43.4486" lon="3.55761">
        <ele>54.93</ele>
        <time>2016-02-21T08:31:19Z</time>
      </trkpt>
      <trkpt lat="43.45093" lon="3.55351">
        <ele>52.53</ele>
        <time>2016-02-21T08:31:32Z</time>
      </trkpt>
      <trkpt lat="43.45296" lon="3.55001">
        <ele>62.14</ele>
        <time>2016-02-21T08:31:44Z</time>
      </trkpt>
      <trkpt lat="43.45508" lon="3.54671">
        <ele>60.22</ele>
        <time>2016-02-21T08:31:57Z</time>
      </trkpt>
      <trkpt lat="43.45671" lon="3.54422">
        <ele>52.05</ele>
        <time>2016-02-21T08:32:07Z</time>
      </trkpt>
      <trkpt lat="43.45682" lon="3.54391">
        <ele>50.61</ele>
        <time>2016-02-21T08:32:08Z</time>
      </trkpt>
      <trkpt lat="43.45691" lon="3.54355">
        <ele>49.16</ele>
        <time>2016-02-21T08:32:09Z</time>
      </trkpt>
      <trkpt lat="43.45697" lon="3.54317">
        <ele>47.72</ele>
        <time>2016-02-21T08:32:10Z</time>
      </trkpt>
      <trkpt lat="43.45702" lon="3.54277">
        <ele>46.28</ele>
        <time>2016-02-21T08:32:11Z</time>
      </trkpt>
      <trkpt lat="43.45706" lon="3.54237">
        <ele>45.32</ele>
        <time>2016-02-21T08:32:12Z</time>
      </trkpt>
      <trkpt lat="43.45752" lon="3.53647">
        <ele>46.28</ele>
        <time>2016-02-21T08:32:27Z</time>
      </trkpt>
      <trkpt lat="43.45791" lon="3.53151">
        <ele>40.51</ele>
        <time>2016-02-21T08:32:41Z</time>
      </trkpt>
      <trkpt lat="43.45835" lon="3.5262">
        <ele>47.72</ele>
        <time>2016-02-21T08:32:55Z</time>
      </trkpt>
      <trkpt lat="43.4588" lon="3.52068">
        <ele>55.89</ele>
        <time>2016-02-21T08:33:10Z</time>
      </trkpt>
      <trkpt lat="43.45911" lon="3.51705">
        <ele>57.34</ele>
        <time>2016-02-21T08:33:21Z</time>
      </trkpt>
      <trkpt lat="43.45932" lon="3.5148">
        <ele>57.82</ele>
        <time>2016-02-21T08:33:30Z</time>
      </trkpt>
      <trkpt lat="43.4595" lon="3.51411">
        <ele>58.3</ele>
        <time>2016-02-21T08:33:33Z</time>
      </trkpt>
      <trkpt lat="43.45959" lon="3.5139">
        <ele>58.3</ele>
        <time>2016-02-21T08:33:34Z</time>
      </trkpt>
      <trkpt lat="43.4597" lon="3.51372">
        <ele>58.78</ele>
        <time>2016-02-21T08:33:35Z</time>
      </trkpt>
      <trkpt lat="43.45983" lon="3.51354">
        <ele>58.78</ele>
        <time>2016-02-21T08:33:36Z</time>
      </trkpt>
      <trkpt lat="43.45997" lon="3.51339">
        <ele>58.78</ele>
        <time>2016-02-21T08:33:37Z</time>
      </trkpt>
      <trkpt lat="43.46012" lon="3.51324">
        <ele>58.78</ele>
        <time>2016-02-21T08:33:38Z</time>
      </trkpt>
      <trkpt lat="43.46027" lon="3.5131">
        <ele>58.78</ele>
        <time>2016-02-21T08:33:39Z</time>
      </trkpt>
      <trkpt lat="43.46249" lon="3.51127">
        <ele>70.79</ele>
        <time>2016-02-21T08:33:53Z</time>
      </trkpt>
      <trkpt lat="43.46442" lon="3.50959">
        <ele>82.81</ele>
        <time>2016-02-21T08:34:04Z</time>
      </trkpt>
      <trkpt lat="43.46577" lon="3.50791">
        <ele>90.98</ele>
        <time>2016-02-21T08:34:11Z</time>
      </trkpt>
      <trkpt lat="43.4669" lon="3.50533">
        <ele>97.23</ele>
        <time>2016-02-21T08:34:19Z</time>
      </trkpt>
      <trkpt lat="43.4684" lon="3.50177">
        <ele>99.63</ele>
        <time>2016-02-21T08:34:29Z</time>
      </trkpt>
      <trkpt lat="43.46979" lon="3.49908">
        <ele>90.02</ele>
        <time>2016-02-21T08:34:37Z</time>
      </trkpt>
      <trkpt lat="43.47328" lon="3.49363">
        <ele>68.87</ele>
        <time>2016-02-21T08:34:55Z</time>
      </trkpt>
      <trkpt lat="43.47458" lon="3.49163">
        <ele>64.07</ele>
        <time>2016-02-21T08:35:03Z</time>
      </trkpt>
      <trkpt lat="43.47577" lon="3.48966">
        <ele>62.14</ele>
        <time>2016-02-21T08:35:13Z</time>
      </trkpt>
      <trkpt lat="43.47668" lon="3.48823">
        <ele>59.26</ele>
        <time>2016-02-21T08:35:22Z</time>
      </trkpt>
      <trkpt lat="43.47777" lon="3.48729">
        <ele>53.49</ele>
        <time>2016-02-21T08:35:31Z</time>
      </trkpt>
      <trkpt lat="43.47913" lon="3.48615">
        <ele>48.68</ele>
        <time>2016-02-21T08:35:43Z</time>
      </trkpt>
      <trkpt lat="43.47978" lon="3.48562">
        <ele>48.2</ele>
        <time>2016-02-21T08:35:52Z</time>
      </trkpt>
      <trkpt lat="43.47992" lon="3.48551">
        <ele>48.2</ele>
        <time>2016-02-21T08:35:59Z</time>
      </trkpt>
      <trkpt lat="43.48009" lon="3.48535">
        <ele>48.68</ele>
        <time>2016-02-21T08:36:28Z</time>
      </trkpt>
      <trkpt lat="43.48053" lon="3.48491">
        <ele>50.13</ele>
        <time>2016-02-21T08:36:36Z</time>
      </trkpt>
      <trkpt lat="43.48085" lon="3.4842">
        <ele>53.97</ele>
        <time>2016-02-21T08:36:45Z</time>
      </trkpt>
      <trkpt lat="43.48091" lon="3.48383">
        <ele>55.89</ele>
        <time>2016-02-21T08:36:49Z</time>
      </trkpt>
      <trkpt lat="43.48092" lon="3.48378">
        <ele>56.37</ele>
        <time>2016-02-21T08:36:50Z</time>
      </trkpt>
      <trkpt lat="43.48091" lon="3.48379">
        <ele>55.89</ele>
        <time>2016-02-21T08:36:51Z</time>
      </trkpt>
      <trkpt lat="43.48094" lon="3.48375">
        <ele>61.18</ele>
        <time>2016-02-21T08:37:07Z</time>
      </trkpt>
      <trkpt lat="43.48092" lon="3.48357">
        <ele>52.05</ele>
        <time>2016-02-21T08:38:22Z</time>
      </trkpt>
      <trkpt lat="43.48086" lon="3.48351">
        <ele>51.09</ele>
        <time>2016-02-21T08:38:23Z</time>
      </trkpt>
      <trkpt lat="43.4808" lon="3.48344">
        <ele>50.13</ele>
        <time>2016-02-21T08:38:24Z</time>
      </trkpt>
      <trkpt lat="43.48069" lon="3.48331">
        <ele>49.16</ele>
        <time>2016-02-21T08:38:26Z</time>
      </trkpt>
      <trkpt lat="43.48065" lon="3.48323">
        <ele>48.68</ele>
        <time>2016-02-21T08:38:27Z</time>
      </trkpt>
      <trkpt lat="43.48062" lon="3.48314">
        <ele>48.2</ele>
        <time>2016-02-21T08:38:28Z</time>
      </trkpt>
      <trkpt lat="43.48063" lon="3.48304">
        <ele>48.2</ele>
        <time>2016-02-21T08:38:29Z</time>
      </trkpt>
      <trkpt lat="43.48069" lon="3.48294">
        <ele>47.72</ele>
        <time>2016-02-21T08:38:30Z</time>
      </trkpt>
      <trkpt lat="43.48075" lon="3.48282">
        <ele>47.24</ele>
        <time>2016-02-21T08:38:31Z</time>
      </trkpt>
      <trkpt lat="43.48081" lon="3.48267">
        <ele>47.24</ele>
        <time>2016-02-21T08:38:32Z</time>
      </trkpt>
      <trkpt lat="43.48146" lon="3.48101">
        <ele>48.2</ele>
        <time>2016-02-21T08:38:45Z</time>
      </trkpt>
      <trkpt lat="43.48158" lon="3.48065">
        <ele>47.24</ele>
        <time>2016-02-21T08:38:50Z</time>
      </trkpt>
      <trkpt lat="43.48158" lon="3.4806">
        <ele>47.24</ele>
        <time>2016-02-21T08:38:51Z</time>
      </trkpt>
      <trkpt lat="43.48159" lon="3.48057">
        <ele>46.76</ele>
        <time>2016-02-21T08:38:52Z</time>
      </trkpt>
      <trkpt lat="43.48156" lon="3.48056">
        <ele>43.88</ele>
        <time>2016-02-21T08:39:05Z</time>
      </trkpt>
      <trkpt lat="43.48154" lon="3.48051">
        <ele>44.36</ele>
        <time>2016-02-21T08:39:46Z</time>
      </trkpt>
      <trkpt lat="43.48153" lon="3.48043">
        <ele>44.36</ele>
        <time>2016-02-21T08:39:47Z</time>
      </trkpt>
      <trkpt lat="43.48151" lon="3.48032">
        <ele>44.36</ele>
        <time>2016-02-21T08:39:48Z</time>
      </trkpt>
      <trkpt lat="43.48149" lon="3.48018">
        <ele>44.84</ele>
        <time>2016-02-21T08:39:49Z</time>
      </trkpt>
      <trkpt lat="43.48147" lon="3.48004">
        <ele>44.84</ele>
        <time>2016-02-21T08:39:50Z</time>
      </trkpt>
      <trkpt lat="43.4813" lon="3.47869">
        <ele>43.4</ele>
        <time>2016-02-21T08:40:00Z</time>
      </trkpt>
      <trkpt lat="43.48113" lon="3.47733">
        <ele>40.51</ele>
        <time>2016-02-21T08:40:07Z</time>
      </trkpt>
      <trkpt lat="43.48084" lon="3.47482">
        <ele>34.26</ele>
        <time>2016-02-21T08:40:18Z</time>
      </trkpt>
      <trkpt lat="43.48061" lon="3.4729">
        <ele>29.46</ele>
        <time>2016-02-21T08:40:28Z</time>
      </trkpt>
      <trkpt lat="43.48047" lon="3.47165">
        <ele>27.53</ele>
        <time>2016-02-21T08:40:34Z</time>
      </trkpt>
      <trkpt lat="43.48007" lon="3.46952">
        <ele>25.13</ele>
        <time>2016-02-21T08:40:41Z</time>
      </trkpt>
      <trkpt lat="43.47923" lon="3.46577">
        <ele>22.73</ele>
        <time>2016-02-21T08:40:53Z</time>
      </trkpt>
      <trkpt lat="43.47869" lon="3.46255">
        <ele>22.73</ele>
        <time>2016-02-21T08:41:03Z</time>
      </trkpt>
      <trkpt lat="43.47826" lon="3.45842">
        <ele>22.25</ele>
        <time>2016-02-21T08:41:15Z</time>
      </trkpt>
      <trkpt lat="43.47816" lon="3.45809">
        <ele>22.25</ele>
        <time>2016-02-21T08:41:16Z</time>
      </trkpt>
      <trkpt lat="43.478" lon="3.45778">
        <ele>21.29</ele>
        <time>2016-02-21T08:41:17Z</time>
      </trkpt>
      <trkpt lat="43.47782" lon="3.45752">
        <ele>21.29</ele>
        <time>2016-02-21T08:41:18Z</time>
      </trkpt>
      <trkpt lat="43.47762" lon="3.45726">
        <ele>20.81</ele>
        <time>2016-02-21T08:41:19Z</time>
      </trkpt>
      <trkpt lat="43.4774" lon="3.45701">
        <ele>20.81</ele>
        <time>2016-02-21T08:41:20Z</time>
      </trkpt>
      <trkpt lat="43.4772" lon="3.45676">
        <ele>20.32</ele>
        <time>2016-02-21T08:41:21Z</time>
      </trkpt>
      <trkpt lat="43.47395" lon="3.45263">
        <ele>19.36</ele>
        <time>2016-02-21T08:41:38Z</time>
      </trkpt>
      <trkpt lat="43.4738" lon="3.45236">
        <ele>19.84</ele>
        <time>2016-02-21T08:41:39Z</time>
      </trkpt>
      <trkpt lat="43.47371" lon="3.45204">
        <ele>19.84</ele>
        <time>2016-02-21T08:41:40Z</time>
      </trkpt>
      <trkpt lat="43.47366" lon="3.45169">
        <ele>19.84</ele>
        <time>2016-02-21T08:41:41Z</time>
      </trkpt>
      <trkpt lat="43.47365" lon="3.45132">
        <ele>19.84</ele>
        <time>2016-02-21T08:41:42Z</time>
      </trkpt>
      <trkpt lat="43.47366" lon="3.45095">
        <ele>19.36</ele>
        <time>2016-02-21T08:41:43Z</time>
      </trkpt>
      <trkpt lat="43.47373" lon="3.45057">
        <ele>19.36</ele>
        <time>2016-02-21T08:41:44Z</time>
      </trkpt>
      <trkpt lat="43.47382" lon="3.45019">
        <ele>19.36</ele>
        <time>2016-02-21T08:41:45Z</time>
      </trkpt>
      <trkpt lat="43.47392" lon="3.44979">
        <ele>19.84</ele>
        <time>2016-02-21T08:41:46Z</time>
      </trkpt>
      <trkpt lat="43.474" lon="3.44941">
        <ele>20.32</ele>
        <time>2016-02-21T08:41:47Z</time>
      </trkpt>
      <trkpt lat="43.47506" lon="3.4439">
        <ele>24.17</ele>
        <time>2016-02-21T08:42:02Z</time>
      </trkpt>
      <trkpt lat="43.47577" lon="3.43991">
        <ele>22.73</ele>
        <time>2016-02-21T08:42:14Z</time>
      </trkpt>
      <trkpt lat="43.47603" lon="3.43868">
        <ele>23.21</ele>
        <time>2016-02-21T08:42:20Z</time>
      </trkpt>
      <trkpt lat="43.47609" lon="3.43856">
        <ele>23.21</ele>
        <time>2016-02-21T08:42:21Z</time>
      </trkpt>
      <trkpt lat="43.47616" lon="3.43847">
        <ele>23.21</ele>
        <time>2016-02-21T08:42:22Z</time>
      </trkpt>
      <trkpt lat="43.47625" lon="3.43841">
        <ele>22.73</ele>
        <time>2016-02-21T08:42:23Z</time>
      </trkpt>
      <trkpt lat="43.47632" lon="3.43834">
        <ele>22.25</ele>
        <time>2016-02-21T08:42:24Z</time>
      </trkpt>
      <trkpt lat="43.47636" lon="3.43823">
        <ele>22.25</ele>
        <time>2016-02-21T08:42:25Z</time>
      </trkpt>
      <trkpt lat="43.47635" lon="3.43812">
        <ele>22.25</ele>
        <time>2016-02-21T08:42:26Z</time>
      </trkpt>
      <trkpt lat="43.47632" lon="3.43801">
        <ele>22.73</ele>
        <time>2016-02-21T08:42:27Z</time>
      </trkpt>
      <trkpt lat="43.47627" lon="3.43791">
        <ele>22.25</ele>
        <time>2016-02-21T08:42:28Z</time>
      </trkpt>
      <trkpt lat="43.47624" lon="3.4378">
        <ele>21.77</ele>
        <time>2016-02-21T08:42:29Z</time>
      </trkpt>
      <trkpt lat="43.47622" lon="3.43768">
        <ele>21.77</ele>
        <time>2016-02-21T08:42:30Z</time>
      </trkpt>
      <trkpt lat="43.47623" lon="3.43755">
        <ele>21.77</ele>
        <time>2016-02-21T08:42:31Z</time>
      </trkpt>
      <trkpt lat="43.47625" lon="3.43742">
        <ele>21.77</ele>
        <time>2016-02-21T08:42:32Z</time>
      </trkpt>
      <trkpt lat="43.47627" lon="3.43729">
        <ele>21.77</ele>
        <time>2016-02-21T08:42:33Z</time>
      </trkpt>
      <trkpt lat="43.47643" lon="3.43656">
        <ele>22.25</ele>
        <time>2016-02-21T08:42:39Z</time>
      </trkpt>
      <trkpt lat="43.47647" lon="3.43647">
        <ele>22.25</ele>
        <time>2016-02-21T08:42:40Z</time>
      </trkpt>
      <trkpt lat="43.47652" lon="3.4364">
        <ele>22.25</ele>
        <time>2016-02-21T08:42:41Z</time>
      </trkpt>
      <trkpt lat="43.47665" lon="3.43626">
        <ele>22.25</ele>
        <time>2016-02-21T08:42:43Z</time>
      </trkpt>
      <trkpt lat="43.47669" lon="3.43616">
        <ele>22.73</ele>
        <time>2016-02-21T08:42:44Z</time>
      </trkpt>
      <trkpt lat="43.47669" lon="3.43603">
        <ele>22.25</ele>
        <time>2016-02-21T08:42:45Z</time>
      </trkpt>
      <trkpt lat="43.47666" lon="3.43592">
        <ele>22.25</ele>
        <time>2016-02-21T08:42:46Z</time>
      </trkpt>
      <trkpt lat="43.4766" lon="3.43582">
        <ele>22.25</ele>
        <time>2016-02-21T08:42:47Z</time>
      </trkpt>
      <trkpt lat="43.47652" lon="3.43572">
        <ele>22.25</ele>
        <time>2016-02-21T08:42:48Z</time>
      </trkpt>
      <trkpt lat="43.47644" lon="3.43559">
        <ele>22.25</ele>
        <time>2016-02-21T08:42:49Z</time>
      </trkpt>
      <trkpt lat="43.47638" lon="3.43543">
        <ele>22.25</ele>
        <time>2016-02-21T08:42:50Z</time>
      </trkpt>
      <trkpt lat="43.4761" lon="3.43469">
        <ele>23.69</ele>
        <time>2016-02-21T08:42:54Z</time>
      </trkpt>
      <trkpt lat="43.47599" lon="3.43451">
        <ele>23.69</ele>
        <time>2016-02-21T08:42:55Z</time>
      </trkpt>
      <trkpt lat="43.47482" lon="3.43268">
        <ele>24.17</ele>
        <time>2016-02-21T08:43:04Z</time>
      </trkpt>
      <trkpt lat="43.47343" lon="3.43084">
        <ele>24.65</ele>
        <time>2016-02-21T08:43:13Z</time>
      </trkpt>
      <trkpt lat="43.47324" lon="3.43074">
        <ele>24.65</ele>
        <time>2016-02-21T08:43:14Z</time>
      </trkpt>
      <trkpt lat="43.47303" lon="3.4307">
        <ele>24.65</ele>
        <time>2016-02-21T08:43:15Z</time>
      </trkpt>
      <trkpt lat="43.47279" lon="3.4307">
        <ele>24.65</ele>
        <time>2016-02-21T08:43:16Z</time>
      </trkpt>
      <trkpt lat="43.47254" lon="3.43076">
        <ele>24.65</ele>
        <time>2016-02-21T08:43:17Z</time>
      </trkpt>
      <trkpt lat="43.47229" lon="3.43085">
        <ele>23.69</ele>
        <time>2016-02-21T08:43:18Z</time>
      </trkpt>
      <trkpt lat="43.47204" lon="3.43099">
        <ele>23.69</ele>
        <time>2016-02-21T08:43:19Z</time>
      </trkpt>
      <trkpt lat="43.4718" lon="3.43114">
        <ele>23.21</ele>
        <time>2016-02-21T08:43:20Z</time>
      </trkpt>
      <trkpt lat="43.47157" lon="3.43129">
        <ele>23.21</ele>
        <time>2016-02-21T08:43:21Z</time>
      </trkpt>
      <trkpt lat="43.47076" lon="3.43175">
        <ele>21.77</ele>
        <time>2016-02-21T08:43:25Z</time>
      </trkpt>
      <trkpt lat="43.47056" lon="3.43181">
        <ele>21.29</ele>
        <time>2016-02-21T08:43:26Z</time>
      </trkpt>
      <trkpt lat="43.47036" lon="3.43183">
        <ele>20.81</ele>
        <time>2016-02-21T08:43:27Z</time>
      </trkpt>
      <trkpt lat="43.47015" lon="3.43182">
        <ele>20.32</ele>
        <time>2016-02-21T08:43:28Z</time>
      </trkpt>
      <trkpt lat="43.46995" lon="3.43177">
        <ele>20.32</ele>
        <time>2016-02-21T08:43:29Z</time>
      </trkpt>
      <trkpt lat="43.46975" lon="3.43169">
        <ele>19.84</ele>
        <time>2016-02-21T08:43:30Z</time>
      </trkpt>
      <trkpt lat="43.46955" lon="3.43158">
        <ele>19.36</ele>
        <time>2016-02-21T08:43:31Z</time>
      </trkpt>
      <trkpt lat="43.46936" lon="3.43145">
        <ele>19.36</ele>
        <time>2016-02-21T08:43:32Z</time>
      </trkpt>
      <trkpt lat="43.46916" lon="3.4313">
        <ele>19.84</ele>
        <time>2016-02-21T08:43:33Z</time>
      </trkpt>
      <trkpt lat="43.46787" lon="3.43029">
        <ele>19.36</ele>
        <time>2016-02-21T08:43:41Z</time>
      </trkpt>
      <trkpt lat="43.46519" lon="3.4282">
        <ele>19.36</ele>
        <time>2016-02-21T08:43:58Z</time>
      </trkpt>
      <trkpt lat="43.46356" lon="3.42692">
        <ele>18.88</ele>
        <time>2016-02-21T08:44:09Z</time>
      </trkpt>
      <trkpt lat="43.46286" lon="3.42589">
        <ele>20.32</ele>
        <time>2016-02-21T08:44:16Z</time>
      </trkpt>
      <trkpt lat="43.46224" lon="3.42442">
        <ele>24.17</ele>
        <time>2016-02-21T08:44:26Z</time>
      </trkpt>
      <trkpt lat="43.46216" lon="3.4242">
        <ele>23.69</ele>
        <time>2016-02-21T08:44:28Z</time>
      </trkpt>
      <trkpt lat="43.46213" lon="3.42409">
        <ele>23.69</ele>
        <time>2016-02-21T08:44:29Z</time>
      </trkpt>
      <trkpt lat="43.46212" lon="3.42397">
        <ele>23.69</ele>
        <time>2016-02-21T08:44:30Z</time>
      </trkpt>
      <trkpt lat="43.46212" lon="3.42385">
        <ele>23.21</ele>
        <time>2016-02-21T08:44:31Z</time>
      </trkpt>
      <trkpt lat="43.46212" lon="3.42372">
        <ele>23.21</ele>
        <time>2016-02-21T08:44:32Z</time>
      </trkpt>
      <trkpt lat="43.46214" lon="3.42361">
        <ele>22.73</ele>
        <time>2016-02-21T08:44:33Z</time>
      </trkpt>
      <trkpt lat="43.46216" lon="3.4235">
        <ele>22.73</ele>
        <time>2016-02-21T08:44:34Z</time>
      </trkpt>
      <trkpt lat="43.4622" lon="3.42343">
        <ele>23.69</ele>
        <time>2016-02-21T08:44:35Z</time>
      </trkpt>
      <trkpt lat="43.46227" lon="3.42334">
        <ele>24.17</ele>
        <time>2016-02-21T08:44:36Z</time>
      </trkpt>
      <trkpt lat="43.46234" lon="3.42328">
        <ele>24.65</ele>
        <time>2016-02-21T08:44:37Z</time>
      </trkpt>
      <trkpt lat="43.4624" lon="3.42321">
        <ele>24.65</ele>
        <time>2016-02-21T08:44:38Z</time>
      </trkpt>
      <trkpt lat="43.46246" lon="3.42315">
        <ele>24.17</ele>
        <time>2016-02-21T08:44:39Z</time>
      </trkpt>
      <trkpt lat="43.46253" lon="3.42306">
        <ele>24.17</ele>
        <time>2016-02-21T08:44:40Z</time>
      </trkpt>
      <trkpt lat="43.46259" lon="3.42296">
        <ele>24.17</ele>
        <time>2016-02-21T08:44:41Z</time>
      </trkpt>
      <trkpt lat="43.46264" lon="3.42284">
        <ele>24.65</ele>
        <time>2016-02-21T08:44:42Z</time>
      </trkpt>
      <trkpt lat="43.46275" lon="3.42254">
        <ele>24.65</ele>
        <time>2016-02-21T08:44:45Z</time>
      </trkpt>
      <trkpt lat="43.46276" lon="3.42243">
        <ele>24.17</ele>
        <time>2016-02-21T08:44:46Z</time>
      </trkpt>
      <trkpt lat="43.46277" lon="3.42233">
        <ele>24.17</ele>
        <time>2016-02-21T08:44:47Z</time>
      </trkpt>
      <trkpt lat="43.46276" lon="3.42177">
        <ele>23.69</ele>
        <time>2016-02-21T08:44:52Z</time>
      </trkpt>
      <trkpt lat="43.46273" lon="3.42166">
        <ele>23.69</ele>
        <time>2016-02-21T08:44:53Z</time>
      </trkpt>
      <trkpt lat="43.46269" lon="3.42155">
        <ele>23.21</ele>
        <time>2016-02-21T08:44:54Z</time>
      </trkpt>
      <trkpt lat="43.46222" lon="3.4209">
        <ele>25.13</ele>
        <time>2016-02-21T08:45:02Z</time>
      </trkpt>
      <trkpt lat="43.46215" lon="3.42089">
        <ele>25.13</ele>
        <time>2016-02-21T08:45:03Z</time>
      </trkpt>
      <trkpt lat="43.46174" lon="3.42052">
        <ele>26.57</ele>
        <time>2016-02-21T08:45:09Z</time>
      </trkpt>
      <trkpt lat="43.46168" lon="3.42048">
        <ele>26.09</ele>
        <time>2016-02-21T08:45:10Z</time>
      </trkpt>
      <trkpt lat="43.46142" lon="3.42031">
        <ele>26.57</ele>
        <time>2016-02-21T08:45:14Z</time>
      </trkpt>
      <trkpt lat="43.46136" lon="3.42024">
        <ele>26.57</ele>
        <time>2016-02-21T08:45:15Z</time>
      </trkpt>
      <trkpt lat="43.4613" lon="3.42016">
        <ele>27.05</ele>
        <time>2016-02-21T08:45:16Z</time>
      </trkpt>
      <trkpt lat="43.46126" lon="3.42005">
        <ele>27.05</ele>
        <time>2016-02-21T08:45:17Z</time>
      </trkpt>
      <trkpt lat="43.46122" lon="3.41993">
        <ele>27.05</ele>
        <time>2016-02-21T08:45:18Z</time>
      </trkpt>
      <trkpt lat="43.4612" lon="3.41982">
        <ele>27.53</ele>
        <time>2016-02-21T08:45:19Z</time>
      </trkpt>
      <trkpt lat="43.46113" lon="3.41948">
        <ele>28.5</ele>
        <time>2016-02-21T08:45:22Z</time>
      </trkpt>
      <trkpt lat="43.46113" lon="3.41938">
        <ele>30.42</ele>
        <time>2016-02-21T08:45:23Z</time>
      </trkpt>
      <trkpt lat="43.46117" lon="3.41924">
        <ele>29.94</ele>
        <time>2016-02-21T08:45:24Z</time>
      </trkpt>
      <trkpt lat="43.46122" lon="3.41913">
        <ele>29.46</ele>
        <time>2016-02-21T08:45:25Z</time>
      </trkpt>
      <trkpt lat="43.46131" lon="3.41901">
        <ele>29.94</ele>
        <time>2016-02-21T08:45:26Z</time>
      </trkpt>
      <trkpt lat="43.46139" lon="3.4189">
        <ele>29.46</ele>
        <time>2016-02-21T08:45:27Z</time>
      </trkpt>
      <trkpt lat="43.4623" lon="3.41751">
        <ele>28.98</ele>
        <time>2016-02-21T08:45:38Z</time>
      </trkpt>
      <trkpt lat="43.46236" lon="3.41737">
        <ele>28.5</ele>
        <time>2016-02-21T08:45:39Z</time>
      </trkpt>
      <trkpt lat="43.46274" lon="3.41567">
        <ele>27.05</ele>
        <time>2016-02-21T08:45:49Z</time>
      </trkpt>
      <trkpt lat="43.46309" lon="3.41347">
        <ele>26.57</ele>
        <time>2016-02-21T08:46:00Z</time>
      </trkpt>
      <trkpt lat="43.46352" lon="3.41087">
        <ele>25.61</ele>
        <time>2016-02-21T08:46:13Z</time>
      </trkpt>
      <trkpt lat="43.46362" lon="3.41055">
        <ele>26.09</ele>
        <time>2016-02-21T08:46:15Z</time>
      </trkpt>
      <trkpt lat="43.46368" lon="3.41043">
        <ele>26.09</ele>
        <time>2016-02-21T08:46:16Z</time>
      </trkpt>
      <trkpt lat="43.46389" lon="3.41004">
        <ele>27.05</ele>
        <time>2016-02-21T08:46:20Z</time>
      </trkpt>
      <trkpt lat="43.4639" lon="3.40994">
        <ele>27.53</ele>
        <time>2016-02-21T08:46:21Z</time>
      </trkpt>
      <trkpt lat="43.46389" lon="3.40984">
        <ele>28.02</ele>
        <time>2016-02-21T08:46:22Z</time>
      </trkpt>
      <trkpt lat="43.46386" lon="3.40966">
        <ele>27.05</ele>
        <time>2016-02-21T08:46:28Z</time>
      </trkpt>
      <trkpt lat="43.46386" lon="3.40966">
        <ele>26.57</ele>
        <time>2016-02-21T08:46:34Z</time>
      </trkpt>
      <trkpt lat="43.46388" lon="3.40963">
        <ele>26.57</ele>
        <time>2016-02-21T08:46:35Z</time>
      </trkpt>
      <trkpt lat="43.46391" lon="3.40956">
        <ele>26.57</ele>
        <time>2016-02-21T08:46:36Z</time>
      </trkpt>
      <trkpt lat="43.46396" lon="3.40947">
        <ele>26.09</ele>
        <time>2016-02-21T08:46:37Z</time>
      </trkpt>
      <trkpt lat="43.46403" lon="3.40935">
        <ele>26.09</ele>
        <time>2016-02-21T08:46:38Z</time>
      </trkpt>
      <trkpt lat="43.4644" lon="3.40822">
        <ele>26.57</ele>
        <time>2016-02-21T08:46:44Z</time>
      </trkpt>
      <trkpt lat="43.46474" lon="3.40597">
        <ele>29.46</ele>
        <time>2016-02-21T08:46:52Z</time>
      </trkpt>
      <trkpt lat="43.46505" lon="3.40341">
        <ele>30.9</ele>
        <time>2016-02-21T08:47:00Z</time>
      </trkpt>
      <trkpt lat="43.465" lon="3.40304">
        <ele>30.9</ele>
        <time>2016-02-21T08:47:01Z</time>
      </trkpt>
      <trkpt lat="43.46495" lon="3.40266">
        <ele>31.38</ele>
        <time>2016-02-21T08:47:02Z</time>
      </trkpt>
      <trkpt lat="43.46485" lon="3.40034">
        <ele>30.42</ele>
        <time>2016-02-21T08:47:08Z</time>
      </trkpt>
      <trkpt lat="43.46493" lon="3.39995">
        <ele>30.9</ele>
        <time>2016-02-21T08:47:09Z</time>
      </trkpt>
      <trkpt lat="43.46515" lon="3.39891">
        <ele>31.38</ele>
        <time>2016-02-21T08:47:12Z</time>
      </trkpt>
      <trkpt lat="43.46526" lon="3.39858">
        <ele>31.86</ele>
        <time>2016-02-21T08:47:13Z</time>
      </trkpt>
      <trkpt lat="43.46543" lon="3.39828">
        <ele>33.3</ele>
        <time>2016-02-21T08:47:14Z</time>
      </trkpt>
      <trkpt lat="43.4656" lon="3.398">
        <ele>33.78</ele>
        <time>2016-02-21T08:47:15Z</time>
      </trkpt>
      <trkpt lat="43.46577" lon="3.39775">
        <ele>33.78</ele>
        <time>2016-02-21T08:47:16Z</time>
      </trkpt>
      <trkpt lat="43.46657" lon="3.39651">
        <ele>34.26</ele>
        <time>2016-02-21T08:47:22Z</time>
      </trkpt>
      <trkpt lat="43.46666" lon="3.39628">
        <ele>33.78</ele>
        <time>2016-02-21T08:47:23Z</time>
      </trkpt>
      <trkpt lat="43.46674" lon="3.39605">
        <ele>34.26</ele>
        <time>2016-02-21T08:47:24Z</time>
      </trkpt>
      <trkpt lat="43.46681" lon="3.3958">
        <ele>33.78</ele>
        <time>2016-02-21T08:47:25Z</time>
      </trkpt>
      <trkpt lat="43.46686" lon="3.39553">
        <ele>34.26</ele>
        <time>2016-02-21T08:47:26Z</time>
      </trkpt>
      <trkpt lat="43.4669" lon="3.39527">
        <ele>33.78</ele>
        <time>2016-02-21T08:47:27Z</time>
      </trkpt>
      <trkpt lat="43.46693" lon="3.39499">
        <ele>33.3</ele>
        <time>2016-02-21T08:47:28Z</time>
      </trkpt>
      <trkpt lat="43.46749" lon="3.39149">
        <ele>38.11</ele>
        <time>2016-02-21T08:47:41Z</time>
      </trkpt>
      <trkpt lat="43.46829" lon="3.38869">
        <ele>38.59</ele>
        <time>2016-02-21T08:47:52Z</time>
      </trkpt>
      <trkpt lat="43.46867" lon="3.38582">
        <ele>39.07</ele>
        <time>2016-02-21T08:48:02Z</time>
      </trkpt>
      <trkpt lat="43.46871" lon="3.38322">
        <ele>40.99</ele>
        <time>2016-02-21T08:48:09Z</time>
      </trkpt>
      <trkpt lat="43.46874" lon="3.37949">
        <ele>46.28</ele>
        <time>2016-02-21T08:48:20Z</time>
      </trkpt>
      <trkpt lat="43.46883" lon="3.3789">
        <ele>47.24</ele>
        <time>2016-02-21T08:48:22Z</time>
      </trkpt>
      <trkpt lat="43.4689" lon="3.3786">
        <ele>46.28</ele>
        <time>2016-02-21T08:48:23Z</time>
      </trkpt>
      <trkpt lat="43.46906" lon="3.37833">
        <ele>46.28</ele>
        <time>2016-02-21T08:48:24Z</time>
      </trkpt>
      <trkpt lat="43.46931" lon="3.37808">
        <ele>46.28</ele>
        <time>2016-02-21T08:48:25Z</time>
      </trkpt>
      <trkpt lat="43.46951" lon="3.37786">
        <ele>45.8</ele>
        <time>2016-02-21T08:48:26Z</time>
      </trkpt>
      <trkpt lat="43.4697" lon="3.37767">
        <ele>44.84</ele>
        <time>2016-02-21T08:48:27Z</time>
      </trkpt>
      <trkpt lat="43.46988" lon="3.37749">
        <ele>44.36</ele>
        <time>2016-02-21T08:48:28Z</time>
      </trkpt>
      <trkpt lat="43.47101" lon="3.37624">
        <ele>42.44</ele>
        <time>2016-02-21T08:48:36Z</time>
      </trkpt>
      <trkpt lat="43.47185" lon="3.37525">
        <ele>41.95</ele>
        <time>2016-02-21T08:48:43Z</time>
      </trkpt>
      <trkpt lat="43.47342" lon="3.37335">
        <ele>43.88</ele>
        <time>2016-02-21T08:48:51Z</time>
      </trkpt>
      <trkpt lat="43.47719" lon="3.3688">
        <ele>48.2</ele>
        <time>2016-02-21T08:49:09Z</time>
      </trkpt>
      <trkpt lat="43.48044" lon="3.36487">
        <ele>52.53</ele>
        <time>2016-02-21T08:49:24Z</time>
      </trkpt>
      <trkpt lat="43.48306" lon="3.36158">
        <ele>55.89</ele>
        <time>2016-02-21T08:49:36Z</time>
      </trkpt>
      <trkpt lat="43.48406" lon="3.3595">
        <ele>55.89</ele>
        <time>2016-02-21T08:49:42Z</time>
      </trkpt>
      <trkpt lat="43.48492" lon="3.35759">
        <ele>56.37</ele>
        <time>2016-02-21T08:49:48Z</time>
      </trkpt>
      <trkpt lat="43.48535" lon="3.35707">
        <ele>55.41</ele>
        <time>2016-02-21T08:49:50Z</time>
      </trkpt>
      <trkpt lat="43.48558" lon="3.35683">
        <ele>54.93</ele>
        <time>2016-02-21T08:49:51Z</time>
      </trkpt>
      <trkpt lat="43.48692" lon="3.35542">
        <ele>56.86</ele>
        <time>2016-02-21T08:49:57Z</time>
      </trkpt>
      <trkpt lat="43.48866" lon="3.35228">
        <ele>61.18</ele>
        <time>2016-02-21T08:50:07Z</time>
      </trkpt>
      <trkpt lat="43.48997" lon="3.34885">
        <ele>68.39</ele>
        <time>2016-02-21T08:50:17Z</time>
      </trkpt>
      <trkpt lat="43.49164" lon="3.3444">
        <ele>78</ele>
        <time>2016-02-21T08:50:31Z</time>
      </trkpt>
      <trkpt lat="43.49385" lon="3.33854">
        <ele>82.33</ele>
        <time>2016-02-21T08:50:50Z</time>
      </trkpt>
      <trkpt lat="43.49568" lon="3.33368">
        <ele>83.77</ele>
        <time>2016-02-21T08:51:05Z</time>
      </trkpt>
      <trkpt lat="43.49695" lon="3.33032">
        <ele>84.73</ele>
        <time>2016-02-21T08:51:16Z</time>
      </trkpt>
      <trkpt lat="43.49786" lon="3.32791">
        <ele>84.73</ele>
        <time>2016-02-21T08:51:25Z</time>
      </trkpt>
      <trkpt lat="43.49897" lon="3.32501">
        <ele>88.1</ele>
        <time>2016-02-21T08:51:34Z</time>
      </trkpt>
      <trkpt lat="43.50015" lon="3.32186">
        <ele>91.94</ele>
        <time>2016-02-21T08:51:45Z</time>
      </trkpt>
      <trkpt lat="43.50071" lon="3.32042">
        <ele>93.39</ele>
        <time>2016-02-21T08:51:53Z</time>
      </trkpt>
      <trkpt lat="43.50075" lon="3.32033">
        <ele>93.39</ele>
        <time>2016-02-21T08:51:54Z</time>
      </trkpt>
      <trkpt lat="43.5008" lon="3.32027">
        <ele>93.39</ele>
        <time>2016-02-21T08:51:55Z</time>
      </trkpt>
      <trkpt lat="43.50085" lon="3.3202">
        <ele>93.39</ele>
        <time>2016-02-21T08:51:56Z</time>
      </trkpt>
      <trkpt lat="43.50089" lon="3.32011">
        <ele>93.87</ele>
        <time>2016-02-21T08:51:57Z</time>
      </trkpt>
      <trkpt lat="43.50091" lon="3.31998">
        <ele>93.87</ele>
        <time>2016-02-21T08:51:58Z</time>
      </trkpt>
      <trkpt lat="43.50094" lon="3.31984">
        <ele>93.87</ele>
        <time>2016-02-21T08:51:59Z</time>
      </trkpt>
      <trkpt lat="43.50098" lon="3.31968">
        <ele>93.87</ele>
        <time>2016-02-21T08:52:00Z</time>
      </trkpt>
      <trkpt lat="43.50104" lon="3.31952">
        <ele>93.87</ele>
        <time>2016-02-21T08:52:01Z</time>
      </trkpt>
      <trkpt lat="43.50143" lon="3.31859">
        <ele>94.83</ele>
        <time>2016-02-21T08:52:08Z</time>
      </trkpt>
      <trkpt lat="43.5015" lon="3.3185">
        <ele>95.31</ele>
        <time>2016-02-21T08:52:09Z</time>
      </trkpt>
      <trkpt lat="43.50162" lon="3.31834">
        <ele>95.31</ele>
        <time>2016-02-21T08:52:11Z</time>
      </trkpt>
      <trkpt lat="43.50165" lon="3.31825">
        <ele>95.31</ele>
        <time>2016-02-21T08:52:12Z</time>
      </trkpt>
      <trkpt lat="43.50166" lon="3.31813">
        <ele>95.79</ele>
        <time>2016-02-21T08:52:13Z</time>
      </trkpt>
      <trkpt lat="43.50169" lon="3.31799">
        <ele>95.79</ele>
        <time>2016-02-21T08:52:14Z</time>
      </trkpt>
      <trkpt lat="43.50173" lon="3.31783">
        <ele>95.79</ele>
        <time>2016-02-21T08:52:15Z</time>
      </trkpt>
      <trkpt lat="43.50178" lon="3.31766">
        <ele>96.27</ele>
        <time>2016-02-21T08:52:16Z</time>
      </trkpt>
      <trkpt lat="43.50246" lon="3.31576">
        <ele>100.11</ele>
        <time>2016-02-21T08:52:28Z</time>
      </trkpt>
      <trkpt lat="43.50304" lon="3.31426">
        <ele>103</ele>
        <time>2016-02-21T08:52:40Z</time>
      </trkpt>
      <trkpt lat="43.50342" lon="3.31327">
        <ele>105.88</ele>
        <time>2016-02-21T08:52:48Z</time>
      </trkpt>
      <trkpt lat="43.5039" lon="3.31203">
        <ele>111.65</ele>
        <time>2016-02-21T08:52:59Z</time>
      </trkpt>
      <trkpt lat="43.50449" lon="3.31083">
        <ele>117.42</ele>
        <time>2016-02-21T08:53:10Z</time>
      </trkpt>
      <trkpt lat="43.50509" lon="3.31008">
        <ele>123.19</ele>
        <time>2016-02-21T08:53:20Z</time>
      </trkpt>
      <trkpt lat="43.50533" lon="3.30968">
        <ele>128.95</ele>
        <time>2016-02-21T08:53:24Z</time>
      </trkpt>
      <trkpt lat="43.50536" lon="3.30952">
        <ele>129.92</ele>
        <time>2016-02-21T08:53:25Z</time>
      </trkpt>
      <trkpt lat="43.5056" lon="3.30844">
        <ele>135.2</ele>
        <time>2016-02-21T08:53:34Z</time>
      </trkpt>
      <trkpt lat="43.50566" lon="3.30833">
        <ele>135.68</ele>
        <time>2016-02-21T08:53:35Z</time>
      </trkpt>
      <trkpt lat="43.50611" lon="3.3077">
        <ele>137.13</ele>
        <time>2016-02-21T08:53:42Z</time>
      </trkpt>
      <trkpt lat="43.50619" lon="3.30763">
        <ele>137.13</ele>
        <time>2016-02-21T08:53:43Z</time>
      </trkpt>
      <trkpt lat="43.50628" lon="3.30757">
        <ele>137.61</ele>
        <time>2016-02-21T08:53:44Z</time>
      </trkpt>
      <trkpt lat="43.50638" lon="3.30752">
        <ele>138.57</ele>
        <time>2016-02-21T08:53:45Z</time>
      </trkpt>
      <trkpt lat="43.5065" lon="3.30748">
        <ele>138.57</ele>
        <time>2016-02-21T08:53:46Z</time>
      </trkpt>
      <trkpt lat="43.50661" lon="3.30745">
        <ele>138.57</ele>
        <time>2016-02-21T08:53:47Z</time>
      </trkpt>
      <trkpt lat="43.50716" lon="3.30725">
        <ele>140.97</ele>
        <time>2016-02-21T08:53:52Z</time>
      </trkpt>
      <trkpt lat="43.50727" lon="3.30719">
        <ele>140.97</ele>
        <time>2016-02-21T08:53:53Z</time>
      </trkpt>
      <trkpt lat="43.50737" lon="3.3071">
        <ele>141.45</ele>
        <time>2016-02-21T08:53:54Z</time>
      </trkpt>
      <trkpt lat="43.50747" lon="3.30701">
        <ele>141.45</ele>
        <time>2016-02-21T08:53:55Z</time>
      </trkpt>
      <trkpt lat="43.50757" lon="3.30689">
        <ele>141.93</ele>
        <time>2016-02-21T08:53:56Z</time>
      </trkpt>
      <trkpt lat="43.50766" lon="3.30676">
        <ele>141.93</ele>
        <time>2016-02-21T08:53:57Z</time>
      </trkpt>
      <trkpt lat="43.50774" lon="3.30662">
        <ele>141.93</ele>
        <time>2016-02-21T08:53:58Z</time>
      </trkpt>
      <trkpt lat="43.50781" lon="3.30646">
        <ele>141.93</ele>
        <time>2016-02-21T08:53:59Z</time>
      </trkpt>
      <trkpt lat="43.50787" lon="3.30629">
        <ele>142.41</ele>
        <time>2016-02-21T08:54:00Z</time>
      </trkpt>
      <trkpt lat="43.50793" lon="3.30611">
        <ele>142.41</ele>
        <time>2016-02-21T08:54:01Z</time>
      </trkpt>
      <trkpt lat="43.5084" lon="3.30486">
        <ele>145.3</ele>
        <time>2016-02-21T08:54:09Z</time>
      </trkpt>
      <trkpt lat="43.50845" lon="3.30477">
        <ele>145.78</ele>
        <time>2016-02-21T08:54:10Z</time>
      </trkpt>
      <trkpt lat="43.50856" lon="3.30462">
        <ele>145.3</ele>
        <time>2016-02-21T08:54:12Z</time>
      </trkpt>
      <trkpt lat="43.50857" lon="3.30451">
        <ele>145.3</ele>
        <time>2016-02-21T08:54:13Z</time>
      </trkpt>
      <trkpt lat="43.50857" lon="3.30435">
        <ele>145.3</ele>
        <time>2016-02-21T08:54:14Z</time>
      </trkpt>
      <trkpt lat="43.50858" lon="3.30417">
        <ele>145.3</ele>
        <time>2016-02-21T08:54:15Z</time>
      </trkpt>
      <trkpt lat="43.5086" lon="3.30396">
        <ele>145.3</ele>
        <time>2016-02-21T08:54:16Z</time>
      </trkpt>
      <trkpt lat="43.50899" lon="3.30157">
        <ele>143.37</ele>
        <time>2016-02-21T08:54:26Z</time>
      </trkpt>
      <trkpt lat="43.50959" lon="3.298">
        <ele>144.82</ele>
        <time>2016-02-21T08:54:38Z</time>
      </trkpt>
      <trkpt lat="43.50986" lon="3.29632">
        <ele>148.18</ele>
        <time>2016-02-21T08:54:43Z</time>
      </trkpt>
      <trkpt lat="43.50987" lon="3.29593">
        <ele>149.14</ele>
        <time>2016-02-21T08:54:44Z</time>
      </trkpt>
      <trkpt lat="43.50972" lon="3.29244">
        <ele>152.03</ele>
        <time>2016-02-21T08:54:53Z</time>
      </trkpt>
      <trkpt lat="43.5097" lon="3.28781">
        <ele>151.06</ele>
        <time>2016-02-21T08:55:06Z</time>
      </trkpt>
      <trkpt lat="43.50969" lon="3.28684">
        <ele>148.66</ele>
        <time>2016-02-21T08:55:09Z</time>
      </trkpt>
      <trkpt lat="43.50962" lon="3.28651">
        <ele>147.7</ele>
        <time>2016-02-21T08:55:10Z</time>
      </trkpt>
      <trkpt lat="43.50954" lon="3.28617">
        <ele>146.26</ele>
        <time>2016-02-21T08:55:11Z</time>
      </trkpt>
      <trkpt lat="43.50944" lon="3.28583">
        <ele>144.34</ele>
        <time>2016-02-21T08:55:12Z</time>
      </trkpt>
      <trkpt lat="43.50934" lon="3.28549">
        <ele>142.41</ele>
        <time>2016-02-21T08:55:13Z</time>
      </trkpt>
      <trkpt lat="43.50871" lon="3.28285">
        <ele>129.92</ele>
        <time>2016-02-21T08:55:21Z</time>
      </trkpt>
      <trkpt lat="43.50871" lon="3.28248">
        <ele>127.99</ele>
        <time>2016-02-21T08:55:22Z</time>
      </trkpt>
      <trkpt lat="43.50874" lon="3.28211">
        <ele>125.59</ele>
        <time>2016-02-21T08:55:23Z</time>
      </trkpt>
      <trkpt lat="43.50881" lon="3.28174">
        <ele>123.67</ele>
        <time>2016-02-21T08:55:24Z</time>
      </trkpt>
      <trkpt lat="43.5089" lon="3.28139">
        <ele>122.22</ele>
        <time>2016-02-21T08:55:25Z</time>
      </trkpt>
      <trkpt lat="43.50902" lon="3.28106">
        <ele>120.3</ele>
        <time>2016-02-21T08:55:26Z</time>
      </trkpt>
      <trkpt lat="43.50914" lon="3.28074">
        <ele>118.86</ele>
        <time>2016-02-21T08:55:27Z</time>
      </trkpt>
      <trkpt lat="43.50987" lon="3.27847">
        <ele>109.25</ele>
        <time>2016-02-21T08:55:35Z</time>
      </trkpt>
      <trkpt lat="43.51017" lon="3.27626">
        <ele>102.04</ele>
        <time>2016-02-21T08:55:43Z</time>
      </trkpt>
      <trkpt lat="43.5103" lon="3.27562">
        <ele>101.08</ele>
        <time>2016-02-21T08:55:46Z</time>
      </trkpt>
      <trkpt lat="43.51038" lon="3.27544">
        <ele>101.08</ele>
        <time>2016-02-21T08:55:47Z</time>
      </trkpt>
      <trkpt lat="43.51048" lon="3.27528">
        <ele>101.08</ele>
        <time>2016-02-21T08:55:48Z</time>
      </trkpt>
      <trkpt lat="43.51059" lon="3.27514">
        <ele>100.6</ele>
        <time>2016-02-21T08:55:49Z</time>
      </trkpt>
      <trkpt lat="43.51069" lon="3.27502">
        <ele>100.6</ele>
        <time>2016-02-21T08:55:50Z</time>
      </trkpt>
      <trkpt lat="43.5108" lon="3.27493">
        <ele>100.6</ele>
        <time>2016-02-21T08:55:54Z</time>
      </trkpt>
      <trkpt lat="43.51092" lon="3.27479">
        <ele>104.92</ele>
        <time>2016-02-21T08:57:33Z</time>
      </trkpt>
      <trkpt lat="43.51151" lon="3.27401">
        <ele>105.4</ele>
        <time>2016-02-21T08:57:41Z</time>
      </trkpt>
      <trkpt lat="43.5126" lon="3.2727">
        <ele>110.69</ele>
        <time>2016-02-21T08:57:56Z</time>
      </trkpt>
      <trkpt lat="43.51276" lon="3.27253">
        <ele>111.65</ele>
        <time>2016-02-21T08:57:59Z</time>
      </trkpt>
      <trkpt lat="43.51338" lon="3.27167">
        <ele>113.09</ele>
        <time>2016-02-21T08:58:08Z</time>
      </trkpt>
      <trkpt lat="43.51479" lon="3.26987">
        <ele>114.53</ele>
        <time>2016-02-21T08:58:24Z</time>
      </trkpt>
      <trkpt lat="43.51565" lon="3.26879">
        <ele>115.98</ele>
        <time>2016-02-21T08:58:33Z</time>
      </trkpt>
      <trkpt lat="43.51652" lon="3.26768">
        <ele>118.86</ele>
        <time>2016-02-21T08:58:42Z</time>
      </trkpt>
      <trkpt lat="43.51737" lon="3.26662">
        <ele>120.3</ele>
        <time>2016-02-21T08:58:49Z</time>
      </trkpt>
      <trkpt lat="43.51794" lon="3.2657">
        <ele>121.26</ele>
        <time>2016-02-21T08:58:53Z</time>
      </trkpt>
      <trkpt lat="43.51805" lon="3.26535">
        <ele>121.26</ele>
        <time>2016-02-21T08:58:54Z</time>
      </trkpt>
      <trkpt lat="43.51817" lon="3.26497">
        <ele>121.26</ele>
        <time>2016-02-21T08:58:55Z</time>
      </trkpt>
      <trkpt lat="43.51889" lon="3.26299">
        <ele>122.71</ele>
        <time>2016-02-21T08:59:00Z</time>
      </trkpt>
      <trkpt lat="43.52032" lon="3.25967">
        <ele>125.11</ele>
        <time>2016-02-21T08:59:09Z</time>
      </trkpt>
      <trkpt lat="43.52042" lon="3.25929">
        <ele>126.07</ele>
        <time>2016-02-21T08:59:10Z</time>
      </trkpt>
      <trkpt lat="43.5205" lon="3.25889">
        <ele>126.55</ele>
        <time>2016-02-21T08:59:11Z</time>
      </trkpt>
      <trkpt lat="43.52085" lon="3.25571">
        <ele>132.32</ele>
        <time>2016-02-21T08:59:19Z</time>
      </trkpt>
      <trkpt lat="43.52135" lon="3.25244">
        <ele>139.05</ele>
        <time>2016-02-21T08:59:28Z</time>
      </trkpt>
      <trkpt lat="43.52153" lon="3.25213">
        <ele>140.01</ele>
        <time>2016-02-21T08:59:29Z</time>
      </trkpt>
      <trkpt lat="43.52174" lon="3.25186">
        <ele>140.49</ele>
        <time>2016-02-21T08:59:30Z</time>
      </trkpt>
      <trkpt lat="43.52198" lon="3.25163">
        <ele>141.45</ele>
        <time>2016-02-21T08:59:31Z</time>
      </trkpt>
      <trkpt lat="43.52224" lon="3.25143">
        <ele>141.93</ele>
        <time>2016-02-21T08:59:32Z</time>
      </trkpt>
      <trkpt lat="43.5225" lon="3.25122">
        <ele>142.41</ele>
        <time>2016-02-21T08:59:33Z</time>
      </trkpt>
      <trkpt lat="43.52424" lon="3.24965">
        <ele>149.14</ele>
        <time>2016-02-21T08:59:41Z</time>
      </trkpt>
      <trkpt lat="43.52458" lon="3.24915">
        <ele>150.1</ele>
        <time>2016-02-21T08:59:43Z</time>
      </trkpt>
      <trkpt lat="43.5247" lon="3.24884">
        <ele>150.58</ele>
        <time>2016-02-21T08:59:44Z</time>
      </trkpt>
      <trkpt lat="43.52481" lon="3.24849">
        <ele>151.06</ele>
        <time>2016-02-21T08:59:45Z</time>
      </trkpt>
      <trkpt lat="43.52489" lon="3.24811">
        <ele>151.54</ele>
        <time>2016-02-21T08:59:46Z</time>
      </trkpt>
      <trkpt lat="43.52495" lon="3.24771">
        <ele>152.03</ele>
        <time>2016-02-21T08:59:47Z</time>
      </trkpt>
      <trkpt lat="43.52498" lon="3.24731">
        <ele>152.51</ele>
        <time>2016-02-21T08:59:48Z</time>
      </trkpt>
      <trkpt lat="43.52502" lon="3.2469">
        <ele>152.99</ele>
        <time>2016-02-21T08:59:49Z</time>
      </trkpt>
      <trkpt lat="43.52527" lon="3.24575">
        <ele>153.47</ele>
        <time>2016-02-21T08:59:52Z</time>
      </trkpt>
      <trkpt lat="43.52543" lon="3.24541">
        <ele>153.47</ele>
        <time>2016-02-21T08:59:53Z</time>
      </trkpt>
      <trkpt lat="43.52563" lon="3.24511">
        <ele>152.99</ele>
        <time>2016-02-21T08:59:54Z</time>
      </trkpt>
      <trkpt lat="43.52584" lon="3.24482">
        <ele>152.99</ele>
        <time>2016-02-21T08:59:55Z</time>
      </trkpt>
      <trkpt lat="43.52608" lon="3.24454">
        <ele>152.99</ele>
        <time>2016-02-21T08:59:56Z</time>
      </trkpt>
      <trkpt lat="43.52634" lon="3.24426">
        <ele>152.99</ele>
        <time>2016-02-21T08:59:57Z</time>
      </trkpt>
      <trkpt lat="43.52784" lon="3.24239">
        <ele>155.87</ele>
        <time>2016-02-21T09:00:04Z</time>
      </trkpt>
      <trkpt lat="43.52814" lon="3.24173">
        <ele>157.31</ele>
        <time>2016-02-21T09:00:06Z</time>
      </trkpt>
      <trkpt lat="43.52827" lon="3.24136">
        <ele>157.79</ele>
        <time>2016-02-21T09:00:07Z</time>
      </trkpt>
      <trkpt lat="43.52962" lon="3.23707">
        <ele>166.45</ele>
        <time>2016-02-21T09:00:19Z</time>
      </trkpt>
      <trkpt lat="43.53106" lon="3.23301">
        <ele>175.58</ele>
        <time>2016-02-21T09:00:31Z</time>
      </trkpt>
      <trkpt lat="43.53223" lon="3.23136">
        <ele>182.31</ele>
        <time>2016-02-21T09:00:37Z</time>
      </trkpt>
      <trkpt lat="43.53253" lon="3.23074">
        <ele>183.75</ele>
        <time>2016-02-21T09:00:39Z</time>
      </trkpt>
      <trkpt lat="43.53265" lon="3.2304">
        <ele>184.71</ele>
        <time>2016-02-21T09:00:40Z</time>
      </trkpt>
      <trkpt lat="43.53274" lon="3.23002">
        <ele>185.19</ele>
        <time>2016-02-21T09:00:41Z</time>
      </trkpt>
      <trkpt lat="43.53379" lon="3.22641">
        <ele>192.88</ele>
        <time>2016-02-21T09:00:51Z</time>
      </trkpt>
      <trkpt lat="43.53499" lon="3.22326">
        <ele>202.01</ele>
        <time>2016-02-21T09:01:00Z</time>
      </trkpt>
      <trkpt lat="43.53566" lon="3.22207">
        <ele>205.38</ele>
        <time>2016-02-21T09:01:04Z</time>
      </trkpt>
      <trkpt lat="43.5359" lon="3.22188">
        <ele>206.34</ele>
        <time>2016-02-21T09:01:05Z</time>
      </trkpt>
      <trkpt lat="43.53619" lon="3.22178">
        <ele>206.34</ele>
        <time>2016-02-21T09:01:06Z</time>
      </trkpt>
      <trkpt lat="43.53649" lon="3.22166">
        <ele>206.34</ele>
        <time>2016-02-21T09:01:07Z</time>
      </trkpt>
      <trkpt lat="43.5368" lon="3.22158">
        <ele>206.82</ele>
        <time>2016-02-21T09:01:08Z</time>
      </trkpt>
      <trkpt lat="43.53713" lon="3.22152">
        <ele>207.3</ele>
        <time>2016-02-21T09:01:09Z</time>
      </trkpt>
      <trkpt lat="43.53744" lon="3.22144">
        <ele>207.78</ele>
        <time>2016-02-21T09:01:10Z</time>
      </trkpt>
      <trkpt lat="43.53977" lon="3.22067">
        <ele>212.11</ele>
        <time>2016-02-21T09:01:18Z</time>
      </trkpt>
      <trkpt lat="43.54216" lon="3.21934">
        <ele>216.43</ele>
        <time>2016-02-21T09:01:27Z</time>
      </trkpt>
      <trkpt lat="43.54237" lon="3.21911">
        <ele>216.43</ele>
        <time>2016-02-21T09:01:28Z</time>
      </trkpt>
      <trkpt lat="43.54256" lon="3.21882">
        <ele>216.91</ele>
        <time>2016-02-21T09:01:29Z</time>
      </trkpt>
      <trkpt lat="43.54275" lon="3.21848">
        <ele>216.91</ele>
        <time>2016-02-21T09:01:30Z</time>
      </trkpt>
      <trkpt lat="43.54293" lon="3.21814">
        <ele>217.4</ele>
        <time>2016-02-21T09:01:31Z</time>
      </trkpt>
      <trkpt lat="43.54491" lon="3.2147">
        <ele>220.28</ele>
        <time>2016-02-21T09:01:42Z</time>
      </trkpt>
      <trkpt lat="43.54516" lon="3.21452">
        <ele>220.76</ele>
        <time>2016-02-21T09:01:43Z</time>
      </trkpt>
      <trkpt lat="43.54543" lon="3.21438">
        <ele>221.24</ele>
        <time>2016-02-21T09:01:44Z</time>
      </trkpt>
      <trkpt lat="43.54571" lon="3.21429">
        <ele>220.76</ele>
        <time>2016-02-21T09:01:45Z</time>
      </trkpt>
      <trkpt lat="43.54597" lon="3.21419">
        <ele>220.76</ele>
        <time>2016-02-21T09:01:46Z</time>
      </trkpt>
      <trkpt lat="43.5469" lon="3.21371">
        <ele>220.76</ele>
        <time>2016-02-21T09:01:50Z</time>
      </trkpt>
      <trkpt lat="43.54708" lon="3.21354">
        <ele>220.76</ele>
        <time>2016-02-21T09:01:51Z</time>
      </trkpt>
      <trkpt lat="43.54722" lon="3.21332">
        <ele>220.76</ele>
        <time>2016-02-21T09:01:52Z</time>
      </trkpt>
      <trkpt lat="43.54732" lon="3.21306">
        <ele>220.28</ele>
        <time>2016-02-21T09:01:53Z</time>
      </trkpt>
      <trkpt lat="43.54736" lon="3.21279">
        <ele>219.8</ele>
        <time>2016-02-21T09:01:54Z</time>
      </trkpt>
      <trkpt lat="43.54735" lon="3.2125">
        <ele>219.32</ele>
        <time>2016-02-21T09:01:55Z</time>
      </trkpt>
      <trkpt lat="43.5473" lon="3.21224">
        <ele>218.36</ele>
        <time>2016-02-21T09:01:56Z</time>
      </trkpt>
      <trkpt lat="43.54718" lon="3.21197">
        <ele>218.84</ele>
        <time>2016-02-21T09:01:57Z</time>
      </trkpt>
      <trkpt lat="43.54705" lon="3.21172">
        <ele>217.88</ele>
        <time>2016-02-21T09:01:58Z</time>
      </trkpt>
      <trkpt lat="43.54691" lon="3.21148">
        <ele>216.91</ele>
        <time>2016-02-21T09:01:59Z</time>
      </trkpt>
      <trkpt lat="43.54647" lon="3.21066">
        <ele>216.91</ele>
        <time>2016-02-21T09:02:03Z</time>
      </trkpt>
      <trkpt lat="43.5464" lon="3.21045">
        <ele>217.4</ele>
        <time>2016-02-21T09:02:04Z</time>
      </trkpt>
      <trkpt lat="43.54635" lon="3.21021">
        <ele>217.88</ele>
        <time>2016-02-21T09:02:05Z</time>
      </trkpt>
      <trkpt lat="43.54609" lon="3.20776">
        <ele>219.32</ele>
        <time>2016-02-21T09:02:15Z</time>
      </trkpt>
      <trkpt lat="43.5461" lon="3.20755">
        <ele>219.32</ele>
        <time>2016-02-21T09:02:16Z</time>
      </trkpt>
      <trkpt lat="43.54614" lon="3.20734">
        <ele>219.32</ele>
        <time>2016-02-21T09:02:17Z</time>
      </trkpt>
      <trkpt lat="43.5462" lon="3.20716">
        <ele>219.32</ele>
        <time>2016-02-21T09:02:18Z</time>
      </trkpt>
      <trkpt lat="43.5463" lon="3.207">
        <ele>218.84</ele>
        <time>2016-02-21T09:02:19Z</time>
      </trkpt>
      <trkpt lat="43.54641" lon="3.20686">
        <ele>218.84</ele>
        <time>2016-02-21T09:02:20Z</time>
      </trkpt>
      <trkpt lat="43.54654" lon="3.20674">
        <ele>218.36</ele>
        <time>2016-02-21T09:02:21Z</time>
      </trkpt>
      <trkpt lat="43.54668" lon="3.20663">
        <ele>217.88</ele>
        <time>2016-02-21T09:02:22Z</time>
      </trkpt>
      <trkpt lat="43.54706" lon="3.20624">
        <ele>215.95</ele>
        <time>2016-02-21T09:02:25Z</time>
      </trkpt>
      <trkpt lat="43.54718" lon="3.20608">
        <ele>215.47</ele>
        <time>2016-02-21T09:02:26Z</time>
      </trkpt>
      <trkpt lat="43.54729" lon="3.20589">
        <ele>214.99</ele>
        <time>2016-02-21T09:02:27Z</time>
      </trkpt>
      <trkpt lat="43.54738" lon="3.20568">
        <ele>214.03</ele>
        <time>2016-02-21T09:02:28Z</time>
      </trkpt>
      <trkpt lat="43.54746" lon="3.20544">
        <ele>213.07</ele>
        <time>2016-02-21T09:02:29Z</time>
      </trkpt>
      <trkpt lat="43.54754" lon="3.20516">
        <ele>212.11</ele>
        <time>2016-02-21T09:02:30Z</time>
      </trkpt>
      <trkpt lat="43.54758" lon="3.20482">
        <ele>211.15</ele>
        <time>2016-02-21T09:02:31Z</time>
      </trkpt>
      <trkpt lat="43.5476" lon="3.20447">
        <ele>210.19</ele>
        <time>2016-02-21T09:02:32Z</time>
      </trkpt>
      <trkpt lat="43.54778" lon="3.20308">
        <ele>205.86</ele>
        <time>2016-02-21T09:02:36Z</time>
      </trkpt>
      <trkpt lat="43.54788" lon="3.20278">
        <ele>205.38</ele>
        <time>2016-02-21T09:02:37Z</time>
      </trkpt>
      <trkpt lat="43.54799" lon="3.20251">
        <ele>204.9</ele>
        <time>2016-02-21T09:02:38Z</time>
      </trkpt>
      <trkpt lat="43.54811" lon="3.20226">
        <ele>204.9</ele>
        <time>2016-02-21T09:02:39Z</time>
      </trkpt>
      <trkpt lat="43.54823" lon="3.20204">
        <ele>204.9</ele>
        <time>2016-02-21T09:02:40Z</time>
      </trkpt>
      <trkpt lat="43.54835" lon="3.20183">
        <ele>205.38</ele>
        <time>2016-02-21T09:02:41Z</time>
      </trkpt>
      <trkpt lat="43.54947" lon="3.20019">
        <ele>213.55</ele>
        <time>2016-02-21T09:02:49Z</time>
      </trkpt>
      <trkpt lat="43.55067" lon="3.19897">
        <ele>224.61</ele>
        <time>2016-02-21T09:02:55Z</time>
      </trkpt>
      <trkpt lat="43.55164" lon="3.19817">
        <ele>232.3</ele>
        <time>2016-02-21T09:03:00Z</time>
      </trkpt>
      <trkpt lat="43.55179" lon="3.19796">
        <ele>233.26</ele>
        <time>2016-02-21T09:03:01Z</time>
      </trkpt>
      <trkpt lat="43.55189" lon="3.1977">
        <ele>234.7</ele>
        <time>2016-02-21T09:03:02Z</time>
      </trkpt>
      <trkpt lat="43.55198" lon="3.19744">
        <ele>236.14</ele>
        <time>2016-02-21T09:03:03Z</time>
      </trkpt>
      <trkpt lat="43.55205" lon="3.19718">
        <ele>237.1</ele>
        <time>2016-02-21T09:03:04Z</time>
      </trkpt>
      <trkpt lat="43.55221" lon="3.19673">
        <ele>239.51</ele>
        <time>2016-02-21T09:03:06Z</time>
      </trkpt>
      <trkpt lat="43.55231" lon="3.19655">
        <ele>240.95</ele>
        <time>2016-02-21T09:03:07Z</time>
      </trkpt>
      <trkpt lat="43.55244" lon="3.19641">
        <ele>242.39</ele>
        <time>2016-02-21T09:03:08Z</time>
      </trkpt>
      <trkpt lat="43.55259" lon="3.19631">
        <ele>243.35</ele>
        <time>2016-02-21T09:03:09Z</time>
      </trkpt>
      <trkpt lat="43.55275" lon="3.19629">
        <ele>243.35</ele>
        <time>2016-02-21T09:03:10Z</time>
      </trkpt>
      <trkpt lat="43.5529" lon="3.19632">
        <ele>244.31</ele>
        <time>2016-02-21T09:03:11Z</time>
      </trkpt>
      <trkpt lat="43.55304" lon="3.19635">
        <ele>245.27</ele>
        <time>2016-02-21T09:03:12Z</time>
      </trkpt>
      <trkpt lat="43.55317" lon="3.19637">
        <ele>245.75</ele>
        <time>2016-02-21T09:03:13Z</time>
      </trkpt>
      <trkpt lat="43.55349" lon="3.19636">
        <ele>246.72</ele>
        <time>2016-02-21T09:03:16Z</time>
      </trkpt>
      <trkpt lat="43.5536" lon="3.19632">
        <ele>247.2</ele>
        <time>2016-02-21T09:03:17Z</time>
      </trkpt>
      <trkpt lat="43.5537" lon="3.19626">
        <ele>247.68</ele>
        <time>2016-02-21T09:03:18Z</time>
      </trkpt>
      <trkpt lat="43.55381" lon="3.19617">
        <ele>248.16</ele>
        <time>2016-02-21T09:03:19Z</time>
      </trkpt>
      <trkpt lat="43.55393" lon="3.19606">
        <ele>248.64</ele>
        <time>2016-02-21T09:03:20Z</time>
      </trkpt>
      <trkpt lat="43.55406" lon="3.19592">
        <ele>249.6</ele>
        <time>2016-02-21T09:03:21Z</time>
      </trkpt>
      <trkpt lat="43.5542" lon="3.19574">
        <ele>250.08</ele>
        <time>2016-02-21T09:03:22Z</time>
      </trkpt>
      <trkpt lat="43.55538" lon="3.19456">
        <ele>254.89</ele>
        <time>2016-02-21T09:03:28Z</time>
      </trkpt>
      <trkpt lat="43.5561" lon="3.19411">
        <ele>257.29</ele>
        <time>2016-02-21T09:03:31Z</time>
      </trkpt>
      <trkpt lat="43.55637" lon="3.19402">
        <ele>258.25</ele>
        <time>2016-02-21T09:03:32Z</time>
      </trkpt>
      <trkpt lat="43.55664" lon="3.19397">
        <ele>259.21</ele>
        <time>2016-02-21T09:03:33Z</time>
      </trkpt>
      <trkpt lat="43.55918" lon="3.19383">
        <ele>264.5</ele>
        <time>2016-02-21T09:03:42Z</time>
      </trkpt>
      <trkpt lat="43.56025" lon="3.19369">
        <ele>266.42</ele>
        <time>2016-02-21T09:03:46Z</time>
      </trkpt>
      <trkpt lat="43.56049" lon="3.19358">
        <ele>266.42</ele>
        <time>2016-02-21T09:03:47Z</time>
      </trkpt>
      <trkpt lat="43.56173" lon="3.19288">
        <ele>261.14</ele>
        <time>2016-02-21T09:03:53Z</time>
      </trkpt>
      <trkpt lat="43.56325" lon="3.19203">
        <ele>257.29</ele>
        <time>2016-02-21T09:04:03Z</time>
      </trkpt>
      <trkpt lat="43.56426" lon="3.19147">
        <ele>259.69</ele>
        <time>2016-02-21T09:04:12Z</time>
      </trkpt>
      <trkpt lat="43.56455" lon="3.19129">
        <ele>261.62</ele>
        <time>2016-02-21T09:04:15Z</time>
      </trkpt>
      <trkpt lat="43.56464" lon="3.1912">
        <ele>262.1</ele>
        <time>2016-02-21T09:04:16Z</time>
      </trkpt>
      <trkpt lat="43.56472" lon="3.19109">
        <ele>263.06</ele>
        <time>2016-02-21T09:04:17Z</time>
      </trkpt>
      <trkpt lat="43.56478" lon="3.19096">
        <ele>263.54</ele>
        <time>2016-02-21T09:04:18Z</time>
      </trkpt>
      <trkpt lat="43.56482" lon="3.19082">
        <ele>264.98</ele>
        <time>2016-02-21T09:04:19Z</time>
      </trkpt>
      <trkpt lat="43.56484" lon="3.19066">
        <ele>265.94</ele>
        <time>2016-02-21T09:04:20Z</time>
      </trkpt>
      <trkpt lat="43.56486" lon="3.1905">
        <ele>266.9</ele>
        <time>2016-02-21T09:04:21Z</time>
      </trkpt>
      <trkpt lat="43.56487" lon="3.19034">
        <ele>267.38</ele>
        <time>2016-02-21T09:04:22Z</time>
      </trkpt>
      <trkpt lat="43.56486" lon="3.1902">
        <ele>267.86</ele>
        <time>2016-02-21T09:04:23Z</time>
      </trkpt>
      <trkpt lat="43.56484" lon="3.19006">
        <ele>268.35</ele>
        <time>2016-02-21T09:04:24Z</time>
      </trkpt>
      <trkpt lat="43.56479" lon="3.18994">
        <ele>268.83</ele>
        <time>2016-02-21T09:04:25Z</time>
      </trkpt>
      <trkpt lat="43.56475" lon="3.18983">
        <ele>268.83</ele>
        <time>2016-02-21T09:04:26Z</time>
      </trkpt>
      <trkpt lat="43.56469" lon="3.18973">
        <ele>269.31</ele>
        <time>2016-02-21T09:04:27Z</time>
      </trkpt>
      <trkpt lat="43.56464" lon="3.18963">
        <ele>269.79</ele>
        <time>2016-02-21T09:04:28Z</time>
      </trkpt>
      <trkpt lat="43.56399" lon="3.18857">
        <ele>271.71</ele>
        <time>2016-02-21T09:04:38Z</time>
      </trkpt>
      <trkpt lat="43.5632" lon="3.18741">
        <ele>278.92</ele>
        <time>2016-02-21T09:04:48Z</time>
      </trkpt>
      <trkpt lat="43.56277" lon="3.18659">
        <ele>282.77</ele>
        <time>2016-02-21T09:04:54Z</time>
      </trkpt>
      <trkpt lat="43.56273" lon="3.18642">
        <ele>283.25</ele>
        <time>2016-02-21T09:04:55Z</time>
      </trkpt>
      <trkpt lat="43.5627" lon="3.18624">
        <ele>283.25</ele>
        <time>2016-02-21T09:04:56Z</time>
      </trkpt>
      <trkpt lat="43.56268" lon="3.18605">
        <ele>283.73</ele>
        <time>2016-02-21T09:04:57Z</time>
      </trkpt>
      <trkpt lat="43.56267" lon="3.18586">
        <ele>284.21</ele>
        <time>2016-02-21T09:04:58Z</time>
      </trkpt>
      <trkpt lat="43.56261" lon="3.18527">
        <ele>285.65</ele>
        <time>2016-02-21T09:05:01Z</time>
      </trkpt>
      <trkpt lat="43.56256" lon="3.18509">
        <ele>286.61</ele>
        <time>2016-02-21T09:05:02Z</time>
      </trkpt>
      <trkpt lat="43.5625" lon="3.18491">
        <ele>287.09</ele>
        <time>2016-02-21T09:05:03Z</time>
      </trkpt>
      <trkpt lat="43.56241" lon="3.18475">
        <ele>287.57</ele>
        <time>2016-02-21T09:05:04Z</time>
      </trkpt>
      <trkpt lat="43.56229" lon="3.18462">
        <ele>288.05</ele>
        <time>2016-02-21T09:05:05Z</time>
      </trkpt>
      <trkpt lat="43.56215" lon="3.18451">
        <ele>288.05</ele>
        <time>2016-02-21T09:05:06Z</time>
      </trkpt>
      <trkpt lat="43.56201" lon="3.18442">
        <ele>288.53</ele>
        <time>2016-02-21T09:05:07Z</time>
      </trkpt>
      <trkpt lat="43.56188" lon="3.18432">
        <ele>289.49</ele>
        <time>2016-02-21T09:05:08Z</time>
      </trkpt>
      <trkpt lat="43.56178" lon="3.18419">
        <ele>289.97</ele>
        <time>2016-02-21T09:05:09Z</time>
      </trkpt>
      <trkpt lat="43.56168" lon="3.18404">
        <ele>290.94</ele>
        <time>2016-02-21T09:05:10Z</time>
      </trkpt>
      <trkpt lat="43.56163" lon="3.18386">
        <ele>291.42</ele>
        <time>2016-02-21T09:05:11Z</time>
      </trkpt>
      <trkpt lat="43.5616" lon="3.18367">
        <ele>291.9</ele>
        <time>2016-02-21T09:05:12Z</time>
      </trkpt>
      <trkpt lat="43.56157" lon="3.18347">
        <ele>292.38</ele>
        <time>2016-02-21T09:05:13Z</time>
      </trkpt>
      <trkpt lat="43.56129" lon="3.18203">
        <ele>295.74</ele>
        <time>2016-02-21T09:05:22Z</time>
      </trkpt>
      <trkpt lat="43.56132" lon="3.18191">
        <ele>296.22</ele>
        <time>2016-02-21T09:05:23Z</time>
      </trkpt>
      <trkpt lat="43.56137" lon="3.18184">
        <ele>297.18</ele>
        <time>2016-02-21T09:05:24Z</time>
      </trkpt>
      <trkpt lat="43.56144" lon="3.18179">
        <ele>297.67</ele>
        <time>2016-02-21T09:05:25Z</time>
      </trkpt>
      <trkpt lat="43.56152" lon="3.18174">
        <ele>298.63</ele>
        <time>2016-02-21T09:05:26Z</time>
      </trkpt>
      <trkpt lat="43.5616" lon="3.18171">
        <ele>299.11</ele>
        <time>2016-02-21T09:05:27Z</time>
      </trkpt>
      <trkpt lat="43.5617" lon="3.18166">
        <ele>298.63</ele>
        <time>2016-02-21T09:05:28Z</time>
      </trkpt>
      <trkpt lat="43.56248" lon="3.18126">
        <ele>300.07</ele>
        <time>2016-02-21T09:05:37Z</time>
      </trkpt>
      <trkpt lat="43.56255" lon="3.18118">
        <ele>300.07</ele>
        <time>2016-02-21T09:05:38Z</time>
      </trkpt>
      <trkpt lat="43.5626" lon="3.18108">
        <ele>300.55</ele>
        <time>2016-02-21T09:05:39Z</time>
      </trkpt>
      <trkpt lat="43.56263" lon="3.18097">
        <ele>300.55</ele>
        <time>2016-02-21T09:05:40Z</time>
      </trkpt>
      <trkpt lat="43.56264" lon="3.18087">
        <ele>301.03</ele>
        <time>2016-02-21T09:05:41Z</time>
      </trkpt>
      <trkpt lat="43.56267" lon="3.18077">
        <ele>301.03</ele>
        <time>2016-02-21T09:05:42Z</time>
      </trkpt>
      <trkpt lat="43.5627" lon="3.18067">
        <ele>301.03</ele>
        <time>2016-02-21T09:05:43Z</time>
      </trkpt>
      <trkpt lat="43.56276" lon="3.18057">
        <ele>301.51</ele>
        <time>2016-02-21T09:05:44Z</time>
      </trkpt>
      <trkpt lat="43.56326" lon="3.17975">
        <ele>305.84</ele>
        <time>2016-02-21T09:05:50Z</time>
      </trkpt>
      <trkpt lat="43.56333" lon="3.17956">
        <ele>306.8</ele>
        <time>2016-02-21T09:05:51Z</time>
      </trkpt>
      <trkpt lat="43.56338" lon="3.17937">
        <ele>307.76</ele>
        <time>2016-02-21T09:05:52Z</time>
      </trkpt>
      <trkpt lat="43.56369" lon="3.1773">
        <ele>316.41</ele>
        <time>2016-02-21T09:06:01Z</time>
      </trkpt>
      <trkpt lat="43.5641" lon="3.17361">
        <ele>326.02</ele>
        <time>2016-02-21T09:06:15Z</time>
      </trkpt>
      <trkpt lat="43.56439" lon="3.17111">
        <ele>330.83</ele>
        <time>2016-02-21T09:06:25Z</time>
      </trkpt>
      <trkpt lat="43.56455" lon="3.17002">
        <ele>333.23</ele>
        <time>2016-02-21T09:06:30Z</time>
      </trkpt>
      <trkpt lat="43.56461" lon="3.16983">
        <ele>333.23</ele>
        <time>2016-02-21T09:06:31Z</time>
      </trkpt>
      <trkpt lat="43.5647" lon="3.16964">
        <ele>333.71</ele>
        <time>2016-02-21T09:06:32Z</time>
      </trkpt>
      <trkpt lat="43.56481" lon="3.16946">
        <ele>334.2</ele>
        <time>2016-02-21T09:06:33Z</time>
      </trkpt>
      <trkpt lat="43.56493" lon="3.16932">
        <ele>334.68</ele>
        <time>2016-02-21T09:06:34Z</time>
      </trkpt>
      <trkpt lat="43.56507" lon="3.1692">
        <ele>335.16</ele>
        <time>2016-02-21T09:06:35Z</time>
      </trkpt>
      <trkpt lat="43.56522" lon="3.16912">
        <ele>335.16</ele>
        <time>2016-02-21T09:06:36Z</time>
      </trkpt>
      <trkpt lat="43.56538" lon="3.16907">
        <ele>335.64</ele>
        <time>2016-02-21T09:06:37Z</time>
      </trkpt>
      <trkpt lat="43.56554" lon="3.16905">
        <ele>336.12</ele>
        <time>2016-02-21T09:06:38Z</time>
      </trkpt>
      <trkpt lat="43.5657" lon="3.16906">
        <ele>336.6</ele>
        <time>2016-02-21T09:06:39Z</time>
      </trkpt>
      <trkpt lat="43.56585" lon="3.16909">
        <ele>337.08</ele>
        <time>2016-02-21T09:06:40Z</time>
      </trkpt>
      <trkpt lat="43.56602" lon="3.16912">
        <ele>337.56</ele>
        <time>2016-02-21T09:06:41Z</time>
      </trkpt>
      <trkpt lat="43.56707" lon="3.16942">
        <ele>340.92</ele>
        <time>2016-02-21T09:06:46Z</time>
      </trkpt>
      <trkpt lat="43.56935" lon="3.17017">
        <ele>347.65</ele>
        <time>2016-02-21T09:06:55Z</time>
      </trkpt>
      <trkpt lat="43.57312" lon="3.1713">
        <ele>347.65</ele>
        <time>2016-02-21T09:07:09Z</time>
      </trkpt>
      <trkpt lat="43.57433" lon="3.17132">
        <ele>340.44</ele>
        <time>2016-02-21T09:07:13Z</time>
      </trkpt>
      <trkpt lat="43.57464" lon="3.17124">
        <ele>337.56</ele>
        <time>2016-02-21T09:07:14Z</time>
      </trkpt>
      <trkpt lat="43.57725" lon="3.17039">
        <ele>313.53</ele>
        <time>2016-02-21T09:07:23Z</time>
      </trkpt>
      <trkpt lat="43.57804" lon="3.16996">
        <ele>306.8</ele>
        <time>2016-02-21T09:07:26Z</time>
      </trkpt>
      <trkpt lat="43.57828" lon="3.16975">
        <ele>304.39</ele>
        <time>2016-02-21T09:07:27Z</time>
      </trkpt>
      <trkpt lat="43.58024" lon="3.16774">
        <ele>284.69</ele>
        <time>2016-02-21T09:07:36Z</time>
      </trkpt>
      <trkpt lat="43.58117" lon="3.16674">
        <ele>277</ele>
        <time>2016-02-21T09:07:41Z</time>
      </trkpt>
      <trkpt lat="43.58132" lon="3.16648">
        <ele>276.04</ele>
        <time>2016-02-21T09:07:42Z</time>
      </trkpt>
      <trkpt lat="43.58142" lon="3.16616">
        <ele>274.59</ele>
        <time>2016-02-21T09:07:43Z</time>
      </trkpt>
      <trkpt lat="43.58148" lon="3.16581">
        <ele>273.15</ele>
        <time>2016-02-21T09:07:44Z</time>
      </trkpt>
      <trkpt lat="43.58149" lon="3.16544">
        <ele>272.19</ele>
        <time>2016-02-21T09:07:45Z</time>
      </trkpt>
      <trkpt lat="43.58146" lon="3.16502">
        <ele>270.75</ele>
        <time>2016-02-21T09:07:46Z</time>
      </trkpt>
      <trkpt lat="43.58141" lon="3.1646">
        <ele>269.79</ele>
        <time>2016-02-21T09:07:47Z</time>
      </trkpt>
      <trkpt lat="43.58134" lon="3.16419">
        <ele>268.83</ele>
        <time>2016-02-21T09:07:48Z</time>
      </trkpt>
      <trkpt lat="43.58126" lon="3.1638">
        <ele>268.35</ele>
        <time>2016-02-21T09:07:49Z</time>
      </trkpt>
      <trkpt lat="43.58092" lon="3.16057">
        <ele>254.89</ele>
        <time>2016-02-21T09:07:57Z</time>
      </trkpt>
      <trkpt lat="43.58108" lon="3.15762">
        <ele>246.72</ele>
        <time>2016-02-21T09:08:05Z</time>
      </trkpt>
      <trkpt lat="43.58159" lon="3.15534">
        <ele>243.83</ele>
        <time>2016-02-21T09:08:12Z</time>
      </trkpt>
      <trkpt lat="43.58176" lon="3.15467">
        <ele>243.35</ele>
        <time>2016-02-21T09:08:14Z</time>
      </trkpt>
      <trkpt lat="43.58181" lon="3.15431">
        <ele>242.87</ele>
        <time>2016-02-21T09:08:15Z</time>
      </trkpt>
      <trkpt lat="43.58183" lon="3.15395">
        <ele>242.39</ele>
        <time>2016-02-21T09:08:16Z</time>
      </trkpt>
      <trkpt lat="43.58182" lon="3.15357">
        <ele>241.91</ele>
        <time>2016-02-21T09:08:17Z</time>
      </trkpt>
      <trkpt lat="43.58179" lon="3.1532">
        <ele>241.43</ele>
        <time>2016-02-21T09:08:18Z</time>
      </trkpt>
      <trkpt lat="43.58174" lon="3.15283">
        <ele>240.95</ele>
        <time>2016-02-21T09:08:19Z</time>
      </trkpt>
      <trkpt lat="43.58114" lon="3.14811">
        <ele>236.62</ele>
        <time>2016-02-21T09:08:32Z</time>
      </trkpt>
      <trkpt lat="43.58091" lon="3.1446">
        <ele>230.37</ele>
        <time>2016-02-21T09:08:42Z</time>
      </trkpt>
      <trkpt lat="43.58028" lon="3.14253">
        <ele>224.12</ele>
        <time>2016-02-21T09:08:49Z</time>
      </trkpt>
      <trkpt lat="43.57984" lon="3.14082">
        <ele>219.8</ele>
        <time>2016-02-21T09:08:56Z</time>
      </trkpt>
      <trkpt lat="43.57983" lon="3.14057">
        <ele>219.32</ele>
        <time>2016-02-21T09:08:57Z</time>
      </trkpt>
      <trkpt lat="43.57983" lon="3.14033">
        <ele>218.36</ele>
        <time>2016-02-21T09:08:58Z</time>
      </trkpt>
      <trkpt lat="43.57986" lon="3.14008">
        <ele>217.88</ele>
        <time>2016-02-21T09:08:59Z</time>
      </trkpt>
      <trkpt lat="43.57991" lon="3.13984">
        <ele>217.4</ele>
        <time>2016-02-21T09:09:00Z</time>
      </trkpt>
      <trkpt lat="43.57997" lon="3.13958">
        <ele>216.91</ele>
        <time>2016-02-21T09:09:01Z</time>
      </trkpt>
      <trkpt lat="43.58066" lon="3.13676">
        <ele>215.47</ele>
        <time>2016-02-21T09:09:11Z</time>
      </trkpt>
      <trkpt lat="43.58144" lon="3.13482">
        <ele>212.59</ele>
        <time>2016-02-21T09:09:17Z</time>
      </trkpt>
      <trkpt lat="43.58277" lon="3.13189">
        <ele>205.38</ele>
        <time>2016-02-21T09:09:26Z</time>
      </trkpt>
      <trkpt lat="43.58294" lon="3.13162">
        <ele>204.9</ele>
        <time>2016-02-21T09:09:27Z</time>
      </trkpt>
      <trkpt lat="43.58313" lon="3.13137">
        <ele>204.42</ele>
        <time>2016-02-21T09:09:28Z</time>
      </trkpt>
      <trkpt lat="43.58336" lon="3.13117">
        <ele>203.46</ele>
        <time>2016-02-21T09:09:29Z</time>
      </trkpt>
      <trkpt lat="43.58362" lon="3.131">
        <ele>202.98</ele>
        <time>2016-02-21T09:09:30Z</time>
      </trkpt>
      <trkpt lat="43.58388" lon="3.13086">
        <ele>202.98</ele>
        <time>2016-02-21T09:09:31Z</time>
      </trkpt>
      <trkpt lat="43.58415" lon="3.13075">
        <ele>202.49</ele>
        <time>2016-02-21T09:09:32Z</time>
      </trkpt>
      <trkpt lat="43.5849" lon="3.13032">
        <ele>201.53</ele>
        <time>2016-02-21T09:09:35Z</time>
      </trkpt>
      <trkpt lat="43.58511" lon="3.1301">
        <ele>201.05</ele>
        <time>2016-02-21T09:09:36Z</time>
      </trkpt>
      <trkpt lat="43.5853" lon="3.12984">
        <ele>200.57</ele>
        <time>2016-02-21T09:09:37Z</time>
      </trkpt>
      <trkpt lat="43.58594" lon="3.12879">
        <ele>198.17</ele>
        <time>2016-02-21T09:09:41Z</time>
      </trkpt>
      <trkpt lat="43.58603" lon="3.12848">
        <ele>197.21</ele>
        <time>2016-02-21T09:09:42Z</time>
      </trkpt>
      <trkpt lat="43.58609" lon="3.12814">
        <ele>196.25</ele>
        <time>2016-02-21T09:09:43Z</time>
      </trkpt>
      <trkpt lat="43.5861" lon="3.12779">
        <ele>195.77</ele>
        <time>2016-02-21T09:09:44Z</time>
      </trkpt>
      <trkpt lat="43.58607" lon="3.12741">
        <ele>195.28</ele>
        <time>2016-02-21T09:09:45Z</time>
      </trkpt>
      <trkpt lat="43.58603" lon="3.12709">
        <ele>194.32</ele>
        <time>2016-02-21T09:09:46Z</time>
      </trkpt>
      <trkpt lat="43.58597" lon="3.12679">
        <ele>193.36</ele>
        <time>2016-02-21T09:09:47Z</time>
      </trkpt>
      <trkpt lat="43.5859" lon="3.12651">
        <ele>191.92</ele>
        <time>2016-02-21T09:09:48Z</time>
      </trkpt>
      <trkpt lat="43.58582" lon="3.12623">
        <ele>191.44</ele>
        <time>2016-02-21T09:09:49Z</time>
      </trkpt>
      <trkpt lat="43.58575" lon="3.12543">
        <ele>190.48</ele>
        <time>2016-02-21T09:09:52Z</time>
      </trkpt>
      <trkpt lat="43.58581" lon="3.12513">
        <ele>190</ele>
        <time>2016-02-21T09:09:53Z</time>
      </trkpt>
      <trkpt lat="43.58591" lon="3.12486">
        <ele>189.52</ele>
        <time>2016-02-21T09:09:54Z</time>
      </trkpt>
      <trkpt lat="43.58602" lon="3.12461">
        <ele>189.52</ele>
        <time>2016-02-21T09:09:55Z</time>
      </trkpt>
      <trkpt lat="43.58614" lon="3.12439">
        <ele>189.52</ele>
        <time>2016-02-21T09:09:56Z</time>
      </trkpt>
      <trkpt lat="43.58628" lon="3.12421">
        <ele>189.52</ele>
        <time>2016-02-21T09:09:57Z</time>
      </trkpt>
      <trkpt lat="43.58642" lon="3.12404">
        <ele>189.52</ele>
        <time>2016-02-21T09:09:58Z</time>
      </trkpt>
      <trkpt lat="43.58718" lon="3.12316">
        <ele>189.04</ele>
        <time>2016-02-21T09:10:05Z</time>
      </trkpt>
      <trkpt lat="43.58739" lon="3.12285">
        <ele>189.04</ele>
        <time>2016-02-21T09:10:09Z</time>
      </trkpt>
      <trkpt lat="43.58746" lon="3.1228">
        <ele>189.52</ele>
        <time>2016-02-21T09:10:10Z</time>
      </trkpt>
      <trkpt lat="43.58754" lon="3.12277">
        <ele>189.52</ele>
        <time>2016-02-21T09:10:11Z</time>
      </trkpt>
      <trkpt lat="43.58762" lon="3.12274">
        <ele>189.52</ele>
        <time>2016-02-21T09:10:12Z</time>
      </trkpt>
      <trkpt lat="43.58769" lon="3.12269">
        <ele>189.52</ele>
        <time>2016-02-21T09:10:13Z</time>
      </trkpt>
      <trkpt lat="43.58776" lon="3.12261">
        <ele>189.52</ele>
        <time>2016-02-21T09:10:14Z</time>
      </trkpt>
      <trkpt lat="43.58781" lon="3.1225">
        <ele>189.52</ele>
        <time>2016-02-21T09:10:15Z</time>
      </trkpt>
      <trkpt lat="43.58785" lon="3.12239">
        <ele>190</ele>
        <time>2016-02-21T09:10:16Z</time>
      </trkpt>
      <trkpt lat="43.58789" lon="3.12226">
        <ele>189.52</ele>
        <time>2016-02-21T09:10:17Z</time>
      </trkpt>
      <trkpt lat="43.58795" lon="3.12214">
        <ele>189.52</ele>
        <time>2016-02-21T09:10:18Z</time>
      </trkpt>
      <trkpt lat="43.58803" lon="3.12203">
        <ele>189.52</ele>
        <time>2016-02-21T09:10:19Z</time>
      </trkpt>
      <trkpt lat="43.58813" lon="3.12191">
        <ele>189.52</ele>
        <time>2016-02-21T09:10:20Z</time>
      </trkpt>
      <trkpt lat="43.58934" lon="3.12024">
        <ele>190.96</ele>
        <time>2016-02-21T09:10:33Z</time>
      </trkpt>
      <trkpt lat="43.59057" lon="3.11852">
        <ele>190</ele>
        <time>2016-02-21T09:10:47Z</time>
      </trkpt>
      <trkpt lat="43.59134" lon="3.11744">
        <ele>185.67</ele>
        <time>2016-02-21T09:10:59Z</time>
      </trkpt>
      <trkpt lat="43.5922" lon="3.11622">
        <ele>186.15</ele>
        <time>2016-02-21T09:11:12Z</time>
      </trkpt>
      <trkpt lat="43.5928" lon="3.11532">
        <ele>190.96</ele>
        <time>2016-02-21T09:11:24Z</time>
      </trkpt>
      <trkpt lat="43.59346" lon="3.1144">
        <ele>193.84</ele>
        <time>2016-02-21T09:11:40Z</time>
      </trkpt>
      <trkpt lat="43.5936" lon="3.1144">
        <ele>193.84</ele>
        <time>2016-02-21T09:11:45Z</time>
      </trkpt>
      <trkpt lat="43.59362" lon="3.11438">
        <ele>193.84</ele>
        <time>2016-02-21T09:11:46Z</time>
      </trkpt>
      <trkpt lat="43.59364" lon="3.11434">
        <ele>194.32</ele>
        <time>2016-02-21T09:11:47Z</time>
      </trkpt>
      <trkpt lat="43.59369" lon="3.11421">
        <ele>194.8</ele>
        <time>2016-02-21T09:11:49Z</time>
      </trkpt>
      <trkpt lat="43.59373" lon="3.11416">
        <ele>194.8</ele>
        <time>2016-02-21T09:11:50Z</time>
      </trkpt>
      <trkpt lat="43.59378" lon="3.11413">
        <ele>195.28</ele>
        <time>2016-02-21T09:11:51Z</time>
      </trkpt>
      <trkpt lat="43.59382" lon="3.11414">
        <ele>195.77</ele>
        <time>2016-02-21T09:11:52Z</time>
      </trkpt>
      <trkpt lat="43.59386" lon="3.11416">
        <ele>196.25</ele>
        <time>2016-02-21T09:11:53Z</time>
      </trkpt>
      <trkpt lat="43.5939" lon="3.11419">
        <ele>196.25</ele>
        <time>2016-02-21T09:11:54Z</time>
      </trkpt>
      <trkpt lat="43.59392" lon="3.11423">
        <ele>196.25</ele>
        <time>2016-02-21T09:11:55Z</time>
      </trkpt>
      <trkpt lat="43.59392" lon="3.11428">
        <ele>196.25</ele>
        <time>2016-02-21T09:11:56Z</time>
      </trkpt>
      <trkpt lat="43.59392" lon="3.11431">
        <ele>195.77</ele>
        <time>2016-02-21T09:11:57Z</time>
      </trkpt>
      <trkpt lat="43.59393" lon="3.11433">
        <ele>195.77</ele>
        <time>2016-02-21T09:11:58Z</time>
      </trkpt>
      <trkpt lat="43.59394" lon="3.11435">
        <ele>195.77</ele>
        <time>2016-02-21T09:11:59Z</time>
      </trkpt>
      <trkpt lat="43.59395" lon="3.11436">
        <ele>195.77</ele>
        <time>2016-02-21T09:12:00Z</time>
      </trkpt>
      <trkpt lat="43.59396" lon="3.11437">
        <ele>195.77</ele>
        <time>2016-02-21T09:12:01Z</time>
      </trkpt>
      <trkpt lat="43.59399" lon="3.11437">
        <ele>198.65</ele>
        <time>2016-02-21T09:12:16Z</time>
      </trkpt>
      <trkpt lat="43.59398" lon="3.11434">
        <ele>203.46</ele>
        <time>2016-02-21T09:22:23Z</time>
      </trkpt>
      <trkpt lat="43.59394" lon="3.1143">
        <ele>199.61</ele>
        <time>2016-02-21T09:24:20Z</time>
      </trkpt>
      <trkpt lat="43.59399" lon="3.11435">
        <ele>212.11</ele>
        <time>2016-02-21T09:35:37Z</time>
      </trkpt>
      <trkpt lat="43.59396" lon="3.11428">
        <ele>207.78</ele>
        <time>2016-02-21T09:36:51Z</time>
      </trkpt>
      <trkpt lat="43.59399" lon="3.11432">
        <ele>203.94</ele>
        <time>2016-02-21T09:37:24Z</time>
      </trkpt>
      <trkpt lat="43.59396" lon="3.11425">
        <ele>202.01</ele>
        <time>2016-02-21T09:37:28Z</time>
      </trkpt>
      <trkpt lat="43.59389" lon="3.11416">
        <ele>200.09</ele>
        <time>2016-02-21T09:37:40Z</time>
      </trkpt>
      <trkpt lat="43.5938" lon="3.11406">
        <ele>201.05</ele>
        <time>2016-02-21T09:38:14Z</time>
      </trkpt>
      <trkpt lat="43.59368" lon="3.11417">
        <ele>199.61</ele>
        <time>2016-02-21T09:38:19Z</time>
      </trkpt>
      <trkpt lat="43.59354" lon="3.11414">
        <ele>203.94</ele>
        <time>2016-02-21T09:38:26Z</time>
      </trkpt>
      <trkpt lat="43.59351" lon="3.11407">
        <ele>204.42</ele>
        <time>2016-02-21T09:38:27Z</time>
      </trkpt>
      <trkpt lat="43.5935" lon="3.11398">
        <ele>203.94</ele>
        <time>2016-02-21T09:38:28Z</time>
      </trkpt>
      <trkpt lat="43.59349" lon="3.11388">
        <ele>202.98</ele>
        <time>2016-02-21T09:38:29Z</time>
      </trkpt>
      <trkpt lat="43.59339" lon="3.11272">
        <ele>197.21</ele>
        <time>2016-02-21T09:38:39Z</time>
      </trkpt>
      <trkpt lat="43.59324" lon="3.11135">
        <ele>194.8</ele>
        <time>2016-02-21T09:38:50Z</time>
      </trkpt>
      <trkpt lat="43.59302" lon="3.10938">
        <ele>192.88</ele>
        <time>2016-02-21T09:39:04Z</time>
      </trkpt>
      <trkpt lat="43.59266" lon="3.10693">
        <ele>193.36</ele>
        <time>2016-02-21T09:39:20Z</time>
      </trkpt>
      <trkpt lat="43.5924" lon="3.1055">
        <ele>191.44</ele>
        <time>2016-02-21T09:39:29Z</time>
      </trkpt>
      <trkpt lat="43.59188" lon="3.10341">
        <ele>188.56</ele>
        <time>2016-02-21T09:39:39Z</time>
      </trkpt>
      <trkpt lat="43.59107" lon="3.10201">
        <ele>186.63</ele>
        <time>2016-02-21T09:39:46Z</time>
      </trkpt>
      <trkpt lat="43.5899" lon="3.10039">
        <ele>182.31</ele>
        <time>2016-02-21T09:39:55Z</time>
      </trkpt>
      <trkpt lat="43.58847" lon="3.09733">
        <ele>178.94</ele>
        <time>2016-02-21T09:40:09Z</time>
      </trkpt>
      <trkpt lat="43.58839" lon="3.09709">
        <ele>178.94</ele>
        <time>2016-02-21T09:40:10Z</time>
      </trkpt>
      <trkpt lat="43.58832" lon="3.09685">
        <ele>178.94</ele>
        <time>2016-02-21T09:40:11Z</time>
      </trkpt>
      <trkpt lat="43.58815" lon="3.09503">
        <ele>176.54</ele>
        <time>2016-02-21T09:40:18Z</time>
      </trkpt>
      <trkpt lat="43.58829" lon="3.09259">
        <ele>177.02</ele>
        <time>2016-02-21T09:40:25Z</time>
      </trkpt>
      <trkpt lat="43.5884" lon="3.09005">
        <ele>181.83</ele>
        <time>2016-02-21T09:40:33Z</time>
      </trkpt>
      <trkpt lat="43.58825" lon="3.08826">
        <ele>183.27</ele>
        <time>2016-02-21T09:40:39Z</time>
      </trkpt>
      <trkpt lat="43.58815" lon="3.08803">
        <ele>182.79</ele>
        <time>2016-02-21T09:40:40Z</time>
      </trkpt>
      <trkpt lat="43.58769" lon="3.08628">
        <ele>179.9</ele>
        <time>2016-02-21T09:40:48Z</time>
      </trkpt>
      <trkpt lat="43.58741" lon="3.0845">
        <ele>177.98</ele>
        <time>2016-02-21T09:40:57Z</time>
      </trkpt>
      <trkpt lat="43.58726" lon="3.08373">
        <ele>177.02</ele>
        <time>2016-02-21T09:41:02Z</time>
      </trkpt>
      <trkpt lat="43.58725" lon="3.08359">
        <ele>177.02</ele>
        <time>2016-02-21T09:41:03Z</time>
      </trkpt>
      <trkpt lat="43.58727" lon="3.08347">
        <ele>177.5</ele>
        <time>2016-02-21T09:41:04Z</time>
      </trkpt>
      <trkpt lat="43.58731" lon="3.08336">
        <ele>177.02</ele>
        <time>2016-02-21T09:41:05Z</time>
      </trkpt>
      <trkpt lat="43.58735" lon="3.08326">
        <ele>177.02</ele>
        <time>2016-02-21T09:41:06Z</time>
      </trkpt>
      <trkpt lat="43.58737" lon="3.08315">
        <ele>177.5</ele>
        <time>2016-02-21T09:41:07Z</time>
      </trkpt>
      <trkpt lat="43.58737" lon="3.08304">
        <ele>177.5</ele>
        <time>2016-02-21T09:41:08Z</time>
      </trkpt>
      <trkpt lat="43.58733" lon="3.08293">
        <ele>177.02</ele>
        <time>2016-02-21T09:41:09Z</time>
      </trkpt>
      <trkpt lat="43.58725" lon="3.08284">
        <ele>177.02</ele>
        <time>2016-02-21T09:41:10Z</time>
      </trkpt>
      <trkpt lat="43.58717" lon="3.08274">
        <ele>177.02</ele>
        <time>2016-02-21T09:41:11Z</time>
      </trkpt>
      <trkpt lat="43.58709" lon="3.08263">
        <ele>177.02</ele>
        <time>2016-02-21T09:41:12Z</time>
      </trkpt>
      <trkpt lat="43.58704" lon="3.08247">
        <ele>177.02</ele>
        <time>2016-02-21T09:41:13Z</time>
      </trkpt>
      <trkpt lat="43.58702" lon="3.08228">
        <ele>177.02</ele>
        <time>2016-02-21T09:41:14Z</time>
      </trkpt>
      <trkpt lat="43.58701" lon="3.08208">
        <ele>177.02</ele>
        <time>2016-02-21T09:41:15Z</time>
      </trkpt>
      <trkpt lat="43.587" lon="3.08188">
        <ele>177.02</ele>
        <time>2016-02-21T09:41:16Z</time>
      </trkpt>
      <trkpt lat="43.5872" lon="3.08031">
        <ele>177.02</ele>
        <time>2016-02-21T09:41:24Z</time>
      </trkpt>
      <trkpt lat="43.58724" lon="3.07962">
        <ele>177.5</ele>
        <time>2016-02-21T09:41:27Z</time>
      </trkpt>
      <trkpt lat="43.58717" lon="3.07766">
        <ele>177.5</ele>
        <time>2016-02-21T09:41:33Z</time>
      </trkpt>
      <trkpt lat="43.58687" lon="3.07473">
        <ele>177.5</ele>
        <time>2016-02-21T09:41:42Z</time>
      </trkpt>
      <trkpt lat="43.58607" lon="3.07211">
        <ele>181.35</ele>
        <time>2016-02-21T09:41:50Z</time>
      </trkpt>
      <trkpt lat="43.5848" lon="3.06989">
        <ele>183.27</ele>
        <time>2016-02-21T09:41:58Z</time>
      </trkpt>
      <trkpt lat="43.58408" lon="3.06898">
        <ele>186.15</ele>
        <time>2016-02-21T09:42:04Z</time>
      </trkpt>
      <trkpt lat="43.58405" lon="3.06892">
        <ele>185.19</ele>
        <time>2016-02-21T09:42:05Z</time>
      </trkpt>
      <trkpt lat="43.58402" lon="3.06884">
        <ele>184.23</ele>
        <time>2016-02-21T09:42:06Z</time>
      </trkpt>
      <trkpt lat="43.584" lon="3.06876">
        <ele>184.23</ele>
        <time>2016-02-21T09:42:07Z</time>
      </trkpt>
      <trkpt lat="43.58397" lon="3.0687">
        <ele>184.23</ele>
        <time>2016-02-21T09:42:08Z</time>
      </trkpt>
      <trkpt lat="43.58393" lon="3.06866">
        <ele>184.23</ele>
        <time>2016-02-21T09:42:09Z</time>
      </trkpt>
      <trkpt lat="43.58387" lon="3.06865">
        <ele>184.23</ele>
        <time>2016-02-21T09:42:10Z</time>
      </trkpt>
      <trkpt lat="43.5838" lon="3.06862">
        <ele>183.75</ele>
        <time>2016-02-21T09:42:11Z</time>
      </trkpt>
      <trkpt lat="43.58373" lon="3.06857">
        <ele>183.75</ele>
        <time>2016-02-21T09:42:12Z</time>
      </trkpt>
      <trkpt lat="43.58365" lon="3.06849">
        <ele>183.75</ele>
        <time>2016-02-21T09:42:13Z</time>
      </trkpt>
      <trkpt lat="43.58358" lon="3.06841">
        <ele>183.75</ele>
        <time>2016-02-21T09:42:14Z</time>
      </trkpt>
      <trkpt lat="43.58286" lon="3.0675">
        <ele>183.27</ele>
        <time>2016-02-21T09:42:21Z</time>
      </trkpt>
      <trkpt lat="43.58127" lon="3.06551">
        <ele>183.27</ele>
        <time>2016-02-21T09:42:35Z</time>
      </trkpt>
      <trkpt lat="43.57934" lon="3.06308">
        <ele>176.54</ele>
        <time>2016-02-21T09:42:53Z</time>
      </trkpt>
      <trkpt lat="43.57923" lon="3.06278">
        <ele>176.54</ele>
        <time>2016-02-21T09:42:55Z</time>
      </trkpt>
      <trkpt lat="43.57917" lon="3.06265">
        <ele>176.06</ele>
        <time>2016-02-21T09:42:56Z</time>
      </trkpt>
      <trkpt lat="43.57907" lon="3.06234">
        <ele>175.58</ele>
        <time>2016-02-21T09:42:58Z</time>
      </trkpt>
      <trkpt lat="43.57874" lon="3.06059">
        <ele>183.27</ele>
        <time>2016-02-21T09:43:09Z</time>
      </trkpt>
      <trkpt lat="43.57863" lon="3.05863">
        <ele>183.27</ele>
        <time>2016-02-21T09:43:21Z</time>
      </trkpt>
      <trkpt lat="43.57866" lon="3.05848">
        <ele>182.31</ele>
        <time>2016-02-21T09:43:22Z</time>
      </trkpt>
      <trkpt lat="43.5787" lon="3.05818">
        <ele>181.83</ele>
        <time>2016-02-21T09:43:24Z</time>
      </trkpt>
      <trkpt lat="43.5787" lon="3.05802">
        <ele>181.35</ele>
        <time>2016-02-21T09:43:25Z</time>
      </trkpt>
      <trkpt lat="43.5787" lon="3.05787">
        <ele>180.38</ele>
        <time>2016-02-21T09:43:26Z</time>
      </trkpt>
      <trkpt lat="43.57862" lon="3.0568">
        <ele>177.98</ele>
        <time>2016-02-21T09:43:32Z</time>
      </trkpt>
      <trkpt lat="43.57861" lon="3.05566">
        <ele>176.06</ele>
        <time>2016-02-21T09:43:38Z</time>
      </trkpt>
      <trkpt lat="43.57857" lon="3.05549">
        <ele>176.06</ele>
        <time>2016-02-21T09:43:39Z</time>
      </trkpt>
      <trkpt lat="43.57853" lon="3.05532">
        <ele>176.06</ele>
        <time>2016-02-21T09:43:40Z</time>
      </trkpt>
      <trkpt lat="43.57793" lon="3.05341">
        <ele>175.58</ele>
        <time>2016-02-21T09:43:53Z</time>
      </trkpt>
      <trkpt lat="43.57775" lon="3.05289">
        <ele>174.62</ele>
        <time>2016-02-21T09:44:00Z</time>
      </trkpt>
      <trkpt lat="43.57718" lon="3.05146">
        <ele>174.14</ele>
        <time>2016-02-21T09:44:11Z</time>
      </trkpt>
      <trkpt lat="43.57637" lon="3.05046">
        <ele>174.14</ele>
        <time>2016-02-21T09:44:19Z</time>
      </trkpt>
      <trkpt lat="43.57538" lon="3.04931">
        <ele>171.73</ele>
        <time>2016-02-21T09:44:29Z</time>
      </trkpt>
      <trkpt lat="43.57532" lon="3.04916">
        <ele>171.25</ele>
        <time>2016-02-21T09:44:30Z</time>
      </trkpt>
      <trkpt lat="43.57526" lon="3.049">
        <ele>170.77</ele>
        <time>2016-02-21T09:44:31Z</time>
      </trkpt>
      <trkpt lat="43.57523" lon="3.04883">
        <ele>170.29</ele>
        <time>2016-02-21T09:44:32Z</time>
      </trkpt>
      <trkpt lat="43.57522" lon="3.04863">
        <ele>169.33</ele>
        <time>2016-02-21T09:44:33Z</time>
      </trkpt>
      <trkpt lat="43.57523" lon="3.04843">
        <ele>168.85</ele>
        <time>2016-02-21T09:44:34Z</time>
      </trkpt>
      <trkpt lat="43.57526" lon="3.04824">
        <ele>168.85</ele>
        <time>2016-02-21T09:44:35Z</time>
      </trkpt>
      <trkpt lat="43.5753" lon="3.04804">
        <ele>168.37</ele>
        <time>2016-02-21T09:44:36Z</time>
      </trkpt>
      <trkpt lat="43.57538" lon="3.04784">
        <ele>169.33</ele>
        <time>2016-02-21T09:44:37Z</time>
      </trkpt>
      <trkpt lat="43.57546" lon="3.04764">
        <ele>170.29</ele>
        <time>2016-02-21T09:44:38Z</time>
      </trkpt>
      <trkpt lat="43.57595" lon="3.04651">
        <ele>172.69</ele>
        <time>2016-02-21T09:44:42Z</time>
      </trkpt>
      <trkpt lat="43.57696" lon="3.04458">
        <ele>176.54</ele>
        <time>2016-02-21T09:44:49Z</time>
      </trkpt>
      <trkpt lat="43.57775" lon="3.04268">
        <ele>179.9</ele>
        <time>2016-02-21T09:44:56Z</time>
      </trkpt>
      <trkpt lat="43.57839" lon="3.04078">
        <ele>183.75</ele>
        <time>2016-02-21T09:45:03Z</time>
      </trkpt>
      <trkpt lat="43.5785" lon="3.04055">
        <ele>183.75</ele>
        <time>2016-02-21T09:45:04Z</time>
      </trkpt>
      <trkpt lat="43.57864" lon="3.04035">
        <ele>183.75</ele>
        <time>2016-02-21T09:45:05Z</time>
      </trkpt>
      <trkpt lat="43.57877" lon="3.04014">
        <ele>183.27</ele>
        <time>2016-02-21T09:45:06Z</time>
      </trkpt>
      <trkpt lat="43.5789" lon="3.0399">
        <ele>183.75</ele>
        <time>2016-02-21T09:45:07Z</time>
      </trkpt>
      <trkpt lat="43.579" lon="3.03962">
        <ele>183.75</ele>
        <time>2016-02-21T09:45:08Z</time>
      </trkpt>
      <trkpt lat="43.5791" lon="3.03931">
        <ele>183.75</ele>
        <time>2016-02-21T09:45:09Z</time>
      </trkpt>
      <trkpt lat="43.57919" lon="3.03898">
        <ele>184.23</ele>
        <time>2016-02-21T09:45:10Z</time>
      </trkpt>
      <trkpt lat="43.5805" lon="3.03411">
        <ele>188.56</ele>
        <time>2016-02-21T09:45:24Z</time>
      </trkpt>
      <trkpt lat="43.58044" lon="3.03167">
        <ele>198.17</ele>
        <time>2016-02-21T09:45:30Z</time>
      </trkpt>
      <trkpt lat="43.57988" lon="3.02969">
        <ele>208.26</ele>
        <time>2016-02-21T09:45:35Z</time>
      </trkpt>
      <trkpt lat="43.57848" lon="3.0265">
        <ele>215.47</ele>
        <time>2016-02-21T09:45:44Z</time>
      </trkpt>
      <trkpt lat="43.57816" lon="3.02566">
        <ele>217.4</ele>
        <time>2016-02-21T09:45:47Z</time>
      </trkpt>
      <trkpt lat="43.57815" lon="3.02542">
        <ele>217.4</ele>
        <time>2016-02-21T09:45:48Z</time>
      </trkpt>
      <trkpt lat="43.57821" lon="3.02517">
        <ele>217.88</ele>
        <time>2016-02-21T09:45:49Z</time>
      </trkpt>
      <trkpt lat="43.57831" lon="3.02495">
        <ele>217.88</ele>
        <time>2016-02-21T09:45:50Z</time>
      </trkpt>
      <trkpt lat="43.57846" lon="3.02476">
        <ele>217.88</ele>
        <time>2016-02-21T09:45:51Z</time>
      </trkpt>
      <trkpt lat="43.57867" lon="3.02462">
        <ele>217.88</ele>
        <time>2016-02-21T09:45:52Z</time>
      </trkpt>
      <trkpt lat="43.57888" lon="3.02451">
        <ele>217.88</ele>
        <time>2016-02-21T09:45:53Z</time>
      </trkpt>
      <trkpt lat="43.57912" lon="3.02443">
        <ele>218.84</ele>
        <time>2016-02-21T09:45:54Z</time>
      </trkpt>
      <trkpt lat="43.57932" lon="3.02434">
        <ele>218.84</ele>
        <time>2016-02-21T09:45:55Z</time>
      </trkpt>
      <trkpt lat="43.57952" lon="3.02425">
        <ele>218.84</ele>
        <time>2016-02-21T09:45:56Z</time>
      </trkpt>
      <trkpt lat="43.57969" lon="3.02415">
        <ele>218.36</ele>
        <time>2016-02-21T09:45:57Z</time>
      </trkpt>
      <trkpt lat="43.57983" lon="3.02401">
        <ele>218.36</ele>
        <time>2016-02-21T09:45:58Z</time>
      </trkpt>
      <trkpt lat="43.57992" lon="3.02382">
        <ele>218.84</ele>
        <time>2016-02-21T09:45:59Z</time>
      </trkpt>
      <trkpt lat="43.57997" lon="3.02359">
        <ele>218.36</ele>
        <time>2016-02-21T09:46:00Z</time>
      </trkpt>
      <trkpt lat="43.57995" lon="3.02335">
        <ele>217.88</ele>
        <time>2016-02-21T09:46:01Z</time>
      </trkpt>
      <trkpt lat="43.57988" lon="3.02317">
        <ele>215.95</ele>
        <time>2016-02-21T09:46:02Z</time>
      </trkpt>
      <trkpt lat="43.57976" lon="3.02293">
        <ele>214.51</ele>
        <time>2016-02-21T09:46:03Z</time>
      </trkpt>
      <trkpt lat="43.57961" lon="3.02276">
        <ele>212.59</ele>
        <time>2016-02-21T09:46:04Z</time>
      </trkpt>
      <trkpt lat="43.57944" lon="3.02261">
        <ele>211.15</ele>
        <time>2016-02-21T09:46:05Z</time>
      </trkpt>
      <trkpt lat="43.57926" lon="3.02247">
        <ele>210.67</ele>
        <time>2016-02-21T09:46:06Z</time>
      </trkpt>
      <trkpt lat="43.57908" lon="3.02234">
        <ele>212.59</ele>
        <time>2016-02-21T09:46:07Z</time>
      </trkpt>
      <trkpt lat="43.57894" lon="3.02216">
        <ele>213.07</ele>
        <time>2016-02-21T09:46:08Z</time>
      </trkpt>
      <trkpt lat="43.57883" lon="3.02193">
        <ele>213.07</ele>
        <time>2016-02-21T09:46:09Z</time>
      </trkpt>
      <trkpt lat="43.57873" lon="3.02168">
        <ele>212.59</ele>
        <time>2016-02-21T09:46:10Z</time>
      </trkpt>
      <trkpt lat="43.57867" lon="3.0214">
        <ele>212.11</ele>
        <time>2016-02-21T09:46:11Z</time>
      </trkpt>
      <trkpt lat="43.57867" lon="3.02107">
        <ele>211.63</ele>
        <time>2016-02-21T09:46:12Z</time>
      </trkpt>
      <trkpt lat="43.5787" lon="3.02074">
        <ele>212.59</ele>
        <time>2016-02-21T09:46:13Z</time>
      </trkpt>
      <trkpt lat="43.57874" lon="3.02038">
        <ele>214.03</ele>
        <time>2016-02-21T09:46:14Z</time>
      </trkpt>
      <trkpt lat="43.57877" lon="3.02002">
        <ele>214.99</ele>
        <time>2016-02-21T09:46:15Z</time>
      </trkpt>
      <trkpt lat="43.57906" lon="3.01638">
        <ele>225.09</ele>
        <time>2016-02-21T09:46:26Z</time>
      </trkpt>
      <trkpt lat="43.5791" lon="3.01616">
        <ele>225.57</ele>
        <time>2016-02-21T09:46:27Z</time>
      </trkpt>
      <trkpt lat="43.57919" lon="3.01596">
        <ele>226.53</ele>
        <time>2016-02-21T09:46:28Z</time>
      </trkpt>
      <trkpt lat="43.57933" lon="3.0158">
        <ele>226.05</ele>
        <time>2016-02-21T09:46:29Z</time>
      </trkpt>
      <trkpt lat="43.57949" lon="3.01562">
        <ele>225.57</ele>
        <time>2016-02-21T09:46:30Z</time>
      </trkpt>
      <trkpt lat="43.57963" lon="3.01544">
        <ele>225.09</ele>
        <time>2016-02-21T09:46:31Z</time>
      </trkpt>
      <trkpt lat="43.58013" lon="3.01481">
        <ele>223.64</ele>
        <time>2016-02-21T09:46:35Z</time>
      </trkpt>
      <trkpt lat="43.58022" lon="3.01463">
        <ele>223.64</ele>
        <time>2016-02-21T09:46:36Z</time>
      </trkpt>
      <trkpt lat="43.58029" lon="3.01444">
        <ele>223.16</ele>
        <time>2016-02-21T09:46:37Z</time>
      </trkpt>
      <trkpt lat="43.58033" lon="3.01425">
        <ele>223.16</ele>
        <time>2016-02-21T09:46:38Z</time>
      </trkpt>
      <trkpt lat="43.58037" lon="3.01406">
        <ele>222.68</ele>
        <time>2016-02-21T09:46:39Z</time>
      </trkpt>
      <trkpt lat="43.58041" lon="3.01387">
        <ele>222.2</ele>
        <time>2016-02-21T09:46:40Z</time>
      </trkpt>
      <trkpt lat="43.58047" lon="3.01371">
        <ele>222.2</ele>
        <time>2016-02-21T09:46:41Z</time>
      </trkpt>
      <trkpt lat="43.58055" lon="3.01356">
        <ele>222.2</ele>
        <time>2016-02-21T09:46:42Z</time>
      </trkpt>
      <trkpt lat="43.58066" lon="3.01345">
        <ele>221.72</ele>
        <time>2016-02-21T09:46:43Z</time>
      </trkpt>
      <trkpt lat="43.58076" lon="3.01333">
        <ele>221.72</ele>
        <time>2016-02-21T09:46:44Z</time>
      </trkpt>
      <trkpt lat="43.58085" lon="3.0132">
        <ele>221.72</ele>
        <time>2016-02-21T09:46:45Z</time>
      </trkpt>
      <trkpt lat="43.58092" lon="3.01306">
        <ele>221.24</ele>
        <time>2016-02-21T09:46:46Z</time>
      </trkpt>
      <trkpt lat="43.58097" lon="3.01291">
        <ele>221.24</ele>
        <time>2016-02-21T09:46:47Z</time>
      </trkpt>
      <trkpt lat="43.58098" lon="3.01275">
        <ele>220.76</ele>
        <time>2016-02-21T09:46:48Z</time>
      </trkpt>
      <trkpt lat="43.58098" lon="3.01258">
        <ele>221.24</ele>
        <time>2016-02-21T09:46:49Z</time>
      </trkpt>
      <trkpt lat="43.58095" lon="3.0124">
        <ele>220.76</ele>
        <time>2016-02-21T09:46:50Z</time>
      </trkpt>
      <trkpt lat="43.58091" lon="3.01224">
        <ele>221.24</ele>
        <time>2016-02-21T09:46:51Z</time>
      </trkpt>
      <trkpt lat="43.58087" lon="3.01208">
        <ele>221.24</ele>
        <time>2016-02-21T09:46:52Z</time>
      </trkpt>
      <trkpt lat="43.58081" lon="3.01193">
        <ele>220.76</ele>
        <time>2016-02-21T09:46:53Z</time>
      </trkpt>
      <trkpt lat="43.58075" lon="3.0118">
        <ele>220.76</ele>
        <time>2016-02-21T09:46:54Z</time>
      </trkpt>
      <trkpt lat="43.58068" lon="3.01166">
        <ele>220.76</ele>
        <time>2016-02-21T09:46:55Z</time>
      </trkpt>
      <trkpt lat="43.5806" lon="3.01152">
        <ele>220.28</ele>
        <time>2016-02-21T09:46:56Z</time>
      </trkpt>
      <trkpt lat="43.58054" lon="3.01137">
        <ele>219.32</ele>
        <time>2016-02-21T09:46:57Z</time>
      </trkpt>
      <trkpt lat="43.58039" lon="3.01108">
        <ele>218.36</ele>
        <time>2016-02-21T09:46:59Z</time>
      </trkpt>
      <trkpt lat="43.5803" lon="3.01096">
        <ele>217.88</ele>
        <time>2016-02-21T09:47:00Z</time>
      </trkpt>
      <trkpt lat="43.5802" lon="3.01085">
        <ele>217.4</ele>
        <time>2016-02-21T09:47:01Z</time>
      </trkpt>
      <trkpt lat="43.58002" lon="3.01066">
        <ele>216.91</ele>
        <time>2016-02-21T09:47:03Z</time>
      </trkpt>
      <trkpt lat="43.57995" lon="3.01055">
        <ele>216.43</ele>
        <time>2016-02-21T09:47:04Z</time>
      </trkpt>
      <trkpt lat="43.57989" lon="3.01042">
        <ele>215.95</ele>
        <time>2016-02-21T09:47:05Z</time>
      </trkpt>
      <trkpt lat="43.57985" lon="3.01027">
        <ele>215.47</ele>
        <time>2016-02-21T09:47:06Z</time>
      </trkpt>
      <trkpt lat="43.57981" lon="3.01011">
        <ele>214.99</ele>
        <time>2016-02-21T09:47:07Z</time>
      </trkpt>
      <trkpt lat="43.57969" lon="3.00981">
        <ele>214.51</ele>
        <time>2016-02-21T09:47:09Z</time>
      </trkpt>
      <trkpt lat="43.57963" lon="3.00968">
        <ele>213.55</ele>
        <time>2016-02-21T09:47:10Z</time>
      </trkpt>
      <trkpt lat="43.57874" lon="3.00805">
        <ele>208.26</ele>
        <time>2016-02-21T09:47:24Z</time>
      </trkpt>
      <trkpt lat="43.57815" lon="3.00738">
        <ele>208.26</ele>
        <time>2016-02-21T09:47:34Z</time>
      </trkpt>
      <trkpt lat="43.57812" lon="3.00733">
        <ele>208.26</ele>
        <time>2016-02-21T09:47:35Z</time>
      </trkpt>
      <trkpt lat="43.57785" lon="3.00654">
        <ele>206.82</ele>
        <time>2016-02-21T09:47:44Z</time>
      </trkpt>
      <trkpt lat="43.57747" lon="3.00529">
        <ele>200.09</ele>
        <time>2016-02-21T09:47:55Z</time>
      </trkpt>
      <trkpt lat="43.57708" lon="3.00372">
        <ele>194.8</ele>
        <time>2016-02-21T09:48:05Z</time>
      </trkpt>
      <trkpt lat="43.57662" lon="3.00179">
        <ele>188.08</ele>
        <time>2016-02-21T09:48:14Z</time>
      </trkpt>
      <trkpt lat="43.57604" lon="2.99952">
        <ele>181.83</ele>
        <time>2016-02-21T09:48:22Z</time>
      </trkpt>
      <trkpt lat="43.57508" lon="2.99799">
        <ele>178.46</ele>
        <time>2016-02-21T09:48:28Z</time>
      </trkpt>
      <trkpt lat="43.5735" lon="2.99536">
        <ele>174.62</ele>
        <time>2016-02-21T09:48:37Z</time>
      </trkpt>
      <trkpt lat="43.57229" lon="2.99229">
        <ele>179.9</ele>
        <time>2016-02-21T09:48:46Z</time>
      </trkpt>
      <trkpt lat="43.5716" lon="2.98934">
        <ele>190.48</ele>
        <time>2016-02-21T09:48:54Z</time>
      </trkpt>
      <trkpt lat="43.5715" lon="2.98898">
        <ele>190.96</ele>
        <time>2016-02-21T09:48:55Z</time>
      </trkpt>
      <trkpt lat="43.57136" lon="2.98866">
        <ele>192.4</ele>
        <time>2016-02-21T09:48:56Z</time>
      </trkpt>
      <trkpt lat="43.57119" lon="2.98836">
        <ele>193.36</ele>
        <time>2016-02-21T09:48:57Z</time>
      </trkpt>
      <trkpt lat="43.57098" lon="2.98811">
        <ele>194.32</ele>
        <time>2016-02-21T09:48:58Z</time>
      </trkpt>
      <trkpt lat="43.57076" lon="2.98785">
        <ele>195.28</ele>
        <time>2016-02-21T09:48:59Z</time>
      </trkpt>
      <trkpt lat="43.57051" lon="2.98766">
        <ele>196.73</ele>
        <time>2016-02-21T09:49:00Z</time>
      </trkpt>
      <trkpt lat="43.57026" lon="2.98748">
        <ele>197.69</ele>
        <time>2016-02-21T09:49:01Z</time>
      </trkpt>
      <trkpt lat="43.57" lon="2.9873">
        <ele>198.65</ele>
        <time>2016-02-21T09:49:02Z</time>
      </trkpt>
      <trkpt lat="43.56858" lon="2.98649">
        <ele>203.46</ele>
        <time>2016-02-21T09:49:08Z</time>
      </trkpt>
      <trkpt lat="43.5682" lon="2.98624">
        <ele>204.42</ele>
        <time>2016-02-21T09:49:10Z</time>
      </trkpt>
      <trkpt lat="43.56805" lon="2.98608">
        <ele>204.42</ele>
        <time>2016-02-21T09:49:11Z</time>
      </trkpt>
      <trkpt lat="43.56797" lon="2.98586">
        <ele>205.38</ele>
        <time>2016-02-21T09:49:12Z</time>
      </trkpt>
      <trkpt lat="43.56792" lon="2.98562">
        <ele>205.86</ele>
        <time>2016-02-21T09:49:13Z</time>
      </trkpt>
      <trkpt lat="43.56792" lon="2.98536">
        <ele>205.86</ele>
        <time>2016-02-21T09:49:14Z</time>
      </trkpt>
      <trkpt lat="43.56795" lon="2.98509">
        <ele>205.86</ele>
        <time>2016-02-21T09:49:15Z</time>
      </trkpt>
      <trkpt lat="43.56807" lon="2.98483">
        <ele>205.86</ele>
        <time>2016-02-21T09:49:16Z</time>
      </trkpt>
      <trkpt lat="43.56822" lon="2.98464">
        <ele>205.38</ele>
        <time>2016-02-21T09:49:17Z</time>
      </trkpt>
      <trkpt lat="43.56838" lon="2.98448">
        <ele>203.46</ele>
        <time>2016-02-21T09:49:18Z</time>
      </trkpt>
      <trkpt lat="43.56855" lon="2.98433">
        <ele>202.01</ele>
        <time>2016-02-21T09:49:19Z</time>
      </trkpt>
      <trkpt lat="43.56873" lon="2.98419">
        <ele>201.53</ele>
        <time>2016-02-21T09:49:20Z</time>
      </trkpt>
      <trkpt lat="43.56939" lon="2.98338">
        <ele>197.21</ele>
        <time>2016-02-21T09:49:25Z</time>
      </trkpt>
      <trkpt lat="43.56948" lon="2.98317">
        <ele>196.25</ele>
        <time>2016-02-21T09:49:26Z</time>
      </trkpt>
      <trkpt lat="43.56955" lon="2.98295">
        <ele>195.28</ele>
        <time>2016-02-21T09:49:27Z</time>
      </trkpt>
      <trkpt lat="43.56961" lon="2.98274">
        <ele>194.8</ele>
        <time>2016-02-21T09:49:28Z</time>
      </trkpt>
      <trkpt lat="43.56965" lon="2.98252">
        <ele>193.84</ele>
        <time>2016-02-21T09:49:29Z</time>
      </trkpt>
      <trkpt lat="43.56975" lon="2.98191">
        <ele>191.44</ele>
        <time>2016-02-21T09:49:32Z</time>
      </trkpt>
      <trkpt lat="43.56974" lon="2.98171">
        <ele>190.48</ele>
        <time>2016-02-21T09:49:33Z</time>
      </trkpt>
      <trkpt lat="43.56971" lon="2.98151">
        <ele>189.52</ele>
        <time>2016-02-21T09:49:34Z</time>
      </trkpt>
      <trkpt lat="43.56969" lon="2.9813">
        <ele>189.04</ele>
        <time>2016-02-21T09:49:35Z</time>
      </trkpt>
      <trkpt lat="43.56969" lon="2.98107">
        <ele>188.08</ele>
        <time>2016-02-21T09:49:36Z</time>
      </trkpt>
      <trkpt lat="43.56972" lon="2.9808">
        <ele>187.11</ele>
        <time>2016-02-21T09:49:37Z</time>
      </trkpt>
      <trkpt lat="43.56975" lon="2.98051">
        <ele>186.15</ele>
        <time>2016-02-21T09:49:38Z</time>
      </trkpt>
      <trkpt lat="43.57001" lon="2.97925">
        <ele>181.83</ele>
        <time>2016-02-21T09:49:43Z</time>
      </trkpt>
      <trkpt lat="43.57012" lon="2.97908">
        <ele>180.87</ele>
        <time>2016-02-21T09:49:44Z</time>
      </trkpt>
      <trkpt lat="43.57025" lon="2.97893">
        <ele>179.9</ele>
        <time>2016-02-21T09:49:45Z</time>
      </trkpt>
      <trkpt lat="43.57034" lon="2.97876">
        <ele>178.46</ele>
        <time>2016-02-21T09:49:46Z</time>
      </trkpt>
      <trkpt lat="43.57037" lon="2.97858">
        <ele>177.5</ele>
        <time>2016-02-21T09:49:47Z</time>
      </trkpt>
      <trkpt lat="43.57036" lon="2.97838">
        <ele>176.06</ele>
        <time>2016-02-21T09:49:48Z</time>
      </trkpt>
      <trkpt lat="43.5703" lon="2.97819">
        <ele>174.62</ele>
        <time>2016-02-21T09:49:49Z</time>
      </trkpt>
      <trkpt lat="43.57017" lon="2.97798">
        <ele>174.14</ele>
        <time>2016-02-21T09:49:50Z</time>
      </trkpt>
      <trkpt lat="43.57003" lon="2.97778">
        <ele>172.21</ele>
        <time>2016-02-21T09:49:51Z</time>
      </trkpt>
      <trkpt lat="43.56984" lon="2.97765">
        <ele>171.73</ele>
        <time>2016-02-21T09:49:52Z</time>
      </trkpt>
      <trkpt lat="43.56967" lon="2.97757">
        <ele>169.81</ele>
        <time>2016-02-21T09:49:53Z</time>
      </trkpt>
      <trkpt lat="43.56949" lon="2.97753">
        <ele>168.37</ele>
        <time>2016-02-21T09:49:54Z</time>
      </trkpt>
      <trkpt lat="43.56932" lon="2.97748">
        <ele>166.93</ele>
        <time>2016-02-21T09:49:55Z</time>
      </trkpt>
      <trkpt lat="43.56917" lon="2.97741">
        <ele>165.48</ele>
        <time>2016-02-21T09:49:56Z</time>
      </trkpt>
      <trkpt lat="43.56904" lon="2.97728">
        <ele>164.04</ele>
        <time>2016-02-21T09:49:57Z</time>
      </trkpt>
      <trkpt lat="43.56893" lon="2.97708">
        <ele>162.6</ele>
        <time>2016-02-21T09:49:58Z</time>
      </trkpt>
      <trkpt lat="43.56882" lon="2.97684">
        <ele>160.68</ele>
        <time>2016-02-21T09:49:59Z</time>
      </trkpt>
      <trkpt lat="43.56872" lon="2.97655">
        <ele>159.24</ele>
        <time>2016-02-21T09:50:00Z</time>
      </trkpt>
      <trkpt lat="43.5686" lon="2.97628">
        <ele>157.79</ele>
        <time>2016-02-21T09:50:01Z</time>
      </trkpt>
      <trkpt lat="43.56845" lon="2.97602">
        <ele>155.87</ele>
        <time>2016-02-21T09:50:02Z</time>
      </trkpt>
      <trkpt lat="43.56827" lon="2.97579">
        <ele>154.43</ele>
        <time>2016-02-21T09:50:03Z</time>
      </trkpt>
      <trkpt lat="43.56809" lon="2.97556">
        <ele>153.95</ele>
        <time>2016-02-21T09:50:04Z</time>
      </trkpt>
      <trkpt lat="43.56738" lon="2.97448">
        <ele>152.51</ele>
        <time>2016-02-21T09:50:09Z</time>
      </trkpt>
      <trkpt lat="43.56722" lon="2.97434">
        <ele>151.54</ele>
        <time>2016-02-21T09:50:10Z</time>
      </trkpt>
      <trkpt lat="43.56704" lon="2.97425">
        <ele>150.58</ele>
        <time>2016-02-21T09:50:11Z</time>
      </trkpt>
      <trkpt lat="43.56682" lon="2.97427">
        <ele>151.54</ele>
        <time>2016-02-21T09:50:12Z</time>
      </trkpt>
      <trkpt lat="43.56662" lon="2.97428">
        <ele>152.03</ele>
        <time>2016-02-21T09:50:13Z</time>
      </trkpt>
      <trkpt lat="43.56642" lon="2.97428">
        <ele>152.03</ele>
        <time>2016-02-21T09:50:14Z</time>
      </trkpt>
      <trkpt lat="43.5662" lon="2.97425">
        <ele>152.03</ele>
        <time>2016-02-21T09:50:15Z</time>
      </trkpt>
      <trkpt lat="43.566" lon="2.97415">
        <ele>152.03</ele>
        <time>2016-02-21T09:50:16Z</time>
      </trkpt>
      <trkpt lat="43.56582" lon="2.97397">
        <ele>152.03</ele>
        <time>2016-02-21T09:50:17Z</time>
      </trkpt>
      <trkpt lat="43.56566" lon="2.97373">
        <ele>152.03</ele>
        <time>2016-02-21T09:50:18Z</time>
      </trkpt>
      <trkpt lat="43.56556" lon="2.97346">
        <ele>152.51</ele>
        <time>2016-02-21T09:50:19Z</time>
      </trkpt>
      <trkpt lat="43.5655" lon="2.97315">
        <ele>152.99</ele>
        <time>2016-02-21T09:50:20Z</time>
      </trkpt>
      <trkpt lat="43.56548" lon="2.97283">
        <ele>153.47</ele>
        <time>2016-02-21T09:50:21Z</time>
      </trkpt>
      <trkpt lat="43.5655" lon="2.9725">
        <ele>153.95</ele>
        <time>2016-02-21T09:50:22Z</time>
      </trkpt>
      <trkpt lat="43.56556" lon="2.97216">
        <ele>154.43</ele>
        <time>2016-02-21T09:50:23Z</time>
      </trkpt>
      <trkpt lat="43.56562" lon="2.97184">
        <ele>154.43</ele>
        <time>2016-02-21T09:50:24Z</time>
      </trkpt>
      <trkpt lat="43.5658" lon="2.97058">
        <ele>158.27</ele>
        <time>2016-02-21T09:50:28Z</time>
      </trkpt>
      <trkpt lat="43.56592" lon="2.96861">
        <ele>163.56</ele>
        <time>2016-02-21T09:50:34Z</time>
      </trkpt>
      <trkpt lat="43.56661" lon="2.96664">
        <ele>168.37</ele>
        <time>2016-02-21T09:50:41Z</time>
      </trkpt>
      <trkpt lat="43.56676" lon="2.96617">
        <ele>169.81</ele>
        <time>2016-02-21T09:50:43Z</time>
      </trkpt>
      <trkpt lat="43.5668" lon="2.96593">
        <ele>170.29</ele>
        <time>2016-02-21T09:50:44Z</time>
      </trkpt>
      <trkpt lat="43.56681" lon="2.96568">
        <ele>170.77</ele>
        <time>2016-02-21T09:50:45Z</time>
      </trkpt>
      <trkpt lat="43.56679" lon="2.96542">
        <ele>171.25</ele>
        <time>2016-02-21T09:50:46Z</time>
      </trkpt>
      <trkpt lat="43.56676" lon="2.96516">
        <ele>171.73</ele>
        <time>2016-02-21T09:50:47Z</time>
      </trkpt>
      <trkpt lat="43.56671" lon="2.96489">
        <ele>172.21</ele>
        <time>2016-02-21T09:50:48Z</time>
      </trkpt>
      <trkpt lat="43.5664" lon="2.9619">
        <ele>176.54</ele>
        <time>2016-02-21T09:50:59Z</time>
      </trkpt>
      <trkpt lat="43.56612" lon="2.95846">
        <ele>179.42</ele>
        <time>2016-02-21T09:51:12Z</time>
      </trkpt>
      <trkpt lat="43.56593" lon="2.95584">
        <ele>175.58</ele>
        <time>2016-02-21T09:51:21Z</time>
      </trkpt>
      <trkpt lat="43.56616" lon="2.95369">
        <ele>172.69</ele>
        <time>2016-02-21T09:51:27Z</time>
      </trkpt>
      <trkpt lat="43.56634" lon="2.95261">
        <ele>171.73</ele>
        <time>2016-02-21T09:51:30Z</time>
      </trkpt>
      <trkpt lat="43.56633" lon="2.95223">
        <ele>170.77</ele>
        <time>2016-02-21T09:51:31Z</time>
      </trkpt>
      <trkpt lat="43.56629" lon="2.95189">
        <ele>170.29</ele>
        <time>2016-02-21T09:51:32Z</time>
      </trkpt>
      <trkpt lat="43.56622" lon="2.95122">
        <ele>169.81</ele>
        <time>2016-02-21T09:51:34Z</time>
      </trkpt>
      <trkpt lat="43.56625" lon="2.95088">
        <ele>169.33</ele>
        <time>2016-02-21T09:51:35Z</time>
      </trkpt>
      <trkpt lat="43.56632" lon="2.95054">
        <ele>168.85</ele>
        <time>2016-02-21T09:51:36Z</time>
      </trkpt>
      <trkpt lat="43.56642" lon="2.95022">
        <ele>168.85</ele>
        <time>2016-02-21T09:51:37Z</time>
      </trkpt>
      <trkpt lat="43.56655" lon="2.94993">
        <ele>167.89</ele>
        <time>2016-02-21T09:51:38Z</time>
      </trkpt>
      <trkpt lat="43.56666" lon="2.94962">
        <ele>167.41</ele>
        <time>2016-02-21T09:51:39Z</time>
      </trkpt>
      <trkpt lat="43.56675" lon="2.94928">
        <ele>167.41</ele>
        <time>2016-02-21T09:51:40Z</time>
      </trkpt>
      <trkpt lat="43.56682" lon="2.94893">
        <ele>166.93</ele>
        <time>2016-02-21T09:51:41Z</time>
      </trkpt>
      <trkpt lat="43.56685" lon="2.94856">
        <ele>166.93</ele>
        <time>2016-02-21T09:51:42Z</time>
      </trkpt>
      <trkpt lat="43.56685" lon="2.9482">
        <ele>166.45</ele>
        <time>2016-02-21T09:51:43Z</time>
      </trkpt>
      <trkpt lat="43.56681" lon="2.94783">
        <ele>166.45</ele>
        <time>2016-02-21T09:51:44Z</time>
      </trkpt>
      <trkpt lat="43.56675" lon="2.94747">
        <ele>165.96</ele>
        <time>2016-02-21T09:51:45Z</time>
      </trkpt>
      <trkpt lat="43.56665" lon="2.94712">
        <ele>165.48</ele>
        <time>2016-02-21T09:51:46Z</time>
      </trkpt>
      <trkpt lat="43.56653" lon="2.94676">
        <ele>165</ele>
        <time>2016-02-21T09:51:47Z</time>
      </trkpt>
      <trkpt lat="43.56637" lon="2.94643">
        <ele>164.04</ele>
        <time>2016-02-21T09:51:48Z</time>
      </trkpt>
      <trkpt lat="43.5662" lon="2.94611">
        <ele>164.04</ele>
        <time>2016-02-21T09:51:49Z</time>
      </trkpt>
      <trkpt lat="43.56601" lon="2.94584">
        <ele>165</ele>
        <time>2016-02-21T09:51:50Z</time>
      </trkpt>
      <trkpt lat="43.56581" lon="2.94558">
        <ele>166.45</ele>
        <time>2016-02-21T09:51:51Z</time>
      </trkpt>
      <trkpt lat="43.56558" lon="2.94535">
        <ele>166.45</ele>
        <time>2016-02-21T09:51:52Z</time>
      </trkpt>
      <trkpt lat="43.56534" lon="2.94516">
        <ele>165.96</ele>
        <time>2016-02-21T09:51:53Z</time>
      </trkpt>
      <trkpt lat="43.56508" lon="2.94506">
        <ele>166.93</ele>
        <time>2016-02-21T09:51:54Z</time>
      </trkpt>
      <trkpt lat="43.56486" lon="2.94494">
        <ele>167.89</ele>
        <time>2016-02-21T09:51:55Z</time>
      </trkpt>
      <trkpt lat="43.56465" lon="2.94478">
        <ele>167.89</ele>
        <time>2016-02-21T09:51:56Z</time>
      </trkpt>
      <trkpt lat="43.56446" lon="2.94458">
        <ele>168.37</ele>
        <time>2016-02-21T09:51:57Z</time>
      </trkpt>
      <trkpt lat="43.56432" lon="2.94433">
        <ele>168.85</ele>
        <time>2016-02-21T09:51:58Z</time>
      </trkpt>
      <trkpt lat="43.56422" lon="2.94404">
        <ele>168.85</ele>
        <time>2016-02-21T09:51:59Z</time>
      </trkpt>
      <trkpt lat="43.56416" lon="2.94372">
        <ele>168.37</ele>
        <time>2016-02-21T09:52:00Z</time>
      </trkpt>
      <trkpt lat="43.5641" lon="2.9434">
        <ele>168.37</ele>
        <time>2016-02-21T09:52:01Z</time>
      </trkpt>
      <trkpt lat="43.56409" lon="2.94307">
        <ele>168.85</ele>
        <time>2016-02-21T09:52:02Z</time>
      </trkpt>
      <trkpt lat="43.56407" lon="2.94276">
        <ele>168.85</ele>
        <time>2016-02-21T09:52:03Z</time>
      </trkpt>
      <trkpt lat="43.56407" lon="2.94246">
        <ele>169.33</ele>
        <time>2016-02-21T09:52:04Z</time>
      </trkpt>
      <trkpt lat="43.5641" lon="2.94215">
        <ele>169.81</ele>
        <time>2016-02-21T09:52:05Z</time>
      </trkpt>
      <trkpt lat="43.56418" lon="2.94186">
        <ele>170.29</ele>
        <time>2016-02-21T09:52:06Z</time>
      </trkpt>
      <trkpt lat="43.5643" lon="2.9416">
        <ele>170.29</ele>
        <time>2016-02-21T09:52:07Z</time>
      </trkpt>
      <trkpt lat="43.56441" lon="2.94132">
        <ele>169.33</ele>
        <time>2016-02-21T09:52:08Z</time>
      </trkpt>
      <trkpt lat="43.56452" lon="2.94103">
        <ele>168.85</ele>
        <time>2016-02-21T09:52:09Z</time>
      </trkpt>
      <trkpt lat="43.56476" lon="2.94016">
        <ele>168.37</ele>
        <time>2016-02-21T09:52:12Z</time>
      </trkpt>
      <trkpt lat="43.56479" lon="2.93985">
        <ele>167.89</ele>
        <time>2016-02-21T09:52:13Z</time>
      </trkpt>
      <trkpt lat="43.56478" lon="2.93953">
        <ele>167.41</ele>
        <time>2016-02-21T09:52:14Z</time>
      </trkpt>
      <trkpt lat="43.56473" lon="2.9392">
        <ele>166.93</ele>
        <time>2016-02-21T09:52:15Z</time>
      </trkpt>
      <trkpt lat="43.56466" lon="2.93886">
        <ele>166.45</ele>
        <time>2016-02-21T09:52:16Z</time>
      </trkpt>
      <trkpt lat="43.56458" lon="2.93853">
        <ele>165.96</ele>
        <time>2016-02-21T09:52:17Z</time>
      </trkpt>
      <trkpt lat="43.5645" lon="2.93822">
        <ele>165.96</ele>
        <time>2016-02-21T09:52:18Z</time>
      </trkpt>
      <trkpt lat="43.56424" lon="2.93764">
        <ele>165</ele>
        <time>2016-02-21T09:52:20Z</time>
      </trkpt>
      <trkpt lat="43.56407" lon="2.93738">
        <ele>164.52</ele>
        <time>2016-02-21T09:52:21Z</time>
      </trkpt>
      <trkpt lat="43.56388" lon="2.93713">
        <ele>164.04</ele>
        <time>2016-02-21T09:52:22Z</time>
      </trkpt>
      <trkpt lat="43.56232" lon="2.93501">
        <ele>163.08</ele>
        <time>2016-02-21T09:52:31Z</time>
      </trkpt>
      <trkpt lat="43.56165" lon="2.93402">
        <ele>164.52</ele>
        <time>2016-02-21T09:52:36Z</time>
      </trkpt>
      <trkpt lat="43.5615" lon="2.93387">
        <ele>164.52</ele>
        <time>2016-02-21T09:52:37Z</time>
      </trkpt>
      <trkpt lat="43.56008" lon="2.93248">
        <ele>165.96</ele>
        <time>2016-02-21T09:52:46Z</time>
      </trkpt>
      <trkpt lat="43.55915" lon="2.93072">
        <ele>166.45</ele>
        <time>2016-02-21T09:52:52Z</time>
      </trkpt>
      <trkpt lat="43.55781" lon="2.92806">
        <ele>166.93</ele>
        <time>2016-02-21T09:53:01Z</time>
      </trkpt>
      <trkpt lat="43.55763" lon="2.92735">
        <ele>167.41</ele>
        <time>2016-02-21T09:53:03Z</time>
      </trkpt>
      <trkpt lat="43.55758" lon="2.92697">
        <ele>167.41</ele>
        <time>2016-02-21T09:53:04Z</time>
      </trkpt>
      <trkpt lat="43.55755" lon="2.92658">
        <ele>167.41</ele>
        <time>2016-02-21T09:53:05Z</time>
      </trkpt>
      <trkpt lat="43.55736" lon="2.92197">
        <ele>167.89</ele>
        <time>2016-02-21T09:53:17Z</time>
      </trkpt>
      <trkpt lat="43.55751" lon="2.91942">
        <ele>170.29</ele>
        <time>2016-02-21T09:53:24Z</time>
      </trkpt>
      <trkpt lat="43.55796" lon="2.9177">
        <ele>173.17</ele>
        <time>2016-02-21T09:53:30Z</time>
      </trkpt>
      <trkpt lat="43.5582" lon="2.9171">
        <ele>175.1</ele>
        <time>2016-02-21T09:53:33Z</time>
      </trkpt>
      <trkpt lat="43.55824" lon="2.9169">
        <ele>175.58</ele>
        <time>2016-02-21T09:53:34Z</time>
      </trkpt>
      <trkpt lat="43.55827" lon="2.9167">
        <ele>175.58</ele>
        <time>2016-02-21T09:53:35Z</time>
      </trkpt>
      <trkpt lat="43.55847" lon="2.91541">
        <ele>177.98</ele>
        <time>2016-02-21T09:53:43Z</time>
      </trkpt>
      <trkpt lat="43.55859" lon="2.91456">
        <ele>178.94</ele>
        <time>2016-02-21T09:53:48Z</time>
      </trkpt>
      <trkpt lat="43.55864" lon="2.9144">
        <ele>179.42</ele>
        <time>2016-02-21T09:53:49Z</time>
      </trkpt>
      <trkpt lat="43.55874" lon="2.91427">
        <ele>180.38</ele>
        <time>2016-02-21T09:53:50Z</time>
      </trkpt>
      <trkpt lat="43.55888" lon="2.91418">
        <ele>181.35</ele>
        <time>2016-02-21T09:53:51Z</time>
      </trkpt>
      <trkpt lat="43.55903" lon="2.91413">
        <ele>181.83</ele>
        <time>2016-02-21T09:53:52Z</time>
      </trkpt>
      <trkpt lat="43.55917" lon="2.91408">
        <ele>182.31</ele>
        <time>2016-02-21T09:53:53Z</time>
      </trkpt>
      <trkpt lat="43.56039" lon="2.91348">
        <ele>183.75</ele>
        <time>2016-02-21T09:54:01Z</time>
      </trkpt>
      <trkpt lat="43.5607" lon="2.91327">
        <ele>183.75</ele>
        <time>2016-02-21T09:54:03Z</time>
      </trkpt>
      <trkpt lat="43.56083" lon="2.9131">
        <ele>184.23</ele>
        <time>2016-02-21T09:54:04Z</time>
      </trkpt>
      <trkpt lat="43.56094" lon="2.91288">
        <ele>183.75</ele>
        <time>2016-02-21T09:54:05Z</time>
      </trkpt>
      <trkpt lat="43.56102" lon="2.91264">
        <ele>182.79</ele>
        <time>2016-02-21T09:54:06Z</time>
      </trkpt>
      <trkpt lat="43.5611" lon="2.9124">
        <ele>182.31</ele>
        <time>2016-02-21T09:54:07Z</time>
      </trkpt>
      <trkpt lat="43.56115" lon="2.91215">
        <ele>181.35</ele>
        <time>2016-02-21T09:54:08Z</time>
      </trkpt>
      <trkpt lat="43.56117" lon="2.9119">
        <ele>180.38</ele>
        <time>2016-02-21T09:54:09Z</time>
      </trkpt>
      <trkpt lat="43.56118" lon="2.91166">
        <ele>179.42</ele>
        <time>2016-02-21T09:54:10Z</time>
      </trkpt>
      <trkpt lat="43.56118" lon="2.91143">
        <ele>177.98</ele>
        <time>2016-02-21T09:54:11Z</time>
      </trkpt>
      <trkpt lat="43.56115" lon="2.91123">
        <ele>176.54</ele>
        <time>2016-02-21T09:54:12Z</time>
      </trkpt>
      <trkpt lat="43.56111" lon="2.91103">
        <ele>176.06</ele>
        <time>2016-02-21T09:54:13Z</time>
      </trkpt>
      <trkpt lat="43.56102" lon="2.91084">
        <ele>176.06</ele>
        <time>2016-02-21T09:54:14Z</time>
      </trkpt>
      <trkpt lat="43.56094" lon="2.91065">
        <ele>176.06</ele>
        <time>2016-02-21T09:54:15Z</time>
      </trkpt>
      <trkpt lat="43.56085" lon="2.91047">
        <ele>176.54</ele>
        <time>2016-02-21T09:54:16Z</time>
      </trkpt>
      <trkpt lat="43.56076" lon="2.91031">
        <ele>176.54</ele>
        <time>2016-02-21T09:54:17Z</time>
      </trkpt>
      <trkpt lat="43.56064" lon="2.91016">
        <ele>177.5</ele>
        <time>2016-02-21T09:54:18Z</time>
      </trkpt>
      <trkpt lat="43.56051" lon="2.91003">
        <ele>177.02</ele>
        <time>2016-02-21T09:54:19Z</time>
      </trkpt>
      <trkpt lat="43.56037" lon="2.90992">
        <ele>176.54</ele>
        <time>2016-02-21T09:54:20Z</time>
      </trkpt>
      <trkpt lat="43.56021" lon="2.90984">
        <ele>177.02</ele>
        <time>2016-02-21T09:54:21Z</time>
      </trkpt>
      <trkpt lat="43.56005" lon="2.90978">
        <ele>177.02</ele>
        <time>2016-02-21T09:54:22Z</time>
      </trkpt>
      <trkpt lat="43.55989" lon="2.90974">
        <ele>177.5</ele>
        <time>2016-02-21T09:54:23Z</time>
      </trkpt>
      <trkpt lat="43.55973" lon="2.90972">
        <ele>177.5</ele>
        <time>2016-02-21T09:54:24Z</time>
      </trkpt>
      <trkpt lat="43.55956" lon="2.90974">
        <ele>177.5</ele>
        <time>2016-02-21T09:54:25Z</time>
      </trkpt>
      <trkpt lat="43.5594" lon="2.90978">
        <ele>177.98</ele>
        <time>2016-02-21T09:54:26Z</time>
      </trkpt>
      <trkpt lat="43.55924" lon="2.90983">
        <ele>178.46</ele>
        <time>2016-02-21T09:54:27Z</time>
      </trkpt>
      <trkpt lat="43.55908" lon="2.9099">
        <ele>179.42</ele>
        <time>2016-02-21T09:54:28Z</time>
      </trkpt>
      <trkpt lat="43.55696" lon="2.91075">
        <ele>181.35</ele>
        <time>2016-02-21T09:54:42Z</time>
      </trkpt>
      <trkpt lat="43.55686" lon="2.91078">
        <ele>181.35</ele>
        <time>2016-02-21T09:54:43Z</time>
      </trkpt>
      <trkpt lat="43.55675" lon="2.91078">
        <ele>181.35</ele>
        <time>2016-02-21T09:54:44Z</time>
      </trkpt>
      <trkpt lat="43.55664" lon="2.91076">
        <ele>181.35</ele>
        <time>2016-02-21T09:54:45Z</time>
      </trkpt>
      <trkpt lat="43.55654" lon="2.91069">
        <ele>181.83</ele>
        <time>2016-02-21T09:54:46Z</time>
      </trkpt>
      <trkpt lat="43.55642" lon="2.9106">
        <ele>181.35</ele>
        <time>2016-02-21T09:54:47Z</time>
      </trkpt>
      <trkpt lat="43.55629" lon="2.91053">
        <ele>181.83</ele>
        <time>2016-02-21T09:54:48Z</time>
      </trkpt>
      <trkpt lat="43.5552" lon="2.90981">
        <ele>182.79</ele>
        <time>2016-02-21T09:54:57Z</time>
      </trkpt>
      <trkpt lat="43.55508" lon="2.90976">
        <ele>183.27</ele>
        <time>2016-02-21T09:54:58Z</time>
      </trkpt>
      <trkpt lat="43.55497" lon="2.90974">
        <ele>183.27</ele>
        <time>2016-02-21T09:54:59Z</time>
      </trkpt>
      <trkpt lat="43.55434" lon="2.9096">
        <ele>184.23</ele>
        <time>2016-02-21T09:55:05Z</time>
      </trkpt>
      <trkpt lat="43.55425" lon="2.90955">
        <ele>184.71</ele>
        <time>2016-02-21T09:55:06Z</time>
      </trkpt>
      <trkpt lat="43.55415" lon="2.90949">
        <ele>184.71</ele>
        <time>2016-02-21T09:55:07Z</time>
      </trkpt>
      <trkpt lat="43.55407" lon="2.90939">
        <ele>184.71</ele>
        <time>2016-02-21T09:55:08Z</time>
      </trkpt>
      <trkpt lat="43.554" lon="2.90928">
        <ele>184.71</ele>
        <time>2016-02-21T09:55:09Z</time>
      </trkpt>
      <trkpt lat="43.55394" lon="2.90914">
        <ele>184.71</ele>
        <time>2016-02-21T09:55:10Z</time>
      </trkpt>
      <trkpt lat="43.55389" lon="2.90899">
        <ele>184.71</ele>
        <time>2016-02-21T09:55:11Z</time>
      </trkpt>
      <trkpt lat="43.55384" lon="2.90884">
        <ele>185.19</ele>
        <time>2016-02-21T09:55:12Z</time>
      </trkpt>
      <trkpt lat="43.5538" lon="2.90868">
        <ele>185.19</ele>
        <time>2016-02-21T09:55:13Z</time>
      </trkpt>
      <trkpt lat="43.55369" lon="2.90812">
        <ele>185.67</ele>
        <time>2016-02-21T09:55:16Z</time>
      </trkpt>
      <trkpt lat="43.55368" lon="2.90792">
        <ele>185.67</ele>
        <time>2016-02-21T09:55:17Z</time>
      </trkpt>
      <trkpt lat="43.55369" lon="2.90771">
        <ele>186.15</ele>
        <time>2016-02-21T09:55:18Z</time>
      </trkpt>
      <trkpt lat="43.55377" lon="2.90667">
        <ele>188.08</ele>
        <time>2016-02-21T09:55:23Z</time>
      </trkpt>
      <trkpt lat="43.55376" lon="2.90647">
        <ele>188.56</ele>
        <time>2016-02-21T09:55:24Z</time>
      </trkpt>
      <trkpt lat="43.55373" lon="2.90627">
        <ele>189.04</ele>
        <time>2016-02-21T09:55:25Z</time>
      </trkpt>
      <trkpt lat="43.55335" lon="2.90457">
        <ele>192.88</ele>
        <time>2016-02-21T09:55:34Z</time>
      </trkpt>
      <trkpt lat="43.55327" lon="2.90439">
        <ele>192.88</ele>
        <time>2016-02-21T09:55:35Z</time>
      </trkpt>
      <trkpt lat="43.55255" lon="2.90314">
        <ele>195.77</ele>
        <time>2016-02-21T09:55:43Z</time>
      </trkpt>
      <trkpt lat="43.55245" lon="2.90303">
        <ele>195.77</ele>
        <time>2016-02-21T09:55:44Z</time>
      </trkpt>
      <trkpt lat="43.55234" lon="2.90295">
        <ele>196.25</ele>
        <time>2016-02-21T09:55:45Z</time>
      </trkpt>
      <trkpt lat="43.55182" lon="2.90258">
        <ele>198.17</ele>
        <time>2016-02-21T09:55:51Z</time>
      </trkpt>
      <trkpt lat="43.55178" lon="2.90252">
        <ele>198.65</ele>
        <time>2016-02-21T09:55:52Z</time>
      </trkpt>
      <trkpt lat="43.5518" lon="2.90248">
        <ele>198.65</ele>
        <time>2016-02-21T09:55:53Z</time>
      </trkpt>
      <trkpt lat="43.55184" lon="2.90243">
        <ele>199.13</ele>
        <time>2016-02-21T09:55:54Z</time>
      </trkpt>
      <trkpt lat="43.55191" lon="2.90242">
        <ele>199.61</ele>
        <time>2016-02-21T09:55:55Z</time>
      </trkpt>
      <trkpt lat="43.552" lon="2.90245">
        <ele>200.09</ele>
        <time>2016-02-21T09:55:56Z</time>
      </trkpt>
      <trkpt lat="43.55209" lon="2.90249">
        <ele>201.05</ele>
        <time>2016-02-21T09:55:57Z</time>
      </trkpt>
      <trkpt lat="43.55219" lon="2.90255">
        <ele>201.53</ele>
        <time>2016-02-21T09:55:58Z</time>
      </trkpt>
      <trkpt lat="43.55231" lon="2.90259">
        <ele>202.49</ele>
        <time>2016-02-21T09:55:59Z</time>
      </trkpt>
      <trkpt lat="43.55243" lon="2.9026">
        <ele>203.46</ele>
        <time>2016-02-21T09:56:00Z</time>
      </trkpt>
      <trkpt lat="43.55255" lon="2.90258">
        <ele>203.94</ele>
        <time>2016-02-21T09:56:01Z</time>
      </trkpt>
      <trkpt lat="43.55268" lon="2.90251">
        <ele>204.9</ele>
        <time>2016-02-21T09:56:02Z</time>
      </trkpt>
      <trkpt lat="43.55279" lon="2.9024">
        <ele>205.38</ele>
        <time>2016-02-21T09:56:03Z</time>
      </trkpt>
      <trkpt lat="43.55289" lon="2.90224">
        <ele>206.82</ele>
        <time>2016-02-21T09:56:04Z</time>
      </trkpt>
      <trkpt lat="43.55298" lon="2.90207">
        <ele>208.26</ele>
        <time>2016-02-21T09:56:05Z</time>
      </trkpt>
      <trkpt lat="43.55307" lon="2.9019">
        <ele>209.7</ele>
        <time>2016-02-21T09:56:06Z</time>
      </trkpt>
      <trkpt lat="43.55315" lon="2.90171">
        <ele>211.15</ele>
        <time>2016-02-21T09:56:07Z</time>
      </trkpt>
      <trkpt lat="43.55322" lon="2.90151">
        <ele>212.11</ele>
        <time>2016-02-21T09:56:08Z</time>
      </trkpt>
      <trkpt lat="43.55327" lon="2.9013">
        <ele>213.55</ele>
        <time>2016-02-21T09:56:09Z</time>
      </trkpt>
      <trkpt lat="43.55359" lon="2.90008">
        <ele>220.76</ele>
        <time>2016-02-21T09:56:15Z</time>
      </trkpt>
      <trkpt lat="43.55366" lon="2.89996">
        <ele>221.72</ele>
        <time>2016-02-21T09:56:16Z</time>
      </trkpt>
      <trkpt lat="43.55378" lon="2.89988">
        <ele>222.2</ele>
        <time>2016-02-21T09:56:17Z</time>
      </trkpt>
      <trkpt lat="43.55392" lon="2.89981">
        <ele>222.68</ele>
        <time>2016-02-21T09:56:18Z</time>
      </trkpt>
      <trkpt lat="43.55408" lon="2.89973">
        <ele>223.64</ele>
        <time>2016-02-21T09:56:19Z</time>
      </trkpt>
      <trkpt lat="43.55457" lon="2.8995">
        <ele>226.05</ele>
        <time>2016-02-21T09:56:22Z</time>
      </trkpt>
      <trkpt lat="43.55488" lon="2.89937">
        <ele>227.01</ele>
        <time>2016-02-21T09:56:24Z</time>
      </trkpt>
      <trkpt lat="43.555" lon="2.89928">
        <ele>227.01</ele>
        <time>2016-02-21T09:56:25Z</time>
      </trkpt>
      <trkpt lat="43.55508" lon="2.89915">
        <ele>227.49</ele>
        <time>2016-02-21T09:56:26Z</time>
      </trkpt>
      <trkpt lat="43.55514" lon="2.89897">
        <ele>227.01</ele>
        <time>2016-02-21T09:56:27Z</time>
      </trkpt>
      <trkpt lat="43.55516" lon="2.89878">
        <ele>227.01</ele>
        <time>2016-02-21T09:56:28Z</time>
      </trkpt>
      <trkpt lat="43.55519" lon="2.89861">
        <ele>226.53</ele>
        <time>2016-02-21T09:56:29Z</time>
      </trkpt>
      <trkpt lat="43.55525" lon="2.89843">
        <ele>227.01</ele>
        <time>2016-02-21T09:56:30Z</time>
      </trkpt>
      <trkpt lat="43.55533" lon="2.89827">
        <ele>227.49</ele>
        <time>2016-02-21T09:56:31Z</time>
      </trkpt>
      <trkpt lat="43.55545" lon="2.89815">
        <ele>228.45</ele>
        <time>2016-02-21T09:56:32Z</time>
      </trkpt>
      <trkpt lat="43.55557" lon="2.89805">
        <ele>229.89</ele>
        <time>2016-02-21T09:56:33Z</time>
      </trkpt>
      <trkpt lat="43.55578" lon="2.89782">
        <ele>231.81</ele>
        <time>2016-02-21T09:56:35Z</time>
      </trkpt>
      <trkpt lat="43.55585" lon="2.89768">
        <ele>232.78</ele>
        <time>2016-02-21T09:56:36Z</time>
      </trkpt>
      <trkpt lat="43.5559" lon="2.8975">
        <ele>234.22</ele>
        <time>2016-02-21T09:56:37Z</time>
      </trkpt>
      <trkpt lat="43.55615" lon="2.89678">
        <ele>239.02</ele>
        <time>2016-02-21T09:56:41Z</time>
      </trkpt>
      <trkpt lat="43.55624" lon="2.89666">
        <ele>239.99</ele>
        <time>2016-02-21T09:56:42Z</time>
      </trkpt>
      <trkpt lat="43.55636" lon="2.89658">
        <ele>240.95</ele>
        <time>2016-02-21T09:56:43Z</time>
      </trkpt>
      <trkpt lat="43.55651" lon="2.89657">
        <ele>241.91</ele>
        <time>2016-02-21T09:56:44Z</time>
      </trkpt>
      <trkpt lat="43.55665" lon="2.8966">
        <ele>242.39</ele>
        <time>2016-02-21T09:56:45Z</time>
      </trkpt>
      <trkpt lat="43.55682" lon="2.89666">
        <ele>243.83</ele>
        <time>2016-02-21T09:56:46Z</time>
      </trkpt>
      <trkpt lat="43.55695" lon="2.89671">
        <ele>245.27</ele>
        <time>2016-02-21T09:56:47Z</time>
      </trkpt>
      <trkpt lat="43.5571" lon="2.89673">
        <ele>245.75</ele>
        <time>2016-02-21T09:56:48Z</time>
      </trkpt>
      <trkpt lat="43.55725" lon="2.89673">
        <ele>246.72</ele>
        <time>2016-02-21T09:56:49Z</time>
      </trkpt>
      <trkpt lat="43.5574" lon="2.89672">
        <ele>247.68</ele>
        <time>2016-02-21T09:56:50Z</time>
      </trkpt>
      <trkpt lat="43.55878" lon="2.89634">
        <ele>256.33</ele>
        <time>2016-02-21T09:56:58Z</time>
      </trkpt>
      <trkpt lat="43.55895" lon="2.89625">
        <ele>257.77</ele>
        <time>2016-02-21T09:56:59Z</time>
      </trkpt>
      <trkpt lat="43.55911" lon="2.89614">
        <ele>258.73</ele>
        <time>2016-02-21T09:57:00Z</time>
      </trkpt>
      <trkpt lat="43.5598" lon="2.89559">
        <ele>264.02</ele>
        <time>2016-02-21T09:57:04Z</time>
      </trkpt>
      <trkpt lat="43.56002" lon="2.89549">
        <ele>265.46</ele>
        <time>2016-02-21T09:57:05Z</time>
      </trkpt>
      <trkpt lat="43.56022" lon="2.89541">
        <ele>266.42</ele>
        <time>2016-02-21T09:57:06Z</time>
      </trkpt>
      <trkpt lat="43.56081" lon="2.89498">
        <ele>271.23</ele>
        <time>2016-02-21T09:57:10Z</time>
      </trkpt>
      <trkpt lat="43.56085" lon="2.8948">
        <ele>272.67</ele>
        <time>2016-02-21T09:57:11Z</time>
      </trkpt>
      <trkpt lat="43.56087" lon="2.89461">
        <ele>274.11</ele>
        <time>2016-02-21T09:57:12Z</time>
      </trkpt>
      <trkpt lat="43.56099" lon="2.89446">
        <ele>277</ele>
        <time>2016-02-21T09:57:14Z</time>
      </trkpt>
      <trkpt lat="43.56106" lon="2.89451">
        <ele>276.04</ele>
        <time>2016-02-21T09:57:15Z</time>
      </trkpt>
      <trkpt lat="43.56115" lon="2.89463">
        <ele>276.52</ele>
        <time>2016-02-21T09:57:16Z</time>
      </trkpt>
      <trkpt lat="43.56122" lon="2.89481">
        <ele>277</ele>
        <time>2016-02-21T09:57:17Z</time>
      </trkpt>
      <trkpt lat="43.56128" lon="2.89502">
        <ele>278.44</ele>
        <time>2016-02-21T09:57:18Z</time>
      </trkpt>
      <trkpt lat="43.56135" lon="2.89524">
        <ele>279.4</ele>
        <time>2016-02-21T09:57:19Z</time>
      </trkpt>
      <trkpt lat="43.56163" lon="2.89584">
        <ele>282.77</ele>
        <time>2016-02-21T09:57:22Z</time>
      </trkpt>
      <trkpt lat="43.56175" lon="2.89598">
        <ele>283.73</ele>
        <time>2016-02-21T09:57:23Z</time>
      </trkpt>
      <trkpt lat="43.56189" lon="2.89608">
        <ele>284.69</ele>
        <time>2016-02-21T09:57:24Z</time>
      </trkpt>
      <trkpt lat="43.56205" lon="2.89617">
        <ele>285.65</ele>
        <time>2016-02-21T09:57:25Z</time>
      </trkpt>
      <trkpt lat="43.5622" lon="2.89623">
        <ele>286.61</ele>
        <time>2016-02-21T09:57:26Z</time>
      </trkpt>
      <trkpt lat="43.56237" lon="2.89626">
        <ele>287.57</ele>
        <time>2016-02-21T09:57:27Z</time>
      </trkpt>
      <trkpt lat="43.56252" lon="2.89625">
        <ele>288.53</ele>
        <time>2016-02-21T09:57:28Z</time>
      </trkpt>
      <trkpt lat="43.56268" lon="2.89615">
        <ele>289.97</ele>
        <time>2016-02-21T09:57:29Z</time>
      </trkpt>
      <trkpt lat="43.56283" lon="2.89603">
        <ele>290.94</ele>
        <time>2016-02-21T09:57:30Z</time>
      </trkpt>
      <trkpt lat="43.56294" lon="2.89585">
        <ele>292.38</ele>
        <time>2016-02-21T09:57:31Z</time>
      </trkpt>
      <trkpt lat="43.56305" lon="2.89568">
        <ele>293.34</ele>
        <time>2016-02-21T09:57:32Z</time>
      </trkpt>
      <trkpt lat="43.56314" lon="2.89548">
        <ele>294.3</ele>
        <time>2016-02-21T09:57:33Z</time>
      </trkpt>
      <trkpt lat="43.56321" lon="2.89527">
        <ele>295.26</ele>
        <time>2016-02-21T09:57:34Z</time>
      </trkpt>
      <trkpt lat="43.56327" lon="2.89505">
        <ele>296.22</ele>
        <time>2016-02-21T09:57:35Z</time>
      </trkpt>
      <trkpt lat="43.56332" lon="2.89482">
        <ele>297.67</ele>
        <time>2016-02-21T09:57:36Z</time>
      </trkpt>
      <trkpt lat="43.56336" lon="2.89459">
        <ele>299.11</ele>
        <time>2016-02-21T09:57:37Z</time>
      </trkpt>
      <trkpt lat="43.56339" lon="2.89436">
        <ele>300.55</ele>
        <time>2016-02-21T09:57:38Z</time>
      </trkpt>
      <trkpt lat="43.56347" lon="2.89276">
        <ele>309.2</ele>
        <time>2016-02-21T09:57:45Z</time>
      </trkpt>
      <trkpt lat="43.56352" lon="2.89243">
        <ele>312.09</ele>
        <time>2016-02-21T09:57:47Z</time>
      </trkpt>
      <trkpt lat="43.56358" lon="2.89234">
        <ele>313.05</ele>
        <time>2016-02-21T09:57:48Z</time>
      </trkpt>
      <trkpt lat="43.56366" lon="2.89228">
        <ele>314.01</ele>
        <time>2016-02-21T09:57:49Z</time>
      </trkpt>
      <trkpt lat="43.56376" lon="2.89228">
        <ele>314.49</ele>
        <time>2016-02-21T09:57:50Z</time>
      </trkpt>
      <trkpt lat="43.56385" lon="2.89237">
        <ele>314.97</ele>
        <time>2016-02-21T09:57:51Z</time>
      </trkpt>
      <trkpt lat="43.56393" lon="2.89251">
        <ele>315.45</ele>
        <time>2016-02-21T09:57:52Z</time>
      </trkpt>
      <trkpt lat="43.564" lon="2.89266">
        <ele>316.41</ele>
        <time>2016-02-21T09:57:53Z</time>
      </trkpt>
      <trkpt lat="43.56409" lon="2.89283">
        <ele>317.85</ele>
        <time>2016-02-21T09:57:54Z</time>
      </trkpt>
      <trkpt lat="43.56477" lon="2.89391">
        <ele>323.62</ele>
        <time>2016-02-21T09:58:00Z</time>
      </trkpt>
      <trkpt lat="43.5649" lon="2.894">
        <ele>324.58</ele>
        <time>2016-02-21T09:58:01Z</time>
      </trkpt>
      <trkpt lat="43.56505" lon="2.89402">
        <ele>325.54</ele>
        <time>2016-02-21T09:58:02Z</time>
      </trkpt>
      <trkpt lat="43.56521" lon="2.89401">
        <ele>326.02</ele>
        <time>2016-02-21T09:58:03Z</time>
      </trkpt>
      <trkpt lat="43.56539" lon="2.89397">
        <ele>326.99</ele>
        <time>2016-02-21T09:58:04Z</time>
      </trkpt>
      <trkpt lat="43.56557" lon="2.89395">
        <ele>329.39</ele>
        <time>2016-02-21T09:58:05Z</time>
      </trkpt>
      <trkpt lat="43.56574" lon="2.89395">
        <ele>330.35</ele>
        <time>2016-02-21T09:58:06Z</time>
      </trkpt>
      <trkpt lat="43.56589" lon="2.89402">
        <ele>331.31</ele>
        <time>2016-02-21T09:58:07Z</time>
      </trkpt>
      <trkpt lat="43.56601" lon="2.89416">
        <ele>332.75</ele>
        <time>2016-02-21T09:58:08Z</time>
      </trkpt>
      <trkpt lat="43.5661" lon="2.89432">
        <ele>334.2</ele>
        <time>2016-02-21T09:58:09Z</time>
      </trkpt>
      <trkpt lat="43.56619" lon="2.89447">
        <ele>335.16</ele>
        <time>2016-02-21T09:58:10Z</time>
      </trkpt>
      <trkpt lat="43.56628" lon="2.89458">
        <ele>336.12</ele>
        <time>2016-02-21T09:58:11Z</time>
      </trkpt>
      <trkpt lat="43.56639" lon="2.89461">
        <ele>336.6</ele>
        <time>2016-02-21T09:58:12Z</time>
      </trkpt>
      <trkpt lat="43.56652" lon="2.89458">
        <ele>337.08</ele>
        <time>2016-02-21T09:58:13Z</time>
      </trkpt>
      <trkpt lat="43.56668" lon="2.89455">
        <ele>338.04</ele>
        <time>2016-02-21T09:58:14Z</time>
      </trkpt>
      <trkpt lat="43.56689" lon="2.89445">
        <ele>339</ele>
        <time>2016-02-21T09:58:15Z</time>
      </trkpt>
      <trkpt lat="43.56712" lon="2.89432">
        <ele>340.92</ele>
        <time>2016-02-21T09:58:16Z</time>
      </trkpt>
      <trkpt lat="43.56733" lon="2.89422">
        <ele>342.37</ele>
        <time>2016-02-21T09:58:17Z</time>
      </trkpt>
      <trkpt lat="43.56804" lon="2.89393">
        <ele>349.58</ele>
        <time>2016-02-21T09:58:21Z</time>
      </trkpt>
      <trkpt lat="43.56821" lon="2.8939">
        <ele>351.02</ele>
        <time>2016-02-21T09:58:22Z</time>
      </trkpt>
      <trkpt lat="43.56838" lon="2.89391">
        <ele>352.46</ele>
        <time>2016-02-21T09:58:23Z</time>
      </trkpt>
      <trkpt lat="43.56854" lon="2.89395">
        <ele>353.9</ele>
        <time>2016-02-21T09:58:24Z</time>
      </trkpt>
      <trkpt lat="43.56869" lon="2.894">
        <ele>354.86</ele>
        <time>2016-02-21T09:58:25Z</time>
      </trkpt>
      <trkpt lat="43.56883" lon="2.89403">
        <ele>355.83</ele>
        <time>2016-02-21T09:58:26Z</time>
      </trkpt>
      <trkpt lat="43.56897" lon="2.89404">
        <ele>356.79</ele>
        <time>2016-02-21T09:58:27Z</time>
      </trkpt>
      <trkpt lat="43.5691" lon="2.89399">
        <ele>357.27</ele>
        <time>2016-02-21T09:58:28Z</time>
      </trkpt>
      <trkpt lat="43.56923" lon="2.8939">
        <ele>358.23</ele>
        <time>2016-02-21T09:58:29Z</time>
      </trkpt>
      <trkpt lat="43.56933" lon="2.89373">
        <ele>360.15</ele>
        <time>2016-02-21T09:58:30Z</time>
      </trkpt>
      <trkpt lat="43.56944" lon="2.89355">
        <ele>361.11</ele>
        <time>2016-02-21T09:58:31Z</time>
      </trkpt>
      <trkpt lat="43.56953" lon="2.89332">
        <ele>362.55</ele>
        <time>2016-02-21T09:58:32Z</time>
      </trkpt>
      <trkpt lat="43.56964" lon="2.89309">
        <ele>363.52</ele>
        <time>2016-02-21T09:58:33Z</time>
      </trkpt>
      <trkpt lat="43.56988" lon="2.89265">
        <ele>365.44</ele>
        <time>2016-02-21T09:58:35Z</time>
      </trkpt>
      <trkpt lat="43.57005" lon="2.89247">
        <ele>366.88</ele>
        <time>2016-02-21T09:58:36Z</time>
      </trkpt>
      <trkpt lat="43.57023" lon="2.89232">
        <ele>367.84</ele>
        <time>2016-02-21T09:58:37Z</time>
      </trkpt>
      <trkpt lat="43.57039" lon="2.89219">
        <ele>368.8</ele>
        <time>2016-02-21T09:58:38Z</time>
      </trkpt>
      <trkpt lat="43.57055" lon="2.89206">
        <ele>369.76</ele>
        <time>2016-02-21T09:58:39Z</time>
      </trkpt>
      <trkpt lat="43.57168" lon="2.89134">
        <ele>376.97</ele>
        <time>2016-02-21T09:58:46Z</time>
      </trkpt>
      <trkpt lat="43.57271" lon="2.8909">
        <ele>384.66</ele>
        <time>2016-02-21T09:58:52Z</time>
      </trkpt>
      <trkpt lat="43.57279" lon="2.89071">
        <ele>387.07</ele>
        <time>2016-02-21T09:58:53Z</time>
      </trkpt>
      <trkpt lat="43.57284" lon="2.89047">
        <ele>388.03</ele>
        <time>2016-02-21T09:58:54Z</time>
      </trkpt>
      <trkpt lat="43.57293" lon="2.89023">
        <ele>389.47</ele>
        <time>2016-02-21T09:58:55Z</time>
      </trkpt>
      <trkpt lat="43.57305" lon="2.88998">
        <ele>390.91</ele>
        <time>2016-02-21T09:58:56Z</time>
      </trkpt>
      <trkpt lat="43.57317" lon="2.88972">
        <ele>391.87</ele>
        <time>2016-02-21T09:58:57Z</time>
      </trkpt>
      <trkpt lat="43.57328" lon="2.88944">
        <ele>393.8</ele>
        <time>2016-02-21T09:58:58Z</time>
      </trkpt>
      <trkpt lat="43.57337" lon="2.88915">
        <ele>394.28</ele>
        <time>2016-02-21T09:58:59Z</time>
      </trkpt>
      <trkpt lat="43.57347" lon="2.88886">
        <ele>396.2</ele>
        <time>2016-02-21T09:59:00Z</time>
      </trkpt>
      <trkpt lat="43.5737" lon="2.8883">
        <ele>399.08</ele>
        <time>2016-02-21T09:59:02Z</time>
      </trkpt>
      <trkpt lat="43.57456" lon="2.88666">
        <ele>409.18</ele>
        <time>2016-02-21T09:59:09Z</time>
      </trkpt>
      <trkpt lat="43.57482" lon="2.88608">
        <ele>412.54</ele>
        <time>2016-02-21T09:59:12Z</time>
      </trkpt>
      <trkpt lat="43.57488" lon="2.88588">
        <ele>413.5</ele>
        <time>2016-02-21T09:59:13Z</time>
      </trkpt>
      <trkpt lat="43.57502" lon="2.88531">
        <ele>417.35</ele>
        <time>2016-02-21T09:59:17Z</time>
      </trkpt>
      <trkpt lat="43.57507" lon="2.88522">
        <ele>418.31</ele>
        <time>2016-02-21T09:59:18Z</time>
      </trkpt>
      <trkpt lat="43.57516" lon="2.88522">
        <ele>418.79</ele>
        <time>2016-02-21T09:59:19Z</time>
      </trkpt>
      <trkpt lat="43.57529" lon="2.88524">
        <ele>420.71</ele>
        <time>2016-02-21T09:59:20Z</time>
      </trkpt>
      <trkpt lat="43.57535" lon="2.88534">
        <ele>421.68</ele>
        <time>2016-02-21T09:59:21Z</time>
      </trkpt>
      <trkpt lat="43.57542" lon="2.88544">
        <ele>421.19</ele>
        <time>2016-02-21T09:59:22Z</time>
      </trkpt>
      <trkpt lat="43.57548" lon="2.88555">
        <ele>421.68</ele>
        <time>2016-02-21T09:59:23Z</time>
      </trkpt>
      <trkpt lat="43.57556" lon="2.88564">
        <ele>422.16</ele>
        <time>2016-02-21T09:59:24Z</time>
      </trkpt>
      <trkpt lat="43.57566" lon="2.88565">
        <ele>423.12</ele>
        <time>2016-02-21T09:59:25Z</time>
      </trkpt>
      <trkpt lat="43.57577" lon="2.88562">
        <ele>424.08</ele>
        <time>2016-02-21T09:59:26Z</time>
      </trkpt>
      <trkpt lat="43.5759" lon="2.88555">
        <ele>424.56</ele>
        <time>2016-02-21T09:59:27Z</time>
      </trkpt>
      <trkpt lat="43.57602" lon="2.88548">
        <ele>425.04</ele>
        <time>2016-02-21T09:59:28Z</time>
      </trkpt>
      <trkpt lat="43.57675" lon="2.88511">
        <ele>429.85</ele>
        <time>2016-02-21T09:59:34Z</time>
      </trkpt>
      <trkpt lat="43.57685" lon="2.885">
        <ele>431.29</ele>
        <time>2016-02-21T09:59:35Z</time>
      </trkpt>
      <trkpt lat="43.57693" lon="2.88488">
        <ele>431.77</ele>
        <time>2016-02-21T09:59:36Z</time>
      </trkpt>
      <trkpt lat="43.57748" lon="2.88406">
        <ele>437.06</ele>
        <time>2016-02-21T09:59:43Z</time>
      </trkpt>
      <trkpt lat="43.57809" lon="2.88342">
        <ele>441.86</ele>
        <time>2016-02-21T09:59:49Z</time>
      </trkpt>
      <trkpt lat="43.57816" lon="2.88328">
        <ele>442.82</ele>
        <time>2016-02-21T09:59:50Z</time>
      </trkpt>
      <trkpt lat="43.5782" lon="2.88312">
        <ele>443.31</ele>
        <time>2016-02-21T09:59:51Z</time>
      </trkpt>
      <trkpt lat="43.57822" lon="2.88296">
        <ele>443.79</ele>
        <time>2016-02-21T09:59:52Z</time>
      </trkpt>
      <trkpt lat="43.57824" lon="2.88281">
        <ele>444.27</ele>
        <time>2016-02-21T09:59:53Z</time>
      </trkpt>
      <trkpt lat="43.57828" lon="2.88235">
        <ele>447.63</ele>
        <time>2016-02-21T09:59:56Z</time>
      </trkpt>
      <trkpt lat="43.57833" lon="2.88221">
        <ele>448.59</ele>
        <time>2016-02-21T09:59:57Z</time>
      </trkpt>
      <trkpt lat="43.57839" lon="2.88208">
        <ele>449.55</ele>
        <time>2016-02-21T09:59:58Z</time>
      </trkpt>
      <trkpt lat="43.57848" lon="2.88184">
        <ele>450.52</ele>
        <time>2016-02-21T10:00:00Z</time>
      </trkpt>
      <trkpt lat="43.57846" lon="2.88174">
        <ele>451</ele>
        <time>2016-02-21T10:00:01Z</time>
      </trkpt>
      <trkpt lat="43.57841" lon="2.8817">
        <ele>451.96</ele>
        <time>2016-02-21T10:00:02Z</time>
      </trkpt>
      <trkpt lat="43.57835" lon="2.88174">
        <ele>452.44</ele>
        <time>2016-02-21T10:00:03Z</time>
      </trkpt>
      <trkpt lat="43.5783" lon="2.8818">
        <ele>452.92</ele>
        <time>2016-02-21T10:00:04Z</time>
      </trkpt>
      <trkpt lat="43.57827" lon="2.88193">
        <ele>453.4</ele>
        <time>2016-02-21T10:00:05Z</time>
      </trkpt>
      <trkpt lat="43.57823" lon="2.88208">
        <ele>454.36</ele>
        <time>2016-02-21T10:00:06Z</time>
      </trkpt>
      <trkpt lat="43.57817" lon="2.88227">
        <ele>454.36</ele>
        <time>2016-02-21T10:00:07Z</time>
      </trkpt>
      <trkpt lat="43.5781" lon="2.88246">
        <ele>455.8</ele>
        <time>2016-02-21T10:00:08Z</time>
      </trkpt>
      <trkpt lat="43.57802" lon="2.88265">
        <ele>456.76</ele>
        <time>2016-02-21T10:00:09Z</time>
      </trkpt>
      <trkpt lat="43.57793" lon="2.88283">
        <ele>457.72</ele>
        <time>2016-02-21T10:00:10Z</time>
      </trkpt>
      <trkpt lat="43.57782" lon="2.883">
        <ele>458.69</ele>
        <time>2016-02-21T10:00:11Z</time>
      </trkpt>
      <trkpt lat="43.57769" lon="2.88316">
        <ele>458.69</ele>
        <time>2016-02-21T10:00:12Z</time>
      </trkpt>
      <trkpt lat="43.57754" lon="2.88329">
        <ele>459.65</ele>
        <time>2016-02-21T10:00:13Z</time>
      </trkpt>
      <trkpt lat="43.57738" lon="2.8834">
        <ele>460.13</ele>
        <time>2016-02-21T10:00:14Z</time>
      </trkpt>
      <trkpt lat="43.57722" lon="2.8835">
        <ele>460.61</ele>
        <time>2016-02-21T10:00:15Z</time>
      </trkpt>
      <trkpt lat="43.57636" lon="2.88408">
        <ele>464.93</ele>
        <time>2016-02-21T10:00:21Z</time>
      </trkpt>
      <trkpt lat="43.57622" lon="2.88415">
        <ele>465.9</ele>
        <time>2016-02-21T10:00:22Z</time>
      </trkpt>
      <trkpt lat="43.57563" lon="2.88445">
        <ele>470.22</ele>
        <time>2016-02-21T10:00:28Z</time>
      </trkpt>
      <trkpt lat="43.57571" lon="2.88428">
        <ele>473.11</ele>
        <time>2016-02-21T10:00:30Z</time>
      </trkpt>
      <trkpt lat="43.57592" lon="2.88418">
        <ele>475.99</ele>
        <time>2016-02-21T10:00:32Z</time>
      </trkpt>
      <trkpt lat="43.57633" lon="2.88388">
        <ele>473.59</ele>
        <time>2016-02-21T10:00:35Z</time>
      </trkpt>
      <trkpt lat="43.57648" lon="2.88374">
        <ele>473.59</ele>
        <time>2016-02-21T10:00:36Z</time>
      </trkpt>
      <trkpt lat="43.57664" lon="2.88356">
        <ele>475.99</ele>
        <time>2016-02-21T10:00:37Z</time>
      </trkpt>
      <trkpt lat="43.5773" lon="2.88256">
        <ele>484.64</ele>
        <time>2016-02-21T10:00:42Z</time>
      </trkpt>
      <trkpt lat="43.57739" lon="2.88231">
        <ele>485.6</ele>
        <time>2016-02-21T10:00:43Z</time>
      </trkpt>
      <trkpt lat="43.57747" lon="2.88206">
        <ele>486.56</ele>
        <time>2016-02-21T10:00:44Z</time>
      </trkpt>
      <trkpt lat="43.5779" lon="2.8803">
        <ele>497.14</ele>
        <time>2016-02-21T10:00:51Z</time>
      </trkpt>
      <trkpt lat="43.57801" lon="2.88008">
        <ele>498.1</ele>
        <time>2016-02-21T10:00:52Z</time>
      </trkpt>
      <trkpt lat="43.57815" lon="2.87989">
        <ele>499.06</ele>
        <time>2016-02-21T10:00:53Z</time>
      </trkpt>
      <trkpt lat="43.57831" lon="2.87974">
        <ele>500.5</ele>
        <time>2016-02-21T10:00:54Z</time>
      </trkpt>
      <trkpt lat="43.57845" lon="2.87964">
        <ele>501.46</ele>
        <time>2016-02-21T10:00:55Z</time>
      </trkpt>
      <trkpt lat="43.57858" lon="2.87956">
        <ele>502.43</ele>
        <time>2016-02-21T10:00:56Z</time>
      </trkpt>
      <trkpt lat="43.57868" lon="2.87949">
        <ele>502.91</ele>
        <time>2016-02-21T10:00:57Z</time>
      </trkpt>
      <trkpt lat="43.57872" lon="2.87942">
        <ele>503.87</ele>
        <time>2016-02-21T10:00:58Z</time>
      </trkpt>
      <trkpt lat="43.57871" lon="2.87935">
        <ele>504.35</ele>
        <time>2016-02-21T10:00:59Z</time>
      </trkpt>
      <trkpt lat="43.57857" lon="2.87931">
        <ele>506.75</ele>
        <time>2016-02-21T10:01:01Z</time>
      </trkpt>
      <trkpt lat="43.57848" lon="2.87939">
        <ele>508.19</ele>
        <time>2016-02-21T10:01:02Z</time>
      </trkpt>
      <trkpt lat="43.5784" lon="2.8794">
        <ele>506.75</ele>
        <time>2016-02-21T10:01:03Z</time>
      </trkpt>
      <trkpt lat="43.57827" lon="2.87947">
        <ele>505.79</ele>
        <time>2016-02-21T10:01:04Z</time>
      </trkpt>
      <trkpt lat="43.57806" lon="2.87969">
        <ele>509.16</ele>
        <time>2016-02-21T10:01:05Z</time>
      </trkpt>
      <trkpt lat="43.57788" lon="2.87981">
        <ele>511.56</ele>
        <time>2016-02-21T10:01:06Z</time>
      </trkpt>
      <trkpt lat="43.57771" lon="2.87997">
        <ele>513.48</ele>
        <time>2016-02-21T10:01:07Z</time>
      </trkpt>
      <trkpt lat="43.57756" lon="2.88013">
        <ele>514.92</ele>
        <time>2016-02-21T10:01:08Z</time>
      </trkpt>
      <trkpt lat="43.57745" lon="2.88034">
        <ele>515.4</ele>
        <time>2016-02-21T10:01:09Z</time>
      </trkpt>
      <trkpt lat="43.57733" lon="2.88056">
        <ele>515.88</ele>
        <time>2016-02-21T10:01:10Z</time>
      </trkpt>
      <trkpt lat="43.57723" lon="2.88078">
        <ele>516.37</ele>
        <time>2016-02-21T10:01:11Z</time>
      </trkpt>
      <trkpt lat="43.57715" lon="2.88102">
        <ele>517.33</ele>
        <time>2016-02-21T10:01:12Z</time>
      </trkpt>
      <trkpt lat="43.57709" lon="2.88125">
        <ele>518.29</ele>
        <time>2016-02-21T10:01:13Z</time>
      </trkpt>
      <trkpt lat="43.57705" lon="2.88141">
        <ele>518.77</ele>
        <time>2016-02-21T10:01:14Z</time>
      </trkpt>
      <trkpt lat="43.57697" lon="2.88154">
        <ele>519.73</ele>
        <time>2016-02-21T10:01:16Z</time>
      </trkpt>
      <trkpt lat="43.57693" lon="2.88154">
        <ele>520.69</ele>
        <time>2016-02-21T10:01:17Z</time>
      </trkpt>
      <trkpt lat="43.57692" lon="2.88147">
        <ele>521.17</ele>
        <time>2016-02-21T10:01:19Z</time>
      </trkpt>
      <trkpt lat="43.57698" lon="2.88114">
        <ele>521.65</ele>
        <time>2016-02-21T10:01:21Z</time>
      </trkpt>
      <trkpt lat="43.57706" lon="2.88088">
        <ele>522.13</ele>
        <time>2016-02-21T10:01:22Z</time>
      </trkpt>
      <trkpt lat="43.5771" lon="2.88064">
        <ele>523.58</ele>
        <time>2016-02-21T10:01:23Z</time>
      </trkpt>
      <trkpt lat="43.57715" lon="2.88038">
        <ele>525.02</ele>
        <time>2016-02-21T10:01:24Z</time>
      </trkpt>
      <trkpt lat="43.57759" lon="2.87917">
        <ele>534.15</ele>
        <time>2016-02-21T10:01:30Z</time>
      </trkpt>
      <trkpt lat="43.57772" lon="2.87903">
        <ele>535.11</ele>
        <time>2016-02-21T10:01:31Z</time>
      </trkpt>
      <trkpt lat="43.57792" lon="2.87871">
        <ele>537.03</ele>
        <time>2016-02-21T10:01:33Z</time>
      </trkpt>
      <trkpt lat="43.57797" lon="2.87853">
        <ele>538.48</ele>
        <time>2016-02-21T10:01:34Z</time>
      </trkpt>
      <trkpt lat="43.57799" lon="2.87832">
        <ele>539.92</ele>
        <time>2016-02-21T10:01:35Z</time>
      </trkpt>
      <trkpt lat="43.57797" lon="2.87808">
        <ele>541.36</ele>
        <time>2016-02-21T10:01:36Z</time>
      </trkpt>
      <trkpt lat="43.57798" lon="2.87784">
        <ele>542.8</ele>
        <time>2016-02-21T10:01:37Z</time>
      </trkpt>
      <trkpt lat="43.578" lon="2.87761">
        <ele>543.76</ele>
        <time>2016-02-21T10:01:38Z</time>
      </trkpt>
      <trkpt lat="43.57804" lon="2.87739">
        <ele>545.69</ele>
        <time>2016-02-21T10:01:39Z</time>
      </trkpt>
      <trkpt lat="43.5781" lon="2.87721">
        <ele>547.61</ele>
        <time>2016-02-21T10:01:40Z</time>
      </trkpt>
      <trkpt lat="43.57819" lon="2.87711">
        <ele>549.53</ele>
        <time>2016-02-21T10:01:41Z</time>
      </trkpt>
      <trkpt lat="43.57835" lon="2.87702">
        <ele>554.34</ele>
        <time>2016-02-21T10:01:42Z</time>
      </trkpt>
      <trkpt lat="43.57851" lon="2.87698">
        <ele>557.22</ele>
        <time>2016-02-21T10:01:43Z</time>
      </trkpt>
      <trkpt lat="43.57867" lon="2.87694">
        <ele>560.59</ele>
        <time>2016-02-21T10:01:44Z</time>
      </trkpt>
      <trkpt lat="43.57889" lon="2.87685">
        <ele>561.07</ele>
        <time>2016-02-21T10:01:45Z</time>
      </trkpt>
      <trkpt lat="43.5791" lon="2.8768">
        <ele>562.99</ele>
        <time>2016-02-21T10:01:46Z</time>
      </trkpt>
      <trkpt lat="43.5793" lon="2.87672">
        <ele>565.39</ele>
        <time>2016-02-21T10:01:47Z</time>
      </trkpt>
      <trkpt lat="43.5795" lon="2.87664">
        <ele>567.32</ele>
        <time>2016-02-21T10:01:48Z</time>
      </trkpt>
      <trkpt lat="43.58" lon="2.87631">
        <ele>572.6</ele>
        <time>2016-02-21T10:01:51Z</time>
      </trkpt>
      <trkpt lat="43.58011" lon="2.87616">
        <ele>574.04</ele>
        <time>2016-02-21T10:01:52Z</time>
      </trkpt>
      <trkpt lat="43.58017" lon="2.87598">
        <ele>575.01</ele>
        <time>2016-02-21T10:01:53Z</time>
      </trkpt>
      <trkpt lat="43.58017" lon="2.87577">
        <ele>575.49</ele>
        <time>2016-02-21T10:01:54Z</time>
      </trkpt>
      <trkpt lat="43.58014" lon="2.87556">
        <ele>575.97</ele>
        <time>2016-02-21T10:01:55Z</time>
      </trkpt>
      <trkpt lat="43.58009" lon="2.87534">
        <ele>577.89</ele>
        <time>2016-02-21T10:01:56Z</time>
      </trkpt>
      <trkpt lat="43.58002" lon="2.87511">
        <ele>579.33</ele>
        <time>2016-02-21T10:01:57Z</time>
      </trkpt>
      <trkpt lat="43.57997" lon="2.87485">
        <ele>580.77</ele>
        <time>2016-02-21T10:01:58Z</time>
      </trkpt>
      <trkpt lat="43.57993" lon="2.87458">
        <ele>582.22</ele>
        <time>2016-02-21T10:01:59Z</time>
      </trkpt>
      <trkpt lat="43.57992" lon="2.8743">
        <ele>583.66</ele>
        <time>2016-02-21T10:02:00Z</time>
      </trkpt>
      <trkpt lat="43.57994" lon="2.87401">
        <ele>584.62</ele>
        <time>2016-02-21T10:02:01Z</time>
      </trkpt>
      <trkpt lat="43.57997" lon="2.87372">
        <ele>585.1</ele>
        <time>2016-02-21T10:02:02Z</time>
      </trkpt>
      <trkpt lat="43.58018" lon="2.87265">
        <ele>591.83</ele>
        <time>2016-02-21T10:02:06Z</time>
      </trkpt>
      <trkpt lat="43.58033" lon="2.87249">
        <ele>593.27</ele>
        <time>2016-02-21T10:02:07Z</time>
      </trkpt>
      <trkpt lat="43.58049" lon="2.87234">
        <ele>594.23</ele>
        <time>2016-02-21T10:02:08Z</time>
      </trkpt>
      <trkpt lat="43.58096" lon="2.87183">
        <ele>600.48</ele>
        <time>2016-02-21T10:02:11Z</time>
      </trkpt>
      <trkpt lat="43.58108" lon="2.8716">
        <ele>601.92</ele>
        <time>2016-02-21T10:02:12Z</time>
      </trkpt>
      <trkpt lat="43.58176" lon="2.86997">
        <ele>614.42</ele>
        <time>2016-02-21T10:02:19Z</time>
      </trkpt>
      <trkpt lat="43.58188" lon="2.86977">
        <ele>616.34</ele>
        <time>2016-02-21T10:02:20Z</time>
      </trkpt>
      <trkpt lat="43.58203" lon="2.86959">
        <ele>617.78</ele>
        <time>2016-02-21T10:02:21Z</time>
      </trkpt>
      <trkpt lat="43.5822" lon="2.86942">
        <ele>619.71</ele>
        <time>2016-02-21T10:02:22Z</time>
      </trkpt>
      <trkpt lat="43.58238" lon="2.86927">
        <ele>621.63</ele>
        <time>2016-02-21T10:02:23Z</time>
      </trkpt>
      <trkpt lat="43.58257" lon="2.86913">
        <ele>623.55</ele>
        <time>2016-02-21T10:02:24Z</time>
      </trkpt>
      <trkpt lat="43.58276" lon="2.86902">
        <ele>625.96</ele>
        <time>2016-02-21T10:02:25Z</time>
      </trkpt>
      <trkpt lat="43.58297" lon="2.86894">
        <ele>628.36</ele>
        <time>2016-02-21T10:02:26Z</time>
      </trkpt>
      <trkpt lat="43.58319" lon="2.86888">
        <ele>630.28</ele>
        <time>2016-02-21T10:02:27Z</time>
      </trkpt>
      <trkpt lat="43.58432" lon="2.86846">
        <ele>639.89</ele>
        <time>2016-02-21T10:02:32Z</time>
      </trkpt>
      <trkpt lat="43.58451" lon="2.86829">
        <ele>641.82</ele>
        <time>2016-02-21T10:02:33Z</time>
      </trkpt>
      <trkpt lat="43.58469" lon="2.86805">
        <ele>644.22</ele>
        <time>2016-02-21T10:02:34Z</time>
      </trkpt>
      <trkpt lat="43.58487" lon="2.86779">
        <ele>647.1</ele>
        <time>2016-02-21T10:02:35Z</time>
      </trkpt>
      <trkpt lat="43.58506" lon="2.86753">
        <ele>650.47</ele>
        <time>2016-02-21T10:02:36Z</time>
      </trkpt>
      <trkpt lat="43.58527" lon="2.86729">
        <ele>652.87</ele>
        <time>2016-02-21T10:02:37Z</time>
      </trkpt>
      <trkpt lat="43.58615" lon="2.866">
        <ele>662.49</ele>
        <time>2016-02-21T10:02:42Z</time>
      </trkpt>
      <trkpt lat="43.58698" lon="2.86482">
        <ele>670.66</ele>
        <time>2016-02-21T10:02:47Z</time>
      </trkpt>
      <trkpt lat="43.58709" lon="2.86457">
        <ele>672.1</ele>
        <time>2016-02-21T10:02:48Z</time>
      </trkpt>
      <trkpt lat="43.5872" lon="2.86428">
        <ele>673.06</ele>
        <time>2016-02-21T10:02:49Z</time>
      </trkpt>
      <trkpt lat="43.58772" lon="2.86328">
        <ele>679.31</ele>
        <time>2016-02-21T10:02:53Z</time>
      </trkpt>
      <trkpt lat="43.5879" lon="2.86309">
        <ele>681.23</ele>
        <time>2016-02-21T10:02:54Z</time>
      </trkpt>
      <trkpt lat="43.58851" lon="2.86252">
        <ele>686.04</ele>
        <time>2016-02-21T10:02:57Z</time>
      </trkpt>
      <trkpt lat="43.58873" lon="2.86241">
        <ele>687.96</ele>
        <time>2016-02-21T10:02:58Z</time>
      </trkpt>
      <trkpt lat="43.58894" lon="2.86234">
        <ele>689.4</ele>
        <time>2016-02-21T10:02:59Z</time>
      </trkpt>
      <trkpt lat="43.58933" lon="2.86217">
        <ele>690.84</ele>
        <time>2016-02-21T10:03:01Z</time>
      </trkpt>
      <trkpt lat="43.58949" lon="2.86202">
        <ele>691.81</ele>
        <time>2016-02-21T10:03:02Z</time>
      </trkpt>
      <trkpt lat="43.58963" lon="2.8618">
        <ele>692.29</ele>
        <time>2016-02-21T10:03:03Z</time>
      </trkpt>
      <trkpt lat="43.58975" lon="2.86152">
        <ele>692.77</ele>
        <time>2016-02-21T10:03:04Z</time>
      </trkpt>
      <trkpt lat="43.58983" lon="2.86119">
        <ele>694.69</ele>
        <time>2016-02-21T10:03:05Z</time>
      </trkpt>
      <trkpt lat="43.5899" lon="2.8609">
        <ele>694.21</ele>
        <time>2016-02-21T10:03:06Z</time>
      </trkpt>
      <trkpt lat="43.58999" lon="2.86061">
        <ele>695.65</ele>
        <time>2016-02-21T10:03:07Z</time>
      </trkpt>
      <trkpt lat="43.5901" lon="2.86034">
        <ele>696.61</ele>
        <time>2016-02-21T10:03:08Z</time>
      </trkpt>
      <trkpt lat="43.59025" lon="2.86008">
        <ele>698.05</ele>
        <time>2016-02-21T10:03:09Z</time>
      </trkpt>
      <trkpt lat="43.59042" lon="2.85981">
        <ele>699.02</ele>
        <time>2016-02-21T10:03:10Z</time>
      </trkpt>
      <trkpt lat="43.5906" lon="2.85954">
        <ele>700.46</ele>
        <time>2016-02-21T10:03:11Z</time>
      </trkpt>
      <trkpt lat="43.59107" lon="2.85888">
        <ele>704.78</ele>
        <time>2016-02-21T10:03:14Z</time>
      </trkpt>
      <trkpt lat="43.59115" lon="2.85869">
        <ele>705.75</ele>
        <time>2016-02-21T10:03:15Z</time>
      </trkpt>
      <trkpt lat="43.59118" lon="2.85854">
        <ele>706.71</ele>
        <time>2016-02-21T10:03:16Z</time>
      </trkpt>
      <trkpt lat="43.59121" lon="2.85845">
        <ele>708.15</ele>
        <time>2016-02-21T10:03:17Z</time>
      </trkpt>
      <trkpt lat="43.59124" lon="2.85841">
        <ele>709.11</ele>
        <time>2016-02-21T10:03:18Z</time>
      </trkpt>
      <trkpt lat="43.59127" lon="2.85842">
        <ele>710.55</ele>
        <time>2016-02-21T10:03:19Z</time>
      </trkpt>
      <trkpt lat="43.59128" lon="2.85848">
        <ele>711.99</ele>
        <time>2016-02-21T10:03:20Z</time>
      </trkpt>
      <trkpt lat="43.59127" lon="2.85859">
        <ele>712.95</ele>
        <time>2016-02-21T10:03:21Z</time>
      </trkpt>
      <trkpt lat="43.59121" lon="2.85874">
        <ele>713.92</ele>
        <time>2016-02-21T10:03:22Z</time>
      </trkpt>
      <trkpt lat="43.59108" lon="2.85896">
        <ele>714.88</ele>
        <time>2016-02-21T10:03:23Z</time>
      </trkpt>
      <trkpt lat="43.59095" lon="2.85918">
        <ele>715.84</ele>
        <time>2016-02-21T10:03:24Z</time>
      </trkpt>
      <trkpt lat="43.59079" lon="2.85941">
        <ele>720.65</ele>
        <time>2016-02-21T10:03:25Z</time>
      </trkpt>
      <trkpt lat="43.59064" lon="2.85973">
        <ele>721.13</ele>
        <time>2016-02-21T10:03:26Z</time>
      </trkpt>
      <trkpt lat="43.5905" lon="2.86005">
        <ele>720.65</ele>
        <time>2016-02-21T10:03:27Z</time>
      </trkpt>
      <trkpt lat="43.59037" lon="2.86035">
        <ele>720.16</ele>
        <time>2016-02-21T10:03:28Z</time>
      </trkpt>
      <trkpt lat="43.59019" lon="2.86092">
        <ele>721.13</ele>
        <time>2016-02-21T10:03:30Z</time>
      </trkpt>
      <trkpt lat="43.59013" lon="2.86123">
        <ele>720.65</ele>
        <time>2016-02-21T10:03:31Z</time>
      </trkpt>
      <trkpt lat="43.59002" lon="2.86188">
        <ele>722.09</ele>
        <time>2016-02-21T10:03:33Z</time>
      </trkpt>
      <trkpt lat="43.58979" lon="2.86271">
        <ele>723.53</ele>
        <time>2016-02-21T10:03:36Z</time>
      </trkpt>
      <trkpt lat="43.58966" lon="2.86293">
        <ele>724.49</ele>
        <time>2016-02-21T10:03:37Z</time>
      </trkpt>
      <trkpt lat="43.5895" lon="2.86312">
        <ele>724.97</ele>
        <time>2016-02-21T10:03:38Z</time>
      </trkpt>
      <trkpt lat="43.58932" lon="2.86323">
        <ele>726.41</ele>
        <time>2016-02-21T10:03:39Z</time>
      </trkpt>
      <trkpt lat="43.58913" lon="2.86332">
        <ele>727.37</ele>
        <time>2016-02-21T10:03:40Z</time>
      </trkpt>
      <trkpt lat="43.58897" lon="2.86339">
        <ele>727.86</ele>
        <time>2016-02-21T10:03:41Z</time>
      </trkpt>
      <trkpt lat="43.58882" lon="2.86347">
        <ele>728.82</ele>
        <time>2016-02-21T10:03:42Z</time>
      </trkpt>
      <trkpt lat="43.5887" lon="2.86358">
        <ele>729.3</ele>
        <time>2016-02-21T10:03:43Z</time>
      </trkpt>
      <trkpt lat="43.58857" lon="2.86379">
        <ele>730.26</ele>
        <time>2016-02-21T10:03:44Z</time>
      </trkpt>
      <trkpt lat="43.58844" lon="2.86398">
        <ele>731.22</ele>
        <time>2016-02-21T10:03:45Z</time>
      </trkpt>
      <trkpt lat="43.58831" lon="2.86414">
        <ele>732.18</ele>
        <time>2016-02-21T10:03:46Z</time>
      </trkpt>
      <trkpt lat="43.58818" lon="2.86427">
        <ele>733.14</ele>
        <time>2016-02-21T10:03:47Z</time>
      </trkpt>
      <trkpt lat="43.58807" lon="2.86436">
        <ele>733.14</ele>
        <time>2016-02-21T10:03:48Z</time>
      </trkpt>
      <trkpt lat="43.58799" lon="2.86443">
        <ele>733.62</ele>
        <time>2016-02-21T10:03:49Z</time>
      </trkpt>
      <trkpt lat="43.58795" lon="2.86452">
        <ele>734.58</ele>
        <time>2016-02-21T10:03:50Z</time>
      </trkpt>
      <trkpt lat="43.58796" lon="2.86458">
        <ele>734.58</ele>
        <time>2016-02-21T10:03:51Z</time>
      </trkpt>
      <trkpt lat="43.58803" lon="2.86458">
        <ele>731.7</ele>
        <time>2016-02-21T10:03:52Z</time>
      </trkpt>
      <trkpt lat="43.5881" lon="2.86455">
        <ele>732.18</ele>
        <time>2016-02-21T10:03:53Z</time>
      </trkpt>
      <trkpt lat="43.58821" lon="2.8645">
        <ele>733.14</ele>
        <time>2016-02-21T10:03:54Z</time>
      </trkpt>
      <trkpt lat="43.58831" lon="2.86442">
        <ele>733.62</ele>
        <time>2016-02-21T10:03:55Z</time>
      </trkpt>
      <trkpt lat="43.58844" lon="2.86431">
        <ele>734.58</ele>
        <time>2016-02-21T10:03:56Z</time>
      </trkpt>
      <trkpt lat="43.58858" lon="2.86416">
        <ele>735.55</ele>
        <time>2016-02-21T10:03:57Z</time>
      </trkpt>
      <trkpt lat="43.58873" lon="2.864">
        <ele>737.95</ele>
        <time>2016-02-21T10:03:58Z</time>
      </trkpt>
      <trkpt lat="43.58888" lon="2.86386">
        <ele>739.87</ele>
        <time>2016-02-21T10:03:59Z</time>
      </trkpt>
      <trkpt lat="43.58909" lon="2.86377">
        <ele>741.79</ele>
        <time>2016-02-21T10:04:00Z</time>
      </trkpt>
      <trkpt lat="43.5893" lon="2.86373">
        <ele>743.24</ele>
        <time>2016-02-21T10:04:01Z</time>
      </trkpt>
      <trkpt lat="43.58951" lon="2.86371">
        <ele>745.16</ele>
        <time>2016-02-21T10:04:02Z</time>
      </trkpt>
      <trkpt lat="43.58972" lon="2.86366">
        <ele>746.6</ele>
        <time>2016-02-21T10:04:03Z</time>
      </trkpt>
      <trkpt lat="43.58993" lon="2.86358">
        <ele>749</ele>
        <time>2016-02-21T10:04:04Z</time>
      </trkpt>
      <trkpt lat="43.59012" lon="2.86348">
        <ele>750.45</ele>
        <time>2016-02-21T10:04:05Z</time>
      </trkpt>
      <trkpt lat="43.59028" lon="2.86334">
        <ele>751.89</ele>
        <time>2016-02-21T10:04:06Z</time>
      </trkpt>
      <trkpt lat="43.59041" lon="2.8631">
        <ele>755.25</ele>
        <time>2016-02-21T10:04:07Z</time>
      </trkpt>
      <trkpt lat="43.59055" lon="2.86283">
        <ele>757.66</ele>
        <time>2016-02-21T10:04:08Z</time>
      </trkpt>
      <trkpt lat="43.59068" lon="2.86255">
        <ele>760.06</ele>
        <time>2016-02-21T10:04:09Z</time>
      </trkpt>
      <trkpt lat="43.59081" lon="2.86224">
        <ele>762.94</ele>
        <time>2016-02-21T10:04:10Z</time>
      </trkpt>
      <trkpt lat="43.59092" lon="2.86192">
        <ele>766.31</ele>
        <time>2016-02-21T10:04:11Z</time>
      </trkpt>
      <trkpt lat="43.59103" lon="2.86162">
        <ele>769.19</ele>
        <time>2016-02-21T10:04:12Z</time>
      </trkpt>
      <trkpt lat="43.59194" lon="2.85998">
        <ele>785.53</ele>
        <time>2016-02-21T10:04:18Z</time>
      </trkpt>
      <trkpt lat="43.59299" lon="2.8587">
        <ele>800.92</ele>
        <time>2016-02-21T10:04:24Z</time>
      </trkpt>
      <trkpt lat="43.59314" lon="2.8585">
        <ele>802.84</ele>
        <time>2016-02-21T10:04:25Z</time>
      </trkpt>
      <trkpt lat="43.59354" lon="2.85775">
        <ele>811.49</ele>
        <time>2016-02-21T10:04:29Z</time>
      </trkpt>
      <trkpt lat="43.59353" lon="2.85759">
        <ele>813.89</ele>
        <time>2016-02-21T10:04:30Z</time>
      </trkpt>
      <trkpt lat="43.59348" lon="2.85743">
        <ele>815.82</ele>
        <time>2016-02-21T10:04:31Z</time>
      </trkpt>
      <trkpt lat="43.59338" lon="2.85727">
        <ele>817.26</ele>
        <time>2016-02-21T10:04:32Z</time>
      </trkpt>
      <trkpt lat="43.59329" lon="2.85711">
        <ele>817.74</ele>
        <time>2016-02-21T10:04:33Z</time>
      </trkpt>
      <trkpt lat="43.59323" lon="2.85694">
        <ele>819.18</ele>
        <time>2016-02-21T10:04:34Z</time>
      </trkpt>
      <trkpt lat="43.59321" lon="2.85672">
        <ele>820.14</ele>
        <time>2016-02-21T10:04:35Z</time>
      </trkpt>
      <trkpt lat="43.59317" lon="2.85623">
        <ele>822.55</ele>
        <time>2016-02-21T10:04:37Z</time>
      </trkpt>
      <trkpt lat="43.59311" lon="2.85565">
        <ele>825.91</ele>
        <time>2016-02-21T10:04:39Z</time>
      </trkpt>
      <trkpt lat="43.59312" lon="2.85534">
        <ele>827.35</ele>
        <time>2016-02-21T10:04:40Z</time>
      </trkpt>
      <trkpt lat="43.59314" lon="2.85505">
        <ele>829.27</ele>
        <time>2016-02-21T10:04:41Z</time>
      </trkpt>
      <trkpt lat="43.59319" lon="2.8548">
        <ele>831.2</ele>
        <time>2016-02-21T10:04:42Z</time>
      </trkpt>
      <trkpt lat="43.59326" lon="2.8546">
        <ele>833.6</ele>
        <time>2016-02-21T10:04:43Z</time>
      </trkpt>
      <trkpt lat="43.59334" lon="2.85442">
        <ele>835.52</ele>
        <time>2016-02-21T10:04:44Z</time>
      </trkpt>
      <trkpt lat="43.59344" lon="2.85427">
        <ele>837.45</ele>
        <time>2016-02-21T10:04:45Z</time>
      </trkpt>
      <trkpt lat="43.59352" lon="2.85414">
        <ele>837.93</ele>
        <time>2016-02-21T10:04:46Z</time>
      </trkpt>
      <trkpt lat="43.59352" lon="2.85397">
        <ele>837.93</ele>
        <time>2016-02-21T10:04:47Z</time>
      </trkpt>
      <trkpt lat="43.59345" lon="2.85378">
        <ele>838.89</ele>
        <time>2016-02-21T10:04:48Z</time>
      </trkpt>
      <trkpt lat="43.59333" lon="2.85358">
        <ele>840.33</ele>
        <time>2016-02-21T10:04:49Z</time>
      </trkpt>
      <trkpt lat="43.59317" lon="2.85335">
        <ele>842.25</ele>
        <time>2016-02-21T10:04:50Z</time>
      </trkpt>
      <trkpt lat="43.59298" lon="2.85312">
        <ele>843.69</ele>
        <time>2016-02-21T10:04:51Z</time>
      </trkpt>
      <trkpt lat="43.59263" lon="2.85278">
        <ele>847.06</ele>
        <time>2016-02-21T10:04:53Z</time>
      </trkpt>
      <trkpt lat="43.59248" lon="2.85267">
        <ele>848.5</ele>
        <time>2016-02-21T10:04:54Z</time>
      </trkpt>
      <trkpt lat="43.59234" lon="2.85261">
        <ele>849.94</ele>
        <time>2016-02-21T10:04:55Z</time>
      </trkpt>
      <trkpt lat="43.59223" lon="2.85255">
        <ele>850.42</ele>
        <time>2016-02-21T10:04:56Z</time>
      </trkpt>
      <trkpt lat="43.59215" lon="2.85249">
        <ele>851.38</ele>
        <time>2016-02-21T10:04:57Z</time>
      </trkpt>
      <trkpt lat="43.59211" lon="2.85239">
        <ele>852.83</ele>
        <time>2016-02-21T10:04:58Z</time>
      </trkpt>
      <trkpt lat="43.59215" lon="2.85223">
        <ele>852.83</ele>
        <time>2016-02-21T10:04:59Z</time>
      </trkpt>
      <trkpt lat="43.59221" lon="2.85205">
        <ele>854.27</ele>
        <time>2016-02-21T10:05:00Z</time>
      </trkpt>
      <trkpt lat="43.59229" lon="2.85187">
        <ele>855.23</ele>
        <time>2016-02-21T10:05:01Z</time>
      </trkpt>
      <trkpt lat="43.59238" lon="2.8517">
        <ele>856.67</ele>
        <time>2016-02-21T10:05:02Z</time>
      </trkpt>
      <trkpt lat="43.59248" lon="2.85157">
        <ele>857.63</ele>
        <time>2016-02-21T10:05:03Z</time>
      </trkpt>
      <trkpt lat="43.59259" lon="2.85149">
        <ele>859.56</ele>
        <time>2016-02-21T10:05:04Z</time>
      </trkpt>
      <trkpt lat="43.59273" lon="2.85148">
        <ele>861.48</ele>
        <time>2016-02-21T10:05:05Z</time>
      </trkpt>
      <trkpt lat="43.59288" lon="2.85154">
        <ele>862.44</ele>
        <time>2016-02-21T10:05:06Z</time>
      </trkpt>
      <trkpt lat="43.59303" lon="2.85155">
        <ele>863.88</ele>
        <time>2016-02-21T10:05:07Z</time>
      </trkpt>
      <trkpt lat="43.59322" lon="2.85153">
        <ele>865.32</ele>
        <time>2016-02-21T10:05:08Z</time>
      </trkpt>
      <trkpt lat="43.59364" lon="2.85143">
        <ele>870.61</ele>
        <time>2016-02-21T10:05:10Z</time>
      </trkpt>
      <trkpt lat="43.59477" lon="2.85109">
        <ele>879.26</ele>
        <time>2016-02-21T10:05:15Z</time>
      </trkpt>
      <trkpt lat="43.5953" lon="2.85109">
        <ele>884.07</ele>
        <time>2016-02-21T10:05:18Z</time>
      </trkpt>
      <trkpt lat="43.59545" lon="2.85101">
        <ele>884.55</ele>
        <time>2016-02-21T10:05:19Z</time>
      </trkpt>
      <trkpt lat="43.5956" lon="2.85087">
        <ele>885.99</ele>
        <time>2016-02-21T10:05:20Z</time>
      </trkpt>
      <trkpt lat="43.59576" lon="2.85073">
        <ele>887.43</ele>
        <time>2016-02-21T10:05:21Z</time>
      </trkpt>
      <trkpt lat="43.5959" lon="2.85055">
        <ele>888.88</ele>
        <time>2016-02-21T10:05:22Z</time>
      </trkpt>
      <trkpt lat="43.596" lon="2.85027">
        <ele>891.76</ele>
        <time>2016-02-21T10:05:23Z</time>
      </trkpt>
      <trkpt lat="43.59606" lon="2.84999">
        <ele>893.2</ele>
        <time>2016-02-21T10:05:24Z</time>
      </trkpt>
      <trkpt lat="43.59611" lon="2.84969">
        <ele>894.16</ele>
        <time>2016-02-21T10:05:25Z</time>
      </trkpt>
      <trkpt lat="43.59615" lon="2.84939">
        <ele>896.09</ele>
        <time>2016-02-21T10:05:26Z</time>
      </trkpt>
      <trkpt lat="43.59616" lon="2.84911">
        <ele>897.53</ele>
        <time>2016-02-21T10:05:27Z</time>
      </trkpt>
      <trkpt lat="43.59615" lon="2.84886">
        <ele>899.45</ele>
        <time>2016-02-21T10:05:28Z</time>
      </trkpt>
      <trkpt lat="43.59613" lon="2.84864">
        <ele>900.89</ele>
        <time>2016-02-21T10:05:29Z</time>
      </trkpt>
      <trkpt lat="43.59613" lon="2.84843">
        <ele>902.82</ele>
        <time>2016-02-21T10:05:30Z</time>
      </trkpt>
      <trkpt lat="43.59619" lon="2.84823">
        <ele>903.78</ele>
        <time>2016-02-21T10:05:31Z</time>
      </trkpt>
      <trkpt lat="43.59629" lon="2.84804">
        <ele>905.7</ele>
        <time>2016-02-21T10:05:32Z</time>
      </trkpt>
      <trkpt lat="43.59642" lon="2.84787">
        <ele>908.1</ele>
        <time>2016-02-21T10:05:33Z</time>
      </trkpt>
      <trkpt lat="43.59656" lon="2.84772">
        <ele>910.51</ele>
        <time>2016-02-21T10:05:34Z</time>
      </trkpt>
      <trkpt lat="43.5967" lon="2.84756">
        <ele>911.47</ele>
        <time>2016-02-21T10:05:35Z</time>
      </trkpt>
      <trkpt lat="43.59684" lon="2.84736">
        <ele>913.87</ele>
        <time>2016-02-21T10:05:36Z</time>
      </trkpt>
      <trkpt lat="43.59695" lon="2.84714">
        <ele>915.31</ele>
        <time>2016-02-21T10:05:37Z</time>
      </trkpt>
      <trkpt lat="43.59705" lon="2.84693">
        <ele>916.27</ele>
        <time>2016-02-21T10:05:38Z</time>
      </trkpt>
      <trkpt lat="43.59712" lon="2.84671">
        <ele>917.72</ele>
        <time>2016-02-21T10:05:39Z</time>
      </trkpt>
      <trkpt lat="43.59718" lon="2.84647">
        <ele>918.68</ele>
        <time>2016-02-21T10:05:40Z</time>
      </trkpt>
      <trkpt lat="43.59725" lon="2.84623">
        <ele>920.6</ele>
        <time>2016-02-21T10:05:41Z</time>
      </trkpt>
      <trkpt lat="43.59734" lon="2.84602">
        <ele>922.04</ele>
        <time>2016-02-21T10:05:42Z</time>
      </trkpt>
      <trkpt lat="43.59744" lon="2.84581">
        <ele>923</ele>
        <time>2016-02-21T10:05:43Z</time>
      </trkpt>
      <trkpt lat="43.59755" lon="2.84564">
        <ele>924.45</ele>
        <time>2016-02-21T10:05:44Z</time>
      </trkpt>
      <trkpt lat="43.59767" lon="2.84552">
        <ele>925.89</ele>
        <time>2016-02-21T10:05:45Z</time>
      </trkpt>
      <trkpt lat="43.5978" lon="2.84546">
        <ele>927.81</ele>
        <time>2016-02-21T10:05:46Z</time>
      </trkpt>
      <trkpt lat="43.59793" lon="2.84551">
        <ele>929.25</ele>
        <time>2016-02-21T10:05:47Z</time>
      </trkpt>
      <trkpt lat="43.59802" lon="2.84565">
        <ele>929.73</ele>
        <time>2016-02-21T10:05:48Z</time>
      </trkpt>
      <trkpt lat="43.59811" lon="2.84582">
        <ele>930.69</ele>
        <time>2016-02-21T10:05:49Z</time>
      </trkpt>
      <trkpt lat="43.5982" lon="2.84598">
        <ele>932.14</ele>
        <time>2016-02-21T10:05:50Z</time>
      </trkpt>
      <trkpt lat="43.5983" lon="2.84611">
        <ele>933.1</ele>
        <time>2016-02-21T10:05:51Z</time>
      </trkpt>
      <trkpt lat="43.5984" lon="2.8462">
        <ele>934.06</ele>
        <time>2016-02-21T10:05:52Z</time>
      </trkpt>
      <trkpt lat="43.59848" lon="2.8462">
        <ele>935.5</ele>
        <time>2016-02-21T10:05:53Z</time>
      </trkpt>
      <trkpt lat="43.59856" lon="2.84619">
        <ele>936.46</ele>
        <time>2016-02-21T10:05:54Z</time>
      </trkpt>
      <trkpt lat="43.59864" lon="2.84613">
        <ele>937.9</ele>
        <time>2016-02-21T10:05:55Z</time>
      </trkpt>
      <trkpt lat="43.59864" lon="2.84595">
        <ele>939.35</ele>
        <time>2016-02-21T10:05:56Z</time>
      </trkpt>
      <trkpt lat="43.59862" lon="2.84576">
        <ele>940.31</ele>
        <time>2016-02-21T10:05:57Z</time>
      </trkpt>
      <trkpt lat="43.5986" lon="2.84555">
        <ele>940.79</ele>
        <time>2016-02-21T10:05:58Z</time>
      </trkpt>
      <trkpt lat="43.59862" lon="2.84532">
        <ele>941.75</ele>
        <time>2016-02-21T10:05:59Z</time>
      </trkpt>
      <trkpt lat="43.59864" lon="2.84509">
        <ele>943.19</ele>
        <time>2016-02-21T10:06:00Z</time>
      </trkpt>
      <trkpt lat="43.59866" lon="2.84486">
        <ele>944.63</ele>
        <time>2016-02-21T10:06:01Z</time>
      </trkpt>
      <trkpt lat="43.59867" lon="2.84463">
        <ele>945.59</ele>
        <time>2016-02-21T10:06:02Z</time>
      </trkpt>
      <trkpt lat="43.59864" lon="2.84441">
        <ele>946.56</ele>
        <time>2016-02-21T10:06:03Z</time>
      </trkpt>
      <trkpt lat="43.59858" lon="2.84418">
        <ele>947.52</ele>
        <time>2016-02-21T10:06:04Z</time>
      </trkpt>
      <trkpt lat="43.59848" lon="2.84399">
        <ele>947.52</ele>
        <time>2016-02-21T10:06:05Z</time>
      </trkpt>
      <trkpt lat="43.59836" lon="2.8438">
        <ele>948.96</ele>
        <time>2016-02-21T10:06:06Z</time>
      </trkpt>
      <trkpt lat="43.59827" lon="2.84362">
        <ele>949.92</ele>
        <time>2016-02-21T10:06:07Z</time>
      </trkpt>
      <trkpt lat="43.59821" lon="2.84344">
        <ele>951.36</ele>
        <time>2016-02-21T10:06:08Z</time>
      </trkpt>
      <trkpt lat="43.5982" lon="2.84324">
        <ele>952.8</ele>
        <time>2016-02-21T10:06:09Z</time>
      </trkpt>
      <trkpt lat="43.59822" lon="2.843">
        <ele>954.25</ele>
        <time>2016-02-21T10:06:10Z</time>
      </trkpt>
      <trkpt lat="43.59827" lon="2.84275">
        <ele>955.69</ele>
        <time>2016-02-21T10:06:11Z</time>
      </trkpt>
      <trkpt lat="43.59833" lon="2.84248">
        <ele>957.61</ele>
        <time>2016-02-21T10:06:12Z</time>
      </trkpt>
      <trkpt lat="43.59865" lon="2.84064">
        <ele>972.99</ele>
        <time>2016-02-21T10:06:20Z</time>
      </trkpt>
      <trkpt lat="43.59882" lon="2.83984">
        <ele>976.36</ele>
        <time>2016-02-21T10:06:25Z</time>
      </trkpt>
      <trkpt lat="43.59888" lon="2.83975">
        <ele>974.91</ele>
        <time>2016-02-21T10:06:26Z</time>
      </trkpt>
      <trkpt lat="43.59894" lon="2.83967">
        <ele>974.43</ele>
        <time>2016-02-21T10:06:27Z</time>
      </trkpt>
      <trkpt lat="43.59902" lon="2.83961">
        <ele>973.47</ele>
        <time>2016-02-21T10:06:28Z</time>
      </trkpt>
      <trkpt lat="43.59908" lon="2.83956">
        <ele>972.99</ele>
        <time>2016-02-21T10:06:29Z</time>
      </trkpt>
      <trkpt lat="43.59914" lon="2.83953">
        <ele>972.51</ele>
        <time>2016-02-21T10:06:30Z</time>
      </trkpt>
      <trkpt lat="43.59925" lon="2.83947">
        <ele>972.99</ele>
        <time>2016-02-21T10:06:37Z</time>
      </trkpt>
      <trkpt lat="43.59931" lon="2.83942">
        <ele>975.88</ele>
        <time>2016-02-21T10:07:12Z</time>
      </trkpt>
      <trkpt lat="43.59978" lon="2.83909">
        <ele>972.03</ele>
        <time>2016-02-21T10:07:18Z</time>
      </trkpt>
      <trkpt lat="43.60107" lon="2.83824">
        <ele>967.22</ele>
        <time>2016-02-21T10:07:30Z</time>
      </trkpt>
      <trkpt lat="43.60167" lon="2.8374">
        <ele>961.46</ele>
        <time>2016-02-21T10:07:36Z</time>
      </trkpt>
      <trkpt lat="43.60176" lon="2.83718">
        <ele>960.98</ele>
        <time>2016-02-21T10:07:37Z</time>
      </trkpt>
      <trkpt lat="43.60183" lon="2.83694">
        <ele>959.53</ele>
        <time>2016-02-21T10:07:38Z</time>
      </trkpt>
      <trkpt lat="43.60227" lon="2.83577">
        <ele>954.25</ele>
        <time>2016-02-21T10:07:43Z</time>
      </trkpt>
      <trkpt lat="43.60241" lon="2.83556">
        <ele>953.28</ele>
        <time>2016-02-21T10:07:44Z</time>
      </trkpt>
      <trkpt lat="43.60256" lon="2.83535">
        <ele>952.32</ele>
        <time>2016-02-21T10:07:45Z</time>
      </trkpt>
      <trkpt lat="43.60348" lon="2.83369">
        <ele>946.07</ele>
        <time>2016-02-21T10:07:52Z</time>
      </trkpt>
      <trkpt lat="43.60356" lon="2.83338">
        <ele>944.63</ele>
        <time>2016-02-21T10:07:53Z</time>
      </trkpt>
      <trkpt lat="43.60397" lon="2.83132">
        <ele>935.5</ele>
        <time>2016-02-21T10:08:00Z</time>
      </trkpt>
      <trkpt lat="43.60427" lon="2.83043">
        <ele>931.17</ele>
        <time>2016-02-21T10:08:04Z</time>
      </trkpt>
      <trkpt lat="43.60425" lon="2.83019">
        <ele>929.25</ele>
        <time>2016-02-21T10:08:05Z</time>
      </trkpt>
      <trkpt lat="43.6042" lon="2.82996">
        <ele>928.29</ele>
        <time>2016-02-21T10:08:06Z</time>
      </trkpt>
      <trkpt lat="43.60403" lon="2.82884">
        <ele>922.04</ele>
        <time>2016-02-21T10:08:10Z</time>
      </trkpt>
      <trkpt lat="43.60405" lon="2.82853">
        <ele>921.08</ele>
        <time>2016-02-21T10:08:11Z</time>
      </trkpt>
      <trkpt lat="43.60412" lon="2.82822">
        <ele>920.12</ele>
        <time>2016-02-21T10:08:12Z</time>
      </trkpt>
      <trkpt lat="43.60423" lon="2.82791">
        <ele>918.68</ele>
        <time>2016-02-21T10:08:13Z</time>
      </trkpt>
      <trkpt lat="43.60436" lon="2.8276">
        <ele>917.72</ele>
        <time>2016-02-21T10:08:14Z</time>
      </trkpt>
      <trkpt lat="43.60452" lon="2.82732">
        <ele>916.75</ele>
        <time>2016-02-21T10:08:15Z</time>
      </trkpt>
      <trkpt lat="43.60469" lon="2.82705">
        <ele>914.83</ele>
        <time>2016-02-21T10:08:16Z</time>
      </trkpt>
      <trkpt lat="43.60512" lon="2.82626">
        <ele>910.99</ele>
        <time>2016-02-21T10:08:19Z</time>
      </trkpt>
      <trkpt lat="43.60521" lon="2.82599">
        <ele>909.54</ele>
        <time>2016-02-21T10:08:20Z</time>
      </trkpt>
      <trkpt lat="43.60527" lon="2.82569">
        <ele>908.1</ele>
        <time>2016-02-21T10:08:21Z</time>
      </trkpt>
      <trkpt lat="43.60531" lon="2.82538">
        <ele>906.66</ele>
        <time>2016-02-21T10:08:22Z</time>
      </trkpt>
      <trkpt lat="43.60533" lon="2.82506">
        <ele>905.22</ele>
        <time>2016-02-21T10:08:23Z</time>
      </trkpt>
      <trkpt lat="43.60535" lon="2.82475">
        <ele>904.26</ele>
        <time>2016-02-21T10:08:24Z</time>
      </trkpt>
      <trkpt lat="43.60526" lon="2.82379">
        <ele>899.45</ele>
        <time>2016-02-21T10:08:28Z</time>
      </trkpt>
      <trkpt lat="43.60517" lon="2.82356">
        <ele>897.53</ele>
        <time>2016-02-21T10:08:29Z</time>
      </trkpt>
      <trkpt lat="43.60499" lon="2.82344">
        <ele>898.01</ele>
        <time>2016-02-21T10:08:30Z</time>
      </trkpt>
      <trkpt lat="43.60483" lon="2.82336">
        <ele>895.61</ele>
        <time>2016-02-21T10:08:31Z</time>
      </trkpt>
      <trkpt lat="43.60463" lon="2.82336">
        <ele>893.68</ele>
        <time>2016-02-21T10:08:32Z</time>
      </trkpt>
      <trkpt lat="43.60445" lon="2.82333">
        <ele>893.2</ele>
        <time>2016-02-21T10:08:33Z</time>
      </trkpt>
      <trkpt lat="43.60431" lon="2.82326">
        <ele>892.24</ele>
        <time>2016-02-21T10:08:34Z</time>
      </trkpt>
      <trkpt lat="43.60419" lon="2.82315">
        <ele>891.28</ele>
        <time>2016-02-21T10:08:35Z</time>
      </trkpt>
      <trkpt lat="43.60412" lon="2.82299">
        <ele>889.84</ele>
        <time>2016-02-21T10:08:36Z</time>
      </trkpt>
      <trkpt lat="43.60411" lon="2.82278">
        <ele>888.4</ele>
        <time>2016-02-21T10:08:37Z</time>
      </trkpt>
      <trkpt lat="43.60416" lon="2.82253">
        <ele>886.47</ele>
        <time>2016-02-21T10:08:38Z</time>
      </trkpt>
      <trkpt lat="43.60424" lon="2.82227">
        <ele>884.55</ele>
        <time>2016-02-21T10:08:39Z</time>
      </trkpt>
      <trkpt lat="43.60432" lon="2.82202">
        <ele>884.55</ele>
        <time>2016-02-21T10:08:40Z</time>
      </trkpt>
      <trkpt lat="43.6044" lon="2.82171">
        <ele>883.59</ele>
        <time>2016-02-21T10:08:41Z</time>
      </trkpt>
      <trkpt lat="43.60476" lon="2.82034">
        <ele>876.86</ele>
        <time>2016-02-21T10:08:46Z</time>
      </trkpt>
      <trkpt lat="43.60492" lon="2.82022">
        <ele>877.34</ele>
        <time>2016-02-21T10:08:47Z</time>
      </trkpt>
      <trkpt lat="43.60514" lon="2.82024">
        <ele>878.3</ele>
        <time>2016-02-21T10:08:48Z</time>
      </trkpt>
      <trkpt lat="43.60533" lon="2.82025">
        <ele>877.34</ele>
        <time>2016-02-21T10:08:49Z</time>
      </trkpt>
      <trkpt lat="43.60551" lon="2.82026">
        <ele>876.86</ele>
        <time>2016-02-21T10:08:50Z</time>
      </trkpt>
      <trkpt lat="43.60578" lon="2.8202">
        <ele>876.38</ele>
        <time>2016-02-21T10:08:52Z</time>
      </trkpt>
      <trkpt lat="43.60586" lon="2.82009">
        <ele>875.9</ele>
        <time>2016-02-21T10:08:53Z</time>
      </trkpt>
      <trkpt lat="43.6059" lon="2.81993">
        <ele>874.94</ele>
        <time>2016-02-21T10:08:54Z</time>
      </trkpt>
      <trkpt lat="43.60587" lon="2.81973">
        <ele>873.5</ele>
        <time>2016-02-21T10:08:55Z</time>
      </trkpt>
      <trkpt lat="43.60582" lon="2.81951">
        <ele>872.53</ele>
        <time>2016-02-21T10:08:56Z</time>
      </trkpt>
      <trkpt lat="43.60578" lon="2.81929">
        <ele>872.05</ele>
        <time>2016-02-21T10:08:57Z</time>
      </trkpt>
      <trkpt lat="43.60577" lon="2.81903">
        <ele>870.61</ele>
        <time>2016-02-21T10:08:58Z</time>
      </trkpt>
      <trkpt lat="43.60582" lon="2.81878">
        <ele>868.69</ele>
        <time>2016-02-21T10:08:59Z</time>
      </trkpt>
      <trkpt lat="43.60589" lon="2.81854">
        <ele>868.21</ele>
        <time>2016-02-21T10:09:00Z</time>
      </trkpt>
      <trkpt lat="43.60595" lon="2.81828">
        <ele>867.25</ele>
        <time>2016-02-21T10:09:01Z</time>
      </trkpt>
      <trkpt lat="43.60597" lon="2.818">
        <ele>866.29</ele>
        <time>2016-02-21T10:09:02Z</time>
      </trkpt>
      <trkpt lat="43.60594" lon="2.81771">
        <ele>864.84</ele>
        <time>2016-02-21T10:09:03Z</time>
      </trkpt>
      <trkpt lat="43.60591" lon="2.81742">
        <ele>863.4</ele>
        <time>2016-02-21T10:09:04Z</time>
      </trkpt>
      <trkpt lat="43.60591" lon="2.81711">
        <ele>861.48</ele>
        <time>2016-02-21T10:09:05Z</time>
      </trkpt>
      <trkpt lat="43.60595" lon="2.81682">
        <ele>859.08</ele>
        <time>2016-02-21T10:09:06Z</time>
      </trkpt>
      <trkpt lat="43.60604" lon="2.81655">
        <ele>858.59</ele>
        <time>2016-02-21T10:09:07Z</time>
      </trkpt>
      <trkpt lat="43.60615" lon="2.81632">
        <ele>857.63</ele>
        <time>2016-02-21T10:09:08Z</time>
      </trkpt>
      <trkpt lat="43.60628" lon="2.81613">
        <ele>856.67</ele>
        <time>2016-02-21T10:09:09Z</time>
      </trkpt>
      <trkpt lat="43.60641" lon="2.81595">
        <ele>856.19</ele>
        <time>2016-02-21T10:09:10Z</time>
      </trkpt>
      <trkpt lat="43.60651" lon="2.81576">
        <ele>855.23</ele>
        <time>2016-02-21T10:09:11Z</time>
      </trkpt>
      <trkpt lat="43.60657" lon="2.81557">
        <ele>853.79</ele>
        <time>2016-02-21T10:09:12Z</time>
      </trkpt>
      <trkpt lat="43.60658" lon="2.81537">
        <ele>852.83</ele>
        <time>2016-02-21T10:09:13Z</time>
      </trkpt>
      <trkpt lat="43.60654" lon="2.81516">
        <ele>851.38</ele>
        <time>2016-02-21T10:09:14Z</time>
      </trkpt>
      <trkpt lat="43.60649" lon="2.81494">
        <ele>850.9</ele>
        <time>2016-02-21T10:09:15Z</time>
      </trkpt>
      <trkpt lat="43.60643" lon="2.81473">
        <ele>848.5</ele>
        <time>2016-02-21T10:09:16Z</time>
      </trkpt>
      <trkpt lat="43.60636" lon="2.81453">
        <ele>847.06</ele>
        <time>2016-02-21T10:09:17Z</time>
      </trkpt>
      <trkpt lat="43.60624" lon="2.81437">
        <ele>845.62</ele>
        <time>2016-02-21T10:09:18Z</time>
      </trkpt>
      <trkpt lat="43.60612" lon="2.81427">
        <ele>843.21</ele>
        <time>2016-02-21T10:09:19Z</time>
      </trkpt>
      <trkpt lat="43.60596" lon="2.81424">
        <ele>841.77</ele>
        <time>2016-02-21T10:09:20Z</time>
      </trkpt>
      <trkpt lat="43.60579" lon="2.81427">
        <ele>841.29</ele>
        <time>2016-02-21T10:09:21Z</time>
      </trkpt>
      <trkpt lat="43.60563" lon="2.81437">
        <ele>840.81</ele>
        <time>2016-02-21T10:09:22Z</time>
      </trkpt>
      <trkpt lat="43.60547" lon="2.81447">
        <ele>839.85</ele>
        <time>2016-02-21T10:09:23Z</time>
      </trkpt>
      <trkpt lat="43.60532" lon="2.81453">
        <ele>838.41</ele>
        <time>2016-02-21T10:09:24Z</time>
      </trkpt>
      <trkpt lat="43.60507" lon="2.81451">
        <ele>835.52</ele>
        <time>2016-02-21T10:09:26Z</time>
      </trkpt>
      <trkpt lat="43.60496" lon="2.81439">
        <ele>835.04</ele>
        <time>2016-02-21T10:09:27Z</time>
      </trkpt>
      <trkpt lat="43.60494" lon="2.81419">
        <ele>834.08</ele>
        <time>2016-02-21T10:09:28Z</time>
      </trkpt>
      <trkpt lat="43.60491" lon="2.81398">
        <ele>834.08</ele>
        <time>2016-02-21T10:09:29Z</time>
      </trkpt>
      <trkpt lat="43.60489" lon="2.81369">
        <ele>834.08</ele>
        <time>2016-02-21T10:09:30Z</time>
      </trkpt>
      <trkpt lat="43.60489" lon="2.81337">
        <ele>832.16</ele>
        <time>2016-02-21T10:09:31Z</time>
      </trkpt>
      <trkpt lat="43.60489" lon="2.81307">
        <ele>830.24</ele>
        <time>2016-02-21T10:09:32Z</time>
      </trkpt>
      <trkpt lat="43.6049" lon="2.81279">
        <ele>828.79</ele>
        <time>2016-02-21T10:09:33Z</time>
      </trkpt>
      <trkpt lat="43.60495" lon="2.81254">
        <ele>828.31</ele>
        <time>2016-02-21T10:09:34Z</time>
      </trkpt>
      <trkpt lat="43.60503" lon="2.81233">
        <ele>826.87</ele>
        <time>2016-02-21T10:09:35Z</time>
      </trkpt>
      <trkpt lat="43.60516" lon="2.81221">
        <ele>823.99</ele>
        <time>2016-02-21T10:09:36Z</time>
      </trkpt>
      <trkpt lat="43.60588" lon="2.81172">
        <ele>818.7</ele>
        <time>2016-02-21T10:09:43Z</time>
      </trkpt>
      <trkpt lat="43.60587" lon="2.81151">
        <ele>817.26</ele>
        <time>2016-02-21T10:09:44Z</time>
      </trkpt>
      <trkpt lat="43.60584" lon="2.81122">
        <ele>817.26</ele>
        <time>2016-02-21T10:09:45Z</time>
      </trkpt>
      <trkpt lat="43.60594" lon="2.81031">
        <ele>814.37</ele>
        <time>2016-02-21T10:09:48Z</time>
      </trkpt>
      <trkpt lat="43.60597" lon="2.81">
        <ele>813.41</ele>
        <time>2016-02-21T10:09:49Z</time>
      </trkpt>
      <trkpt lat="43.60597" lon="2.80971">
        <ele>812.93</ele>
        <time>2016-02-21T10:09:50Z</time>
      </trkpt>
      <trkpt lat="43.60595" lon="2.80943">
        <ele>811.49</ele>
        <time>2016-02-21T10:09:51Z</time>
      </trkpt>
      <trkpt lat="43.60593" lon="2.80915">
        <ele>810.53</ele>
        <time>2016-02-21T10:09:52Z</time>
      </trkpt>
      <trkpt lat="43.60593" lon="2.80888">
        <ele>809.57</ele>
        <time>2016-02-21T10:09:53Z</time>
      </trkpt>
      <trkpt lat="43.60595" lon="2.80862">
        <ele>808.13</ele>
        <time>2016-02-21T10:09:54Z</time>
      </trkpt>
      <trkpt lat="43.60597" lon="2.80836">
        <ele>807.16</ele>
        <time>2016-02-21T10:09:55Z</time>
      </trkpt>
      <trkpt lat="43.60602" lon="2.80809">
        <ele>806.2</ele>
        <time>2016-02-21T10:09:56Z</time>
      </trkpt>
      <trkpt lat="43.60607" lon="2.8078">
        <ele>804.76</ele>
        <time>2016-02-21T10:09:57Z</time>
      </trkpt>
      <trkpt lat="43.60643" lon="2.80625">
        <ele>799.95</ele>
        <time>2016-02-21T10:10:03Z</time>
      </trkpt>
      <trkpt lat="43.60642" lon="2.806">
        <ele>798.99</ele>
        <time>2016-02-21T10:10:04Z</time>
      </trkpt>
      <trkpt lat="43.60641" lon="2.80574">
        <ele>798.03</ele>
        <time>2016-02-21T10:10:05Z</time>
      </trkpt>
      <trkpt lat="43.60627" lon="2.80381">
        <ele>792.26</ele>
        <time>2016-02-21T10:10:11Z</time>
      </trkpt>
      <trkpt lat="43.60621" lon="2.80348">
        <ele>791.3</ele>
        <time>2016-02-21T10:10:12Z</time>
      </trkpt>
      <trkpt lat="43.60591" lon="2.80163">
        <ele>785.05</ele>
        <time>2016-02-21T10:10:18Z</time>
      </trkpt>
      <trkpt lat="43.60579" lon="2.80029">
        <ele>781.69</ele>
        <time>2016-02-21T10:10:24Z</time>
      </trkpt>
      <trkpt lat="43.60576" lon="2.80012">
        <ele>780.25</ele>
        <time>2016-02-21T10:10:26Z</time>
      </trkpt>
      <trkpt lat="43.6058" lon="2.80009">
        <ele>779.77</ele>
        <time>2016-02-21T10:10:27Z</time>
      </trkpt>
      <trkpt lat="43.60585" lon="2.80005">
        <ele>780.25</ele>
        <time>2016-02-21T10:10:28Z</time>
      </trkpt>
      <trkpt lat="43.60592" lon="2.79999">
        <ele>779.77</ele>
        <time>2016-02-21T10:10:29Z</time>
      </trkpt>
      <trkpt lat="43.606" lon="2.79991">
        <ele>779.29</ele>
        <time>2016-02-21T10:10:30Z</time>
      </trkpt>
      <trkpt lat="43.60606" lon="2.79981">
        <ele>778.32</ele>
        <time>2016-02-21T10:10:31Z</time>
      </trkpt>
      <trkpt lat="43.60613" lon="2.7997">
        <ele>777.84</ele>
        <time>2016-02-21T10:10:32Z</time>
      </trkpt>
      <trkpt lat="43.60618" lon="2.79959">
        <ele>777.36</ele>
        <time>2016-02-21T10:10:33Z</time>
      </trkpt>
      <trkpt lat="43.60623" lon="2.79947">
        <ele>777.36</ele>
        <time>2016-02-21T10:10:34Z</time>
      </trkpt>
      <trkpt lat="43.60641" lon="2.79894">
        <ele>774.48</ele>
        <time>2016-02-21T10:10:39Z</time>
      </trkpt>
      <trkpt lat="43.60642" lon="2.79884">
        <ele>774.96</ele>
        <time>2016-02-21T10:10:40Z</time>
      </trkpt>
      <trkpt lat="43.6064" lon="2.79873">
        <ele>774.96</ele>
        <time>2016-02-21T10:10:41Z</time>
      </trkpt>
      <trkpt lat="43.60635" lon="2.79862">
        <ele>774.96</ele>
        <time>2016-02-21T10:10:42Z</time>
      </trkpt>
      <trkpt lat="43.60631" lon="2.7985">
        <ele>774.96</ele>
        <time>2016-02-21T10:10:43Z</time>
      </trkpt>
      <trkpt lat="43.60577" lon="2.79754">
        <ele>772.56</ele>
        <time>2016-02-21T10:10:53Z</time>
      </trkpt>
      <trkpt lat="43.60573" lon="2.79742">
        <ele>772.08</ele>
        <time>2016-02-21T10:10:54Z</time>
      </trkpt>
      <trkpt lat="43.6057" lon="2.79728">
        <ele>772.56</ele>
        <time>2016-02-21T10:10:55Z</time>
      </trkpt>
      <trkpt lat="43.60567" lon="2.79712">
        <ele>772.56</ele>
        <time>2016-02-21T10:10:56Z</time>
      </trkpt>
      <trkpt lat="43.60565" lon="2.79695">
        <ele>772.08</ele>
        <time>2016-02-21T10:10:57Z</time>
      </trkpt>
      <trkpt lat="43.60534" lon="2.79497">
        <ele>771.6</ele>
        <time>2016-02-21T10:11:06Z</time>
      </trkpt>
      <trkpt lat="43.60497" lon="2.79316">
        <ele>770.15</ele>
        <time>2016-02-21T10:11:14Z</time>
      </trkpt>
      <trkpt lat="43.60489" lon="2.793">
        <ele>768.71</ele>
        <time>2016-02-21T10:11:15Z</time>
      </trkpt>
      <trkpt lat="43.60472" lon="2.79266">
        <ele>768.71</ele>
        <time>2016-02-21T10:11:17Z</time>
      </trkpt>
      <trkpt lat="43.60457" lon="2.79239">
        <ele>768.23</ele>
        <time>2016-02-21T10:11:19Z</time>
      </trkpt>
      <trkpt lat="43.6045" lon="2.79236">
        <ele>768.23</ele>
        <time>2016-02-21T10:11:20Z</time>
      </trkpt>
      <trkpt lat="43.60447" lon="2.79231">
        <ele>768.23</ele>
        <time>2016-02-21T10:11:21Z</time>
      </trkpt>
      <trkpt lat="43.60445" lon="2.79227">
        <ele>767.75</ele>
        <time>2016-02-21T10:11:22Z</time>
      </trkpt>
      <trkpt lat="43.60445" lon="2.79224">
        <ele>768.71</ele>
        <time>2016-02-21T10:11:23Z</time>
      </trkpt>
      <trkpt lat="43.60445" lon="2.79222">
        <ele>769.19</ele>
        <time>2016-02-21T10:11:24Z</time>
      </trkpt>
      <trkpt lat="43.60445" lon="2.79225">
        <ele>767.75</ele>
        <time>2016-02-21T10:11:35Z</time>
      </trkpt>
      <trkpt lat="43.60446" lon="2.7923">
        <ele>767.27</ele>
        <time>2016-02-21T10:12:32Z</time>
      </trkpt>
      <trkpt lat="43.60448" lon="2.79227">
        <ele>770.15</ele>
        <time>2016-02-21T10:18:01Z</time>
      </trkpt>
      <trkpt lat="43.60447" lon="2.79226">
        <ele>770.15</ele>
        <time>2016-02-21T10:18:06Z</time>
      </trkpt>
      <trkpt lat="43.60439" lon="2.79225">
        <ele>770.15</ele>
        <time>2016-02-21T10:18:09Z</time>
      </trkpt>
      <trkpt lat="43.60433" lon="2.79221">
        <ele>770.15</ele>
        <time>2016-02-21T10:18:10Z</time>
      </trkpt>
      <trkpt lat="43.60425" lon="2.79215">
        <ele>770.15</ele>
        <time>2016-02-21T10:18:11Z</time>
      </trkpt>
      <trkpt lat="43.60393" lon="2.79194">
        <ele>770.15</ele>
        <time>2016-02-21T10:18:14Z</time>
      </trkpt>
      <trkpt lat="43.60342" lon="2.79171">
        <ele>769.19</ele>
        <time>2016-02-21T10:18:18Z</time>
      </trkpt>
      <trkpt lat="43.6033" lon="2.79162">
        <ele>769.19</ele>
        <time>2016-02-21T10:18:19Z</time>
      </trkpt>
      <trkpt lat="43.60319" lon="2.79144">
        <ele>768.71</ele>
        <time>2016-02-21T10:18:20Z</time>
      </trkpt>
      <trkpt lat="43.6031" lon="2.79127">
        <ele>768.71</ele>
        <time>2016-02-21T10:18:21Z</time>
      </trkpt>
      <trkpt lat="43.60307" lon="2.79103">
        <ele>767.75</ele>
        <time>2016-02-21T10:18:22Z</time>
      </trkpt>
      <trkpt lat="43.60306" lon="2.79076">
        <ele>767.75</ele>
        <time>2016-02-21T10:18:23Z</time>
      </trkpt>
      <trkpt lat="43.60302" lon="2.79048">
        <ele>767.27</ele>
        <time>2016-02-21T10:18:24Z</time>
      </trkpt>
      <trkpt lat="43.60261" lon="2.78826">
        <ele>764.39</ele>
        <time>2016-02-21T10:18:31Z</time>
      </trkpt>
      <trkpt lat="43.60215" lon="2.78572">
        <ele>764.39</ele>
        <time>2016-02-21T10:18:39Z</time>
      </trkpt>
      <trkpt lat="43.60206" lon="2.7855">
        <ele>764.39</ele>
        <time>2016-02-21T10:18:40Z</time>
      </trkpt>
      <trkpt lat="43.60195" lon="2.78532">
        <ele>764.87</ele>
        <time>2016-02-21T10:18:41Z</time>
      </trkpt>
      <trkpt lat="43.60182" lon="2.7852">
        <ele>764.39</ele>
        <time>2016-02-21T10:18:42Z</time>
      </trkpt>
      <trkpt lat="43.60167" lon="2.78512">
        <ele>764.39</ele>
        <time>2016-02-21T10:18:43Z</time>
      </trkpt>
      <trkpt lat="43.6015" lon="2.78509">
        <ele>763.9</ele>
        <time>2016-02-21T10:18:44Z</time>
      </trkpt>
      <trkpt lat="43.60132" lon="2.78514">
        <ele>763.9</ele>
        <time>2016-02-21T10:18:45Z</time>
      </trkpt>
      <trkpt lat="43.60115" lon="2.78522">
        <ele>763.9</ele>
        <time>2016-02-21T10:18:46Z</time>
      </trkpt>
      <trkpt lat="43.60099" lon="2.78534">
        <ele>764.39</ele>
        <time>2016-02-21T10:18:47Z</time>
      </trkpt>
      <trkpt lat="43.60083" lon="2.78545">
        <ele>764.39</ele>
        <time>2016-02-21T10:18:48Z</time>
      </trkpt>
      <trkpt lat="43.60067" lon="2.78563">
        <ele>764.39</ele>
        <time>2016-02-21T10:18:49Z</time>
      </trkpt>
      <trkpt lat="43.60051" lon="2.78584">
        <ele>763.9</ele>
        <time>2016-02-21T10:18:50Z</time>
      </trkpt>
      <trkpt lat="43.6004" lon="2.78607">
        <ele>764.87</ele>
        <time>2016-02-21T10:18:51Z</time>
      </trkpt>
      <trkpt lat="43.60027" lon="2.78622">
        <ele>764.87</ele>
        <time>2016-02-21T10:18:52Z</time>
      </trkpt>
      <trkpt lat="43.59964" lon="2.78676">
        <ele>761.5</ele>
        <time>2016-02-21T10:18:57Z</time>
      </trkpt>
      <trkpt lat="43.59955" lon="2.7867">
        <ele>761.02</ele>
        <time>2016-02-21T10:18:58Z</time>
      </trkpt>
      <trkpt lat="43.59948" lon="2.78658">
        <ele>761.98</ele>
        <time>2016-02-21T10:18:59Z</time>
      </trkpt>
      <trkpt lat="43.59941" lon="2.78646">
        <ele>761.98</ele>
        <time>2016-02-21T10:19:00Z</time>
      </trkpt>
      <trkpt lat="43.59934" lon="2.78632">
        <ele>761.02</ele>
        <time>2016-02-21T10:19:01Z</time>
      </trkpt>
      <trkpt lat="43.59926" lon="2.78612">
        <ele>759.1</ele>
        <time>2016-02-21T10:19:02Z</time>
      </trkpt>
      <trkpt lat="43.59915" lon="2.78587">
        <ele>758.62</ele>
        <time>2016-02-21T10:19:03Z</time>
      </trkpt>
      <trkpt lat="43.59903" lon="2.78569">
        <ele>758.62</ele>
        <time>2016-02-21T10:19:04Z</time>
      </trkpt>
      <trkpt lat="43.59889" lon="2.78555">
        <ele>757.18</ele>
        <time>2016-02-21T10:19:05Z</time>
      </trkpt>
      <trkpt lat="43.59878" lon="2.78538">
        <ele>757.18</ele>
        <time>2016-02-21T10:19:06Z</time>
      </trkpt>
      <trkpt lat="43.59869" lon="2.78518">
        <ele>756.69</ele>
        <time>2016-02-21T10:19:07Z</time>
      </trkpt>
      <trkpt lat="43.59864" lon="2.78494">
        <ele>755.73</ele>
        <time>2016-02-21T10:19:08Z</time>
      </trkpt>
      <trkpt lat="43.59859" lon="2.78466">
        <ele>754.77</ele>
        <time>2016-02-21T10:19:09Z</time>
      </trkpt>
      <trkpt lat="43.59856" lon="2.78434">
        <ele>753.33</ele>
        <time>2016-02-21T10:19:10Z</time>
      </trkpt>
      <trkpt lat="43.59856" lon="2.78399">
        <ele>752.37</ele>
        <time>2016-02-21T10:19:11Z</time>
      </trkpt>
      <trkpt lat="43.59854" lon="2.78359">
        <ele>750.93</ele>
        <time>2016-02-21T10:19:12Z</time>
      </trkpt>
      <trkpt lat="43.59853" lon="2.78317">
        <ele>748.52</ele>
        <time>2016-02-21T10:19:13Z</time>
      </trkpt>
      <trkpt lat="43.59856" lon="2.78042">
        <ele>746.6</ele>
        <time>2016-02-21T10:19:19Z</time>
      </trkpt>
      <trkpt lat="43.59868" lon="2.77551">
        <ele>743.72</ele>
        <time>2016-02-21T10:19:29Z</time>
      </trkpt>
      <trkpt lat="43.59872" lon="2.77241">
        <ele>742.28</ele>
        <time>2016-02-21T10:19:36Z</time>
      </trkpt>
      <trkpt lat="43.59834" lon="2.76965">
        <ele>738.91</ele>
        <time>2016-02-21T10:19:42Z</time>
      </trkpt>
      <trkpt lat="43.59796" lon="2.76607">
        <ele>739.39</ele>
        <time>2016-02-21T10:19:49Z</time>
      </trkpt>
      <trkpt lat="43.5979" lon="2.76379">
        <ele>744.2</ele>
        <time>2016-02-21T10:19:54Z</time>
      </trkpt>
      <trkpt lat="43.59826" lon="2.7615">
        <ele>745.16</ele>
        <time>2016-02-21T10:20:00Z</time>
      </trkpt>
      <trkpt lat="43.59827" lon="2.76113">
        <ele>746.12</ele>
        <time>2016-02-21T10:20:01Z</time>
      </trkpt>
      <trkpt lat="43.59839" lon="2.75888">
        <ele>746.6</ele>
        <time>2016-02-21T10:20:07Z</time>
      </trkpt>
      <trkpt lat="43.59832" lon="2.75815">
        <ele>746.12</ele>
        <time>2016-02-21T10:20:09Z</time>
      </trkpt>
      <trkpt lat="43.59826" lon="2.7562">
        <ele>747.56</ele>
        <time>2016-02-21T10:20:14Z</time>
      </trkpt>
      <trkpt lat="43.59806" lon="2.75483">
        <ele>747.56</ele>
        <time>2016-02-21T10:20:19Z</time>
      </trkpt>
      <trkpt lat="43.59798" lon="2.75465">
        <ele>747.56</ele>
        <time>2016-02-21T10:20:20Z</time>
      </trkpt>
      <trkpt lat="43.59788" lon="2.75448">
        <ele>749.49</ele>
        <time>2016-02-21T10:20:21Z</time>
      </trkpt>
      <trkpt lat="43.59778" lon="2.75432">
        <ele>748.52</ele>
        <time>2016-02-21T10:20:22Z</time>
      </trkpt>
      <trkpt lat="43.59765" lon="2.75418">
        <ele>746.6</ele>
        <time>2016-02-21T10:20:23Z</time>
      </trkpt>
      <trkpt lat="43.59753" lon="2.75406">
        <ele>746.6</ele>
        <time>2016-02-21T10:20:24Z</time>
      </trkpt>
      <trkpt lat="43.5974" lon="2.75397">
        <ele>745.64</ele>
        <time>2016-02-21T10:20:25Z</time>
      </trkpt>
      <trkpt lat="43.59721" lon="2.75394">
        <ele>745.16</ele>
        <time>2016-02-21T10:20:26Z</time>
      </trkpt>
      <trkpt lat="43.597" lon="2.75394">
        <ele>744.2</ele>
        <time>2016-02-21T10:20:27Z</time>
      </trkpt>
      <trkpt lat="43.59674" lon="2.75394">
        <ele>744.2</ele>
        <time>2016-02-21T10:20:28Z</time>
      </trkpt>
      <trkpt lat="43.59645" lon="2.75395">
        <ele>744.2</ele>
        <time>2016-02-21T10:20:29Z</time>
      </trkpt>
      <trkpt lat="43.59618" lon="2.75395">
        <ele>742.76</ele>
        <time>2016-02-21T10:20:30Z</time>
      </trkpt>
      <trkpt lat="43.5951" lon="2.7539">
        <ele>741.79</ele>
        <time>2016-02-21T10:20:35Z</time>
      </trkpt>
      <trkpt lat="43.59483" lon="2.75375">
        <ele>741.79</ele>
        <time>2016-02-21T10:20:37Z</time>
      </trkpt>
      <trkpt lat="43.59473" lon="2.75358">
        <ele>741.31</ele>
        <time>2016-02-21T10:20:38Z</time>
      </trkpt>
      <trkpt lat="43.59466" lon="2.75331">
        <ele>741.79</ele>
        <time>2016-02-21T10:20:39Z</time>
      </trkpt>
      <trkpt lat="43.5946" lon="2.75303">
        <ele>741.31</ele>
        <time>2016-02-21T10:20:40Z</time>
      </trkpt>
      <trkpt lat="43.59457" lon="2.75273">
        <ele>741.31</ele>
        <time>2016-02-21T10:20:41Z</time>
      </trkpt>
      <trkpt lat="43.59459" lon="2.7524">
        <ele>741.31</ele>
        <time>2016-02-21T10:20:42Z</time>
      </trkpt>
      <trkpt lat="43.59461" lon="2.75208">
        <ele>741.31</ele>
        <time>2016-02-21T10:20:43Z</time>
      </trkpt>
      <trkpt lat="43.59466" lon="2.75177">
        <ele>740.83</ele>
        <time>2016-02-21T10:20:44Z</time>
      </trkpt>
      <trkpt lat="43.59473" lon="2.75149">
        <ele>740.83</ele>
        <time>2016-02-21T10:20:45Z</time>
      </trkpt>
      <trkpt lat="43.59482" lon="2.75124">
        <ele>741.31</ele>
        <time>2016-02-21T10:20:46Z</time>
      </trkpt>
      <trkpt lat="43.59491" lon="2.751">
        <ele>741.79</ele>
        <time>2016-02-21T10:20:47Z</time>
      </trkpt>
      <trkpt lat="43.59498" lon="2.75075">
        <ele>742.28</ele>
        <time>2016-02-21T10:20:48Z</time>
      </trkpt>
      <trkpt lat="43.59503" lon="2.75048">
        <ele>742.28</ele>
        <time>2016-02-21T10:20:49Z</time>
      </trkpt>
      <trkpt lat="43.59505" lon="2.75019">
        <ele>742.28</ele>
        <time>2016-02-21T10:20:50Z</time>
      </trkpt>
      <trkpt lat="43.59498" lon="2.74824">
        <ele>741.79</ele>
        <time>2016-02-21T10:20:55Z</time>
      </trkpt>
      <trkpt lat="43.5948" lon="2.74584">
        <ele>739.39</ele>
        <time>2016-02-21T10:21:01Z</time>
      </trkpt>
      <trkpt lat="43.59469" lon="2.74528">
        <ele>738.91</ele>
        <time>2016-02-21T10:21:03Z</time>
      </trkpt>
      <trkpt lat="43.5946" lon="2.74499">
        <ele>738.91</ele>
        <time>2016-02-21T10:21:04Z</time>
      </trkpt>
      <trkpt lat="43.59446" lon="2.74468">
        <ele>738.43</ele>
        <time>2016-02-21T10:21:05Z</time>
      </trkpt>
      <trkpt lat="43.59388" lon="2.74286">
        <ele>735.55</ele>
        <time>2016-02-21T10:21:10Z</time>
      </trkpt>
      <trkpt lat="43.59356" lon="2.74196">
        <ele>734.1</ele>
        <time>2016-02-21T10:21:13Z</time>
      </trkpt>
      <trkpt lat="43.5934" lon="2.74174">
        <ele>732.18</ele>
        <time>2016-02-21T10:21:14Z</time>
      </trkpt>
      <trkpt lat="43.5932" lon="2.74151">
        <ele>730.74</ele>
        <time>2016-02-21T10:21:15Z</time>
      </trkpt>
      <trkpt lat="43.59207" lon="2.74019">
        <ele>726.89</ele>
        <time>2016-02-21T10:21:21Z</time>
      </trkpt>
      <trkpt lat="43.59183" lon="2.74007">
        <ele>726.41</ele>
        <time>2016-02-21T10:21:22Z</time>
      </trkpt>
      <trkpt lat="43.59155" lon="2.73998">
        <ele>725.45</ele>
        <time>2016-02-21T10:21:23Z</time>
      </trkpt>
      <trkpt lat="43.59101" lon="2.73973">
        <ele>724.49</ele>
        <time>2016-02-21T10:21:26Z</time>
      </trkpt>
      <trkpt lat="43.59092" lon="2.73959">
        <ele>724.49</ele>
        <time>2016-02-21T10:21:27Z</time>
      </trkpt>
      <trkpt lat="43.59089" lon="2.73939">
        <ele>724.01</ele>
        <time>2016-02-21T10:21:28Z</time>
      </trkpt>
      <trkpt lat="43.59094" lon="2.73919">
        <ele>722.09</ele>
        <time>2016-02-21T10:21:29Z</time>
      </trkpt>
      <trkpt lat="43.59103" lon="2.739">
        <ele>722.09</ele>
        <time>2016-02-21T10:21:30Z</time>
      </trkpt>
      <trkpt lat="43.59114" lon="2.7388">
        <ele>722.57</ele>
        <time>2016-02-21T10:21:31Z</time>
      </trkpt>
      <trkpt lat="43.59128" lon="2.73859">
        <ele>722.57</ele>
        <time>2016-02-21T10:21:32Z</time>
      </trkpt>
      <trkpt lat="43.59143" lon="2.73838">
        <ele>723.53</ele>
        <time>2016-02-21T10:21:33Z</time>
      </trkpt>
      <trkpt lat="43.59171" lon="2.73791">
        <ele>724.01</ele>
        <time>2016-02-21T10:21:35Z</time>
      </trkpt>
      <trkpt lat="43.59181" lon="2.73766">
        <ele>724.01</ele>
        <time>2016-02-21T10:21:36Z</time>
      </trkpt>
      <trkpt lat="43.5919" lon="2.73741">
        <ele>724.01</ele>
        <time>2016-02-21T10:21:37Z</time>
      </trkpt>
      <trkpt lat="43.59196" lon="2.73716">
        <ele>724.01</ele>
        <time>2016-02-21T10:21:38Z</time>
      </trkpt>
      <trkpt lat="43.59196" lon="2.7369">
        <ele>724.01</ele>
        <time>2016-02-21T10:21:39Z</time>
      </trkpt>
      <trkpt lat="43.59193" lon="2.73664">
        <ele>723.53</ele>
        <time>2016-02-21T10:21:40Z</time>
      </trkpt>
      <trkpt lat="43.59184" lon="2.7364">
        <ele>723.53</ele>
        <time>2016-02-21T10:21:41Z</time>
      </trkpt>
      <trkpt lat="43.59171" lon="2.73618">
        <ele>724.97</ele>
        <time>2016-02-21T10:21:42Z</time>
      </trkpt>
      <trkpt lat="43.59155" lon="2.73601">
        <ele>724.49</ele>
        <time>2016-02-21T10:21:43Z</time>
      </trkpt>
      <trkpt lat="43.59136" lon="2.73583">
        <ele>724.01</ele>
        <time>2016-02-21T10:21:44Z</time>
      </trkpt>
      <trkpt lat="43.59119" lon="2.73564">
        <ele>724.01</ele>
        <time>2016-02-21T10:21:45Z</time>
      </trkpt>
      <trkpt lat="43.59104" lon="2.73543">
        <ele>724.01</ele>
        <time>2016-02-21T10:21:46Z</time>
      </trkpt>
      <trkpt lat="43.59094" lon="2.73521">
        <ele>724.49</ele>
        <time>2016-02-21T10:21:47Z</time>
      </trkpt>
      <trkpt lat="43.59089" lon="2.73498">
        <ele>724.49</ele>
        <time>2016-02-21T10:21:48Z</time>
      </trkpt>
      <trkpt lat="43.59091" lon="2.73472">
        <ele>724.49</ele>
        <time>2016-02-21T10:21:49Z</time>
      </trkpt>
      <trkpt lat="43.59099" lon="2.73444">
        <ele>723.53</ele>
        <time>2016-02-21T10:21:50Z</time>
      </trkpt>
      <trkpt lat="43.59112" lon="2.73415">
        <ele>723.05</ele>
        <time>2016-02-21T10:21:51Z</time>
      </trkpt>
      <trkpt lat="43.59129" lon="2.7339">
        <ele>723.05</ele>
        <time>2016-02-21T10:21:52Z</time>
      </trkpt>
      <trkpt lat="43.59148" lon="2.73364">
        <ele>724.01</ele>
        <time>2016-02-21T10:21:53Z</time>
      </trkpt>
      <trkpt lat="43.59169" lon="2.73342">
        <ele>724.97</ele>
        <time>2016-02-21T10:21:54Z</time>
      </trkpt>
      <trkpt lat="43.59192" lon="2.73321">
        <ele>726.41</ele>
        <time>2016-02-21T10:21:55Z</time>
      </trkpt>
      <trkpt lat="43.59214" lon="2.73298">
        <ele>726.41</ele>
        <time>2016-02-21T10:21:56Z</time>
      </trkpt>
      <trkpt lat="43.59318" lon="2.73144">
        <ele>724.01</ele>
        <time>2016-02-21T10:22:02Z</time>
      </trkpt>
      <trkpt lat="43.59326" lon="2.73119">
        <ele>723.05</ele>
        <time>2016-02-21T10:22:03Z</time>
      </trkpt>
      <trkpt lat="43.59327" lon="2.73092">
        <ele>722.57</ele>
        <time>2016-02-21T10:22:04Z</time>
      </trkpt>
      <trkpt lat="43.59324" lon="2.73063">
        <ele>721.61</ele>
        <time>2016-02-21T10:22:05Z</time>
      </trkpt>
      <trkpt lat="43.5932" lon="2.73033">
        <ele>721.61</ele>
        <time>2016-02-21T10:22:06Z</time>
      </trkpt>
      <trkpt lat="43.59314" lon="2.73002">
        <ele>721.13</ele>
        <time>2016-02-21T10:22:07Z</time>
      </trkpt>
      <trkpt lat="43.5931" lon="2.72969">
        <ele>720.65</ele>
        <time>2016-02-21T10:22:08Z</time>
      </trkpt>
      <trkpt lat="43.59309" lon="2.72936">
        <ele>720.16</ele>
        <time>2016-02-21T10:22:09Z</time>
      </trkpt>
      <trkpt lat="43.59314" lon="2.72906">
        <ele>718.72</ele>
        <time>2016-02-21T10:22:10Z</time>
      </trkpt>
      <trkpt lat="43.59324" lon="2.72878">
        <ele>717.76</ele>
        <time>2016-02-21T10:22:11Z</time>
      </trkpt>
      <trkpt lat="43.59338" lon="2.72856">
        <ele>718.24</ele>
        <time>2016-02-21T10:22:12Z</time>
      </trkpt>
      <trkpt lat="43.59354" lon="2.72835">
        <ele>718.24</ele>
        <time>2016-02-21T10:22:13Z</time>
      </trkpt>
      <trkpt lat="43.59372" lon="2.72813">
        <ele>718.24</ele>
        <time>2016-02-21T10:22:14Z</time>
      </trkpt>
      <trkpt lat="43.59394" lon="2.72793">
        <ele>718.72</ele>
        <time>2016-02-21T10:22:15Z</time>
      </trkpt>
      <trkpt lat="43.5942" lon="2.72776">
        <ele>718.72</ele>
        <time>2016-02-21T10:22:16Z</time>
      </trkpt>
      <trkpt lat="43.59446" lon="2.72762">
        <ele>717.28</ele>
        <time>2016-02-21T10:22:17Z</time>
      </trkpt>
      <trkpt lat="43.59472" lon="2.7275">
        <ele>717.76</ele>
        <time>2016-02-21T10:22:18Z</time>
      </trkpt>
      <trkpt lat="43.59498" lon="2.72741">
        <ele>717.76</ele>
        <time>2016-02-21T10:22:19Z</time>
      </trkpt>
      <trkpt lat="43.59523" lon="2.72734">
        <ele>717.76</ele>
        <time>2016-02-21T10:22:20Z</time>
      </trkpt>
      <trkpt lat="43.5961" lon="2.72698">
        <ele>712.95</ele>
        <time>2016-02-21T10:22:25Z</time>
      </trkpt>
      <trkpt lat="43.59617" lon="2.72671">
        <ele>713.44</ele>
        <time>2016-02-21T10:22:26Z</time>
      </trkpt>
      <trkpt lat="43.5968" lon="2.72521">
        <ele>713.92</ele>
        <time>2016-02-21T10:22:31Z</time>
      </trkpt>
      <trkpt lat="43.59713" lon="2.72409">
        <ele>712.95</ele>
        <time>2016-02-21T10:22:35Z</time>
      </trkpt>
      <trkpt lat="43.59711" lon="2.72379">
        <ele>712.47</ele>
        <time>2016-02-21T10:22:36Z</time>
      </trkpt>
      <trkpt lat="43.59709" lon="2.72348">
        <ele>711.99</ele>
        <time>2016-02-21T10:22:37Z</time>
      </trkpt>
      <trkpt lat="43.59705" lon="2.72315">
        <ele>711.51</ele>
        <time>2016-02-21T10:22:38Z</time>
      </trkpt>
      <trkpt lat="43.59698" lon="2.72281">
        <ele>711.03</ele>
        <time>2016-02-21T10:22:39Z</time>
      </trkpt>
      <trkpt lat="43.59692" lon="2.72249">
        <ele>711.03</ele>
        <time>2016-02-21T10:22:40Z</time>
      </trkpt>
      <trkpt lat="43.5969" lon="2.72161">
        <ele>709.59</ele>
        <time>2016-02-21T10:22:43Z</time>
      </trkpt>
      <trkpt lat="43.59695" lon="2.72132">
        <ele>709.59</ele>
        <time>2016-02-21T10:22:44Z</time>
      </trkpt>
      <trkpt lat="43.59704" lon="2.721">
        <ele>709.11</ele>
        <time>2016-02-21T10:22:45Z</time>
      </trkpt>
      <trkpt lat="43.5976" lon="2.71907">
        <ele>709.11</ele>
        <time>2016-02-21T10:22:50Z</time>
      </trkpt>
      <trkpt lat="43.59853" lon="2.71664">
        <ele>709.59</ele>
        <time>2016-02-21T10:22:56Z</time>
      </trkpt>
      <trkpt lat="43.59889" lon="2.71567">
        <ele>710.07</ele>
        <time>2016-02-21T10:22:59Z</time>
      </trkpt>
      <trkpt lat="43.59895" lon="2.71535">
        <ele>710.55</ele>
        <time>2016-02-21T10:23:00Z</time>
      </trkpt>
      <trkpt lat="43.59899" lon="2.71504">
        <ele>710.07</ele>
        <time>2016-02-21T10:23:01Z</time>
      </trkpt>
      <trkpt lat="43.59898" lon="2.71474">
        <ele>710.07</ele>
        <time>2016-02-21T10:23:02Z</time>
      </trkpt>
      <trkpt lat="43.59892" lon="2.71448">
        <ele>710.07</ele>
        <time>2016-02-21T10:23:03Z</time>
      </trkpt>
      <trkpt lat="43.59881" lon="2.71424">
        <ele>710.07</ele>
        <time>2016-02-21T10:23:04Z</time>
      </trkpt>
      <trkpt lat="43.59869" lon="2.71394">
        <ele>711.51</ele>
        <time>2016-02-21T10:23:05Z</time>
      </trkpt>
      <trkpt lat="43.59856" lon="2.71362">
        <ele>711.99</ele>
        <time>2016-02-21T10:23:06Z</time>
      </trkpt>
      <trkpt lat="43.59843" lon="2.7133">
        <ele>711.03</ele>
        <time>2016-02-21T10:23:07Z</time>
      </trkpt>
      <trkpt lat="43.59795" lon="2.71215">
        <ele>709.59</ele>
        <time>2016-02-21T10:23:11Z</time>
      </trkpt>
      <trkpt lat="43.59788" lon="2.71183">
        <ele>709.11</ele>
        <time>2016-02-21T10:23:12Z</time>
      </trkpt>
      <trkpt lat="43.59783" lon="2.71149">
        <ele>709.11</ele>
        <time>2016-02-21T10:23:13Z</time>
      </trkpt>
      <trkpt lat="43.59782" lon="2.71113">
        <ele>708.63</ele>
        <time>2016-02-21T10:23:14Z</time>
      </trkpt>
      <trkpt lat="43.59789" lon="2.71075">
        <ele>708.15</ele>
        <time>2016-02-21T10:23:15Z</time>
      </trkpt>
      <trkpt lat="43.59797" lon="2.71038">
        <ele>708.15</ele>
        <time>2016-02-21T10:23:16Z</time>
      </trkpt>
      <trkpt lat="43.59807" lon="2.71002">
        <ele>708.15</ele>
        <time>2016-02-21T10:23:17Z</time>
      </trkpt>
      <trkpt lat="43.59819" lon="2.70968">
        <ele>707.67</ele>
        <time>2016-02-21T10:23:18Z</time>
      </trkpt>
      <trkpt lat="43.59833" lon="2.70936">
        <ele>707.67</ele>
        <time>2016-02-21T10:23:19Z</time>
      </trkpt>
      <trkpt lat="43.59852" lon="2.70906">
        <ele>708.15</ele>
        <time>2016-02-21T10:23:20Z</time>
      </trkpt>
      <trkpt lat="43.59874" lon="2.70878">
        <ele>708.15</ele>
        <time>2016-02-21T10:23:21Z</time>
      </trkpt>
      <trkpt lat="43.59897" lon="2.70853">
        <ele>708.63</ele>
        <time>2016-02-21T10:23:22Z</time>
      </trkpt>
      <trkpt lat="43.59921" lon="2.70833">
        <ele>708.63</ele>
        <time>2016-02-21T10:23:23Z</time>
      </trkpt>
      <trkpt lat="43.60003" lon="2.70729">
        <ele>709.11</ele>
        <time>2016-02-21T10:23:28Z</time>
      </trkpt>
      <trkpt lat="43.60039" lon="2.7067">
        <ele>710.07</ele>
        <time>2016-02-21T10:23:33Z</time>
      </trkpt>
      <trkpt lat="43.60071" lon="2.70614">
        <ele>711.03</ele>
        <time>2016-02-21T10:23:39Z</time>
      </trkpt>
      <trkpt lat="43.60076" lon="2.70606">
        <ele>711.03</ele>
        <time>2016-02-21T10:23:40Z</time>
      </trkpt>
      <trkpt lat="43.60082" lon="2.706">
        <ele>710.55</ele>
        <time>2016-02-21T10:23:41Z</time>
      </trkpt>
      <trkpt lat="43.60087" lon="2.70597">
        <ele>710.07</ele>
        <time>2016-02-21T10:23:42Z</time>
      </trkpt>
      <trkpt lat="43.60092" lon="2.70596">
        <ele>709.11</ele>
        <time>2016-02-21T10:23:43Z</time>
      </trkpt>
      <trkpt lat="43.60095" lon="2.70594">
        <ele>708.15</ele>
        <time>2016-02-21T10:23:44Z</time>
      </trkpt>
      <trkpt lat="43.60097" lon="2.70591">
        <ele>707.19</ele>
        <time>2016-02-21T10:23:45Z</time>
      </trkpt>
      <trkpt lat="43.60099" lon="2.70588">
        <ele>707.19</ele>
        <time>2016-02-21T10:23:46Z</time>
      </trkpt>
      <trkpt lat="43.601" lon="2.70587">
        <ele>706.71</ele>
        <time>2016-02-21T10:23:47Z</time>
      </trkpt>
      <trkpt lat="43.60099" lon="2.70587">
        <ele>707.67</ele>
        <time>2016-02-21T10:24:01Z</time>
      </trkpt>
      <trkpt lat="43.60098" lon="2.70588">
        <ele>700.46</ele>
        <time>2016-02-21T10:41:36Z</time>
      </trkpt>
      <trkpt lat="43.60098" lon="2.70584">
        <ele>701.9</ele>
        <time>2016-02-21T10:42:50Z</time>
      </trkpt>
      <trkpt lat="43.60097" lon="2.70583">
        <ele>701.9</ele>
        <time>2016-02-21T10:42:51Z</time>
      </trkpt>
      <trkpt lat="43.60095" lon="2.70579">
        <ele>701.9</ele>
        <time>2016-02-21T10:42:53Z</time>
      </trkpt>
      <trkpt lat="43.60095" lon="2.70576">
        <ele>701.42</ele>
        <time>2016-02-21T10:42:54Z</time>
      </trkpt>
      <trkpt lat="43.60095" lon="2.70571">
        <ele>701.42</ele>
        <time>2016-02-21T10:42:55Z</time>
      </trkpt>
      <trkpt lat="43.60097" lon="2.7056">
        <ele>700.94</ele>
        <time>2016-02-21T10:42:57Z</time>
      </trkpt>
      <trkpt lat="43.60103" lon="2.70484">
        <ele>699.98</ele>
        <time>2016-02-21T10:43:05Z</time>
      </trkpt>
      <trkpt lat="43.60103" lon="2.70473">
        <ele>699.98</ele>
        <time>2016-02-21T10:43:06Z</time>
      </trkpt>
      <trkpt lat="43.60103" lon="2.70462">
        <ele>700.94</ele>
        <time>2016-02-21T10:43:07Z</time>
      </trkpt>
      <trkpt lat="43.60102" lon="2.70451">
        <ele>700.94</ele>
        <time>2016-02-21T10:43:08Z</time>
      </trkpt>
      <trkpt lat="43.601" lon="2.70439">
        <ele>701.42</ele>
        <time>2016-02-21T10:43:09Z</time>
      </trkpt>
      <trkpt lat="43.60098" lon="2.70427">
        <ele>701.42</ele>
        <time>2016-02-21T10:43:10Z</time>
      </trkpt>
      <trkpt lat="43.60095" lon="2.70416">
        <ele>702.38</ele>
        <time>2016-02-21T10:43:11Z</time>
      </trkpt>
      <trkpt lat="43.60091" lon="2.70405">
        <ele>702.86</ele>
        <time>2016-02-21T10:43:12Z</time>
      </trkpt>
      <trkpt lat="43.60087" lon="2.70394">
        <ele>702.86</ele>
        <time>2016-02-21T10:43:13Z</time>
      </trkpt>
      <trkpt lat="43.60082" lon="2.70385">
        <ele>702.38</ele>
        <time>2016-02-21T10:43:14Z</time>
      </trkpt>
      <trkpt lat="43.60065" lon="2.70362">
        <ele>701.42</ele>
        <time>2016-02-21T10:43:17Z</time>
      </trkpt>
      <trkpt lat="43.60058" lon="2.70355">
        <ele>700.94</ele>
        <time>2016-02-21T10:43:18Z</time>
      </trkpt>
      <trkpt lat="43.60052" lon="2.70348">
        <ele>700.94</ele>
        <time>2016-02-21T10:43:19Z</time>
      </trkpt>
      <trkpt lat="43.60044" lon="2.70345">
        <ele>700.46</ele>
        <time>2016-02-21T10:43:20Z</time>
      </trkpt>
      <trkpt lat="43.60036" lon="2.70341">
        <ele>699.98</ele>
        <time>2016-02-21T10:43:21Z</time>
      </trkpt>
      <trkpt lat="43.59963" lon="2.70283">
        <ele>695.17</ele>
        <time>2016-02-21T10:43:31Z</time>
      </trkpt>
      <trkpt lat="43.59934" lon="2.70255">
        <ele>691.81</ele>
        <time>2016-02-21T10:43:35Z</time>
      </trkpt>
      <trkpt lat="43.59929" lon="2.70247">
        <ele>691.33</ele>
        <time>2016-02-21T10:43:36Z</time>
      </trkpt>
      <trkpt lat="43.59925" lon="2.70237">
        <ele>690.84</ele>
        <time>2016-02-21T10:43:37Z</time>
      </trkpt>
      <trkpt lat="43.59923" lon="2.70226">
        <ele>689.88</ele>
        <time>2016-02-21T10:43:38Z</time>
      </trkpt>
      <trkpt lat="43.59922" lon="2.70214">
        <ele>689.4</ele>
        <time>2016-02-21T10:43:39Z</time>
      </trkpt>
      <trkpt lat="43.59921" lon="2.70202">
        <ele>688.44</ele>
        <time>2016-02-21T10:43:40Z</time>
      </trkpt>
      <trkpt lat="43.5992" lon="2.70193">
        <ele>688.92</ele>
        <time>2016-02-21T10:43:41Z</time>
      </trkpt>
      <trkpt lat="43.59922" lon="2.70185">
        <ele>689.4</ele>
        <time>2016-02-21T10:43:42Z</time>
      </trkpt>
      <trkpt lat="43.59924" lon="2.70178">
        <ele>688.92</ele>
        <time>2016-02-21T10:43:43Z</time>
      </trkpt>
      <trkpt lat="43.59934" lon="2.70155">
        <ele>690.84</ele>
        <time>2016-02-21T10:43:48Z</time>
      </trkpt>
      <trkpt lat="43.59955" lon="2.70129">
        <ele>690.36</ele>
        <time>2016-02-21T10:43:52Z</time>
      </trkpt>
      <trkpt lat="43.59961" lon="2.70123">
        <ele>690.36</ele>
        <time>2016-02-21T10:43:53Z</time>
      </trkpt>
      <trkpt lat="43.59968" lon="2.70118">
        <ele>690.36</ele>
        <time>2016-02-21T10:43:54Z</time>
      </trkpt>
      <trkpt lat="43.60002" lon="2.70098">
        <ele>691.33</ele>
        <time>2016-02-21T10:43:59Z</time>
      </trkpt>
      <trkpt lat="43.60008" lon="2.70097">
        <ele>691.33</ele>
        <time>2016-02-21T10:44:00Z</time>
      </trkpt>
      <trkpt lat="43.60014" lon="2.70098">
        <ele>690.36</ele>
        <time>2016-02-21T10:44:01Z</time>
      </trkpt>
      <trkpt lat="43.60023" lon="2.70103">
        <ele>688.44</ele>
        <time>2016-02-21T10:44:02Z</time>
      </trkpt>
      <trkpt lat="43.6003" lon="2.7011">
        <ele>687</ele>
        <time>2016-02-21T10:44:03Z</time>
      </trkpt>
      <trkpt lat="43.60037" lon="2.70117">
        <ele>685.56</ele>
        <time>2016-02-21T10:44:04Z</time>
      </trkpt>
      <trkpt lat="43.60045" lon="2.70125">
        <ele>685.08</ele>
        <time>2016-02-21T10:44:05Z</time>
      </trkpt>
      <trkpt lat="43.60084" lon="2.70164">
        <ele>683.15</ele>
        <time>2016-02-21T10:44:11Z</time>
      </trkpt>
      <trkpt lat="43.60088" lon="2.70167">
        <ele>683.15</ele>
        <time>2016-02-21T10:44:12Z</time>
      </trkpt>
      <trkpt lat="43.60091" lon="2.70168">
        <ele>682.67</ele>
        <time>2016-02-21T10:44:13Z</time>
      </trkpt>
      <trkpt lat="43.60093" lon="2.70166">
        <ele>682.67</ele>
        <time>2016-02-21T10:44:14Z</time>
      </trkpt>
      <trkpt lat="43.60093" lon="2.70163">
        <ele>682.67</ele>
        <time>2016-02-21T10:44:15Z</time>
      </trkpt>
      <trkpt lat="43.60092" lon="2.70161">
        <ele>681.71</ele>
        <time>2016-02-21T10:44:16Z</time>
      </trkpt>
      <trkpt lat="43.6009" lon="2.7016">
        <ele>681.23</ele>
        <time>2016-02-21T10:44:17Z</time>
      </trkpt>
      <trkpt lat="43.60089" lon="2.7016">
        <ele>681.23</ele>
        <time>2016-02-21T10:44:18Z</time>
      </trkpt>
      <trkpt lat="43.60087" lon="2.7016">
        <ele>681.71</ele>
        <time>2016-02-21T10:44:19Z</time>
      </trkpt>
      <trkpt lat="43.60084" lon="2.7016">
        <ele>681.71</ele>
        <time>2016-02-21T10:44:20Z</time>
      </trkpt>
      <trkpt lat="43.60079" lon="2.70157">
        <ele>681.23</ele>
        <time>2016-02-21T10:44:21Z</time>
      </trkpt>
      <trkpt lat="43.60074" lon="2.70153">
        <ele>681.71</ele>
        <time>2016-02-21T10:44:22Z</time>
      </trkpt>
      <trkpt lat="43.60068" lon="2.70147">
        <ele>681.71</ele>
        <time>2016-02-21T10:44:23Z</time>
      </trkpt>
      <trkpt lat="43.60012" lon="2.70103">
        <ele>682.19</ele>
        <time>2016-02-21T10:44:31Z</time>
      </trkpt>
      <trkpt lat="43.60004" lon="2.70102">
        <ele>682.19</ele>
        <time>2016-02-21T10:44:32Z</time>
      </trkpt>
      <trkpt lat="43.59995" lon="2.70103">
        <ele>682.67</ele>
        <time>2016-02-21T10:44:33Z</time>
      </trkpt>
      <trkpt lat="43.59987" lon="2.70108">
        <ele>683.15</ele>
        <time>2016-02-21T10:44:34Z</time>
      </trkpt>
      <trkpt lat="43.59979" lon="2.70113">
        <ele>683.63</ele>
        <time>2016-02-21T10:44:35Z</time>
      </trkpt>
      <trkpt lat="43.59957" lon="2.7013">
        <ele>686.04</ele>
        <time>2016-02-21T10:44:38Z</time>
      </trkpt>
      <trkpt lat="43.5995" lon="2.70136">
        <ele>687</ele>
        <time>2016-02-21T10:44:39Z</time>
      </trkpt>
      <trkpt lat="43.59946" lon="2.70143">
        <ele>687.48</ele>
        <time>2016-02-21T10:44:40Z</time>
      </trkpt>
      <trkpt lat="43.59934" lon="2.70158">
        <ele>690.84</ele>
        <time>2016-02-21T10:44:47Z</time>
      </trkpt>
      <trkpt lat="43.59934" lon="2.70158">
        <ele>696.13</ele>
        <time>2016-02-21T10:45:06Z</time>
      </trkpt>
      <trkpt lat="43.59929" lon="2.70157">
        <ele>695.17</ele>
        <time>2016-02-21T10:45:07Z</time>
      </trkpt>
      <trkpt lat="43.59922" lon="2.70154">
        <ele>694.21</ele>
        <time>2016-02-21T10:45:08Z</time>
      </trkpt>
      <trkpt lat="43.59869" lon="2.70116">
        <ele>694.69</ele>
        <time>2016-02-21T10:45:14Z</time>
      </trkpt>
      <trkpt lat="43.59863" lon="2.70109">
        <ele>694.69</ele>
        <time>2016-02-21T10:45:15Z</time>
      </trkpt>
      <trkpt lat="43.59859" lon="2.70101">
        <ele>694.21</ele>
        <time>2016-02-21T10:45:16Z</time>
      </trkpt>
      <trkpt lat="43.59858" lon="2.70092">
        <ele>693.73</ele>
        <time>2016-02-21T10:45:17Z</time>
      </trkpt>
      <trkpt lat="43.59863" lon="2.7008">
        <ele>693.25</ele>
        <time>2016-02-21T10:45:18Z</time>
      </trkpt>
      <trkpt lat="43.5987" lon="2.70068">
        <ele>693.25</ele>
        <time>2016-02-21T10:45:19Z</time>
      </trkpt>
      <trkpt lat="43.59876" lon="2.70055">
        <ele>693.25</ele>
        <time>2016-02-21T10:45:20Z</time>
      </trkpt>
      <trkpt lat="43.59913" lon="2.69987">
        <ele>693.73</ele>
        <time>2016-02-21T10:45:25Z</time>
      </trkpt>
      <trkpt lat="43.59922" lon="2.69977">
        <ele>694.21</ele>
        <time>2016-02-21T10:45:26Z</time>
      </trkpt>
      <trkpt lat="43.5996" lon="2.69933">
        <ele>693.25</ele>
        <time>2016-02-21T10:45:32Z</time>
      </trkpt>
      <trkpt lat="43.59963" lon="2.69929">
        <ele>692.77</ele>
        <time>2016-02-21T10:45:33Z</time>
      </trkpt>
      <trkpt lat="43.59975" lon="2.69919">
        <ele>692.77</ele>
        <time>2016-02-21T10:45:39Z</time>
      </trkpt>
      <trkpt lat="43.59976" lon="2.69916">
        <ele>692.29</ele>
        <time>2016-02-21T10:45:40Z</time>
      </trkpt>
      <trkpt lat="43.59976" lon="2.69914">
        <ele>692.29</ele>
        <time>2016-02-21T10:45:41Z</time>
      </trkpt>
      <trkpt lat="43.59975" lon="2.69912">
        <ele>692.29</ele>
        <time>2016-02-21T10:45:42Z</time>
      </trkpt>
      <trkpt lat="43.59972" lon="2.6992">
        <ele>694.69</ele>
        <time>2016-02-21T10:57:51Z</time>
      </trkpt>
      <trkpt lat="43.59971" lon="2.69919">
        <ele>694.21</ele>
        <time>2016-02-21T11:01:09Z</time>
      </trkpt>
      <trkpt lat="43.59972" lon="2.69918">
        <ele>696.61</ele>
        <time>2016-02-21T11:01:37Z</time>
      </trkpt>
      <trkpt lat="43.59974" lon="2.69903">
        <ele>695.65</ele>
        <time>2016-02-21T11:01:41Z</time>
      </trkpt>
      <trkpt lat="43.59975" lon="2.69896">
        <ele>695.17</ele>
        <time>2016-02-21T11:01:42Z</time>
      </trkpt>
      <trkpt lat="43.59976" lon="2.69887">
        <ele>694.21</ele>
        <time>2016-02-21T11:01:43Z</time>
      </trkpt>
      <trkpt lat="43.59975" lon="2.69877">
        <ele>693.25</ele>
        <time>2016-02-21T11:01:44Z</time>
      </trkpt>
      <trkpt lat="43.59974" lon="2.69867">
        <ele>692.29</ele>
        <time>2016-02-21T11:01:45Z</time>
      </trkpt>
      <trkpt lat="43.59972" lon="2.69858">
        <ele>691.81</ele>
        <time>2016-02-21T11:01:46Z</time>
      </trkpt>
      <trkpt lat="43.59965" lon="2.69814">
        <ele>688.44</ele>
        <time>2016-02-21T11:01:51Z</time>
      </trkpt>
      <trkpt lat="43.59955" lon="2.69758">
        <ele>685.56</ele>
        <time>2016-02-21T11:01:56Z</time>
      </trkpt>
      <trkpt lat="43.59932" lon="2.69613">
        <ele>686.52</ele>
        <time>2016-02-21T11:02:05Z</time>
      </trkpt>
      <trkpt lat="43.59919" lon="2.6958">
        <ele>686.04</ele>
        <time>2016-02-21T11:02:07Z</time>
      </trkpt>
      <trkpt lat="43.59911" lon="2.69565">
        <ele>686.04</ele>
        <time>2016-02-21T11:02:08Z</time>
      </trkpt>
      <trkpt lat="43.59901" lon="2.69549">
        <ele>686.04</ele>
        <time>2016-02-21T11:02:09Z</time>
      </trkpt>
      <trkpt lat="43.59816" lon="2.69445">
        <ele>688.92</ele>
        <time>2016-02-21T11:02:16Z</time>
      </trkpt>
      <trkpt lat="43.59801" lon="2.69437">
        <ele>689.88</ele>
        <time>2016-02-21T11:02:17Z</time>
      </trkpt>
      <trkpt lat="43.59784" lon="2.69433">
        <ele>691.81</ele>
        <time>2016-02-21T11:02:18Z</time>
      </trkpt>
      <trkpt lat="43.59757" lon="2.6942">
        <ele>694.21</ele>
        <time>2016-02-21T11:02:20Z</time>
      </trkpt>
      <trkpt lat="43.59747" lon="2.6941">
        <ele>695.17</ele>
        <time>2016-02-21T11:02:21Z</time>
      </trkpt>
      <trkpt lat="43.59742" lon="2.69394">
        <ele>695.65</ele>
        <time>2016-02-21T11:02:22Z</time>
      </trkpt>
      <trkpt lat="43.5974" lon="2.69378">
        <ele>697.09</ele>
        <time>2016-02-21T11:02:23Z</time>
      </trkpt>
      <trkpt lat="43.59754" lon="2.69359">
        <ele>699.5</ele>
        <time>2016-02-21T11:02:24Z</time>
      </trkpt>
      <trkpt lat="43.59761" lon="2.69339">
        <ele>700.94</ele>
        <time>2016-02-21T11:02:25Z</time>
      </trkpt>
      <trkpt lat="43.5977" lon="2.69318">
        <ele>702.38</ele>
        <time>2016-02-21T11:02:26Z</time>
      </trkpt>
      <trkpt lat="43.59836" lon="2.69135">
        <ele>709.59</ele>
        <time>2016-02-21T11:02:34Z</time>
      </trkpt>
      <trkpt lat="43.59833" lon="2.69109">
        <ele>710.07</ele>
        <time>2016-02-21T11:02:35Z</time>
      </trkpt>
      <trkpt lat="43.5983" lon="2.69084">
        <ele>711.03</ele>
        <time>2016-02-21T11:02:36Z</time>
      </trkpt>
      <trkpt lat="43.59827" lon="2.69058">
        <ele>711.51</ele>
        <time>2016-02-21T11:02:37Z</time>
      </trkpt>
      <trkpt lat="43.59823" lon="2.69034">
        <ele>712.95</ele>
        <time>2016-02-21T11:02:38Z</time>
      </trkpt>
      <trkpt lat="43.59816" lon="2.69012">
        <ele>713.44</ele>
        <time>2016-02-21T11:02:39Z</time>
      </trkpt>
      <trkpt lat="43.59808" lon="2.68992">
        <ele>714.4</ele>
        <time>2016-02-21T11:02:40Z</time>
      </trkpt>
      <trkpt lat="43.59796" lon="2.68979">
        <ele>715.36</ele>
        <time>2016-02-21T11:02:41Z</time>
      </trkpt>
      <trkpt lat="43.59787" lon="2.68966">
        <ele>716.32</ele>
        <time>2016-02-21T11:02:42Z</time>
      </trkpt>
      <trkpt lat="43.59778" lon="2.68956">
        <ele>717.76</ele>
        <time>2016-02-21T11:02:43Z</time>
      </trkpt>
      <trkpt lat="43.59772" lon="2.68944">
        <ele>718.24</ele>
        <time>2016-02-21T11:02:44Z</time>
      </trkpt>
      <trkpt lat="43.59769" lon="2.68931">
        <ele>719.2</ele>
        <time>2016-02-21T11:02:45Z</time>
      </trkpt>
      <trkpt lat="43.59767" lon="2.68917">
        <ele>720.16</ele>
        <time>2016-02-21T11:02:46Z</time>
      </trkpt>
      <trkpt lat="43.59768" lon="2.689">
        <ele>720.65</ele>
        <time>2016-02-21T11:02:47Z</time>
      </trkpt>
      <trkpt lat="43.5977" lon="2.68881">
        <ele>721.61</ele>
        <time>2016-02-21T11:02:48Z</time>
      </trkpt>
      <trkpt lat="43.59773" lon="2.68862">
        <ele>722.09</ele>
        <time>2016-02-21T11:02:49Z</time>
      </trkpt>
      <trkpt lat="43.59793" lon="2.68665">
        <ele>719.68</ele>
        <time>2016-02-21T11:02:58Z</time>
      </trkpt>
      <trkpt lat="43.59793" lon="2.68639">
        <ele>718.24</ele>
        <time>2016-02-21T11:02:59Z</time>
      </trkpt>
      <trkpt lat="43.59791" lon="2.68614">
        <ele>716.8</ele>
        <time>2016-02-21T11:03:00Z</time>
      </trkpt>
      <trkpt lat="43.59787" lon="2.68588">
        <ele>715.36</ele>
        <time>2016-02-21T11:03:01Z</time>
      </trkpt>
      <trkpt lat="43.59729" lon="2.68203">
        <ele>703.82</ele>
        <time>2016-02-21T11:03:15Z</time>
      </trkpt>
      <trkpt lat="43.59679" lon="2.68011">
        <ele>701.9</ele>
        <time>2016-02-21T11:03:22Z</time>
      </trkpt>
      <trkpt lat="43.59666" lon="2.67992">
        <ele>701.42</ele>
        <time>2016-02-21T11:03:23Z</time>
      </trkpt>
      <trkpt lat="43.59646" lon="2.67983">
        <ele>701.42</ele>
        <time>2016-02-21T11:03:24Z</time>
      </trkpt>
      <trkpt lat="43.59629" lon="2.67973">
        <ele>701.42</ele>
        <time>2016-02-21T11:03:25Z</time>
      </trkpt>
      <trkpt lat="43.59608" lon="2.67965">
        <ele>701.9</ele>
        <time>2016-02-21T11:03:26Z</time>
      </trkpt>
      <trkpt lat="43.59587" lon="2.67956">
        <ele>702.86</ele>
        <time>2016-02-21T11:03:27Z</time>
      </trkpt>
      <trkpt lat="43.59529" lon="2.67888">
        <ele>704.3</ele>
        <time>2016-02-21T11:03:31Z</time>
      </trkpt>
      <trkpt lat="43.59532" lon="2.67859">
        <ele>704.78</ele>
        <time>2016-02-21T11:03:32Z</time>
      </trkpt>
      <trkpt lat="43.59539" lon="2.67832">
        <ele>705.75</ele>
        <time>2016-02-21T11:03:33Z</time>
      </trkpt>
      <trkpt lat="43.59544" lon="2.67807">
        <ele>706.71</ele>
        <time>2016-02-21T11:03:34Z</time>
      </trkpt>
      <trkpt lat="43.5955" lon="2.6778">
        <ele>707.67</ele>
        <time>2016-02-21T11:03:35Z</time>
      </trkpt>
      <trkpt lat="43.59555" lon="2.67752">
        <ele>708.63</ele>
        <time>2016-02-21T11:03:36Z</time>
      </trkpt>
      <trkpt lat="43.59558" lon="2.67723">
        <ele>709.11</ele>
        <time>2016-02-21T11:03:37Z</time>
      </trkpt>
      <trkpt lat="43.59561" lon="2.67632">
        <ele>711.03</ele>
        <time>2016-02-21T11:03:40Z</time>
      </trkpt>
      <trkpt lat="43.59566" lon="2.67603">
        <ele>711.51</ele>
        <time>2016-02-21T11:03:41Z</time>
      </trkpt>
      <trkpt lat="43.59575" lon="2.6758">
        <ele>711.99</ele>
        <time>2016-02-21T11:03:42Z</time>
      </trkpt>
      <trkpt lat="43.59586" lon="2.67559">
        <ele>712.47</ele>
        <time>2016-02-21T11:03:43Z</time>
      </trkpt>
      <trkpt lat="43.59598" lon="2.67539">
        <ele>712.95</ele>
        <time>2016-02-21T11:03:44Z</time>
      </trkpt>
      <trkpt lat="43.59607" lon="2.67518">
        <ele>713.44</ele>
        <time>2016-02-21T11:03:45Z</time>
      </trkpt>
      <trkpt lat="43.59613" lon="2.67497">
        <ele>713.44</ele>
        <time>2016-02-21T11:03:46Z</time>
      </trkpt>
      <trkpt lat="43.59612" lon="2.67475">
        <ele>712.95</ele>
        <time>2016-02-21T11:03:47Z</time>
      </trkpt>
      <trkpt lat="43.59609" lon="2.67452">
        <ele>712.47</ele>
        <time>2016-02-21T11:03:48Z</time>
      </trkpt>
      <trkpt lat="43.59603" lon="2.67428">
        <ele>713.92</ele>
        <time>2016-02-21T11:03:49Z</time>
      </trkpt>
      <trkpt lat="43.59594" lon="2.67405">
        <ele>714.4</ele>
        <time>2016-02-21T11:03:50Z</time>
      </trkpt>
      <trkpt lat="43.59583" lon="2.67381">
        <ele>715.36</ele>
        <time>2016-02-21T11:03:51Z</time>
      </trkpt>
      <trkpt lat="43.59574" lon="2.67357">
        <ele>716.8</ele>
        <time>2016-02-21T11:03:52Z</time>
      </trkpt>
      <trkpt lat="43.5956" lon="2.67312">
        <ele>717.28</ele>
        <time>2016-02-21T11:03:54Z</time>
      </trkpt>
      <trkpt lat="43.59557" lon="2.67289">
        <ele>717.76</ele>
        <time>2016-02-21T11:03:55Z</time>
      </trkpt>
      <trkpt lat="43.5956" lon="2.67268">
        <ele>717.76</ele>
        <time>2016-02-21T11:03:56Z</time>
      </trkpt>
      <trkpt lat="43.59567" lon="2.6725">
        <ele>718.24</ele>
        <time>2016-02-21T11:03:57Z</time>
      </trkpt>
      <trkpt lat="43.59579" lon="2.67239">
        <ele>718.72</ele>
        <time>2016-02-21T11:03:58Z</time>
      </trkpt>
      <trkpt lat="43.59589" lon="2.67231">
        <ele>717.28</ele>
        <time>2016-02-21T11:03:59Z</time>
      </trkpt>
      <trkpt lat="43.59613" lon="2.67222">
        <ele>718.24</ele>
        <time>2016-02-21T11:04:00Z</time>
      </trkpt>
      <trkpt lat="43.59632" lon="2.67213">
        <ele>716.8</ele>
        <time>2016-02-21T11:04:01Z</time>
      </trkpt>
      <trkpt lat="43.59654" lon="2.6721">
        <ele>716.32</ele>
        <time>2016-02-21T11:04:02Z</time>
      </trkpt>
      <trkpt lat="43.59678" lon="2.67213">
        <ele>715.36</ele>
        <time>2016-02-21T11:04:03Z</time>
      </trkpt>
      <trkpt lat="43.597" lon="2.67221">
        <ele>714.88</ele>
        <time>2016-02-21T11:04:04Z</time>
      </trkpt>
      <trkpt lat="43.59721" lon="2.67223">
        <ele>714.4</ele>
        <time>2016-02-21T11:04:05Z</time>
      </trkpt>
      <trkpt lat="43.59739" lon="2.67226">
        <ele>714.88</ele>
        <time>2016-02-21T11:04:06Z</time>
      </trkpt>
      <trkpt lat="43.59789" lon="2.672">
        <ele>715.84</ele>
        <time>2016-02-21T11:04:09Z</time>
      </trkpt>
      <trkpt lat="43.598" lon="2.67179">
        <ele>716.32</ele>
        <time>2016-02-21T11:04:10Z</time>
      </trkpt>
      <trkpt lat="43.59803" lon="2.67148">
        <ele>714.88</ele>
        <time>2016-02-21T11:04:11Z</time>
      </trkpt>
      <trkpt lat="43.5981" lon="2.6712">
        <ele>712.47</ele>
        <time>2016-02-21T11:04:12Z</time>
      </trkpt>
      <trkpt lat="43.59813" lon="2.67089">
        <ele>712.47</ele>
        <time>2016-02-21T11:04:13Z</time>
      </trkpt>
      <trkpt lat="43.59818" lon="2.67058">
        <ele>710.55</ele>
        <time>2016-02-21T11:04:14Z</time>
      </trkpt>
      <trkpt lat="43.59875" lon="2.66867">
        <ele>705.26</ele>
        <time>2016-02-21T11:04:21Z</time>
      </trkpt>
      <trkpt lat="43.59874" lon="2.6684">
        <ele>705.75</ele>
        <time>2016-02-21T11:04:22Z</time>
      </trkpt>
      <trkpt lat="43.59867" lon="2.66817">
        <ele>702.38</ele>
        <time>2016-02-21T11:04:23Z</time>
      </trkpt>
      <trkpt lat="43.59854" lon="2.66796">
        <ele>702.38</ele>
        <time>2016-02-21T11:04:24Z</time>
      </trkpt>
      <trkpt lat="43.59843" lon="2.66775">
        <ele>701.42</ele>
        <time>2016-02-21T11:04:25Z</time>
      </trkpt>
      <trkpt lat="43.5983" lon="2.66755">
        <ele>699.98</ele>
        <time>2016-02-21T11:04:26Z</time>
      </trkpt>
      <trkpt lat="43.59824" lon="2.66682">
        <ele>697.09</ele>
        <time>2016-02-21T11:04:29Z</time>
      </trkpt>
      <trkpt lat="43.59828" lon="2.66657">
        <ele>697.09</ele>
        <time>2016-02-21T11:04:30Z</time>
      </trkpt>
      <trkpt lat="43.59833" lon="2.66629">
        <ele>696.61</ele>
        <time>2016-02-21T11:04:31Z</time>
      </trkpt>
      <trkpt lat="43.59829" lon="2.665">
        <ele>695.65</ele>
        <time>2016-02-21T11:04:35Z</time>
      </trkpt>
      <trkpt lat="43.59822" lon="2.66468">
        <ele>694.69</ele>
        <time>2016-02-21T11:04:36Z</time>
      </trkpt>
      <trkpt lat="43.59803" lon="2.66298">
        <ele>690.36</ele>
        <time>2016-02-21T11:04:42Z</time>
      </trkpt>
      <trkpt lat="43.59812" lon="2.6627">
        <ele>689.88</ele>
        <time>2016-02-21T11:04:43Z</time>
      </trkpt>
      <trkpt lat="43.59822" lon="2.66244">
        <ele>687.96</ele>
        <time>2016-02-21T11:04:44Z</time>
      </trkpt>
      <trkpt lat="43.59835" lon="2.6622">
        <ele>686.52</ele>
        <time>2016-02-21T11:04:45Z</time>
      </trkpt>
      <trkpt lat="43.59848" lon="2.66197">
        <ele>685.56</ele>
        <time>2016-02-21T11:04:46Z</time>
      </trkpt>
      <trkpt lat="43.5986" lon="2.66172">
        <ele>685.08</ele>
        <time>2016-02-21T11:04:47Z</time>
      </trkpt>
      <trkpt lat="43.5993" lon="2.65948">
        <ele>678.83</ele>
        <time>2016-02-21T11:04:55Z</time>
      </trkpt>
      <trkpt lat="43.6001" lon="2.6559">
        <ele>674.5</ele>
        <time>2016-02-21T11:05:07Z</time>
      </trkpt>
      <trkpt lat="43.6006" lon="2.65488">
        <ele>677.39</ele>
        <time>2016-02-21T11:05:12Z</time>
      </trkpt>
      <trkpt lat="43.60056" lon="2.65474">
        <ele>678.83</ele>
        <time>2016-02-21T11:05:13Z</time>
      </trkpt>
      <trkpt lat="43.60047" lon="2.6546">
        <ele>679.31</ele>
        <time>2016-02-21T11:05:14Z</time>
      </trkpt>
      <trkpt lat="43.60036" lon="2.65444">
        <ele>681.23</ele>
        <time>2016-02-21T11:05:15Z</time>
      </trkpt>
      <trkpt lat="43.6002" lon="2.65439">
        <ele>682.19</ele>
        <time>2016-02-21T11:05:16Z</time>
      </trkpt>
      <trkpt lat="43.60006" lon="2.65439">
        <ele>684.12</ele>
        <time>2016-02-21T11:05:17Z</time>
      </trkpt>
      <trkpt lat="43.59996" lon="2.65442">
        <ele>685.56</ele>
        <time>2016-02-21T11:05:18Z</time>
      </trkpt>
      <trkpt lat="43.59986" lon="2.65454">
        <ele>685.56</ele>
        <time>2016-02-21T11:05:19Z</time>
      </trkpt>
      <trkpt lat="43.59976" lon="2.65476">
        <ele>685.56</ele>
        <time>2016-02-21T11:05:20Z</time>
      </trkpt>
      <trkpt lat="43.59962" lon="2.65498">
        <ele>687</ele>
        <time>2016-02-21T11:05:21Z</time>
      </trkpt>
      <trkpt lat="43.59918" lon="2.65557">
        <ele>690.84</ele>
        <time>2016-02-21T11:05:24Z</time>
      </trkpt>
      <trkpt lat="43.59897" lon="2.65571">
        <ele>691.81</ele>
        <time>2016-02-21T11:05:25Z</time>
      </trkpt>
      <trkpt lat="43.59876" lon="2.65585">
        <ele>691.33</ele>
        <time>2016-02-21T11:05:26Z</time>
      </trkpt>
      <trkpt lat="43.59804" lon="2.65613">
        <ele>691.81</ele>
        <time>2016-02-21T11:05:31Z</time>
      </trkpt>
      <trkpt lat="43.59795" lon="2.65601">
        <ele>691.81</ele>
        <time>2016-02-21T11:05:32Z</time>
      </trkpt>
      <trkpt lat="43.59788" lon="2.65584">
        <ele>691.81</ele>
        <time>2016-02-21T11:05:33Z</time>
      </trkpt>
      <trkpt lat="43.59801" lon="2.65548">
        <ele>692.29</ele>
        <time>2016-02-21T11:05:35Z</time>
      </trkpt>
      <trkpt lat="43.59813" lon="2.65534">
        <ele>693.25</ele>
        <time>2016-02-21T11:05:36Z</time>
      </trkpt>
      <trkpt lat="43.59823" lon="2.65518">
        <ele>693.25</ele>
        <time>2016-02-21T11:05:37Z</time>
      </trkpt>
      <trkpt lat="43.59836" lon="2.65501">
        <ele>692.29</ele>
        <time>2016-02-21T11:05:38Z</time>
      </trkpt>
      <trkpt lat="43.59847" lon="2.65483">
        <ele>690.84</ele>
        <time>2016-02-21T11:05:39Z</time>
      </trkpt>
      <trkpt lat="43.59862" lon="2.65445">
        <ele>689.88</ele>
        <time>2016-02-21T11:05:41Z</time>
      </trkpt>
      <trkpt lat="43.59866" lon="2.65423">
        <ele>688.92</ele>
        <time>2016-02-21T11:05:42Z</time>
      </trkpt>
      <trkpt lat="43.59869" lon="2.65397">
        <ele>688.44</ele>
        <time>2016-02-21T11:05:43Z</time>
      </trkpt>
      <trkpt lat="43.59869" lon="2.6537">
        <ele>687.48</ele>
        <time>2016-02-21T11:05:44Z</time>
      </trkpt>
      <trkpt lat="43.59869" lon="2.65341">
        <ele>685.56</ele>
        <time>2016-02-21T11:05:45Z</time>
      </trkpt>
      <trkpt lat="43.59847" lon="2.65117">
        <ele>679.31</ele>
        <time>2016-02-21T11:05:52Z</time>
      </trkpt>
      <trkpt lat="43.59841" lon="2.6509">
        <ele>677.87</ele>
        <time>2016-02-21T11:05:53Z</time>
      </trkpt>
      <trkpt lat="43.59833" lon="2.65063">
        <ele>675.94</ele>
        <time>2016-02-21T11:05:54Z</time>
      </trkpt>
      <trkpt lat="43.59823" lon="2.65038">
        <ele>675.46</ele>
        <time>2016-02-21T11:05:55Z</time>
      </trkpt>
      <trkpt lat="43.59812" lon="2.65014">
        <ele>674.02</ele>
        <time>2016-02-21T11:05:56Z</time>
      </trkpt>
      <trkpt lat="43.598" lon="2.64991">
        <ele>673.06</ele>
        <time>2016-02-21T11:05:57Z</time>
      </trkpt>
      <trkpt lat="43.59758" lon="2.6493">
        <ele>668.25</ele>
        <time>2016-02-21T11:06:00Z</time>
      </trkpt>
      <trkpt lat="43.5974" lon="2.64914">
        <ele>666.81</ele>
        <time>2016-02-21T11:06:01Z</time>
      </trkpt>
      <trkpt lat="43.59632" lon="2.64807">
        <ele>661.04</ele>
        <time>2016-02-21T11:06:08Z</time>
      </trkpt>
      <trkpt lat="43.5963" lon="2.64788">
        <ele>661.04</ele>
        <time>2016-02-21T11:06:09Z</time>
      </trkpt>
      <trkpt lat="43.59636" lon="2.64766">
        <ele>661.52</ele>
        <time>2016-02-21T11:06:10Z</time>
      </trkpt>
      <trkpt lat="43.59645" lon="2.64739">
        <ele>662.01</ele>
        <time>2016-02-21T11:06:11Z</time>
      </trkpt>
      <trkpt lat="43.59659" lon="2.64719">
        <ele>661.52</ele>
        <time>2016-02-21T11:06:12Z</time>
      </trkpt>
      <trkpt lat="43.59676" lon="2.64703">
        <ele>662.01</ele>
        <time>2016-02-21T11:06:13Z</time>
      </trkpt>
      <trkpt lat="43.59695" lon="2.64687">
        <ele>662.49</ele>
        <time>2016-02-21T11:06:14Z</time>
      </trkpt>
      <trkpt lat="43.59712" lon="2.64668">
        <ele>662.97</ele>
        <time>2016-02-21T11:06:15Z</time>
      </trkpt>
      <trkpt lat="43.59771" lon="2.64568">
        <ele>667.29</ele>
        <time>2016-02-21T11:06:20Z</time>
      </trkpt>
      <trkpt lat="43.59774" lon="2.64545">
        <ele>665.37</ele>
        <time>2016-02-21T11:06:21Z</time>
      </trkpt>
      <trkpt lat="43.59773" lon="2.6452">
        <ele>663.93</ele>
        <time>2016-02-21T11:06:22Z</time>
      </trkpt>
      <trkpt lat="43.5977" lon="2.64494">
        <ele>662.97</ele>
        <time>2016-02-21T11:06:23Z</time>
      </trkpt>
      <trkpt lat="43.59768" lon="2.64466">
        <ele>663.45</ele>
        <time>2016-02-21T11:06:24Z</time>
      </trkpt>
      <trkpt lat="43.59743" lon="2.6429">
        <ele>674.02</ele>
        <time>2016-02-21T11:06:30Z</time>
      </trkpt>
      <trkpt lat="43.59737" lon="2.64267">
        <ele>674.98</ele>
        <time>2016-02-21T11:06:31Z</time>
      </trkpt>
      <trkpt lat="43.59714" lon="2.64229">
        <ele>676.42</ele>
        <time>2016-02-21T11:06:33Z</time>
      </trkpt>
      <trkpt lat="43.59702" lon="2.64209">
        <ele>676.91</ele>
        <time>2016-02-21T11:06:34Z</time>
      </trkpt>
      <trkpt lat="43.59685" lon="2.6419">
        <ele>677.87</ele>
        <time>2016-02-21T11:06:35Z</time>
      </trkpt>
      <trkpt lat="43.59665" lon="2.64173">
        <ele>678.83</ele>
        <time>2016-02-21T11:06:36Z</time>
      </trkpt>
      <trkpt lat="43.59647" lon="2.64156">
        <ele>679.31</ele>
        <time>2016-02-21T11:06:37Z</time>
      </trkpt>
      <trkpt lat="43.59561" lon="2.64074">
        <ele>684.12</ele>
        <time>2016-02-21T11:06:42Z</time>
      </trkpt>
      <trkpt lat="43.59541" lon="2.64063">
        <ele>685.56</ele>
        <time>2016-02-21T11:06:43Z</time>
      </trkpt>
      <trkpt lat="43.59482" lon="2.64031">
        <ele>687.96</ele>
        <time>2016-02-21T11:06:46Z</time>
      </trkpt>
      <trkpt lat="43.59465" lon="2.64015">
        <ele>688.92</ele>
        <time>2016-02-21T11:06:47Z</time>
      </trkpt>
      <trkpt lat="43.5945" lon="2.63997">
        <ele>689.88</ele>
        <time>2016-02-21T11:06:48Z</time>
      </trkpt>
      <trkpt lat="43.59437" lon="2.63979">
        <ele>690.84</ele>
        <time>2016-02-21T11:06:49Z</time>
      </trkpt>
      <trkpt lat="43.59425" lon="2.63962">
        <ele>691.33</ele>
        <time>2016-02-21T11:06:50Z</time>
      </trkpt>
      <trkpt lat="43.5941" lon="2.63947">
        <ele>692.29</ele>
        <time>2016-02-21T11:06:51Z</time>
      </trkpt>
      <trkpt lat="43.59394" lon="2.63934">
        <ele>693.25</ele>
        <time>2016-02-21T11:06:52Z</time>
      </trkpt>
      <trkpt lat="43.59376" lon="2.63922">
        <ele>694.21</ele>
        <time>2016-02-21T11:06:53Z</time>
      </trkpt>
      <trkpt lat="43.59255" lon="2.63852">
        <ele>699.5</ele>
        <time>2016-02-21T11:07:00Z</time>
      </trkpt>
      <trkpt lat="43.59241" lon="2.63847">
        <ele>699.98</ele>
        <time>2016-02-21T11:07:01Z</time>
      </trkpt>
      <trkpt lat="43.59229" lon="2.63849">
        <ele>700.46</ele>
        <time>2016-02-21T11:07:02Z</time>
      </trkpt>
      <trkpt lat="43.59216" lon="2.63854">
        <ele>701.42</ele>
        <time>2016-02-21T11:07:03Z</time>
      </trkpt>
      <trkpt lat="43.59206" lon="2.63867">
        <ele>701.42</ele>
        <time>2016-02-21T11:07:04Z</time>
      </trkpt>
      <trkpt lat="43.59196" lon="2.63885">
        <ele>701.9</ele>
        <time>2016-02-21T11:07:05Z</time>
      </trkpt>
      <trkpt lat="43.59187" lon="2.63904">
        <ele>701.9</ele>
        <time>2016-02-21T11:07:06Z</time>
      </trkpt>
      <trkpt lat="43.59177" lon="2.63924">
        <ele>701.9</ele>
        <time>2016-02-21T11:07:07Z</time>
      </trkpt>
      <trkpt lat="43.59078" lon="2.64116">
        <ele>694.69</ele>
        <time>2016-02-21T11:07:16Z</time>
      </trkpt>
      <trkpt lat="43.59068" lon="2.64129">
        <ele>694.21</ele>
        <time>2016-02-21T11:07:17Z</time>
      </trkpt>
      <trkpt lat="43.59055" lon="2.64135">
        <ele>693.25</ele>
        <time>2016-02-21T11:07:18Z</time>
      </trkpt>
      <trkpt lat="43.59042" lon="2.64138">
        <ele>691.81</ele>
        <time>2016-02-21T11:07:19Z</time>
      </trkpt>
      <trkpt lat="43.59031" lon="2.64131">
        <ele>691.81</ele>
        <time>2016-02-21T11:07:20Z</time>
      </trkpt>
      <trkpt lat="43.59022" lon="2.64115">
        <ele>690.84</ele>
        <time>2016-02-21T11:07:21Z</time>
      </trkpt>
      <trkpt lat="43.59013" lon="2.64096">
        <ele>689.4</ele>
        <time>2016-02-21T11:07:22Z</time>
      </trkpt>
      <trkpt lat="43.59005" lon="2.64076">
        <ele>687.48</ele>
        <time>2016-02-21T11:07:23Z</time>
      </trkpt>
      <trkpt lat="43.58999" lon="2.64052">
        <ele>686.04</ele>
        <time>2016-02-21T11:07:24Z</time>
      </trkpt>
      <trkpt lat="43.58993" lon="2.64026">
        <ele>686.04</ele>
        <time>2016-02-21T11:07:25Z</time>
      </trkpt>
      <trkpt lat="43.5899" lon="2.63999">
        <ele>687</ele>
        <time>2016-02-21T11:07:26Z</time>
      </trkpt>
      <trkpt lat="43.58992" lon="2.63971">
        <ele>687.48</ele>
        <time>2016-02-21T11:07:27Z</time>
      </trkpt>
      <trkpt lat="43.58995" lon="2.63944">
        <ele>687.48</ele>
        <time>2016-02-21T11:07:28Z</time>
      </trkpt>
      <trkpt lat="43.59002" lon="2.63918">
        <ele>688.44</ele>
        <time>2016-02-21T11:07:29Z</time>
      </trkpt>
      <trkpt lat="43.5901" lon="2.63892">
        <ele>689.4</ele>
        <time>2016-02-21T11:07:30Z</time>
      </trkpt>
      <trkpt lat="43.59017" lon="2.63866">
        <ele>689.4</ele>
        <time>2016-02-21T11:07:31Z</time>
      </trkpt>
      <trkpt lat="43.59021" lon="2.63839">
        <ele>690.36</ele>
        <time>2016-02-21T11:07:32Z</time>
      </trkpt>
      <trkpt lat="43.59024" lon="2.63812">
        <ele>690.36</ele>
        <time>2016-02-21T11:07:33Z</time>
      </trkpt>
      <trkpt lat="43.59023" lon="2.63783">
        <ele>691.33</ele>
        <time>2016-02-21T11:07:34Z</time>
      </trkpt>
      <trkpt lat="43.59013" lon="2.63677">
        <ele>695.17</ele>
        <time>2016-02-21T11:07:38Z</time>
      </trkpt>
      <trkpt lat="43.59008" lon="2.63656">
        <ele>694.69</ele>
        <time>2016-02-21T11:07:39Z</time>
      </trkpt>
      <trkpt lat="43.58998" lon="2.6364">
        <ele>694.69</ele>
        <time>2016-02-21T11:07:40Z</time>
      </trkpt>
      <trkpt lat="43.58984" lon="2.63629">
        <ele>693.25</ele>
        <time>2016-02-21T11:07:41Z</time>
      </trkpt>
      <trkpt lat="43.58968" lon="2.63618">
        <ele>692.77</ele>
        <time>2016-02-21T11:07:42Z</time>
      </trkpt>
      <trkpt lat="43.5895" lon="2.63608">
        <ele>692.29</ele>
        <time>2016-02-21T11:07:43Z</time>
      </trkpt>
      <trkpt lat="43.58933" lon="2.63606">
        <ele>691.33</ele>
        <time>2016-02-21T11:07:44Z</time>
      </trkpt>
      <trkpt lat="43.58914" lon="2.63608">
        <ele>690.36</ele>
        <time>2016-02-21T11:07:45Z</time>
      </trkpt>
      <trkpt lat="43.58896" lon="2.63611">
        <ele>689.4</ele>
        <time>2016-02-21T11:07:46Z</time>
      </trkpt>
      <trkpt lat="43.58878" lon="2.63613">
        <ele>687.48</ele>
        <time>2016-02-21T11:07:47Z</time>
      </trkpt>
      <trkpt lat="43.5886" lon="2.6361">
        <ele>686.04</ele>
        <time>2016-02-21T11:07:48Z</time>
      </trkpt>
      <trkpt lat="43.58844" lon="2.636">
        <ele>685.08</ele>
        <time>2016-02-21T11:07:49Z</time>
      </trkpt>
      <trkpt lat="43.58828" lon="2.63584">
        <ele>684.12</ele>
        <time>2016-02-21T11:07:50Z</time>
      </trkpt>
      <trkpt lat="43.58815" lon="2.63568">
        <ele>682.19</ele>
        <time>2016-02-21T11:07:51Z</time>
      </trkpt>
      <trkpt lat="43.588" lon="2.6355">
        <ele>680.75</ele>
        <time>2016-02-21T11:07:52Z</time>
      </trkpt>
      <trkpt lat="43.58785" lon="2.63534">
        <ele>679.31</ele>
        <time>2016-02-21T11:07:53Z</time>
      </trkpt>
      <trkpt lat="43.58769" lon="2.63521">
        <ele>678.35</ele>
        <time>2016-02-21T11:07:54Z</time>
      </trkpt>
      <trkpt lat="43.58718" lon="2.63458">
        <ele>672.1</ele>
        <time>2016-02-21T11:07:59Z</time>
      </trkpt>
      <trkpt lat="43.58728" lon="2.63441">
        <ele>674.02</ele>
        <time>2016-02-21T11:08:00Z</time>
      </trkpt>
      <trkpt lat="43.58735" lon="2.63431">
        <ele>670.66</ele>
        <time>2016-02-21T11:08:01Z</time>
      </trkpt>
      <trkpt lat="43.58747" lon="2.63429">
        <ele>669.7</ele>
        <time>2016-02-21T11:08:02Z</time>
      </trkpt>
      <trkpt lat="43.58764" lon="2.63425">
        <ele>670.18</ele>
        <time>2016-02-21T11:08:03Z</time>
      </trkpt>
      <trkpt lat="43.58782" lon="2.63426">
        <ele>671.14</ele>
        <time>2016-02-21T11:08:04Z</time>
      </trkpt>
      <trkpt lat="43.58798" lon="2.63425">
        <ele>670.66</ele>
        <time>2016-02-21T11:08:05Z</time>
      </trkpt>
      <trkpt lat="43.58816" lon="2.63428">
        <ele>669.7</ele>
        <time>2016-02-21T11:08:06Z</time>
      </trkpt>
      <trkpt lat="43.58833" lon="2.63423">
        <ele>670.66</ele>
        <time>2016-02-21T11:08:07Z</time>
      </trkpt>
      <trkpt lat="43.58902" lon="2.63394">
        <ele>668.73</ele>
        <time>2016-02-21T11:08:11Z</time>
      </trkpt>
      <trkpt lat="43.58915" lon="2.6338">
        <ele>666.33</ele>
        <time>2016-02-21T11:08:12Z</time>
      </trkpt>
      <trkpt lat="43.58927" lon="2.63356">
        <ele>670.66</ele>
        <time>2016-02-21T11:08:13Z</time>
      </trkpt>
      <trkpt lat="43.58939" lon="2.63332">
        <ele>673.06</ele>
        <time>2016-02-21T11:08:14Z</time>
      </trkpt>
      <trkpt lat="43.58952" lon="2.6331">
        <ele>674.02</ele>
        <time>2016-02-21T11:08:15Z</time>
      </trkpt>
      <trkpt lat="43.58986" lon="2.63242">
        <ele>675.46</ele>
        <time>2016-02-21T11:08:18Z</time>
      </trkpt>
      <trkpt lat="43.59042" lon="2.63066">
        <ele>676.91</ele>
        <time>2016-02-21T11:08:25Z</time>
      </trkpt>
      <trkpt lat="43.59046" lon="2.6304">
        <ele>678.83</ele>
        <time>2016-02-21T11:08:26Z</time>
      </trkpt>
      <trkpt lat="43.59048" lon="2.62938">
        <ele>680.75</ele>
        <time>2016-02-21T11:08:30Z</time>
      </trkpt>
      <trkpt lat="43.59042" lon="2.62913">
        <ele>681.71</ele>
        <time>2016-02-21T11:08:31Z</time>
      </trkpt>
      <trkpt lat="43.59037" lon="2.62889">
        <ele>682.19</ele>
        <time>2016-02-21T11:08:32Z</time>
      </trkpt>
      <trkpt lat="43.59029" lon="2.62867">
        <ele>681.71</ele>
        <time>2016-02-21T11:08:33Z</time>
      </trkpt>
      <trkpt lat="43.59013" lon="2.62852">
        <ele>681.23</ele>
        <time>2016-02-21T11:08:34Z</time>
      </trkpt>
      <trkpt lat="43.58999" lon="2.62838">
        <ele>680.75</ele>
        <time>2016-02-21T11:08:35Z</time>
      </trkpt>
      <trkpt lat="43.58983" lon="2.62827">
        <ele>680.75</ele>
        <time>2016-02-21T11:08:36Z</time>
      </trkpt>
      <trkpt lat="43.58964" lon="2.62825">
        <ele>680.27</ele>
        <time>2016-02-21T11:08:37Z</time>
      </trkpt>
      <trkpt lat="43.58943" lon="2.62817">
        <ele>679.79</ele>
        <time>2016-02-21T11:08:38Z</time>
      </trkpt>
      <trkpt lat="43.58926" lon="2.62808">
        <ele>679.31</ele>
        <time>2016-02-21T11:08:39Z</time>
      </trkpt>
      <trkpt lat="43.58881" lon="2.62768">
        <ele>679.31</ele>
        <time>2016-02-21T11:08:42Z</time>
      </trkpt>
      <trkpt lat="43.58868" lon="2.62749">
        <ele>679.31</ele>
        <time>2016-02-21T11:08:43Z</time>
      </trkpt>
      <trkpt lat="43.58859" lon="2.62726">
        <ele>677.39</ele>
        <time>2016-02-21T11:08:44Z</time>
      </trkpt>
      <trkpt lat="43.58851" lon="2.62705">
        <ele>676.42</ele>
        <time>2016-02-21T11:08:45Z</time>
      </trkpt>
      <trkpt lat="43.58846" lon="2.62682">
        <ele>675.94</ele>
        <time>2016-02-21T11:08:46Z</time>
      </trkpt>
      <trkpt lat="43.58842" lon="2.62658">
        <ele>675.94</ele>
        <time>2016-02-21T11:08:47Z</time>
      </trkpt>
      <trkpt lat="43.58842" lon="2.62632">
        <ele>676.42</ele>
        <time>2016-02-21T11:08:48Z</time>
      </trkpt>
      <trkpt lat="43.58842" lon="2.62605">
        <ele>676.91</ele>
        <time>2016-02-21T11:08:49Z</time>
      </trkpt>
      <trkpt lat="43.58841" lon="2.62576">
        <ele>676.91</ele>
        <time>2016-02-21T11:08:50Z</time>
      </trkpt>
      <trkpt lat="43.58851" lon="2.62326">
        <ele>683.15</ele>
        <time>2016-02-21T11:08:59Z</time>
      </trkpt>
      <trkpt lat="43.58858" lon="2.62299">
        <ele>683.63</ele>
        <time>2016-02-21T11:09:00Z</time>
      </trkpt>
      <trkpt lat="43.58863" lon="2.62267">
        <ele>686.52</ele>
        <time>2016-02-21T11:09:01Z</time>
      </trkpt>
      <trkpt lat="43.58864" lon="2.62239">
        <ele>688.44</ele>
        <time>2016-02-21T11:09:02Z</time>
      </trkpt>
      <trkpt lat="43.58866" lon="2.6221">
        <ele>689.88</ele>
        <time>2016-02-21T11:09:03Z</time>
      </trkpt>
      <trkpt lat="43.58865" lon="2.62181">
        <ele>690.36</ele>
        <time>2016-02-21T11:09:04Z</time>
      </trkpt>
      <trkpt lat="43.58863" lon="2.62153">
        <ele>690.36</ele>
        <time>2016-02-21T11:09:05Z</time>
      </trkpt>
      <trkpt lat="43.58859" lon="2.62126">
        <ele>689.4</ele>
        <time>2016-02-21T11:09:06Z</time>
      </trkpt>
      <trkpt lat="43.58851" lon="2.62009">
        <ele>685.56</ele>
        <time>2016-02-21T11:09:12Z</time>
      </trkpt>
      <trkpt lat="43.58858" lon="2.62007">
        <ele>686.52</ele>
        <time>2016-02-21T11:09:13Z</time>
      </trkpt>
      <trkpt lat="43.58869" lon="2.62001">
        <ele>684.12</ele>
        <time>2016-02-21T11:09:14Z</time>
      </trkpt>
      <trkpt lat="43.58882" lon="2.61987">
        <ele>681.71</ele>
        <time>2016-02-21T11:09:15Z</time>
      </trkpt>
      <trkpt lat="43.58894" lon="2.61981">
        <ele>681.23</ele>
        <time>2016-02-21T11:09:16Z</time>
      </trkpt>
      <trkpt lat="43.58907" lon="2.61965">
        <ele>680.75</ele>
        <time>2016-02-21T11:09:17Z</time>
      </trkpt>
      <trkpt lat="43.5893" lon="2.61927">
        <ele>678.35</ele>
        <time>2016-02-21T11:09:19Z</time>
      </trkpt>
      <trkpt lat="43.58936" lon="2.61905">
        <ele>678.35</ele>
        <time>2016-02-21T11:09:20Z</time>
      </trkpt>
      <trkpt lat="43.58941" lon="2.61881">
        <ele>676.91</ele>
        <time>2016-02-21T11:09:21Z</time>
      </trkpt>
      <trkpt lat="43.58939" lon="2.61856">
        <ele>674.5</ele>
        <time>2016-02-21T11:09:22Z</time>
      </trkpt>
      <trkpt lat="43.58936" lon="2.61829">
        <ele>673.54</ele>
        <time>2016-02-21T11:09:23Z</time>
      </trkpt>
      <trkpt lat="43.58936" lon="2.61806">
        <ele>671.62</ele>
        <time>2016-02-21T11:09:24Z</time>
      </trkpt>
      <trkpt lat="43.5893" lon="2.61784">
        <ele>671.14</ele>
        <time>2016-02-21T11:09:25Z</time>
      </trkpt>
      <trkpt lat="43.58922" lon="2.61761">
        <ele>670.66</ele>
        <time>2016-02-21T11:09:26Z</time>
      </trkpt>
      <trkpt lat="43.5891" lon="2.61741">
        <ele>668.73</ele>
        <time>2016-02-21T11:09:27Z</time>
      </trkpt>
      <trkpt lat="43.58896" lon="2.61722">
        <ele>668.25</ele>
        <time>2016-02-21T11:09:28Z</time>
      </trkpt>
      <trkpt lat="43.58883" lon="2.617">
        <ele>667.77</ele>
        <time>2016-02-21T11:09:29Z</time>
      </trkpt>
      <trkpt lat="43.58843" lon="2.61588">
        <ele>670.66</ele>
        <time>2016-02-21T11:09:34Z</time>
      </trkpt>
      <trkpt lat="43.58848" lon="2.61569">
        <ele>672.1</ele>
        <time>2016-02-21T11:09:35Z</time>
      </trkpt>
      <trkpt lat="43.5886" lon="2.61547">
        <ele>675.46</ele>
        <time>2016-02-21T11:09:36Z</time>
      </trkpt>
      <trkpt lat="43.58871" lon="2.61525">
        <ele>676.42</ele>
        <time>2016-02-21T11:09:37Z</time>
      </trkpt>
      <trkpt lat="43.58882" lon="2.615">
        <ele>679.31</ele>
        <time>2016-02-21T11:09:38Z</time>
      </trkpt>
      <trkpt lat="43.58895" lon="2.61476">
        <ele>681.23</ele>
        <time>2016-02-21T11:09:39Z</time>
      </trkpt>
      <trkpt lat="43.58905" lon="2.61452">
        <ele>683.15</ele>
        <time>2016-02-21T11:09:40Z</time>
      </trkpt>
      <trkpt lat="43.58934" lon="2.61247">
        <ele>676.91</ele>
        <time>2016-02-21T11:09:47Z</time>
      </trkpt>
      <trkpt lat="43.58932" lon="2.61218">
        <ele>676.91</ele>
        <time>2016-02-21T11:09:48Z</time>
      </trkpt>
      <trkpt lat="43.58925" lon="2.61192">
        <ele>676.91</ele>
        <time>2016-02-21T11:09:49Z</time>
      </trkpt>
      <trkpt lat="43.58917" lon="2.61168">
        <ele>675.94</ele>
        <time>2016-02-21T11:09:50Z</time>
      </trkpt>
      <trkpt lat="43.58904" lon="2.61146">
        <ele>674.5</ele>
        <time>2016-02-21T11:09:51Z</time>
      </trkpt>
      <trkpt lat="43.58888" lon="2.61125">
        <ele>673.06</ele>
        <time>2016-02-21T11:09:52Z</time>
      </trkpt>
      <trkpt lat="43.58874" lon="2.61102">
        <ele>672.1</ele>
        <time>2016-02-21T11:09:53Z</time>
      </trkpt>
      <trkpt lat="43.58804" lon="2.61036">
        <ele>670.18</ele>
        <time>2016-02-21T11:09:58Z</time>
      </trkpt>
      <trkpt lat="43.58787" lon="2.61037">
        <ele>670.18</ele>
        <time>2016-02-21T11:09:59Z</time>
      </trkpt>
      <trkpt lat="43.58771" lon="2.61037">
        <ele>669.7</ele>
        <time>2016-02-21T11:10:00Z</time>
      </trkpt>
      <trkpt lat="43.58753" lon="2.61042">
        <ele>669.22</ele>
        <time>2016-02-21T11:10:01Z</time>
      </trkpt>
      <trkpt lat="43.58735" lon="2.61051">
        <ele>668.73</ele>
        <time>2016-02-21T11:10:02Z</time>
      </trkpt>
      <trkpt lat="43.58718" lon="2.61062">
        <ele>667.77</ele>
        <time>2016-02-21T11:10:03Z</time>
      </trkpt>
      <trkpt lat="43.58699" lon="2.61074">
        <ele>668.73</ele>
        <time>2016-02-21T11:10:04Z</time>
      </trkpt>
      <trkpt lat="43.58658" lon="2.61077">
        <ele>670.18</ele>
        <time>2016-02-21T11:10:07Z</time>
      </trkpt>
      <trkpt lat="43.58651" lon="2.61066">
        <ele>668.73</ele>
        <time>2016-02-21T11:10:08Z</time>
      </trkpt>
      <trkpt lat="43.58647" lon="2.61053">
        <ele>668.25</ele>
        <time>2016-02-21T11:10:09Z</time>
      </trkpt>
      <trkpt lat="43.58645" lon="2.61037">
        <ele>667.29</ele>
        <time>2016-02-21T11:10:10Z</time>
      </trkpt>
      <trkpt lat="43.58647" lon="2.61022">
        <ele>667.77</ele>
        <time>2016-02-21T11:10:11Z</time>
      </trkpt>
      <trkpt lat="43.58657" lon="2.61007">
        <ele>668.25</ele>
        <time>2016-02-21T11:10:12Z</time>
      </trkpt>
      <trkpt lat="43.58671" lon="2.60994">
        <ele>668.73</ele>
        <time>2016-02-21T11:10:13Z</time>
      </trkpt>
      <trkpt lat="43.58687" lon="2.60984">
        <ele>669.7</ele>
        <time>2016-02-21T11:10:14Z</time>
      </trkpt>
      <trkpt lat="43.58708" lon="2.6098">
        <ele>670.18</ele>
        <time>2016-02-21T11:10:15Z</time>
      </trkpt>
      <trkpt lat="43.58729" lon="2.60972">
        <ele>670.18</ele>
        <time>2016-02-21T11:10:16Z</time>
      </trkpt>
      <trkpt lat="43.58751" lon="2.60965">
        <ele>671.62</ele>
        <time>2016-02-21T11:10:17Z</time>
      </trkpt>
      <trkpt lat="43.58771" lon="2.60957">
        <ele>671.14</ele>
        <time>2016-02-21T11:10:18Z</time>
      </trkpt>
      <trkpt lat="43.5888" lon="2.60874">
        <ele>672.1</ele>
        <time>2016-02-21T11:10:25Z</time>
      </trkpt>
      <trkpt lat="43.58895" lon="2.60834">
        <ele>672.1</ele>
        <time>2016-02-21T11:10:27Z</time>
      </trkpt>
      <trkpt lat="43.58897" lon="2.60811">
        <ele>673.06</ele>
        <time>2016-02-21T11:10:28Z</time>
      </trkpt>
      <trkpt lat="43.58895" lon="2.60784">
        <ele>675.46</ele>
        <time>2016-02-21T11:10:29Z</time>
      </trkpt>
      <trkpt lat="43.58891" lon="2.60762">
        <ele>673.54</ele>
        <time>2016-02-21T11:10:30Z</time>
      </trkpt>
      <trkpt lat="43.58886" lon="2.60736">
        <ele>676.42</ele>
        <time>2016-02-21T11:10:31Z</time>
      </trkpt>
      <trkpt lat="43.58879" lon="2.6071">
        <ele>677.39</ele>
        <time>2016-02-21T11:10:32Z</time>
      </trkpt>
      <trkpt lat="43.58874" lon="2.60683">
        <ele>678.35</ele>
        <time>2016-02-21T11:10:33Z</time>
      </trkpt>
      <trkpt lat="43.58868" lon="2.60495">
        <ele>679.31</ele>
        <time>2016-02-21T11:10:40Z</time>
      </trkpt>
      <trkpt lat="43.58864" lon="2.6047">
        <ele>679.31</ele>
        <time>2016-02-21T11:10:41Z</time>
      </trkpt>
      <trkpt lat="43.58857" lon="2.60445">
        <ele>681.23</ele>
        <time>2016-02-21T11:10:42Z</time>
      </trkpt>
      <trkpt lat="43.58851" lon="2.60424">
        <ele>681.23</ele>
        <time>2016-02-21T11:10:43Z</time>
      </trkpt>
      <trkpt lat="43.58842" lon="2.60403">
        <ele>682.19</ele>
        <time>2016-02-21T11:10:44Z</time>
      </trkpt>
      <trkpt lat="43.58832" lon="2.60384">
        <ele>681.23</ele>
        <time>2016-02-21T11:10:45Z</time>
      </trkpt>
      <trkpt lat="43.58823" lon="2.60364">
        <ele>681.71</ele>
        <time>2016-02-21T11:10:46Z</time>
      </trkpt>
      <trkpt lat="43.58816" lon="2.60342">
        <ele>680.75</ele>
        <time>2016-02-21T11:10:47Z</time>
      </trkpt>
      <trkpt lat="43.58813" lon="2.6032">
        <ele>680.27</ele>
        <time>2016-02-21T11:10:48Z</time>
      </trkpt>
      <trkpt lat="43.58813" lon="2.60299">
        <ele>679.79</ele>
        <time>2016-02-21T11:10:49Z</time>
      </trkpt>
      <trkpt lat="43.58819" lon="2.60276">
        <ele>679.79</ele>
        <time>2016-02-21T11:10:50Z</time>
      </trkpt>
      <trkpt lat="43.5883" lon="2.60254">
        <ele>679.31</ele>
        <time>2016-02-21T11:10:51Z</time>
      </trkpt>
      <trkpt lat="43.58842" lon="2.60232">
        <ele>680.27</ele>
        <time>2016-02-21T11:10:52Z</time>
      </trkpt>
      <trkpt lat="43.58856" lon="2.60215">
        <ele>679.79</ele>
        <time>2016-02-21T11:10:53Z</time>
      </trkpt>
      <trkpt lat="43.58875" lon="2.60211">
        <ele>677.39</ele>
        <time>2016-02-21T11:10:54Z</time>
      </trkpt>
      <trkpt lat="43.58894" lon="2.60207">
        <ele>676.42</ele>
        <time>2016-02-21T11:10:55Z</time>
      </trkpt>
      <trkpt lat="43.58914" lon="2.60208">
        <ele>675.46</ele>
        <time>2016-02-21T11:10:56Z</time>
      </trkpt>
      <trkpt lat="43.58932" lon="2.60213">
        <ele>675.46</ele>
        <time>2016-02-21T11:10:57Z</time>
      </trkpt>
      <trkpt lat="43.58949" lon="2.60224">
        <ele>674.5</ele>
        <time>2016-02-21T11:10:58Z</time>
      </trkpt>
      <trkpt lat="43.58962" lon="2.6024">
        <ele>672.1</ele>
        <time>2016-02-21T11:10:59Z</time>
      </trkpt>
      <trkpt lat="43.58977" lon="2.60255">
        <ele>671.14</ele>
        <time>2016-02-21T11:11:00Z</time>
      </trkpt>
      <trkpt lat="43.58988" lon="2.60278">
        <ele>671.14</ele>
        <time>2016-02-21T11:11:01Z</time>
      </trkpt>
      <trkpt lat="43.58999" lon="2.603">
        <ele>670.66</ele>
        <time>2016-02-21T11:11:02Z</time>
      </trkpt>
      <trkpt lat="43.59011" lon="2.60322">
        <ele>669.7</ele>
        <time>2016-02-21T11:11:03Z</time>
      </trkpt>
      <trkpt lat="43.59022" lon="2.60346">
        <ele>667.29</ele>
        <time>2016-02-21T11:11:04Z</time>
      </trkpt>
      <trkpt lat="43.59033" lon="2.6037">
        <ele>667.29</ele>
        <time>2016-02-21T11:11:05Z</time>
      </trkpt>
      <trkpt lat="43.59065" lon="2.60443">
        <ele>666.33</ele>
        <time>2016-02-21T11:11:09Z</time>
      </trkpt>
      <trkpt lat="43.59074" lon="2.6045">
        <ele>666.81</ele>
        <time>2016-02-21T11:11:10Z</time>
      </trkpt>
      <trkpt lat="43.59084" lon="2.60448">
        <ele>667.29</ele>
        <time>2016-02-21T11:11:11Z</time>
      </trkpt>
      <trkpt lat="43.59091" lon="2.60436">
        <ele>666.33</ele>
        <time>2016-02-21T11:11:12Z</time>
      </trkpt>
      <trkpt lat="43.59098" lon="2.6041">
        <ele>664.89</ele>
        <time>2016-02-21T11:11:14Z</time>
      </trkpt>
      <trkpt lat="43.59096" lon="2.60394">
        <ele>666.33</ele>
        <time>2016-02-21T11:11:15Z</time>
      </trkpt>
      <trkpt lat="43.59087" lon="2.60374">
        <ele>667.77</ele>
        <time>2016-02-21T11:11:16Z</time>
      </trkpt>
      <trkpt lat="43.59078" lon="2.60352">
        <ele>668.25</ele>
        <time>2016-02-21T11:11:17Z</time>
      </trkpt>
      <trkpt lat="43.59069" lon="2.6033">
        <ele>670.18</ele>
        <time>2016-02-21T11:11:18Z</time>
      </trkpt>
      <trkpt lat="43.59062" lon="2.60308">
        <ele>671.62</ele>
        <time>2016-02-21T11:11:19Z</time>
      </trkpt>
      <trkpt lat="43.59053" lon="2.60265">
        <ele>675.46</ele>
        <time>2016-02-21T11:11:21Z</time>
      </trkpt>
      <trkpt lat="43.59048" lon="2.60221">
        <ele>678.35</ele>
        <time>2016-02-21T11:11:23Z</time>
      </trkpt>
      <trkpt lat="43.59047" lon="2.602">
        <ele>679.79</ele>
        <time>2016-02-21T11:11:24Z</time>
      </trkpt>
      <trkpt lat="43.59048" lon="2.60178">
        <ele>681.71</ele>
        <time>2016-02-21T11:11:25Z</time>
      </trkpt>
      <trkpt lat="43.5905" lon="2.60155">
        <ele>683.63</ele>
        <time>2016-02-21T11:11:26Z</time>
      </trkpt>
      <trkpt lat="43.59054" lon="2.60133">
        <ele>685.08</ele>
        <time>2016-02-21T11:11:27Z</time>
      </trkpt>
      <trkpt lat="43.59058" lon="2.6011">
        <ele>687.48</ele>
        <time>2016-02-21T11:11:28Z</time>
      </trkpt>
      <trkpt lat="43.59061" lon="2.60064">
        <ele>689.4</ele>
        <time>2016-02-21T11:11:30Z</time>
      </trkpt>
      <trkpt lat="43.59061" lon="2.60002">
        <ele>695.17</ele>
        <time>2016-02-21T11:11:34Z</time>
      </trkpt>
      <trkpt lat="43.59063" lon="2.59994">
        <ele>696.13</ele>
        <time>2016-02-21T11:11:35Z</time>
      </trkpt>
      <trkpt lat="43.59066" lon="2.5999">
        <ele>696.13</ele>
        <time>2016-02-21T11:11:36Z</time>
      </trkpt>
      <trkpt lat="43.59069" lon="2.59987">
        <ele>695.65</ele>
        <time>2016-02-21T11:11:37Z</time>
      </trkpt>
      <trkpt lat="43.59072" lon="2.59985">
        <ele>693.73</ele>
        <time>2016-02-21T11:11:38Z</time>
      </trkpt>
      <trkpt lat="43.59085" lon="2.59968">
        <ele>693.73</ele>
        <time>2016-02-21T11:11:41Z</time>
      </trkpt>
      <trkpt lat="43.59089" lon="2.59957">
        <ele>693.73</ele>
        <time>2016-02-21T11:11:42Z</time>
      </trkpt>
      <trkpt lat="43.5909" lon="2.59944">
        <ele>693.25</ele>
        <time>2016-02-21T11:11:43Z</time>
      </trkpt>
      <trkpt lat="43.59088" lon="2.5993">
        <ele>692.77</ele>
        <time>2016-02-21T11:11:44Z</time>
      </trkpt>
      <trkpt lat="43.59082" lon="2.59915">
        <ele>692.77</ele>
        <time>2016-02-21T11:11:45Z</time>
      </trkpt>
      <trkpt lat="43.59077" lon="2.599">
        <ele>692.77</ele>
        <time>2016-02-21T11:11:46Z</time>
      </trkpt>
      <trkpt lat="43.5907" lon="2.59884">
        <ele>692.77</ele>
        <time>2016-02-21T11:11:47Z</time>
      </trkpt>
      <trkpt lat="43.59042" lon="2.59797">
        <ele>690.84</ele>
        <time>2016-02-21T11:11:52Z</time>
      </trkpt>
      <trkpt lat="43.59039" lon="2.59776">
        <ele>690.36</ele>
        <time>2016-02-21T11:11:53Z</time>
      </trkpt>
      <trkpt lat="43.59038" lon="2.59755">
        <ele>690.36</ele>
        <time>2016-02-21T11:11:54Z</time>
      </trkpt>
      <trkpt lat="43.59041" lon="2.59734">
        <ele>690.36</ele>
        <time>2016-02-21T11:11:55Z</time>
      </trkpt>
      <trkpt lat="43.59046" lon="2.59712">
        <ele>690.36</ele>
        <time>2016-02-21T11:11:56Z</time>
      </trkpt>
      <trkpt lat="43.59051" lon="2.59683">
        <ele>692.29</ele>
        <time>2016-02-21T11:11:57Z</time>
      </trkpt>
      <trkpt lat="43.5906" lon="2.5966">
        <ele>693.73</ele>
        <time>2016-02-21T11:11:58Z</time>
      </trkpt>
      <trkpt lat="43.59069" lon="2.59634">
        <ele>696.13</ele>
        <time>2016-02-21T11:11:59Z</time>
      </trkpt>
      <trkpt lat="43.59077" lon="2.5961">
        <ele>697.09</ele>
        <time>2016-02-21T11:12:00Z</time>
      </trkpt>
      <trkpt lat="43.59108" lon="2.59427">
        <ele>697.57</ele>
        <time>2016-02-21T11:12:07Z</time>
      </trkpt>
      <trkpt lat="43.59126" lon="2.59281">
        <ele>694.21</ele>
        <time>2016-02-21T11:12:13Z</time>
      </trkpt>
      <trkpt lat="43.59136" lon="2.59268">
        <ele>693.25</ele>
        <time>2016-02-21T11:12:14Z</time>
      </trkpt>
      <trkpt lat="43.5915" lon="2.59259">
        <ele>691.81</ele>
        <time>2016-02-21T11:12:15Z</time>
      </trkpt>
      <trkpt lat="43.59165" lon="2.59253">
        <ele>690.84</ele>
        <time>2016-02-21T11:12:16Z</time>
      </trkpt>
      <trkpt lat="43.59183" lon="2.5925">
        <ele>690.36</ele>
        <time>2016-02-21T11:12:17Z</time>
      </trkpt>
      <trkpt lat="43.59201" lon="2.59247">
        <ele>689.4</ele>
        <time>2016-02-21T11:12:18Z</time>
      </trkpt>
      <trkpt lat="43.5922" lon="2.59245">
        <ele>687.48</ele>
        <time>2016-02-21T11:12:19Z</time>
      </trkpt>
      <trkpt lat="43.5924" lon="2.59243">
        <ele>687</ele>
        <time>2016-02-21T11:12:20Z</time>
      </trkpt>
      <trkpt lat="43.59361" lon="2.59257">
        <ele>681.23</ele>
        <time>2016-02-21T11:12:27Z</time>
      </trkpt>
      <trkpt lat="43.59371" lon="2.59274">
        <ele>680.75</ele>
        <time>2016-02-21T11:12:28Z</time>
      </trkpt>
      <trkpt lat="43.59378" lon="2.5929">
        <ele>679.79</ele>
        <time>2016-02-21T11:12:29Z</time>
      </trkpt>
      <trkpt lat="43.5938" lon="2.59311">
        <ele>677.39</ele>
        <time>2016-02-21T11:12:30Z</time>
      </trkpt>
      <trkpt lat="43.59379" lon="2.59335">
        <ele>675.46</ele>
        <time>2016-02-21T11:12:31Z</time>
      </trkpt>
      <trkpt lat="43.59375" lon="2.5936">
        <ele>674.02</ele>
        <time>2016-02-21T11:12:32Z</time>
      </trkpt>
      <trkpt lat="43.5937" lon="2.59386">
        <ele>673.54</ele>
        <time>2016-02-21T11:12:33Z</time>
      </trkpt>
      <trkpt lat="43.59367" lon="2.59411">
        <ele>673.06</ele>
        <time>2016-02-21T11:12:34Z</time>
      </trkpt>
      <trkpt lat="43.59366" lon="2.59473">
        <ele>671.14</ele>
        <time>2016-02-21T11:12:37Z</time>
      </trkpt>
      <trkpt lat="43.59371" lon="2.59487">
        <ele>670.18</ele>
        <time>2016-02-21T11:12:38Z</time>
      </trkpt>
      <trkpt lat="43.5938" lon="2.59496">
        <ele>669.22</ele>
        <time>2016-02-21T11:12:39Z</time>
      </trkpt>
      <trkpt lat="43.5939" lon="2.59504">
        <ele>667.77</ele>
        <time>2016-02-21T11:12:40Z</time>
      </trkpt>
      <trkpt lat="43.59403" lon="2.59507">
        <ele>666.81</ele>
        <time>2016-02-21T11:12:41Z</time>
      </trkpt>
      <trkpt lat="43.59416" lon="2.59509">
        <ele>665.85</ele>
        <time>2016-02-21T11:12:42Z</time>
      </trkpt>
      <trkpt lat="43.59431" lon="2.5951">
        <ele>664.89</ele>
        <time>2016-02-21T11:12:43Z</time>
      </trkpt>
      <trkpt lat="43.59446" lon="2.59509">
        <ele>663.93</ele>
        <time>2016-02-21T11:12:44Z</time>
      </trkpt>
      <trkpt lat="43.59459" lon="2.59508">
        <ele>662.97</ele>
        <time>2016-02-21T11:12:45Z</time>
      </trkpt>
      <trkpt lat="43.5947" lon="2.59508">
        <ele>662.97</ele>
        <time>2016-02-21T11:12:46Z</time>
      </trkpt>
      <trkpt lat="43.59488" lon="2.59506">
        <ele>662.49</ele>
        <time>2016-02-21T11:12:48Z</time>
      </trkpt>
      <trkpt lat="43.59495" lon="2.59509">
        <ele>662.01</ele>
        <time>2016-02-21T11:12:49Z</time>
      </trkpt>
      <trkpt lat="43.595" lon="2.59514">
        <ele>661.04</ele>
        <time>2016-02-21T11:12:50Z</time>
      </trkpt>
      <trkpt lat="43.59504" lon="2.59521">
        <ele>662.01</ele>
        <time>2016-02-21T11:12:51Z</time>
      </trkpt>
      <trkpt lat="43.59506" lon="2.59529">
        <ele>662.49</ele>
        <time>2016-02-21T11:12:52Z</time>
      </trkpt>
      <trkpt lat="43.59508" lon="2.59536">
        <ele>662.49</ele>
        <time>2016-02-21T11:12:53Z</time>
      </trkpt>
      <trkpt lat="43.59531" lon="2.59636">
        <ele>663.93</ele>
        <time>2016-02-21T11:13:04Z</time>
      </trkpt>
      <trkpt lat="43.59555" lon="2.59741">
        <ele>665.37</ele>
        <time>2016-02-21T11:13:14Z</time>
      </trkpt>
      <trkpt lat="43.59556" lon="2.59755">
        <ele>665.37</ele>
        <time>2016-02-21T11:13:15Z</time>
      </trkpt>
      <trkpt lat="43.59556" lon="2.59771">
        <ele>665.37</ele>
        <time>2016-02-21T11:13:16Z</time>
      </trkpt>
      <trkpt lat="43.59555" lon="2.59788">
        <ele>665.37</ele>
        <time>2016-02-21T11:13:17Z</time>
      </trkpt>
      <trkpt lat="43.59553" lon="2.59805">
        <ele>665.37</ele>
        <time>2016-02-21T11:13:18Z</time>
      </trkpt>
      <trkpt lat="43.59549" lon="2.5988">
        <ele>666.33</ele>
        <time>2016-02-21T11:13:22Z</time>
      </trkpt>
      <trkpt lat="43.5955" lon="2.599">
        <ele>666.33</ele>
        <time>2016-02-21T11:13:23Z</time>
      </trkpt>
      <trkpt lat="43.59554" lon="2.5992">
        <ele>667.29</ele>
        <time>2016-02-21T11:13:24Z</time>
      </trkpt>
      <trkpt lat="43.5957" lon="2.59996">
        <ele>670.66</ele>
        <time>2016-02-21T11:13:28Z</time>
      </trkpt>
      <trkpt lat="43.59576" lon="2.60011">
        <ele>671.14</ele>
        <time>2016-02-21T11:13:29Z</time>
      </trkpt>
      <trkpt lat="43.59584" lon="2.60024">
        <ele>671.62</ele>
        <time>2016-02-21T11:13:30Z</time>
      </trkpt>
      <trkpt lat="43.59595" lon="2.60029">
        <ele>672.1</ele>
        <time>2016-02-21T11:13:31Z</time>
      </trkpt>
      <trkpt lat="43.59607" lon="2.60029">
        <ele>672.58</ele>
        <time>2016-02-21T11:13:32Z</time>
      </trkpt>
      <trkpt lat="43.59621" lon="2.60025">
        <ele>672.58</ele>
        <time>2016-02-21T11:13:33Z</time>
      </trkpt>
      <trkpt lat="43.59635" lon="2.60016">
        <ele>674.5</ele>
        <time>2016-02-21T11:13:34Z</time>
      </trkpt>
      <trkpt lat="43.59651" lon="2.60014">
        <ele>675.46</ele>
        <time>2016-02-21T11:13:35Z</time>
      </trkpt>
      <trkpt lat="43.59666" lon="2.6001">
        <ele>675.46</ele>
        <time>2016-02-21T11:13:36Z</time>
      </trkpt>
      <trkpt lat="43.59715" lon="2.59986">
        <ele>677.87</ele>
        <time>2016-02-21T11:13:40Z</time>
      </trkpt>
      <trkpt lat="43.59721" lon="2.59972">
        <ele>680.75</ele>
        <time>2016-02-21T11:13:41Z</time>
      </trkpt>
      <trkpt lat="43.59729" lon="2.59959">
        <ele>681.71</ele>
        <time>2016-02-21T11:13:42Z</time>
      </trkpt>
      <trkpt lat="43.59738" lon="2.59947">
        <ele>682.19</ele>
        <time>2016-02-21T11:13:43Z</time>
      </trkpt>
      <trkpt lat="43.59745" lon="2.59928">
        <ele>680.75</ele>
        <time>2016-02-21T11:13:44Z</time>
      </trkpt>
      <trkpt lat="43.59753" lon="2.59905">
        <ele>681.23</ele>
        <time>2016-02-21T11:13:45Z</time>
      </trkpt>
      <trkpt lat="43.59761" lon="2.5988">
        <ele>680.27</ele>
        <time>2016-02-21T11:13:46Z</time>
      </trkpt>
      <trkpt lat="43.59768" lon="2.59854">
        <ele>685.08</ele>
        <time>2016-02-21T11:13:47Z</time>
      </trkpt>
      <trkpt lat="43.59819" lon="2.5974">
        <ele>690.84</ele>
        <time>2016-02-21T11:13:53Z</time>
      </trkpt>
      <trkpt lat="43.59834" lon="2.59738">
        <ele>691.81</ele>
        <time>2016-02-21T11:13:54Z</time>
      </trkpt>
      <trkpt lat="43.59853" lon="2.59741">
        <ele>694.21</ele>
        <time>2016-02-21T11:13:55Z</time>
      </trkpt>
      <trkpt lat="43.59869" lon="2.59745">
        <ele>694.69</ele>
        <time>2016-02-21T11:13:56Z</time>
      </trkpt>
      <trkpt lat="43.59884" lon="2.59753">
        <ele>694.69</ele>
        <time>2016-02-21T11:13:57Z</time>
      </trkpt>
      <trkpt lat="43.59914" lon="2.59778">
        <ele>694.21</ele>
        <time>2016-02-21T11:13:59Z</time>
      </trkpt>
      <trkpt lat="43.59924" lon="2.59798">
        <ele>695.17</ele>
        <time>2016-02-21T11:14:00Z</time>
      </trkpt>
      <trkpt lat="43.59938" lon="2.59811">
        <ele>696.13</ele>
        <time>2016-02-21T11:14:01Z</time>
      </trkpt>
      <trkpt lat="43.60051" lon="2.59892">
        <ele>704.3</ele>
        <time>2016-02-21T11:14:08Z</time>
      </trkpt>
      <trkpt lat="43.60091" lon="2.59914">
        <ele>708.15</ele>
        <time>2016-02-21T11:14:11Z</time>
      </trkpt>
      <trkpt lat="43.60106" lon="2.59912">
        <ele>709.59</ele>
        <time>2016-02-21T11:14:12Z</time>
      </trkpt>
      <trkpt lat="43.60123" lon="2.59908">
        <ele>711.03</ele>
        <time>2016-02-21T11:14:13Z</time>
      </trkpt>
      <trkpt lat="43.60222" lon="2.59902">
        <ele>722.57</ele>
        <time>2016-02-21T11:14:19Z</time>
      </trkpt>
      <trkpt lat="43.60238" lon="2.59911">
        <ele>724.01</ele>
        <time>2016-02-21T11:14:20Z</time>
      </trkpt>
      <trkpt lat="43.60252" lon="2.5992">
        <ele>725.93</ele>
        <time>2016-02-21T11:14:21Z</time>
      </trkpt>
      <trkpt lat="43.60265" lon="2.59932">
        <ele>725.93</ele>
        <time>2016-02-21T11:14:22Z</time>
      </trkpt>
      <trkpt lat="43.6028" lon="2.59941">
        <ele>726.89</ele>
        <time>2016-02-21T11:14:23Z</time>
      </trkpt>
      <trkpt lat="43.60312" lon="2.59952">
        <ele>730.26</ele>
        <time>2016-02-21T11:14:25Z</time>
      </trkpt>
      <trkpt lat="43.60327" lon="2.59953">
        <ele>732.18</ele>
        <time>2016-02-21T11:14:26Z</time>
      </trkpt>
      <trkpt lat="43.60382" lon="2.59968">
        <ele>737.47</ele>
        <time>2016-02-21T11:14:30Z</time>
      </trkpt>
      <trkpt lat="43.60407" lon="2.59975">
        <ele>740.35</ele>
        <time>2016-02-21T11:14:32Z</time>
      </trkpt>
      <trkpt lat="43.60417" lon="2.59966">
        <ele>741.79</ele>
        <time>2016-02-21T11:14:33Z</time>
      </trkpt>
      <trkpt lat="43.60427" lon="2.59956">
        <ele>742.76</ele>
        <time>2016-02-21T11:14:34Z</time>
      </trkpt>
      <trkpt lat="43.60438" lon="2.59945">
        <ele>743.72</ele>
        <time>2016-02-21T11:14:35Z</time>
      </trkpt>
      <trkpt lat="43.6045" lon="2.59934">
        <ele>746.12</ele>
        <time>2016-02-21T11:14:36Z</time>
      </trkpt>
      <trkpt lat="43.6046" lon="2.59922">
        <ele>748.04</ele>
        <time>2016-02-21T11:14:37Z</time>
      </trkpt>
      <trkpt lat="43.60472" lon="2.59911">
        <ele>749.49</ele>
        <time>2016-02-21T11:14:38Z</time>
      </trkpt>
      <trkpt lat="43.60504" lon="2.59896">
        <ele>752.37</ele>
        <time>2016-02-21T11:14:41Z</time>
      </trkpt>
      <trkpt lat="43.60516" lon="2.599">
        <ele>750.93</ele>
        <time>2016-02-21T11:14:42Z</time>
      </trkpt>
      <trkpt lat="43.60529" lon="2.59906">
        <ele>750.93</ele>
        <time>2016-02-21T11:14:43Z</time>
      </trkpt>
      <trkpt lat="43.6054" lon="2.59909">
        <ele>750.93</ele>
        <time>2016-02-21T11:14:44Z</time>
      </trkpt>
      <trkpt lat="43.60551" lon="2.59908">
        <ele>751.41</ele>
        <time>2016-02-21T11:14:45Z</time>
      </trkpt>
      <trkpt lat="43.60561" lon="2.59906">
        <ele>751.41</ele>
        <time>2016-02-21T11:14:46Z</time>
      </trkpt>
      <trkpt lat="43.6057" lon="2.59906">
        <ele>750.93</ele>
        <time>2016-02-21T11:14:47Z</time>
      </trkpt>
      <trkpt lat="43.60574" lon="2.5991">
        <ele>750.45</ele>
        <time>2016-02-21T11:14:48Z</time>
      </trkpt>
      <trkpt lat="43.60577" lon="2.59915">
        <ele>749.97</ele>
        <time>2016-02-21T11:14:49Z</time>
      </trkpt>
      <trkpt lat="43.60578" lon="2.59921">
        <ele>749.49</ele>
        <time>2016-02-21T11:14:50Z</time>
      </trkpt>
      <trkpt lat="43.60574" lon="2.59925">
        <ele>749</ele>
        <time>2016-02-21T11:14:51Z</time>
      </trkpt>
      <trkpt lat="43.60565" lon="2.59928">
        <ele>746.6</ele>
        <time>2016-02-21T11:14:52Z</time>
      </trkpt>
      <trkpt lat="43.60556" lon="2.59929">
        <ele>746.12</ele>
        <time>2016-02-21T11:14:53Z</time>
      </trkpt>
      <trkpt lat="43.60547" lon="2.59929">
        <ele>744.2</ele>
        <time>2016-02-21T11:14:54Z</time>
      </trkpt>
      <trkpt lat="43.60497" lon="2.59941">
        <ele>741.31</ele>
        <time>2016-02-21T11:15:02Z</time>
      </trkpt>
      <trkpt lat="43.60496" lon="2.59943">
        <ele>741.31</ele>
        <time>2016-02-21T11:15:03Z</time>
      </trkpt>
      <trkpt lat="43.60503" lon="2.59944">
        <ele>737.47</ele>
        <time>2016-02-21T11:15:12Z</time>
      </trkpt>
      <trkpt lat="43.60486" lon="2.59967">
        <ele>754.77</ele>
        <time>2016-02-21T11:16:43Z</time>
      </trkpt>
      <trkpt lat="43.60475" lon="2.5996">
        <ele>754.77</ele>
        <time>2016-02-21T11:17:11Z</time>
      </trkpt>
      <trkpt lat="43.60468" lon="2.59967">
        <ele>753.81</ele>
        <time>2016-02-21T11:17:12Z</time>
      </trkpt>
      <trkpt lat="43.60461" lon="2.59976">
        <ele>753.33</ele>
        <time>2016-02-21T11:17:13Z</time>
      </trkpt>
      <trkpt lat="43.60415" lon="2.60004">
        <ele>747.08</ele>
        <time>2016-02-21T11:17:16Z</time>
      </trkpt>
      <trkpt lat="43.60398" lon="2.60014">
        <ele>745.64</ele>
        <time>2016-02-21T11:17:17Z</time>
      </trkpt>
      <trkpt lat="43.60383" lon="2.60017">
        <ele>743.72</ele>
        <time>2016-02-21T11:17:18Z</time>
      </trkpt>
      <trkpt lat="43.60367" lon="2.60013">
        <ele>740.83</ele>
        <time>2016-02-21T11:17:19Z</time>
      </trkpt>
      <trkpt lat="43.60352" lon="2.60009">
        <ele>738.43</ele>
        <time>2016-02-21T11:17:20Z</time>
      </trkpt>
      <trkpt lat="43.60337" lon="2.60002">
        <ele>736.03</ele>
        <time>2016-02-21T11:17:21Z</time>
      </trkpt>
      <trkpt lat="43.60321" lon="2.59996">
        <ele>734.1</ele>
        <time>2016-02-21T11:17:22Z</time>
      </trkpt>
      <trkpt lat="43.60306" lon="2.59993">
        <ele>732.18</ele>
        <time>2016-02-21T11:17:23Z</time>
      </trkpt>
      <trkpt lat="43.60196" lon="2.59985">
        <ele>723.05</ele>
        <time>2016-02-21T11:17:29Z</time>
      </trkpt>
      <trkpt lat="43.60139" lon="2.59979">
        <ele>717.28</ele>
        <time>2016-02-21T11:17:32Z</time>
      </trkpt>
      <trkpt lat="43.60121" lon="2.59981">
        <ele>715.36</ele>
        <time>2016-02-21T11:17:33Z</time>
      </trkpt>
      <trkpt lat="43.60088" lon="2.59995">
        <ele>712.47</ele>
        <time>2016-02-21T11:17:35Z</time>
      </trkpt>
      <trkpt lat="43.6007" lon="2.60005">
        <ele>710.55</ele>
        <time>2016-02-21T11:17:36Z</time>
      </trkpt>
      <trkpt lat="43.60055" lon="2.6001">
        <ele>709.11</ele>
        <time>2016-02-21T11:17:37Z</time>
      </trkpt>
      <trkpt lat="43.60038" lon="2.60013">
        <ele>707.19</ele>
        <time>2016-02-21T11:17:38Z</time>
      </trkpt>
      <trkpt lat="43.60022" lon="2.60009">
        <ele>705.26</ele>
        <time>2016-02-21T11:17:39Z</time>
      </trkpt>
      <trkpt lat="43.60008" lon="2.60003">
        <ele>702.38</ele>
        <time>2016-02-21T11:17:40Z</time>
      </trkpt>
      <trkpt lat="43.59994" lon="2.59994">
        <ele>699.5</ele>
        <time>2016-02-21T11:17:41Z</time>
      </trkpt>
      <trkpt lat="43.59979" lon="2.59985">
        <ele>697.09</ele>
        <time>2016-02-21T11:17:42Z</time>
      </trkpt>
      <trkpt lat="43.59944" lon="2.59981">
        <ele>694.69</ele>
        <time>2016-02-21T11:17:44Z</time>
      </trkpt>
      <trkpt lat="43.59926" lon="2.59985">
        <ele>692.77</ele>
        <time>2016-02-21T11:17:45Z</time>
      </trkpt>
      <trkpt lat="43.59907" lon="2.59991">
        <ele>690.84</ele>
        <time>2016-02-21T11:17:46Z</time>
      </trkpt>
      <trkpt lat="43.5985" lon="2.60036">
        <ele>681.71</ele>
        <time>2016-02-21T11:17:50Z</time>
      </trkpt>
      <trkpt lat="43.59839" lon="2.6005">
        <ele>679.79</ele>
        <time>2016-02-21T11:17:51Z</time>
      </trkpt>
      <trkpt lat="43.59829" lon="2.60068">
        <ele>677.87</ele>
        <time>2016-02-21T11:17:52Z</time>
      </trkpt>
      <trkpt lat="43.59819" lon="2.60092">
        <ele>676.91</ele>
        <time>2016-02-21T11:17:53Z</time>
      </trkpt>
      <trkpt lat="43.59807" lon="2.60116">
        <ele>675.94</ele>
        <time>2016-02-21T11:17:54Z</time>
      </trkpt>
      <trkpt lat="43.59724" lon="2.60289">
        <ele>669.7</ele>
        <time>2016-02-21T11:18:02Z</time>
      </trkpt>
      <trkpt lat="43.59715" lon="2.60335">
        <ele>666.33</ele>
        <time>2016-02-21T11:18:04Z</time>
      </trkpt>
      <trkpt lat="43.59714" lon="2.60357">
        <ele>666.33</ele>
        <time>2016-02-21T11:18:05Z</time>
      </trkpt>
      <trkpt lat="43.59714" lon="2.60378">
        <ele>667.77</ele>
        <time>2016-02-21T11:18:06Z</time>
      </trkpt>
      <trkpt lat="43.59712" lon="2.60401">
        <ele>668.73</ele>
        <time>2016-02-21T11:18:07Z</time>
      </trkpt>
      <trkpt lat="43.5971" lon="2.60422">
        <ele>669.22</ele>
        <time>2016-02-21T11:18:08Z</time>
      </trkpt>
      <trkpt lat="43.597" lon="2.60479">
        <ele>671.62</ele>
        <time>2016-02-21T11:18:12Z</time>
      </trkpt>
      <trkpt lat="43.59676" lon="2.60583">
        <ele>673.54</ele>
        <time>2016-02-21T11:18:18Z</time>
      </trkpt>
      <trkpt lat="43.59671" lon="2.60628">
        <ele>673.06</ele>
        <time>2016-02-21T11:18:20Z</time>
      </trkpt>
      <trkpt lat="43.59684" lon="2.60699">
        <ele>672.58</ele>
        <time>2016-02-21T11:18:24Z</time>
      </trkpt>
      <trkpt lat="43.59691" lon="2.60713">
        <ele>673.06</ele>
        <time>2016-02-21T11:18:25Z</time>
      </trkpt>
      <trkpt lat="43.59697" lon="2.60727">
        <ele>673.06</ele>
        <time>2016-02-21T11:18:26Z</time>
      </trkpt>
      <trkpt lat="43.59706" lon="2.60744">
        <ele>674.02</ele>
        <time>2016-02-21T11:18:27Z</time>
      </trkpt>
      <trkpt lat="43.59717" lon="2.60761">
        <ele>675.46</ele>
        <time>2016-02-21T11:18:28Z</time>
      </trkpt>
      <trkpt lat="43.59727" lon="2.60778">
        <ele>677.39</ele>
        <time>2016-02-21T11:18:29Z</time>
      </trkpt>
      <trkpt lat="43.59787" lon="2.60912">
        <ele>684.12</ele>
        <time>2016-02-21T11:18:37Z</time>
      </trkpt>
      <trkpt lat="43.59795" lon="2.60926">
        <ele>684.6</ele>
        <time>2016-02-21T11:18:38Z</time>
      </trkpt>
      <trkpt lat="43.59804" lon="2.60937">
        <ele>685.08</ele>
        <time>2016-02-21T11:18:39Z</time>
      </trkpt>
      <trkpt lat="43.59815" lon="2.60945">
        <ele>685.56</ele>
        <time>2016-02-21T11:18:40Z</time>
      </trkpt>
      <trkpt lat="43.59826" lon="2.6095">
        <ele>686.04</ele>
        <time>2016-02-21T11:18:41Z</time>
      </trkpt>
      <trkpt lat="43.59837" lon="2.60954">
        <ele>686.52</ele>
        <time>2016-02-21T11:18:42Z</time>
      </trkpt>
      <trkpt lat="43.59864" lon="2.60959">
        <ele>688.44</ele>
        <time>2016-02-21T11:18:47Z</time>
      </trkpt>
      <trkpt lat="43.59866" lon="2.60955">
        <ele>687</ele>
        <time>2016-02-21T11:19:05Z</time>
      </trkpt>
      <trkpt lat="43.59867" lon="2.60949">
        <ele>675.94</ele>
        <time>2016-02-21T11:19:28Z</time>
      </trkpt>
      <trkpt lat="43.59869" lon="2.60948">
        <ele>681.71</ele>
        <time>2016-02-21T11:19:47Z</time>
      </trkpt>
      <trkpt lat="43.59869" lon="2.60949">
        <ele>683.63</ele>
        <time>2016-02-21T11:19:53Z</time>
      </trkpt>
      <trkpt lat="43.59857" lon="2.6097">
        <ele>702.86</ele>
        <time>2016-02-21T11:25:07Z</time>
      </trkpt>
      <trkpt lat="43.59859" lon="2.60978">
        <ele>701.9</ele>
        <time>2016-02-21T11:25:08Z</time>
      </trkpt>
      <trkpt lat="43.59864" lon="2.61002">
        <ele>699.98</ele>
        <time>2016-02-21T11:25:10Z</time>
      </trkpt>
      <trkpt lat="43.59864" lon="2.61017">
        <ele>699.5</ele>
        <time>2016-02-21T11:25:11Z</time>
      </trkpt>
      <trkpt lat="43.59864" lon="2.61034">
        <ele>699.02</ele>
        <time>2016-02-21T11:25:12Z</time>
      </trkpt>
      <trkpt lat="43.59871" lon="2.61186">
        <ele>687.48</ele>
        <time>2016-02-21T11:25:20Z</time>
      </trkpt>
      <trkpt lat="43.59884" lon="2.61244">
        <ele>681.71</ele>
        <time>2016-02-21T11:25:23Z</time>
      </trkpt>
      <trkpt lat="43.59893" lon="2.61266">
        <ele>680.75</ele>
        <time>2016-02-21T11:25:24Z</time>
      </trkpt>
      <trkpt lat="43.59921" lon="2.6136">
        <ele>675.46</ele>
        <time>2016-02-21T11:25:29Z</time>
      </trkpt>
      <trkpt lat="43.59922" lon="2.61379">
        <ele>674.5</ele>
        <time>2016-02-21T11:25:30Z</time>
      </trkpt>
      <trkpt lat="43.59921" lon="2.61399">
        <ele>673.54</ele>
        <time>2016-02-21T11:25:31Z</time>
      </trkpt>
      <trkpt lat="43.59917" lon="2.61419">
        <ele>672.58</ele>
        <time>2016-02-21T11:25:32Z</time>
      </trkpt>
      <trkpt lat="43.59911" lon="2.61437">
        <ele>671.14</ele>
        <time>2016-02-21T11:25:33Z</time>
      </trkpt>
      <trkpt lat="43.59898" lon="2.61453">
        <ele>671.14</ele>
        <time>2016-02-21T11:25:34Z</time>
      </trkpt>
      <trkpt lat="43.59886" lon="2.61467">
        <ele>670.66</ele>
        <time>2016-02-21T11:25:35Z</time>
      </trkpt>
      <trkpt lat="43.59871" lon="2.6148">
        <ele>670.66</ele>
        <time>2016-02-21T11:25:36Z</time>
      </trkpt>
      <trkpt lat="43.59857" lon="2.61491">
        <ele>671.14</ele>
        <time>2016-02-21T11:25:37Z</time>
      </trkpt>
      <trkpt lat="43.59803" lon="2.61538">
        <ele>673.54</ele>
        <time>2016-02-21T11:25:41Z</time>
      </trkpt>
      <trkpt lat="43.59793" lon="2.6156">
        <ele>673.54</ele>
        <time>2016-02-21T11:25:42Z</time>
      </trkpt>
      <trkpt lat="43.59786" lon="2.61581">
        <ele>674.02</ele>
        <time>2016-02-21T11:25:43Z</time>
      </trkpt>
      <trkpt lat="43.59782" lon="2.61604">
        <ele>674.02</ele>
        <time>2016-02-21T11:25:44Z</time>
      </trkpt>
      <trkpt lat="43.5978" lon="2.61627">
        <ele>674.98</ele>
        <time>2016-02-21T11:25:45Z</time>
      </trkpt>
      <trkpt lat="43.5978" lon="2.6165">
        <ele>675.94</ele>
        <time>2016-02-21T11:25:46Z</time>
      </trkpt>
      <trkpt lat="43.59783" lon="2.61678">
        <ele>675.94</ele>
        <time>2016-02-21T11:25:47Z</time>
      </trkpt>
      <trkpt lat="43.59788" lon="2.61707">
        <ele>678.35</ele>
        <time>2016-02-21T11:25:48Z</time>
      </trkpt>
      <trkpt lat="43.59793" lon="2.61736">
        <ele>681.23</ele>
        <time>2016-02-21T11:25:49Z</time>
      </trkpt>
      <trkpt lat="43.59833" lon="2.61919">
        <ele>696.13</ele>
        <time>2016-02-21T11:25:56Z</time>
      </trkpt>
      <trkpt lat="43.59845" lon="2.61941">
        <ele>698.05</ele>
        <time>2016-02-21T11:25:57Z</time>
      </trkpt>
      <trkpt lat="43.5994" lon="2.62102">
        <ele>711.99</ele>
        <time>2016-02-21T11:26:04Z</time>
      </trkpt>
      <trkpt lat="43.59953" lon="2.62133">
        <ele>716.32</ele>
        <time>2016-02-21T11:26:06Z</time>
      </trkpt>
      <trkpt lat="43.59954" lon="2.62151">
        <ele>718.24</ele>
        <time>2016-02-21T11:26:07Z</time>
      </trkpt>
      <trkpt lat="43.59948" lon="2.6216">
        <ele>722.57</ele>
        <time>2016-02-21T11:26:08Z</time>
      </trkpt>
      <trkpt lat="43.59938" lon="2.62173">
        <ele>724.49</ele>
        <time>2016-02-21T11:26:09Z</time>
      </trkpt>
      <trkpt lat="43.59928" lon="2.62184">
        <ele>726.89</ele>
        <time>2016-02-21T11:26:10Z</time>
      </trkpt>
      <trkpt lat="43.59917" lon="2.62193">
        <ele>729.3</ele>
        <time>2016-02-21T11:26:11Z</time>
      </trkpt>
      <trkpt lat="43.59903" lon="2.62204">
        <ele>730.74</ele>
        <time>2016-02-21T11:26:12Z</time>
      </trkpt>
      <trkpt lat="43.59889" lon="2.62215">
        <ele>731.7</ele>
        <time>2016-02-21T11:26:13Z</time>
      </trkpt>
      <trkpt lat="43.59879" lon="2.62235">
        <ele>733.14</ele>
        <time>2016-02-21T11:26:14Z</time>
      </trkpt>
      <trkpt lat="43.59868" lon="2.62255">
        <ele>734.1</ele>
        <time>2016-02-21T11:26:15Z</time>
      </trkpt>
      <trkpt lat="43.59859" lon="2.62278">
        <ele>735.55</ele>
        <time>2016-02-21T11:26:16Z</time>
      </trkpt>
      <trkpt lat="43.5985" lon="2.62301">
        <ele>736.03</ele>
        <time>2016-02-21T11:26:17Z</time>
      </trkpt>
      <trkpt lat="43.59843" lon="2.62325">
        <ele>737.47</ele>
        <time>2016-02-21T11:26:18Z</time>
      </trkpt>
      <trkpt lat="43.59836" lon="2.6235">
        <ele>738.43</ele>
        <time>2016-02-21T11:26:19Z</time>
      </trkpt>
      <trkpt lat="43.59832" lon="2.62375">
        <ele>739.39</ele>
        <time>2016-02-21T11:26:20Z</time>
      </trkpt>
      <trkpt lat="43.59829" lon="2.624">
        <ele>740.35</ele>
        <time>2016-02-21T11:26:21Z</time>
      </trkpt>
      <trkpt lat="43.59827" lon="2.62425">
        <ele>740.35</ele>
        <time>2016-02-21T11:26:22Z</time>
      </trkpt>
      <trkpt lat="43.59828" lon="2.6245">
        <ele>740.35</ele>
        <time>2016-02-21T11:26:23Z</time>
      </trkpt>
      <trkpt lat="43.59832" lon="2.62476">
        <ele>740.35</ele>
        <time>2016-02-21T11:26:24Z</time>
      </trkpt>
      <trkpt lat="43.59836" lon="2.62503">
        <ele>739.87</ele>
        <time>2016-02-21T11:26:25Z</time>
      </trkpt>
      <trkpt lat="43.59881" lon="2.6272">
        <ele>735.07</ele>
        <time>2016-02-21T11:26:33Z</time>
      </trkpt>
      <trkpt lat="43.59888" lon="2.6274">
        <ele>735.07</ele>
        <time>2016-02-21T11:26:34Z</time>
      </trkpt>
      <trkpt lat="43.59897" lon="2.62754">
        <ele>735.07</ele>
        <time>2016-02-21T11:26:35Z</time>
      </trkpt>
      <trkpt lat="43.59907" lon="2.62764">
        <ele>734.58</ele>
        <time>2016-02-21T11:26:36Z</time>
      </trkpt>
      <trkpt lat="43.59917" lon="2.62767">
        <ele>733.14</ele>
        <time>2016-02-21T11:26:37Z</time>
      </trkpt>
      <trkpt lat="43.59931" lon="2.62764">
        <ele>732.66</ele>
        <time>2016-02-21T11:26:38Z</time>
      </trkpt>
      <trkpt lat="43.59949" lon="2.62762">
        <ele>732.66</ele>
        <time>2016-02-21T11:26:39Z</time>
      </trkpt>
      <trkpt lat="43.59968" lon="2.62756">
        <ele>733.14</ele>
        <time>2016-02-21T11:26:40Z</time>
      </trkpt>
      <trkpt lat="43.59986" lon="2.62754">
        <ele>733.62</ele>
        <time>2016-02-21T11:26:41Z</time>
      </trkpt>
      <trkpt lat="43.60046" lon="2.62783">
        <ele>731.7</ele>
        <time>2016-02-21T11:26:45Z</time>
      </trkpt>
      <trkpt lat="43.60058" lon="2.62803">
        <ele>730.74</ele>
        <time>2016-02-21T11:26:46Z</time>
      </trkpt>
      <trkpt lat="43.6007" lon="2.62817">
        <ele>730.74</ele>
        <time>2016-02-21T11:26:47Z</time>
      </trkpt>
      <trkpt lat="43.60096" lon="2.62849">
        <ele>731.7</ele>
        <time>2016-02-21T11:26:50Z</time>
      </trkpt>
      <trkpt lat="43.60109" lon="2.62842">
        <ele>731.22</ele>
        <time>2016-02-21T11:26:51Z</time>
      </trkpt>
      <trkpt lat="43.60123" lon="2.6284">
        <ele>731.22</ele>
        <time>2016-02-21T11:26:52Z</time>
      </trkpt>
      <trkpt lat="43.60138" lon="2.62836">
        <ele>730.74</ele>
        <time>2016-02-21T11:26:53Z</time>
      </trkpt>
      <trkpt lat="43.60152" lon="2.62835">
        <ele>729.78</ele>
        <time>2016-02-21T11:26:54Z</time>
      </trkpt>
      <trkpt lat="43.60168" lon="2.62839">
        <ele>729.78</ele>
        <time>2016-02-21T11:26:55Z</time>
      </trkpt>
      <trkpt lat="43.60182" lon="2.6285">
        <ele>729.3</ele>
        <time>2016-02-21T11:26:56Z</time>
      </trkpt>
      <trkpt lat="43.60197" lon="2.62861">
        <ele>729.3</ele>
        <time>2016-02-21T11:26:57Z</time>
      </trkpt>
      <trkpt lat="43.6021" lon="2.62877">
        <ele>728.82</ele>
        <time>2016-02-21T11:26:58Z</time>
      </trkpt>
      <trkpt lat="43.60224" lon="2.62893">
        <ele>727.86</ele>
        <time>2016-02-21T11:26:59Z</time>
      </trkpt>
      <trkpt lat="43.60237" lon="2.62911">
        <ele>727.37</ele>
        <time>2016-02-21T11:27:00Z</time>
      </trkpt>
      <trkpt lat="43.6025" lon="2.62935">
        <ele>727.37</ele>
        <time>2016-02-21T11:27:01Z</time>
      </trkpt>
      <trkpt lat="43.60259" lon="2.6296">
        <ele>726.41</ele>
        <time>2016-02-21T11:27:02Z</time>
      </trkpt>
      <trkpt lat="43.60268" lon="2.62987">
        <ele>724.97</ele>
        <time>2016-02-21T11:27:03Z</time>
      </trkpt>
      <trkpt lat="43.60278" lon="2.63015">
        <ele>724.01</ele>
        <time>2016-02-21T11:27:04Z</time>
      </trkpt>
      <trkpt lat="43.60322" lon="2.63126">
        <ele>720.16</ele>
        <time>2016-02-21T11:27:09Z</time>
      </trkpt>
      <trkpt lat="43.60333" lon="2.63139">
        <ele>718.72</ele>
        <time>2016-02-21T11:27:10Z</time>
      </trkpt>
      <trkpt lat="43.60346" lon="2.63153">
        <ele>717.76</ele>
        <time>2016-02-21T11:27:11Z</time>
      </trkpt>
      <trkpt lat="43.60428" lon="2.63253">
        <ele>711.99</ele>
        <time>2016-02-21T11:27:17Z</time>
      </trkpt>
      <trkpt lat="43.60435" lon="2.63274">
        <ele>711.99</ele>
        <time>2016-02-21T11:27:18Z</time>
      </trkpt>
      <trkpt lat="43.6045" lon="2.6331">
        <ele>712.47</ele>
        <time>2016-02-21T11:27:20Z</time>
      </trkpt>
      <trkpt lat="43.60459" lon="2.63321">
        <ele>711.99</ele>
        <time>2016-02-21T11:27:21Z</time>
      </trkpt>
      <trkpt lat="43.6047" lon="2.63329">
        <ele>711.99</ele>
        <time>2016-02-21T11:27:22Z</time>
      </trkpt>
      <trkpt lat="43.60483" lon="2.63336">
        <ele>711.99</ele>
        <time>2016-02-21T11:27:23Z</time>
      </trkpt>
      <trkpt lat="43.60498" lon="2.63339">
        <ele>711.51</ele>
        <time>2016-02-21T11:27:24Z</time>
      </trkpt>
      <trkpt lat="43.6051" lon="2.63346">
        <ele>711.03</ele>
        <time>2016-02-21T11:27:25Z</time>
      </trkpt>
      <trkpt lat="43.60523" lon="2.63358">
        <ele>711.03</ele>
        <time>2016-02-21T11:27:26Z</time>
      </trkpt>
      <trkpt lat="43.60534" lon="2.63374">
        <ele>709.59</ele>
        <time>2016-02-21T11:27:27Z</time>
      </trkpt>
      <trkpt lat="43.60544" lon="2.63395">
        <ele>708.63</ele>
        <time>2016-02-21T11:27:28Z</time>
      </trkpt>
      <trkpt lat="43.60556" lon="2.63413">
        <ele>707.19</ele>
        <time>2016-02-21T11:27:29Z</time>
      </trkpt>
      <trkpt lat="43.60586" lon="2.63463">
        <ele>705.26</ele>
        <time>2016-02-21T11:27:32Z</time>
      </trkpt>
      <trkpt lat="43.6059" lon="2.63481">
        <ele>703.82</ele>
        <time>2016-02-21T11:27:33Z</time>
      </trkpt>
      <trkpt lat="43.60594" lon="2.63507">
        <ele>704.3</ele>
        <time>2016-02-21T11:27:34Z</time>
      </trkpt>
      <trkpt lat="43.60593" lon="2.6353">
        <ele>702.86</ele>
        <time>2016-02-21T11:27:35Z</time>
      </trkpt>
      <trkpt lat="43.60592" lon="2.63555">
        <ele>701.42</ele>
        <time>2016-02-21T11:27:36Z</time>
      </trkpt>
      <trkpt lat="43.60587" lon="2.63586">
        <ele>699.5</ele>
        <time>2016-02-21T11:27:37Z</time>
      </trkpt>
      <trkpt lat="43.60582" lon="2.63616">
        <ele>697.57</ele>
        <time>2016-02-21T11:27:38Z</time>
      </trkpt>
      <trkpt lat="43.60577" lon="2.63645">
        <ele>695.65</ele>
        <time>2016-02-21T11:27:39Z</time>
      </trkpt>
      <trkpt lat="43.60572" lon="2.63672">
        <ele>693.73</ele>
        <time>2016-02-21T11:27:40Z</time>
      </trkpt>
      <trkpt lat="43.60556" lon="2.63886">
        <ele>686.04</ele>
        <time>2016-02-21T11:27:47Z</time>
      </trkpt>
      <trkpt lat="43.60552" lon="2.64044">
        <ele>687.96</ele>
        <time>2016-02-21T11:27:53Z</time>
      </trkpt>
      <trkpt lat="43.60556" lon="2.64062">
        <ele>687.96</ele>
        <time>2016-02-21T11:27:54Z</time>
      </trkpt>
      <trkpt lat="43.60569" lon="2.64073">
        <ele>687.96</ele>
        <time>2016-02-21T11:27:55Z</time>
      </trkpt>
      <trkpt lat="43.60585" lon="2.6408">
        <ele>689.4</ele>
        <time>2016-02-21T11:27:56Z</time>
      </trkpt>
      <trkpt lat="43.60601" lon="2.64088">
        <ele>690.36</ele>
        <time>2016-02-21T11:27:57Z</time>
      </trkpt>
      <trkpt lat="43.60618" lon="2.64096">
        <ele>691.81</ele>
        <time>2016-02-21T11:27:58Z</time>
      </trkpt>
      <trkpt lat="43.60636" lon="2.64107">
        <ele>692.29</ele>
        <time>2016-02-21T11:27:59Z</time>
      </trkpt>
      <trkpt lat="43.60653" lon="2.6412">
        <ele>693.25</ele>
        <time>2016-02-21T11:28:00Z</time>
      </trkpt>
      <trkpt lat="43.6067" lon="2.64135">
        <ele>694.21</ele>
        <time>2016-02-21T11:28:01Z</time>
      </trkpt>
      <trkpt lat="43.60684" lon="2.64154">
        <ele>694.21</ele>
        <time>2016-02-21T11:28:02Z</time>
      </trkpt>
      <trkpt lat="43.60696" lon="2.64174">
        <ele>693.73</ele>
        <time>2016-02-21T11:28:03Z</time>
      </trkpt>
      <trkpt lat="43.60703" lon="2.64196">
        <ele>692.77</ele>
        <time>2016-02-21T11:28:04Z</time>
      </trkpt>
      <trkpt lat="43.60705" lon="2.64217">
        <ele>691.81</ele>
        <time>2016-02-21T11:28:05Z</time>
      </trkpt>
      <trkpt lat="43.60707" lon="2.64239">
        <ele>690.84</ele>
        <time>2016-02-21T11:28:06Z</time>
      </trkpt>
      <trkpt lat="43.60712" lon="2.64259">
        <ele>691.81</ele>
        <time>2016-02-21T11:28:07Z</time>
      </trkpt>
      <trkpt lat="43.60728" lon="2.64294">
        <ele>693.25</ele>
        <time>2016-02-21T11:28:09Z</time>
      </trkpt>
      <trkpt lat="43.60738" lon="2.64311">
        <ele>694.21</ele>
        <time>2016-02-21T11:28:10Z</time>
      </trkpt>
      <trkpt lat="43.60751" lon="2.6433">
        <ele>694.21</ele>
        <time>2016-02-21T11:28:11Z</time>
      </trkpt>
      <trkpt lat="43.6076" lon="2.64352">
        <ele>694.69</ele>
        <time>2016-02-21T11:28:12Z</time>
      </trkpt>
      <trkpt lat="43.6077" lon="2.64376">
        <ele>695.65</ele>
        <time>2016-02-21T11:28:13Z</time>
      </trkpt>
      <trkpt lat="43.60777" lon="2.644">
        <ele>695.17</ele>
        <time>2016-02-21T11:28:14Z</time>
      </trkpt>
      <trkpt lat="43.60842" lon="2.64599">
        <ele>694.21</ele>
        <time>2016-02-21T11:28:21Z</time>
      </trkpt>
      <trkpt lat="43.60861" lon="2.64751">
        <ele>695.17</ele>
        <time>2016-02-21T11:28:26Z</time>
      </trkpt>
      <trkpt lat="43.6086" lon="2.64777">
        <ele>696.13</ele>
        <time>2016-02-21T11:28:27Z</time>
      </trkpt>
      <trkpt lat="43.60856" lon="2.64802">
        <ele>698.05</ele>
        <time>2016-02-21T11:28:28Z</time>
      </trkpt>
      <trkpt lat="43.6085" lon="2.64828">
        <ele>699.02</ele>
        <time>2016-02-21T11:28:29Z</time>
      </trkpt>
      <trkpt lat="43.60842" lon="2.64851">
        <ele>700.46</ele>
        <time>2016-02-21T11:28:30Z</time>
      </trkpt>
      <trkpt lat="43.60835" lon="2.64875">
        <ele>701.9</ele>
        <time>2016-02-21T11:28:31Z</time>
      </trkpt>
      <trkpt lat="43.60822" lon="2.64981">
        <ele>705.26</ele>
        <time>2016-02-21T11:28:35Z</time>
      </trkpt>
      <trkpt lat="43.60825" lon="2.65008">
        <ele>705.75</ele>
        <time>2016-02-21T11:28:36Z</time>
      </trkpt>
      <trkpt lat="43.60831" lon="2.65034">
        <ele>706.71</ele>
        <time>2016-02-21T11:28:37Z</time>
      </trkpt>
      <trkpt lat="43.6084" lon="2.65061">
        <ele>707.19</ele>
        <time>2016-02-21T11:28:38Z</time>
      </trkpt>
      <trkpt lat="43.60847" lon="2.65088">
        <ele>707.67</ele>
        <time>2016-02-21T11:28:39Z</time>
      </trkpt>
      <trkpt lat="43.60915" lon="2.65257">
        <ele>712.47</ele>
        <time>2016-02-21T11:28:46Z</time>
      </trkpt>
      <trkpt lat="43.60929" lon="2.65272">
        <ele>712.95</ele>
        <time>2016-02-21T11:28:47Z</time>
      </trkpt>
      <trkpt lat="43.60943" lon="2.65287">
        <ele>713.44</ele>
        <time>2016-02-21T11:28:48Z</time>
      </trkpt>
      <trkpt lat="43.60979" lon="2.65336">
        <ele>711.99</ele>
        <time>2016-02-21T11:28:51Z</time>
      </trkpt>
      <trkpt lat="43.60983" lon="2.65353">
        <ele>711.51</ele>
        <time>2016-02-21T11:28:52Z</time>
      </trkpt>
      <trkpt lat="43.60984" lon="2.65368">
        <ele>711.99</ele>
        <time>2016-02-21T11:28:53Z</time>
      </trkpt>
      <trkpt lat="43.60979" lon="2.65382">
        <ele>710.55</ele>
        <time>2016-02-21T11:28:54Z</time>
      </trkpt>
      <trkpt lat="43.60975" lon="2.65399">
        <ele>709.11</ele>
        <time>2016-02-21T11:28:55Z</time>
      </trkpt>
      <trkpt lat="43.60974" lon="2.65416">
        <ele>708.63</ele>
        <time>2016-02-21T11:28:56Z</time>
      </trkpt>
      <trkpt lat="43.60977" lon="2.65431">
        <ele>708.15</ele>
        <time>2016-02-21T11:28:57Z</time>
      </trkpt>
      <trkpt lat="43.60982" lon="2.65442">
        <ele>706.71</ele>
        <time>2016-02-21T11:28:58Z</time>
      </trkpt>
      <trkpt lat="43.60988" lon="2.65453">
        <ele>705.26</ele>
        <time>2016-02-21T11:28:59Z</time>
      </trkpt>
      <trkpt lat="43.60999" lon="2.65464">
        <ele>705.26</ele>
        <time>2016-02-21T11:29:00Z</time>
      </trkpt>
      <trkpt lat="43.61014" lon="2.65476">
        <ele>705.26</ele>
        <time>2016-02-21T11:29:01Z</time>
      </trkpt>
      <trkpt lat="43.61031" lon="2.6549">
        <ele>705.26</ele>
        <time>2016-02-21T11:29:02Z</time>
      </trkpt>
      <trkpt lat="43.61045" lon="2.65512">
        <ele>704.78</ele>
        <time>2016-02-21T11:29:03Z</time>
      </trkpt>
      <trkpt lat="43.61053" lon="2.65536">
        <ele>705.75</ele>
        <time>2016-02-21T11:29:04Z</time>
      </trkpt>
      <trkpt lat="43.61059" lon="2.65559">
        <ele>706.23</ele>
        <time>2016-02-21T11:29:05Z</time>
      </trkpt>
      <trkpt lat="43.61065" lon="2.6558">
        <ele>706.23</ele>
        <time>2016-02-21T11:29:06Z</time>
      </trkpt>
      <trkpt lat="43.61074" lon="2.65599">
        <ele>706.71</ele>
        <time>2016-02-21T11:29:07Z</time>
      </trkpt>
      <trkpt lat="43.61084" lon="2.65616">
        <ele>706.71</ele>
        <time>2016-02-21T11:29:08Z</time>
      </trkpt>
      <trkpt lat="43.61095" lon="2.65632">
        <ele>706.23</ele>
        <time>2016-02-21T11:29:09Z</time>
      </trkpt>
      <trkpt lat="43.61109" lon="2.65648">
        <ele>706.23</ele>
        <time>2016-02-21T11:29:10Z</time>
      </trkpt>
      <trkpt lat="43.61121" lon="2.65667">
        <ele>706.23</ele>
        <time>2016-02-21T11:29:11Z</time>
      </trkpt>
      <trkpt lat="43.61133" lon="2.65687">
        <ele>706.23</ele>
        <time>2016-02-21T11:29:12Z</time>
      </trkpt>
      <trkpt lat="43.61142" lon="2.65708">
        <ele>706.71</ele>
        <time>2016-02-21T11:29:13Z</time>
      </trkpt>
      <trkpt lat="43.61151" lon="2.65728">
        <ele>708.15</ele>
        <time>2016-02-21T11:29:14Z</time>
      </trkpt>
      <trkpt lat="43.61161" lon="2.65747">
        <ele>708.63</ele>
        <time>2016-02-21T11:29:15Z</time>
      </trkpt>
      <trkpt lat="43.61172" lon="2.65764">
        <ele>709.11</ele>
        <time>2016-02-21T11:29:16Z</time>
      </trkpt>
      <trkpt lat="43.61185" lon="2.65777">
        <ele>709.59</ele>
        <time>2016-02-21T11:29:17Z</time>
      </trkpt>
      <trkpt lat="43.61198" lon="2.65788">
        <ele>710.07</ele>
        <time>2016-02-21T11:29:18Z</time>
      </trkpt>
      <trkpt lat="43.61213" lon="2.65798">
        <ele>710.55</ele>
        <time>2016-02-21T11:29:19Z</time>
      </trkpt>
      <trkpt lat="43.61251" lon="2.65836">
        <ele>713.92</ele>
        <time>2016-02-21T11:29:22Z</time>
      </trkpt>
      <trkpt lat="43.6126" lon="2.65856">
        <ele>713.92</ele>
        <time>2016-02-21T11:29:23Z</time>
      </trkpt>
      <trkpt lat="43.61266" lon="2.65878">
        <ele>714.4</ele>
        <time>2016-02-21T11:29:24Z</time>
      </trkpt>
      <trkpt lat="43.61269" lon="2.65901">
        <ele>714.4</ele>
        <time>2016-02-21T11:29:25Z</time>
      </trkpt>
      <trkpt lat="43.61269" lon="2.65926">
        <ele>713.92</ele>
        <time>2016-02-21T11:29:26Z</time>
      </trkpt>
      <trkpt lat="43.61267" lon="2.65951">
        <ele>713.92</ele>
        <time>2016-02-21T11:29:27Z</time>
      </trkpt>
      <trkpt lat="43.61266" lon="2.65975">
        <ele>713.92</ele>
        <time>2016-02-21T11:29:28Z</time>
      </trkpt>
      <trkpt lat="43.61265" lon="2.65999">
        <ele>713.92</ele>
        <time>2016-02-21T11:29:29Z</time>
      </trkpt>
      <trkpt lat="43.61267" lon="2.66023">
        <ele>713.92</ele>
        <time>2016-02-21T11:29:30Z</time>
      </trkpt>
      <trkpt lat="43.61271" lon="2.66045">
        <ele>713.92</ele>
        <time>2016-02-21T11:29:31Z</time>
      </trkpt>
      <trkpt lat="43.61277" lon="2.66066">
        <ele>713.44</ele>
        <time>2016-02-21T11:29:32Z</time>
      </trkpt>
      <trkpt lat="43.61287" lon="2.66086">
        <ele>713.44</ele>
        <time>2016-02-21T11:29:33Z</time>
      </trkpt>
      <trkpt lat="43.61296" lon="2.66107">
        <ele>712.95</ele>
        <time>2016-02-21T11:29:34Z</time>
      </trkpt>
      <trkpt lat="43.61304" lon="2.66129">
        <ele>712.95</ele>
        <time>2016-02-21T11:29:35Z</time>
      </trkpt>
      <trkpt lat="43.61308" lon="2.66153">
        <ele>712.95</ele>
        <time>2016-02-21T11:29:36Z</time>
      </trkpt>
      <trkpt lat="43.61308" lon="2.66177">
        <ele>713.44</ele>
        <time>2016-02-21T11:29:37Z</time>
      </trkpt>
      <trkpt lat="43.61304" lon="2.66201">
        <ele>713.44</ele>
        <time>2016-02-21T11:29:38Z</time>
      </trkpt>
      <trkpt lat="43.61296" lon="2.66224">
        <ele>712.95</ele>
        <time>2016-02-21T11:29:39Z</time>
      </trkpt>
      <trkpt lat="43.61287" lon="2.66242">
        <ele>713.44</ele>
        <time>2016-02-21T11:29:40Z</time>
      </trkpt>
      <trkpt lat="43.61275" lon="2.66258">
        <ele>712.95</ele>
        <time>2016-02-21T11:29:41Z</time>
      </trkpt>
      <trkpt lat="43.61262" lon="2.66271">
        <ele>713.44</ele>
        <time>2016-02-21T11:29:42Z</time>
      </trkpt>
      <trkpt lat="43.61245" lon="2.66281">
        <ele>713.44</ele>
        <time>2016-02-21T11:29:43Z</time>
      </trkpt>
      <trkpt lat="43.61228" lon="2.66291">
        <ele>712.95</ele>
        <time>2016-02-21T11:29:44Z</time>
      </trkpt>
      <trkpt lat="43.61209" lon="2.66301">
        <ele>712.47</ele>
        <time>2016-02-21T11:29:45Z</time>
      </trkpt>
      <trkpt lat="43.6107" lon="2.66386">
        <ele>712.95</ele>
        <time>2016-02-21T11:29:52Z</time>
      </trkpt>
      <trkpt lat="43.61051" lon="2.66408">
        <ele>713.44</ele>
        <time>2016-02-21T11:29:53Z</time>
      </trkpt>
      <trkpt lat="43.61034" lon="2.66432">
        <ele>713.92</ele>
        <time>2016-02-21T11:29:54Z</time>
      </trkpt>
      <trkpt lat="43.61018" lon="2.66458">
        <ele>714.88</ele>
        <time>2016-02-21T11:29:55Z</time>
      </trkpt>
      <trkpt lat="43.61003" lon="2.66484">
        <ele>715.84</ele>
        <time>2016-02-21T11:29:56Z</time>
      </trkpt>
      <trkpt lat="43.60841" lon="2.66765">
        <ele>716.32</ele>
        <time>2016-02-21T11:30:07Z</time>
      </trkpt>
      <trkpt lat="43.60773" lon="2.6694">
        <ele>713.92</ele>
        <time>2016-02-21T11:30:13Z</time>
      </trkpt>
      <trkpt lat="43.60704" lon="2.67224">
        <ele>708.15</ele>
        <time>2016-02-21T11:30:22Z</time>
      </trkpt>
      <trkpt lat="43.6069" lon="2.67324">
        <ele>701.42</ele>
        <time>2016-02-21T11:30:26Z</time>
      </trkpt>
      <trkpt lat="43.60692" lon="2.67349">
        <ele>699.02</ele>
        <time>2016-02-21T11:30:27Z</time>
      </trkpt>
      <trkpt lat="43.60697" lon="2.67376">
        <ele>696.61</ele>
        <time>2016-02-21T11:30:28Z</time>
      </trkpt>
      <trkpt lat="43.60735" lon="2.67532">
        <ele>685.56</ele>
        <time>2016-02-21T11:30:35Z</time>
      </trkpt>
      <trkpt lat="43.60735" lon="2.6755">
        <ele>685.08</ele>
        <time>2016-02-21T11:30:36Z</time>
      </trkpt>
      <trkpt lat="43.60729" lon="2.67562">
        <ele>684.12</ele>
        <time>2016-02-21T11:30:37Z</time>
      </trkpt>
      <trkpt lat="43.6072" lon="2.67572">
        <ele>684.12</ele>
        <time>2016-02-21T11:30:38Z</time>
      </trkpt>
      <trkpt lat="43.60709" lon="2.6758">
        <ele>683.15</ele>
        <time>2016-02-21T11:30:39Z</time>
      </trkpt>
      <trkpt lat="43.60696" lon="2.67583">
        <ele>682.19</ele>
        <time>2016-02-21T11:30:40Z</time>
      </trkpt>
      <trkpt lat="43.60685" lon="2.67589">
        <ele>682.67</ele>
        <time>2016-02-21T11:30:41Z</time>
      </trkpt>
      <trkpt lat="43.6067" lon="2.67595">
        <ele>682.67</ele>
        <time>2016-02-21T11:30:42Z</time>
      </trkpt>
      <trkpt lat="43.60651" lon="2.67602">
        <ele>683.15</ele>
        <time>2016-02-21T11:30:43Z</time>
      </trkpt>
      <trkpt lat="43.60631" lon="2.6761">
        <ele>683.15</ele>
        <time>2016-02-21T11:30:44Z</time>
      </trkpt>
      <trkpt lat="43.60591" lon="2.67621">
        <ele>680.75</ele>
        <time>2016-02-21T11:30:46Z</time>
      </trkpt>
      <trkpt lat="43.60569" lon="2.67624">
        <ele>679.31</ele>
        <time>2016-02-21T11:30:47Z</time>
      </trkpt>
      <trkpt lat="43.60549" lon="2.67622">
        <ele>677.87</ele>
        <time>2016-02-21T11:30:48Z</time>
      </trkpt>
      <trkpt lat="43.60531" lon="2.67617">
        <ele>676.42</ele>
        <time>2016-02-21T11:30:49Z</time>
      </trkpt>
      <trkpt lat="43.60515" lon="2.67611">
        <ele>674.98</ele>
        <time>2016-02-21T11:30:50Z</time>
      </trkpt>
      <trkpt lat="43.60482" lon="2.676">
        <ele>671.14</ele>
        <time>2016-02-21T11:30:53Z</time>
      </trkpt>
      <trkpt lat="43.60475" lon="2.67604">
        <ele>670.66</ele>
        <time>2016-02-21T11:30:54Z</time>
      </trkpt>
      <trkpt lat="43.60471" lon="2.67612">
        <ele>670.66</ele>
        <time>2016-02-21T11:30:55Z</time>
      </trkpt>
      <trkpt lat="43.60472" lon="2.67619">
        <ele>672.1</ele>
        <time>2016-02-21T11:30:56Z</time>
      </trkpt>
      <trkpt lat="43.6047" lon="2.67625">
        <ele>672.58</ele>
        <time>2016-02-21T11:30:57Z</time>
      </trkpt>
      <trkpt lat="43.60467" lon="2.67633">
        <ele>672.1</ele>
        <time>2016-02-21T11:30:58Z</time>
      </trkpt>
      <trkpt lat="43.60465" lon="2.67644">
        <ele>672.1</ele>
        <time>2016-02-21T11:30:59Z</time>
      </trkpt>
      <trkpt lat="43.60444" lon="2.67734">
        <ele>670.18</ele>
        <time>2016-02-21T11:31:05Z</time>
      </trkpt>
      <trkpt lat="43.60437" lon="2.67745">
        <ele>670.18</ele>
        <time>2016-02-21T11:31:06Z</time>
      </trkpt>
      <trkpt lat="43.60429" lon="2.67755">
        <ele>669.7</ele>
        <time>2016-02-21T11:31:07Z</time>
      </trkpt>
      <trkpt lat="43.60417" lon="2.67761">
        <ele>669.22</ele>
        <time>2016-02-21T11:31:08Z</time>
      </trkpt>
      <trkpt lat="43.60405" lon="2.67766">
        <ele>669.22</ele>
        <time>2016-02-21T11:31:09Z</time>
      </trkpt>
      <trkpt lat="43.60393" lon="2.67773">
        <ele>668.73</ele>
        <time>2016-02-21T11:31:10Z</time>
      </trkpt>
      <trkpt lat="43.60381" lon="2.67784">
        <ele>668.73</ele>
        <time>2016-02-21T11:31:11Z</time>
      </trkpt>
      <trkpt lat="43.60371" lon="2.678">
        <ele>668.25</ele>
        <time>2016-02-21T11:31:12Z</time>
      </trkpt>
      <trkpt lat="43.60364" lon="2.67816">
        <ele>668.25</ele>
        <time>2016-02-21T11:31:13Z</time>
      </trkpt>
      <trkpt lat="43.60358" lon="2.67833">
        <ele>669.22</ele>
        <time>2016-02-21T11:31:14Z</time>
      </trkpt>
      <trkpt lat="43.60353" lon="2.6785">
        <ele>669.7</ele>
        <time>2016-02-21T11:31:15Z</time>
      </trkpt>
      <trkpt lat="43.60349" lon="2.67866">
        <ele>670.18</ele>
        <time>2016-02-21T11:31:16Z</time>
      </trkpt>
      <trkpt lat="43.60344" lon="2.67898">
        <ele>670.66</ele>
        <time>2016-02-21T11:31:18Z</time>
      </trkpt>
      <trkpt lat="43.60343" lon="2.67913">
        <ele>671.14</ele>
        <time>2016-02-21T11:31:19Z</time>
      </trkpt>
      <trkpt lat="43.60342" lon="2.67937">
        <ele>671.62</ele>
        <time>2016-02-21T11:31:21Z</time>
      </trkpt>
      <trkpt lat="43.6034" lon="2.67945">
        <ele>672.1</ele>
        <time>2016-02-21T11:31:22Z</time>
      </trkpt>
      <trkpt lat="43.60338" lon="2.67949">
        <ele>672.58</ele>
        <time>2016-02-21T11:31:23Z</time>
      </trkpt>
      <trkpt lat="43.60336" lon="2.67951">
        <ele>672.1</ele>
        <time>2016-02-21T11:31:24Z</time>
      </trkpt>
      <trkpt lat="43.60335" lon="2.67952">
        <ele>672.1</ele>
        <time>2016-02-21T11:31:25Z</time>
      </trkpt>
      <trkpt lat="43.60334" lon="2.67953">
        <ele>672.58</ele>
        <time>2016-02-21T11:31:26Z</time>
      </trkpt>
      <trkpt lat="43.60333" lon="2.67955">
        <ele>672.58</ele>
        <time>2016-02-21T11:31:27Z</time>
      </trkpt>
      <trkpt lat="43.60327" lon="2.67964">
        <ele>672.58</ele>
        <time>2016-02-21T11:31:29Z</time>
      </trkpt>
      <trkpt lat="43.60324" lon="2.67968">
        <ele>672.58</ele>
        <time>2016-02-21T11:31:30Z</time>
      </trkpt>
      <trkpt lat="43.60322" lon="2.67974">
        <ele>672.58</ele>
        <time>2016-02-21T11:31:31Z</time>
      </trkpt>
      <trkpt lat="43.60308" lon="2.68008">
        <ele>671.14</ele>
        <time>2016-02-21T11:31:36Z</time>
      </trkpt>
      <trkpt lat="43.60283" lon="2.68086">
        <ele>671.62</ele>
        <time>2016-02-21T11:31:47Z</time>
      </trkpt>
      <trkpt lat="43.60276" lon="2.6811">
        <ele>671.62</ele>
        <time>2016-02-21T11:31:53Z</time>
      </trkpt>
      <trkpt lat="43.60277" lon="2.68112">
        <ele>671.62</ele>
        <time>2016-02-21T11:31:54Z</time>
      </trkpt>
      <trkpt lat="43.60278" lon="2.68113">
        <ele>671.62</ele>
        <time>2016-02-21T11:31:55Z</time>
      </trkpt>
      <trkpt lat="43.60282" lon="2.68101">
        <ele>670.66</ele>
        <time>2016-02-21T11:32:02Z</time>
      </trkpt>
      <trkpt lat="43.60281" lon="2.68097">
        <ele>673.54</ele>
        <time>2016-02-21T11:32:37Z</time>
      </trkpt>
      <trkpt lat="43.60281" lon="2.68097">
        <ele>672.58</ele>
        <time>2016-02-21T11:32:39Z</time>
      </trkpt>
      <trkpt lat="43.60281" lon="2.68097">
        <ele>670.4</ele>
        <time>2016-02-21T20:57:42Z</time>
      </trkpt>
      <trkpt lat="43.60317" lon="2.681">
        <ele>675.7</ele>
      </trkpt>
      <trkpt lat="43.60319" lon="2.68049">
        <ele>673.7</ele>
      </trkpt>
      <trkpt lat="43.60323" lon="2.67963">
        <ele>671.9</ele>
      </trkpt>
      <trkpt lat="43.60332" lon="2.67951">
        <ele>673</ele>
      </trkpt>
      <trkpt lat="43.60336" lon="2.67951">
        <ele>673.5</ele>
      </trkpt>
      <trkpt lat="43.60345" lon="2.67959">
        <ele>674.8</ele>
      </trkpt>
      <trkpt lat="43.60345" lon="2.68028">
        <ele>678.9</ele>
      </trkpt>
      <trkpt lat="43.60345" lon="2.68341">
        <ele>695.4</ele>
      </trkpt>
      <trkpt lat="43.60358" lon="2.68414">
        <ele>701.3</ele>
      </trkpt>
      <trkpt lat="43.60401" lon="2.6859">
        <ele>710.8</ele>
      </trkpt>
      <trkpt lat="43.60414" lon="2.68667">
        <ele>713.9</ele>
      </trkpt>
      <trkpt lat="43.60439" lon="2.68899">
        <ele>720.7</ele>
      </trkpt>
      <trkpt lat="43.60491" lon="2.69092">
        <ele>716.2</ele>
      </trkpt>
      <trkpt lat="43.60491" lon="2.69139">
        <ele>713.3</ele>
      </trkpt>
      <trkpt lat="43.60487" lon="2.69174">
        <ele>710.9</ele>
      </trkpt>
      <trkpt lat="43.60474" lon="2.69199">
        <ele>709.2</ele>
      </trkpt>
      <trkpt lat="43.60448" lon="2.69229">
        <ele>705.4</ele>
      </trkpt>
      <trkpt lat="43.60426" lon="2.69242">
        <ele>703.5</ele>
      </trkpt>
      <trkpt lat="43.60362" lon="2.69264">
        <ele>703.4</ele>
      </trkpt>
      <trkpt lat="43.60315" lon="2.69302">
        <ele>699.8</ele>
      </trkpt>
      <trkpt lat="43.60298" lon="2.69324">
        <ele>699.3</ele>
      </trkpt>
      <trkpt lat="43.6022" lon="2.69397">
        <ele>697.9</ele>
      </trkpt>
      <trkpt lat="43.60186" lon="2.69448">
        <ele>694.9</ele>
      </trkpt>
      <trkpt lat="43.60152" lon="2.69504">
        <ele>691.2</ele>
      </trkpt>
      <trkpt lat="43.60122" lon="2.6956">
        <ele>688.3</ele>
      </trkpt>
      <trkpt lat="43.60079" lon="2.69633">
        <ele>683.2</ele>
      </trkpt>
      <trkpt lat="43.60019" lon="2.69676">
        <ele>683.1</ele>
      </trkpt>
      <trkpt lat="43.59997" lon="2.69701">
        <ele>683.9</ele>
      </trkpt>
      <trkpt lat="43.59984" lon="2.69736">
        <ele>685.6</ele>
      </trkpt>
      <trkpt lat="43.59976" lon="2.69774">
        <ele>688.1</ele>
      </trkpt>
      <trkpt lat="43.59972" lon="2.69843">
        <ele>691.5</ele>
      </trkpt>
      <trkpt lat="43.59972" lon="2.6986">
        <ele>692.1</ele>
      </trkpt>
      <trkpt lat="43.59967" lon="2.69903">
        <ele>693.2</ele>
      </trkpt>
      <trkpt lat="43.59946" lon="2.6995">
        <ele>692.3</ele>
      </trkpt>
      <trkpt lat="43.59907" lon="2.69993">
        <ele>692.5</ele>
      </trkpt>
      <trkpt lat="43.5989" lon="2.70023">
        <ele>690.6</ele>
      </trkpt>
      <trkpt lat="43.59847" lon="2.70113">
        <ele>690.5</ele>
      </trkpt>
      <trkpt lat="43.59838" lon="2.70118">
        <ele>692.8</ele>
      </trkpt>
      <trkpt lat="43.59834" lon="2.70131">
        <ele>692.1</ele>
      </trkpt>
      <trkpt lat="43.59821" lon="2.70204">
        <ele>694.8</ele>
      </trkpt>
      <trkpt lat="43.59821" lon="2.70234">
        <ele>695.9</ele>
      </trkpt>
      <trkpt lat="43.59826" lon="2.70328">
        <ele>698.7</ele>
      </trkpt>
      <trkpt lat="43.59817" lon="2.7035">
        <ele>701</ele>
      </trkpt>
      <trkpt lat="43.59804" lon="2.7035">
        <ele>703.9</ele>
      </trkpt>
      <trkpt lat="43.598" lon="2.70337">
        <ele>706.1</ele>
      </trkpt>
      <trkpt lat="43.598" lon="2.70247">
        <ele>710.8</ele>
      </trkpt>
      <trkpt lat="43.59796" lon="2.70191">
        <ele>712.2</ele>
      </trkpt>
      <trkpt lat="43.598" lon="2.70122">
        <ele>715.5</ele>
      </trkpt>
      <trkpt lat="43.59864" lon="2.6989">
        <ele>726.9</ele>
      </trkpt>
      <trkpt lat="43.59886" lon="2.69813">
        <ele>730.7</ele>
      </trkpt>
      <trkpt lat="43.59886" lon="2.69787">
        <ele>732</ele>
      </trkpt>
      <trkpt lat="43.59873" lon="2.69779">
        <ele>733.2</ele>
      </trkpt>
      <trkpt lat="43.59856" lon="2.69792">
        <ele>735.5</ele>
      </trkpt>
      <trkpt lat="43.5983" lon="2.69873">
        <ele>738.3</ele>
      </trkpt>
      <trkpt lat="43.59774" lon="2.69985">
        <ele>744.2</ele>
      </trkpt>
      <trkpt lat="43.59705" lon="2.70156">
        <ele>752.2</ele>
      </trkpt>
      <trkpt lat="43.59637" lon="2.70216">
        <ele>760.8</ele>
      </trkpt>
      <trkpt lat="43.59598" lon="2.70285">
        <ele>763.8</ele>
      </trkpt>
      <trkpt lat="43.59585" lon="2.70307">
        <ele>765.9</ele>
      </trkpt>
      <trkpt lat="43.59568" lon="2.70315">
        <ele>765.5</ele>
      </trkpt>
      <trkpt lat="43.59555" lon="2.70307">
        <ele>768.8</ele>
      </trkpt>
      <trkpt lat="43.59551" lon="2.70289">
        <ele>771.6</ele>
      </trkpt>
      <trkpt lat="43.59581" lon="2.70255">
        <ele>772</ele>
      </trkpt>
      <trkpt lat="43.59598" lon="2.70216">
        <ele>774.6</ele>
      </trkpt>
      <trkpt lat="43.59637" lon="2.70032">
        <ele>783.2</ele>
      </trkpt>
      <trkpt lat="43.59637" lon="2.69925">
        <ele>789.3</ele>
      </trkpt>
      <trkpt lat="43.59624" lon="2.69826">
        <ele>795.2</ele>
      </trkpt>
      <trkpt lat="43.59602" lon="2.69792">
        <ele>798.4</ele>
      </trkpt>
      <trkpt lat="43.59577" lon="2.69779">
        <ele>799.7</ele>
      </trkpt>
      <trkpt lat="43.59564" lon="2.69783">
        <ele>801.5</ele>
      </trkpt>
      <trkpt lat="43.59534" lon="2.69796">
        <ele>802.5</ele>
      </trkpt>
      <trkpt lat="43.59435" lon="2.69886">
        <ele>812.2</ele>
      </trkpt>
      <trkpt lat="43.59384" lon="2.6992">
        <ele>817.2</ele>
      </trkpt>
      <trkpt lat="43.59298" lon="2.69933">
        <ele>821.6</ele>
      </trkpt>
      <trkpt lat="43.59255" lon="2.6995">
        <ele>824.1</ele>
      </trkpt>
      <trkpt lat="43.59113" lon="2.70053">
        <ele>834.8</ele>
      </trkpt>
      <trkpt lat="43.59075" lon="2.70083">
        <ele>839.3</ele>
      </trkpt>
      <trkpt lat="43.59045" lon="2.70122">
        <ele>842.3</ele>
      </trkpt>
      <trkpt lat="43.59023" lon="2.70165">
        <ele>843.7</ele>
      </trkpt>
      <trkpt lat="43.58997" lon="2.70255">
        <ele>848.4</ele>
      </trkpt>
      <trkpt lat="43.58976" lon="2.70298">
        <ele>850.7</ele>
      </trkpt>
      <trkpt lat="43.5895" lon="2.70332">
        <ele>851.5</ele>
      </trkpt>
      <trkpt lat="43.58916" lon="2.70358">
        <ele>853.9</ele>
      </trkpt>
      <trkpt lat="43.58864" lon="2.70371">
        <ele>856.2</ele>
      </trkpt>
      <trkpt lat="43.58787" lon="2.70358">
        <ele>856.4</ele>
      </trkpt>
      <trkpt lat="43.5862" lon="2.70298">
        <ele>863.8</ele>
      </trkpt>
      <trkpt lat="43.58585" lon="2.70302">
        <ele>865.8</ele>
      </trkpt>
      <trkpt lat="43.58555" lon="2.70319">
        <ele>868.5</ele>
      </trkpt>
      <trkpt lat="43.58478" lon="2.70384">
        <ele>871.4</ele>
      </trkpt>
      <trkpt lat="43.58448" lon="2.70401">
        <ele>872.9</ele>
      </trkpt>
      <trkpt lat="43.58324" lon="2.70435">
        <ele>879.6</ele>
      </trkpt>
      <trkpt lat="43.58225" lon="2.70461">
        <ele>884.2</ele>
      </trkpt>
      <trkpt lat="43.58195" lon="2.70474">
        <ele>885.2</ele>
      </trkpt>
      <trkpt lat="43.58148" lon="2.70508">
        <ele>886.8</ele>
      </trkpt>
      <trkpt lat="43.58118" lon="2.70547">
        <ele>888.8</ele>
      </trkpt>
      <trkpt lat="43.58079" lon="2.70607">
        <ele>889.1</ele>
      </trkpt>
      <trkpt lat="43.58036" lon="2.70671">
        <ele>890.1</ele>
      </trkpt>
      <trkpt lat="43.57903" lon="2.70817">
        <ele>892.3</ele>
      </trkpt>
      <trkpt lat="43.57877" lon="2.70852">
        <ele>892</ele>
      </trkpt>
      <trkpt lat="43.57856" lon="2.70903">
        <ele>892.3</ele>
      </trkpt>
      <trkpt lat="43.57826" lon="2.70976">
        <ele>892.4</ele>
      </trkpt>
      <trkpt lat="43.57787" lon="2.71045">
        <ele>894.2</ele>
      </trkpt>
      <trkpt lat="43.5774" lon="2.71118">
        <ele>892.8</ele>
      </trkpt>
      <trkpt lat="43.57718" lon="2.71156">
        <ele>893.1</ele>
      </trkpt>
      <trkpt lat="43.57671" lon="2.71234">
        <ele>893.3</ele>
      </trkpt>
      <trkpt lat="43.57641" lon="2.71264">
        <ele>893.5</ele>
      </trkpt>
      <trkpt lat="43.57512" lon="2.71362">
        <ele>894.5</ele>
      </trkpt>
      <trkpt lat="43.57384" lon="2.71491">
        <ele>894.9</ele>
      </trkpt>
      <trkpt lat="43.57191" lon="2.71676">
        <ele>897.2</ele>
      </trkpt>
      <trkpt lat="43.57139" lon="2.71714">
        <ele>898.4</ele>
      </trkpt>
      <trkpt lat="43.57109" lon="2.71723">
        <ele>899.1</ele>
      </trkpt>
      <trkpt lat="43.57028" lon="2.71714">
        <ele>901.1</ele>
      </trkpt>
      <trkpt lat="43.56976" lon="2.71727">
        <ele>904.6</ele>
      </trkpt>
      <trkpt lat="43.56942" lon="2.71749">
        <ele>906.4</ele>
      </trkpt>
      <trkpt lat="43.56886" lon="2.71809">
        <ele>911.4</ele>
      </trkpt>
      <trkpt lat="43.56809" lon="2.71847">
        <ele>915.2</ele>
      </trkpt>
      <trkpt lat="43.56774" lon="2.71873">
        <ele>918.3</ele>
      </trkpt>
      <trkpt lat="43.56727" lon="2.71929">
        <ele>922.3</ele>
      </trkpt>
      <trkpt lat="43.5665" lon="2.72066">
        <ele>929.3</ele>
      </trkpt>
      <trkpt lat="43.56616" lon="2.72109">
        <ele>931.5</ele>
      </trkpt>
      <trkpt lat="43.56577" lon="2.72135">
        <ele>934.5</ele>
      </trkpt>
      <trkpt lat="43.565" lon="2.72135">
        <ele>939.6</ele>
      </trkpt>
      <trkpt lat="43.56435" lon="2.72148">
        <ele>942.4</ele>
      </trkpt>
      <trkpt lat="43.56397" lon="2.72173">
        <ele>944</ele>
      </trkpt>
      <trkpt lat="43.56367" lon="2.72203">
        <ele>944.4</ele>
      </trkpt>
      <trkpt lat="43.56328" lon="2.72242">
        <ele>946.6</ele>
      </trkpt>
      <trkpt lat="43.56229" lon="2.72302">
        <ele>951.9</ele>
      </trkpt>
      <trkpt lat="43.56204" lon="2.72319">
        <ele>952.7</ele>
      </trkpt>
      <trkpt lat="43.56182" lon="2.72345">
        <ele>954</ele>
      </trkpt>
      <trkpt lat="43.56161" lon="2.72392">
        <ele>954.1</ele>
      </trkpt>
      <trkpt lat="43.56156" lon="2.72405">
        <ele>954</ele>
      </trkpt>
      <trkpt lat="43.56143" lon="2.72474">
        <ele>951.8</ele>
      </trkpt>
      <trkpt lat="43.56096" lon="2.72753">
        <ele>942.1</ele>
      </trkpt>
      <trkpt lat="43.56092" lon="2.72877">
        <ele>941.4</ele>
      </trkpt>
      <trkpt lat="43.56075" lon="2.7295">
        <ele>942.5</ele>
      </trkpt>
      <trkpt lat="43.5601" lon="2.73109">
        <ele>942</ele>
      </trkpt>
      <trkpt lat="43.5598" lon="2.73165">
        <ele>942</ele>
      </trkpt>
      <trkpt lat="43.55929" lon="2.73238">
        <ele>941.8</ele>
      </trkpt>
      <trkpt lat="43.55882" lon="2.73272">
        <ele>942.3</ele>
      </trkpt>
      <trkpt lat="43.55847" lon="2.73285">
        <ele>942.1</ele>
      </trkpt>
      <trkpt lat="43.55804" lon="2.73289">
        <ele>942.5</ele>
      </trkpt>
      <trkpt lat="43.55753" lon="2.73276">
        <ele>941.2</ele>
      </trkpt>
      <trkpt lat="43.55671" lon="2.73238">
        <ele>940.2</ele>
      </trkpt>
      <trkpt lat="43.55594" lon="2.73208">
        <ele>939.5</ele>
      </trkpt>
      <trkpt lat="43.55564" lon="2.73208">
        <ele>939.4</ele>
      </trkpt>
      <trkpt lat="43.55401" lon="2.73272">
        <ele>938.7</ele>
      </trkpt>
      <trkpt lat="43.55006" lon="2.73491">
        <ele>930.6</ele>
      </trkpt>
      <trkpt lat="43.54959" lon="2.73534">
        <ele>928.2</ele>
      </trkpt>
      <trkpt lat="43.54925" lon="2.7359">
        <ele>926.2</ele>
      </trkpt>
      <trkpt lat="43.54843" lon="2.73757">
        <ele>918.6</ele>
      </trkpt>
      <trkpt lat="43.54826" lon="2.73856">
        <ele>913.5</ele>
      </trkpt>
      <trkpt lat="43.54813" lon="2.73933">
        <ele>910.3</ele>
      </trkpt>
      <trkpt lat="43.54783" lon="2.74014">
        <ele>908.9</ele>
      </trkpt>
      <trkpt lat="43.54749" lon="2.74083">
        <ele>908</ele>
      </trkpt>
      <trkpt lat="43.54697" lon="2.74156">
        <ele>907.6</ele>
      </trkpt>
      <trkpt lat="43.54624" lon="2.74238">
        <ele>904.5</ele>
      </trkpt>
      <trkpt lat="43.54556" lon="2.74311">
        <ele>899.6</ele>
      </trkpt>
      <trkpt lat="43.54508" lon="2.74375">
        <ele>895.3</ele>
      </trkpt>
      <trkpt lat="43.54435" lon="2.74491">
        <ele>892.8</ele>
      </trkpt>
      <trkpt lat="43.54397" lon="2.74559">
        <ele>898</ele>
      </trkpt>
      <trkpt lat="43.54371" lon="2.74615">
        <ele>901.5</ele>
      </trkpt>
      <trkpt lat="43.54328" lon="2.74684">
        <ele>905.5</ele>
      </trkpt>
      <trkpt lat="43.5429" lon="2.74735">
        <ele>908.1</ele>
      </trkpt>
      <trkpt lat="43.54238" lon="2.74783">
        <ele>910.9</ele>
      </trkpt>
      <trkpt lat="43.54131" lon="2.74881">
        <ele>914.8</ele>
      </trkpt>
      <trkpt lat="43.53796" lon="2.75199">
        <ele>934.9</ele>
      </trkpt>
      <trkpt lat="43.53526" lon="2.75452">
        <ele>938.4</ele>
      </trkpt>
      <trkpt lat="43.53401" lon="2.75568">
        <ele>937.6</ele>
      </trkpt>
      <trkpt lat="43.53393" lon="2.75581">
        <ele>937.1</ele>
      </trkpt>
      <trkpt lat="43.53371" lon="2.75598">
        <ele>936.7</ele>
      </trkpt>
      <trkpt lat="43.5332" lon="2.7565">
        <ele>933.4</ele>
      </trkpt>
      <trkpt lat="43.5326" lon="2.75705">
        <ele>927.5</ele>
      </trkpt>
      <trkpt lat="43.53238" lon="2.75727">
        <ele>925.7</ele>
      </trkpt>
      <trkpt lat="43.53195" lon="2.75765">
        <ele>922.8</ele>
      </trkpt>
      <trkpt lat="43.53165" lon="2.75783">
        <ele>920.5</ele>
      </trkpt>
      <trkpt lat="43.53148" lon="2.75787">
        <ele>918.7</ele>
      </trkpt>
      <trkpt lat="43.53127" lon="2.75778">
        <ele>919.4</ele>
      </trkpt>
      <trkpt lat="43.53109" lon="2.75761">
        <ele>917.8</ele>
      </trkpt>
      <trkpt lat="43.53096" lon="2.75718">
        <ele>913.6</ele>
      </trkpt>
      <trkpt lat="43.53096" lon="2.75658">
        <ele>912.1</ele>
      </trkpt>
      <trkpt lat="43.53092" lon="2.75615">
        <ele>909.6</ele>
      </trkpt>
      <trkpt lat="43.53092" lon="2.75577">
        <ele>908.8</ele>
      </trkpt>
      <trkpt lat="43.53084" lon="2.75529">
        <ele>907.1</ele>
      </trkpt>
      <trkpt lat="43.53071" lon="2.75499">
        <ele>904.8</ele>
      </trkpt>
      <trkpt lat="43.53006" lon="2.75401">
        <ele>897.3</ele>
      </trkpt>
      <trkpt lat="43.52976" lon="2.75298">
        <ele>893.2</ele>
      </trkpt>
      <trkpt lat="43.52955" lon="2.7519">
        <ele>887.5</ele>
      </trkpt>
      <trkpt lat="43.52938" lon="2.75156">
        <ele>883.5</ele>
      </trkpt>
      <trkpt lat="43.52916" lon="2.7513">
        <ele>881.4</ele>
      </trkpt>
      <trkpt lat="43.52839" lon="2.75083">
        <ele>876.1</ele>
      </trkpt>
      <trkpt lat="43.52809" lon="2.75053">
        <ele>873</ele>
      </trkpt>
      <trkpt lat="43.52787" lon="2.74993">
        <ele>869.5</ele>
      </trkpt>
      <trkpt lat="43.52779" lon="2.74886">
        <ele>864.4</ele>
      </trkpt>
      <trkpt lat="43.52779" lon="2.74783">
        <ele>859.6</ele>
      </trkpt>
      <trkpt lat="43.52779" lon="2.74684">
        <ele>854.5</ele>
      </trkpt>
      <trkpt lat="43.5277" lon="2.74641">
        <ele>850</ele>
      </trkpt>
      <trkpt lat="43.52736" lon="2.74534">
        <ele>845.2</ele>
      </trkpt>
      <trkpt lat="43.52719" lon="2.74491">
        <ele>843.2</ele>
      </trkpt>
      <trkpt lat="43.52637" lon="2.74388">
        <ele>834.5</ele>
      </trkpt>
      <trkpt lat="43.52599" lon="2.74332">
        <ele>830.7</ele>
      </trkpt>
      <trkpt lat="43.52582" lon="2.74319">
        <ele>829</ele>
      </trkpt>
      <trkpt lat="43.5256" lon="2.74319">
        <ele>829.1</ele>
      </trkpt>
      <trkpt lat="43.52479" lon="2.74341">
        <ele>820.5</ele>
      </trkpt>
      <trkpt lat="43.52418" lon="2.74345">
        <ele>816.4</ele>
      </trkpt>
      <trkpt lat="43.52393" lon="2.74336">
        <ele>814.8</ele>
      </trkpt>
      <trkpt lat="43.5238" lon="2.74323">
        <ele>813.9</ele>
      </trkpt>
      <trkpt lat="43.52367" lon="2.74311">
        <ele>812.6</ele>
      </trkpt>
      <trkpt lat="43.5235" lon="2.74272">
        <ele>810.8</ele>
      </trkpt>
      <trkpt lat="43.52333" lon="2.74199">
        <ele>806.6</ele>
      </trkpt>
      <trkpt lat="43.5232" lon="2.74169">
        <ele>806</ele>
      </trkpt>
      <trkpt lat="43.52294" lon="2.74169">
        <ele>803.6</ele>
      </trkpt>
      <trkpt lat="43.52264" lon="2.74186">
        <ele>799.7</ele>
      </trkpt>
      <trkpt lat="43.52208" lon="2.74216">
        <ele>796.3</ele>
      </trkpt>
      <trkpt lat="43.52178" lon="2.74229">
        <ele>793.4</ele>
      </trkpt>
      <trkpt lat="43.52157" lon="2.74229">
        <ele>792.9</ele>
      </trkpt>
      <trkpt lat="43.52088" lon="2.74225">
        <ele>788.7</ele>
      </trkpt>
      <trkpt lat="43.52058" lon="2.74229">
        <ele>786.1</ele>
      </trkpt>
      <trkpt lat="43.52041" lon="2.74242">
        <ele>784.8</ele>
      </trkpt>
      <trkpt lat="43.52002" lon="2.74302">
        <ele>781.2</ele>
      </trkpt>
      <trkpt lat="43.51976" lon="2.74306">
        <ele>778.3</ele>
      </trkpt>
      <trkpt lat="43.51964" lon="2.74298">
        <ele>776.1</ele>
      </trkpt>
      <trkpt lat="43.51903" lon="2.74229">
        <ele>770.8</ele>
      </trkpt>
      <trkpt lat="43.51869" lon="2.74139">
        <ele>765.7</ele>
      </trkpt>
      <trkpt lat="43.51856" lon="2.74083">
        <ele>761.2</ele>
      </trkpt>
      <trkpt lat="43.51839" lon="2.73963">
        <ele>757.5</ele>
      </trkpt>
      <trkpt lat="43.51826" lon="2.7389">
        <ele>751.4</ele>
      </trkpt>
      <trkpt lat="43.51813" lon="2.73821">
        <ele>746</ele>
      </trkpt>
      <trkpt lat="43.51818" lon="2.73791">
        <ele>744</ele>
      </trkpt>
      <trkpt lat="43.51835" lon="2.73731">
        <ele>744.1</ele>
      </trkpt>
      <trkpt lat="43.51835" lon="2.7365">
        <ele>740.2</ele>
      </trkpt>
      <trkpt lat="43.51843" lon="2.73607">
        <ele>737.3</ele>
      </trkpt>
      <trkpt lat="43.51878" lon="2.73508">
        <ele>730.5</ele>
      </trkpt>
      <trkpt lat="43.51921" lon="2.73452">
        <ele>728.3</ele>
      </trkpt>
      <trkpt lat="43.51938" lon="2.73422">
        <ele>726.8</ele>
      </trkpt>
      <trkpt lat="43.51946" lon="2.73358">
        <ele>725.2</ele>
      </trkpt>
      <trkpt lat="43.51942" lon="2.73328">
        <ele>722</ele>
      </trkpt>
      <trkpt lat="43.51938" lon="2.73311">
        <ele>720.7</ele>
      </trkpt>
      <trkpt lat="43.51921" lon="2.73302">
        <ele>718.9</ele>
      </trkpt>
      <trkpt lat="43.51843" lon="2.73276">
        <ele>712.6</ele>
      </trkpt>
      <trkpt lat="43.51792" lon="2.73246">
        <ele>708.3</ele>
      </trkpt>
      <trkpt lat="43.51766" lon="2.73225">
        <ele>705.8</ele>
      </trkpt>
      <trkpt lat="43.51745" lon="2.73199">
        <ele>703.4</ele>
      </trkpt>
      <trkpt lat="43.51723" lon="2.73143">
        <ele>702.1</ele>
      </trkpt>
      <trkpt lat="43.51715" lon="2.731">
        <ele>699.4</ele>
      </trkpt>
      <trkpt lat="43.51706" lon="2.73019">
        <ele>696.4</ele>
      </trkpt>
      <trkpt lat="43.51697" lon="2.72942">
        <ele>693</ele>
      </trkpt>
      <trkpt lat="43.51702" lon="2.72899">
        <ele>693.1</ele>
      </trkpt>
      <trkpt lat="43.51697" lon="2.7289">
        <ele>691.2</ele>
      </trkpt>
      <trkpt lat="43.51689" lon="2.7289">
        <ele>686.6</ele>
      </trkpt>
      <trkpt lat="43.51676" lon="2.72967">
        <ele>685.3</ele>
      </trkpt>
      <trkpt lat="43.5165" lon="2.73066">
        <ele>678.5</ele>
      </trkpt>
      <trkpt lat="43.51637" lon="2.73088">
        <ele>676.9</ele>
      </trkpt>
      <trkpt lat="43.51603" lon="2.73118">
        <ele>674.2</ele>
      </trkpt>
      <trkpt lat="43.51564" lon="2.73165">
        <ele>672.2</ele>
      </trkpt>
      <trkpt lat="43.51552" lon="2.7319">
        <ele>666.3</ele>
      </trkpt>
      <trkpt lat="43.51547" lon="2.73225">
        <ele>664.5</ele>
      </trkpt>
      <trkpt lat="43.51552" lon="2.73259">
        <ele>663.2</ele>
      </trkpt>
      <trkpt lat="43.5156" lon="2.73289">
        <ele>661.3</ele>
      </trkpt>
      <trkpt lat="43.51594" lon="2.73328">
        <ele>657.6</ele>
      </trkpt>
      <trkpt lat="43.51655" lon="2.73379">
        <ele>652.8</ele>
      </trkpt>
      <trkpt lat="43.51667" lon="2.73401">
        <ele>649.9</ele>
      </trkpt>
      <trkpt lat="43.51672" lon="2.73431">
        <ele>647.5</ele>
      </trkpt>
      <trkpt lat="43.51663" lon="2.73457">
        <ele>647.2</ele>
      </trkpt>
      <trkpt lat="43.51607" lon="2.73508">
        <ele>640.5</ele>
      </trkpt>
      <trkpt lat="43.5159" lon="2.73551">
        <ele>640</ele>
      </trkpt>
      <trkpt lat="43.51582" lon="2.73581">
        <ele>637.1</ele>
      </trkpt>
      <trkpt lat="43.51582" lon="2.73624">
        <ele>635.2</ele>
      </trkpt>
      <trkpt lat="43.5159" lon="2.73684">
        <ele>632.3</ele>
      </trkpt>
      <trkpt lat="43.5159" lon="2.73714">
        <ele>630.1</ele>
      </trkpt>
      <trkpt lat="43.51586" lon="2.73736">
        <ele>629.5</ele>
      </trkpt>
      <trkpt lat="43.5156" lon="2.73796">
        <ele>626.4</ele>
      </trkpt>
      <trkpt lat="43.51547" lon="2.73847">
        <ele>620.9</ele>
      </trkpt>
      <trkpt lat="43.51543" lon="2.73899">
        <ele>618.7</ele>
      </trkpt>
      <trkpt lat="43.51534" lon="2.7398">
        <ele>615.9</ele>
      </trkpt>
      <trkpt lat="43.51526" lon="2.74027">
        <ele>612.6</ele>
      </trkpt>
      <trkpt lat="43.51513" lon="2.74045">
        <ele>611.1</ele>
      </trkpt>
      <trkpt lat="43.5141" lon="2.74049">
        <ele>602.6</ele>
      </trkpt>
      <trkpt lat="43.51393" lon="2.74036">
        <ele>601.4</ele>
      </trkpt>
      <trkpt lat="43.51376" lon="2.74019">
        <ele>601.9</ele>
      </trkpt>
      <trkpt lat="43.51341" lon="2.73937">
        <ele>594.7</ele>
      </trkpt>
      <trkpt lat="43.51328" lon="2.73924">
        <ele>593.9</ele>
      </trkpt>
      <trkpt lat="43.51311" lon="2.73916">
        <ele>592.5</ele>
      </trkpt>
      <trkpt lat="43.51281" lon="2.73916">
        <ele>590.1</ele>
      </trkpt>
      <trkpt lat="43.51238" lon="2.73937">
        <ele>586.6</ele>
      </trkpt>
      <trkpt lat="43.51213" lon="2.73963">
        <ele>583.9</ele>
      </trkpt>
      <trkpt lat="43.51204" lon="2.73989">
        <ele>583</ele>
      </trkpt>
      <trkpt lat="43.51195" lon="2.74019">
        <ele>580.5</ele>
      </trkpt>
      <trkpt lat="43.51191" lon="2.74075">
        <ele>576.3</ele>
      </trkpt>
      <trkpt lat="43.51208" lon="2.74173">
        <ele>570.7</ele>
      </trkpt>
      <trkpt lat="43.51195" lon="2.74259">
        <ele>568.6</ele>
      </trkpt>
      <trkpt lat="43.51161" lon="2.74414">
        <ele>561.9</ele>
      </trkpt>
      <trkpt lat="43.51161" lon="2.74478">
        <ele>559.9</ele>
      </trkpt>
      <trkpt lat="43.51161" lon="2.74487">
        <ele>559.1</ele>
      </trkpt>
      <trkpt lat="43.51152" lon="2.74487">
        <ele>556.3</ele>
      </trkpt>
      <trkpt lat="43.51148" lon="2.74474">
        <ele>556.5</ele>
      </trkpt>
      <trkpt lat="43.51148" lon="2.74422">
        <ele>555.9</ele>
      </trkpt>
      <trkpt lat="43.51152" lon="2.74332">
        <ele>553.8</ele>
      </trkpt>
      <trkpt lat="43.51157" lon="2.74302">
        <ele>553.1</ele>
      </trkpt>
      <trkpt lat="43.51152" lon="2.74289">
        <ele>551.9</ele>
      </trkpt>
      <trkpt lat="43.5114" lon="2.74298">
        <ele>548.7</ele>
      </trkpt>
      <trkpt lat="43.5114" lon="2.74336">
        <ele>548.4</ele>
      </trkpt>
      <trkpt lat="43.51118" lon="2.74461">
        <ele>542.7</ele>
      </trkpt>
      <trkpt lat="43.51122" lon="2.74504">
        <ele>541.5</ele>
      </trkpt>
      <trkpt lat="43.5114" lon="2.74577">
        <ele>536.5</ele>
      </trkpt>
      <trkpt lat="43.51131" lon="2.74607">
        <ele>535.1</ele>
      </trkpt>
      <trkpt lat="43.51114" lon="2.74632">
        <ele>533.2</ele>
      </trkpt>
      <trkpt lat="43.51101" lon="2.74641">
        <ele>532.4</ele>
      </trkpt>
      <trkpt lat="43.51084" lon="2.74641">
        <ele>532</ele>
      </trkpt>
      <trkpt lat="43.51067" lon="2.74628">
        <ele>532.6</ele>
      </trkpt>
      <trkpt lat="43.51049" lon="2.74607">
        <ele>530.5</ele>
      </trkpt>
      <trkpt lat="43.51015" lon="2.74551">
        <ele>527.1</ele>
      </trkpt>
      <trkpt lat="43.50981" lon="2.74508">
        <ele>525</ele>
      </trkpt>
      <trkpt lat="43.50938" lon="2.74457">
        <ele>518.3</ele>
      </trkpt>
      <trkpt lat="43.50929" lon="2.74431">
        <ele>516.9</ele>
      </trkpt>
      <trkpt lat="43.50912" lon="2.74358">
        <ele>514.9</ele>
      </trkpt>
      <trkpt lat="43.50886" lon="2.74293">
        <ele>510.3</ele>
      </trkpt>
      <trkpt lat="43.50856" lon="2.74225">
        <ele>505.8</ele>
      </trkpt>
      <trkpt lat="43.50809" lon="2.74148">
        <ele>502.2</ele>
      </trkpt>
      <trkpt lat="43.50783" lon="2.74122">
        <ele>500.7</ele>
      </trkpt>
      <trkpt lat="43.50758" lon="2.74122">
        <ele>498.6</ele>
      </trkpt>
      <trkpt lat="43.50723" lon="2.74148">
        <ele>494.5</ele>
      </trkpt>
      <trkpt lat="43.50676" lon="2.74199">
        <ele>490.2</ele>
      </trkpt>
      <trkpt lat="43.50667" lon="2.74216">
        <ele>489.1</ele>
      </trkpt>
      <trkpt lat="43.5059" lon="2.74323">
        <ele>481.9</ele>
      </trkpt>
      <trkpt lat="43.50552" lon="2.74362">
        <ele>480</ele>
      </trkpt>
      <trkpt lat="43.50496" lon="2.74375">
        <ele>477.5</ele>
      </trkpt>
      <trkpt lat="43.50457" lon="2.74392">
        <ele>473.6</ele>
      </trkpt>
      <trkpt lat="43.50427" lon="2.74414">
        <ele>471</ele>
      </trkpt>
      <trkpt lat="43.5038" lon="2.74469">
        <ele>466.8</ele>
      </trkpt>
      <trkpt lat="43.50363" lon="2.74521">
        <ele>465.2</ele>
      </trkpt>
      <trkpt lat="43.50328" lon="2.74645">
        <ele>458.2</ele>
      </trkpt>
      <trkpt lat="43.50298" lon="2.74731">
        <ele>454.8</ele>
      </trkpt>
      <trkpt lat="43.50264" lon="2.74783">
        <ele>450.6</ele>
      </trkpt>
      <trkpt lat="43.50243" lon="2.74808">
        <ele>449.1</ele>
      </trkpt>
      <trkpt lat="43.502" lon="2.74847">
        <ele>444.7</ele>
      </trkpt>
      <trkpt lat="43.50152" lon="2.74877">
        <ele>441.5</ele>
      </trkpt>
      <trkpt lat="43.50144" lon="2.74899">
        <ele>441.9</ele>
      </trkpt>
      <trkpt lat="43.50148" lon="2.74916">
        <ele>441.1</ele>
      </trkpt>
      <trkpt lat="43.50174" lon="2.7492">
        <ele>438.7</ele>
      </trkpt>
      <trkpt lat="43.50281" lon="2.74864">
        <ele>434.9</ele>
      </trkpt>
      <trkpt lat="43.50298" lon="2.74873">
        <ele>434.9</ele>
      </trkpt>
      <trkpt lat="43.50303" lon="2.74881">
        <ele>433.5</ele>
      </trkpt>
      <trkpt lat="43.50298" lon="2.74899">
        <ele>432.7</ele>
      </trkpt>
      <trkpt lat="43.50255" lon="2.74959">
        <ele>428.8</ele>
      </trkpt>
      <trkpt lat="43.50234" lon="2.7501">
        <ele>426.2</ele>
      </trkpt>
      <trkpt lat="43.50204" lon="2.751">
        <ele>423.6</ele>
      </trkpt>
      <trkpt lat="43.50187" lon="2.75126">
        <ele>419.6</ele>
      </trkpt>
      <trkpt lat="43.50148" lon="2.75152">
        <ele>418.8</ele>
      </trkpt>
      <trkpt lat="43.50062" lon="2.75186">
        <ele>411.4</ele>
      </trkpt>
      <trkpt lat="43.50015" lon="2.7519">
        <ele>408.1</ele>
      </trkpt>
      <trkpt lat="43.49989" lon="2.75182">
        <ele>407.9</ele>
      </trkpt>
      <trkpt lat="43.49929" lon="2.75096">
        <ele>403.1</ele>
      </trkpt>
      <trkpt lat="43.49882" lon="2.75062">
        <ele>399.7</ele>
      </trkpt>
      <trkpt lat="43.49861" lon="2.75062">
        <ele>398.8</ele>
      </trkpt>
      <trkpt lat="43.49839" lon="2.75074">
        <ele>397.7</ele>
      </trkpt>
      <trkpt lat="43.49818" lon="2.75096">
        <ele>394.6</ele>
      </trkpt>
      <trkpt lat="43.49758" lon="2.75203">
        <ele>389</ele>
      </trkpt>
      <trkpt lat="43.49736" lon="2.75276">
        <ele>387.9</ele>
      </trkpt>
      <trkpt lat="43.49723" lon="2.75366">
        <ele>377.1</ele>
      </trkpt>
      <trkpt lat="43.49706" lon="2.75422">
        <ele>375.4</ele>
      </trkpt>
      <trkpt lat="43.4968" lon="2.75461">
        <ele>374.4</ele>
      </trkpt>
      <trkpt lat="43.49642" lon="2.75495">
        <ele>365.9</ele>
      </trkpt>
      <trkpt lat="43.49582" lon="2.75538">
        <ele>364.4</ele>
      </trkpt>
      <trkpt lat="43.49526" lon="2.75564">
        <ele>354.7</ele>
      </trkpt>
      <trkpt lat="43.4944" lon="2.75572">
        <ele>349</ele>
      </trkpt>
      <trkpt lat="43.49397" lon="2.75589">
        <ele>345.6</ele>
      </trkpt>
      <trkpt lat="43.4938" lon="2.75607">
        <ele>344.1</ele>
      </trkpt>
      <trkpt lat="43.49316" lon="2.75684">
        <ele>337.7</ele>
      </trkpt>
      <trkpt lat="43.4926" lon="2.75723">
        <ele>334.1</ele>
      </trkpt>
      <trkpt lat="43.49217" lon="2.75718">
        <ele>329.8</ele>
      </trkpt>
      <trkpt lat="43.49153" lon="2.75735">
        <ele>327.2</ele>
      </trkpt>
      <trkpt lat="43.49118" lon="2.75735">
        <ele>326.4</ele>
      </trkpt>
      <trkpt lat="43.49075" lon="2.75723">
        <ele>322.3</ele>
      </trkpt>
      <trkpt lat="43.49028" lon="2.75697">
        <ele>318</ele>
      </trkpt>
      <trkpt lat="43.48998" lon="2.75684">
        <ele>318.6</ele>
      </trkpt>
      <trkpt lat="43.48985" lon="2.75684">
        <ele>317.8</ele>
      </trkpt>
      <trkpt lat="43.48972" lon="2.75688">
        <ele>317</ele>
      </trkpt>
      <trkpt lat="43.48923" lon="2.75759">
        <ele>316.8</ele>
      </trkpt>
      <trkpt lat="43.48916" lon="2.7575">
        <ele>316.9</ele>
      </trkpt>
      <trkpt lat="43.48916" lon="2.7575">
        <ele>326.02</ele>
        <time>2016-02-21T13:23:23Z</time>
      </trkpt>
      <trkpt lat="43.48922" lon="2.75768">
        <ele>335.64</ele>
        <time>2016-02-21T13:27:49Z</time>
      </trkpt>
      <trkpt lat="43.48912" lon="2.75782">
        <ele>331.31</ele>
        <time>2016-02-21T13:28:00Z</time>
      </trkpt>
      <trkpt lat="43.48893" lon="2.75792">
        <ele>326.99</ele>
        <time>2016-02-21T13:28:11Z</time>
      </trkpt>
      <trkpt lat="43.48889" lon="2.75795">
        <ele>326.02</ele>
        <time>2016-02-21T13:28:12Z</time>
      </trkpt>
      <trkpt lat="43.48885" lon="2.75797">
        <ele>325.54</ele>
        <time>2016-02-21T13:28:13Z</time>
      </trkpt>
      <trkpt lat="43.48881" lon="2.75799">
        <ele>325.06</ele>
        <time>2016-02-21T13:28:14Z</time>
      </trkpt>
      <trkpt lat="43.48877" lon="2.75801">
        <ele>324.1</ele>
        <time>2016-02-21T13:28:15Z</time>
      </trkpt>
      <trkpt lat="43.48869" lon="2.75805">
        <ele>323.14</ele>
        <time>2016-02-21T13:28:17Z</time>
      </trkpt>
      <trkpt lat="43.48866" lon="2.75808">
        <ele>323.14</ele>
        <time>2016-02-21T13:28:18Z</time>
      </trkpt>
      <trkpt lat="43.48862" lon="2.75812">
        <ele>322.66</ele>
        <time>2016-02-21T13:28:19Z</time>
      </trkpt>
      <trkpt lat="43.48859" lon="2.75816">
        <ele>322.18</ele>
        <time>2016-02-21T13:28:20Z</time>
      </trkpt>
      <trkpt lat="43.48857" lon="2.75819">
        <ele>321.7</ele>
        <time>2016-02-21T13:28:21Z</time>
      </trkpt>
      <trkpt lat="43.48854" lon="2.75823">
        <ele>321.22</ele>
        <time>2016-02-21T13:28:22Z</time>
      </trkpt>
      <trkpt lat="43.48826" lon="2.75888">
        <ele>314.97</ele>
        <time>2016-02-21T13:28:33Z</time>
      </trkpt>
      <trkpt lat="43.48801" lon="2.75963">
        <ele>310.64</ele>
        <time>2016-02-21T13:28:44Z</time>
      </trkpt>
      <trkpt lat="43.488" lon="2.75968">
        <ele>310.16</ele>
        <time>2016-02-21T13:28:45Z</time>
      </trkpt>
      <trkpt lat="43.48801" lon="2.75974">
        <ele>310.64</ele>
        <time>2016-02-21T13:28:46Z</time>
      </trkpt>
      <trkpt lat="43.48796" lon="2.75985">
        <ele>309.68</ele>
        <time>2016-02-21T13:28:50Z</time>
      </trkpt>
      <trkpt lat="43.48793" lon="2.75982">
        <ele>310.16</ele>
        <time>2016-02-21T13:28:51Z</time>
      </trkpt>
      <trkpt lat="43.48778" lon="2.75969">
        <ele>310.16</ele>
        <time>2016-02-21T13:28:54Z</time>
      </trkpt>
      <trkpt lat="43.48773" lon="2.75965">
        <ele>311.12</ele>
        <time>2016-02-21T13:28:55Z</time>
      </trkpt>
      <trkpt lat="43.48768" lon="2.75964">
        <ele>310.64</ele>
        <time>2016-02-21T13:28:56Z</time>
      </trkpt>
      <trkpt lat="43.48763" lon="2.75965">
        <ele>312.57</ele>
        <time>2016-02-21T13:28:57Z</time>
      </trkpt>
      <trkpt lat="43.48758" lon="2.75965">
        <ele>312.57</ele>
        <time>2016-02-21T13:28:58Z</time>
      </trkpt>
      <trkpt lat="43.48753" lon="2.75966">
        <ele>312.09</ele>
        <time>2016-02-21T13:28:59Z</time>
      </trkpt>
      <trkpt lat="43.48748" lon="2.75968">
        <ele>313.53</ele>
        <time>2016-02-21T13:29:00Z</time>
      </trkpt>
      <trkpt lat="43.48743" lon="2.7597">
        <ele>315.93</ele>
        <time>2016-02-21T13:29:01Z</time>
      </trkpt>
      <trkpt lat="43.48735" lon="2.75975">
        <ele>321.7</ele>
        <time>2016-02-21T13:29:04Z</time>
      </trkpt>
      <trkpt lat="43.48735" lon="2.75978">
        <ele>321.22</ele>
        <time>2016-02-21T13:29:05Z</time>
      </trkpt>
      <trkpt lat="43.48737" lon="2.75982">
        <ele>319.3</ele>
        <time>2016-02-21T13:29:06Z</time>
      </trkpt>
      <trkpt lat="43.48739" lon="2.75986">
        <ele>319.78</ele>
        <time>2016-02-21T13:29:07Z</time>
      </trkpt>
      <trkpt lat="43.48741" lon="2.7599">
        <ele>319.3</ele>
        <time>2016-02-21T13:29:08Z</time>
      </trkpt>
      <trkpt lat="43.48744" lon="2.75995">
        <ele>318.81</ele>
        <time>2016-02-21T13:29:09Z</time>
      </trkpt>
      <trkpt lat="43.48746" lon="2.76">
        <ele>317.85</ele>
        <time>2016-02-21T13:29:10Z</time>
      </trkpt>
      <trkpt lat="43.48748" lon="2.76005">
        <ele>317.85</ele>
        <time>2016-02-21T13:29:11Z</time>
      </trkpt>
      <trkpt lat="43.48747" lon="2.76012">
        <ele>319.3</ele>
        <time>2016-02-21T13:29:12Z</time>
      </trkpt>
      <trkpt lat="43.48747" lon="2.76018">
        <ele>319.78</ele>
        <time>2016-02-21T13:29:13Z</time>
      </trkpt>
      <trkpt lat="43.48746" lon="2.76024">
        <ele>320.74</ele>
        <time>2016-02-21T13:29:14Z</time>
      </trkpt>
      <trkpt lat="43.48745" lon="2.7603">
        <ele>320.74</ele>
        <time>2016-02-21T13:29:15Z</time>
      </trkpt>
      <trkpt lat="43.48743" lon="2.76046">
        <ele>321.22</ele>
        <time>2016-02-21T13:29:18Z</time>
      </trkpt>
      <trkpt lat="43.4874" lon="2.76058">
        <ele>321.7</ele>
        <time>2016-02-21T13:29:20Z</time>
      </trkpt>
      <trkpt lat="43.48732" lon="2.76089">
        <ele>318.81</ele>
        <time>2016-02-21T13:29:26Z</time>
      </trkpt>
      <trkpt lat="43.48722" lon="2.76113">
        <ele>317.37</ele>
        <time>2016-02-21T13:29:30Z</time>
      </trkpt>
      <trkpt lat="43.48698" lon="2.76166">
        <ele>315.93</ele>
        <time>2016-02-21T13:29:38Z</time>
      </trkpt>
      <trkpt lat="43.48695" lon="2.76173">
        <ele>314.49</ele>
        <time>2016-02-21T13:29:39Z</time>
      </trkpt>
      <trkpt lat="43.48683" lon="2.762">
        <ele>313.53</ele>
        <time>2016-02-21T13:29:43Z</time>
      </trkpt>
      <trkpt lat="43.4868" lon="2.76207">
        <ele>312.09</ele>
        <time>2016-02-21T13:29:44Z</time>
      </trkpt>
      <trkpt lat="43.48678" lon="2.76216">
        <ele>310.64</ele>
        <time>2016-02-21T13:29:45Z</time>
      </trkpt>
      <trkpt lat="43.48667" lon="2.76297">
        <ele>306.8</ele>
        <time>2016-02-21T13:29:56Z</time>
      </trkpt>
      <trkpt lat="43.48665" lon="2.76315">
        <ele>306.8</ele>
        <time>2016-02-21T13:30:22Z</time>
      </trkpt>
      <trkpt lat="43.48661" lon="2.76395">
        <ele>309.68</ele>
        <time>2016-02-21T13:30:30Z</time>
      </trkpt>
      <trkpt lat="43.48658" lon="2.76554">
        <ele>314.97</ele>
        <time>2016-02-21T13:30:40Z</time>
      </trkpt>
      <trkpt lat="43.48633" lon="2.76696">
        <ele>318.33</ele>
        <time>2016-02-21T13:30:48Z</time>
      </trkpt>
      <trkpt lat="43.48592" lon="2.76821">
        <ele>322.66</ele>
        <time>2016-02-21T13:30:56Z</time>
      </trkpt>
      <trkpt lat="43.48586" lon="2.76832">
        <ele>323.14</ele>
        <time>2016-02-21T13:30:57Z</time>
      </trkpt>
      <trkpt lat="43.48576" lon="2.76838">
        <ele>323.14</ele>
        <time>2016-02-21T13:30:58Z</time>
      </trkpt>
      <trkpt lat="43.48565" lon="2.76838">
        <ele>323.62</ele>
        <time>2016-02-21T13:30:59Z</time>
      </trkpt>
      <trkpt lat="43.48554" lon="2.76834">
        <ele>323.62</ele>
        <time>2016-02-21T13:31:00Z</time>
      </trkpt>
      <trkpt lat="43.48545" lon="2.76827">
        <ele>324.1</ele>
        <time>2016-02-21T13:31:01Z</time>
      </trkpt>
      <trkpt lat="43.48535" lon="2.76815">
        <ele>324.58</ele>
        <time>2016-02-21T13:31:02Z</time>
      </trkpt>
      <trkpt lat="43.48527" lon="2.76801">
        <ele>324.58</ele>
        <time>2016-02-21T13:31:03Z</time>
      </trkpt>
      <trkpt lat="43.48519" lon="2.76788">
        <ele>324.58</ele>
        <time>2016-02-21T13:31:04Z</time>
      </trkpt>
      <trkpt lat="43.48477" lon="2.76743">
        <ele>321.7</ele>
        <time>2016-02-21T13:31:08Z</time>
      </trkpt>
      <trkpt lat="43.48464" lon="2.76736">
        <ele>319.78</ele>
        <time>2016-02-21T13:31:09Z</time>
      </trkpt>
      <trkpt lat="43.4845" lon="2.7673">
        <ele>318.81</ele>
        <time>2016-02-21T13:31:10Z</time>
      </trkpt>
      <trkpt lat="43.48436" lon="2.76727">
        <ele>318.33</ele>
        <time>2016-02-21T13:31:11Z</time>
      </trkpt>
      <trkpt lat="43.48422" lon="2.76724">
        <ele>317.37</ele>
        <time>2016-02-21T13:31:12Z</time>
      </trkpt>
      <trkpt lat="43.48379" lon="2.76723">
        <ele>315.93</ele>
        <time>2016-02-21T13:31:15Z</time>
      </trkpt>
      <trkpt lat="43.48366" lon="2.76726">
        <ele>315.45</ele>
        <time>2016-02-21T13:31:16Z</time>
      </trkpt>
      <trkpt lat="43.48352" lon="2.76732">
        <ele>315.93</ele>
        <time>2016-02-21T13:31:17Z</time>
      </trkpt>
      <trkpt lat="43.48339" lon="2.7674">
        <ele>314.97</ele>
        <time>2016-02-21T13:31:18Z</time>
      </trkpt>
      <trkpt lat="43.48329" lon="2.76753">
        <ele>314.49</ele>
        <time>2016-02-21T13:31:19Z</time>
      </trkpt>
      <trkpt lat="43.48319" lon="2.76766">
        <ele>314.01</ele>
        <time>2016-02-21T13:31:20Z</time>
      </trkpt>
      <trkpt lat="43.48309" lon="2.7678">
        <ele>313.53</ele>
        <time>2016-02-21T13:31:21Z</time>
      </trkpt>
      <trkpt lat="43.48298" lon="2.76795">
        <ele>313.05</ele>
        <time>2016-02-21T13:31:22Z</time>
      </trkpt>
      <trkpt lat="43.48249" lon="2.76856">
        <ele>311.6</ele>
        <time>2016-02-21T13:31:27Z</time>
      </trkpt>
      <trkpt lat="43.48238" lon="2.76859">
        <ele>311.12</ele>
        <time>2016-02-21T13:31:28Z</time>
      </trkpt>
      <trkpt lat="43.48228" lon="2.76857">
        <ele>310.16</ele>
        <time>2016-02-21T13:31:29Z</time>
      </trkpt>
      <trkpt lat="43.48217" lon="2.76853">
        <ele>309.68</ele>
        <time>2016-02-21T13:31:30Z</time>
      </trkpt>
      <trkpt lat="43.48207" lon="2.7684">
        <ele>308.72</ele>
        <time>2016-02-21T13:31:31Z</time>
      </trkpt>
      <trkpt lat="43.48197" lon="2.76827">
        <ele>308.72</ele>
        <time>2016-02-21T13:31:32Z</time>
      </trkpt>
      <trkpt lat="43.48175" lon="2.76805">
        <ele>309.2</ele>
        <time>2016-02-21T13:31:34Z</time>
      </trkpt>
      <trkpt lat="43.48163" lon="2.76797">
        <ele>308.72</ele>
        <time>2016-02-21T13:31:35Z</time>
      </trkpt>
      <trkpt lat="43.48151" lon="2.7679">
        <ele>308.24</ele>
        <time>2016-02-21T13:31:36Z</time>
      </trkpt>
      <trkpt lat="43.48013" lon="2.76758">
        <ele>304.39</ele>
        <time>2016-02-21T13:31:46Z</time>
      </trkpt>
      <trkpt lat="43.47997" lon="2.76756">
        <ele>304.39</ele>
        <time>2016-02-21T13:31:47Z</time>
      </trkpt>
      <trkpt lat="43.47982" lon="2.76752">
        <ele>303.91</ele>
        <time>2016-02-21T13:31:48Z</time>
      </trkpt>
      <trkpt lat="43.47966" lon="2.76744">
        <ele>303.91</ele>
        <time>2016-02-21T13:31:49Z</time>
      </trkpt>
      <trkpt lat="43.47951" lon="2.76734">
        <ele>304.39</ele>
        <time>2016-02-21T13:31:50Z</time>
      </trkpt>
      <trkpt lat="43.47936" lon="2.76724">
        <ele>303.91</ele>
        <time>2016-02-21T13:31:51Z</time>
      </trkpt>
      <trkpt lat="43.47861" lon="2.76668">
        <ele>303.43</ele>
        <time>2016-02-21T13:31:56Z</time>
      </trkpt>
      <trkpt lat="43.47848" lon="2.76648">
        <ele>303.91</ele>
        <time>2016-02-21T13:31:57Z</time>
      </trkpt>
      <trkpt lat="43.47836" lon="2.76627">
        <ele>303.91</ele>
        <time>2016-02-21T13:31:58Z</time>
      </trkpt>
      <trkpt lat="43.47799" lon="2.76566">
        <ele>304.39</ele>
        <time>2016-02-21T13:32:01Z</time>
      </trkpt>
      <trkpt lat="43.47783" lon="2.76549">
        <ele>304.88</ele>
        <time>2016-02-21T13:32:02Z</time>
      </trkpt>
      <trkpt lat="43.47766" lon="2.76534">
        <ele>305.36</ele>
        <time>2016-02-21T13:32:03Z</time>
      </trkpt>
      <trkpt lat="43.47679" lon="2.76477">
        <ele>305.84</ele>
        <time>2016-02-21T13:32:08Z</time>
      </trkpt>
      <trkpt lat="43.47662" lon="2.76476">
        <ele>306.32</ele>
        <time>2016-02-21T13:32:09Z</time>
      </trkpt>
      <trkpt lat="43.47644" lon="2.76479">
        <ele>306.8</ele>
        <time>2016-02-21T13:32:10Z</time>
      </trkpt>
      <trkpt lat="43.47625" lon="2.76485">
        <ele>307.28</ele>
        <time>2016-02-21T13:32:11Z</time>
      </trkpt>
      <trkpt lat="43.47606" lon="2.76494">
        <ele>307.76</ele>
        <time>2016-02-21T13:32:12Z</time>
      </trkpt>
      <trkpt lat="43.47586" lon="2.76505">
        <ele>308.24</ele>
        <time>2016-02-21T13:32:13Z</time>
      </trkpt>
      <trkpt lat="43.47485" lon="2.76555">
        <ele>314.49</ele>
        <time>2016-02-21T13:32:18Z</time>
      </trkpt>
      <trkpt lat="43.47465" lon="2.7656">
        <ele>315.93</ele>
        <time>2016-02-21T13:32:19Z</time>
      </trkpt>
      <trkpt lat="43.47408" lon="2.76571">
        <ele>321.22</ele>
        <time>2016-02-21T13:32:22Z</time>
      </trkpt>
      <trkpt lat="43.47389" lon="2.76583">
        <ele>322.66</ele>
        <time>2016-02-21T13:32:23Z</time>
      </trkpt>
      <trkpt lat="43.47371" lon="2.76598">
        <ele>323.62</ele>
        <time>2016-02-21T13:32:24Z</time>
      </trkpt>
      <trkpt lat="43.47304" lon="2.76664">
        <ele>328.43</ele>
        <time>2016-02-21T13:32:28Z</time>
      </trkpt>
      <trkpt lat="43.47288" lon="2.76674">
        <ele>329.39</ele>
        <time>2016-02-21T13:32:29Z</time>
      </trkpt>
      <trkpt lat="43.4727" lon="2.76679">
        <ele>330.83</ele>
        <time>2016-02-21T13:32:30Z</time>
      </trkpt>
      <trkpt lat="43.47254" lon="2.76673">
        <ele>331.79</ele>
        <time>2016-02-21T13:32:31Z</time>
      </trkpt>
      <trkpt lat="43.47239" lon="2.76662">
        <ele>332.75</ele>
        <time>2016-02-21T13:32:32Z</time>
      </trkpt>
      <trkpt lat="43.47226" lon="2.76644">
        <ele>333.71</ele>
        <time>2016-02-21T13:32:33Z</time>
      </trkpt>
      <trkpt lat="43.47215" lon="2.76626">
        <ele>334.68</ele>
        <time>2016-02-21T13:32:34Z</time>
      </trkpt>
      <trkpt lat="43.47204" lon="2.76607">
        <ele>336.6</ele>
        <time>2016-02-21T13:32:35Z</time>
      </trkpt>
      <trkpt lat="43.47193" lon="2.76587">
        <ele>337.56</ele>
        <time>2016-02-21T13:32:36Z</time>
      </trkpt>
      <trkpt lat="43.47183" lon="2.76567">
        <ele>337.56</ele>
        <time>2016-02-21T13:32:37Z</time>
      </trkpt>
      <trkpt lat="43.47172" lon="2.76551">
        <ele>338.52</ele>
        <time>2016-02-21T13:32:38Z</time>
      </trkpt>
      <trkpt lat="43.4716" lon="2.76543">
        <ele>339</ele>
        <time>2016-02-21T13:32:39Z</time>
      </trkpt>
      <trkpt lat="43.47147" lon="2.76547">
        <ele>340.44</ele>
        <time>2016-02-21T13:32:40Z</time>
      </trkpt>
      <trkpt lat="43.47133" lon="2.76558">
        <ele>341.89</ele>
        <time>2016-02-21T13:32:41Z</time>
      </trkpt>
      <trkpt lat="43.47124" lon="2.76569">
        <ele>340.92</ele>
        <time>2016-02-21T13:32:42Z</time>
      </trkpt>
      <trkpt lat="43.47115" lon="2.76585">
        <ele>339.96</ele>
        <time>2016-02-21T13:32:43Z</time>
      </trkpt>
      <trkpt lat="43.47107" lon="2.76607">
        <ele>340.44</ele>
        <time>2016-02-21T13:32:44Z</time>
      </trkpt>
      <trkpt lat="43.47098" lon="2.7663">
        <ele>340.92</ele>
        <time>2016-02-21T13:32:45Z</time>
      </trkpt>
      <trkpt lat="43.47089" lon="2.7665">
        <ele>341.89</ele>
        <time>2016-02-21T13:32:46Z</time>
      </trkpt>
      <trkpt lat="43.47078" lon="2.76666">
        <ele>342.37</ele>
        <time>2016-02-21T13:32:47Z</time>
      </trkpt>
      <trkpt lat="43.47065" lon="2.76677">
        <ele>342.37</ele>
        <time>2016-02-21T13:32:48Z</time>
      </trkpt>
      <trkpt lat="43.4705" lon="2.76681">
        <ele>342.37</ele>
        <time>2016-02-21T13:32:49Z</time>
      </trkpt>
      <trkpt lat="43.47033" lon="2.7668">
        <ele>343.33</ele>
        <time>2016-02-21T13:32:50Z</time>
      </trkpt>
      <trkpt lat="43.47016" lon="2.7668">
        <ele>344.29</ele>
        <time>2016-02-21T13:32:51Z</time>
      </trkpt>
      <trkpt lat="43.46935" lon="2.76686">
        <ele>343.81</ele>
        <time>2016-02-21T13:32:56Z</time>
      </trkpt>
      <trkpt lat="43.46922" lon="2.76677">
        <ele>344.77</ele>
        <time>2016-02-21T13:32:57Z</time>
      </trkpt>
      <trkpt lat="43.4691" lon="2.76663">
        <ele>346.21</ele>
        <time>2016-02-21T13:32:58Z</time>
      </trkpt>
      <trkpt lat="43.46898" lon="2.76646">
        <ele>347.17</ele>
        <time>2016-02-21T13:32:59Z</time>
      </trkpt>
      <trkpt lat="43.46886" lon="2.76628">
        <ele>348.13</ele>
        <time>2016-02-21T13:33:00Z</time>
      </trkpt>
      <trkpt lat="43.46872" lon="2.7661">
        <ele>349.58</ele>
        <time>2016-02-21T13:33:01Z</time>
      </trkpt>
      <trkpt lat="43.46857" lon="2.76593">
        <ele>350.06</ele>
        <time>2016-02-21T13:33:02Z</time>
      </trkpt>
      <trkpt lat="43.4684" lon="2.76578">
        <ele>351.02</ele>
        <time>2016-02-21T13:33:03Z</time>
      </trkpt>
      <trkpt lat="43.46821" lon="2.76564">
        <ele>351.5</ele>
        <time>2016-02-21T13:33:04Z</time>
      </trkpt>
      <trkpt lat="43.46801" lon="2.76553">
        <ele>352.46</ele>
        <time>2016-02-21T13:33:05Z</time>
      </trkpt>
      <trkpt lat="43.4678" lon="2.76544">
        <ele>353.42</ele>
        <time>2016-02-21T13:33:06Z</time>
      </trkpt>
      <trkpt lat="43.46759" lon="2.76538">
        <ele>354.38</ele>
        <time>2016-02-21T13:33:07Z</time>
      </trkpt>
      <trkpt lat="43.46737" lon="2.76535">
        <ele>355.34</ele>
        <time>2016-02-21T13:33:08Z</time>
      </trkpt>
      <trkpt lat="43.46716" lon="2.76534">
        <ele>356.79</ele>
        <time>2016-02-21T13:33:09Z</time>
      </trkpt>
      <trkpt lat="43.46693" lon="2.76535">
        <ele>359.67</ele>
        <time>2016-02-21T13:33:10Z</time>
      </trkpt>
      <trkpt lat="43.46568" lon="2.76556">
        <ele>369.28</ele>
        <time>2016-02-21T13:33:16Z</time>
      </trkpt>
      <trkpt lat="43.46552" lon="2.76562">
        <ele>370.73</ele>
        <time>2016-02-21T13:33:17Z</time>
      </trkpt>
      <trkpt lat="43.46525" lon="2.76576">
        <ele>373.61</ele>
        <time>2016-02-21T13:33:19Z</time>
      </trkpt>
      <trkpt lat="43.46512" lon="2.76578">
        <ele>375.05</ele>
        <time>2016-02-21T13:33:20Z</time>
      </trkpt>
      <trkpt lat="43.465" lon="2.76572">
        <ele>376.97</ele>
        <time>2016-02-21T13:33:21Z</time>
      </trkpt>
      <trkpt lat="43.4649" lon="2.76558">
        <ele>378.42</ele>
        <time>2016-02-21T13:33:22Z</time>
      </trkpt>
      <trkpt lat="43.46484" lon="2.76538">
        <ele>379.86</ele>
        <time>2016-02-21T13:33:23Z</time>
      </trkpt>
      <trkpt lat="43.4648" lon="2.76518">
        <ele>380.34</ele>
        <time>2016-02-21T13:33:24Z</time>
      </trkpt>
      <trkpt lat="43.46476" lon="2.76491">
        <ele>381.3</ele>
        <time>2016-02-21T13:33:25Z</time>
      </trkpt>
      <trkpt lat="43.46472" lon="2.76462">
        <ele>382.74</ele>
        <time>2016-02-21T13:33:26Z</time>
      </trkpt>
      <trkpt lat="43.46459" lon="2.76385">
        <ele>383.7</ele>
        <time>2016-02-21T13:33:29Z</time>
      </trkpt>
      <trkpt lat="43.4646" lon="2.76359">
        <ele>384.18</ele>
        <time>2016-02-21T13:33:30Z</time>
      </trkpt>
      <trkpt lat="43.46463" lon="2.76333">
        <ele>384.66</ele>
        <time>2016-02-21T13:33:31Z</time>
      </trkpt>
      <trkpt lat="43.4647" lon="2.76308">
        <ele>385.63</ele>
        <time>2016-02-21T13:33:32Z</time>
      </trkpt>
      <trkpt lat="43.46474" lon="2.76282">
        <ele>386.11</ele>
        <time>2016-02-21T13:33:33Z</time>
      </trkpt>
      <trkpt lat="43.46477" lon="2.76256">
        <ele>387.55</ele>
        <time>2016-02-21T13:33:34Z</time>
      </trkpt>
      <trkpt lat="43.46474" lon="2.76229">
        <ele>388.51</ele>
        <time>2016-02-21T13:33:35Z</time>
      </trkpt>
      <trkpt lat="43.46468" lon="2.76203">
        <ele>389.47</ele>
        <time>2016-02-21T13:33:36Z</time>
      </trkpt>
      <trkpt lat="43.46459" lon="2.76178">
        <ele>390.43</ele>
        <time>2016-02-21T13:33:37Z</time>
      </trkpt>
      <trkpt lat="43.46448" lon="2.76156">
        <ele>390.91</ele>
        <time>2016-02-21T13:33:38Z</time>
      </trkpt>
      <trkpt lat="43.46435" lon="2.76139">
        <ele>391.39</ele>
        <time>2016-02-21T13:33:39Z</time>
      </trkpt>
      <trkpt lat="43.46421" lon="2.76124">
        <ele>391.39</ele>
        <time>2016-02-21T13:33:40Z</time>
      </trkpt>
      <trkpt lat="43.46408" lon="2.76107">
        <ele>392.36</ele>
        <time>2016-02-21T13:33:41Z</time>
      </trkpt>
      <trkpt lat="43.46398" lon="2.76086">
        <ele>393.32</ele>
        <time>2016-02-21T13:33:42Z</time>
      </trkpt>
      <trkpt lat="43.4639" lon="2.76061">
        <ele>393.8</ele>
        <time>2016-02-21T13:33:43Z</time>
      </trkpt>
      <trkpt lat="43.46385" lon="2.76034">
        <ele>394.28</ele>
        <time>2016-02-21T13:33:44Z</time>
      </trkpt>
      <trkpt lat="43.46379" lon="2.76007">
        <ele>395.24</ele>
        <time>2016-02-21T13:33:45Z</time>
      </trkpt>
      <trkpt lat="43.46354" lon="2.75919">
        <ele>396.2</ele>
        <time>2016-02-21T13:33:49Z</time>
      </trkpt>
      <trkpt lat="43.46355" lon="2.75899">
        <ele>395.24</ele>
        <time>2016-02-21T13:33:50Z</time>
      </trkpt>
      <trkpt lat="43.46362" lon="2.7588">
        <ele>394.76</ele>
        <time>2016-02-21T13:33:51Z</time>
      </trkpt>
      <trkpt lat="43.46375" lon="2.75863">
        <ele>394.76</ele>
        <time>2016-02-21T13:33:52Z</time>
      </trkpt>
      <trkpt lat="43.46387" lon="2.75846">
        <ele>396.2</ele>
        <time>2016-02-21T13:33:53Z</time>
      </trkpt>
      <trkpt lat="43.46402" lon="2.75831">
        <ele>397.16</ele>
        <time>2016-02-21T13:33:54Z</time>
      </trkpt>
      <trkpt lat="43.46418" lon="2.75817">
        <ele>397.16</ele>
        <time>2016-02-21T13:33:55Z</time>
      </trkpt>
      <trkpt lat="43.46432" lon="2.75801">
        <ele>397.16</ele>
        <time>2016-02-21T13:33:56Z</time>
      </trkpt>
      <trkpt lat="43.46442" lon="2.75783">
        <ele>397.64</ele>
        <time>2016-02-21T13:33:57Z</time>
      </trkpt>
      <trkpt lat="43.46447" lon="2.75762">
        <ele>398.6</ele>
        <time>2016-02-21T13:33:58Z</time>
      </trkpt>
      <trkpt lat="43.46446" lon="2.75742">
        <ele>397.64</ele>
        <time>2016-02-21T13:33:59Z</time>
      </trkpt>
      <trkpt lat="43.46438" lon="2.75722">
        <ele>396.68</ele>
        <time>2016-02-21T13:34:00Z</time>
      </trkpt>
      <trkpt lat="43.46424" lon="2.75706">
        <ele>396.68</ele>
        <time>2016-02-21T13:34:01Z</time>
      </trkpt>
      <trkpt lat="43.46409" lon="2.7569">
        <ele>397.64</ele>
        <time>2016-02-21T13:34:02Z</time>
      </trkpt>
      <trkpt lat="43.46392" lon="2.75677">
        <ele>397.64</ele>
        <time>2016-02-21T13:34:03Z</time>
      </trkpt>
      <trkpt lat="43.46378" lon="2.75662">
        <ele>398.12</ele>
        <time>2016-02-21T13:34:04Z</time>
      </trkpt>
      <trkpt lat="43.46365" lon="2.75643">
        <ele>398.12</ele>
        <time>2016-02-21T13:34:05Z</time>
      </trkpt>
      <trkpt lat="43.46357" lon="2.75621">
        <ele>398.12</ele>
        <time>2016-02-21T13:34:06Z</time>
      </trkpt>
      <trkpt lat="43.46352" lon="2.75595">
        <ele>398.12</ele>
        <time>2016-02-21T13:34:07Z</time>
      </trkpt>
      <trkpt lat="43.46348" lon="2.75568">
        <ele>397.16</ele>
        <time>2016-02-21T13:34:08Z</time>
      </trkpt>
      <trkpt lat="43.46344" lon="2.7554">
        <ele>395.24</ele>
        <time>2016-02-21T13:34:09Z</time>
      </trkpt>
      <trkpt lat="43.46315" lon="2.75413">
        <ele>393.32</ele>
        <time>2016-02-21T13:34:14Z</time>
      </trkpt>
      <trkpt lat="43.46303" lon="2.75392">
        <ele>392.84</ele>
        <time>2016-02-21T13:34:15Z</time>
      </trkpt>
      <trkpt lat="43.46287" lon="2.75374">
        <ele>392.36</ele>
        <time>2016-02-21T13:34:16Z</time>
      </trkpt>
      <trkpt lat="43.4627" lon="2.75359">
        <ele>392.36</ele>
        <time>2016-02-21T13:34:17Z</time>
      </trkpt>
      <trkpt lat="43.46251" lon="2.75346">
        <ele>392.84</ele>
        <time>2016-02-21T13:34:18Z</time>
      </trkpt>
      <trkpt lat="43.46233" lon="2.75333">
        <ele>393.32</ele>
        <time>2016-02-21T13:34:19Z</time>
      </trkpt>
      <trkpt lat="43.46181" lon="2.75291">
        <ele>394.28</ele>
        <time>2016-02-21T13:34:22Z</time>
      </trkpt>
      <trkpt lat="43.46166" lon="2.75273">
        <ele>394.76</ele>
        <time>2016-02-21T13:34:23Z</time>
      </trkpt>
      <trkpt lat="43.46152" lon="2.75253">
        <ele>395.24</ele>
        <time>2016-02-21T13:34:24Z</time>
      </trkpt>
      <trkpt lat="43.46074" lon="2.75112">
        <ele>400.53</ele>
        <time>2016-02-21T13:34:31Z</time>
      </trkpt>
      <trkpt lat="43.46052" lon="2.75064">
        <ele>402.93</ele>
        <time>2016-02-21T13:34:34Z</time>
      </trkpt>
      <trkpt lat="43.46008" lon="2.75005">
        <ele>404.37</ele>
        <time>2016-02-21T13:34:39Z</time>
      </trkpt>
      <trkpt lat="43.45997" lon="2.74998">
        <ele>404.85</ele>
        <time>2016-02-21T13:34:40Z</time>
      </trkpt>
      <trkpt lat="43.45984" lon="2.74996">
        <ele>405.33</ele>
        <time>2016-02-21T13:34:41Z</time>
      </trkpt>
      <trkpt lat="43.4597" lon="2.74999">
        <ele>405.81</ele>
        <time>2016-02-21T13:34:42Z</time>
      </trkpt>
      <trkpt lat="43.45958" lon="2.75007">
        <ele>406.29</ele>
        <time>2016-02-21T13:34:43Z</time>
      </trkpt>
      <trkpt lat="43.45947" lon="2.75021">
        <ele>406.77</ele>
        <time>2016-02-21T13:34:44Z</time>
      </trkpt>
      <trkpt lat="43.45938" lon="2.75042">
        <ele>407.74</ele>
        <time>2016-02-21T13:34:45Z</time>
      </trkpt>
      <trkpt lat="43.45933" lon="2.75062">
        <ele>408.7</ele>
        <time>2016-02-21T13:34:46Z</time>
      </trkpt>
      <trkpt lat="43.45929" lon="2.75083">
        <ele>409.66</ele>
        <time>2016-02-21T13:34:47Z</time>
      </trkpt>
      <trkpt lat="43.45928" lon="2.75104">
        <ele>411.1</ele>
        <time>2016-02-21T13:34:48Z</time>
      </trkpt>
      <trkpt lat="43.45925" lon="2.75124">
        <ele>411.58</ele>
        <time>2016-02-21T13:34:49Z</time>
      </trkpt>
      <trkpt lat="43.45922" lon="2.75143">
        <ele>412.06</ele>
        <time>2016-02-21T13:34:50Z</time>
      </trkpt>
      <trkpt lat="43.45915" lon="2.75161">
        <ele>413.02</ele>
        <time>2016-02-21T13:34:51Z</time>
      </trkpt>
      <trkpt lat="43.45906" lon="2.75173">
        <ele>413.98</ele>
        <time>2016-02-21T13:34:52Z</time>
      </trkpt>
      <trkpt lat="43.45893" lon="2.75177">
        <ele>414.95</ele>
        <time>2016-02-21T13:34:53Z</time>
      </trkpt>
      <trkpt lat="43.45879" lon="2.75175">
        <ele>415.91</ele>
        <time>2016-02-21T13:34:54Z</time>
      </trkpt>
      <trkpt lat="43.45863" lon="2.75166">
        <ele>416.87</ele>
        <time>2016-02-21T13:34:55Z</time>
      </trkpt>
      <trkpt lat="43.45846" lon="2.75159">
        <ele>418.31</ele>
        <time>2016-02-21T13:34:56Z</time>
      </trkpt>
      <trkpt lat="43.45829" lon="2.75147">
        <ele>418.79</ele>
        <time>2016-02-21T13:34:57Z</time>
      </trkpt>
      <trkpt lat="43.45812" lon="2.75137">
        <ele>419.75</ele>
        <time>2016-02-21T13:34:58Z</time>
      </trkpt>
      <trkpt lat="43.45776" lon="2.75122">
        <ele>421.68</ele>
        <time>2016-02-21T13:35:00Z</time>
      </trkpt>
      <trkpt lat="43.45757" lon="2.75119">
        <ele>422.16</ele>
        <time>2016-02-21T13:35:01Z</time>
      </trkpt>
      <trkpt lat="43.45737" lon="2.75117">
        <ele>423.6</ele>
        <time>2016-02-21T13:35:02Z</time>
      </trkpt>
      <trkpt lat="43.45717" lon="2.75118">
        <ele>424.56</ele>
        <time>2016-02-21T13:35:03Z</time>
      </trkpt>
      <trkpt lat="43.45697" lon="2.7512">
        <ele>426</ele>
        <time>2016-02-21T13:35:04Z</time>
      </trkpt>
      <trkpt lat="43.45578" lon="2.75125">
        <ele>432.73</ele>
        <time>2016-02-21T13:35:10Z</time>
      </trkpt>
      <trkpt lat="43.45559" lon="2.7513">
        <ele>433.69</ele>
        <time>2016-02-21T13:35:11Z</time>
      </trkpt>
      <trkpt lat="43.45522" lon="2.7514">
        <ele>435.61</ele>
        <time>2016-02-21T13:35:13Z</time>
      </trkpt>
      <trkpt lat="43.45485" lon="2.75146">
        <ele>437.06</ele>
        <time>2016-02-21T13:35:15Z</time>
      </trkpt>
      <trkpt lat="43.45468" lon="2.75152">
        <ele>438.02</ele>
        <time>2016-02-21T13:35:16Z</time>
      </trkpt>
      <trkpt lat="43.45436" lon="2.75166">
        <ele>439.94</ele>
        <time>2016-02-21T13:35:18Z</time>
      </trkpt>
      <trkpt lat="43.45419" lon="2.75168">
        <ele>440.9</ele>
        <time>2016-02-21T13:35:19Z</time>
      </trkpt>
      <trkpt lat="43.45401" lon="2.75166">
        <ele>442.34</ele>
        <time>2016-02-21T13:35:20Z</time>
      </trkpt>
      <trkpt lat="43.45383" lon="2.75158">
        <ele>443.79</ele>
        <time>2016-02-21T13:35:21Z</time>
      </trkpt>
      <trkpt lat="43.45365" lon="2.75146">
        <ele>445.23</ele>
        <time>2016-02-21T13:35:22Z</time>
      </trkpt>
      <trkpt lat="43.45348" lon="2.75132">
        <ele>445.71</ele>
        <time>2016-02-21T13:35:23Z</time>
      </trkpt>
      <trkpt lat="43.45312" lon="2.75114">
        <ele>447.63</ele>
        <time>2016-02-21T13:35:25Z</time>
      </trkpt>
      <trkpt lat="43.45293" lon="2.75111">
        <ele>448.59</ele>
        <time>2016-02-21T13:35:26Z</time>
      </trkpt>
      <trkpt lat="43.45275" lon="2.75114">
        <ele>449.55</ele>
        <time>2016-02-21T13:35:27Z</time>
      </trkpt>
      <trkpt lat="43.45257" lon="2.75122">
        <ele>451</ele>
        <time>2016-02-21T13:35:28Z</time>
      </trkpt>
      <trkpt lat="43.4524" lon="2.75133">
        <ele>451.96</ele>
        <time>2016-02-21T13:35:29Z</time>
      </trkpt>
      <trkpt lat="43.45223" lon="2.75142">
        <ele>452.92</ele>
        <time>2016-02-21T13:35:30Z</time>
      </trkpt>
      <trkpt lat="43.45206" lon="2.75149">
        <ele>453.4</ele>
        <time>2016-02-21T13:35:31Z</time>
      </trkpt>
      <trkpt lat="43.45188" lon="2.75153">
        <ele>454.36</ele>
        <time>2016-02-21T13:35:32Z</time>
      </trkpt>
      <trkpt lat="43.4517" lon="2.75152">
        <ele>455.8</ele>
        <time>2016-02-21T13:35:33Z</time>
      </trkpt>
      <trkpt lat="43.45152" lon="2.75142">
        <ele>456.28</ele>
        <time>2016-02-21T13:35:34Z</time>
      </trkpt>
      <trkpt lat="43.45135" lon="2.75128">
        <ele>457.24</ele>
        <time>2016-02-21T13:35:35Z</time>
      </trkpt>
      <trkpt lat="43.45119" lon="2.75112">
        <ele>457.72</ele>
        <time>2016-02-21T13:35:36Z</time>
      </trkpt>
      <trkpt lat="43.45105" lon="2.7509">
        <ele>459.17</ele>
        <time>2016-02-21T13:35:37Z</time>
      </trkpt>
      <trkpt lat="43.45091" lon="2.75067">
        <ele>461.09</ele>
        <time>2016-02-21T13:35:38Z</time>
      </trkpt>
      <trkpt lat="43.45077" lon="2.75045">
        <ele>462.53</ele>
        <time>2016-02-21T13:35:39Z</time>
      </trkpt>
      <trkpt lat="43.44987" lon="2.74932">
        <ele>469.74</ele>
        <time>2016-02-21T13:35:45Z</time>
      </trkpt>
      <trkpt lat="43.44976" lon="2.74906">
        <ele>470.7</ele>
        <time>2016-02-21T13:35:46Z</time>
      </trkpt>
      <trkpt lat="43.4491" lon="2.74749">
        <ele>476.95</ele>
        <time>2016-02-21T13:35:52Z</time>
      </trkpt>
      <trkpt lat="43.44901" lon="2.74721">
        <ele>478.39</ele>
        <time>2016-02-21T13:35:53Z</time>
      </trkpt>
      <trkpt lat="43.44896" lon="2.74691">
        <ele>479.35</ele>
        <time>2016-02-21T13:35:54Z</time>
      </trkpt>
      <trkpt lat="43.44894" lon="2.7466">
        <ele>480.32</ele>
        <time>2016-02-21T13:35:55Z</time>
      </trkpt>
      <trkpt lat="43.44891" lon="2.74629">
        <ele>481.28</ele>
        <time>2016-02-21T13:35:56Z</time>
      </trkpt>
      <trkpt lat="43.44853" lon="2.74376">
        <ele>491.37</ele>
        <time>2016-02-21T13:36:04Z</time>
      </trkpt>
      <trkpt lat="43.44792" lon="2.73923">
        <ele>511.08</ele>
        <time>2016-02-21T13:36:19Z</time>
      </trkpt>
      <trkpt lat="43.44796" lon="2.73896">
        <ele>512.52</ele>
        <time>2016-02-21T13:36:20Z</time>
      </trkpt>
      <trkpt lat="43.44808" lon="2.73873">
        <ele>513</ele>
        <time>2016-02-21T13:36:21Z</time>
      </trkpt>
      <trkpt lat="43.44842" lon="2.73788">
        <ele>517.33</ele>
        <time>2016-02-21T13:36:25Z</time>
      </trkpt>
      <trkpt lat="43.44845" lon="2.73767">
        <ele>518.29</ele>
        <time>2016-02-21T13:36:26Z</time>
      </trkpt>
      <trkpt lat="43.44843" lon="2.73747">
        <ele>519.25</ele>
        <time>2016-02-21T13:36:27Z</time>
      </trkpt>
      <trkpt lat="43.44836" lon="2.73726">
        <ele>519.73</ele>
        <time>2016-02-21T13:36:28Z</time>
      </trkpt>
      <trkpt lat="43.44824" lon="2.73705">
        <ele>521.17</ele>
        <time>2016-02-21T13:36:29Z</time>
      </trkpt>
      <trkpt lat="43.44809" lon="2.73683">
        <ele>522.61</ele>
        <time>2016-02-21T13:36:30Z</time>
      </trkpt>
      <trkpt lat="43.44798" lon="2.73661">
        <ele>524.06</ele>
        <time>2016-02-21T13:36:31Z</time>
      </trkpt>
      <trkpt lat="43.44788" lon="2.73638">
        <ele>525.02</ele>
        <time>2016-02-21T13:36:32Z</time>
      </trkpt>
      <trkpt lat="43.4476" lon="2.73554">
        <ele>528.86</ele>
        <time>2016-02-21T13:36:36Z</time>
      </trkpt>
      <trkpt lat="43.44759" lon="2.73532">
        <ele>530.3</ele>
        <time>2016-02-21T13:36:37Z</time>
      </trkpt>
      <trkpt lat="43.4476" lon="2.7351">
        <ele>531.75</ele>
        <time>2016-02-21T13:36:38Z</time>
      </trkpt>
      <trkpt lat="43.44763" lon="2.73486">
        <ele>532.71</ele>
        <time>2016-02-21T13:36:39Z</time>
      </trkpt>
      <trkpt lat="43.44766" lon="2.73462">
        <ele>534.63</ele>
        <time>2016-02-21T13:36:40Z</time>
      </trkpt>
      <trkpt lat="43.44771" lon="2.73403">
        <ele>538.48</ele>
        <time>2016-02-21T13:36:43Z</time>
      </trkpt>
      <trkpt lat="43.44769" lon="2.73389">
        <ele>539.92</ele>
        <time>2016-02-21T13:36:44Z</time>
      </trkpt>
      <trkpt lat="43.44762" lon="2.7338">
        <ele>541.36</ele>
        <time>2016-02-21T13:36:45Z</time>
      </trkpt>
      <trkpt lat="43.44751" lon="2.73376">
        <ele>542.8</ele>
        <time>2016-02-21T13:36:46Z</time>
      </trkpt>
      <trkpt lat="43.4474" lon="2.73381">
        <ele>543.28</ele>
        <time>2016-02-21T13:36:47Z</time>
      </trkpt>
      <trkpt lat="43.44729" lon="2.73389">
        <ele>543.28</ele>
        <time>2016-02-21T13:36:48Z</time>
      </trkpt>
      <trkpt lat="43.4472" lon="2.73401">
        <ele>543.28</ele>
        <time>2016-02-21T13:36:49Z</time>
      </trkpt>
      <trkpt lat="43.4471" lon="2.73418">
        <ele>543.76</ele>
        <time>2016-02-21T13:36:50Z</time>
      </trkpt>
      <trkpt lat="43.44699" lon="2.7344">
        <ele>544.72</ele>
        <time>2016-02-21T13:36:51Z</time>
      </trkpt>
      <trkpt lat="43.44688" lon="2.73461">
        <ele>546.17</ele>
        <time>2016-02-21T13:36:52Z</time>
      </trkpt>
      <trkpt lat="43.44677" lon="2.73478">
        <ele>547.61</ele>
        <time>2016-02-21T13:36:53Z</time>
      </trkpt>
      <trkpt lat="43.44664" lon="2.73491">
        <ele>547.61</ele>
        <time>2016-02-21T13:36:54Z</time>
      </trkpt>
      <trkpt lat="43.44648" lon="2.73497">
        <ele>548.57</ele>
        <time>2016-02-21T13:36:55Z</time>
      </trkpt>
      <trkpt lat="43.44632" lon="2.73498">
        <ele>549.53</ele>
        <time>2016-02-21T13:36:56Z</time>
      </trkpt>
      <trkpt lat="43.44616" lon="2.73492">
        <ele>550.97</ele>
        <time>2016-02-21T13:36:57Z</time>
      </trkpt>
      <trkpt lat="43.44601" lon="2.73479">
        <ele>551.93</ele>
        <time>2016-02-21T13:36:58Z</time>
      </trkpt>
      <trkpt lat="43.44585" lon="2.73467">
        <ele>553.86</ele>
        <time>2016-02-21T13:36:59Z</time>
      </trkpt>
      <trkpt lat="43.44571" lon="2.73451">
        <ele>555.78</ele>
        <time>2016-02-21T13:37:00Z</time>
      </trkpt>
      <trkpt lat="43.44556" lon="2.73434">
        <ele>556.26</ele>
        <time>2016-02-21T13:37:01Z</time>
      </trkpt>
      <trkpt lat="43.44542" lon="2.73417">
        <ele>557.7</ele>
        <time>2016-02-21T13:37:02Z</time>
      </trkpt>
      <trkpt lat="43.4442" lon="2.73248">
        <ele>565.87</ele>
        <time>2016-02-21T13:37:11Z</time>
      </trkpt>
      <trkpt lat="43.4437" lon="2.73166">
        <ele>570.68</ele>
        <time>2016-02-21T13:37:15Z</time>
      </trkpt>
      <trkpt lat="43.44353" lon="2.73152">
        <ele>571.64</ele>
        <time>2016-02-21T13:37:16Z</time>
      </trkpt>
      <trkpt lat="43.44334" lon="2.73141">
        <ele>572.6</ele>
        <time>2016-02-21T13:37:17Z</time>
      </trkpt>
      <trkpt lat="43.44208" lon="2.73044">
        <ele>581.73</ele>
        <time>2016-02-21T13:37:25Z</time>
      </trkpt>
      <trkpt lat="43.44196" lon="2.73045">
        <ele>582.7</ele>
        <time>2016-02-21T13:37:26Z</time>
      </trkpt>
      <trkpt lat="43.44182" lon="2.73053">
        <ele>584.62</ele>
        <time>2016-02-21T13:37:27Z</time>
      </trkpt>
      <trkpt lat="43.44172" lon="2.73066">
        <ele>586.06</ele>
        <time>2016-02-21T13:37:28Z</time>
      </trkpt>
      <trkpt lat="43.44165" lon="2.73081">
        <ele>587.02</ele>
        <time>2016-02-21T13:37:29Z</time>
      </trkpt>
      <trkpt lat="43.44162" lon="2.73102">
        <ele>587.98</ele>
        <time>2016-02-21T13:37:30Z</time>
      </trkpt>
      <trkpt lat="43.44161" lon="2.73128">
        <ele>588.46</ele>
        <time>2016-02-21T13:37:31Z</time>
      </trkpt>
      <trkpt lat="43.44162" lon="2.73155">
        <ele>589.43</ele>
        <time>2016-02-21T13:37:32Z</time>
      </trkpt>
      <trkpt lat="43.44165" lon="2.73182">
        <ele>590.39</ele>
        <time>2016-02-21T13:37:33Z</time>
      </trkpt>
      <trkpt lat="43.44167" lon="2.73208">
        <ele>591.35</ele>
        <time>2016-02-21T13:37:34Z</time>
      </trkpt>
      <trkpt lat="43.44171" lon="2.73314">
        <ele>595.67</ele>
        <time>2016-02-21T13:37:38Z</time>
      </trkpt>
      <trkpt lat="43.44169" lon="2.7334">
        <ele>596.64</ele>
        <time>2016-02-21T13:37:39Z</time>
      </trkpt>
      <trkpt lat="43.44162" lon="2.73363">
        <ele>597.6</ele>
        <time>2016-02-21T13:37:40Z</time>
      </trkpt>
      <trkpt lat="43.44153" lon="2.73385">
        <ele>598.56</ele>
        <time>2016-02-21T13:37:41Z</time>
      </trkpt>
      <trkpt lat="43.44142" lon="2.73407">
        <ele>600</ele>
        <time>2016-02-21T13:37:42Z</time>
      </trkpt>
      <trkpt lat="43.44134" lon="2.7343">
        <ele>600.96</ele>
        <time>2016-02-21T13:37:43Z</time>
      </trkpt>
      <trkpt lat="43.44127" lon="2.73454">
        <ele>602.4</ele>
        <time>2016-02-21T13:37:44Z</time>
      </trkpt>
      <trkpt lat="43.44124" lon="2.73479">
        <ele>603.36</ele>
        <time>2016-02-21T13:37:45Z</time>
      </trkpt>
      <trkpt lat="43.44125" lon="2.73506">
        <ele>603.85</ele>
        <time>2016-02-21T13:37:46Z</time>
      </trkpt>
      <trkpt lat="43.44131" lon="2.73534">
        <ele>605.77</ele>
        <time>2016-02-21T13:37:47Z</time>
      </trkpt>
      <trkpt lat="43.44136" lon="2.7356">
        <ele>606.73</ele>
        <time>2016-02-21T13:37:48Z</time>
      </trkpt>
      <trkpt lat="43.44144" lon="2.73662">
        <ele>610.57</ele>
        <time>2016-02-21T13:37:52Z</time>
      </trkpt>
      <trkpt lat="43.44139" lon="2.73688">
        <ele>611.54</ele>
        <time>2016-02-21T13:37:53Z</time>
      </trkpt>
      <trkpt lat="43.44132" lon="2.73712">
        <ele>612.98</ele>
        <time>2016-02-21T13:37:54Z</time>
      </trkpt>
      <trkpt lat="43.44122" lon="2.73735">
        <ele>613.94</ele>
        <time>2016-02-21T13:37:55Z</time>
      </trkpt>
      <trkpt lat="43.4411" lon="2.73758">
        <ele>614.9</ele>
        <time>2016-02-21T13:37:56Z</time>
      </trkpt>
      <trkpt lat="43.44048" lon="2.739">
        <ele>621.63</ele>
        <time>2016-02-21T13:38:02Z</time>
      </trkpt>
      <trkpt lat="43.44034" lon="2.73921">
        <ele>622.11</ele>
        <time>2016-02-21T13:38:03Z</time>
      </trkpt>
      <trkpt lat="43.44018" lon="2.7394">
        <ele>623.07</ele>
        <time>2016-02-21T13:38:04Z</time>
      </trkpt>
      <trkpt lat="43.43999" lon="2.73957">
        <ele>624.51</ele>
        <time>2016-02-21T13:38:05Z</time>
      </trkpt>
      <trkpt lat="43.43979" lon="2.73971">
        <ele>625.47</ele>
        <time>2016-02-21T13:38:06Z</time>
      </trkpt>
      <trkpt lat="43.43958" lon="2.73981">
        <ele>627.4</ele>
        <time>2016-02-21T13:38:07Z</time>
      </trkpt>
      <trkpt lat="43.43937" lon="2.73988">
        <ele>628.84</ele>
        <time>2016-02-21T13:38:08Z</time>
      </trkpt>
      <trkpt lat="43.43918" lon="2.7399">
        <ele>629.32</ele>
        <time>2016-02-21T13:38:09Z</time>
      </trkpt>
      <trkpt lat="43.43901" lon="2.73993">
        <ele>630.28</ele>
        <time>2016-02-21T13:38:10Z</time>
      </trkpt>
      <trkpt lat="43.43869" lon="2.74005">
        <ele>631.72</ele>
        <time>2016-02-21T13:38:12Z</time>
      </trkpt>
      <trkpt lat="43.43855" lon="2.74017">
        <ele>632.2</ele>
        <time>2016-02-21T13:38:13Z</time>
      </trkpt>
      <trkpt lat="43.43843" lon="2.74036">
        <ele>632.68</ele>
        <time>2016-02-21T13:38:14Z</time>
      </trkpt>
      <trkpt lat="43.43831" lon="2.74056">
        <ele>632.2</ele>
        <time>2016-02-21T13:38:15Z</time>
      </trkpt>
      <trkpt lat="43.4382" lon="2.74077">
        <ele>632.2</ele>
        <time>2016-02-21T13:38:16Z</time>
      </trkpt>
      <trkpt lat="43.43762" lon="2.74159">
        <ele>632.68</ele>
        <time>2016-02-21T13:38:21Z</time>
      </trkpt>
      <trkpt lat="43.43748" lon="2.74164">
        <ele>631.72</ele>
        <time>2016-02-21T13:38:22Z</time>
      </trkpt>
      <trkpt lat="43.43733" lon="2.74163">
        <ele>629.8</ele>
        <time>2016-02-21T13:38:23Z</time>
      </trkpt>
      <trkpt lat="43.43716" lon="2.74163">
        <ele>628.84</ele>
        <time>2016-02-21T13:38:24Z</time>
      </trkpt>
      <trkpt lat="43.43698" lon="2.74158">
        <ele>628.84</ele>
        <time>2016-02-21T13:38:25Z</time>
      </trkpt>
      <trkpt lat="43.43676" lon="2.74151">
        <ele>628.84</ele>
        <time>2016-02-21T13:38:26Z</time>
      </trkpt>
      <trkpt lat="43.43654" lon="2.74142">
        <ele>628.84</ele>
        <time>2016-02-21T13:38:27Z</time>
      </trkpt>
      <trkpt lat="43.43632" lon="2.74134">
        <ele>628.84</ele>
        <time>2016-02-21T13:38:28Z</time>
      </trkpt>
      <trkpt lat="43.43485" lon="2.74048">
        <ele>628.36</ele>
        <time>2016-02-21T13:38:35Z</time>
      </trkpt>
      <trkpt lat="43.43447" lon="2.74029">
        <ele>628.36</ele>
        <time>2016-02-21T13:38:37Z</time>
      </trkpt>
      <trkpt lat="43.43427" lon="2.74027">
        <ele>628.36</ele>
        <time>2016-02-21T13:38:38Z</time>
      </trkpt>
      <trkpt lat="43.43407" lon="2.7403">
        <ele>627.88</ele>
        <time>2016-02-21T13:38:39Z</time>
      </trkpt>
      <trkpt lat="43.43386" lon="2.74036">
        <ele>628.36</ele>
        <time>2016-02-21T13:38:40Z</time>
      </trkpt>
      <trkpt lat="43.43367" lon="2.74048">
        <ele>628.36</ele>
        <time>2016-02-21T13:38:41Z</time>
      </trkpt>
      <trkpt lat="43.43351" lon="2.7407">
        <ele>627.4</ele>
        <time>2016-02-21T13:38:42Z</time>
      </trkpt>
      <trkpt lat="43.43334" lon="2.74087">
        <ele>626.92</ele>
        <time>2016-02-21T13:38:43Z</time>
      </trkpt>
      <trkpt lat="43.43318" lon="2.7411">
        <ele>626.92</ele>
        <time>2016-02-21T13:38:44Z</time>
      </trkpt>
      <trkpt lat="43.43301" lon="2.74135">
        <ele>626.92</ele>
        <time>2016-02-21T13:38:45Z</time>
      </trkpt>
      <trkpt lat="43.43283" lon="2.74158">
        <ele>626.92</ele>
        <time>2016-02-21T13:38:46Z</time>
      </trkpt>
      <trkpt lat="43.43183" lon="2.74314">
        <ele>625.96</ele>
        <time>2016-02-21T13:38:53Z</time>
      </trkpt>
      <trkpt lat="43.43171" lon="2.74331">
        <ele>624.99</ele>
        <time>2016-02-21T13:38:54Z</time>
      </trkpt>
      <trkpt lat="43.43157" lon="2.74342">
        <ele>624.51</ele>
        <time>2016-02-21T13:38:55Z</time>
      </trkpt>
      <trkpt lat="43.43142" lon="2.74348">
        <ele>623.55</ele>
        <time>2016-02-21T13:38:56Z</time>
      </trkpt>
      <trkpt lat="43.43125" lon="2.74344">
        <ele>622.59</ele>
        <time>2016-02-21T13:38:57Z</time>
      </trkpt>
      <trkpt lat="43.43108" lon="2.74334">
        <ele>622.11</ele>
        <time>2016-02-21T13:38:58Z</time>
      </trkpt>
      <trkpt lat="43.43094" lon="2.74317">
        <ele>621.63</ele>
        <time>2016-02-21T13:38:59Z</time>
      </trkpt>
      <trkpt lat="43.4308" lon="2.743">
        <ele>620.19</ele>
        <time>2016-02-21T13:39:00Z</time>
      </trkpt>
      <trkpt lat="43.43067" lon="2.74279">
        <ele>618.75</ele>
        <time>2016-02-21T13:39:01Z</time>
      </trkpt>
      <trkpt lat="43.4305" lon="2.74258">
        <ele>618.75</ele>
        <time>2016-02-21T13:39:02Z</time>
      </trkpt>
      <trkpt lat="43.42918" lon="2.74083">
        <ele>609.13</ele>
        <time>2016-02-21T13:39:10Z</time>
      </trkpt>
      <trkpt lat="43.42752" lon="2.73865">
        <ele>592.31</ele>
        <time>2016-02-21T13:39:20Z</time>
      </trkpt>
      <trkpt lat="43.42734" lon="2.7385">
        <ele>590.39</ele>
        <time>2016-02-21T13:39:21Z</time>
      </trkpt>
      <trkpt lat="43.42712" lon="2.73842">
        <ele>588.95</ele>
        <time>2016-02-21T13:39:22Z</time>
      </trkpt>
      <trkpt lat="43.42691" lon="2.73834">
        <ele>587.5</ele>
        <time>2016-02-21T13:39:23Z</time>
      </trkpt>
      <trkpt lat="43.42669" lon="2.73834">
        <ele>586.06</ele>
        <time>2016-02-21T13:39:24Z</time>
      </trkpt>
      <trkpt lat="43.42648" lon="2.73836">
        <ele>584.62</ele>
        <time>2016-02-21T13:39:25Z</time>
      </trkpt>
      <trkpt lat="43.42628" lon="2.73838">
        <ele>583.66</ele>
        <time>2016-02-21T13:39:26Z</time>
      </trkpt>
      <trkpt lat="43.42609" lon="2.73838">
        <ele>582.22</ele>
        <time>2016-02-21T13:39:27Z</time>
      </trkpt>
      <trkpt lat="43.4259" lon="2.73833">
        <ele>580.77</ele>
        <time>2016-02-21T13:39:28Z</time>
      </trkpt>
      <trkpt lat="43.42573" lon="2.73822">
        <ele>579.33</ele>
        <time>2016-02-21T13:39:29Z</time>
      </trkpt>
      <trkpt lat="43.42559" lon="2.73805">
        <ele>577.89</ele>
        <time>2016-02-21T13:39:30Z</time>
      </trkpt>
      <trkpt lat="43.42545" lon="2.7379">
        <ele>577.41</ele>
        <time>2016-02-21T13:39:31Z</time>
      </trkpt>
      <trkpt lat="43.42533" lon="2.73771">
        <ele>575.97</ele>
        <time>2016-02-21T13:39:32Z</time>
      </trkpt>
      <trkpt lat="43.42492" lon="2.73757">
        <ele>573.08</ele>
        <time>2016-02-21T13:39:35Z</time>
      </trkpt>
      <trkpt lat="43.42479" lon="2.73769">
        <ele>572.12</ele>
        <time>2016-02-21T13:39:36Z</time>
      </trkpt>
      <trkpt lat="43.4247" lon="2.73782">
        <ele>570.2</ele>
        <time>2016-02-21T13:39:37Z</time>
      </trkpt>
      <trkpt lat="43.42461" lon="2.73798">
        <ele>568.76</ele>
        <time>2016-02-21T13:39:38Z</time>
      </trkpt>
      <trkpt lat="43.42452" lon="2.73821">
        <ele>567.32</ele>
        <time>2016-02-21T13:39:39Z</time>
      </trkpt>
      <trkpt lat="43.42441" lon="2.73842">
        <ele>566.83</ele>
        <time>2016-02-21T13:39:40Z</time>
      </trkpt>
      <trkpt lat="43.42428" lon="2.73861">
        <ele>566.35</ele>
        <time>2016-02-21T13:39:41Z</time>
      </trkpt>
      <trkpt lat="43.42412" lon="2.73878">
        <ele>565.39</ele>
        <time>2016-02-21T13:39:42Z</time>
      </trkpt>
      <trkpt lat="43.42394" lon="2.73888">
        <ele>564.43</ele>
        <time>2016-02-21T13:39:43Z</time>
      </trkpt>
      <trkpt lat="43.42376" lon="2.73897">
        <ele>563.47</ele>
        <time>2016-02-21T13:39:44Z</time>
      </trkpt>
      <trkpt lat="43.42358" lon="2.73906">
        <ele>562.99</ele>
        <time>2016-02-21T13:39:45Z</time>
      </trkpt>
      <trkpt lat="43.42341" lon="2.73921">
        <ele>562.51</ele>
        <time>2016-02-21T13:39:46Z</time>
      </trkpt>
      <trkpt lat="43.42327" lon="2.73939">
        <ele>561.55</ele>
        <time>2016-02-21T13:39:47Z</time>
      </trkpt>
      <trkpt lat="43.42314" lon="2.73962">
        <ele>560.11</ele>
        <time>2016-02-21T13:39:48Z</time>
      </trkpt>
      <trkpt lat="43.42302" lon="2.73987">
        <ele>559.14</ele>
        <time>2016-02-21T13:39:49Z</time>
      </trkpt>
      <trkpt lat="43.4229" lon="2.74013">
        <ele>558.18</ele>
        <time>2016-02-21T13:39:50Z</time>
      </trkpt>
      <trkpt lat="43.42216" lon="2.74144">
        <ele>551.93</ele>
        <time>2016-02-21T13:39:56Z</time>
      </trkpt>
      <trkpt lat="43.42203" lon="2.74154">
        <ele>550.97</ele>
        <time>2016-02-21T13:39:57Z</time>
      </trkpt>
      <trkpt lat="43.42189" lon="2.74159">
        <ele>549.53</ele>
        <time>2016-02-21T13:39:58Z</time>
      </trkpt>
      <trkpt lat="43.42171" lon="2.74158">
        <ele>548.57</ele>
        <time>2016-02-21T13:39:59Z</time>
      </trkpt>
      <trkpt lat="43.42152" lon="2.74152">
        <ele>547.61</ele>
        <time>2016-02-21T13:40:00Z</time>
      </trkpt>
      <trkpt lat="43.42132" lon="2.74142">
        <ele>546.65</ele>
        <time>2016-02-21T13:40:01Z</time>
      </trkpt>
      <trkpt lat="43.42111" lon="2.74131">
        <ele>545.69</ele>
        <time>2016-02-21T13:40:02Z</time>
      </trkpt>
      <trkpt lat="43.4209" lon="2.74119">
        <ele>544.24</ele>
        <time>2016-02-21T13:40:03Z</time>
      </trkpt>
      <trkpt lat="43.42052" lon="2.74093">
        <ele>542.32</ele>
        <time>2016-02-21T13:40:05Z</time>
      </trkpt>
      <trkpt lat="43.42035" lon="2.74077">
        <ele>541.36</ele>
        <time>2016-02-21T13:40:06Z</time>
      </trkpt>
      <trkpt lat="43.4202" lon="2.74059">
        <ele>540.4</ele>
        <time>2016-02-21T13:40:07Z</time>
      </trkpt>
      <trkpt lat="43.42007" lon="2.74037">
        <ele>538.96</ele>
        <time>2016-02-21T13:40:08Z</time>
      </trkpt>
      <trkpt lat="43.41996" lon="2.74012">
        <ele>537.51</ele>
        <time>2016-02-21T13:40:09Z</time>
      </trkpt>
      <trkpt lat="43.41984" lon="2.73987">
        <ele>536.07</ele>
        <time>2016-02-21T13:40:10Z</time>
      </trkpt>
      <trkpt lat="43.41945" lon="2.73917">
        <ele>532.71</ele>
        <time>2016-02-21T13:40:13Z</time>
      </trkpt>
      <trkpt lat="43.4193" lon="2.73898">
        <ele>531.27</ele>
        <time>2016-02-21T13:40:14Z</time>
      </trkpt>
      <trkpt lat="43.41914" lon="2.73883">
        <ele>529.34</ele>
        <time>2016-02-21T13:40:15Z</time>
      </trkpt>
      <trkpt lat="43.41882" lon="2.73855">
        <ele>526.94</ele>
        <time>2016-02-21T13:40:17Z</time>
      </trkpt>
      <trkpt lat="43.41869" lon="2.73839">
        <ele>525.98</ele>
        <time>2016-02-21T13:40:18Z</time>
      </trkpt>
      <trkpt lat="43.41858" lon="2.7382">
        <ele>524.54</ele>
        <time>2016-02-21T13:40:19Z</time>
      </trkpt>
      <trkpt lat="43.4185" lon="2.73799">
        <ele>523.58</ele>
        <time>2016-02-21T13:40:20Z</time>
      </trkpt>
      <trkpt lat="43.41845" lon="2.73777">
        <ele>522.61</ele>
        <time>2016-02-21T13:40:21Z</time>
      </trkpt>
      <trkpt lat="43.41841" lon="2.73757">
        <ele>520.69</ele>
        <time>2016-02-21T13:40:22Z</time>
      </trkpt>
      <trkpt lat="43.41835" lon="2.73739">
        <ele>519.25</ele>
        <time>2016-02-21T13:40:23Z</time>
      </trkpt>
      <trkpt lat="43.41827" lon="2.73726">
        <ele>518.29</ele>
        <time>2016-02-21T13:40:24Z</time>
      </trkpt>
      <trkpt lat="43.41815" lon="2.7372">
        <ele>517.33</ele>
        <time>2016-02-21T13:40:25Z</time>
      </trkpt>
      <trkpt lat="43.41799" lon="2.73722">
        <ele>515.88</ele>
        <time>2016-02-21T13:40:26Z</time>
      </trkpt>
      <trkpt lat="43.41784" lon="2.73724">
        <ele>513.96</ele>
        <time>2016-02-21T13:40:27Z</time>
      </trkpt>
      <trkpt lat="43.41768" lon="2.7373">
        <ele>512.52</ele>
        <time>2016-02-21T13:40:28Z</time>
      </trkpt>
      <trkpt lat="43.41752" lon="2.73734">
        <ele>512.04</ele>
        <time>2016-02-21T13:40:29Z</time>
      </trkpt>
      <trkpt lat="43.41736" lon="2.73735">
        <ele>510.6</ele>
        <time>2016-02-21T13:40:30Z</time>
      </trkpt>
      <trkpt lat="43.41721" lon="2.73732">
        <ele>510.12</ele>
        <time>2016-02-21T13:40:31Z</time>
      </trkpt>
      <trkpt lat="43.41707" lon="2.73722">
        <ele>509.16</ele>
        <time>2016-02-21T13:40:32Z</time>
      </trkpt>
      <trkpt lat="43.41696" lon="2.73705">
        <ele>508.67</ele>
        <time>2016-02-21T13:40:33Z</time>
      </trkpt>
      <trkpt lat="43.41691" lon="2.73682">
        <ele>505.79</ele>
        <time>2016-02-21T13:40:34Z</time>
      </trkpt>
      <trkpt lat="43.41686" lon="2.73659">
        <ele>503.87</ele>
        <time>2016-02-21T13:40:35Z</time>
      </trkpt>
      <trkpt lat="43.41684" lon="2.73634">
        <ele>501.95</ele>
        <time>2016-02-21T13:40:36Z</time>
      </trkpt>
      <trkpt lat="43.41679" lon="2.73613">
        <ele>500.98</ele>
        <time>2016-02-21T13:40:37Z</time>
      </trkpt>
      <trkpt lat="43.41672" lon="2.73595">
        <ele>499.54</ele>
        <time>2016-02-21T13:40:38Z</time>
      </trkpt>
      <trkpt lat="43.4166" lon="2.7358">
        <ele>498.58</ele>
        <time>2016-02-21T13:40:39Z</time>
      </trkpt>
      <trkpt lat="43.41645" lon="2.73567">
        <ele>500.5</ele>
        <time>2016-02-21T13:40:40Z</time>
      </trkpt>
      <trkpt lat="43.41629" lon="2.73555">
        <ele>499.54</ele>
        <time>2016-02-21T13:40:41Z</time>
      </trkpt>
      <trkpt lat="43.41613" lon="2.73545">
        <ele>499.06</ele>
        <time>2016-02-21T13:40:42Z</time>
      </trkpt>
      <trkpt lat="43.41581" lon="2.73534">
        <ele>499.06</ele>
        <time>2016-02-21T13:40:44Z</time>
      </trkpt>
      <trkpt lat="43.41565" lon="2.73536">
        <ele>499.06</ele>
        <time>2016-02-21T13:40:45Z</time>
      </trkpt>
      <trkpt lat="43.41551" lon="2.73545">
        <ele>498.1</ele>
        <time>2016-02-21T13:40:46Z</time>
      </trkpt>
      <trkpt lat="43.4154" lon="2.7356">
        <ele>497.14</ele>
        <time>2016-02-21T13:40:47Z</time>
      </trkpt>
      <trkpt lat="43.41533" lon="2.73578">
        <ele>496.18</ele>
        <time>2016-02-21T13:40:48Z</time>
      </trkpt>
      <trkpt lat="43.41528" lon="2.73602">
        <ele>495.7</ele>
        <time>2016-02-21T13:40:49Z</time>
      </trkpt>
      <trkpt lat="43.41526" lon="2.73627">
        <ele>494.74</ele>
        <time>2016-02-21T13:40:50Z</time>
      </trkpt>
      <trkpt lat="43.41526" lon="2.73652">
        <ele>493.29</ele>
        <time>2016-02-21T13:40:51Z</time>
      </trkpt>
      <trkpt lat="43.41526" lon="2.73678">
        <ele>491.85</ele>
        <time>2016-02-21T13:40:52Z</time>
      </trkpt>
      <trkpt lat="43.41523" lon="2.73702">
        <ele>491.37</ele>
        <time>2016-02-21T13:40:53Z</time>
      </trkpt>
      <trkpt lat="43.41518" lon="2.73726">
        <ele>490.41</ele>
        <time>2016-02-21T13:40:54Z</time>
      </trkpt>
      <trkpt lat="43.41511" lon="2.7375">
        <ele>489.45</ele>
        <time>2016-02-21T13:40:55Z</time>
      </trkpt>
      <trkpt lat="43.415" lon="2.7377">
        <ele>488.97</ele>
        <time>2016-02-21T13:40:56Z</time>
      </trkpt>
      <trkpt lat="43.41488" lon="2.73789">
        <ele>488.01</ele>
        <time>2016-02-21T13:40:57Z</time>
      </trkpt>
      <trkpt lat="43.41473" lon="2.73806">
        <ele>487.53</ele>
        <time>2016-02-21T13:40:58Z</time>
      </trkpt>
      <trkpt lat="43.41457" lon="2.7382">
        <ele>486.56</ele>
        <time>2016-02-21T13:40:59Z</time>
      </trkpt>
      <trkpt lat="43.4144" lon="2.73833">
        <ele>486.08</ele>
        <time>2016-02-21T13:41:00Z</time>
      </trkpt>
      <trkpt lat="43.41424" lon="2.73846">
        <ele>485.6</ele>
        <time>2016-02-21T13:41:01Z</time>
      </trkpt>
      <trkpt lat="43.41392" lon="2.73877">
        <ele>484.16</ele>
        <time>2016-02-21T13:41:03Z</time>
      </trkpt>
      <trkpt lat="43.41378" lon="2.73896">
        <ele>483.2</ele>
        <time>2016-02-21T13:41:04Z</time>
      </trkpt>
      <trkpt lat="43.41365" lon="2.73918">
        <ele>482.24</ele>
        <time>2016-02-21T13:41:05Z</time>
      </trkpt>
      <trkpt lat="43.41284" lon="2.74081">
        <ele>480.32</ele>
        <time>2016-02-21T13:41:12Z</time>
      </trkpt>
      <trkpt lat="43.41275" lon="2.74105">
        <ele>479.84</ele>
        <time>2016-02-21T13:41:13Z</time>
      </trkpt>
      <trkpt lat="43.41269" lon="2.7413">
        <ele>479.35</ele>
        <time>2016-02-21T13:41:14Z</time>
      </trkpt>
      <trkpt lat="43.41267" lon="2.74157">
        <ele>479.35</ele>
        <time>2016-02-21T13:41:15Z</time>
      </trkpt>
      <trkpt lat="43.41271" lon="2.74188">
        <ele>479.84</ele>
        <time>2016-02-21T13:41:16Z</time>
      </trkpt>
      <trkpt lat="43.41273" lon="2.74216">
        <ele>480.8</ele>
        <time>2016-02-21T13:41:17Z</time>
      </trkpt>
      <trkpt lat="43.41272" lon="2.74272">
        <ele>481.28</ele>
        <time>2016-02-21T13:41:19Z</time>
      </trkpt>
      <trkpt lat="43.41267" lon="2.743">
        <ele>480.8</ele>
        <time>2016-02-21T13:41:20Z</time>
      </trkpt>
      <trkpt lat="43.41258" lon="2.74325">
        <ele>480.32</ele>
        <time>2016-02-21T13:41:21Z</time>
      </trkpt>
      <trkpt lat="43.41245" lon="2.74346">
        <ele>480.32</ele>
        <time>2016-02-21T13:41:22Z</time>
      </trkpt>
      <trkpt lat="43.41228" lon="2.74362">
        <ele>481.76</ele>
        <time>2016-02-21T13:41:23Z</time>
      </trkpt>
      <trkpt lat="43.41209" lon="2.7438">
        <ele>482.24</ele>
        <time>2016-02-21T13:41:24Z</time>
      </trkpt>
      <trkpt lat="43.41192" lon="2.74399">
        <ele>482.72</ele>
        <time>2016-02-21T13:41:25Z</time>
      </trkpt>
      <trkpt lat="43.41177" lon="2.7442">
        <ele>482.72</ele>
        <time>2016-02-21T13:41:26Z</time>
      </trkpt>
      <trkpt lat="43.41163" lon="2.74443">
        <ele>482.72</ele>
        <time>2016-02-21T13:41:27Z</time>
      </trkpt>
      <trkpt lat="43.41152" lon="2.74469">
        <ele>482.72</ele>
        <time>2016-02-21T13:41:28Z</time>
      </trkpt>
      <trkpt lat="43.41144" lon="2.74497">
        <ele>482.24</ele>
        <time>2016-02-21T13:41:29Z</time>
      </trkpt>
      <trkpt lat="43.41137" lon="2.74526">
        <ele>482.24</ele>
        <time>2016-02-21T13:41:30Z</time>
      </trkpt>
      <trkpt lat="43.41131" lon="2.74556">
        <ele>481.76</ele>
        <time>2016-02-21T13:41:31Z</time>
      </trkpt>
      <trkpt lat="43.41089" lon="2.74815">
        <ele>478.87</ele>
        <time>2016-02-21T13:41:40Z</time>
      </trkpt>
      <trkpt lat="43.41079" lon="2.74834">
        <ele>477.91</ele>
        <time>2016-02-21T13:41:41Z</time>
      </trkpt>
      <trkpt lat="43.41066" lon="2.74848">
        <ele>477.91</ele>
        <time>2016-02-21T13:41:42Z</time>
      </trkpt>
      <trkpt lat="43.41052" lon="2.74859">
        <ele>476.47</ele>
        <time>2016-02-21T13:41:43Z</time>
      </trkpt>
      <trkpt lat="43.4103" lon="2.74857">
        <ele>477.43</ele>
        <time>2016-02-21T13:41:44Z</time>
      </trkpt>
      <trkpt lat="43.4101" lon="2.74857">
        <ele>477.43</ele>
        <time>2016-02-21T13:41:45Z</time>
      </trkpt>
      <trkpt lat="43.40987" lon="2.74851">
        <ele>478.39</ele>
        <time>2016-02-21T13:41:46Z</time>
      </trkpt>
      <trkpt lat="43.40965" lon="2.74849">
        <ele>478.87</ele>
        <time>2016-02-21T13:41:47Z</time>
      </trkpt>
      <trkpt lat="43.40944" lon="2.74849">
        <ele>478.87</ele>
        <time>2016-02-21T13:41:48Z</time>
      </trkpt>
      <trkpt lat="43.40922" lon="2.74853">
        <ele>479.35</ele>
        <time>2016-02-21T13:41:49Z</time>
      </trkpt>
      <trkpt lat="43.40901" lon="2.7486">
        <ele>479.84</ele>
        <time>2016-02-21T13:41:50Z</time>
      </trkpt>
      <trkpt lat="43.40881" lon="2.7487">
        <ele>480.8</ele>
        <time>2016-02-21T13:41:51Z</time>
      </trkpt>
      <trkpt lat="43.40862" lon="2.74883">
        <ele>481.76</ele>
        <time>2016-02-21T13:41:52Z</time>
      </trkpt>
      <trkpt lat="43.40842" lon="2.74897">
        <ele>482.24</ele>
        <time>2016-02-21T13:41:53Z</time>
      </trkpt>
      <trkpt lat="43.40784" lon="2.74937">
        <ele>483.2</ele>
        <time>2016-02-21T13:41:56Z</time>
      </trkpt>
      <trkpt lat="43.40767" lon="2.74953">
        <ele>483.68</ele>
        <time>2016-02-21T13:41:57Z</time>
      </trkpt>
      <trkpt lat="43.4068" lon="2.75035">
        <ele>483.68</ele>
        <time>2016-02-21T13:42:02Z</time>
      </trkpt>
      <trkpt lat="43.4066" lon="2.75045">
        <ele>483.68</ele>
        <time>2016-02-21T13:42:03Z</time>
      </trkpt>
      <trkpt lat="43.4064" lon="2.75053">
        <ele>484.16</ele>
        <time>2016-02-21T13:42:04Z</time>
      </trkpt>
      <trkpt lat="43.40618" lon="2.75057">
        <ele>485.12</ele>
        <time>2016-02-21T13:42:05Z</time>
      </trkpt>
      <trkpt lat="43.40597" lon="2.75054">
        <ele>485.12</ele>
        <time>2016-02-21T13:42:06Z</time>
      </trkpt>
      <trkpt lat="43.40577" lon="2.75046">
        <ele>485.12</ele>
        <time>2016-02-21T13:42:07Z</time>
      </trkpt>
      <trkpt lat="43.4056" lon="2.75035">
        <ele>485.6</ele>
        <time>2016-02-21T13:42:08Z</time>
      </trkpt>
      <trkpt lat="43.40544" lon="2.75024">
        <ele>485.6</ele>
        <time>2016-02-21T13:42:09Z</time>
      </trkpt>
      <trkpt lat="43.40531" lon="2.75013">
        <ele>485.6</ele>
        <time>2016-02-21T13:42:10Z</time>
      </trkpt>
      <trkpt lat="43.40518" lon="2.75006">
        <ele>486.56</ele>
        <time>2016-02-21T13:42:11Z</time>
      </trkpt>
      <trkpt lat="43.40505" lon="2.75006">
        <ele>486.56</ele>
        <time>2016-02-21T13:42:12Z</time>
      </trkpt>
      <trkpt lat="43.40491" lon="2.75013">
        <ele>486.56</ele>
        <time>2016-02-21T13:42:13Z</time>
      </trkpt>
      <trkpt lat="43.40479" lon="2.75025">
        <ele>486.56</ele>
        <time>2016-02-21T13:42:14Z</time>
      </trkpt>
      <trkpt lat="43.40468" lon="2.75038">
        <ele>486.08</ele>
        <time>2016-02-21T13:42:15Z</time>
      </trkpt>
      <trkpt lat="43.40455" lon="2.75056">
        <ele>485.6</ele>
        <time>2016-02-21T13:42:16Z</time>
      </trkpt>
      <trkpt lat="43.40441" lon="2.75076">
        <ele>485.6</ele>
        <time>2016-02-21T13:42:17Z</time>
      </trkpt>
      <trkpt lat="43.40383" lon="2.75149">
        <ele>488.01</ele>
        <time>2016-02-21T13:42:21Z</time>
      </trkpt>
      <trkpt lat="43.40372" lon="2.75169">
        <ele>488.01</ele>
        <time>2016-02-21T13:42:22Z</time>
      </trkpt>
      <trkpt lat="43.40364" lon="2.75189">
        <ele>488.49</ele>
        <time>2016-02-21T13:42:23Z</time>
      </trkpt>
      <trkpt lat="43.40354" lon="2.75208">
        <ele>488.49</ele>
        <time>2016-02-21T13:42:24Z</time>
      </trkpt>
      <trkpt lat="43.40343" lon="2.75223">
        <ele>489.45</ele>
        <time>2016-02-21T13:42:25Z</time>
      </trkpt>
      <trkpt lat="43.40329" lon="2.75234">
        <ele>489.45</ele>
        <time>2016-02-21T13:42:26Z</time>
      </trkpt>
      <trkpt lat="43.4031" lon="2.75241">
        <ele>489.93</ele>
        <time>2016-02-21T13:42:27Z</time>
      </trkpt>
      <trkpt lat="43.4029" lon="2.75242">
        <ele>489.93</ele>
        <time>2016-02-21T13:42:28Z</time>
      </trkpt>
      <trkpt lat="43.4027" lon="2.75243">
        <ele>490.89</ele>
        <time>2016-02-21T13:42:29Z</time>
      </trkpt>
      <trkpt lat="43.40251" lon="2.75245">
        <ele>490.89</ele>
        <time>2016-02-21T13:42:30Z</time>
      </trkpt>
      <trkpt lat="43.40232" lon="2.75249">
        <ele>491.85</ele>
        <time>2016-02-21T13:42:31Z</time>
      </trkpt>
      <trkpt lat="43.40172" lon="2.75262">
        <ele>491.85</ele>
        <time>2016-02-21T13:42:34Z</time>
      </trkpt>
      <trkpt lat="43.40022" lon="2.75294">
        <ele>495.22</ele>
        <time>2016-02-21T13:42:41Z</time>
      </trkpt>
      <trkpt lat="43.40001" lon="2.75309">
        <ele>495.7</ele>
        <time>2016-02-21T13:42:42Z</time>
      </trkpt>
      <trkpt lat="43.39982" lon="2.75328">
        <ele>495.7</ele>
        <time>2016-02-21T13:42:43Z</time>
      </trkpt>
      <trkpt lat="43.39964" lon="2.7535">
        <ele>495.7</ele>
        <time>2016-02-21T13:42:44Z</time>
      </trkpt>
      <trkpt lat="43.39945" lon="2.75373">
        <ele>495.22</ele>
        <time>2016-02-21T13:42:45Z</time>
      </trkpt>
      <trkpt lat="43.39765" lon="2.75589">
        <ele>491.37</ele>
        <time>2016-02-21T13:42:55Z</time>
      </trkpt>
      <trkpt lat="43.39719" lon="2.75661">
        <ele>490.41</ele>
        <time>2016-02-21T13:42:58Z</time>
      </trkpt>
      <trkpt lat="43.39707" lon="2.7569">
        <ele>490.41</ele>
        <time>2016-02-21T13:42:59Z</time>
      </trkpt>
      <trkpt lat="43.39653" lon="2.75809">
        <ele>488.01</ele>
        <time>2016-02-21T13:43:04Z</time>
      </trkpt>
      <trkpt lat="43.39639" lon="2.75826">
        <ele>488.01</ele>
        <time>2016-02-21T13:43:05Z</time>
      </trkpt>
      <trkpt lat="43.39623" lon="2.75839">
        <ele>487.53</ele>
        <time>2016-02-21T13:43:06Z</time>
      </trkpt>
      <trkpt lat="43.39603" lon="2.75848">
        <ele>487.53</ele>
        <time>2016-02-21T13:43:07Z</time>
      </trkpt>
      <trkpt lat="43.39583" lon="2.75854">
        <ele>487.05</ele>
        <time>2016-02-21T13:43:08Z</time>
      </trkpt>
      <trkpt lat="43.39562" lon="2.75852">
        <ele>486.56</ele>
        <time>2016-02-21T13:43:09Z</time>
      </trkpt>
      <trkpt lat="43.39543" lon="2.75845">
        <ele>486.08</ele>
        <time>2016-02-21T13:43:10Z</time>
      </trkpt>
      <trkpt lat="43.39524" lon="2.75833">
        <ele>485.6</ele>
        <time>2016-02-21T13:43:11Z</time>
      </trkpt>
      <trkpt lat="43.39506" lon="2.75816">
        <ele>485.12</ele>
        <time>2016-02-21T13:43:12Z</time>
      </trkpt>
      <trkpt lat="43.3949" lon="2.75795">
        <ele>484.64</ele>
        <time>2016-02-21T13:43:13Z</time>
      </trkpt>
      <trkpt lat="43.39475" lon="2.75773">
        <ele>485.12</ele>
        <time>2016-02-21T13:43:14Z</time>
      </trkpt>
      <trkpt lat="43.39464" lon="2.75746">
        <ele>483.68</ele>
        <time>2016-02-21T13:43:15Z</time>
      </trkpt>
      <trkpt lat="43.39453" lon="2.75717">
        <ele>482.72</ele>
        <time>2016-02-21T13:43:16Z</time>
      </trkpt>
      <trkpt lat="43.39442" lon="2.75688">
        <ele>481.76</ele>
        <time>2016-02-21T13:43:17Z</time>
      </trkpt>
      <trkpt lat="43.39363" lon="2.75523">
        <ele>478.39</ele>
        <time>2016-02-21T13:43:23Z</time>
      </trkpt>
      <trkpt lat="43.39346" lon="2.75501">
        <ele>477.91</ele>
        <time>2016-02-21T13:43:24Z</time>
      </trkpt>
      <trkpt lat="43.39329" lon="2.75481">
        <ele>477.43</ele>
        <time>2016-02-21T13:43:25Z</time>
      </trkpt>
      <trkpt lat="43.39238" lon="2.75397">
        <ele>474.07</ele>
        <time>2016-02-21T13:43:31Z</time>
      </trkpt>
      <trkpt lat="43.39224" lon="2.75397">
        <ele>474.07</ele>
        <time>2016-02-21T13:43:32Z</time>
      </trkpt>
      <trkpt lat="43.39208" lon="2.754">
        <ele>473.59</ele>
        <time>2016-02-21T13:43:33Z</time>
      </trkpt>
      <trkpt lat="43.39192" lon="2.75408">
        <ele>473.59</ele>
        <time>2016-02-21T13:43:34Z</time>
      </trkpt>
      <trkpt lat="43.39177" lon="2.75422">
        <ele>473.59</ele>
        <time>2016-02-21T13:43:35Z</time>
      </trkpt>
      <trkpt lat="43.39165" lon="2.75441">
        <ele>473.59</ele>
        <time>2016-02-21T13:43:36Z</time>
      </trkpt>
      <trkpt lat="43.39156" lon="2.75464">
        <ele>473.59</ele>
        <time>2016-02-21T13:43:37Z</time>
      </trkpt>
      <trkpt lat="43.39149" lon="2.75489">
        <ele>473.11</ele>
        <time>2016-02-21T13:43:38Z</time>
      </trkpt>
      <trkpt lat="43.39142" lon="2.75515">
        <ele>473.11</ele>
        <time>2016-02-21T13:43:39Z</time>
      </trkpt>
      <trkpt lat="43.39094" lon="2.75739">
        <ele>469.26</ele>
        <time>2016-02-21T13:43:47Z</time>
      </trkpt>
      <trkpt lat="43.39059" lon="2.75955">
        <ele>465.9</ele>
        <time>2016-02-21T13:43:55Z</time>
      </trkpt>
      <trkpt lat="43.39051" lon="2.75977">
        <ele>465.42</ele>
        <time>2016-02-21T13:43:56Z</time>
      </trkpt>
      <trkpt lat="43.39039" lon="2.75995">
        <ele>464.93</ele>
        <time>2016-02-21T13:43:57Z</time>
      </trkpt>
      <trkpt lat="43.39024" lon="2.76009">
        <ele>464.45</ele>
        <time>2016-02-21T13:43:58Z</time>
      </trkpt>
      <trkpt lat="43.39006" lon="2.76021">
        <ele>463.97</ele>
        <time>2016-02-21T13:43:59Z</time>
      </trkpt>
      <trkpt lat="43.38985" lon="2.76024">
        <ele>463.01</ele>
        <time>2016-02-21T13:44:00Z</time>
      </trkpt>
      <trkpt lat="43.38964" lon="2.76023">
        <ele>463.01</ele>
        <time>2016-02-21T13:44:01Z</time>
      </trkpt>
      <trkpt lat="43.38943" lon="2.76016">
        <ele>462.53</ele>
        <time>2016-02-21T13:44:02Z</time>
      </trkpt>
      <trkpt lat="43.38924" lon="2.76002">
        <ele>462.05</ele>
        <time>2016-02-21T13:44:03Z</time>
      </trkpt>
      <trkpt lat="43.38907" lon="2.75983">
        <ele>461.57</ele>
        <time>2016-02-21T13:44:04Z</time>
      </trkpt>
      <trkpt lat="43.38892" lon="2.75963">
        <ele>461.09</ele>
        <time>2016-02-21T13:44:05Z</time>
      </trkpt>
      <trkpt lat="43.38878" lon="2.75946">
        <ele>460.61</ele>
        <time>2016-02-21T13:44:06Z</time>
      </trkpt>
      <trkpt lat="43.38836" lon="2.75893">
        <ele>459.17</ele>
        <time>2016-02-21T13:44:11Z</time>
      </trkpt>
      <trkpt lat="43.3883" lon="2.75887">
        <ele>457.72</ele>
        <time>2016-02-21T13:44:12Z</time>
      </trkpt>
      <trkpt lat="43.38824" lon="2.75883">
        <ele>457.24</ele>
        <time>2016-02-21T13:44:13Z</time>
      </trkpt>
      <trkpt lat="43.38818" lon="2.75881">
        <ele>456.76</ele>
        <time>2016-02-21T13:44:14Z</time>
      </trkpt>
      <trkpt lat="43.38811" lon="2.75881">
        <ele>456.28</ele>
        <time>2016-02-21T13:44:15Z</time>
      </trkpt>
      <trkpt lat="43.38805" lon="2.75882">
        <ele>455.8</ele>
        <time>2016-02-21T13:44:16Z</time>
      </trkpt>
      <trkpt lat="43.38799" lon="2.75884">
        <ele>455.32</ele>
        <time>2016-02-21T13:44:17Z</time>
      </trkpt>
      <trkpt lat="43.38794" lon="2.75887">
        <ele>455.32</ele>
        <time>2016-02-21T13:44:18Z</time>
      </trkpt>
      <trkpt lat="43.38789" lon="2.7589">
        <ele>454.84</ele>
        <time>2016-02-21T13:44:19Z</time>
      </trkpt>
      <trkpt lat="43.38785" lon="2.75895">
        <ele>454.84</ele>
        <time>2016-02-21T13:44:20Z</time>
      </trkpt>
      <trkpt lat="43.38781" lon="2.75899">
        <ele>454.84</ele>
        <time>2016-02-21T13:44:21Z</time>
      </trkpt>
      <trkpt lat="43.38778" lon="2.75904">
        <ele>454.36</ele>
        <time>2016-02-21T13:44:22Z</time>
      </trkpt>
      <trkpt lat="43.38775" lon="2.7591">
        <ele>454.84</ele>
        <time>2016-02-21T13:44:23Z</time>
      </trkpt>
      <trkpt lat="43.38772" lon="2.75915">
        <ele>454.36</ele>
        <time>2016-02-21T13:44:24Z</time>
      </trkpt>
      <trkpt lat="43.38765" lon="2.75934">
        <ele>454.36</ele>
        <time>2016-02-21T13:44:27Z</time>
      </trkpt>
      <trkpt lat="43.38763" lon="2.75941">
        <ele>454.36</ele>
        <time>2016-02-21T13:44:28Z</time>
      </trkpt>
      <trkpt lat="43.38763" lon="2.75948">
        <ele>454.84</ele>
        <time>2016-02-21T13:44:29Z</time>
      </trkpt>
      <trkpt lat="43.38764" lon="2.75953">
        <ele>454.84</ele>
        <time>2016-02-21T13:44:30Z</time>
      </trkpt>
      <trkpt lat="43.38765" lon="2.75956">
        <ele>454.36</ele>
        <time>2016-02-21T13:44:31Z</time>
      </trkpt>
      <trkpt lat="43.38766" lon="2.75959">
        <ele>455.8</ele>
        <time>2016-02-21T13:44:48Z</time>
      </trkpt>
      <trkpt lat="43.38769" lon="2.75994">
        <ele>454.36</ele>
        <time>2016-02-21T13:44:53Z</time>
      </trkpt>
      <trkpt lat="43.38771" lon="2.76006">
        <ele>453.88</ele>
        <time>2016-02-21T13:44:54Z</time>
      </trkpt>
      <trkpt lat="43.38792" lon="2.76085">
        <ele>451.48</ele>
        <time>2016-02-21T13:44:59Z</time>
      </trkpt>
      <trkpt lat="43.38795" lon="2.76106">
        <ele>450.52</ele>
        <time>2016-02-21T13:45:00Z</time>
      </trkpt>
      <trkpt lat="43.38797" lon="2.76129">
        <ele>449.55</ele>
        <time>2016-02-21T13:45:01Z</time>
      </trkpt>
      <trkpt lat="43.38796" lon="2.76154">
        <ele>449.07</ele>
        <time>2016-02-21T13:45:02Z</time>
      </trkpt>
      <trkpt lat="43.38793" lon="2.76179">
        <ele>448.11</ele>
        <time>2016-02-21T13:45:03Z</time>
      </trkpt>
      <trkpt lat="43.38786" lon="2.76203">
        <ele>447.15</ele>
        <time>2016-02-21T13:45:04Z</time>
      </trkpt>
      <trkpt lat="43.38777" lon="2.76229">
        <ele>446.19</ele>
        <time>2016-02-21T13:45:05Z</time>
      </trkpt>
      <trkpt lat="43.38769" lon="2.76255">
        <ele>444.75</ele>
        <time>2016-02-21T13:45:06Z</time>
      </trkpt>
      <trkpt lat="43.38735" lon="2.76442">
        <ele>436.58</ele>
        <time>2016-02-21T13:45:13Z</time>
      </trkpt>
      <trkpt lat="43.38731" lon="2.76494">
        <ele>433.69</ele>
        <time>2016-02-21T13:45:15Z</time>
      </trkpt>
      <trkpt lat="43.38726" lon="2.7652">
        <ele>432.73</ele>
        <time>2016-02-21T13:45:16Z</time>
      </trkpt>
      <trkpt lat="43.38717" lon="2.76546">
        <ele>431.77</ele>
        <time>2016-02-21T13:45:17Z</time>
      </trkpt>
      <trkpt lat="43.38706" lon="2.7657">
        <ele>430.33</ele>
        <time>2016-02-21T13:45:18Z</time>
      </trkpt>
      <trkpt lat="43.38689" lon="2.7659">
        <ele>429.37</ele>
        <time>2016-02-21T13:45:19Z</time>
      </trkpt>
      <trkpt lat="43.38669" lon="2.76606">
        <ele>428.4</ele>
        <time>2016-02-21T13:45:20Z</time>
      </trkpt>
      <trkpt lat="43.38647" lon="2.7662">
        <ele>427.44</ele>
        <time>2016-02-21T13:45:21Z</time>
      </trkpt>
      <trkpt lat="43.38624" lon="2.76632">
        <ele>426</ele>
        <time>2016-02-21T13:45:22Z</time>
      </trkpt>
      <trkpt lat="43.386" lon="2.76639">
        <ele>425.04</ele>
        <time>2016-02-21T13:45:23Z</time>
      </trkpt>
      <trkpt lat="43.38577" lon="2.76646">
        <ele>423.6</ele>
        <time>2016-02-21T13:45:24Z</time>
      </trkpt>
      <trkpt lat="43.38445" lon="2.76696">
        <ele>414.95</ele>
        <time>2016-02-21T13:45:30Z</time>
      </trkpt>
      <trkpt lat="43.38426" lon="2.76712">
        <ele>413.5</ele>
        <time>2016-02-21T13:45:31Z</time>
      </trkpt>
      <trkpt lat="43.38408" lon="2.76731">
        <ele>412.06</ele>
        <time>2016-02-21T13:45:32Z</time>
      </trkpt>
      <trkpt lat="43.3824" lon="2.76945">
        <ele>399.57</ele>
        <time>2016-02-21T13:45:42Z</time>
      </trkpt>
      <trkpt lat="43.3823" lon="2.76975">
        <ele>398.6</ele>
        <time>2016-02-21T13:45:43Z</time>
      </trkpt>
      <trkpt lat="43.38221" lon="2.77007">
        <ele>397.64</ele>
        <time>2016-02-21T13:45:44Z</time>
      </trkpt>
      <trkpt lat="43.38138" lon="2.77265">
        <ele>385.15</ele>
        <time>2016-02-21T13:45:53Z</time>
      </trkpt>
      <trkpt lat="43.38085" lon="2.77375">
        <ele>378.9</ele>
        <time>2016-02-21T13:45:58Z</time>
      </trkpt>
      <trkpt lat="43.38073" lon="2.77391">
        <ele>377.94</ele>
        <time>2016-02-21T13:45:59Z</time>
      </trkpt>
      <trkpt lat="43.38059" lon="2.77406">
        <ele>376.97</ele>
        <time>2016-02-21T13:46:00Z</time>
      </trkpt>
      <trkpt lat="43.37889" lon="2.77554">
        <ele>364</ele>
        <time>2016-02-21T13:46:12Z</time>
      </trkpt>
      <trkpt lat="43.37873" lon="2.77559">
        <ele>363.52</ele>
        <time>2016-02-21T13:46:13Z</time>
      </trkpt>
      <trkpt lat="43.37856" lon="2.77562">
        <ele>362.07</ele>
        <time>2016-02-21T13:46:14Z</time>
      </trkpt>
      <trkpt lat="43.37839" lon="2.77563">
        <ele>361.11</ele>
        <time>2016-02-21T13:46:15Z</time>
      </trkpt>
      <trkpt lat="43.37787" lon="2.77564">
        <ele>358.23</ele>
        <time>2016-02-21T13:46:18Z</time>
      </trkpt>
      <trkpt lat="43.3777" lon="2.77569">
        <ele>357.27</ele>
        <time>2016-02-21T13:46:19Z</time>
      </trkpt>
      <trkpt lat="43.37755" lon="2.7758">
        <ele>356.79</ele>
        <time>2016-02-21T13:46:20Z</time>
      </trkpt>
      <trkpt lat="43.3774" lon="2.77596">
        <ele>355.83</ele>
        <time>2016-02-21T13:46:21Z</time>
      </trkpt>
      <trkpt lat="43.37727" lon="2.77614">
        <ele>354.86</ele>
        <time>2016-02-21T13:46:22Z</time>
      </trkpt>
      <trkpt lat="43.37713" lon="2.77634">
        <ele>353.9</ele>
        <time>2016-02-21T13:46:23Z</time>
      </trkpt>
      <trkpt lat="43.37636" lon="2.77749">
        <ele>346.69</ele>
        <time>2016-02-21T13:46:29Z</time>
      </trkpt>
      <trkpt lat="43.37621" lon="2.77763">
        <ele>345.25</ele>
        <time>2016-02-21T13:46:30Z</time>
      </trkpt>
      <trkpt lat="43.37605" lon="2.77775">
        <ele>344.29</ele>
        <time>2016-02-21T13:46:31Z</time>
      </trkpt>
      <trkpt lat="43.37586" lon="2.77781">
        <ele>343.33</ele>
        <time>2016-02-21T13:46:32Z</time>
      </trkpt>
      <trkpt lat="43.37566" lon="2.77782">
        <ele>341.89</ele>
        <time>2016-02-21T13:46:33Z</time>
      </trkpt>
      <trkpt lat="43.37545" lon="2.77781">
        <ele>340.44</ele>
        <time>2016-02-21T13:46:34Z</time>
      </trkpt>
      <trkpt lat="43.37525" lon="2.77774">
        <ele>339</ele>
        <time>2016-02-21T13:46:35Z</time>
      </trkpt>
      <trkpt lat="43.37508" lon="2.77763">
        <ele>337.56</ele>
        <time>2016-02-21T13:46:36Z</time>
      </trkpt>
      <trkpt lat="43.37491" lon="2.77748">
        <ele>335.64</ele>
        <time>2016-02-21T13:46:37Z</time>
      </trkpt>
      <trkpt lat="43.37473" lon="2.77732">
        <ele>333.71</ele>
        <time>2016-02-21T13:46:38Z</time>
      </trkpt>
      <trkpt lat="43.37324" lon="2.77598">
        <ele>320.26</ele>
        <time>2016-02-21T13:46:46Z</time>
      </trkpt>
      <trkpt lat="43.37306" lon="2.77594">
        <ele>318.33</ele>
        <time>2016-02-21T13:46:47Z</time>
      </trkpt>
      <trkpt lat="43.37286" lon="2.77596">
        <ele>316.89</ele>
        <time>2016-02-21T13:46:48Z</time>
      </trkpt>
      <trkpt lat="43.37266" lon="2.77603">
        <ele>315.45</ele>
        <time>2016-02-21T13:46:49Z</time>
      </trkpt>
      <trkpt lat="43.37245" lon="2.77615">
        <ele>314.97</ele>
        <time>2016-02-21T13:46:50Z</time>
      </trkpt>
      <trkpt lat="43.37225" lon="2.77628">
        <ele>314.01</ele>
        <time>2016-02-21T13:46:51Z</time>
      </trkpt>
      <trkpt lat="43.37205" lon="2.77641">
        <ele>313.05</ele>
        <time>2016-02-21T13:46:52Z</time>
      </trkpt>
      <trkpt lat="43.37008" lon="2.77762">
        <ele>301.03</ele>
        <time>2016-02-21T13:47:02Z</time>
      </trkpt>
      <trkpt lat="43.36987" lon="2.77764">
        <ele>300.07</ele>
        <time>2016-02-21T13:47:03Z</time>
      </trkpt>
      <trkpt lat="43.36966" lon="2.77761">
        <ele>298.63</ele>
        <time>2016-02-21T13:47:04Z</time>
      </trkpt>
      <trkpt lat="43.36945" lon="2.77754">
        <ele>297.67</ele>
        <time>2016-02-21T13:47:05Z</time>
      </trkpt>
      <trkpt lat="43.36924" lon="2.77745">
        <ele>296.22</ele>
        <time>2016-02-21T13:47:06Z</time>
      </trkpt>
      <trkpt lat="43.36904" lon="2.77732">
        <ele>294.3</ele>
        <time>2016-02-21T13:47:07Z</time>
      </trkpt>
      <trkpt lat="43.36884" lon="2.77718">
        <ele>292.86</ele>
        <time>2016-02-21T13:47:08Z</time>
      </trkpt>
      <trkpt lat="43.36688" lon="2.77578">
        <ele>275.56</ele>
        <time>2016-02-21T13:47:19Z</time>
      </trkpt>
      <trkpt lat="43.36598" lon="2.7752">
        <ele>267.86</ele>
        <time>2016-02-21T13:47:25Z</time>
      </trkpt>
      <trkpt lat="43.36583" lon="2.77517">
        <ele>266.42</ele>
        <time>2016-02-21T13:47:26Z</time>
      </trkpt>
      <trkpt lat="43.36568" lon="2.77517">
        <ele>264.98</ele>
        <time>2016-02-21T13:47:27Z</time>
      </trkpt>
      <trkpt lat="43.36552" lon="2.7752">
        <ele>264.02</ele>
        <time>2016-02-21T13:47:28Z</time>
      </trkpt>
      <trkpt lat="43.36537" lon="2.77526">
        <ele>262.58</ele>
        <time>2016-02-21T13:47:29Z</time>
      </trkpt>
      <trkpt lat="43.36523" lon="2.77542">
        <ele>261.62</ele>
        <time>2016-02-21T13:47:30Z</time>
      </trkpt>
      <trkpt lat="43.36509" lon="2.77561">
        <ele>260.17</ele>
        <time>2016-02-21T13:47:31Z</time>
      </trkpt>
      <trkpt lat="43.36495" lon="2.77584">
        <ele>258.73</ele>
        <time>2016-02-21T13:47:32Z</time>
      </trkpt>
      <trkpt lat="43.3648" lon="2.77609">
        <ele>257.29</ele>
        <time>2016-02-21T13:47:33Z</time>
      </trkpt>
      <trkpt lat="43.3639" lon="2.77738">
        <ele>250.56</ele>
        <time>2016-02-21T13:47:39Z</time>
      </trkpt>
      <trkpt lat="43.36374" lon="2.77754">
        <ele>249.6</ele>
        <time>2016-02-21T13:47:40Z</time>
      </trkpt>
      <trkpt lat="43.36156" lon="2.77939">
        <ele>235.66</ele>
        <time>2016-02-21T13:47:52Z</time>
      </trkpt>
      <trkpt lat="43.36101" lon="2.77974">
        <ele>231.81</ele>
        <time>2016-02-21T13:47:55Z</time>
      </trkpt>
      <trkpt lat="43.36079" lon="2.77977">
        <ele>230.85</ele>
        <time>2016-02-21T13:47:56Z</time>
      </trkpt>
      <trkpt lat="43.36058" lon="2.77975">
        <ele>229.41</ele>
        <time>2016-02-21T13:47:57Z</time>
      </trkpt>
      <trkpt lat="43.36038" lon="2.77965">
        <ele>227.49</ele>
        <time>2016-02-21T13:47:58Z</time>
      </trkpt>
      <trkpt lat="43.36018" lon="2.77948">
        <ele>226.53</ele>
        <time>2016-02-21T13:47:59Z</time>
      </trkpt>
      <trkpt lat="43.36" lon="2.77931">
        <ele>225.09</ele>
        <time>2016-02-21T13:48:00Z</time>
      </trkpt>
      <trkpt lat="43.35982" lon="2.77913">
        <ele>224.12</ele>
        <time>2016-02-21T13:48:01Z</time>
      </trkpt>
      <trkpt lat="43.35945" lon="2.77884">
        <ele>222.2</ele>
        <time>2016-02-21T13:48:03Z</time>
      </trkpt>
      <trkpt lat="43.35925" lon="2.77875">
        <ele>221.24</ele>
        <time>2016-02-21T13:48:04Z</time>
      </trkpt>
      <trkpt lat="43.35905" lon="2.77871">
        <ele>220.28</ele>
        <time>2016-02-21T13:48:05Z</time>
      </trkpt>
      <trkpt lat="43.35885" lon="2.77873">
        <ele>219.32</ele>
        <time>2016-02-21T13:48:06Z</time>
      </trkpt>
      <trkpt lat="43.35864" lon="2.7788">
        <ele>218.36</ele>
        <time>2016-02-21T13:48:07Z</time>
      </trkpt>
      <trkpt lat="43.35845" lon="2.77892">
        <ele>216.91</ele>
        <time>2016-02-21T13:48:08Z</time>
      </trkpt>
      <trkpt lat="43.35828" lon="2.77908">
        <ele>215.47</ele>
        <time>2016-02-21T13:48:09Z</time>
      </trkpt>
      <trkpt lat="43.35812" lon="2.77929">
        <ele>214.51</ele>
        <time>2016-02-21T13:48:10Z</time>
      </trkpt>
      <trkpt lat="43.358" lon="2.77954">
        <ele>213.07</ele>
        <time>2016-02-21T13:48:11Z</time>
      </trkpt>
      <trkpt lat="43.35789" lon="2.77983">
        <ele>212.11</ele>
        <time>2016-02-21T13:48:12Z</time>
      </trkpt>
      <trkpt lat="43.35781" lon="2.78009">
        <ele>210.67</ele>
        <time>2016-02-21T13:48:13Z</time>
      </trkpt>
      <trkpt lat="43.35773" lon="2.78037">
        <ele>209.22</ele>
        <time>2016-02-21T13:48:14Z</time>
      </trkpt>
      <trkpt lat="43.357" lon="2.78272">
        <ele>199.13</ele>
        <time>2016-02-21T13:48:23Z</time>
      </trkpt>
      <trkpt lat="43.35687" lon="2.78294">
        <ele>198.17</ele>
        <time>2016-02-21T13:48:24Z</time>
      </trkpt>
      <trkpt lat="43.35671" lon="2.78312">
        <ele>197.21</ele>
        <time>2016-02-21T13:48:25Z</time>
      </trkpt>
      <trkpt lat="43.35651" lon="2.78327">
        <ele>195.77</ele>
        <time>2016-02-21T13:48:26Z</time>
      </trkpt>
      <trkpt lat="43.3563" lon="2.78338">
        <ele>194.8</ele>
        <time>2016-02-21T13:48:27Z</time>
      </trkpt>
      <trkpt lat="43.35609" lon="2.78342">
        <ele>193.36</ele>
        <time>2016-02-21T13:48:28Z</time>
      </trkpt>
      <trkpt lat="43.35586" lon="2.78342">
        <ele>192.4</ele>
        <time>2016-02-21T13:48:29Z</time>
      </trkpt>
      <trkpt lat="43.35564" lon="2.78334">
        <ele>190.48</ele>
        <time>2016-02-21T13:48:30Z</time>
      </trkpt>
      <trkpt lat="43.35542" lon="2.78319">
        <ele>189.52</ele>
        <time>2016-02-21T13:48:31Z</time>
      </trkpt>
      <trkpt lat="43.35523" lon="2.78304">
        <ele>188.56</ele>
        <time>2016-02-21T13:48:32Z</time>
      </trkpt>
      <trkpt lat="43.35506" lon="2.78289">
        <ele>187.59</ele>
        <time>2016-02-21T13:48:33Z</time>
      </trkpt>
      <trkpt lat="43.35489" lon="2.78274">
        <ele>186.63</ele>
        <time>2016-02-21T13:48:34Z</time>
      </trkpt>
      <trkpt lat="43.3544" lon="2.78239">
        <ele>183.75</ele>
        <time>2016-02-21T13:48:37Z</time>
      </trkpt>
      <trkpt lat="43.35423" lon="2.78234">
        <ele>182.79</ele>
        <time>2016-02-21T13:48:38Z</time>
      </trkpt>
      <trkpt lat="43.35405" lon="2.78235">
        <ele>181.83</ele>
        <time>2016-02-21T13:48:39Z</time>
      </trkpt>
      <trkpt lat="43.35386" lon="2.78241">
        <ele>180.87</ele>
        <time>2016-02-21T13:48:40Z</time>
      </trkpt>
      <trkpt lat="43.35368" lon="2.78252">
        <ele>179.42</ele>
        <time>2016-02-21T13:48:41Z</time>
      </trkpt>
      <trkpt lat="43.35351" lon="2.78268">
        <ele>178.46</ele>
        <time>2016-02-21T13:48:42Z</time>
      </trkpt>
      <trkpt lat="43.35337" lon="2.78289">
        <ele>177.5</ele>
        <time>2016-02-21T13:48:43Z</time>
      </trkpt>
      <trkpt lat="43.35324" lon="2.78312">
        <ele>176.06</ele>
        <time>2016-02-21T13:48:44Z</time>
      </trkpt>
      <trkpt lat="43.35312" lon="2.78336">
        <ele>175.1</ele>
        <time>2016-02-21T13:48:45Z</time>
      </trkpt>
      <trkpt lat="43.353" lon="2.7836">
        <ele>173.66</ele>
        <time>2016-02-21T13:48:46Z</time>
      </trkpt>
      <trkpt lat="43.35161" lon="2.78665">
        <ele>158.27</ele>
        <time>2016-02-21T13:48:59Z</time>
      </trkpt>
      <trkpt lat="43.35134" lon="2.78733">
        <ele>154.91</ele>
        <time>2016-02-21T13:49:02Z</time>
      </trkpt>
      <trkpt lat="43.35122" lon="2.78752">
        <ele>153.47</ele>
        <time>2016-02-21T13:49:03Z</time>
      </trkpt>
      <trkpt lat="43.35106" lon="2.78767">
        <ele>152.51</ele>
        <time>2016-02-21T13:49:04Z</time>
      </trkpt>
      <trkpt lat="43.35088" lon="2.78779">
        <ele>151.54</ele>
        <time>2016-02-21T13:49:05Z</time>
      </trkpt>
      <trkpt lat="43.35068" lon="2.78785">
        <ele>150.58</ele>
        <time>2016-02-21T13:49:06Z</time>
      </trkpt>
      <trkpt lat="43.35048" lon="2.78789">
        <ele>149.14</ele>
        <time>2016-02-21T13:49:07Z</time>
      </trkpt>
      <trkpt lat="43.35028" lon="2.78792">
        <ele>148.18</ele>
        <time>2016-02-21T13:49:08Z</time>
      </trkpt>
      <trkpt lat="43.34956" lon="2.78815">
        <ele>144.82</ele>
        <time>2016-02-21T13:49:12Z</time>
      </trkpt>
      <trkpt lat="43.34939" lon="2.78827">
        <ele>143.85</ele>
        <time>2016-02-21T13:49:13Z</time>
      </trkpt>
      <trkpt lat="43.34922" lon="2.78841">
        <ele>142.89</ele>
        <time>2016-02-21T13:49:14Z</time>
      </trkpt>
      <trkpt lat="43.34756" lon="2.78996">
        <ele>132.32</ele>
        <time>2016-02-21T13:49:24Z</time>
      </trkpt>
      <trkpt lat="43.3474" lon="2.79004">
        <ele>131.36</ele>
        <time>2016-02-21T13:49:25Z</time>
      </trkpt>
      <trkpt lat="43.34724" lon="2.79007">
        <ele>130.4</ele>
        <time>2016-02-21T13:49:26Z</time>
      </trkpt>
      <trkpt lat="43.34709" lon="2.79004">
        <ele>129.43</ele>
        <time>2016-02-21T13:49:27Z</time>
      </trkpt>
      <trkpt lat="43.34695" lon="2.78999">
        <ele>128.47</ele>
        <time>2016-02-21T13:49:28Z</time>
      </trkpt>
      <trkpt lat="43.34682" lon="2.78991">
        <ele>127.51</ele>
        <time>2016-02-21T13:49:29Z</time>
      </trkpt>
      <trkpt lat="43.34669" lon="2.78982">
        <ele>127.03</ele>
        <time>2016-02-21T13:49:30Z</time>
      </trkpt>
      <trkpt lat="43.34659" lon="2.7897">
        <ele>127.03</ele>
        <time>2016-02-21T13:49:31Z</time>
      </trkpt>
      <trkpt lat="43.34649" lon="2.78958">
        <ele>126.55</ele>
        <time>2016-02-21T13:49:32Z</time>
      </trkpt>
      <trkpt lat="43.34641" lon="2.78947">
        <ele>126.55</ele>
        <time>2016-02-21T13:49:33Z</time>
      </trkpt>
      <trkpt lat="43.34628" lon="2.78928">
        <ele>125.59</ele>
        <time>2016-02-21T13:49:35Z</time>
      </trkpt>
      <trkpt lat="43.34624" lon="2.78919">
        <ele>125.11</ele>
        <time>2016-02-21T13:49:36Z</time>
      </trkpt>
      <trkpt lat="43.34624" lon="2.7891">
        <ele>125.59</ele>
        <time>2016-02-21T13:49:37Z</time>
      </trkpt>
      <trkpt lat="43.34625" lon="2.78901">
        <ele>125.59</ele>
        <time>2016-02-21T13:49:38Z</time>
      </trkpt>
      <trkpt lat="43.34628" lon="2.78895">
        <ele>125.59</ele>
        <time>2016-02-21T13:49:39Z</time>
      </trkpt>
      <trkpt lat="43.34631" lon="2.7889">
        <ele>126.07</ele>
        <time>2016-02-21T13:49:40Z</time>
      </trkpt>
      <trkpt lat="43.34639" lon="2.78876">
        <ele>127.03</ele>
        <time>2016-02-21T13:49:49Z</time>
      </trkpt>
      <trkpt lat="43.3464" lon="2.78879">
        <ele>123.67</ele>
        <time>2016-02-21T13:50:29Z</time>
      </trkpt>
      <trkpt lat="43.34641" lon="2.78877">
        <ele>130.4</ele>
        <time>2016-02-21T13:52:45Z</time>
      </trkpt>
      <trkpt lat="43.34641" lon="2.78875">
        <ele>127.03</ele>
        <time>2016-02-21T13:53:10Z</time>
      </trkpt>
      <trkpt lat="43.34643" lon="2.78868">
        <ele>129.92</ele>
        <time>2016-02-21T13:53:33Z</time>
      </trkpt>
      <trkpt lat="43.34642" lon="2.78868">
        <ele>131.84</ele>
        <time>2016-02-21T13:53:52Z</time>
      </trkpt>
      <trkpt lat="43.34642" lon="2.78868">
        <ele>127.51</ele>
        <time>2016-02-21T13:54:24Z</time>
      </trkpt>
      <trkpt lat="43.34643" lon="2.78866">
        <ele>129.92</ele>
        <time>2016-02-21T13:55:19Z</time>
      </trkpt>
      <trkpt lat="43.34646" lon="2.78868">
        <ele>131.36</ele>
        <time>2016-02-21T13:56:08Z</time>
      </trkpt>
      <trkpt lat="43.34646" lon="2.78871">
        <ele>129.43</ele>
        <time>2016-02-21T13:56:22Z</time>
      </trkpt>
      <trkpt lat="43.34645" lon="2.78872">
        <ele>128.95</ele>
        <time>2016-02-21T13:57:00Z</time>
      </trkpt>
      <trkpt lat="43.34644" lon="2.78871">
        <ele>127.99</ele>
        <time>2016-02-21T13:57:30Z</time>
      </trkpt>
      <trkpt lat="43.34644" lon="2.78871">
        <ele>127.51</ele>
        <time>2016-02-21T13:57:55Z</time>
      </trkpt>
      <trkpt lat="43.34644" lon="2.78871">
        <ele>127.03</ele>
        <time>2016-02-21T13:58:32Z</time>
      </trkpt>
      <trkpt lat="43.34644" lon="2.78872">
        <ele>129.43</ele>
        <time>2016-02-21T13:59:41Z</time>
      </trkpt>
      <trkpt lat="43.34643" lon="2.7887">
        <ele>130.88</ele>
        <time>2016-02-21T14:00:17Z</time>
      </trkpt>
      <trkpt lat="43.34643" lon="2.7887">
        <ele>130.4</ele>
        <time>2016-02-21T14:00:44Z</time>
      </trkpt>
      <trkpt lat="43.34644" lon="2.7887">
        <ele>129.43</ele>
        <time>2016-02-21T14:01:08Z</time>
      </trkpt>
      <trkpt lat="43.34644" lon="2.78869">
        <ele>128.95</ele>
        <time>2016-02-21T14:01:29Z</time>
      </trkpt>
      <trkpt lat="43.34644" lon="2.7887">
        <ele>129.43</ele>
        <time>2016-02-21T14:01:48Z</time>
      </trkpt>
      <trkpt lat="43.34641" lon="2.78873">
        <ele>129.92</ele>
        <time>2016-02-21T14:02:06Z</time>
      </trkpt>
      <trkpt lat="43.34638" lon="2.78879">
        <ele>128.95</ele>
        <time>2016-02-21T14:02:22Z</time>
      </trkpt>
      <trkpt lat="43.34639" lon="2.78878">
        <ele>128.47</ele>
        <time>2016-02-21T14:04:44Z</time>
      </trkpt>
      <trkpt lat="43.34641" lon="2.78869">
        <ele>128.47</ele>
        <time>2016-02-21T14:04:49Z</time>
      </trkpt>
      <trkpt lat="43.34635" lon="2.78874">
        <ele>127.99</ele>
        <time>2016-02-21T14:04:57Z</time>
      </trkpt>
      <trkpt lat="43.34625" lon="2.78885">
        <ele>127.99</ele>
        <time>2016-02-21T14:05:01Z</time>
      </trkpt>
      <trkpt lat="43.34618" lon="2.78893">
        <ele>127.51</ele>
        <time>2016-02-21T14:05:11Z</time>
      </trkpt>
      <trkpt lat="43.34605" lon="2.78903">
        <ele>126.55</ele>
        <time>2016-02-21T14:05:54Z</time>
      </trkpt>
      <trkpt lat="43.34599" lon="2.78906">
        <ele>126.55</ele>
        <time>2016-02-21T14:05:55Z</time>
      </trkpt>
      <trkpt lat="43.34591" lon="2.78909">
        <ele>126.55</ele>
        <time>2016-02-21T14:05:56Z</time>
      </trkpt>
      <trkpt lat="43.3458" lon="2.78913">
        <ele>127.03</ele>
        <time>2016-02-21T14:05:57Z</time>
      </trkpt>
      <trkpt lat="43.3457" lon="2.78919">
        <ele>127.03</ele>
        <time>2016-02-21T14:05:58Z</time>
      </trkpt>
      <trkpt lat="43.34561" lon="2.78928">
        <ele>127.03</ele>
        <time>2016-02-21T14:05:59Z</time>
      </trkpt>
      <trkpt lat="43.34553" lon="2.78943">
        <ele>127.03</ele>
        <time>2016-02-21T14:06:00Z</time>
      </trkpt>
      <trkpt lat="43.34545" lon="2.78961">
        <ele>127.51</ele>
        <time>2016-02-21T14:06:01Z</time>
      </trkpt>
      <trkpt lat="43.34538" lon="2.78982">
        <ele>127.51</ele>
        <time>2016-02-21T14:06:02Z</time>
      </trkpt>
      <trkpt lat="43.34532" lon="2.79004">
        <ele>127.51</ele>
        <time>2016-02-21T14:06:03Z</time>
      </trkpt>
      <trkpt lat="43.34466" lon="2.79162">
        <ele>128.95</ele>
        <time>2016-02-21T14:06:10Z</time>
      </trkpt>
      <trkpt lat="43.34346" lon="2.79377">
        <ele>135.68</ele>
        <time>2016-02-21T14:06:19Z</time>
      </trkpt>
      <trkpt lat="43.34339" lon="2.79405">
        <ele>136.64</ele>
        <time>2016-02-21T14:06:20Z</time>
      </trkpt>
      <trkpt lat="43.34335" lon="2.79434">
        <ele>137.13</ele>
        <time>2016-02-21T14:06:21Z</time>
      </trkpt>
      <trkpt lat="43.34333" lon="2.79464">
        <ele>137.61</ele>
        <time>2016-02-21T14:06:22Z</time>
      </trkpt>
      <trkpt lat="43.34331" lon="2.79493">
        <ele>138.09</ele>
        <time>2016-02-21T14:06:23Z</time>
      </trkpt>
      <trkpt lat="43.34325" lon="2.79578">
        <ele>140.01</ele>
        <time>2016-02-21T14:06:26Z</time>
      </trkpt>
      <trkpt lat="43.34319" lon="2.79607">
        <ele>140.49</ele>
        <time>2016-02-21T14:06:27Z</time>
      </trkpt>
      <trkpt lat="43.34248" lon="2.79901">
        <ele>150.1</ele>
        <time>2016-02-21T14:06:37Z</time>
      </trkpt>
      <trkpt lat="43.34188" lon="2.80227">
        <ele>153.47</ele>
        <time>2016-02-21T14:06:48Z</time>
      </trkpt>
      <trkpt lat="43.34189" lon="2.80259">
        <ele>151.54</ele>
        <time>2016-02-21T14:06:49Z</time>
      </trkpt>
      <trkpt lat="43.3418" lon="2.80484">
        <ele>139.05</ele>
        <time>2016-02-21T14:06:56Z</time>
      </trkpt>
      <trkpt lat="43.34107" lon="2.80779">
        <ele>126.55</ele>
        <time>2016-02-21T14:07:05Z</time>
      </trkpt>
      <trkpt lat="43.34055" lon="2.80988">
        <ele>122.71</ele>
        <time>2016-02-21T14:07:12Z</time>
      </trkpt>
      <trkpt lat="43.34045" lon="2.81011">
        <ele>122.22</ele>
        <time>2016-02-21T14:07:13Z</time>
      </trkpt>
      <trkpt lat="43.3403" lon="2.81028">
        <ele>121.74</ele>
        <time>2016-02-21T14:07:14Z</time>
      </trkpt>
      <trkpt lat="43.34013" lon="2.81043">
        <ele>121.26</ele>
        <time>2016-02-21T14:07:15Z</time>
      </trkpt>
      <trkpt lat="43.33994" lon="2.81056">
        <ele>120.78</ele>
        <time>2016-02-21T14:07:16Z</time>
      </trkpt>
      <trkpt lat="43.33974" lon="2.81068">
        <ele>120.3</ele>
        <time>2016-02-21T14:07:17Z</time>
      </trkpt>
      <trkpt lat="43.33955" lon="2.81081">
        <ele>119.82</ele>
        <time>2016-02-21T14:07:18Z</time>
      </trkpt>
      <trkpt lat="43.33937" lon="2.81095">
        <ele>119.82</ele>
        <time>2016-02-21T14:07:19Z</time>
      </trkpt>
      <trkpt lat="43.3392" lon="2.81111">
        <ele>119.34</ele>
        <time>2016-02-21T14:07:20Z</time>
      </trkpt>
      <trkpt lat="43.33904" lon="2.81129">
        <ele>118.86</ele>
        <time>2016-02-21T14:07:21Z</time>
      </trkpt>
      <trkpt lat="43.3389" lon="2.81147">
        <ele>118.86</ele>
        <time>2016-02-21T14:07:22Z</time>
      </trkpt>
      <trkpt lat="43.33877" lon="2.81165">
        <ele>118.38</ele>
        <time>2016-02-21T14:07:23Z</time>
      </trkpt>
      <trkpt lat="43.33865" lon="2.81183">
        <ele>117.9</ele>
        <time>2016-02-21T14:07:24Z</time>
      </trkpt>
      <trkpt lat="43.33847" lon="2.81213">
        <ele>117.42</ele>
        <time>2016-02-21T14:07:26Z</time>
      </trkpt>
      <trkpt lat="43.33838" lon="2.81221">
        <ele>116.94</ele>
        <time>2016-02-21T14:07:27Z</time>
      </trkpt>
      <trkpt lat="43.33829" lon="2.81227">
        <ele>117.42</ele>
        <time>2016-02-21T14:07:28Z</time>
      </trkpt>
      <trkpt lat="43.33822" lon="2.81234">
        <ele>117.42</ele>
        <time>2016-02-21T14:07:29Z</time>
      </trkpt>
      <trkpt lat="43.33819" lon="2.81241">
        <ele>116.94</ele>
        <time>2016-02-21T14:07:30Z</time>
      </trkpt>
      <trkpt lat="43.33821" lon="2.8125">
        <ele>116.94</ele>
        <time>2016-02-21T14:07:31Z</time>
      </trkpt>
      <trkpt lat="43.33823" lon="2.81261">
        <ele>116.94</ele>
        <time>2016-02-21T14:07:32Z</time>
      </trkpt>
      <trkpt lat="43.33825" lon="2.81275">
        <ele>116.46</ele>
        <time>2016-02-21T14:07:33Z</time>
      </trkpt>
      <trkpt lat="43.33826" lon="2.81291">
        <ele>116.46</ele>
        <time>2016-02-21T14:07:34Z</time>
      </trkpt>
      <trkpt lat="43.33824" lon="2.81308">
        <ele>116.94</ele>
        <time>2016-02-21T14:07:35Z</time>
      </trkpt>
      <trkpt lat="43.33806" lon="2.81479">
        <ele>117.9</ele>
        <time>2016-02-21T14:07:45Z</time>
      </trkpt>
      <trkpt lat="43.33784" lon="2.81697">
        <ele>118.38</ele>
        <time>2016-02-21T14:08:00Z</time>
      </trkpt>
      <trkpt lat="43.33761" lon="2.81786">
        <ele>119.82</ele>
        <time>2016-02-21T14:08:07Z</time>
      </trkpt>
      <trkpt lat="43.33758" lon="2.81794">
        <ele>120.3</ele>
        <time>2016-02-21T14:08:08Z</time>
      </trkpt>
      <trkpt lat="43.33755" lon="2.81806">
        <ele>120.78</ele>
        <time>2016-02-21T14:08:09Z</time>
      </trkpt>
      <trkpt lat="43.33733" lon="2.81926">
        <ele>122.22</ele>
        <time>2016-02-21T14:08:17Z</time>
      </trkpt>
      <trkpt lat="43.33701" lon="2.82092">
        <ele>118.86</ele>
        <time>2016-02-21T14:08:26Z</time>
      </trkpt>
      <trkpt lat="43.33685" lon="2.8225">
        <ele>114.05</ele>
        <time>2016-02-21T14:08:34Z</time>
      </trkpt>
      <trkpt lat="43.33667" lon="2.8237">
        <ele>111.65</ele>
        <time>2016-02-21T14:08:42Z</time>
      </trkpt>
      <trkpt lat="43.33628" lon="2.82632">
        <ele>106.36</ele>
        <time>2016-02-21T14:08:52Z</time>
      </trkpt>
      <trkpt lat="43.33613" lon="2.82729">
        <ele>104.44</ele>
        <time>2016-02-21T14:08:56Z</time>
      </trkpt>
      <trkpt lat="43.33613" lon="2.82751">
        <ele>103.96</ele>
        <time>2016-02-21T14:08:57Z</time>
      </trkpt>
      <trkpt lat="43.33616" lon="2.82771">
        <ele>103.48</ele>
        <time>2016-02-21T14:08:58Z</time>
      </trkpt>
      <trkpt lat="43.33625" lon="2.82791">
        <ele>103</ele>
        <time>2016-02-21T14:08:59Z</time>
      </trkpt>
      <trkpt lat="43.33639" lon="2.82807">
        <ele>102.04</ele>
        <time>2016-02-21T14:09:00Z</time>
      </trkpt>
      <trkpt lat="43.33652" lon="2.82822">
        <ele>101.56</ele>
        <time>2016-02-21T14:09:01Z</time>
      </trkpt>
      <trkpt lat="43.33672" lon="2.82834">
        <ele>101.56</ele>
        <time>2016-02-21T14:09:02Z</time>
      </trkpt>
      <trkpt lat="43.33691" lon="2.82847">
        <ele>101.56</ele>
        <time>2016-02-21T14:09:03Z</time>
      </trkpt>
      <trkpt lat="43.33905" lon="2.83017">
        <ele>100.11</ele>
        <time>2016-02-21T14:09:14Z</time>
      </trkpt>
      <trkpt lat="43.34026" lon="2.83112">
        <ele>100.11</ele>
        <time>2016-02-21T14:09:20Z</time>
      </trkpt>
      <trkpt lat="43.34042" lon="2.8313">
        <ele>99.63</ele>
        <time>2016-02-21T14:09:21Z</time>
      </trkpt>
      <trkpt lat="43.34056" lon="2.83153">
        <ele>99.63</ele>
        <time>2016-02-21T14:09:22Z</time>
      </trkpt>
      <trkpt lat="43.34069" lon="2.83179">
        <ele>99.63</ele>
        <time>2016-02-21T14:09:23Z</time>
      </trkpt>
      <trkpt lat="43.34075" lon="2.83209">
        <ele>99.63</ele>
        <time>2016-02-21T14:09:24Z</time>
      </trkpt>
      <trkpt lat="43.34082" lon="2.8324">
        <ele>100.11</ele>
        <time>2016-02-21T14:09:25Z</time>
      </trkpt>
      <trkpt lat="43.34088" lon="2.83271">
        <ele>100.11</ele>
        <time>2016-02-21T14:09:26Z</time>
      </trkpt>
      <trkpt lat="43.34096" lon="2.833">
        <ele>100.11</ele>
        <time>2016-02-21T14:09:27Z</time>
      </trkpt>
      <trkpt lat="43.34105" lon="2.83329">
        <ele>99.63</ele>
        <time>2016-02-21T14:09:28Z</time>
      </trkpt>
      <trkpt lat="43.3415" lon="2.83538">
        <ele>97.71</ele>
        <time>2016-02-21T14:09:35Z</time>
      </trkpt>
      <trkpt lat="43.34223" lon="2.8376">
        <ele>94.35</ele>
        <time>2016-02-21T14:09:43Z</time>
      </trkpt>
      <trkpt lat="43.34244" lon="2.83812">
        <ele>92.9</ele>
        <time>2016-02-21T14:09:45Z</time>
      </trkpt>
      <trkpt lat="43.34251" lon="2.83842">
        <ele>92.9</ele>
        <time>2016-02-21T14:09:46Z</time>
      </trkpt>
      <trkpt lat="43.34255" lon="2.83873">
        <ele>92.42</ele>
        <time>2016-02-21T14:09:47Z</time>
      </trkpt>
      <trkpt lat="43.34257" lon="2.83905">
        <ele>91.94</ele>
        <time>2016-02-21T14:09:48Z</time>
      </trkpt>
      <trkpt lat="43.34258" lon="2.83938">
        <ele>91.94</ele>
        <time>2016-02-21T14:09:49Z</time>
      </trkpt>
      <trkpt lat="43.34258" lon="2.83971">
        <ele>91.94</ele>
        <time>2016-02-21T14:09:50Z</time>
      </trkpt>
      <trkpt lat="43.3424" lon="2.8417">
        <ele>91.46</ele>
        <time>2016-02-21T14:09:56Z</time>
      </trkpt>
      <trkpt lat="43.34231" lon="2.84202">
        <ele>91.46</ele>
        <time>2016-02-21T14:09:57Z</time>
      </trkpt>
      <trkpt lat="43.3422" lon="2.84232">
        <ele>91.46</ele>
        <time>2016-02-21T14:09:58Z</time>
      </trkpt>
      <trkpt lat="43.34112" lon="2.84539">
        <ele>90.02</ele>
        <time>2016-02-21T14:10:08Z</time>
      </trkpt>
      <trkpt lat="43.34016" lon="2.84806">
        <ele>88.1</ele>
        <time>2016-02-21T14:10:17Z</time>
      </trkpt>
      <trkpt lat="43.33942" lon="2.84963">
        <ele>87.62</ele>
        <time>2016-02-21T14:10:24Z</time>
      </trkpt>
      <trkpt lat="43.33892" lon="2.85071">
        <ele>88.1</ele>
        <time>2016-02-21T14:10:31Z</time>
      </trkpt>
      <trkpt lat="43.33841" lon="2.85172">
        <ele>86.66</ele>
        <time>2016-02-21T14:10:38Z</time>
      </trkpt>
      <trkpt lat="43.3383" lon="2.85183">
        <ele>86.66</ele>
        <time>2016-02-21T14:10:39Z</time>
      </trkpt>
      <trkpt lat="43.33734" lon="2.85279">
        <ele>84.73</ele>
        <time>2016-02-21T14:10:49Z</time>
      </trkpt>
      <trkpt lat="43.33728" lon="2.85302">
        <ele>84.25</ele>
        <time>2016-02-21T14:10:51Z</time>
      </trkpt>
      <trkpt lat="43.33725" lon="2.85315">
        <ele>85.69</ele>
        <time>2016-02-21T14:10:52Z</time>
      </trkpt>
      <trkpt lat="43.33713" lon="2.85354">
        <ele>88.58</ele>
        <time>2016-02-21T14:10:56Z</time>
      </trkpt>
      <trkpt lat="43.33715" lon="2.85365">
        <ele>88.58</ele>
        <time>2016-02-21T14:10:57Z</time>
      </trkpt>
      <trkpt lat="43.33716" lon="2.85375">
        <ele>89.06</ele>
        <time>2016-02-21T14:10:58Z</time>
      </trkpt>
      <trkpt lat="43.33719" lon="2.85385">
        <ele>89.06</ele>
        <time>2016-02-21T14:10:59Z</time>
      </trkpt>
      <trkpt lat="43.33721" lon="2.85397">
        <ele>88.58</ele>
        <time>2016-02-21T14:11:00Z</time>
      </trkpt>
      <trkpt lat="43.33723" lon="2.8541">
        <ele>88.1</ele>
        <time>2016-02-21T14:11:01Z</time>
      </trkpt>
      <trkpt lat="43.33723" lon="2.85424">
        <ele>87.14</ele>
        <time>2016-02-21T14:11:02Z</time>
      </trkpt>
      <trkpt lat="43.33722" lon="2.85438">
        <ele>87.14</ele>
        <time>2016-02-21T14:11:03Z</time>
      </trkpt>
      <trkpt lat="43.33719" lon="2.8545">
        <ele>86.66</ele>
        <time>2016-02-21T14:11:04Z</time>
      </trkpt>
      <trkpt lat="43.33717" lon="2.85462">
        <ele>86.18</ele>
        <time>2016-02-21T14:11:05Z</time>
      </trkpt>
      <trkpt lat="43.33716" lon="2.85473">
        <ele>85.69</ele>
        <time>2016-02-21T14:11:06Z</time>
      </trkpt>
      <trkpt lat="43.33716" lon="2.85483">
        <ele>85.21</ele>
        <time>2016-02-21T14:11:07Z</time>
      </trkpt>
      <trkpt lat="43.33717" lon="2.85493">
        <ele>84.73</ele>
        <time>2016-02-21T14:11:08Z</time>
      </trkpt>
      <trkpt lat="43.33721" lon="2.85503">
        <ele>84.73</ele>
        <time>2016-02-21T14:11:09Z</time>
      </trkpt>
      <trkpt lat="43.33727" lon="2.85513">
        <ele>84.73</ele>
        <time>2016-02-21T14:11:10Z</time>
      </trkpt>
      <trkpt lat="43.33733" lon="2.85523">
        <ele>84.73</ele>
        <time>2016-02-21T14:11:11Z</time>
      </trkpt>
      <trkpt lat="43.33772" lon="2.85577">
        <ele>83.77</ele>
        <time>2016-02-21T14:11:16Z</time>
      </trkpt>
      <trkpt lat="43.33782" lon="2.85586">
        <ele>83.77</ele>
        <time>2016-02-21T14:11:17Z</time>
      </trkpt>
      <trkpt lat="43.33793" lon="2.85593">
        <ele>83.77</ele>
        <time>2016-02-21T14:11:18Z</time>
      </trkpt>
      <trkpt lat="43.33805" lon="2.85598">
        <ele>83.77</ele>
        <time>2016-02-21T14:11:19Z</time>
      </trkpt>
      <trkpt lat="43.33817" lon="2.85597">
        <ele>84.25</ele>
        <time>2016-02-21T14:11:20Z</time>
      </trkpt>
      <trkpt lat="43.33831" lon="2.85598">
        <ele>84.25</ele>
        <time>2016-02-21T14:11:21Z</time>
      </trkpt>
      <trkpt lat="43.33848" lon="2.85597">
        <ele>84.25</ele>
        <time>2016-02-21T14:11:22Z</time>
      </trkpt>
      <trkpt lat="43.3401" lon="2.85596">
        <ele>83.77</ele>
        <time>2016-02-21T14:11:33Z</time>
      </trkpt>
      <trkpt lat="43.3408" lon="2.85586">
        <ele>83.29</ele>
        <time>2016-02-21T14:11:39Z</time>
      </trkpt>
      <trkpt lat="43.34234" lon="2.85569">
        <ele>82.33</ele>
        <time>2016-02-21T14:11:48Z</time>
      </trkpt>
      <trkpt lat="43.34317" lon="2.85589">
        <ele>82.81</ele>
        <time>2016-02-21T14:11:53Z</time>
      </trkpt>
      <trkpt lat="43.34333" lon="2.85598">
        <ele>82.81</ele>
        <time>2016-02-21T14:11:54Z</time>
      </trkpt>
      <trkpt lat="43.3441" lon="2.85655">
        <ele>82.81</ele>
        <time>2016-02-21T14:11:59Z</time>
      </trkpt>
      <trkpt lat="43.34425" lon="2.85675">
        <ele>82.81</ele>
        <time>2016-02-21T14:12:00Z</time>
      </trkpt>
      <trkpt lat="43.34438" lon="2.85699">
        <ele>82.33</ele>
        <time>2016-02-21T14:12:01Z</time>
      </trkpt>
      <trkpt lat="43.34449" lon="2.85724">
        <ele>82.33</ele>
        <time>2016-02-21T14:12:02Z</time>
      </trkpt>
      <trkpt lat="43.34458" lon="2.85751">
        <ele>81.85</ele>
        <time>2016-02-21T14:12:03Z</time>
      </trkpt>
      <trkpt lat="43.3454" lon="2.8594">
        <ele>80.41</ele>
        <time>2016-02-21T14:12:11Z</time>
      </trkpt>
      <trkpt lat="43.34547" lon="2.85965">
        <ele>80.41</ele>
        <time>2016-02-21T14:12:12Z</time>
      </trkpt>
      <trkpt lat="43.34552" lon="2.8599">
        <ele>80.41</ele>
        <time>2016-02-21T14:12:13Z</time>
      </trkpt>
      <trkpt lat="43.34556" lon="2.86017">
        <ele>80.41</ele>
        <time>2016-02-21T14:12:14Z</time>
      </trkpt>
      <trkpt lat="43.34558" lon="2.86044">
        <ele>80.41</ele>
        <time>2016-02-21T14:12:15Z</time>
      </trkpt>
      <trkpt lat="43.3456" lon="2.86071">
        <ele>80.41</ele>
        <time>2016-02-21T14:12:16Z</time>
      </trkpt>
      <trkpt lat="43.3456" lon="2.86099">
        <ele>80.41</ele>
        <time>2016-02-21T14:12:17Z</time>
      </trkpt>
      <trkpt lat="43.34557" lon="2.86126">
        <ele>80.41</ele>
        <time>2016-02-21T14:12:18Z</time>
      </trkpt>
      <trkpt lat="43.34549" lon="2.86156">
        <ele>80.41</ele>
        <time>2016-02-21T14:12:19Z</time>
      </trkpt>
      <trkpt lat="43.34538" lon="2.86184">
        <ele>79.93</ele>
        <time>2016-02-21T14:12:20Z</time>
      </trkpt>
      <trkpt lat="43.34526" lon="2.86211">
        <ele>79.93</ele>
        <time>2016-02-21T14:12:21Z</time>
      </trkpt>
      <trkpt lat="43.34514" lon="2.86236">
        <ele>79.45</ele>
        <time>2016-02-21T14:12:22Z</time>
      </trkpt>
      <trkpt lat="43.34407" lon="2.86463">
        <ele>78.48</ele>
        <time>2016-02-21T14:12:32Z</time>
      </trkpt>
      <trkpt lat="43.34321" lon="2.86705">
        <ele>77.04</ele>
        <time>2016-02-21T14:12:41Z</time>
      </trkpt>
      <trkpt lat="43.34319" lon="2.86736">
        <ele>77.04</ele>
        <time>2016-02-21T14:12:42Z</time>
      </trkpt>
      <trkpt lat="43.34289" lon="2.86989">
        <ele>77.04</ele>
        <time>2016-02-21T14:12:50Z</time>
      </trkpt>
      <trkpt lat="43.34233" lon="2.87342">
        <ele>76.08</ele>
        <time>2016-02-21T14:13:02Z</time>
      </trkpt>
      <trkpt lat="43.34206" lon="2.87539">
        <ele>76.08</ele>
        <time>2016-02-21T14:13:09Z</time>
      </trkpt>
      <trkpt lat="43.34207" lon="2.87565">
        <ele>76.08</ele>
        <time>2016-02-21T14:13:10Z</time>
      </trkpt>
      <trkpt lat="43.34211" lon="2.87591">
        <ele>76.56</ele>
        <time>2016-02-21T14:13:11Z</time>
      </trkpt>
      <trkpt lat="43.3427" lon="2.87863">
        <ele>77.52</ele>
        <time>2016-02-21T14:13:21Z</time>
      </trkpt>
      <trkpt lat="43.3428" lon="2.87886">
        <ele>77.52</ele>
        <time>2016-02-21T14:13:22Z</time>
      </trkpt>
      <trkpt lat="43.34291" lon="2.87908">
        <ele>77.52</ele>
        <time>2016-02-21T14:13:23Z</time>
      </trkpt>
      <trkpt lat="43.34305" lon="2.87928">
        <ele>77.52</ele>
        <time>2016-02-21T14:13:24Z</time>
      </trkpt>
      <trkpt lat="43.34321" lon="2.87948">
        <ele>77.52</ele>
        <time>2016-02-21T14:13:25Z</time>
      </trkpt>
      <trkpt lat="43.34468" lon="2.88095">
        <ele>77.52</ele>
        <time>2016-02-21T14:13:33Z</time>
      </trkpt>
      <trkpt lat="43.34792" lon="2.88325">
        <ele>83.29</ele>
        <time>2016-02-21T14:13:49Z</time>
      </trkpt>
      <trkpt lat="43.35006" lon="2.88468">
        <ele>86.18</ele>
        <time>2016-02-21T14:14:00Z</time>
      </trkpt>
      <trkpt lat="43.35027" lon="2.88468">
        <ele>86.66</ele>
        <time>2016-02-21T14:14:01Z</time>
      </trkpt>
      <trkpt lat="43.35051" lon="2.88463">
        <ele>86.66</ele>
        <time>2016-02-21T14:14:02Z</time>
      </trkpt>
      <trkpt lat="43.35074" lon="2.88458">
        <ele>87.14</ele>
        <time>2016-02-21T14:14:03Z</time>
      </trkpt>
      <trkpt lat="43.35097" lon="2.88451">
        <ele>87.62</ele>
        <time>2016-02-21T14:14:04Z</time>
      </trkpt>
      <trkpt lat="43.35189" lon="2.88438">
        <ele>90.02</ele>
        <time>2016-02-21T14:14:08Z</time>
      </trkpt>
      <trkpt lat="43.35211" lon="2.8844">
        <ele>90.98</ele>
        <time>2016-02-21T14:14:09Z</time>
      </trkpt>
      <trkpt lat="43.35469" lon="2.88474">
        <ele>105.88</ele>
        <time>2016-02-21T14:14:21Z</time>
      </trkpt>
      <trkpt lat="43.35604" lon="2.8846">
        <ele>114.53</ele>
        <time>2016-02-21T14:14:28Z</time>
      </trkpt>
      <trkpt lat="43.35721" lon="2.88505">
        <ele>121.74</ele>
        <time>2016-02-21T14:14:35Z</time>
      </trkpt>
      <trkpt lat="43.35848" lon="2.88567">
        <ele>130.4</ele>
        <time>2016-02-21T14:14:44Z</time>
      </trkpt>
      <trkpt lat="43.35979" lon="2.88581">
        <ele>137.13</ele>
        <time>2016-02-21T14:14:51Z</time>
      </trkpt>
      <trkpt lat="43.36058" lon="2.88597">
        <ele>141.93</ele>
        <time>2016-02-21T14:14:56Z</time>
      </trkpt>
      <trkpt lat="43.36074" lon="2.88604">
        <ele>142.89</ele>
        <time>2016-02-21T14:14:57Z</time>
      </trkpt>
      <trkpt lat="43.36089" lon="2.88614">
        <ele>143.85</ele>
        <time>2016-02-21T14:14:58Z</time>
      </trkpt>
      <trkpt lat="43.36177" lon="2.88687">
        <ele>149.62</ele>
        <time>2016-02-21T14:15:05Z</time>
      </trkpt>
      <trkpt lat="43.36192" lon="2.88694">
        <ele>150.58</ele>
        <time>2016-02-21T14:15:06Z</time>
      </trkpt>
      <trkpt lat="43.36226" lon="2.8871">
        <ele>152.51</ele>
        <time>2016-02-21T14:15:08Z</time>
      </trkpt>
      <trkpt lat="43.36243" lon="2.88722">
        <ele>153.47</ele>
        <time>2016-02-21T14:15:09Z</time>
      </trkpt>
      <trkpt lat="43.36298" lon="2.88757">
        <ele>157.31</ele>
        <time>2016-02-21T14:15:13Z</time>
      </trkpt>
      <trkpt lat="43.36312" lon="2.8876">
        <ele>158.27</ele>
        <time>2016-02-21T14:15:14Z</time>
      </trkpt>
      <trkpt lat="43.36325" lon="2.88762">
        <ele>158.75</ele>
        <time>2016-02-21T14:15:15Z</time>
      </trkpt>
      <trkpt lat="43.3639" lon="2.88769">
        <ele>163.56</ele>
        <time>2016-02-21T14:15:20Z</time>
      </trkpt>
      <trkpt lat="43.36402" lon="2.88773">
        <ele>164.52</ele>
        <time>2016-02-21T14:15:21Z</time>
      </trkpt>
      <trkpt lat="43.36414" lon="2.88782">
        <ele>165</ele>
        <time>2016-02-21T14:15:22Z</time>
      </trkpt>
      <trkpt lat="43.36425" lon="2.88793">
        <ele>165.48</ele>
        <time>2016-02-21T14:15:23Z</time>
      </trkpt>
      <trkpt lat="43.36435" lon="2.88806">
        <ele>165.96</ele>
        <time>2016-02-21T14:15:24Z</time>
      </trkpt>
      <trkpt lat="43.36445" lon="2.8882">
        <ele>166.45</ele>
        <time>2016-02-21T14:15:25Z</time>
      </trkpt>
      <trkpt lat="43.3647" lon="2.88847">
        <ele>167.89</ele>
        <time>2016-02-21T14:15:27Z</time>
      </trkpt>
      <trkpt lat="43.36487" lon="2.88858">
        <ele>168.85</ele>
        <time>2016-02-21T14:15:28Z</time>
      </trkpt>
      <trkpt lat="43.36535" lon="2.88889">
        <ele>171.25</ele>
        <time>2016-02-21T14:15:31Z</time>
      </trkpt>
      <trkpt lat="43.36551" lon="2.88895">
        <ele>172.21</ele>
        <time>2016-02-21T14:15:32Z</time>
      </trkpt>
      <trkpt lat="43.36567" lon="2.88899">
        <ele>173.17</ele>
        <time>2016-02-21T14:15:33Z</time>
      </trkpt>
      <trkpt lat="43.36583" lon="2.88903">
        <ele>174.14</ele>
        <time>2016-02-21T14:15:34Z</time>
      </trkpt>
      <trkpt lat="43.36598" lon="2.88911">
        <ele>175.1</ele>
        <time>2016-02-21T14:15:35Z</time>
      </trkpt>
      <trkpt lat="43.36613" lon="2.88922">
        <ele>175.58</ele>
        <time>2016-02-21T14:15:36Z</time>
      </trkpt>
      <trkpt lat="43.36627" lon="2.88936">
        <ele>176.54</ele>
        <time>2016-02-21T14:15:37Z</time>
      </trkpt>
      <trkpt lat="43.3675" lon="2.8905">
        <ele>183.27</ele>
        <time>2016-02-21T14:15:44Z</time>
      </trkpt>
      <trkpt lat="43.36917" lon="2.89234">
        <ele>194.32</ele>
        <time>2016-02-21T14:15:53Z</time>
      </trkpt>
      <trkpt lat="43.37124" lon="2.89398">
        <ele>203.94</ele>
        <time>2016-02-21T14:16:03Z</time>
      </trkpt>
      <trkpt lat="43.37372" lon="2.89555">
        <ele>204.42</ele>
        <time>2016-02-21T14:16:14Z</time>
      </trkpt>
      <trkpt lat="43.37391" lon="2.89575">
        <ele>204.42</ele>
        <time>2016-02-21T14:16:15Z</time>
      </trkpt>
      <trkpt lat="43.37408" lon="2.89596">
        <ele>204.42</ele>
        <time>2016-02-21T14:16:16Z</time>
      </trkpt>
      <trkpt lat="43.37457" lon="2.89668">
        <ele>204.42</ele>
        <time>2016-02-21T14:16:19Z</time>
      </trkpt>
      <trkpt lat="43.37469" lon="2.89694">
        <ele>204.42</ele>
        <time>2016-02-21T14:16:20Z</time>
      </trkpt>
      <trkpt lat="43.37505" lon="2.89774">
        <ele>205.86</ele>
        <time>2016-02-21T14:16:23Z</time>
      </trkpt>
      <trkpt lat="43.3752" lon="2.89798">
        <ele>206.34</ele>
        <time>2016-02-21T14:16:24Z</time>
      </trkpt>
      <trkpt lat="43.37537" lon="2.89822">
        <ele>206.82</ele>
        <time>2016-02-21T14:16:25Z</time>
      </trkpt>
      <trkpt lat="43.37626" lon="2.89933">
        <ele>209.7</ele>
        <time>2016-02-21T14:16:30Z</time>
      </trkpt>
      <trkpt lat="43.37646" lon="2.8995">
        <ele>210.19</ele>
        <time>2016-02-21T14:16:31Z</time>
      </trkpt>
      <trkpt lat="43.37667" lon="2.89963">
        <ele>211.63</ele>
        <time>2016-02-21T14:16:32Z</time>
      </trkpt>
      <trkpt lat="43.37705" lon="2.8999">
        <ele>213.55</ele>
        <time>2016-02-21T14:16:34Z</time>
      </trkpt>
      <trkpt lat="43.37722" lon="2.90007">
        <ele>214.51</ele>
        <time>2016-02-21T14:16:35Z</time>
      </trkpt>
      <trkpt lat="43.37736" lon="2.90031">
        <ele>215.47</ele>
        <time>2016-02-21T14:16:36Z</time>
      </trkpt>
      <trkpt lat="43.37749" lon="2.90057">
        <ele>216.43</ele>
        <time>2016-02-21T14:16:37Z</time>
      </trkpt>
      <trkpt lat="43.37761" lon="2.90085">
        <ele>217.4</ele>
        <time>2016-02-21T14:16:38Z</time>
      </trkpt>
      <trkpt lat="43.37885" lon="2.90301">
        <ele>229.41</ele>
        <time>2016-02-21T14:16:46Z</time>
      </trkpt>
      <trkpt lat="43.37924" lon="2.90376">
        <ele>234.22</ele>
        <time>2016-02-21T14:16:49Z</time>
      </trkpt>
      <trkpt lat="43.37932" lon="2.90402">
        <ele>236.14</ele>
        <time>2016-02-21T14:16:50Z</time>
      </trkpt>
      <trkpt lat="43.37935" lon="2.90432">
        <ele>237.58</ele>
        <time>2016-02-21T14:16:51Z</time>
      </trkpt>
      <trkpt lat="43.37938" lon="2.90464">
        <ele>239.02</ele>
        <time>2016-02-21T14:16:52Z</time>
      </trkpt>
      <trkpt lat="43.37939" lon="2.90497">
        <ele>240.95</ele>
        <time>2016-02-21T14:16:53Z</time>
      </trkpt>
      <trkpt lat="43.37951" lon="2.90589">
        <ele>245.75</ele>
        <time>2016-02-21T14:16:56Z</time>
      </trkpt>
      <trkpt lat="43.37961" lon="2.90617">
        <ele>247.68</ele>
        <time>2016-02-21T14:16:57Z</time>
      </trkpt>
      <trkpt lat="43.37974" lon="2.90646">
        <ele>249.12</ele>
        <time>2016-02-21T14:16:58Z</time>
      </trkpt>
      <trkpt lat="43.38066" lon="2.90846">
        <ele>255.37</ele>
        <time>2016-02-21T14:17:05Z</time>
      </trkpt>
      <trkpt lat="43.38069" lon="2.90867">
        <ele>255.37</ele>
        <time>2016-02-21T14:17:06Z</time>
      </trkpt>
      <trkpt lat="43.3807" lon="2.9089">
        <ele>254.89</ele>
        <time>2016-02-21T14:17:07Z</time>
      </trkpt>
      <trkpt lat="43.3807" lon="2.90914">
        <ele>254.41</ele>
        <time>2016-02-21T14:17:08Z</time>
      </trkpt>
      <trkpt lat="43.38054" lon="2.91116">
        <ele>250.56</ele>
        <time>2016-02-21T14:17:16Z</time>
      </trkpt>
      <trkpt lat="43.38036" lon="2.91302">
        <ele>249.12</ele>
        <time>2016-02-21T14:17:24Z</time>
      </trkpt>
      <trkpt lat="43.38038" lon="2.91324">
        <ele>249.6</ele>
        <time>2016-02-21T14:17:25Z</time>
      </trkpt>
      <trkpt lat="43.38065" lon="2.91434">
        <ele>251.04</ele>
        <time>2016-02-21T14:17:32Z</time>
      </trkpt>
      <trkpt lat="43.38077" lon="2.91463">
        <ele>251.52</ele>
        <time>2016-02-21T14:17:35Z</time>
      </trkpt>
      <trkpt lat="43.38075" lon="2.91473">
        <ele>251.04</ele>
        <time>2016-02-21T14:17:36Z</time>
      </trkpt>
      <trkpt lat="43.38071" lon="2.91482">
        <ele>251.04</ele>
        <time>2016-02-21T14:17:37Z</time>
      </trkpt>
      <trkpt lat="43.38065" lon="2.9149">
        <ele>251.04</ele>
        <time>2016-02-21T14:17:38Z</time>
      </trkpt>
      <trkpt lat="43.3806" lon="2.91498">
        <ele>251.04</ele>
        <time>2016-02-21T14:17:39Z</time>
      </trkpt>
      <trkpt lat="43.38057" lon="2.91507">
        <ele>251.04</ele>
        <time>2016-02-21T14:17:40Z</time>
      </trkpt>
      <trkpt lat="43.38056" lon="2.91517">
        <ele>250.56</ele>
        <time>2016-02-21T14:17:41Z</time>
      </trkpt>
      <trkpt lat="43.38056" lon="2.91527">
        <ele>250.56</ele>
        <time>2016-02-21T14:17:42Z</time>
      </trkpt>
      <trkpt lat="43.38059" lon="2.91537">
        <ele>251.04</ele>
        <time>2016-02-21T14:17:43Z</time>
      </trkpt>
      <trkpt lat="43.38062" lon="2.91547">
        <ele>251.04</ele>
        <time>2016-02-21T14:17:44Z</time>
      </trkpt>
      <trkpt lat="43.38067" lon="2.91555">
        <ele>251.52</ele>
        <time>2016-02-21T14:17:45Z</time>
      </trkpt>
      <trkpt lat="43.38074" lon="2.91562">
        <ele>251.52</ele>
        <time>2016-02-21T14:17:46Z</time>
      </trkpt>
      <trkpt lat="43.3808" lon="2.9157">
        <ele>251.04</ele>
        <time>2016-02-21T14:17:47Z</time>
      </trkpt>
      <trkpt lat="43.38086" lon="2.91579">
        <ele>251.04</ele>
        <time>2016-02-21T14:17:48Z</time>
      </trkpt>
      <trkpt lat="43.38091" lon="2.91588">
        <ele>251.04</ele>
        <time>2016-02-21T14:17:49Z</time>
      </trkpt>
      <trkpt lat="43.38098" lon="2.91599">
        <ele>251.52</ele>
        <time>2016-02-21T14:17:50Z</time>
      </trkpt>
      <trkpt lat="43.38108" lon="2.91647">
        <ele>249.6</ele>
        <time>2016-02-21T14:17:54Z</time>
      </trkpt>
      <trkpt lat="43.38106" lon="2.91659">
        <ele>248.64</ele>
        <time>2016-02-21T14:17:55Z</time>
      </trkpt>
      <trkpt lat="43.38104" lon="2.9167">
        <ele>248.16</ele>
        <time>2016-02-21T14:17:56Z</time>
      </trkpt>
      <trkpt lat="43.38098" lon="2.9169">
        <ele>246.72</ele>
        <time>2016-02-21T14:17:58Z</time>
      </trkpt>
      <trkpt lat="43.381" lon="2.91699">
        <ele>245.75</ele>
        <time>2016-02-21T14:17:59Z</time>
      </trkpt>
      <trkpt lat="43.38104" lon="2.91709">
        <ele>245.75</ele>
        <time>2016-02-21T14:18:00Z</time>
      </trkpt>
      <trkpt lat="43.3811" lon="2.91719">
        <ele>244.79</ele>
        <time>2016-02-21T14:18:01Z</time>
      </trkpt>
      <trkpt lat="43.38118" lon="2.91729">
        <ele>244.31</ele>
        <time>2016-02-21T14:18:02Z</time>
      </trkpt>
      <trkpt lat="43.38128" lon="2.91738">
        <ele>243.35</ele>
        <time>2016-02-21T14:18:03Z</time>
      </trkpt>
      <trkpt lat="43.38137" lon="2.91747">
        <ele>242.39</ele>
        <time>2016-02-21T14:18:04Z</time>
      </trkpt>
      <trkpt lat="43.38147" lon="2.91756">
        <ele>241.43</ele>
        <time>2016-02-21T14:18:05Z</time>
      </trkpt>
      <trkpt lat="43.38158" lon="2.91763">
        <ele>240.95</ele>
        <time>2016-02-21T14:18:06Z</time>
      </trkpt>
      <trkpt lat="43.38182" lon="2.91777">
        <ele>239.99</ele>
        <time>2016-02-21T14:18:08Z</time>
      </trkpt>
      <trkpt lat="43.38194" lon="2.91787">
        <ele>240.47</ele>
        <time>2016-02-21T14:18:09Z</time>
      </trkpt>
      <trkpt lat="43.38204" lon="2.91799">
        <ele>240.47</ele>
        <time>2016-02-21T14:18:10Z</time>
      </trkpt>
      <trkpt lat="43.38215" lon="2.91814">
        <ele>240.95</ele>
        <time>2016-02-21T14:18:11Z</time>
      </trkpt>
      <trkpt lat="43.38225" lon="2.9183">
        <ele>240.47</ele>
        <time>2016-02-21T14:18:12Z</time>
      </trkpt>
      <trkpt lat="43.38304" lon="2.91973">
        <ele>233.26</ele>
        <time>2016-02-21T14:18:19Z</time>
      </trkpt>
      <trkpt lat="43.38319" lon="2.91995">
        <ele>232.3</ele>
        <time>2016-02-21T14:18:20Z</time>
      </trkpt>
      <trkpt lat="43.38335" lon="2.92015">
        <ele>231.81</ele>
        <time>2016-02-21T14:18:21Z</time>
      </trkpt>
      <trkpt lat="43.38485" lon="2.92196">
        <ele>228.93</ele>
        <time>2016-02-21T14:18:30Z</time>
      </trkpt>
      <trkpt lat="43.38702" lon="2.92519">
        <ele>223.64</ele>
        <time>2016-02-21T14:18:43Z</time>
      </trkpt>
      <trkpt lat="43.38973" lon="2.92869">
        <ele>213.07</ele>
        <time>2016-02-21T14:18:57Z</time>
      </trkpt>
      <trkpt lat="43.39326" lon="2.93326">
        <ele>203.46</ele>
        <time>2016-02-21T14:19:15Z</time>
      </trkpt>
      <trkpt lat="43.39655" lon="2.93753">
        <ele>196.73</ele>
        <time>2016-02-21T14:19:34Z</time>
      </trkpt>
      <trkpt lat="43.39721" lon="2.93832">
        <ele>195.28</ele>
        <time>2016-02-21T14:19:38Z</time>
      </trkpt>
      <trkpt lat="43.3974" lon="2.93848">
        <ele>194.8</ele>
        <time>2016-02-21T14:19:39Z</time>
      </trkpt>
      <trkpt lat="43.3976" lon="2.93862">
        <ele>194.32</ele>
        <time>2016-02-21T14:19:40Z</time>
      </trkpt>
      <trkpt lat="43.39902" lon="2.93974">
        <ele>190</ele>
        <time>2016-02-21T14:19:48Z</time>
      </trkpt>
      <trkpt lat="43.39914" lon="2.93992">
        <ele>189.52</ele>
        <time>2016-02-21T14:19:49Z</time>
      </trkpt>
      <trkpt lat="43.39924" lon="2.94015">
        <ele>189.04</ele>
        <time>2016-02-21T14:19:50Z</time>
      </trkpt>
      <trkpt lat="43.39925" lon="2.94041">
        <ele>188.08</ele>
        <time>2016-02-21T14:19:51Z</time>
      </trkpt>
      <trkpt lat="43.39926" lon="2.94068">
        <ele>187.11</ele>
        <time>2016-02-21T14:19:52Z</time>
      </trkpt>
      <trkpt lat="43.39921" lon="2.94099">
        <ele>185.67</ele>
        <time>2016-02-21T14:19:53Z</time>
      </trkpt>
      <trkpt lat="43.39916" lon="2.94131">
        <ele>184.71</ele>
        <time>2016-02-21T14:19:54Z</time>
      </trkpt>
      <trkpt lat="43.39911" lon="2.94163">
        <ele>184.23</ele>
        <time>2016-02-21T14:19:55Z</time>
      </trkpt>
      <trkpt lat="43.39896" lon="2.94464">
        <ele>180.38</ele>
        <time>2016-02-21T14:20:04Z</time>
      </trkpt>
      <trkpt lat="43.39904" lon="2.94494">
        <ele>179.9</ele>
        <time>2016-02-21T14:20:05Z</time>
      </trkpt>
      <trkpt lat="43.39913" lon="2.94522">
        <ele>178.94</ele>
        <time>2016-02-21T14:20:06Z</time>
      </trkpt>
      <trkpt lat="43.3992" lon="2.9455">
        <ele>178.46</ele>
        <time>2016-02-21T14:20:07Z</time>
      </trkpt>
      <trkpt lat="43.39924" lon="2.94579">
        <ele>177.98</ele>
        <time>2016-02-21T14:20:08Z</time>
      </trkpt>
      <trkpt lat="43.39924" lon="2.94608">
        <ele>177.02</ele>
        <time>2016-02-21T14:20:09Z</time>
      </trkpt>
      <trkpt lat="43.3992" lon="2.94638">
        <ele>176.54</ele>
        <time>2016-02-21T14:20:10Z</time>
      </trkpt>
      <trkpt lat="43.39912" lon="2.94667">
        <ele>176.06</ele>
        <time>2016-02-21T14:20:11Z</time>
      </trkpt>
      <trkpt lat="43.39904" lon="2.94694">
        <ele>176.06</ele>
        <time>2016-02-21T14:20:12Z</time>
      </trkpt>
      <trkpt lat="43.39891" lon="2.94747">
        <ele>175.1</ele>
        <time>2016-02-21T14:20:14Z</time>
      </trkpt>
      <trkpt lat="43.39888" lon="2.94775">
        <ele>174.62</ele>
        <time>2016-02-21T14:20:15Z</time>
      </trkpt>
      <trkpt lat="43.39891" lon="2.94802">
        <ele>174.14</ele>
        <time>2016-02-21T14:20:16Z</time>
      </trkpt>
      <trkpt lat="43.39899" lon="2.94827">
        <ele>173.66</ele>
        <time>2016-02-21T14:20:17Z</time>
      </trkpt>
      <trkpt lat="43.3991" lon="2.9485">
        <ele>173.66</ele>
        <time>2016-02-21T14:20:18Z</time>
      </trkpt>
      <trkpt lat="43.39925" lon="2.94871">
        <ele>173.66</ele>
        <time>2016-02-21T14:20:19Z</time>
      </trkpt>
      <trkpt lat="43.39941" lon="2.94892">
        <ele>173.17</ele>
        <time>2016-02-21T14:20:20Z</time>
      </trkpt>
      <trkpt lat="43.39958" lon="2.94914">
        <ele>173.17</ele>
        <time>2016-02-21T14:20:21Z</time>
      </trkpt>
      <trkpt lat="43.40108" lon="2.95084">
        <ele>173.17</ele>
        <time>2016-02-21T14:20:30Z</time>
      </trkpt>
      <trkpt lat="43.4013" lon="2.951">
        <ele>172.69</ele>
        <time>2016-02-21T14:20:32Z</time>
      </trkpt>
      <trkpt lat="43.4014" lon="2.951">
        <ele>172.69</ele>
        <time>2016-02-21T14:20:33Z</time>
      </trkpt>
      <trkpt lat="43.40151" lon="2.95095">
        <ele>172.69</ele>
        <time>2016-02-21T14:20:34Z</time>
      </trkpt>
      <trkpt lat="43.40164" lon="2.95085">
        <ele>172.69</ele>
        <time>2016-02-21T14:20:35Z</time>
      </trkpt>
      <trkpt lat="43.40178" lon="2.95074">
        <ele>173.66</ele>
        <time>2016-02-21T14:20:36Z</time>
      </trkpt>
      <trkpt lat="43.40294" lon="2.94977">
        <ele>179.42</ele>
        <time>2016-02-21T14:20:43Z</time>
      </trkpt>
      <trkpt lat="43.40308" lon="2.94961">
        <ele>179.9</ele>
        <time>2016-02-21T14:20:44Z</time>
      </trkpt>
      <trkpt lat="43.40321" lon="2.94942">
        <ele>180.87</ele>
        <time>2016-02-21T14:20:45Z</time>
      </trkpt>
      <trkpt lat="43.40332" lon="2.94921">
        <ele>181.83</ele>
        <time>2016-02-21T14:20:46Z</time>
      </trkpt>
      <trkpt lat="43.40342" lon="2.94898">
        <ele>182.31</ele>
        <time>2016-02-21T14:20:47Z</time>
      </trkpt>
      <trkpt lat="43.4035" lon="2.94874">
        <ele>183.27</ele>
        <time>2016-02-21T14:20:48Z</time>
      </trkpt>
      <trkpt lat="43.40358" lon="2.94847">
        <ele>183.75</ele>
        <time>2016-02-21T14:20:49Z</time>
      </trkpt>
      <trkpt lat="43.40364" lon="2.94819">
        <ele>184.23</ele>
        <time>2016-02-21T14:20:50Z</time>
      </trkpt>
      <trkpt lat="43.40368" lon="2.94788">
        <ele>185.19</ele>
        <time>2016-02-21T14:20:51Z</time>
      </trkpt>
      <trkpt lat="43.40395" lon="2.94506">
        <ele>192.88</ele>
        <time>2016-02-21T14:21:00Z</time>
      </trkpt>
      <trkpt lat="43.40418" lon="2.94365">
        <ele>197.21</ele>
        <time>2016-02-21T14:21:05Z</time>
      </trkpt>
      <trkpt lat="43.40419" lon="2.94337">
        <ele>198.17</ele>
        <time>2016-02-21T14:21:06Z</time>
      </trkpt>
      <trkpt lat="43.40417" lon="2.94255">
        <ele>201.05</ele>
        <time>2016-02-21T14:21:10Z</time>
      </trkpt>
      <trkpt lat="43.40421" lon="2.94245">
        <ele>202.01</ele>
        <time>2016-02-21T14:21:11Z</time>
      </trkpt>
      <trkpt lat="43.40427" lon="2.94239">
        <ele>202.49</ele>
        <time>2016-02-21T14:21:12Z</time>
      </trkpt>
      <trkpt lat="43.40434" lon="2.94238">
        <ele>202.98</ele>
        <time>2016-02-21T14:21:13Z</time>
      </trkpt>
      <trkpt lat="43.40442" lon="2.9424">
        <ele>202.98</ele>
        <time>2016-02-21T14:21:14Z</time>
      </trkpt>
      <trkpt lat="43.40451" lon="2.94241">
        <ele>202.49</ele>
        <time>2016-02-21T14:21:15Z</time>
      </trkpt>
      <trkpt lat="43.40461" lon="2.94236">
        <ele>202.98</ele>
        <time>2016-02-21T14:21:16Z</time>
      </trkpt>
      <trkpt lat="43.40468" lon="2.94226">
        <ele>202.98</ele>
        <time>2016-02-21T14:21:17Z</time>
      </trkpt>
      <trkpt lat="43.40473" lon="2.9421">
        <ele>203.46</ele>
        <time>2016-02-21T14:21:18Z</time>
      </trkpt>
      <trkpt lat="43.40477" lon="2.94191">
        <ele>203.46</ele>
        <time>2016-02-21T14:21:19Z</time>
      </trkpt>
      <trkpt lat="43.40481" lon="2.94168">
        <ele>204.42</ele>
        <time>2016-02-21T14:21:20Z</time>
      </trkpt>
      <trkpt lat="43.40495" lon="2.94125">
        <ele>205.38</ele>
        <time>2016-02-21T14:21:22Z</time>
      </trkpt>
      <trkpt lat="43.40505" lon="2.94105">
        <ele>205.38</ele>
        <time>2016-02-21T14:21:23Z</time>
      </trkpt>
      <trkpt lat="43.40517" lon="2.94086">
        <ele>205.86</ele>
        <time>2016-02-21T14:21:24Z</time>
      </trkpt>
      <trkpt lat="43.4053" lon="2.94069">
        <ele>206.82</ele>
        <time>2016-02-21T14:21:25Z</time>
      </trkpt>
      <trkpt lat="43.40544" lon="2.94055">
        <ele>207.3</ele>
        <time>2016-02-21T14:21:26Z</time>
      </trkpt>
      <trkpt lat="43.40558" lon="2.94045">
        <ele>207.78</ele>
        <time>2016-02-21T14:21:27Z</time>
      </trkpt>
      <trkpt lat="43.40574" lon="2.9404">
        <ele>208.26</ele>
        <time>2016-02-21T14:21:28Z</time>
      </trkpt>
      <trkpt lat="43.40591" lon="2.94042">
        <ele>209.22</ele>
        <time>2016-02-21T14:21:29Z</time>
      </trkpt>
      <trkpt lat="43.40608" lon="2.94047">
        <ele>209.7</ele>
        <time>2016-02-21T14:21:30Z</time>
      </trkpt>
      <trkpt lat="43.40624" lon="2.94059">
        <ele>210.67</ele>
        <time>2016-02-21T14:21:31Z</time>
      </trkpt>
      <trkpt lat="43.40639" lon="2.94073">
        <ele>211.63</ele>
        <time>2016-02-21T14:21:32Z</time>
      </trkpt>
      <trkpt lat="43.40654" lon="2.94091">
        <ele>212.59</ele>
        <time>2016-02-21T14:21:33Z</time>
      </trkpt>
      <trkpt lat="43.40668" lon="2.94109">
        <ele>213.07</ele>
        <time>2016-02-21T14:21:34Z</time>
      </trkpt>
      <trkpt lat="43.40815" lon="2.94273">
        <ele>222.68</ele>
        <time>2016-02-21T14:21:45Z</time>
      </trkpt>
      <trkpt lat="43.40984" lon="2.94464">
        <ele>228.45</ele>
        <time>2016-02-21T14:21:56Z</time>
      </trkpt>
      <trkpt lat="43.41001" lon="2.94474">
        <ele>227.97</ele>
        <time>2016-02-21T14:21:57Z</time>
      </trkpt>
      <trkpt lat="43.4102" lon="2.94481">
        <ele>227.97</ele>
        <time>2016-02-21T14:21:58Z</time>
      </trkpt>
      <trkpt lat="43.4104" lon="2.94485">
        <ele>227.49</ele>
        <time>2016-02-21T14:21:59Z</time>
      </trkpt>
      <trkpt lat="43.4106" lon="2.94489">
        <ele>227.01</ele>
        <time>2016-02-21T14:22:00Z</time>
      </trkpt>
      <trkpt lat="43.4108" lon="2.94493">
        <ele>226.53</ele>
        <time>2016-02-21T14:22:01Z</time>
      </trkpt>
      <trkpt lat="43.41101" lon="2.94504">
        <ele>225.57</ele>
        <time>2016-02-21T14:22:02Z</time>
      </trkpt>
      <trkpt lat="43.41121" lon="2.9452">
        <ele>224.61</ele>
        <time>2016-02-21T14:22:03Z</time>
      </trkpt>
      <trkpt lat="43.41141" lon="2.94539">
        <ele>222.68</ele>
        <time>2016-02-21T14:22:04Z</time>
      </trkpt>
      <trkpt lat="43.4116" lon="2.9456">
        <ele>221.24</ele>
        <time>2016-02-21T14:22:05Z</time>
      </trkpt>
      <trkpt lat="43.41177" lon="2.94584">
        <ele>220.28</ele>
        <time>2016-02-21T14:22:06Z</time>
      </trkpt>
      <trkpt lat="43.41193" lon="2.9461">
        <ele>219.32</ele>
        <time>2016-02-21T14:22:07Z</time>
      </trkpt>
      <trkpt lat="43.41209" lon="2.94638">
        <ele>218.84</ele>
        <time>2016-02-21T14:22:08Z</time>
      </trkpt>
      <trkpt lat="43.41223" lon="2.94667">
        <ele>217.88</ele>
        <time>2016-02-21T14:22:09Z</time>
      </trkpt>
      <trkpt lat="43.41369" lon="2.94956">
        <ele>210.67</ele>
        <time>2016-02-21T14:22:20Z</time>
      </trkpt>
      <trkpt lat="43.41382" lon="2.94967">
        <ele>209.7</ele>
        <time>2016-02-21T14:22:21Z</time>
      </trkpt>
      <trkpt lat="43.41398" lon="2.94973">
        <ele>209.22</ele>
        <time>2016-02-21T14:22:22Z</time>
      </trkpt>
      <trkpt lat="43.41415" lon="2.94973">
        <ele>208.26</ele>
        <time>2016-02-21T14:22:23Z</time>
      </trkpt>
      <trkpt lat="43.41432" lon="2.94967">
        <ele>207.3</ele>
        <time>2016-02-21T14:22:24Z</time>
      </trkpt>
      <trkpt lat="43.41449" lon="2.94955">
        <ele>206.34</ele>
        <time>2016-02-21T14:22:25Z</time>
      </trkpt>
      <trkpt lat="43.41465" lon="2.94938">
        <ele>205.38</ele>
        <time>2016-02-21T14:22:26Z</time>
      </trkpt>
      <trkpt lat="43.41481" lon="2.94921">
        <ele>204.9</ele>
        <time>2016-02-21T14:22:27Z</time>
      </trkpt>
      <trkpt lat="43.41498" lon="2.94902">
        <ele>204.42</ele>
        <time>2016-02-21T14:22:28Z</time>
      </trkpt>
      <trkpt lat="43.41639" lon="2.94755">
        <ele>198.65</ele>
        <time>2016-02-21T14:22:37Z</time>
      </trkpt>
      <trkpt lat="43.41678" lon="2.94718">
        <ele>196.25</ele>
        <time>2016-02-21T14:22:40Z</time>
      </trkpt>
      <trkpt lat="43.41691" lon="2.94715">
        <ele>195.28</ele>
        <time>2016-02-21T14:22:41Z</time>
      </trkpt>
      <trkpt lat="43.41704" lon="2.94716">
        <ele>194.32</ele>
        <time>2016-02-21T14:22:42Z</time>
      </trkpt>
      <trkpt lat="43.41717" lon="2.94721">
        <ele>192.88</ele>
        <time>2016-02-21T14:22:43Z</time>
      </trkpt>
      <trkpt lat="43.4173" lon="2.94732">
        <ele>191.92</ele>
        <time>2016-02-21T14:22:44Z</time>
      </trkpt>
      <trkpt lat="43.41742" lon="2.94748">
        <ele>190.96</ele>
        <time>2016-02-21T14:22:45Z</time>
      </trkpt>
      <trkpt lat="43.41752" lon="2.94766">
        <ele>189.52</ele>
        <time>2016-02-21T14:22:46Z</time>
      </trkpt>
      <trkpt lat="43.41762" lon="2.94784">
        <ele>188.08</ele>
        <time>2016-02-21T14:22:47Z</time>
      </trkpt>
      <trkpt lat="43.41878" lon="2.94992">
        <ele>173.17</ele>
        <time>2016-02-21T14:22:57Z</time>
      </trkpt>
      <trkpt lat="43.41958" lon="2.95202">
        <ele>158.75</ele>
        <time>2016-02-21T14:23:06Z</time>
      </trkpt>
      <trkpt lat="43.41985" lon="2.95278">
        <ele>153.47</ele>
        <time>2016-02-21T14:23:11Z</time>
      </trkpt>
      <trkpt lat="43.41991" lon="2.95279">
        <ele>152.51</ele>
        <time>2016-02-21T14:23:12Z</time>
      </trkpt>
      <trkpt lat="43.41995" lon="2.95275">
        <ele>151.54</ele>
        <time>2016-02-21T14:23:13Z</time>
      </trkpt>
      <trkpt lat="43.41998" lon="2.95265">
        <ele>150.58</ele>
        <time>2016-02-21T14:23:14Z</time>
      </trkpt>
      <trkpt lat="43.42" lon="2.95253">
        <ele>149.14</ele>
        <time>2016-02-21T14:23:15Z</time>
      </trkpt>
      <trkpt lat="43.42" lon="2.95234">
        <ele>148.66</ele>
        <time>2016-02-21T14:23:16Z</time>
      </trkpt>
      <trkpt lat="43.42" lon="2.95212">
        <ele>148.18</ele>
        <time>2016-02-21T14:23:17Z</time>
      </trkpt>
      <trkpt lat="43.42013" lon="2.95011">
        <ele>137.13</ele>
        <time>2016-02-21T14:23:26Z</time>
      </trkpt>
      <trkpt lat="43.42027" lon="2.94797">
        <ele>127.51</ele>
        <time>2016-02-21T14:23:38Z</time>
      </trkpt>
      <trkpt lat="43.4203" lon="2.94756">
        <ele>126.07</ele>
        <time>2016-02-21T14:23:41Z</time>
      </trkpt>
      <trkpt lat="43.42032" lon="2.94748">
        <ele>125.59</ele>
        <time>2016-02-21T14:23:42Z</time>
      </trkpt>
      <trkpt lat="43.42035" lon="2.94743">
        <ele>125.11</ele>
        <time>2016-02-21T14:23:43Z</time>
      </trkpt>
      <trkpt lat="43.42038" lon="2.9474">
        <ele>124.63</ele>
        <time>2016-02-21T14:23:44Z</time>
      </trkpt>
      <trkpt lat="43.4204" lon="2.9474">
        <ele>124.63</ele>
        <time>2016-02-21T14:23:45Z</time>
      </trkpt>
      <trkpt lat="43.42041" lon="2.94744">
        <ele>123.67</ele>
        <time>2016-02-21T14:24:01Z</time>
      </trkpt>
      <trkpt lat="43.42045" lon="2.94744">
        <ele>125.11</ele>
        <time>2016-02-21T14:24:11Z</time>
      </trkpt>
      <trkpt lat="43.42047" lon="2.94745">
        <ele>122.22</ele>
        <time>2016-02-21T14:24:41Z</time>
      </trkpt>
      <trkpt lat="43.4205" lon="2.94742">
        <ele>122.22</ele>
        <time>2016-02-21T14:24:42Z</time>
      </trkpt>
      <trkpt lat="43.42053" lon="2.94738">
        <ele>121.74</ele>
        <time>2016-02-21T14:24:43Z</time>
      </trkpt>
      <trkpt lat="43.42056" lon="2.94733">
        <ele>121.74</ele>
        <time>2016-02-21T14:24:44Z</time>
      </trkpt>
      <trkpt lat="43.42058" lon="2.94729">
        <ele>121.74</ele>
        <time>2016-02-21T14:24:45Z</time>
      </trkpt>
      <trkpt lat="43.42062" lon="2.94724">
        <ele>121.74</ele>
        <time>2016-02-21T14:24:46Z</time>
      </trkpt>
      <trkpt lat="43.42065" lon="2.94721">
        <ele>121.74</ele>
        <time>2016-02-21T14:24:47Z</time>
      </trkpt>
      <trkpt lat="43.42068" lon="2.94716">
        <ele>121.74</ele>
        <time>2016-02-21T14:24:48Z</time>
      </trkpt>
      <trkpt lat="43.42069" lon="2.94711">
        <ele>121.74</ele>
        <time>2016-02-21T14:24:49Z</time>
      </trkpt>
      <trkpt lat="43.42069" lon="2.94707">
        <ele>121.74</ele>
        <time>2016-02-21T14:24:50Z</time>
      </trkpt>
      <trkpt lat="43.42068" lon="2.94702">
        <ele>121.74</ele>
        <time>2016-02-21T14:24:51Z</time>
      </trkpt>
      <trkpt lat="43.42067" lon="2.94697">
        <ele>121.74</ele>
        <time>2016-02-21T14:24:52Z</time>
      </trkpt>
      <trkpt lat="43.42061" lon="2.94682">
        <ele>122.22</ele>
        <time>2016-02-21T14:24:56Z</time>
      </trkpt>
      <trkpt lat="43.42058" lon="2.94683">
        <ele>122.22</ele>
        <time>2016-02-21T14:24:57Z</time>
      </trkpt>
      <trkpt lat="43.42057" lon="2.94686">
        <ele>121.74</ele>
        <time>2016-02-21T14:24:58Z</time>
      </trkpt>
      <trkpt lat="43.42056" lon="2.94689">
        <ele>121.74</ele>
        <time>2016-02-21T14:24:59Z</time>
      </trkpt>
      <trkpt lat="43.42057" lon="2.94692">
        <ele>121.74</ele>
        <time>2016-02-21T14:25:00Z</time>
      </trkpt>
      <trkpt lat="43.42057" lon="2.94695">
        <ele>121.26</ele>
        <time>2016-02-21T14:25:01Z</time>
      </trkpt>
      <trkpt lat="43.42059" lon="2.94698">
        <ele>120.78</ele>
        <time>2016-02-21T14:25:02Z</time>
      </trkpt>
      <trkpt lat="43.4206" lon="2.94699">
        <ele>120.78</ele>
        <time>2016-02-21T14:25:03Z</time>
      </trkpt>
      <trkpt lat="43.42061" lon="2.94699">
        <ele>120.78</ele>
        <time>2016-02-21T14:25:17Z</time>
      </trkpt>
      <trkpt lat="43.42061" lon="2.94698">
        <ele>126.07</ele>
        <time>2016-02-21T14:25:49Z</time>
      </trkpt>
      <trkpt lat="43.42055" lon="2.94706">
        <ele>126.55</ele>
        <time>2016-02-21T14:30:07Z</time>
      </trkpt>
      <trkpt lat="43.42052" lon="2.94708">
        <ele>127.03</ele>
        <time>2016-02-21T14:32:52Z</time>
      </trkpt>
      <trkpt lat="43.42053" lon="2.94707">
        <ele>119.34</ele>
        <time>2016-02-21T14:37:53Z</time>
      </trkpt>
      <trkpt lat="43.42052" lon="2.94707">
        <ele>118.86</ele>
        <time>2016-02-21T14:38:27Z</time>
      </trkpt>
      <trkpt lat="43.42052" lon="2.94708">
        <ele>119.82</ele>
        <time>2016-02-21T14:39:30Z</time>
      </trkpt>
      <trkpt lat="43.42051" lon="2.94709">
        <ele>124.63</ele>
        <time>2016-02-21T14:40:37Z</time>
      </trkpt>
      <trkpt lat="43.42059" lon="2.94706">
        <ele>118.38</ele>
        <time>2016-02-21T14:57:38Z</time>
      </trkpt>
      <trkpt lat="43.42058" lon="2.94704">
        <ele>117.9</ele>
        <time>2016-02-21T14:58:18Z</time>
      </trkpt>
      <trkpt lat="43.42054" lon="2.9471">
        <ele>126.55</ele>
        <time>2016-02-21T14:59:32Z</time>
      </trkpt>
      <trkpt lat="43.42053" lon="2.94701">
        <ele>124.15</ele>
        <time>2016-02-21T15:03:47Z</time>
      </trkpt>
      <trkpt lat="43.42059" lon="2.94699">
        <ele>122.22</ele>
        <time>2016-02-21T15:04:00Z</time>
      </trkpt>
      <trkpt lat="43.42062" lon="2.94698">
        <ele>123.67</ele>
        <time>2016-02-21T15:04:55Z</time>
      </trkpt>
      <trkpt lat="43.42062" lon="2.94697">
        <ele>125.59</ele>
        <time>2016-02-21T15:05:26Z</time>
      </trkpt>
      <trkpt lat="43.42061" lon="2.94694">
        <ele>123.67</ele>
        <time>2016-02-21T15:06:10Z</time>
      </trkpt>
      <trkpt lat="43.42057" lon="2.94696">
        <ele>127.99</ele>
        <time>2016-02-21T15:07:00Z</time>
      </trkpt>
      <trkpt lat="43.42053" lon="2.94693">
        <ele>129.43</ele>
        <time>2016-02-21T15:07:31Z</time>
      </trkpt>
      <trkpt lat="43.42053" lon="2.94691">
        <ele>127.99</ele>
        <time>2016-02-21T15:07:46Z</time>
      </trkpt>
      <trkpt lat="43.42056" lon="2.9469">
        <ele>123.67</ele>
        <time>2016-02-21T15:08:13Z</time>
      </trkpt>
      <trkpt lat="43.42059" lon="2.94694">
        <ele>124.15</ele>
        <time>2016-02-21T15:08:35Z</time>
      </trkpt>
      <trkpt lat="43.42064" lon="2.94699">
        <ele>124.15</ele>
        <time>2016-02-21T15:08:46Z</time>
      </trkpt>
      <trkpt lat="43.42063" lon="2.94701">
        <ele>132.32</ele>
        <time>2016-02-21T15:08:54Z</time>
      </trkpt>
      <trkpt lat="43.42068" lon="2.94698">
        <ele>132.8</ele>
        <time>2016-02-21T15:09:47Z</time>
      </trkpt>
      <trkpt lat="43.42068" lon="2.947">
        <ele>130.4</ele>
        <time>2016-02-21T15:10:29Z</time>
      </trkpt>
      <trkpt lat="43.42074" lon="2.94713">
        <ele>128.95</ele>
        <time>2016-02-21T15:10:34Z</time>
      </trkpt>
      <trkpt lat="43.42079" lon="2.94713">
        <ele>128.47</ele>
        <time>2016-02-21T15:10:36Z</time>
      </trkpt>
      <trkpt lat="43.42131" lon="2.94685">
        <ele>126.07</ele>
        <time>2016-02-21T15:10:45Z</time>
      </trkpt>
      <trkpt lat="43.42173" lon="2.94676">
        <ele>130.4</ele>
        <time>2016-02-21T15:10:50Z</time>
      </trkpt>
      <trkpt lat="43.42177" lon="2.9467">
        <ele>131.36</ele>
        <time>2016-02-21T15:10:51Z</time>
      </trkpt>
      <trkpt lat="43.42203" lon="2.94653">
        <ele>129.43</ele>
        <time>2016-02-21T15:10:55Z</time>
      </trkpt>
      <trkpt lat="43.42209" lon="2.94648">
        <ele>128.47</ele>
        <time>2016-02-21T15:10:56Z</time>
      </trkpt>
      <trkpt lat="43.42227" lon="2.94636">
        <ele>127.03</ele>
        <time>2016-02-21T15:10:59Z</time>
      </trkpt>
      <trkpt lat="43.42232" lon="2.9463">
        <ele>126.55</ele>
        <time>2016-02-21T15:11:00Z</time>
      </trkpt>
      <trkpt lat="43.42238" lon="2.94626">
        <ele>125.59</ele>
        <time>2016-02-21T15:11:01Z</time>
      </trkpt>
      <trkpt lat="43.42284" lon="2.94606">
        <ele>122.71</ele>
        <time>2016-02-21T15:11:07Z</time>
      </trkpt>
      <trkpt lat="43.42291" lon="2.94597">
        <ele>121.74</ele>
        <time>2016-02-21T15:11:08Z</time>
      </trkpt>
      <trkpt lat="43.42296" lon="2.94589">
        <ele>121.26</ele>
        <time>2016-02-21T15:11:09Z</time>
      </trkpt>
      <trkpt lat="43.42299" lon="2.94577">
        <ele>121.26</ele>
        <time>2016-02-21T15:11:10Z</time>
      </trkpt>
      <trkpt lat="43.423" lon="2.94564">
        <ele>121.26</ele>
        <time>2016-02-21T15:11:11Z</time>
      </trkpt>
      <trkpt lat="43.42301" lon="2.94551">
        <ele>120.78</ele>
        <time>2016-02-21T15:11:12Z</time>
      </trkpt>
      <trkpt lat="43.42301" lon="2.94538">
        <ele>121.26</ele>
        <time>2016-02-21T15:11:13Z</time>
      </trkpt>
      <trkpt lat="43.42301" lon="2.94523">
        <ele>121.26</ele>
        <time>2016-02-21T15:11:14Z</time>
      </trkpt>
      <trkpt lat="43.42297" lon="2.94449">
        <ele>121.26</ele>
        <time>2016-02-21T15:11:19Z</time>
      </trkpt>
      <trkpt lat="43.42293" lon="2.94432">
        <ele>121.26</ele>
        <time>2016-02-21T15:11:20Z</time>
      </trkpt>
      <trkpt lat="43.42245" lon="2.94257">
        <ele>129.92</ele>
        <time>2016-02-21T15:11:29Z</time>
      </trkpt>
      <trkpt lat="43.42206" lon="2.94043">
        <ele>142.41</ele>
        <time>2016-02-21T15:11:40Z</time>
      </trkpt>
      <trkpt lat="43.422" lon="2.93967">
        <ele>144.34</ele>
        <time>2016-02-21T15:11:46Z</time>
      </trkpt>
      <trkpt lat="43.42203" lon="2.93956">
        <ele>144.34</ele>
        <time>2016-02-21T15:11:47Z</time>
      </trkpt>
      <trkpt lat="43.42207" lon="2.93947">
        <ele>144.34</ele>
        <time>2016-02-21T15:11:48Z</time>
      </trkpt>
      <trkpt lat="43.42213" lon="2.93938">
        <ele>143.85</ele>
        <time>2016-02-21T15:11:49Z</time>
      </trkpt>
      <trkpt lat="43.42219" lon="2.93932">
        <ele>143.85</ele>
        <time>2016-02-21T15:11:50Z</time>
      </trkpt>
      <trkpt lat="43.42227" lon="2.9393">
        <ele>143.85</ele>
        <time>2016-02-21T15:11:51Z</time>
      </trkpt>
      <trkpt lat="43.42233" lon="2.93928">
        <ele>143.85</ele>
        <time>2016-02-21T15:11:52Z</time>
      </trkpt>
      <trkpt lat="43.4224" lon="2.93928">
        <ele>143.37</ele>
        <time>2016-02-21T15:11:53Z</time>
      </trkpt>
      <trkpt lat="43.42246" lon="2.93928">
        <ele>142.89</ele>
        <time>2016-02-21T15:11:54Z</time>
      </trkpt>
      <trkpt lat="43.42252" lon="2.93929">
        <ele>142.89</ele>
        <time>2016-02-21T15:11:55Z</time>
      </trkpt>
      <trkpt lat="43.42257" lon="2.93929">
        <ele>142.41</ele>
        <time>2016-02-21T15:11:56Z</time>
      </trkpt>
      <trkpt lat="43.42261" lon="2.93928">
        <ele>141.93</ele>
        <time>2016-02-21T15:11:57Z</time>
      </trkpt>
      <trkpt lat="43.42264" lon="2.93926">
        <ele>141.93</ele>
        <time>2016-02-21T15:11:58Z</time>
      </trkpt>
      <trkpt lat="43.42265" lon="2.93923">
        <ele>141.93</ele>
        <time>2016-02-21T15:11:59Z</time>
      </trkpt>
      <trkpt lat="43.42265" lon="2.9392">
        <ele>141.93</ele>
        <time>2016-02-21T15:12:00Z</time>
      </trkpt>
      <trkpt lat="43.42265" lon="2.93918">
        <ele>141.93</ele>
        <time>2016-02-21T15:12:01Z</time>
      </trkpt>
      <trkpt lat="43.42261" lon="2.93864">
        <ele>142.41</ele>
        <time>2016-02-21T15:12:06Z</time>
      </trkpt>
      <trkpt lat="43.42247" lon="2.93736">
        <ele>145.78</ele>
        <time>2016-02-21T15:12:14Z</time>
      </trkpt>
      <trkpt lat="43.42244" lon="2.93681">
        <ele>148.66</ele>
        <time>2016-02-21T15:12:20Z</time>
      </trkpt>
      <trkpt lat="43.42242" lon="2.93675">
        <ele>149.14</ele>
        <time>2016-02-21T15:12:21Z</time>
      </trkpt>
      <trkpt lat="43.42238" lon="2.93671">
        <ele>149.14</ele>
        <time>2016-02-21T15:12:22Z</time>
      </trkpt>
      <trkpt lat="43.42233" lon="2.93667">
        <ele>149.62</ele>
        <time>2016-02-21T15:12:23Z</time>
      </trkpt>
      <trkpt lat="43.42228" lon="2.93666">
        <ele>149.62</ele>
        <time>2016-02-21T15:12:24Z</time>
      </trkpt>
      <trkpt lat="43.42232" lon="2.937">
        <ele>147.7</ele>
        <time>2016-02-21T15:17:38Z</time>
      </trkpt>
      <trkpt lat="43.4224" lon="2.93697">
        <ele>149.14</ele>
        <time>2016-02-21T15:24:37Z</time>
      </trkpt>
      <trkpt lat="43.42246" lon="2.93712">
        <ele>148.66</ele>
        <time>2016-02-21T15:24:49Z</time>
      </trkpt>
      <trkpt lat="43.42246" lon="2.9372">
        <ele>148.18</ele>
        <time>2016-02-21T15:25:09Z</time>
      </trkpt>
      <trkpt lat="43.42246" lon="2.93721">
        <ele>148.66</ele>
        <time>2016-02-21T15:25:16Z</time>
      </trkpt>
      <trkpt lat="43.42246" lon="2.93737">
        <ele>147.7</ele>
        <time>2016-02-21T15:25:20Z</time>
      </trkpt>
      <trkpt lat="43.42246" lon="2.93744">
        <ele>147.22</ele>
        <time>2016-02-21T15:25:21Z</time>
      </trkpt>
      <trkpt lat="43.42247" lon="2.93751">
        <ele>147.22</ele>
        <time>2016-02-21T15:25:22Z</time>
      </trkpt>
      <trkpt lat="43.4226" lon="2.93876">
        <ele>142.89</ele>
        <time>2016-02-21T15:25:35Z</time>
      </trkpt>
      <trkpt lat="43.42261" lon="2.93886">
        <ele>142.41</ele>
        <time>2016-02-21T15:25:36Z</time>
      </trkpt>
      <trkpt lat="43.42263" lon="2.93905">
        <ele>141.93</ele>
        <time>2016-02-21T15:25:38Z</time>
      </trkpt>
      <trkpt lat="43.42262" lon="2.93914">
        <ele>141.45</ele>
        <time>2016-02-21T15:25:39Z</time>
      </trkpt>
      <trkpt lat="43.42261" lon="2.93919">
        <ele>141.45</ele>
        <time>2016-02-21T15:25:40Z</time>
      </trkpt>
      <trkpt lat="43.42261" lon="2.93922">
        <ele>141.45</ele>
        <time>2016-02-21T15:25:41Z</time>
      </trkpt>
      <trkpt lat="43.42258" lon="2.93925">
        <ele>141.93</ele>
        <time>2016-02-21T15:25:47Z</time>
      </trkpt>
      <trkpt lat="43.42255" lon="2.93926">
        <ele>141.93</ele>
        <time>2016-02-21T15:25:48Z</time>
      </trkpt>
      <trkpt lat="43.42251" lon="2.93926">
        <ele>142.41</ele>
        <time>2016-02-21T15:25:49Z</time>
      </trkpt>
      <trkpt lat="43.42234" lon="2.93921">
        <ele>142.89</ele>
        <time>2016-02-21T15:25:52Z</time>
      </trkpt>
      <trkpt lat="43.4223" lon="2.93918">
        <ele>142.89</ele>
        <time>2016-02-21T15:25:53Z</time>
      </trkpt>
      <trkpt lat="43.42225" lon="2.93915">
        <ele>143.37</ele>
        <time>2016-02-21T15:25:54Z</time>
      </trkpt>
      <trkpt lat="43.42222" lon="2.93912">
        <ele>143.37</ele>
        <time>2016-02-21T15:25:55Z</time>
      </trkpt>
      <trkpt lat="43.42218" lon="2.93908">
        <ele>143.85</ele>
        <time>2016-02-21T15:25:56Z</time>
      </trkpt>
      <trkpt lat="43.42208" lon="2.93899">
        <ele>144.34</ele>
        <time>2016-02-21T15:25:58Z</time>
      </trkpt>
      <trkpt lat="43.42202" lon="2.93896">
        <ele>144.34</ele>
        <time>2016-02-21T15:25:59Z</time>
      </trkpt>
      <trkpt lat="43.42196" lon="2.93895">
        <ele>144.82</ele>
        <time>2016-02-21T15:26:00Z</time>
      </trkpt>
      <trkpt lat="43.42189" lon="2.93897">
        <ele>144.82</ele>
        <time>2016-02-21T15:26:01Z</time>
      </trkpt>
      <trkpt lat="43.42183" lon="2.93902">
        <ele>144.82</ele>
        <time>2016-02-21T15:26:02Z</time>
      </trkpt>
      <trkpt lat="43.42179" lon="2.93909">
        <ele>144.82</ele>
        <time>2016-02-21T15:26:03Z</time>
      </trkpt>
      <trkpt lat="43.42176" lon="2.93917">
        <ele>144.82</ele>
        <time>2016-02-21T15:26:04Z</time>
      </trkpt>
      <trkpt lat="43.42175" lon="2.93925">
        <ele>145.3</ele>
        <time>2016-02-21T15:26:05Z</time>
      </trkpt>
      <trkpt lat="43.42177" lon="2.93934">
        <ele>145.3</ele>
        <time>2016-02-21T15:26:06Z</time>
      </trkpt>
      <trkpt lat="43.4218" lon="2.93943">
        <ele>144.82</ele>
        <time>2016-02-21T15:26:07Z</time>
      </trkpt>
      <trkpt lat="43.42185" lon="2.93952">
        <ele>144.82</ele>
        <time>2016-02-21T15:26:08Z</time>
      </trkpt>
      <trkpt lat="43.42189" lon="2.93963">
        <ele>144.34</ele>
        <time>2016-02-21T15:26:09Z</time>
      </trkpt>
      <trkpt lat="43.42193" lon="2.93975">
        <ele>143.85</ele>
        <time>2016-02-21T15:26:10Z</time>
      </trkpt>
      <trkpt lat="43.42195" lon="2.93986">
        <ele>143.85</ele>
        <time>2016-02-21T15:26:11Z</time>
      </trkpt>
      <trkpt lat="43.42196" lon="2.93997">
        <ele>143.37</ele>
        <time>2016-02-21T15:26:12Z</time>
      </trkpt>
      <trkpt lat="43.42198" lon="2.94009">
        <ele>143.37</ele>
        <time>2016-02-21T15:26:13Z</time>
      </trkpt>
      <trkpt lat="43.42227" lon="2.94173">
        <ele>136.16</ele>
        <time>2016-02-21T15:26:26Z</time>
      </trkpt>
      <trkpt lat="43.42238" lon="2.94233">
        <ele>133.76</ele>
        <time>2016-02-21T15:26:30Z</time>
      </trkpt>
      <trkpt lat="43.42291" lon="2.9445">
        <ele>119.82</ele>
        <time>2016-02-21T15:26:45Z</time>
      </trkpt>
      <trkpt lat="43.42294" lon="2.94464">
        <ele>118.86</ele>
        <time>2016-02-21T15:26:46Z</time>
      </trkpt>
      <trkpt lat="43.42295" lon="2.9448">
        <ele>118.38</ele>
        <time>2016-02-21T15:26:47Z</time>
      </trkpt>
      <trkpt lat="43.42296" lon="2.94495">
        <ele>117.9</ele>
        <time>2016-02-21T15:26:48Z</time>
      </trkpt>
      <trkpt lat="43.42292" lon="2.94589">
        <ele>119.34</ele>
        <time>2016-02-21T15:26:55Z</time>
      </trkpt>
      <trkpt lat="43.4229" lon="2.946">
        <ele>119.34</ele>
        <time>2016-02-21T15:26:56Z</time>
      </trkpt>
      <trkpt lat="43.42284" lon="2.9461">
        <ele>119.34</ele>
        <time>2016-02-21T15:26:57Z</time>
      </trkpt>
      <trkpt lat="43.42276" lon="2.94614">
        <ele>118.38</ele>
        <time>2016-02-21T15:26:58Z</time>
      </trkpt>
      <trkpt lat="43.42266" lon="2.94621">
        <ele>118.38</ele>
        <time>2016-02-21T15:26:59Z</time>
      </trkpt>
      <trkpt lat="43.42257" lon="2.94625">
        <ele>117.9</ele>
        <time>2016-02-21T15:27:00Z</time>
      </trkpt>
      <trkpt lat="43.42251" lon="2.94628">
        <ele>117.9</ele>
        <time>2016-02-21T15:27:01Z</time>
      </trkpt>
      <trkpt lat="43.42237" lon="2.94635">
        <ele>121.26</ele>
        <time>2016-02-21T15:27:07Z</time>
      </trkpt>
      <trkpt lat="43.42234" lon="2.94637">
        <ele>124.63</ele>
        <time>2016-02-21T15:27:16Z</time>
      </trkpt>
      <trkpt lat="43.42234" lon="2.94641">
        <ele>124.15</ele>
        <time>2016-02-21T15:27:17Z</time>
      </trkpt>
      <trkpt lat="43.42235" lon="2.94645">
        <ele>123.19</ele>
        <time>2016-02-21T15:27:18Z</time>
      </trkpt>
      <trkpt lat="43.42242" lon="2.94657">
        <ele>122.71</ele>
        <time>2016-02-21T15:27:19Z</time>
      </trkpt>
      <trkpt lat="43.42246" lon="2.94668">
        <ele>122.22</ele>
        <time>2016-02-21T15:27:20Z</time>
      </trkpt>
      <trkpt lat="43.42251" lon="2.9468">
        <ele>121.74</ele>
        <time>2016-02-21T15:27:21Z</time>
      </trkpt>
      <trkpt lat="43.42255" lon="2.94693">
        <ele>121.74</ele>
        <time>2016-02-21T15:27:22Z</time>
      </trkpt>
      <trkpt lat="43.42311" lon="2.94858">
        <ele>116.94</ele>
        <time>2016-02-21T15:27:34Z</time>
      </trkpt>
      <trkpt lat="43.42364" lon="2.95013">
        <ele>116.46</ele>
        <time>2016-02-21T15:27:46Z</time>
      </trkpt>
      <trkpt lat="43.42392" lon="2.95136">
        <ele>115.01</ele>
        <time>2016-02-21T15:27:56Z</time>
      </trkpt>
      <trkpt lat="43.42424" lon="2.95257">
        <ele>114.05</ele>
        <time>2016-02-21T15:28:05Z</time>
      </trkpt>
      <trkpt lat="43.4251" lon="2.95507">
        <ele>110.69</ele>
        <time>2016-02-21T15:28:20Z</time>
      </trkpt>
      <trkpt lat="43.42588" lon="2.95695">
        <ele>109.25</ele>
        <time>2016-02-21T15:28:30Z</time>
      </trkpt>
      <trkpt lat="43.42659" lon="2.95896">
        <ele>107.81</ele>
        <time>2016-02-21T15:28:40Z</time>
      </trkpt>
      <trkpt lat="43.42675" lon="2.96098">
        <ele>105.88</ele>
        <time>2016-02-21T15:28:49Z</time>
      </trkpt>
      <trkpt lat="43.42665" lon="2.96191">
        <ele>104.44</ele>
        <time>2016-02-21T15:28:54Z</time>
      </trkpt>
      <trkpt lat="43.4266" lon="2.96204">
        <ele>104.44</ele>
        <time>2016-02-21T15:28:55Z</time>
      </trkpt>
      <trkpt lat="43.42655" lon="2.96215">
        <ele>103.96</ele>
        <time>2016-02-21T15:28:56Z</time>
      </trkpt>
      <trkpt lat="43.4265" lon="2.96225">
        <ele>103.96</ele>
        <time>2016-02-21T15:28:57Z</time>
      </trkpt>
      <trkpt lat="43.42647" lon="2.96234">
        <ele>103.96</ele>
        <time>2016-02-21T15:28:58Z</time>
      </trkpt>
      <trkpt lat="43.42647" lon="2.96244">
        <ele>103.48</ele>
        <time>2016-02-21T15:28:59Z</time>
      </trkpt>
      <trkpt lat="43.42648" lon="2.96256">
        <ele>103.48</ele>
        <time>2016-02-21T15:29:00Z</time>
      </trkpt>
      <trkpt lat="43.42649" lon="2.9627">
        <ele>103.48</ele>
        <time>2016-02-21T15:29:01Z</time>
      </trkpt>
      <trkpt lat="43.42648" lon="2.96288">
        <ele>103.48</ele>
        <time>2016-02-21T15:29:02Z</time>
      </trkpt>
      <trkpt lat="43.42645" lon="2.96306">
        <ele>103.48</ele>
        <time>2016-02-21T15:29:03Z</time>
      </trkpt>
      <trkpt lat="43.42626" lon="2.96466">
        <ele>102.52</ele>
        <time>2016-02-21T15:29:10Z</time>
      </trkpt>
      <trkpt lat="43.42645" lon="2.96675">
        <ele>102.04</ele>
        <time>2016-02-21T15:29:18Z</time>
      </trkpt>
      <trkpt lat="43.42655" lon="2.96699">
        <ele>101.56</ele>
        <time>2016-02-21T15:29:19Z</time>
      </trkpt>
      <trkpt lat="43.42666" lon="2.96723">
        <ele>101.56</ele>
        <time>2016-02-21T15:29:20Z</time>
      </trkpt>
      <trkpt lat="43.42721" lon="2.9685">
        <ele>100.11</ele>
        <time>2016-02-21T15:29:25Z</time>
      </trkpt>
      <trkpt lat="43.42726" lon="2.96878">
        <ele>100.11</ele>
        <time>2016-02-21T15:29:26Z</time>
      </trkpt>
      <trkpt lat="43.42729" lon="2.96906">
        <ele>99.63</ele>
        <time>2016-02-21T15:29:27Z</time>
      </trkpt>
      <trkpt lat="43.42746" lon="2.97014">
        <ele>99.15</ele>
        <time>2016-02-21T15:29:31Z</time>
      </trkpt>
      <trkpt lat="43.42757" lon="2.97038">
        <ele>98.67</ele>
        <time>2016-02-21T15:29:32Z</time>
      </trkpt>
      <trkpt lat="43.42771" lon="2.97058">
        <ele>98.67</ele>
        <time>2016-02-21T15:29:33Z</time>
      </trkpt>
      <trkpt lat="43.42788" lon="2.97077">
        <ele>98.19</ele>
        <time>2016-02-21T15:29:34Z</time>
      </trkpt>
      <trkpt lat="43.42806" lon="2.97094">
        <ele>97.71</ele>
        <time>2016-02-21T15:29:35Z</time>
      </trkpt>
      <trkpt lat="43.42825" lon="2.9711">
        <ele>97.71</ele>
        <time>2016-02-21T15:29:36Z</time>
      </trkpt>
      <trkpt lat="43.42985" lon="2.97243">
        <ele>96.27</ele>
        <time>2016-02-21T15:29:45Z</time>
      </trkpt>
      <trkpt lat="43.43" lon="2.97258">
        <ele>96.27</ele>
        <time>2016-02-21T15:29:46Z</time>
      </trkpt>
      <trkpt lat="43.43013" lon="2.97276">
        <ele>96.27</ele>
        <time>2016-02-21T15:29:47Z</time>
      </trkpt>
      <trkpt lat="43.43024" lon="2.97299">
        <ele>96.75</ele>
        <time>2016-02-21T15:29:48Z</time>
      </trkpt>
      <trkpt lat="43.43033" lon="2.97322">
        <ele>97.23</ele>
        <time>2016-02-21T15:29:49Z</time>
      </trkpt>
      <trkpt lat="43.43042" lon="2.97344">
        <ele>97.71</ele>
        <time>2016-02-21T15:29:50Z</time>
      </trkpt>
      <trkpt lat="43.43053" lon="2.97364">
        <ele>98.19</ele>
        <time>2016-02-21T15:29:51Z</time>
      </trkpt>
      <trkpt lat="43.43066" lon="2.97381">
        <ele>98.67</ele>
        <time>2016-02-21T15:29:52Z</time>
      </trkpt>
      <trkpt lat="43.43081" lon="2.97392">
        <ele>99.15</ele>
        <time>2016-02-21T15:29:53Z</time>
      </trkpt>
      <trkpt lat="43.43099" lon="2.974">
        <ele>100.11</ele>
        <time>2016-02-21T15:29:54Z</time>
      </trkpt>
      <trkpt lat="43.43118" lon="2.97405">
        <ele>100.11</ele>
        <time>2016-02-21T15:29:55Z</time>
      </trkpt>
      <trkpt lat="43.43136" lon="2.97408">
        <ele>100.11</ele>
        <time>2016-02-21T15:29:56Z</time>
      </trkpt>
      <trkpt lat="43.43154" lon="2.97412">
        <ele>100.11</ele>
        <time>2016-02-21T15:29:57Z</time>
      </trkpt>
      <trkpt lat="43.43171" lon="2.97421">
        <ele>100.11</ele>
        <time>2016-02-21T15:29:58Z</time>
      </trkpt>
      <trkpt lat="43.43188" lon="2.97434">
        <ele>99.63</ele>
        <time>2016-02-21T15:29:59Z</time>
      </trkpt>
      <trkpt lat="43.43203" lon="2.97451">
        <ele>99.63</ele>
        <time>2016-02-21T15:30:00Z</time>
      </trkpt>
      <trkpt lat="43.43218" lon="2.9747">
        <ele>99.63</ele>
        <time>2016-02-21T15:30:01Z</time>
      </trkpt>
      <trkpt lat="43.43232" lon="2.97491">
        <ele>99.15</ele>
        <time>2016-02-21T15:30:02Z</time>
      </trkpt>
      <trkpt lat="43.43246" lon="2.97513">
        <ele>98.67</ele>
        <time>2016-02-21T15:30:03Z</time>
      </trkpt>
      <trkpt lat="43.43336" lon="2.97708">
        <ele>96.27</ele>
        <time>2016-02-21T15:30:11Z</time>
      </trkpt>
      <trkpt lat="43.43386" lon="2.97842">
        <ele>94.35</ele>
        <time>2016-02-21T15:30:16Z</time>
      </trkpt>
      <trkpt lat="43.43392" lon="2.97873">
        <ele>94.35</ele>
        <time>2016-02-21T15:30:17Z</time>
      </trkpt>
      <trkpt lat="43.43449" lon="2.98089">
        <ele>92.42</ele>
        <time>2016-02-21T15:30:24Z</time>
      </trkpt>
      <trkpt lat="43.43595" lon="2.98423">
        <ele>89.06</ele>
        <time>2016-02-21T15:30:35Z</time>
      </trkpt>
      <trkpt lat="43.43657" lon="2.98669">
        <ele>86.18</ele>
        <time>2016-02-21T15:30:42Z</time>
      </trkpt>
      <trkpt lat="43.43734" lon="2.98947">
        <ele>83.29</ele>
        <time>2016-02-21T15:30:50Z</time>
      </trkpt>
      <trkpt lat="43.43799" lon="2.99147">
        <ele>80.41</ele>
        <time>2016-02-21T15:30:56Z</time>
      </trkpt>
      <trkpt lat="43.43815" lon="2.99175">
        <ele>79.93</ele>
        <time>2016-02-21T15:30:57Z</time>
      </trkpt>
      <trkpt lat="43.43834" lon="2.99202">
        <ele>79.93</ele>
        <time>2016-02-21T15:30:58Z</time>
      </trkpt>
      <trkpt lat="43.44003" lon="2.9946">
        <ele>79.93</ele>
        <time>2016-02-21T15:31:07Z</time>
      </trkpt>
      <trkpt lat="43.44199" lon="2.99732">
        <ele>78.48</ele>
        <time>2016-02-21T15:31:17Z</time>
      </trkpt>
      <trkpt lat="43.44402" lon="2.99971">
        <ele>75.6</ele>
        <time>2016-02-21T15:31:27Z</time>
      </trkpt>
      <trkpt lat="43.44514" lon="3.00193">
        <ele>74.64</ele>
        <time>2016-02-21T15:31:35Z</time>
      </trkpt>
      <trkpt lat="43.44535" lon="3.00245">
        <ele>74.64</ele>
        <time>2016-02-21T15:31:37Z</time>
      </trkpt>
      <trkpt lat="43.44541" lon="3.00273">
        <ele>74.64</ele>
        <time>2016-02-21T15:31:38Z</time>
      </trkpt>
      <trkpt lat="43.44546" lon="3.00303">
        <ele>75.12</ele>
        <time>2016-02-21T15:31:39Z</time>
      </trkpt>
      <trkpt lat="43.44596" lon="3.00488">
        <ele>74.16</ele>
        <time>2016-02-21T15:31:46Z</time>
      </trkpt>
      <trkpt lat="43.44652" lon="3.00651">
        <ele>73.68</ele>
        <time>2016-02-21T15:31:54Z</time>
      </trkpt>
      <trkpt lat="43.44676" lon="3.00836">
        <ele>73.2</ele>
        <time>2016-02-21T15:32:00Z</time>
      </trkpt>
      <trkpt lat="43.44699" lon="3.01038">
        <ele>72.72</ele>
        <time>2016-02-21T15:32:06Z</time>
      </trkpt>
      <trkpt lat="43.44708" lon="3.01069">
        <ele>72.72</ele>
        <time>2016-02-21T15:32:07Z</time>
      </trkpt>
      <trkpt lat="43.44813" lon="3.0138">
        <ele>67.91</ele>
        <time>2016-02-21T15:32:17Z</time>
      </trkpt>
      <trkpt lat="43.4488" lon="3.01725">
        <ele>65.51</ele>
        <time>2016-02-21T15:32:27Z</time>
      </trkpt>
      <trkpt lat="43.4487" lon="3.01977">
        <ele>64.55</ele>
        <time>2016-02-21T15:32:34Z</time>
      </trkpt>
      <trkpt lat="43.44832" lon="3.023">
        <ele>62.14</ele>
        <time>2016-02-21T15:32:43Z</time>
      </trkpt>
      <trkpt lat="43.44841" lon="3.02509">
        <ele>60.7</ele>
        <time>2016-02-21T15:32:49Z</time>
      </trkpt>
      <trkpt lat="43.4485" lon="3.02543">
        <ele>60.22</ele>
        <time>2016-02-21T15:32:50Z</time>
      </trkpt>
      <trkpt lat="43.4486" lon="3.02575">
        <ele>60.22</ele>
        <time>2016-02-21T15:32:51Z</time>
      </trkpt>
      <trkpt lat="43.44934" lon="3.02885">
        <ele>58.3</ele>
        <time>2016-02-21T15:33:00Z</time>
      </trkpt>
      <trkpt lat="43.44964" lon="3.03287">
        <ele>56.37</ele>
        <time>2016-02-21T15:33:11Z</time>
      </trkpt>
      <trkpt lat="43.44936" lon="3.03547">
        <ele>53.97</ele>
        <time>2016-02-21T15:33:19Z</time>
      </trkpt>
      <trkpt lat="43.44926" lon="3.03597">
        <ele>53.97</ele>
        <time>2016-02-21T15:33:21Z</time>
      </trkpt>
      <trkpt lat="43.44918" lon="3.0362">
        <ele>53.49</ele>
        <time>2016-02-21T15:33:22Z</time>
      </trkpt>
      <trkpt lat="43.44894" lon="3.03706">
        <ele>53.01</ele>
        <time>2016-02-21T15:33:26Z</time>
      </trkpt>
      <trkpt lat="43.44893" lon="3.03726">
        <ele>53.01</ele>
        <time>2016-02-21T15:33:27Z</time>
      </trkpt>
      <trkpt lat="43.44894" lon="3.03745">
        <ele>53.01</ele>
        <time>2016-02-21T15:33:28Z</time>
      </trkpt>
      <trkpt lat="43.44896" lon="3.03762">
        <ele>53.01</ele>
        <time>2016-02-21T15:33:29Z</time>
      </trkpt>
      <trkpt lat="43.44899" lon="3.03769">
        <ele>53.01</ele>
        <time>2016-02-21T15:33:30Z</time>
      </trkpt>
      <trkpt lat="43.44904" lon="3.03785">
        <ele>53.49</ele>
        <time>2016-02-21T15:33:35Z</time>
      </trkpt>
      <trkpt lat="43.44902" lon="3.03802">
        <ele>53.97</ele>
        <time>2016-02-21T15:33:48Z</time>
      </trkpt>
      <trkpt lat="43.44904" lon="3.0381">
        <ele>53.97</ele>
        <time>2016-02-21T15:33:49Z</time>
      </trkpt>
      <trkpt lat="43.4491" lon="3.03812">
        <ele>53.97</ele>
        <time>2016-02-21T15:33:50Z</time>
      </trkpt>
      <trkpt lat="43.44916" lon="3.03809">
        <ele>53.49</ele>
        <time>2016-02-21T15:33:51Z</time>
      </trkpt>
      <trkpt lat="43.44924" lon="3.03803">
        <ele>53.49</ele>
        <time>2016-02-21T15:33:52Z</time>
      </trkpt>
      <trkpt lat="43.44933" lon="3.03797">
        <ele>53.49</ele>
        <time>2016-02-21T15:33:53Z</time>
      </trkpt>
      <trkpt lat="43.44944" lon="3.03791">
        <ele>53.49</ele>
        <time>2016-02-21T15:33:54Z</time>
      </trkpt>
      <trkpt lat="43.44955" lon="3.03783">
        <ele>53.49</ele>
        <time>2016-02-21T15:33:55Z</time>
      </trkpt>
      <trkpt lat="43.44966" lon="3.03772">
        <ele>53.49</ele>
        <time>2016-02-21T15:33:56Z</time>
      </trkpt>
      <trkpt lat="43.44979" lon="3.03759">
        <ele>53.49</ele>
        <time>2016-02-21T15:33:57Z</time>
      </trkpt>
      <trkpt lat="43.45081" lon="3.03608">
        <ele>53.97</ele>
        <time>2016-02-21T15:34:05Z</time>
      </trkpt>
      <trkpt lat="43.4518" lon="3.03393">
        <ele>53.97</ele>
        <time>2016-02-21T15:34:13Z</time>
      </trkpt>
      <trkpt lat="43.45383" lon="3.02971">
        <ele>55.41</ele>
        <time>2016-02-21T15:34:28Z</time>
      </trkpt>
      <trkpt lat="43.45449" lon="3.02883">
        <ele>55.89</ele>
        <time>2016-02-21T15:34:33Z</time>
      </trkpt>
      <trkpt lat="43.4546" lon="3.0287">
        <ele>55.89</ele>
        <time>2016-02-21T15:34:34Z</time>
      </trkpt>
      <trkpt lat="43.45473" lon="3.0286">
        <ele>55.89</ele>
        <time>2016-02-21T15:34:35Z</time>
      </trkpt>
      <trkpt lat="43.45491" lon="3.02853">
        <ele>55.41</ele>
        <time>2016-02-21T15:34:36Z</time>
      </trkpt>
      <trkpt lat="43.45513" lon="3.02847">
        <ele>55.41</ele>
        <time>2016-02-21T15:34:37Z</time>
      </trkpt>
      <trkpt lat="43.45535" lon="3.0284">
        <ele>55.41</ele>
        <time>2016-02-21T15:34:38Z</time>
      </trkpt>
      <trkpt lat="43.45627" lon="3.02804">
        <ele>54.93</ele>
        <time>2016-02-21T15:34:42Z</time>
      </trkpt>
      <trkpt lat="43.45649" lon="3.02789">
        <ele>54.93</ele>
        <time>2016-02-21T15:34:43Z</time>
      </trkpt>
      <trkpt lat="43.45917" lon="3.02576">
        <ele>60.22</ele>
        <time>2016-02-21T15:34:55Z</time>
      </trkpt>
      <trkpt lat="43.46027" lon="3.02493">
        <ele>60.7</ele>
        <time>2016-02-21T15:35:00Z</time>
      </trkpt>
      <trkpt lat="43.46049" lon="3.02484">
        <ele>60.7</ele>
        <time>2016-02-21T15:35:01Z</time>
      </trkpt>
      <trkpt lat="43.46074" lon="3.02477">
        <ele>60.22</ele>
        <time>2016-02-21T15:35:02Z</time>
      </trkpt>
      <trkpt lat="43.461" lon="3.02474">
        <ele>60.22</ele>
        <time>2016-02-21T15:35:03Z</time>
      </trkpt>
      <trkpt lat="43.46127" lon="3.02476">
        <ele>59.74</ele>
        <time>2016-02-21T15:35:04Z</time>
      </trkpt>
      <trkpt lat="43.46153" lon="3.02482">
        <ele>59.74</ele>
        <time>2016-02-21T15:35:05Z</time>
      </trkpt>
      <trkpt lat="43.46179" lon="3.02491">
        <ele>59.74</ele>
        <time>2016-02-21T15:35:06Z</time>
      </trkpt>
      <trkpt lat="43.46205" lon="3.02501">
        <ele>60.22</ele>
        <time>2016-02-21T15:35:07Z</time>
      </trkpt>
      <trkpt lat="43.46599" lon="3.02669">
        <ele>60.22</ele>
        <time>2016-02-21T15:35:22Z</time>
      </trkpt>
      <trkpt lat="43.46782" lon="3.02746">
        <ele>61.18</ele>
        <time>2016-02-21T15:35:30Z</time>
      </trkpt>
      <trkpt lat="43.46915" lon="3.02802">
        <ele>62.62</ele>
        <time>2016-02-21T15:35:38Z</time>
      </trkpt>
      <trkpt lat="43.47004" lon="3.02837">
        <ele>64.55</ele>
        <time>2016-02-21T15:35:45Z</time>
      </trkpt>
      <trkpt lat="43.47076" lon="3.0287">
        <ele>66.95</ele>
        <time>2016-02-21T15:35:50Z</time>
      </trkpt>
      <trkpt lat="43.47086" lon="3.02878">
        <ele>67.43</ele>
        <time>2016-02-21T15:35:51Z</time>
      </trkpt>
      <trkpt lat="43.47095" lon="3.02889">
        <ele>67.91</ele>
        <time>2016-02-21T15:35:52Z</time>
      </trkpt>
      <trkpt lat="43.47103" lon="3.02902">
        <ele>67.91</ele>
        <time>2016-02-21T15:35:53Z</time>
      </trkpt>
      <trkpt lat="43.47112" lon="3.02916">
        <ele>68.39</ele>
        <time>2016-02-21T15:35:54Z</time>
      </trkpt>
      <trkpt lat="43.47211" lon="3.03091">
        <ele>71.27</ele>
        <time>2016-02-21T15:36:04Z</time>
      </trkpt>
      <trkpt lat="43.4729" lon="3.03301">
        <ele>72.72</ele>
        <time>2016-02-21T15:36:12Z</time>
      </trkpt>
      <trkpt lat="43.47377" lon="3.0361">
        <ele>75.12</ele>
        <time>2016-02-21T15:36:22Z</time>
      </trkpt>
      <trkpt lat="43.47395" lon="3.03659">
        <ele>76.08</ele>
        <time>2016-02-21T15:36:24Z</time>
      </trkpt>
      <trkpt lat="43.47408" lon="3.03678">
        <ele>76.08</ele>
        <time>2016-02-21T15:36:25Z</time>
      </trkpt>
      <trkpt lat="43.47424" lon="3.03696">
        <ele>76.56</ele>
        <time>2016-02-21T15:36:26Z</time>
      </trkpt>
      <trkpt lat="43.47442" lon="3.03708">
        <ele>75.6</ele>
        <time>2016-02-21T15:36:27Z</time>
      </trkpt>
      <trkpt lat="43.47463" lon="3.03719">
        <ele>74.64</ele>
        <time>2016-02-21T15:36:28Z</time>
      </trkpt>
      <trkpt lat="43.47483" lon="3.03729">
        <ele>74.16</ele>
        <time>2016-02-21T15:36:29Z</time>
      </trkpt>
      <trkpt lat="43.47535" lon="3.03747">
        <ele>73.2</ele>
        <time>2016-02-21T15:36:32Z</time>
      </trkpt>
      <trkpt lat="43.47549" lon="3.03744">
        <ele>73.2</ele>
        <time>2016-02-21T15:36:33Z</time>
      </trkpt>
      <trkpt lat="43.47562" lon="3.03735">
        <ele>73.2</ele>
        <time>2016-02-21T15:36:34Z</time>
      </trkpt>
      <trkpt lat="43.47573" lon="3.0372">
        <ele>73.2</ele>
        <time>2016-02-21T15:36:35Z</time>
      </trkpt>
      <trkpt lat="43.4758" lon="3.03698">
        <ele>73.2</ele>
        <time>2016-02-21T15:36:36Z</time>
      </trkpt>
      <trkpt lat="43.47588" lon="3.03672">
        <ele>73.2</ele>
        <time>2016-02-21T15:36:37Z</time>
      </trkpt>
      <trkpt lat="43.47596" lon="3.03645">
        <ele>73.68</ele>
        <time>2016-02-21T15:36:38Z</time>
      </trkpt>
      <trkpt lat="43.47606" lon="3.03619">
        <ele>74.64</ele>
        <time>2016-02-21T15:36:39Z</time>
      </trkpt>
      <trkpt lat="43.47619" lon="3.03597">
        <ele>75.12</ele>
        <time>2016-02-21T15:36:40Z</time>
      </trkpt>
      <trkpt lat="43.47634" lon="3.03579">
        <ele>76.08</ele>
        <time>2016-02-21T15:36:41Z</time>
      </trkpt>
      <trkpt lat="43.47651" lon="3.03561">
        <ele>77.52</ele>
        <time>2016-02-21T15:36:42Z</time>
      </trkpt>
      <trkpt lat="43.47666" lon="3.03539">
        <ele>78.48</ele>
        <time>2016-02-21T15:36:43Z</time>
      </trkpt>
      <trkpt lat="43.47678" lon="3.03515">
        <ele>79.45</ele>
        <time>2016-02-21T15:36:44Z</time>
      </trkpt>
      <trkpt lat="43.4769" lon="3.03488">
        <ele>80.41</ele>
        <time>2016-02-21T15:36:45Z</time>
      </trkpt>
      <trkpt lat="43.47701" lon="3.03461">
        <ele>81.37</ele>
        <time>2016-02-21T15:36:46Z</time>
      </trkpt>
      <trkpt lat="43.47738" lon="3.03389">
        <ele>84.25</ele>
        <time>2016-02-21T15:36:49Z</time>
      </trkpt>
      <trkpt lat="43.47752" lon="3.03371">
        <ele>85.21</ele>
        <time>2016-02-21T15:36:50Z</time>
      </trkpt>
      <trkpt lat="43.47766" lon="3.03357">
        <ele>86.18</ele>
        <time>2016-02-21T15:36:51Z</time>
      </trkpt>
      <trkpt lat="43.47786" lon="3.03349">
        <ele>87.62</ele>
        <time>2016-02-21T15:36:52Z</time>
      </trkpt>
      <trkpt lat="43.47808" lon="3.03346">
        <ele>89.06</ele>
        <time>2016-02-21T15:36:53Z</time>
      </trkpt>
      <trkpt lat="43.47828" lon="3.03345">
        <ele>90.5</ele>
        <time>2016-02-21T15:36:54Z</time>
      </trkpt>
      <trkpt lat="43.47847" lon="3.03342">
        <ele>90.98</ele>
        <time>2016-02-21T15:36:55Z</time>
      </trkpt>
      <trkpt lat="43.47865" lon="3.03335">
        <ele>91.94</ele>
        <time>2016-02-21T15:36:56Z</time>
      </trkpt>
      <trkpt lat="43.47879" lon="3.03324">
        <ele>92.9</ele>
        <time>2016-02-21T15:36:57Z</time>
      </trkpt>
      <trkpt lat="43.47891" lon="3.03306">
        <ele>93.87</ele>
        <time>2016-02-21T15:36:58Z</time>
      </trkpt>
      <trkpt lat="43.47902" lon="3.0329">
        <ele>94.83</ele>
        <time>2016-02-21T15:36:59Z</time>
      </trkpt>
      <trkpt lat="43.47914" lon="3.03278">
        <ele>95.31</ele>
        <time>2016-02-21T15:37:00Z</time>
      </trkpt>
      <trkpt lat="43.47927" lon="3.0327">
        <ele>96.27</ele>
        <time>2016-02-21T15:37:01Z</time>
      </trkpt>
      <trkpt lat="43.47942" lon="3.03271">
        <ele>96.27</ele>
        <time>2016-02-21T15:37:02Z</time>
      </trkpt>
      <trkpt lat="43.47958" lon="3.03282">
        <ele>96.27</ele>
        <time>2016-02-21T15:37:03Z</time>
      </trkpt>
      <trkpt lat="43.47973" lon="3.03299">
        <ele>97.23</ele>
        <time>2016-02-21T15:37:04Z</time>
      </trkpt>
      <trkpt lat="43.47985" lon="3.03319">
        <ele>97.71</ele>
        <time>2016-02-21T15:37:05Z</time>
      </trkpt>
      <trkpt lat="43.47996" lon="3.03341">
        <ele>98.19</ele>
        <time>2016-02-21T15:37:06Z</time>
      </trkpt>
      <trkpt lat="43.48006" lon="3.03365">
        <ele>98.67</ele>
        <time>2016-02-21T15:37:07Z</time>
      </trkpt>
      <trkpt lat="43.48016" lon="3.03389">
        <ele>99.63</ele>
        <time>2016-02-21T15:37:08Z</time>
      </trkpt>
      <trkpt lat="43.48046" lon="3.03472">
        <ele>102.52</ele>
        <time>2016-02-21T15:37:12Z</time>
      </trkpt>
      <trkpt lat="43.48054" lon="3.03484">
        <ele>102.52</ele>
        <time>2016-02-21T15:37:13Z</time>
      </trkpt>
      <trkpt lat="43.48064" lon="3.03489">
        <ele>103</ele>
        <time>2016-02-21T15:37:14Z</time>
      </trkpt>
      <trkpt lat="43.48076" lon="3.03488">
        <ele>103.48</ele>
        <time>2016-02-21T15:37:15Z</time>
      </trkpt>
      <trkpt lat="43.48087" lon="3.03481">
        <ele>103.96</ele>
        <time>2016-02-21T15:37:16Z</time>
      </trkpt>
      <trkpt lat="43.48095" lon="3.03468">
        <ele>104.44</ele>
        <time>2016-02-21T15:37:17Z</time>
      </trkpt>
      <trkpt lat="43.48101" lon="3.03451">
        <ele>104.44</ele>
        <time>2016-02-21T15:37:18Z</time>
      </trkpt>
      <trkpt lat="43.48103" lon="3.03429">
        <ele>104.92</ele>
        <time>2016-02-21T15:37:19Z</time>
      </trkpt>
      <trkpt lat="43.48105" lon="3.03405">
        <ele>105.88</ele>
        <time>2016-02-21T15:37:20Z</time>
      </trkpt>
      <trkpt lat="43.48107" lon="3.03379">
        <ele>106.84</ele>
        <time>2016-02-21T15:37:21Z</time>
      </trkpt>
      <trkpt lat="43.48109" lon="3.03353">
        <ele>107.32</ele>
        <time>2016-02-21T15:37:22Z</time>
      </trkpt>
      <trkpt lat="43.48113" lon="3.03326">
        <ele>108.29</ele>
        <time>2016-02-21T15:37:23Z</time>
      </trkpt>
      <trkpt lat="43.48123" lon="3.03247">
        <ele>110.69</ele>
        <time>2016-02-21T15:37:26Z</time>
      </trkpt>
      <trkpt lat="43.48122" lon="3.03221">
        <ele>111.17</ele>
        <time>2016-02-21T15:37:27Z</time>
      </trkpt>
      <trkpt lat="43.48121" lon="3.03028">
        <ele>116.94</ele>
        <time>2016-02-21T15:37:34Z</time>
      </trkpt>
      <trkpt lat="43.48126" lon="3.03">
        <ele>117.9</ele>
        <time>2016-02-21T15:37:35Z</time>
      </trkpt>
      <trkpt lat="43.48133" lon="3.02974">
        <ele>118.38</ele>
        <time>2016-02-21T15:37:36Z</time>
      </trkpt>
      <trkpt lat="43.48143" lon="3.02951">
        <ele>118.86</ele>
        <time>2016-02-21T15:37:37Z</time>
      </trkpt>
      <trkpt lat="43.48155" lon="3.02931">
        <ele>119.82</ele>
        <time>2016-02-21T15:37:38Z</time>
      </trkpt>
      <trkpt lat="43.48169" lon="3.02914">
        <ele>120.3</ele>
        <time>2016-02-21T15:37:39Z</time>
      </trkpt>
      <trkpt lat="43.48185" lon="3.02905">
        <ele>120.3</ele>
        <time>2016-02-21T15:37:40Z</time>
      </trkpt>
      <trkpt lat="43.48211" lon="3.02902">
        <ele>122.22</ele>
        <time>2016-02-21T15:37:41Z</time>
      </trkpt>
      <trkpt lat="43.4823" lon="3.02897">
        <ele>122.71</ele>
        <time>2016-02-21T15:37:42Z</time>
      </trkpt>
      <trkpt lat="43.48265" lon="3.02883">
        <ele>123.19</ele>
        <time>2016-02-21T15:37:44Z</time>
      </trkpt>
      <trkpt lat="43.4828" lon="3.02869">
        <ele>123.67</ele>
        <time>2016-02-21T15:37:45Z</time>
      </trkpt>
      <trkpt lat="43.48294" lon="3.02854">
        <ele>123.67</ele>
        <time>2016-02-21T15:37:46Z</time>
      </trkpt>
      <trkpt lat="43.48319" lon="3.0282">
        <ele>123.67</ele>
        <time>2016-02-21T15:37:48Z</time>
      </trkpt>
      <trkpt lat="43.4833" lon="3.028">
        <ele>123.19</ele>
        <time>2016-02-21T15:37:49Z</time>
      </trkpt>
      <trkpt lat="43.48339" lon="3.02778">
        <ele>123.19</ele>
        <time>2016-02-21T15:37:50Z</time>
      </trkpt>
      <trkpt lat="43.48345" lon="3.02756">
        <ele>123.19</ele>
        <time>2016-02-21T15:37:51Z</time>
      </trkpt>
      <trkpt lat="43.48351" lon="3.02734">
        <ele>122.71</ele>
        <time>2016-02-21T15:37:52Z</time>
      </trkpt>
      <trkpt lat="43.48359" lon="3.02713">
        <ele>122.22</ele>
        <time>2016-02-21T15:37:53Z</time>
      </trkpt>
      <trkpt lat="43.48369" lon="3.02693">
        <ele>121.26</ele>
        <time>2016-02-21T15:37:54Z</time>
      </trkpt>
      <trkpt lat="43.48381" lon="3.02674">
        <ele>119.82</ele>
        <time>2016-02-21T15:37:55Z</time>
      </trkpt>
      <trkpt lat="43.48435" lon="3.02607">
        <ele>115.01</ele>
        <time>2016-02-21T15:37:59Z</time>
      </trkpt>
      <trkpt lat="43.48451" lon="3.02595">
        <ele>114.05</ele>
        <time>2016-02-21T15:38:00Z</time>
      </trkpt>
      <trkpt lat="43.48467" lon="3.02583">
        <ele>112.61</ele>
        <time>2016-02-21T15:38:01Z</time>
      </trkpt>
      <trkpt lat="43.48566" lon="3.02502">
        <ele>105.88</ele>
        <time>2016-02-21T15:38:07Z</time>
      </trkpt>
      <trkpt lat="43.48633" lon="3.02413">
        <ele>100.11</ele>
        <time>2016-02-21T15:38:12Z</time>
      </trkpt>
      <trkpt lat="43.48648" lon="3.02401">
        <ele>99.15</ele>
        <time>2016-02-21T15:38:13Z</time>
      </trkpt>
      <trkpt lat="43.48664" lon="3.02395">
        <ele>98.19</ele>
        <time>2016-02-21T15:38:14Z</time>
      </trkpt>
      <trkpt lat="43.48682" lon="3.02394">
        <ele>97.23</ele>
        <time>2016-02-21T15:38:15Z</time>
      </trkpt>
      <trkpt lat="43.487" lon="3.024">
        <ele>95.79</ele>
        <time>2016-02-21T15:38:16Z</time>
      </trkpt>
      <trkpt lat="43.48717" lon="3.02413">
        <ele>94.83</ele>
        <time>2016-02-21T15:38:17Z</time>
      </trkpt>
      <trkpt lat="43.48732" lon="3.02431">
        <ele>93.39</ele>
        <time>2016-02-21T15:38:18Z</time>
      </trkpt>
      <trkpt lat="43.48745" lon="3.0245">
        <ele>92.42</ele>
        <time>2016-02-21T15:38:19Z</time>
      </trkpt>
      <trkpt lat="43.48757" lon="3.0247">
        <ele>91.46</ele>
        <time>2016-02-21T15:38:20Z</time>
      </trkpt>
      <trkpt lat="43.4877" lon="3.02486">
        <ele>90.5</ele>
        <time>2016-02-21T15:38:21Z</time>
      </trkpt>
      <trkpt lat="43.48784" lon="3.02496">
        <ele>89.54</ele>
        <time>2016-02-21T15:38:22Z</time>
      </trkpt>
      <trkpt lat="43.48799" lon="3.02498">
        <ele>88.1</ele>
        <time>2016-02-21T15:38:23Z</time>
      </trkpt>
      <trkpt lat="43.48815" lon="3.02493">
        <ele>86.18</ele>
        <time>2016-02-21T15:38:24Z</time>
      </trkpt>
      <trkpt lat="43.48832" lon="3.02484">
        <ele>84.73</ele>
        <time>2016-02-21T15:38:25Z</time>
      </trkpt>
      <trkpt lat="43.48847" lon="3.02474">
        <ele>83.77</ele>
        <time>2016-02-21T15:38:26Z</time>
      </trkpt>
      <trkpt lat="43.48863" lon="3.02465">
        <ele>82.33</ele>
        <time>2016-02-21T15:38:27Z</time>
      </trkpt>
      <trkpt lat="43.4888" lon="3.02459">
        <ele>80.89</ele>
        <time>2016-02-21T15:38:28Z</time>
      </trkpt>
      <trkpt lat="43.48898" lon="3.0246">
        <ele>79.93</ele>
        <time>2016-02-21T15:38:29Z</time>
      </trkpt>
      <trkpt lat="43.48917" lon="3.02465">
        <ele>78.97</ele>
        <time>2016-02-21T15:38:30Z</time>
      </trkpt>
      <trkpt lat="43.48935" lon="3.02472">
        <ele>78.97</ele>
        <time>2016-02-21T15:38:31Z</time>
      </trkpt>
      <trkpt lat="43.48953" lon="3.02481">
        <ele>78.97</ele>
        <time>2016-02-21T15:38:32Z</time>
      </trkpt>
      <trkpt lat="43.49188" lon="3.02598">
        <ele>84.73</ele>
        <time>2016-02-21T15:38:45Z</time>
      </trkpt>
      <trkpt lat="43.49222" lon="3.02612">
        <ele>84.73</ele>
        <time>2016-02-21T15:38:47Z</time>
      </trkpt>
      <trkpt lat="43.49238" lon="3.02616">
        <ele>84.73</ele>
        <time>2016-02-21T15:38:48Z</time>
      </trkpt>
      <trkpt lat="43.49254" lon="3.02618">
        <ele>84.73</ele>
        <time>2016-02-21T15:38:49Z</time>
      </trkpt>
      <trkpt lat="43.49269" lon="3.02618">
        <ele>84.73</ele>
        <time>2016-02-21T15:38:50Z</time>
      </trkpt>
      <trkpt lat="43.49283" lon="3.02617">
        <ele>85.21</ele>
        <time>2016-02-21T15:38:51Z</time>
      </trkpt>
      <trkpt lat="43.49297" lon="3.02616">
        <ele>85.21</ele>
        <time>2016-02-21T15:38:52Z</time>
      </trkpt>
      <trkpt lat="43.49311" lon="3.02615">
        <ele>85.21</ele>
        <time>2016-02-21T15:38:53Z</time>
      </trkpt>
      <trkpt lat="43.49326" lon="3.02616">
        <ele>85.21</ele>
        <time>2016-02-21T15:38:54Z</time>
      </trkpt>
      <trkpt lat="43.49341" lon="3.02621">
        <ele>85.21</ele>
        <time>2016-02-21T15:38:55Z</time>
      </trkpt>
      <trkpt lat="43.49356" lon="3.02628">
        <ele>85.69</ele>
        <time>2016-02-21T15:38:56Z</time>
      </trkpt>
      <trkpt lat="43.49372" lon="3.02636">
        <ele>85.69</ele>
        <time>2016-02-21T15:38:57Z</time>
      </trkpt>
      <trkpt lat="43.49595" lon="3.02748">
        <ele>86.66</ele>
        <time>2016-02-21T15:39:12Z</time>
      </trkpt>
      <trkpt lat="43.49708" lon="3.0281">
        <ele>85.69</ele>
        <time>2016-02-21T15:39:22Z</time>
      </trkpt>
      <trkpt lat="43.49718" lon="3.0282">
        <ele>85.69</ele>
        <time>2016-02-21T15:39:23Z</time>
      </trkpt>
      <trkpt lat="43.49775" lon="3.02888">
        <ele>85.69</ele>
        <time>2016-02-21T15:39:31Z</time>
      </trkpt>
      <trkpt lat="43.49785" lon="3.02897">
        <ele>86.18</ele>
        <time>2016-02-21T15:39:33Z</time>
      </trkpt>
      <trkpt lat="43.49791" lon="3.029">
        <ele>86.18</ele>
        <time>2016-02-21T15:39:34Z</time>
      </trkpt>
      <trkpt lat="43.49798" lon="3.02901">
        <ele>86.18</ele>
        <time>2016-02-21T15:39:35Z</time>
      </trkpt>
      <trkpt lat="43.49805" lon="3.02901">
        <ele>85.69</ele>
        <time>2016-02-21T15:39:36Z</time>
      </trkpt>
      <trkpt lat="43.49813" lon="3.02899">
        <ele>85.21</ele>
        <time>2016-02-21T15:39:37Z</time>
      </trkpt>
      <trkpt lat="43.49818" lon="3.02897">
        <ele>84.73</ele>
        <time>2016-02-21T15:39:38Z</time>
      </trkpt>
      <trkpt lat="43.49821" lon="3.02894">
        <ele>84.73</ele>
        <time>2016-02-21T15:39:39Z</time>
      </trkpt>
      <trkpt lat="43.49838" lon="3.02883">
        <ele>84.73</ele>
        <time>2016-02-21T15:39:45Z</time>
      </trkpt>
      <trkpt lat="43.4991" lon="3.02844">
        <ele>84.25</ele>
        <time>2016-02-21T15:39:56Z</time>
      </trkpt>
      <trkpt lat="43.50008" lon="3.02792">
        <ele>84.25</ele>
        <time>2016-02-21T15:40:11Z</time>
      </trkpt>
      <trkpt lat="43.50047" lon="3.02773">
        <ele>84.25</ele>
        <time>2016-02-21T15:40:21Z</time>
      </trkpt>
      <trkpt lat="43.50052" lon="3.02766">
        <ele>84.25</ele>
        <time>2016-02-21T15:40:33Z</time>
      </trkpt>
      <trkpt lat="43.50052" lon="3.02764">
        <ele>84.25</ele>
        <time>2016-02-21T15:40:35Z</time>
      </trkpt>
      <trkpt lat="43.50048" lon="3.02714">
        <ele>85.21</ele>
        <time>2016-02-21T15:40:45Z</time>
      </trkpt>
      <trkpt lat="43.50045" lon="3.02699">
        <ele>86.66</ele>
        <time>2016-02-21T15:40:54Z</time>
      </trkpt>
      <trkpt lat="43.50046" lon="3.02685">
        <ele>87.62</ele>
        <time>2016-02-21T15:41:52Z</time>
      </trkpt>
      <trkpt lat="43.50045" lon="3.02651">
        <ele>89.06</ele>
        <time>2016-02-21T15:41:56Z</time>
      </trkpt>
      <trkpt lat="43.50044" lon="3.0264">
        <ele>89.54</ele>
        <time>2016-02-21T15:41:57Z</time>
      </trkpt>
      <trkpt lat="43.50032" lon="3.02499">
        <ele>90.5</ele>
        <time>2016-02-21T15:42:08Z</time>
      </trkpt>
      <trkpt lat="43.50029" lon="3.02484">
        <ele>90.02</ele>
        <time>2016-02-21T15:42:09Z</time>
      </trkpt>
      <trkpt lat="43.50025" lon="3.02469">
        <ele>90.02</ele>
        <time>2016-02-21T15:42:10Z</time>
      </trkpt>
      <trkpt lat="43.5002" lon="3.02453">
        <ele>90.02</ele>
        <time>2016-02-21T15:42:11Z</time>
      </trkpt>
      <trkpt lat="43.50014" lon="3.02439">
        <ele>90.02</ele>
        <time>2016-02-21T15:42:12Z</time>
      </trkpt>
      <trkpt lat="43.50007" lon="3.02424">
        <ele>89.54</ele>
        <time>2016-02-21T15:42:13Z</time>
      </trkpt>
      <trkpt lat="43.49961" lon="3.02318">
        <ele>89.06</ele>
        <time>2016-02-21T15:42:22Z</time>
      </trkpt>
      <trkpt lat="43.49957" lon="3.02304">
        <ele>88.58</ele>
        <time>2016-02-21T15:42:28Z</time>
      </trkpt>
      <trkpt lat="43.49945" lon="3.02229">
        <ele>88.58</ele>
        <time>2016-02-21T15:42:35Z</time>
      </trkpt>
      <trkpt lat="43.49935" lon="3.02067">
        <ele>88.58</ele>
        <time>2016-02-21T15:42:47Z</time>
      </trkpt>
      <trkpt lat="43.49922" lon="3.01865">
        <ele>88.1</ele>
        <time>2016-02-21T15:42:59Z</time>
      </trkpt>
      <trkpt lat="43.49887" lon="3.01709">
        <ele>85.21</ele>
        <time>2016-02-21T15:43:07Z</time>
      </trkpt>
      <trkpt lat="43.49879" lon="3.01667">
        <ele>84.73</ele>
        <time>2016-02-21T15:43:09Z</time>
      </trkpt>
      <trkpt lat="43.49879" lon="3.01641">
        <ele>84.25</ele>
        <time>2016-02-21T15:43:10Z</time>
      </trkpt>
      <trkpt lat="43.49881" lon="3.01616">
        <ele>84.25</ele>
        <time>2016-02-21T15:43:11Z</time>
      </trkpt>
      <trkpt lat="43.49886" lon="3.0159">
        <ele>83.77</ele>
        <time>2016-02-21T15:43:12Z</time>
      </trkpt>
      <trkpt lat="43.49894" lon="3.01564">
        <ele>83.29</ele>
        <time>2016-02-21T15:43:13Z</time>
      </trkpt>
      <trkpt lat="43.49905" lon="3.01539">
        <ele>82.81</ele>
        <time>2016-02-21T15:43:14Z</time>
      </trkpt>
      <trkpt lat="43.49918" lon="3.01514">
        <ele>82.81</ele>
        <time>2016-02-21T15:43:15Z</time>
      </trkpt>
      <trkpt lat="43.49933" lon="3.01489">
        <ele>82.81</ele>
        <time>2016-02-21T15:43:16Z</time>
      </trkpt>
      <trkpt lat="43.50068" lon="3.01265">
        <ele>81.85</ele>
        <time>2016-02-21T15:43:24Z</time>
      </trkpt>
      <trkpt lat="43.50229" lon="3.00988">
        <ele>81.85</ele>
        <time>2016-02-21T15:43:34Z</time>
      </trkpt>
      <trkpt lat="43.50238" lon="3.00958">
        <ele>81.85</ele>
        <time>2016-02-21T15:43:35Z</time>
      </trkpt>
      <trkpt lat="43.50242" lon="3.00925">
        <ele>82.33</ele>
        <time>2016-02-21T15:43:36Z</time>
      </trkpt>
      <trkpt lat="43.50245" lon="3.00892">
        <ele>82.33</ele>
        <time>2016-02-21T15:43:37Z</time>
      </trkpt>
      <trkpt lat="43.50248" lon="3.00857">
        <ele>82.33</ele>
        <time>2016-02-21T15:43:38Z</time>
      </trkpt>
      <trkpt lat="43.50274" lon="3.00488">
        <ele>86.18</ele>
        <time>2016-02-21T15:43:49Z</time>
      </trkpt>
      <trkpt lat="43.50272" lon="3.00455">
        <ele>87.14</ele>
        <time>2016-02-21T15:43:50Z</time>
      </trkpt>
      <trkpt lat="43.50258" lon="3.0033">
        <ele>91.46</ele>
        <time>2016-02-21T15:43:54Z</time>
      </trkpt>
      <trkpt lat="43.50259" lon="3.003">
        <ele>92.42</ele>
        <time>2016-02-21T15:43:55Z</time>
      </trkpt>
      <trkpt lat="43.50262" lon="3.00268">
        <ele>93.87</ele>
        <time>2016-02-21T15:43:56Z</time>
      </trkpt>
      <trkpt lat="43.5029" lon="2.99976">
        <ele>105.4</ele>
        <time>2016-02-21T15:44:05Z</time>
      </trkpt>
      <trkpt lat="43.50291" lon="2.99919">
        <ele>105.88</ele>
        <time>2016-02-21T15:44:07Z</time>
      </trkpt>
      <trkpt lat="43.50295" lon="2.99894">
        <ele>106.36</ele>
        <time>2016-02-21T15:44:08Z</time>
      </trkpt>
      <trkpt lat="43.50304" lon="2.99872">
        <ele>106.36</ele>
        <time>2016-02-21T15:44:09Z</time>
      </trkpt>
      <trkpt lat="43.50315" lon="2.99851">
        <ele>106.36</ele>
        <time>2016-02-21T15:44:10Z</time>
      </trkpt>
      <trkpt lat="43.50328" lon="2.9983">
        <ele>106.36</ele>
        <time>2016-02-21T15:44:11Z</time>
      </trkpt>
      <trkpt lat="43.50343" lon="2.99808">
        <ele>105.88</ele>
        <time>2016-02-21T15:44:12Z</time>
      </trkpt>
      <trkpt lat="43.5046" lon="2.99599">
        <ele>105.88</ele>
        <time>2016-02-21T15:44:21Z</time>
      </trkpt>
      <trkpt lat="43.5049" lon="2.99538">
        <ele>105.4</ele>
        <time>2016-02-21T15:44:24Z</time>
      </trkpt>
      <trkpt lat="43.50496" lon="2.99515">
        <ele>105.4</ele>
        <time>2016-02-21T15:44:25Z</time>
      </trkpt>
      <trkpt lat="43.505" lon="2.9949">
        <ele>105.4</ele>
        <time>2016-02-21T15:44:26Z</time>
      </trkpt>
      <trkpt lat="43.50545" lon="2.99314">
        <ele>105.4</ele>
        <time>2016-02-21T15:44:33Z</time>
      </trkpt>
      <trkpt lat="43.50556" lon="2.99292">
        <ele>105.4</ele>
        <time>2016-02-21T15:44:34Z</time>
      </trkpt>
      <trkpt lat="43.50569" lon="2.9927">
        <ele>105.4</ele>
        <time>2016-02-21T15:44:35Z</time>
      </trkpt>
      <trkpt lat="43.50712" lon="2.99078">
        <ele>104.92</ele>
        <time>2016-02-21T15:44:44Z</time>
      </trkpt>
      <trkpt lat="43.50814" lon="2.98929">
        <ele>104.92</ele>
        <time>2016-02-21T15:44:51Z</time>
      </trkpt>
      <trkpt lat="43.50829" lon="2.98916">
        <ele>104.92</ele>
        <time>2016-02-21T15:44:52Z</time>
      </trkpt>
      <trkpt lat="43.50846" lon="2.98906">
        <ele>105.4</ele>
        <time>2016-02-21T15:44:53Z</time>
      </trkpt>
      <trkpt lat="43.50952" lon="2.9885">
        <ele>110.21</ele>
        <time>2016-02-21T15:44:59Z</time>
      </trkpt>
      <trkpt lat="43.50969" lon="2.9885">
        <ele>111.17</ele>
        <time>2016-02-21T15:45:00Z</time>
      </trkpt>
      <trkpt lat="43.50987" lon="2.98855">
        <ele>112.61</ele>
        <time>2016-02-21T15:45:01Z</time>
      </trkpt>
      <trkpt lat="43.51004" lon="2.98866">
        <ele>113.57</ele>
        <time>2016-02-21T15:45:02Z</time>
      </trkpt>
      <trkpt lat="43.51022" lon="2.98879">
        <ele>114.53</ele>
        <time>2016-02-21T15:45:03Z</time>
      </trkpt>
      <trkpt lat="43.51039" lon="2.98895">
        <ele>115.5</ele>
        <time>2016-02-21T15:45:04Z</time>
      </trkpt>
      <trkpt lat="43.51056" lon="2.98911">
        <ele>116.46</ele>
        <time>2016-02-21T15:45:05Z</time>
      </trkpt>
      <trkpt lat="43.5114" lon="2.99037">
        <ele>122.22</ele>
        <time>2016-02-21T15:45:11Z</time>
      </trkpt>
      <trkpt lat="43.51205" lon="2.99127">
        <ele>124.15</ele>
        <time>2016-02-21T15:45:16Z</time>
      </trkpt>
      <trkpt lat="43.51221" lon="2.99138">
        <ele>124.15</ele>
        <time>2016-02-21T15:45:17Z</time>
      </trkpt>
      <trkpt lat="43.51237" lon="2.9915">
        <ele>124.15</ele>
        <time>2016-02-21T15:45:18Z</time>
      </trkpt>
      <trkpt lat="43.51252" lon="2.99159">
        <ele>124.15</ele>
        <time>2016-02-21T15:45:19Z</time>
      </trkpt>
      <trkpt lat="43.51266" lon="2.99168">
        <ele>123.67</ele>
        <time>2016-02-21T15:45:20Z</time>
      </trkpt>
      <trkpt lat="43.51279" lon="2.99178">
        <ele>123.67</ele>
        <time>2016-02-21T15:45:21Z</time>
      </trkpt>
      <trkpt lat="43.51292" lon="2.99192">
        <ele>123.19</ele>
        <time>2016-02-21T15:45:22Z</time>
      </trkpt>
      <trkpt lat="43.51303" lon="2.99209">
        <ele>123.19</ele>
        <time>2016-02-21T15:45:23Z</time>
      </trkpt>
      <trkpt lat="43.51314" lon="2.99226">
        <ele>122.71</ele>
        <time>2016-02-21T15:45:24Z</time>
      </trkpt>
      <trkpt lat="43.51336" lon="2.99253">
        <ele>121.74</ele>
        <time>2016-02-21T15:45:26Z</time>
      </trkpt>
      <trkpt lat="43.51348" lon="2.99259">
        <ele>121.26</ele>
        <time>2016-02-21T15:45:27Z</time>
      </trkpt>
      <trkpt lat="43.51363" lon="2.99264">
        <ele>120.78</ele>
        <time>2016-02-21T15:45:28Z</time>
      </trkpt>
      <trkpt lat="43.51376" lon="2.9927">
        <ele>120.78</ele>
        <time>2016-02-21T15:45:29Z</time>
      </trkpt>
      <trkpt lat="43.5139" lon="2.99278">
        <ele>120.78</ele>
        <time>2016-02-21T15:45:30Z</time>
      </trkpt>
      <trkpt lat="43.51415" lon="2.99292">
        <ele>120.3</ele>
        <time>2016-02-21T15:45:32Z</time>
      </trkpt>
      <trkpt lat="43.51452" lon="2.99304">
        <ele>119.82</ele>
        <time>2016-02-21T15:45:35Z</time>
      </trkpt>
      <trkpt lat="43.51465" lon="2.99304">
        <ele>119.82</ele>
        <time>2016-02-21T15:45:36Z</time>
      </trkpt>
      <trkpt lat="43.51477" lon="2.99303">
        <ele>119.82</ele>
        <time>2016-02-21T15:45:37Z</time>
      </trkpt>
      <trkpt lat="43.51489" lon="2.99306">
        <ele>119.34</ele>
        <time>2016-02-21T15:45:38Z</time>
      </trkpt>
      <trkpt lat="43.51501" lon="2.99314">
        <ele>119.34</ele>
        <time>2016-02-21T15:45:39Z</time>
      </trkpt>
      <trkpt lat="43.51514" lon="2.99326">
        <ele>119.34</ele>
        <time>2016-02-21T15:45:40Z</time>
      </trkpt>
      <trkpt lat="43.51528" lon="2.99339">
        <ele>118.86</ele>
        <time>2016-02-21T15:45:41Z</time>
      </trkpt>
      <trkpt lat="43.51608" lon="2.99415">
        <ele>117.9</ele>
        <time>2016-02-21T15:45:47Z</time>
      </trkpt>
      <trkpt lat="43.51622" lon="2.99418">
        <ele>117.9</ele>
        <time>2016-02-21T15:45:48Z</time>
      </trkpt>
      <trkpt lat="43.51636" lon="2.99421">
        <ele>117.42</ele>
        <time>2016-02-21T15:45:49Z</time>
      </trkpt>
      <trkpt lat="43.51651" lon="2.99426">
        <ele>117.42</ele>
        <time>2016-02-21T15:45:50Z</time>
      </trkpt>
      <trkpt lat="43.51665" lon="2.99437">
        <ele>117.9</ele>
        <time>2016-02-21T15:45:51Z</time>
      </trkpt>
      <trkpt lat="43.51676" lon="2.99453">
        <ele>117.42</ele>
        <time>2016-02-21T15:45:52Z</time>
      </trkpt>
      <trkpt lat="43.51686" lon="2.99471">
        <ele>117.42</ele>
        <time>2016-02-21T15:45:53Z</time>
      </trkpt>
      <trkpt lat="43.51693" lon="2.99491">
        <ele>117.9</ele>
        <time>2016-02-21T15:45:54Z</time>
      </trkpt>
      <trkpt lat="43.51697" lon="2.99512">
        <ele>117.9</ele>
        <time>2016-02-21T15:45:55Z</time>
      </trkpt>
      <trkpt lat="43.51699" lon="2.99532">
        <ele>117.9</ele>
        <time>2016-02-21T15:45:56Z</time>
      </trkpt>
      <trkpt lat="43.51703" lon="2.99549">
        <ele>117.9</ele>
        <time>2016-02-21T15:45:57Z</time>
      </trkpt>
      <trkpt lat="43.51711" lon="2.9956">
        <ele>117.9</ele>
        <time>2016-02-21T15:45:58Z</time>
      </trkpt>
      <trkpt lat="43.51723" lon="2.99565">
        <ele>118.38</ele>
        <time>2016-02-21T15:45:59Z</time>
      </trkpt>
      <trkpt lat="43.51738" lon="2.99568">
        <ele>118.38</ele>
        <time>2016-02-21T15:46:00Z</time>
      </trkpt>
      <trkpt lat="43.51754" lon="2.9957">
        <ele>118.38</ele>
        <time>2016-02-21T15:46:01Z</time>
      </trkpt>
      <trkpt lat="43.51769" lon="2.99569">
        <ele>118.38</ele>
        <time>2016-02-21T15:46:02Z</time>
      </trkpt>
      <trkpt lat="43.51783" lon="2.99562">
        <ele>118.38</ele>
        <time>2016-02-21T15:46:03Z</time>
      </trkpt>
      <trkpt lat="43.51794" lon="2.99552">
        <ele>118.38</ele>
        <time>2016-02-21T15:46:04Z</time>
      </trkpt>
      <trkpt lat="43.51802" lon="2.99539">
        <ele>117.9</ele>
        <time>2016-02-21T15:46:05Z</time>
      </trkpt>
      <trkpt lat="43.51807" lon="2.99523">
        <ele>117.42</ele>
        <time>2016-02-21T15:46:06Z</time>
      </trkpt>
      <trkpt lat="43.51811" lon="2.99505">
        <ele>117.42</ele>
        <time>2016-02-21T15:46:07Z</time>
      </trkpt>
      <trkpt lat="43.51816" lon="2.99486">
        <ele>117.42</ele>
        <time>2016-02-21T15:46:08Z</time>
      </trkpt>
      <trkpt lat="43.51825" lon="2.9947">
        <ele>117.42</ele>
        <time>2016-02-21T15:46:09Z</time>
      </trkpt>
      <trkpt lat="43.51837" lon="2.99457">
        <ele>117.42</ele>
        <time>2016-02-21T15:46:10Z</time>
      </trkpt>
      <trkpt lat="43.51852" lon="2.99445">
        <ele>117.42</ele>
        <time>2016-02-21T15:46:11Z</time>
      </trkpt>
      <trkpt lat="43.51868" lon="2.99438">
        <ele>117.42</ele>
        <time>2016-02-21T15:46:12Z</time>
      </trkpt>
      <trkpt lat="43.51886" lon="2.99437">
        <ele>117.42</ele>
        <time>2016-02-21T15:46:13Z</time>
      </trkpt>
      <trkpt lat="43.51904" lon="2.9944">
        <ele>117.42</ele>
        <time>2016-02-21T15:46:14Z</time>
      </trkpt>
      <trkpt lat="43.51923" lon="2.99445">
        <ele>117.42</ele>
        <time>2016-02-21T15:46:15Z</time>
      </trkpt>
      <trkpt lat="43.51942" lon="2.99451">
        <ele>117.42</ele>
        <time>2016-02-21T15:46:16Z</time>
      </trkpt>
      <trkpt lat="43.52079" lon="2.99512">
        <ele>116.94</ele>
        <time>2016-02-21T15:46:23Z</time>
      </trkpt>
      <trkpt lat="43.52096" lon="2.99527">
        <ele>116.94</ele>
        <time>2016-02-21T15:46:24Z</time>
      </trkpt>
      <trkpt lat="43.52112" lon="2.99545">
        <ele>116.94</ele>
        <time>2016-02-21T15:46:25Z</time>
      </trkpt>
      <trkpt lat="43.52127" lon="2.99564">
        <ele>116.46</ele>
        <time>2016-02-21T15:46:26Z</time>
      </trkpt>
      <trkpt lat="43.5214" lon="2.99586">
        <ele>116.46</ele>
        <time>2016-02-21T15:46:27Z</time>
      </trkpt>
      <trkpt lat="43.52153" lon="2.99608">
        <ele>115.98</ele>
        <time>2016-02-21T15:46:28Z</time>
      </trkpt>
      <trkpt lat="43.522" lon="2.9968">
        <ele>115.01</ele>
        <time>2016-02-21T15:46:32Z</time>
      </trkpt>
      <trkpt lat="43.52207" lon="2.99703">
        <ele>115.01</ele>
        <time>2016-02-21T15:46:33Z</time>
      </trkpt>
      <trkpt lat="43.52211" lon="2.99727">
        <ele>114.53</ele>
        <time>2016-02-21T15:46:34Z</time>
      </trkpt>
      <trkpt lat="43.52214" lon="2.99752">
        <ele>114.53</ele>
        <time>2016-02-21T15:46:35Z</time>
      </trkpt>
      <trkpt lat="43.52215" lon="2.99777">
        <ele>114.53</ele>
        <time>2016-02-21T15:46:36Z</time>
      </trkpt>
      <trkpt lat="43.52215" lon="2.99801">
        <ele>114.53</ele>
        <time>2016-02-21T15:46:37Z</time>
      </trkpt>
      <trkpt lat="43.52215" lon="2.99824">
        <ele>114.05</ele>
        <time>2016-02-21T15:46:38Z</time>
      </trkpt>
      <trkpt lat="43.52216" lon="2.99845">
        <ele>113.57</ele>
        <time>2016-02-21T15:46:39Z</time>
      </trkpt>
      <trkpt lat="43.52219" lon="2.99865">
        <ele>113.57</ele>
        <time>2016-02-21T15:46:40Z</time>
      </trkpt>
      <trkpt lat="43.52226" lon="2.99883">
        <ele>113.57</ele>
        <time>2016-02-21T15:46:41Z</time>
      </trkpt>
      <trkpt lat="43.52235" lon="2.99898">
        <ele>113.09</ele>
        <time>2016-02-21T15:46:42Z</time>
      </trkpt>
      <trkpt lat="43.52247" lon="2.99909">
        <ele>113.09</ele>
        <time>2016-02-21T15:46:43Z</time>
      </trkpt>
      <trkpt lat="43.52261" lon="2.99921">
        <ele>112.61</ele>
        <time>2016-02-21T15:46:44Z</time>
      </trkpt>
      <trkpt lat="43.52273" lon="2.99935">
        <ele>112.61</ele>
        <time>2016-02-21T15:46:45Z</time>
      </trkpt>
      <trkpt lat="43.52283" lon="2.99951">
        <ele>112.13</ele>
        <time>2016-02-21T15:46:46Z</time>
      </trkpt>
      <trkpt lat="43.52289" lon="2.99971">
        <ele>112.13</ele>
        <time>2016-02-21T15:46:47Z</time>
      </trkpt>
      <trkpt lat="43.52295" lon="2.99989">
        <ele>112.13</ele>
        <time>2016-02-21T15:46:48Z</time>
      </trkpt>
      <trkpt lat="43.52303" lon="3.00004">
        <ele>112.61</ele>
        <time>2016-02-21T15:46:49Z</time>
      </trkpt>
      <trkpt lat="43.52313" lon="3.00013">
        <ele>112.61</ele>
        <time>2016-02-21T15:46:50Z</time>
      </trkpt>
      <trkpt lat="43.52327" lon="3.00017">
        <ele>113.09</ele>
        <time>2016-02-21T15:46:51Z</time>
      </trkpt>
      <trkpt lat="43.52344" lon="3.00015">
        <ele>113.57</ele>
        <time>2016-02-21T15:46:52Z</time>
      </trkpt>
      <trkpt lat="43.52361" lon="3.00012">
        <ele>114.05</ele>
        <time>2016-02-21T15:46:53Z</time>
      </trkpt>
      <trkpt lat="43.5238" lon="3.0001">
        <ele>114.05</ele>
        <time>2016-02-21T15:46:54Z</time>
      </trkpt>
      <trkpt lat="43.52541" lon="3.00009">
        <ele>118.86</ele>
        <time>2016-02-21T15:47:03Z</time>
      </trkpt>
      <trkpt lat="43.52556" lon="3.00011">
        <ele>119.82</ele>
        <time>2016-02-21T15:47:04Z</time>
      </trkpt>
      <trkpt lat="43.52568" lon="3.00008">
        <ele>120.3</ele>
        <time>2016-02-21T15:47:05Z</time>
      </trkpt>
      <trkpt lat="43.5258" lon="2.99994">
        <ele>121.74</ele>
        <time>2016-02-21T15:47:06Z</time>
      </trkpt>
      <trkpt lat="43.52592" lon="2.99979">
        <ele>122.22</ele>
        <time>2016-02-21T15:47:07Z</time>
      </trkpt>
      <trkpt lat="43.52604" lon="2.9996">
        <ele>122.71</ele>
        <time>2016-02-21T15:47:08Z</time>
      </trkpt>
      <trkpt lat="43.52663" lon="2.9986">
        <ele>126.07</ele>
        <time>2016-02-21T15:47:14Z</time>
      </trkpt>
      <trkpt lat="43.52674" lon="2.99848">
        <ele>126.07</ele>
        <time>2016-02-21T15:47:15Z</time>
      </trkpt>
      <trkpt lat="43.52688" lon="2.99838">
        <ele>126.55</ele>
        <time>2016-02-21T15:47:16Z</time>
      </trkpt>
      <trkpt lat="43.52703" lon="2.99827">
        <ele>127.03</ele>
        <time>2016-02-21T15:47:17Z</time>
      </trkpt>
      <trkpt lat="43.52716" lon="2.99813">
        <ele>127.51</ele>
        <time>2016-02-21T15:47:18Z</time>
      </trkpt>
      <trkpt lat="43.52727" lon="2.99797">
        <ele>128.47</ele>
        <time>2016-02-21T15:47:19Z</time>
      </trkpt>
      <trkpt lat="43.52737" lon="2.9978">
        <ele>128.47</ele>
        <time>2016-02-21T15:47:20Z</time>
      </trkpt>
      <trkpt lat="43.52745" lon="2.9976">
        <ele>128.95</ele>
        <time>2016-02-21T15:47:21Z</time>
      </trkpt>
      <trkpt lat="43.5275" lon="2.99739">
        <ele>129.43</ele>
        <time>2016-02-21T15:47:22Z</time>
      </trkpt>
      <trkpt lat="43.52753" lon="2.99718">
        <ele>129.43</ele>
        <time>2016-02-21T15:47:23Z</time>
      </trkpt>
      <trkpt lat="43.52755" lon="2.99697">
        <ele>130.4</ele>
        <time>2016-02-21T15:47:24Z</time>
      </trkpt>
      <trkpt lat="43.52768" lon="2.99618">
        <ele>132.32</ele>
        <time>2016-02-21T15:47:28Z</time>
      </trkpt>
      <trkpt lat="43.52766" lon="2.99599">
        <ele>132.8</ele>
        <time>2016-02-21T15:47:29Z</time>
      </trkpt>
      <trkpt lat="43.52761" lon="2.99579">
        <ele>133.76</ele>
        <time>2016-02-21T15:47:30Z</time>
      </trkpt>
      <trkpt lat="43.52759" lon="2.99558">
        <ele>134.24</ele>
        <time>2016-02-21T15:47:31Z</time>
      </trkpt>
      <trkpt lat="43.52758" lon="2.99536">
        <ele>135.2</ele>
        <time>2016-02-21T15:47:32Z</time>
      </trkpt>
      <trkpt lat="43.5276" lon="2.99514">
        <ele>135.68</ele>
        <time>2016-02-21T15:47:33Z</time>
      </trkpt>
      <trkpt lat="43.52764" lon="2.99493">
        <ele>136.64</ele>
        <time>2016-02-21T15:47:34Z</time>
      </trkpt>
      <trkpt lat="43.52771" lon="2.99473">
        <ele>137.13</ele>
        <time>2016-02-21T15:47:35Z</time>
      </trkpt>
      <trkpt lat="43.5278" lon="2.99452">
        <ele>137.61</ele>
        <time>2016-02-21T15:47:36Z</time>
      </trkpt>
      <trkpt lat="43.52789" lon="2.99431">
        <ele>138.09</ele>
        <time>2016-02-21T15:47:37Z</time>
      </trkpt>
      <trkpt lat="43.52809" lon="2.99395">
        <ele>138.57</ele>
        <time>2016-02-21T15:47:39Z</time>
      </trkpt>
      <trkpt lat="43.52822" lon="2.9938">
        <ele>139.05</ele>
        <time>2016-02-21T15:47:40Z</time>
      </trkpt>
      <trkpt lat="43.52835" lon="2.99366">
        <ele>139.05</ele>
        <time>2016-02-21T15:47:41Z</time>
      </trkpt>
      <trkpt lat="43.52849" lon="2.99353">
        <ele>139.53</ele>
        <time>2016-02-21T15:47:42Z</time>
      </trkpt>
      <trkpt lat="43.52864" lon="2.99341">
        <ele>140.49</ele>
        <time>2016-02-21T15:47:43Z</time>
      </trkpt>
      <trkpt lat="43.52892" lon="2.99323">
        <ele>140.97</ele>
        <time>2016-02-21T15:47:45Z</time>
      </trkpt>
      <trkpt lat="43.52908" lon="2.99324">
        <ele>141.45</ele>
        <time>2016-02-21T15:47:46Z</time>
      </trkpt>
      <trkpt lat="43.52925" lon="2.99325">
        <ele>141.93</ele>
        <time>2016-02-21T15:47:47Z</time>
      </trkpt>
      <trkpt lat="43.52957" lon="2.99328">
        <ele>142.89</ele>
        <time>2016-02-21T15:47:49Z</time>
      </trkpt>
      <trkpt lat="43.52974" lon="2.99325">
        <ele>143.37</ele>
        <time>2016-02-21T15:47:50Z</time>
      </trkpt>
      <trkpt lat="43.52991" lon="2.99319">
        <ele>144.34</ele>
        <time>2016-02-21T15:47:51Z</time>
      </trkpt>
      <trkpt lat="43.53006" lon="2.99311">
        <ele>144.34</ele>
        <time>2016-02-21T15:47:52Z</time>
      </trkpt>
      <trkpt lat="43.53021" lon="2.99303">
        <ele>144.34</ele>
        <time>2016-02-21T15:47:53Z</time>
      </trkpt>
      <trkpt lat="43.53048" lon="2.99292">
        <ele>143.85</ele>
        <time>2016-02-21T15:47:55Z</time>
      </trkpt>
      <trkpt lat="43.5306" lon="2.99292">
        <ele>144.34</ele>
        <time>2016-02-21T15:47:56Z</time>
      </trkpt>
      <trkpt lat="43.53069" lon="2.99299">
        <ele>143.85</ele>
        <time>2016-02-21T15:47:57Z</time>
      </trkpt>
      <trkpt lat="43.53077" lon="2.99311">
        <ele>143.85</ele>
        <time>2016-02-21T15:47:58Z</time>
      </trkpt>
      <trkpt lat="43.53083" lon="2.99325">
        <ele>144.34</ele>
        <time>2016-02-21T15:47:59Z</time>
      </trkpt>
      <trkpt lat="43.53087" lon="2.99341">
        <ele>144.34</ele>
        <time>2016-02-21T15:48:00Z</time>
      </trkpt>
      <trkpt lat="43.53091" lon="2.99355">
        <ele>144.34</ele>
        <time>2016-02-21T15:48:01Z</time>
      </trkpt>
      <trkpt lat="43.53099" lon="2.99377">
        <ele>144.34</ele>
        <time>2016-02-21T15:48:03Z</time>
      </trkpt>
      <trkpt lat="43.53104" lon="2.9938">
        <ele>144.34</ele>
        <time>2016-02-21T15:48:04Z</time>
      </trkpt>
      <trkpt lat="43.53111" lon="2.99379">
        <ele>144.34</ele>
        <time>2016-02-21T15:48:05Z</time>
      </trkpt>
      <trkpt lat="43.5312" lon="2.99374">
        <ele>144.34</ele>
        <time>2016-02-21T15:48:06Z</time>
      </trkpt>
      <trkpt lat="43.5313" lon="2.99368">
        <ele>144.34</ele>
        <time>2016-02-21T15:48:07Z</time>
      </trkpt>
      <trkpt lat="43.53141" lon="2.99361">
        <ele>143.85</ele>
        <time>2016-02-21T15:48:08Z</time>
      </trkpt>
      <trkpt lat="43.53176" lon="2.99346">
        <ele>143.85</ele>
        <time>2016-02-21T15:48:11Z</time>
      </trkpt>
      <trkpt lat="43.53188" lon="2.99346">
        <ele>143.85</ele>
        <time>2016-02-21T15:48:12Z</time>
      </trkpt>
      <trkpt lat="43.53199" lon="2.99349">
        <ele>143.85</ele>
        <time>2016-02-21T15:48:13Z</time>
      </trkpt>
      <trkpt lat="43.53225" lon="2.99358">
        <ele>142.89</ele>
        <time>2016-02-21T15:48:15Z</time>
      </trkpt>
      <trkpt lat="43.5324" lon="2.99359">
        <ele>141.93</ele>
        <time>2016-02-21T15:48:16Z</time>
      </trkpt>
      <trkpt lat="43.53256" lon="2.99357">
        <ele>141.45</ele>
        <time>2016-02-21T15:48:17Z</time>
      </trkpt>
      <trkpt lat="43.53271" lon="2.9935">
        <ele>140.49</ele>
        <time>2016-02-21T15:48:18Z</time>
      </trkpt>
      <trkpt lat="43.53284" lon="2.9934">
        <ele>139.05</ele>
        <time>2016-02-21T15:48:19Z</time>
      </trkpt>
      <trkpt lat="43.53297" lon="2.99325">
        <ele>137.61</ele>
        <time>2016-02-21T15:48:20Z</time>
      </trkpt>
      <trkpt lat="43.53308" lon="2.99306">
        <ele>136.64</ele>
        <time>2016-02-21T15:48:21Z</time>
      </trkpt>
      <trkpt lat="43.5332" lon="2.99286">
        <ele>135.2</ele>
        <time>2016-02-21T15:48:22Z</time>
      </trkpt>
      <trkpt lat="43.53331" lon="2.99266">
        <ele>134.24</ele>
        <time>2016-02-21T15:48:23Z</time>
      </trkpt>
      <trkpt lat="43.53362" lon="2.992">
        <ele>131.36</ele>
        <time>2016-02-21T15:48:26Z</time>
      </trkpt>
      <trkpt lat="43.5337" lon="2.99174">
        <ele>129.92</ele>
        <time>2016-02-21T15:48:27Z</time>
      </trkpt>
      <trkpt lat="43.53424" lon="2.98973">
        <ele>121.74</ele>
        <time>2016-02-21T15:48:35Z</time>
      </trkpt>
      <trkpt lat="43.53428" lon="2.98948">
        <ele>120.78</ele>
        <time>2016-02-21T15:48:36Z</time>
      </trkpt>
      <trkpt lat="43.53446" lon="2.988">
        <ele>116.46</ele>
        <time>2016-02-21T15:48:42Z</time>
      </trkpt>
      <trkpt lat="43.53445" lon="2.98779">
        <ele>115.5</ele>
        <time>2016-02-21T15:48:43Z</time>
      </trkpt>
      <trkpt lat="43.53441" lon="2.98757">
        <ele>115.01</ele>
        <time>2016-02-21T15:48:44Z</time>
      </trkpt>
      <trkpt lat="43.53438" lon="2.98736">
        <ele>114.05</ele>
        <time>2016-02-21T15:48:45Z</time>
      </trkpt>
      <trkpt lat="43.53437" lon="2.98714">
        <ele>113.09</ele>
        <time>2016-02-21T15:48:46Z</time>
      </trkpt>
      <trkpt lat="43.53438" lon="2.98691">
        <ele>112.13</ele>
        <time>2016-02-21T15:48:47Z</time>
      </trkpt>
      <trkpt lat="43.53443" lon="2.98668">
        <ele>111.65</ele>
        <time>2016-02-21T15:48:48Z</time>
      </trkpt>
      <trkpt lat="43.5345" lon="2.98647">
        <ele>110.69</ele>
        <time>2016-02-21T15:48:49Z</time>
      </trkpt>
      <trkpt lat="43.53458" lon="2.98627">
        <ele>110.21</ele>
        <time>2016-02-21T15:48:50Z</time>
      </trkpt>
      <trkpt lat="43.53468" lon="2.98609">
        <ele>109.25</ele>
        <time>2016-02-21T15:48:51Z</time>
      </trkpt>
      <trkpt lat="43.53479" lon="2.98593">
        <ele>108.29</ele>
        <time>2016-02-21T15:48:52Z</time>
      </trkpt>
      <trkpt lat="43.53491" lon="2.98577">
        <ele>107.32</ele>
        <time>2016-02-21T15:48:53Z</time>
      </trkpt>
      <trkpt lat="43.53504" lon="2.98563">
        <ele>106.36</ele>
        <time>2016-02-21T15:48:54Z</time>
      </trkpt>
      <trkpt lat="43.53557" lon="2.9851">
        <ele>103</ele>
        <time>2016-02-21T15:48:58Z</time>
      </trkpt>
      <trkpt lat="43.53571" lon="2.98501">
        <ele>102.04</ele>
        <time>2016-02-21T15:48:59Z</time>
      </trkpt>
      <trkpt lat="43.53586" lon="2.98494">
        <ele>101.56</ele>
        <time>2016-02-21T15:49:00Z</time>
      </trkpt>
      <trkpt lat="43.53614" lon="2.98477">
        <ele>100.6</ele>
        <time>2016-02-21T15:49:02Z</time>
      </trkpt>
      <trkpt lat="43.53626" lon="2.98465">
        <ele>99.63</ele>
        <time>2016-02-21T15:49:03Z</time>
      </trkpt>
      <trkpt lat="43.53639" lon="2.98451">
        <ele>99.63</ele>
        <time>2016-02-21T15:49:04Z</time>
      </trkpt>
      <trkpt lat="43.5376" lon="2.983">
        <ele>99.63</ele>
        <time>2016-02-21T15:49:13Z</time>
      </trkpt>
      <trkpt lat="43.53845" lon="2.98153">
        <ele>99.63</ele>
        <time>2016-02-21T15:49:21Z</time>
      </trkpt>
      <trkpt lat="43.53851" lon="2.98134">
        <ele>99.63</ele>
        <time>2016-02-21T15:49:22Z</time>
      </trkpt>
      <trkpt lat="43.53856" lon="2.98115">
        <ele>99.15</ele>
        <time>2016-02-21T15:49:23Z</time>
      </trkpt>
      <trkpt lat="43.53859" lon="2.98094">
        <ele>99.63</ele>
        <time>2016-02-21T15:49:24Z</time>
      </trkpt>
      <trkpt lat="43.53892" lon="2.97966">
        <ele>100.6</ele>
        <time>2016-02-21T15:49:32Z</time>
      </trkpt>
      <trkpt lat="43.53905" lon="2.97921">
        <ele>101.08</ele>
        <time>2016-02-21T15:49:38Z</time>
      </trkpt>
      <trkpt lat="43.53906" lon="2.97908">
        <ele>101.08</ele>
        <time>2016-02-21T15:49:39Z</time>
      </trkpt>
      <trkpt lat="43.53906" lon="2.97895">
        <ele>101.56</ele>
        <time>2016-02-21T15:49:40Z</time>
      </trkpt>
      <trkpt lat="43.53893" lon="2.9773">
        <ele>105.4</ele>
        <time>2016-02-21T15:49:51Z</time>
      </trkpt>
      <trkpt lat="43.53886" lon="2.97625">
        <ele>107.81</ele>
        <time>2016-02-21T15:49:59Z</time>
      </trkpt>
      <trkpt lat="43.5388" lon="2.97563">
        <ele>109.25</ele>
        <time>2016-02-21T15:50:03Z</time>
      </trkpt>
      <trkpt lat="43.53876" lon="2.97549">
        <ele>109.25</ele>
        <time>2016-02-21T15:50:04Z</time>
      </trkpt>
      <trkpt lat="43.53872" lon="2.97535">
        <ele>109.73</ele>
        <time>2016-02-21T15:50:05Z</time>
      </trkpt>
      <trkpt lat="43.53866" lon="2.97523">
        <ele>110.21</ele>
        <time>2016-02-21T15:50:06Z</time>
      </trkpt>
      <trkpt lat="43.53861" lon="2.97513">
        <ele>110.21</ele>
        <time>2016-02-21T15:50:07Z</time>
      </trkpt>
      <trkpt lat="43.53804" lon="2.97412">
        <ele>112.61</ele>
        <time>2016-02-21T15:50:16Z</time>
      </trkpt>
      <trkpt lat="43.53802" lon="2.97399">
        <ele>112.61</ele>
        <time>2016-02-21T15:50:17Z</time>
      </trkpt>
      <trkpt lat="43.53802" lon="2.97384">
        <ele>113.09</ele>
        <time>2016-02-21T15:50:18Z</time>
      </trkpt>
      <trkpt lat="43.53807" lon="2.97334">
        <ele>113.57</ele>
        <time>2016-02-21T15:50:21Z</time>
      </trkpt>
      <trkpt lat="43.53806" lon="2.97317">
        <ele>113.57</ele>
        <time>2016-02-21T15:50:22Z</time>
      </trkpt>
      <trkpt lat="43.53804" lon="2.973">
        <ele>114.05</ele>
        <time>2016-02-21T15:50:23Z</time>
      </trkpt>
      <trkpt lat="43.53796" lon="2.97251">
        <ele>114.53</ele>
        <time>2016-02-21T15:50:26Z</time>
      </trkpt>
      <trkpt lat="43.53795" lon="2.97234">
        <ele>115.01</ele>
        <time>2016-02-21T15:50:27Z</time>
      </trkpt>
      <trkpt lat="43.538" lon="2.97137">
        <ele>115.98</ele>
        <time>2016-02-21T15:50:32Z</time>
      </trkpt>
      <trkpt lat="43.53804" lon="2.97116">
        <ele>115.98</ele>
        <time>2016-02-21T15:50:33Z</time>
      </trkpt>
      <trkpt lat="43.53835" lon="2.96995">
        <ele>116.46</ele>
        <time>2016-02-21T15:50:39Z</time>
      </trkpt>
      <trkpt lat="43.53843" lon="2.96977">
        <ele>116.94</ele>
        <time>2016-02-21T15:50:40Z</time>
      </trkpt>
      <trkpt lat="43.53852" lon="2.9696">
        <ele>116.94</ele>
        <time>2016-02-21T15:50:41Z</time>
      </trkpt>
      <trkpt lat="43.53888" lon="2.96908">
        <ele>117.42</ele>
        <time>2016-02-21T15:50:45Z</time>
      </trkpt>
      <trkpt lat="43.53898" lon="2.96897">
        <ele>116.94</ele>
        <time>2016-02-21T15:50:46Z</time>
      </trkpt>
      <trkpt lat="43.53909" lon="2.96888">
        <ele>117.42</ele>
        <time>2016-02-21T15:50:47Z</time>
      </trkpt>
      <trkpt lat="43.53921" lon="2.9688">
        <ele>116.94</ele>
        <time>2016-02-21T15:50:48Z</time>
      </trkpt>
      <trkpt lat="43.53935" lon="2.96874">
        <ele>116.94</ele>
        <time>2016-02-21T15:50:49Z</time>
      </trkpt>
      <trkpt lat="43.53949" lon="2.96872">
        <ele>116.94</ele>
        <time>2016-02-21T15:50:50Z</time>
      </trkpt>
      <trkpt lat="43.53963" lon="2.96872">
        <ele>117.42</ele>
        <time>2016-02-21T15:50:51Z</time>
      </trkpt>
      <trkpt lat="43.53977" lon="2.96875">
        <ele>117.42</ele>
        <time>2016-02-21T15:50:52Z</time>
      </trkpt>
      <trkpt lat="43.5399" lon="2.96879">
        <ele>117.42</ele>
        <time>2016-02-21T15:50:53Z</time>
      </trkpt>
      <trkpt lat="43.54003" lon="2.96885">
        <ele>117.9</ele>
        <time>2016-02-21T15:50:54Z</time>
      </trkpt>
      <trkpt lat="43.54016" lon="2.96893">
        <ele>117.9</ele>
        <time>2016-02-21T15:50:55Z</time>
      </trkpt>
      <trkpt lat="43.54027" lon="2.96903">
        <ele>117.9</ele>
        <time>2016-02-21T15:50:56Z</time>
      </trkpt>
      <trkpt lat="43.54037" lon="2.96917">
        <ele>117.9</ele>
        <time>2016-02-21T15:50:57Z</time>
      </trkpt>
      <trkpt lat="43.54047" lon="2.96933">
        <ele>117.9</ele>
        <time>2016-02-21T15:50:58Z</time>
      </trkpt>
      <trkpt lat="43.54056" lon="2.9695">
        <ele>117.9</ele>
        <time>2016-02-21T15:50:59Z</time>
      </trkpt>
      <trkpt lat="43.54116" lon="2.97073">
        <ele>117.42</ele>
        <time>2016-02-21T15:51:06Z</time>
      </trkpt>
      <trkpt lat="43.54122" lon="2.97094">
        <ele>117.9</ele>
        <time>2016-02-21T15:51:07Z</time>
      </trkpt>
      <trkpt lat="43.54144" lon="2.97274">
        <ele>118.86</ele>
        <time>2016-02-21T15:51:15Z</time>
      </trkpt>
      <trkpt lat="43.5415" lon="2.97317">
        <ele>118.86</ele>
        <time>2016-02-21T15:51:17Z</time>
      </trkpt>
      <trkpt lat="43.54156" lon="2.97338">
        <ele>118.86</ele>
        <time>2016-02-21T15:51:18Z</time>
      </trkpt>
      <trkpt lat="43.54191" lon="2.9745">
        <ele>120.3</ele>
        <time>2016-02-21T15:51:24Z</time>
      </trkpt>
      <trkpt lat="43.54195" lon="2.97469">
        <ele>120.3</ele>
        <time>2016-02-21T15:51:25Z</time>
      </trkpt>
      <trkpt lat="43.54201" lon="2.97524">
        <ele>121.26</ele>
        <time>2016-02-21T15:51:28Z</time>
      </trkpt>
      <trkpt lat="43.54203" lon="2.97559">
        <ele>121.26</ele>
        <time>2016-02-21T15:51:30Z</time>
      </trkpt>
      <trkpt lat="43.54207" lon="2.97578">
        <ele>121.74</ele>
        <time>2016-02-21T15:51:31Z</time>
      </trkpt>
      <trkpt lat="43.54213" lon="2.97599">
        <ele>121.74</ele>
        <time>2016-02-21T15:51:32Z</time>
      </trkpt>
      <trkpt lat="43.54249" lon="2.97761">
        <ele>122.71</ele>
        <time>2016-02-21T15:51:38Z</time>
      </trkpt>
      <trkpt lat="43.54277" lon="2.97879">
        <ele>123.67</ele>
        <time>2016-02-21T15:51:43Z</time>
      </trkpt>
      <trkpt lat="43.54286" lon="2.97898">
        <ele>123.67</ele>
        <time>2016-02-21T15:51:44Z</time>
      </trkpt>
      <trkpt lat="43.54296" lon="2.97917">
        <ele>123.67</ele>
        <time>2016-02-21T15:51:45Z</time>
      </trkpt>
      <trkpt lat="43.54393" lon="2.98049">
        <ele>125.59</ele>
        <time>2016-02-21T15:51:53Z</time>
      </trkpt>
      <trkpt lat="43.54467" lon="2.98116">
        <ele>127.99</ele>
        <time>2016-02-21T15:51:59Z</time>
      </trkpt>
      <trkpt lat="43.54478" lon="2.98128">
        <ele>128.47</ele>
        <time>2016-02-21T15:52:00Z</time>
      </trkpt>
      <trkpt lat="43.5453" lon="2.98191">
        <ele>129.43</ele>
        <time>2016-02-21T15:52:05Z</time>
      </trkpt>
      <trkpt lat="43.54542" lon="2.98197">
        <ele>129.92</ele>
        <time>2016-02-21T15:52:06Z</time>
      </trkpt>
      <trkpt lat="43.54555" lon="2.98203">
        <ele>129.92</ele>
        <time>2016-02-21T15:52:07Z</time>
      </trkpt>
      <trkpt lat="43.54568" lon="2.98206">
        <ele>129.92</ele>
        <time>2016-02-21T15:52:08Z</time>
      </trkpt>
      <trkpt lat="43.54583" lon="2.98203">
        <ele>129.92</ele>
        <time>2016-02-21T15:52:09Z</time>
      </trkpt>
      <trkpt lat="43.54597" lon="2.98196">
        <ele>129.43</ele>
        <time>2016-02-21T15:52:10Z</time>
      </trkpt>
      <trkpt lat="43.54611" lon="2.98189">
        <ele>129.43</ele>
        <time>2016-02-21T15:52:11Z</time>
      </trkpt>
      <trkpt lat="43.54625" lon="2.9818">
        <ele>129.43</ele>
        <time>2016-02-21T15:52:12Z</time>
      </trkpt>
      <trkpt lat="43.54699" lon="2.98105">
        <ele>129.43</ele>
        <time>2016-02-21T15:52:18Z</time>
      </trkpt>
      <trkpt lat="43.54707" lon="2.98085">
        <ele>130.88</ele>
        <time>2016-02-21T15:52:19Z</time>
      </trkpt>
      <trkpt lat="43.54714" lon="2.98065">
        <ele>131.84</ele>
        <time>2016-02-21T15:52:20Z</time>
      </trkpt>
      <trkpt lat="43.54738" lon="2.97995">
        <ele>133.76</ele>
        <time>2016-02-21T15:52:24Z</time>
      </trkpt>
      <trkpt lat="43.54744" lon="2.97981">
        <ele>134.72</ele>
        <time>2016-02-21T15:52:25Z</time>
      </trkpt>
      <trkpt lat="43.54755" lon="2.97973">
        <ele>135.2</ele>
        <time>2016-02-21T15:52:26Z</time>
      </trkpt>
      <trkpt lat="43.54766" lon="2.97968">
        <ele>136.16</ele>
        <time>2016-02-21T15:52:27Z</time>
      </trkpt>
      <trkpt lat="43.54778" lon="2.97962">
        <ele>136.64</ele>
        <time>2016-02-21T15:52:28Z</time>
      </trkpt>
      <trkpt lat="43.54802" lon="2.97952">
        <ele>138.09</ele>
        <time>2016-02-21T15:52:30Z</time>
      </trkpt>
      <trkpt lat="43.54813" lon="2.9795">
        <ele>139.05</ele>
        <time>2016-02-21T15:52:31Z</time>
      </trkpt>
      <trkpt lat="43.54824" lon="2.97952">
        <ele>140.01</ele>
        <time>2016-02-21T15:52:32Z</time>
      </trkpt>
      <trkpt lat="43.54835" lon="2.97958">
        <ele>140.97</ele>
        <time>2016-02-21T15:52:33Z</time>
      </trkpt>
      <trkpt lat="43.54846" lon="2.97971">
        <ele>140.97</ele>
        <time>2016-02-21T15:52:34Z</time>
      </trkpt>
      <trkpt lat="43.54857" lon="2.97983">
        <ele>141.45</ele>
        <time>2016-02-21T15:52:35Z</time>
      </trkpt>
      <trkpt lat="43.54998" lon="2.98088">
        <ele>146.74</ele>
        <time>2016-02-21T15:52:47Z</time>
      </trkpt>
      <trkpt lat="43.5502" lon="2.98109">
        <ele>147.7</ele>
        <time>2016-02-21T15:52:49Z</time>
      </trkpt>
      <trkpt lat="43.5503" lon="2.98122">
        <ele>148.18</ele>
        <time>2016-02-21T15:52:50Z</time>
      </trkpt>
      <trkpt lat="43.55039" lon="2.98137">
        <ele>148.66</ele>
        <time>2016-02-21T15:52:51Z</time>
      </trkpt>
      <trkpt lat="43.55047" lon="2.98153">
        <ele>149.14</ele>
        <time>2016-02-21T15:52:52Z</time>
      </trkpt>
      <trkpt lat="43.55053" lon="2.9817">
        <ele>149.62</ele>
        <time>2016-02-21T15:52:53Z</time>
      </trkpt>
      <trkpt lat="43.55058" lon="2.98187">
        <ele>150.1</ele>
        <time>2016-02-21T15:52:54Z</time>
      </trkpt>
      <trkpt lat="43.55061" lon="2.98204">
        <ele>150.58</ele>
        <time>2016-02-21T15:52:55Z</time>
      </trkpt>
      <trkpt lat="43.55062" lon="2.9822">
        <ele>151.06</ele>
        <time>2016-02-21T15:52:56Z</time>
      </trkpt>
      <trkpt lat="43.55062" lon="2.98234">
        <ele>151.54</ele>
        <time>2016-02-21T15:52:57Z</time>
      </trkpt>
      <trkpt lat="43.55063" lon="2.98248">
        <ele>152.03</ele>
        <time>2016-02-21T15:52:58Z</time>
      </trkpt>
      <trkpt lat="43.55067" lon="2.98257">
        <ele>152.51</ele>
        <time>2016-02-21T15:52:59Z</time>
      </trkpt>
      <trkpt lat="43.55074" lon="2.98262">
        <ele>152.51</ele>
        <time>2016-02-21T15:53:00Z</time>
      </trkpt>
      <trkpt lat="43.55082" lon="2.98262">
        <ele>152.99</ele>
        <time>2016-02-21T15:53:01Z</time>
      </trkpt>
      <trkpt lat="43.55091" lon="2.98261">
        <ele>153.47</ele>
        <time>2016-02-21T15:53:02Z</time>
      </trkpt>
      <trkpt lat="43.55101" lon="2.98258">
        <ele>153.95</ele>
        <time>2016-02-21T15:53:03Z</time>
      </trkpt>
      <trkpt lat="43.55111" lon="2.98251">
        <ele>154.43</ele>
        <time>2016-02-21T15:53:04Z</time>
      </trkpt>
      <trkpt lat="43.5512" lon="2.98244">
        <ele>154.91</ele>
        <time>2016-02-21T15:53:05Z</time>
      </trkpt>
      <trkpt lat="43.55128" lon="2.98236">
        <ele>155.39</ele>
        <time>2016-02-21T15:53:06Z</time>
      </trkpt>
      <trkpt lat="43.55186" lon="2.98194">
        <ele>158.27</ele>
        <time>2016-02-21T15:53:12Z</time>
      </trkpt>
      <trkpt lat="43.55197" lon="2.9819">
        <ele>158.75</ele>
        <time>2016-02-21T15:53:13Z</time>
      </trkpt>
      <trkpt lat="43.55239" lon="2.98173">
        <ele>160.2</ele>
        <time>2016-02-21T15:53:17Z</time>
      </trkpt>
      <trkpt lat="43.55248" lon="2.98166">
        <ele>160.68</ele>
        <time>2016-02-21T15:53:18Z</time>
      </trkpt>
      <trkpt lat="43.55257" lon="2.98157">
        <ele>160.68</ele>
        <time>2016-02-21T15:53:19Z</time>
      </trkpt>
      <trkpt lat="43.55264" lon="2.98147">
        <ele>161.16</ele>
        <time>2016-02-21T15:53:20Z</time>
      </trkpt>
      <trkpt lat="43.55271" lon="2.98138">
        <ele>161.64</ele>
        <time>2016-02-21T15:53:21Z</time>
      </trkpt>
      <trkpt lat="43.55282" lon="2.98123">
        <ele>162.12</ele>
        <time>2016-02-21T15:53:23Z</time>
      </trkpt>
      <trkpt lat="43.55287" lon="2.98119">
        <ele>162.6</ele>
        <time>2016-02-21T15:53:24Z</time>
      </trkpt>
      <trkpt lat="43.55291" lon="2.98116">
        <ele>162.6</ele>
        <time>2016-02-21T15:53:25Z</time>
      </trkpt>
      <trkpt lat="43.55297" lon="2.98114">
        <ele>163.08</ele>
        <time>2016-02-21T15:53:26Z</time>
      </trkpt>
      <trkpt lat="43.55304" lon="2.98114">
        <ele>163.08</ele>
        <time>2016-02-21T15:53:27Z</time>
      </trkpt>
      <trkpt lat="43.55311" lon="2.98117">
        <ele>163.56</ele>
        <time>2016-02-21T15:53:28Z</time>
      </trkpt>
      <trkpt lat="43.5532" lon="2.98126">
        <ele>163.56</ele>
        <time>2016-02-21T15:53:29Z</time>
      </trkpt>
      <trkpt lat="43.55329" lon="2.98137">
        <ele>163.08</ele>
        <time>2016-02-21T15:53:30Z</time>
      </trkpt>
      <trkpt lat="43.55341" lon="2.98151">
        <ele>163.08</ele>
        <time>2016-02-21T15:53:31Z</time>
      </trkpt>
      <trkpt lat="43.55353" lon="2.98166">
        <ele>162.12</ele>
        <time>2016-02-21T15:53:32Z</time>
      </trkpt>
      <trkpt lat="43.55462" lon="2.98295">
        <ele>157.31</ele>
        <time>2016-02-21T15:53:40Z</time>
      </trkpt>
      <trkpt lat="43.55537" lon="2.98344">
        <ele>154.91</ele>
        <time>2016-02-21T15:53:45Z</time>
      </trkpt>
      <trkpt lat="43.55563" lon="2.9836">
        <ele>154.43</ele>
        <time>2016-02-21T15:53:47Z</time>
      </trkpt>
      <trkpt lat="43.55576" lon="2.98367">
        <ele>153.47</ele>
        <time>2016-02-21T15:53:48Z</time>
      </trkpt>
      <trkpt lat="43.55591" lon="2.98371">
        <ele>152.99</ele>
        <time>2016-02-21T15:53:49Z</time>
      </trkpt>
      <trkpt lat="43.55607" lon="2.98373">
        <ele>151.54</ele>
        <time>2016-02-21T15:53:50Z</time>
      </trkpt>
      <trkpt lat="43.55622" lon="2.9837">
        <ele>150.1</ele>
        <time>2016-02-21T15:53:51Z</time>
      </trkpt>
      <trkpt lat="43.55637" lon="2.98365">
        <ele>149.14</ele>
        <time>2016-02-21T15:53:52Z</time>
      </trkpt>
      <trkpt lat="43.55654" lon="2.98361">
        <ele>148.18</ele>
        <time>2016-02-21T15:53:53Z</time>
      </trkpt>
      <trkpt lat="43.5567" lon="2.98359">
        <ele>147.7</ele>
        <time>2016-02-21T15:53:54Z</time>
      </trkpt>
      <trkpt lat="43.55685" lon="2.98358">
        <ele>147.22</ele>
        <time>2016-02-21T15:53:55Z</time>
      </trkpt>
      <trkpt lat="43.55713" lon="2.98361">
        <ele>146.26</ele>
        <time>2016-02-21T15:53:57Z</time>
      </trkpt>
      <trkpt lat="43.55724" lon="2.98366">
        <ele>146.26</ele>
        <time>2016-02-21T15:53:58Z</time>
      </trkpt>
      <trkpt lat="43.55733" lon="2.98373">
        <ele>145.78</ele>
        <time>2016-02-21T15:53:59Z</time>
      </trkpt>
      <trkpt lat="43.55748" lon="2.98383">
        <ele>144.82</ele>
        <time>2016-02-21T15:54:01Z</time>
      </trkpt>
      <trkpt lat="43.55756" lon="2.98385">
        <ele>144.34</ele>
        <time>2016-02-21T15:54:02Z</time>
      </trkpt>
      <trkpt lat="43.55763" lon="2.98383">
        <ele>143.37</ele>
        <time>2016-02-21T15:54:03Z</time>
      </trkpt>
      <trkpt lat="43.55769" lon="2.98365">
        <ele>145.3</ele>
        <time>2016-02-21T15:54:04Z</time>
      </trkpt>
      <trkpt lat="43.55773" lon="2.98353">
        <ele>145.78</ele>
        <time>2016-02-21T15:54:05Z</time>
      </trkpt>
      <trkpt lat="43.55777" lon="2.98342">
        <ele>146.26</ele>
        <time>2016-02-21T15:54:06Z</time>
      </trkpt>
      <trkpt lat="43.55784" lon="2.98332">
        <ele>146.26</ele>
        <time>2016-02-21T15:54:07Z</time>
      </trkpt>
      <trkpt lat="43.55793" lon="2.98325">
        <ele>146.26</ele>
        <time>2016-02-21T15:54:08Z</time>
      </trkpt>
      <trkpt lat="43.55804" lon="2.98321">
        <ele>146.26</ele>
        <time>2016-02-21T15:54:09Z</time>
      </trkpt>
      <trkpt lat="43.55815" lon="2.98316">
        <ele>145.78</ele>
        <time>2016-02-21T15:54:10Z</time>
      </trkpt>
      <trkpt lat="43.55826" lon="2.98309">
        <ele>145.3</ele>
        <time>2016-02-21T15:54:11Z</time>
      </trkpt>
      <trkpt lat="43.55836" lon="2.983">
        <ele>144.34</ele>
        <time>2016-02-21T15:54:12Z</time>
      </trkpt>
      <trkpt lat="43.55845" lon="2.98286">
        <ele>145.3</ele>
        <time>2016-02-21T15:54:13Z</time>
      </trkpt>
      <trkpt lat="43.55852" lon="2.98272">
        <ele>145.3</ele>
        <time>2016-02-21T15:54:14Z</time>
      </trkpt>
      <trkpt lat="43.55859" lon="2.98259">
        <ele>145.3</ele>
        <time>2016-02-21T15:54:15Z</time>
      </trkpt>
      <trkpt lat="43.55873" lon="2.98236">
        <ele>144.82</ele>
        <time>2016-02-21T15:54:17Z</time>
      </trkpt>
      <trkpt lat="43.55882" lon="2.98227">
        <ele>144.82</ele>
        <time>2016-02-21T15:54:18Z</time>
      </trkpt>
      <trkpt lat="43.55892" lon="2.98218">
        <ele>144.34</ele>
        <time>2016-02-21T15:54:19Z</time>
      </trkpt>
      <trkpt lat="43.55903" lon="2.98209">
        <ele>143.85</ele>
        <time>2016-02-21T15:54:20Z</time>
      </trkpt>
      <trkpt lat="43.55913" lon="2.98195">
        <ele>143.85</ele>
        <time>2016-02-21T15:54:21Z</time>
      </trkpt>
      <trkpt lat="43.55922" lon="2.98179">
        <ele>143.85</ele>
        <time>2016-02-21T15:54:22Z</time>
      </trkpt>
      <trkpt lat="43.55984" lon="2.98038">
        <ele>143.85</ele>
        <time>2016-02-21T15:54:29Z</time>
      </trkpt>
      <trkpt lat="43.55995" lon="2.98019">
        <ele>143.37</ele>
        <time>2016-02-21T15:54:30Z</time>
      </trkpt>
      <trkpt lat="43.56006" lon="2.98002">
        <ele>142.89</ele>
        <time>2016-02-21T15:54:31Z</time>
      </trkpt>
      <trkpt lat="43.56029" lon="2.97966">
        <ele>142.41</ele>
        <time>2016-02-21T15:54:33Z</time>
      </trkpt>
      <trkpt lat="43.56039" lon="2.97946">
        <ele>141.93</ele>
        <time>2016-02-21T15:54:34Z</time>
      </trkpt>
      <trkpt lat="43.56047" lon="2.97925">
        <ele>141.45</ele>
        <time>2016-02-21T15:54:35Z</time>
      </trkpt>
      <trkpt lat="43.56053" lon="2.97903">
        <ele>140.97</ele>
        <time>2016-02-21T15:54:36Z</time>
      </trkpt>
      <trkpt lat="43.56056" lon="2.9788">
        <ele>140.49</ele>
        <time>2016-02-21T15:54:37Z</time>
      </trkpt>
      <trkpt lat="43.56058" lon="2.97855">
        <ele>140.01</ele>
        <time>2016-02-21T15:54:38Z</time>
      </trkpt>
      <trkpt lat="43.56057" lon="2.9783">
        <ele>140.01</ele>
        <time>2016-02-21T15:54:39Z</time>
      </trkpt>
      <trkpt lat="43.56056" lon="2.97804">
        <ele>139.53</ele>
        <time>2016-02-21T15:54:40Z</time>
      </trkpt>
      <trkpt lat="43.56056" lon="2.97727">
        <ele>139.05</ele>
        <time>2016-02-21T15:54:43Z</time>
      </trkpt>
      <trkpt lat="43.56059" lon="2.97705">
        <ele>139.05</ele>
        <time>2016-02-21T15:54:44Z</time>
      </trkpt>
      <trkpt lat="43.56065" lon="2.97686">
        <ele>138.57</ele>
        <time>2016-02-21T15:54:45Z</time>
      </trkpt>
      <trkpt lat="43.56074" lon="2.97671">
        <ele>138.57</ele>
        <time>2016-02-21T15:54:46Z</time>
      </trkpt>
      <trkpt lat="43.56088" lon="2.9766">
        <ele>138.57</ele>
        <time>2016-02-21T15:54:47Z</time>
      </trkpt>
      <trkpt lat="43.56104" lon="2.97652">
        <ele>138.09</ele>
        <time>2016-02-21T15:54:48Z</time>
      </trkpt>
      <trkpt lat="43.56122" lon="2.97646">
        <ele>138.57</ele>
        <time>2016-02-21T15:54:49Z</time>
      </trkpt>
      <trkpt lat="43.5614" lon="2.97639">
        <ele>139.05</ele>
        <time>2016-02-21T15:54:50Z</time>
      </trkpt>
      <trkpt lat="43.56285" lon="2.97582">
        <ele>142.41</ele>
        <time>2016-02-21T15:54:59Z</time>
      </trkpt>
      <trkpt lat="43.56397" lon="2.97522">
        <ele>144.82</ele>
        <time>2016-02-21T15:55:09Z</time>
      </trkpt>
      <trkpt lat="43.56521" lon="2.97413">
        <ele>145.78</ele>
        <time>2016-02-21T15:55:20Z</time>
      </trkpt>
      <trkpt lat="43.5656" lon="2.97386">
        <ele>148.18</ele>
        <time>2016-02-21T15:55:24Z</time>
      </trkpt>
      <trkpt lat="43.56566" lon="2.97385">
        <ele>148.66</ele>
        <time>2016-02-21T15:55:25Z</time>
      </trkpt>
      <trkpt lat="43.56571" lon="2.97385">
        <ele>149.14</ele>
        <time>2016-02-21T15:55:26Z</time>
      </trkpt>
      <trkpt lat="43.56573" lon="2.97386">
        <ele>149.14</ele>
        <time>2016-02-21T15:55:27Z</time>
      </trkpt>
      <trkpt lat="43.5657" lon="2.97389">
        <ele>149.14</ele>
        <time>2016-02-21T15:55:45Z</time>
      </trkpt>
      <trkpt lat="43.56576" lon="2.97396">
        <ele>148.66</ele>
        <time>2016-02-21T15:56:07Z</time>
      </trkpt>
      <trkpt lat="43.56589" lon="2.9741">
        <ele>148.18</ele>
        <time>2016-02-21T15:56:09Z</time>
      </trkpt>
      <trkpt lat="43.56598" lon="2.97417">
        <ele>148.18</ele>
        <time>2016-02-21T15:56:10Z</time>
      </trkpt>
      <trkpt lat="43.56608" lon="2.97424">
        <ele>147.7</ele>
        <time>2016-02-21T15:56:11Z</time>
      </trkpt>
      <trkpt lat="43.56619" lon="2.9743">
        <ele>147.7</ele>
        <time>2016-02-21T15:56:12Z</time>
      </trkpt>
      <trkpt lat="43.56632" lon="2.97433">
        <ele>147.7</ele>
        <time>2016-02-21T15:56:13Z</time>
      </trkpt>
      <trkpt lat="43.56646" lon="2.97434">
        <ele>147.7</ele>
        <time>2016-02-21T15:56:14Z</time>
      </trkpt>
      <trkpt lat="43.56661" lon="2.97434">
        <ele>147.7</ele>
        <time>2016-02-21T15:56:15Z</time>
      </trkpt>
      <trkpt lat="43.56708" lon="2.97437">
        <ele>147.7</ele>
        <time>2016-02-21T15:56:18Z</time>
      </trkpt>
      <trkpt lat="43.56725" lon="2.97446">
        <ele>148.18</ele>
        <time>2016-02-21T15:56:19Z</time>
      </trkpt>
      <trkpt lat="43.56742" lon="2.97458">
        <ele>147.7</ele>
        <time>2016-02-21T15:56:20Z</time>
      </trkpt>
      <trkpt lat="43.56756" lon="2.97475">
        <ele>148.18</ele>
        <time>2016-02-21T15:56:21Z</time>
      </trkpt>
      <trkpt lat="43.56768" lon="2.97493">
        <ele>148.18</ele>
        <time>2016-02-21T15:56:22Z</time>
      </trkpt>
      <trkpt lat="43.56779" lon="2.97513">
        <ele>148.18</ele>
        <time>2016-02-21T15:56:23Z</time>
      </trkpt>
      <trkpt lat="43.56813" lon="2.97568">
        <ele>148.18</ele>
        <time>2016-02-21T15:56:26Z</time>
      </trkpt>
      <trkpt lat="43.56826" lon="2.97584">
        <ele>148.66</ele>
        <time>2016-02-21T15:56:27Z</time>
      </trkpt>
      <trkpt lat="43.56852" lon="2.97615">
        <ele>148.66</ele>
        <time>2016-02-21T15:56:29Z</time>
      </trkpt>
      <trkpt lat="43.56863" lon="2.97634">
        <ele>149.14</ele>
        <time>2016-02-21T15:56:30Z</time>
      </trkpt>
      <trkpt lat="43.56873" lon="2.97653">
        <ele>149.62</ele>
        <time>2016-02-21T15:56:31Z</time>
      </trkpt>
      <trkpt lat="43.56881" lon="2.97674">
        <ele>150.58</ele>
        <time>2016-02-21T15:56:32Z</time>
      </trkpt>
      <trkpt lat="43.56888" lon="2.97695">
        <ele>152.03</ele>
        <time>2016-02-21T15:56:33Z</time>
      </trkpt>
      <trkpt lat="43.5691" lon="2.97748">
        <ele>155.87</ele>
        <time>2016-02-21T15:56:36Z</time>
      </trkpt>
      <trkpt lat="43.5692" lon="2.97759">
        <ele>156.83</ele>
        <time>2016-02-21T15:56:37Z</time>
      </trkpt>
      <trkpt lat="43.56932" lon="2.97767">
        <ele>157.79</ele>
        <time>2016-02-21T15:56:38Z</time>
      </trkpt>
      <trkpt lat="43.56947" lon="2.97769">
        <ele>158.75</ele>
        <time>2016-02-21T15:56:39Z</time>
      </trkpt>
      <trkpt lat="43.56962" lon="2.97771">
        <ele>160.2</ele>
        <time>2016-02-21T15:56:40Z</time>
      </trkpt>
      <trkpt lat="43.56977" lon="2.97774">
        <ele>161.16</ele>
        <time>2016-02-21T15:56:41Z</time>
      </trkpt>
      <trkpt lat="43.56992" lon="2.97781">
        <ele>162.6</ele>
        <time>2016-02-21T15:56:42Z</time>
      </trkpt>
      <trkpt lat="43.57006" lon="2.97791">
        <ele>163.56</ele>
        <time>2016-02-21T15:56:43Z</time>
      </trkpt>
      <trkpt lat="43.57018" lon="2.97804">
        <ele>164.04</ele>
        <time>2016-02-21T15:56:44Z</time>
      </trkpt>
      <trkpt lat="43.57028" lon="2.9782">
        <ele>164.52</ele>
        <time>2016-02-21T15:56:45Z</time>
      </trkpt>
      <trkpt lat="43.57034" lon="2.97841">
        <ele>165</ele>
        <time>2016-02-21T15:56:46Z</time>
      </trkpt>
      <trkpt lat="43.57036" lon="2.97865">
        <ele>166.45</ele>
        <time>2016-02-21T15:56:47Z</time>
      </trkpt>
      <trkpt lat="43.57032" lon="2.97886">
        <ele>167.41</ele>
        <time>2016-02-21T15:56:48Z</time>
      </trkpt>
      <trkpt lat="43.57023" lon="2.97903">
        <ele>168.85</ele>
        <time>2016-02-21T15:56:49Z</time>
      </trkpt>
      <trkpt lat="43.57012" lon="2.97917">
        <ele>170.29</ele>
        <time>2016-02-21T15:56:50Z</time>
      </trkpt>
      <trkpt lat="43.57" lon="2.9793">
        <ele>171.25</ele>
        <time>2016-02-21T15:56:51Z</time>
      </trkpt>
      <trkpt lat="43.5699" lon="2.97947">
        <ele>172.69</ele>
        <time>2016-02-21T15:56:52Z</time>
      </trkpt>
      <trkpt lat="43.56982" lon="2.97968">
        <ele>173.17</ele>
        <time>2016-02-21T15:56:53Z</time>
      </trkpt>
      <trkpt lat="43.56978" lon="2.9799">
        <ele>174.62</ele>
        <time>2016-02-21T15:56:54Z</time>
      </trkpt>
      <trkpt lat="43.56974" lon="2.98015">
        <ele>175.1</ele>
        <time>2016-02-21T15:56:55Z</time>
      </trkpt>
      <trkpt lat="43.56971" lon="2.9804">
        <ele>176.06</ele>
        <time>2016-02-21T15:56:56Z</time>
      </trkpt>
      <trkpt lat="43.56961" lon="2.98157">
        <ele>179.9</ele>
        <time>2016-02-21T15:57:01Z</time>
      </trkpt>
      <trkpt lat="43.56964" lon="2.98178">
        <ele>180.38</ele>
        <time>2016-02-21T15:57:02Z</time>
      </trkpt>
      <trkpt lat="43.56966" lon="2.98199">
        <ele>180.87</ele>
        <time>2016-02-21T15:57:03Z</time>
      </trkpt>
      <trkpt lat="43.56966" lon="2.98219">
        <ele>181.35</ele>
        <time>2016-02-21T15:57:04Z</time>
      </trkpt>
      <trkpt lat="43.56963" lon="2.9824">
        <ele>181.83</ele>
        <time>2016-02-21T15:57:05Z</time>
      </trkpt>
      <trkpt lat="43.56959" lon="2.9826">
        <ele>182.79</ele>
        <time>2016-02-21T15:57:06Z</time>
      </trkpt>
      <trkpt lat="43.56944" lon="2.9832">
        <ele>184.71</ele>
        <time>2016-02-21T15:57:09Z</time>
      </trkpt>
      <trkpt lat="43.56937" lon="2.98338">
        <ele>185.67</ele>
        <time>2016-02-21T15:57:10Z</time>
      </trkpt>
      <trkpt lat="43.56928" lon="2.98354">
        <ele>186.63</ele>
        <time>2016-02-21T15:57:11Z</time>
      </trkpt>
      <trkpt lat="43.56917" lon="2.9837">
        <ele>187.59</ele>
        <time>2016-02-21T15:57:12Z</time>
      </trkpt>
      <trkpt lat="43.56905" lon="2.98386">
        <ele>188.08</ele>
        <time>2016-02-21T15:57:13Z</time>
      </trkpt>
      <trkpt lat="43.56893" lon="2.984">
        <ele>189.04</ele>
        <time>2016-02-21T15:57:14Z</time>
      </trkpt>
      <trkpt lat="43.56879" lon="2.98413">
        <ele>190</ele>
        <time>2016-02-21T15:57:15Z</time>
      </trkpt>
      <trkpt lat="43.56866" lon="2.98426">
        <ele>190.48</ele>
        <time>2016-02-21T15:57:16Z</time>
      </trkpt>
      <trkpt lat="43.56805" lon="2.98494">
        <ele>193.36</ele>
        <time>2016-02-21T15:57:21Z</time>
      </trkpt>
      <trkpt lat="43.56797" lon="2.98512">
        <ele>193.84</ele>
        <time>2016-02-21T15:57:22Z</time>
      </trkpt>
      <trkpt lat="43.56793" lon="2.98532">
        <ele>194.32</ele>
        <time>2016-02-21T15:57:23Z</time>
      </trkpt>
      <trkpt lat="43.56792" lon="2.98553">
        <ele>195.28</ele>
        <time>2016-02-21T15:57:24Z</time>
      </trkpt>
      <trkpt lat="43.56793" lon="2.98573">
        <ele>195.28</ele>
        <time>2016-02-21T15:57:25Z</time>
      </trkpt>
      <trkpt lat="43.56798" lon="2.98593">
        <ele>195.77</ele>
        <time>2016-02-21T15:57:26Z</time>
      </trkpt>
      <trkpt lat="43.56805" lon="2.9861">
        <ele>195.77</ele>
        <time>2016-02-21T15:57:27Z</time>
      </trkpt>
      <trkpt lat="43.56817" lon="2.98624">
        <ele>196.25</ele>
        <time>2016-02-21T15:57:28Z</time>
      </trkpt>
      <trkpt lat="43.5683" lon="2.98636">
        <ele>196.25</ele>
        <time>2016-02-21T15:57:29Z</time>
      </trkpt>
      <trkpt lat="43.56844" lon="2.98646">
        <ele>196.25</ele>
        <time>2016-02-21T15:57:30Z</time>
      </trkpt>
      <trkpt lat="43.56859" lon="2.98654">
        <ele>196.25</ele>
        <time>2016-02-21T15:57:31Z</time>
      </trkpt>
      <trkpt lat="43.56873" lon="2.98662">
        <ele>195.77</ele>
        <time>2016-02-21T15:57:32Z</time>
      </trkpt>
      <trkpt lat="43.57009" lon="2.98744">
        <ele>193.36</ele>
        <time>2016-02-21T15:57:40Z</time>
      </trkpt>
      <trkpt lat="43.57126" lon="2.98852">
        <ele>189.04</ele>
        <time>2016-02-21T15:57:46Z</time>
      </trkpt>
      <trkpt lat="43.57139" lon="2.98876">
        <ele>188.08</ele>
        <time>2016-02-21T15:57:47Z</time>
      </trkpt>
      <trkpt lat="43.57151" lon="2.98902">
        <ele>187.11</ele>
        <time>2016-02-21T15:57:48Z</time>
      </trkpt>
      <trkpt lat="43.5716" lon="2.98929">
        <ele>186.63</ele>
        <time>2016-02-21T15:57:49Z</time>
      </trkpt>
      <trkpt lat="43.57167" lon="2.9896">
        <ele>185.67</ele>
        <time>2016-02-21T15:57:50Z</time>
      </trkpt>
      <trkpt lat="43.57173" lon="2.98991">
        <ele>185.19</ele>
        <time>2016-02-21T15:57:51Z</time>
      </trkpt>
      <trkpt lat="43.57251" lon="2.99295">
        <ele>175.1</ele>
        <time>2016-02-21T15:58:00Z</time>
      </trkpt>
      <trkpt lat="43.57387" lon="2.99621">
        <ele>166.93</ele>
        <time>2016-02-21T15:58:10Z</time>
      </trkpt>
      <trkpt lat="43.57528" lon="2.99842">
        <ele>167.89</ele>
        <time>2016-02-21T15:58:18Z</time>
      </trkpt>
      <trkpt lat="43.57594" lon="2.99948">
        <ele>170.77</ele>
        <time>2016-02-21T15:58:22Z</time>
      </trkpt>
      <trkpt lat="43.57607" lon="2.99976">
        <ele>171.73</ele>
        <time>2016-02-21T15:58:23Z</time>
      </trkpt>
      <trkpt lat="43.57627" lon="3.00037">
        <ele>173.66</ele>
        <time>2016-02-21T15:58:25Z</time>
      </trkpt>
      <trkpt lat="43.57636" lon="3.0007">
        <ele>174.62</ele>
        <time>2016-02-21T15:58:26Z</time>
      </trkpt>
      <trkpt lat="43.57721" lon="3.00424">
        <ele>186.63</ele>
        <time>2016-02-21T15:58:37Z</time>
      </trkpt>
      <trkpt lat="43.5776" lon="3.00586">
        <ele>190.48</ele>
        <time>2016-02-21T15:58:44Z</time>
      </trkpt>
      <trkpt lat="43.57814" lon="3.0074">
        <ele>194.32</ele>
        <time>2016-02-21T15:58:53Z</time>
      </trkpt>
      <trkpt lat="43.57823" lon="3.00753">
        <ele>194.8</ele>
        <time>2016-02-21T15:58:54Z</time>
      </trkpt>
      <trkpt lat="43.57832" lon="3.00766">
        <ele>196.25</ele>
        <time>2016-02-21T15:58:55Z</time>
      </trkpt>
      <trkpt lat="43.57896" lon="3.00845">
        <ele>199.61</ele>
        <time>2016-02-21T15:59:01Z</time>
      </trkpt>
      <trkpt lat="43.57906" lon="3.00861">
        <ele>200.57</ele>
        <time>2016-02-21T15:59:02Z</time>
      </trkpt>
      <trkpt lat="43.57981" lon="3.01007">
        <ele>205.38</ele>
        <time>2016-02-21T15:59:11Z</time>
      </trkpt>
      <trkpt lat="43.57986" lon="3.01023">
        <ele>205.86</ele>
        <time>2016-02-21T15:59:12Z</time>
      </trkpt>
      <trkpt lat="43.5799" lon="3.01039">
        <ele>205.86</ele>
        <time>2016-02-21T15:59:13Z</time>
      </trkpt>
      <trkpt lat="43.57995" lon="3.01055">
        <ele>205.86</ele>
        <time>2016-02-21T15:59:14Z</time>
      </trkpt>
      <trkpt lat="43.58" lon="3.01068">
        <ele>205.86</ele>
        <time>2016-02-21T15:59:15Z</time>
      </trkpt>
      <trkpt lat="43.58008" lon="3.01081">
        <ele>205.86</ele>
        <time>2016-02-21T15:59:16Z</time>
      </trkpt>
      <trkpt lat="43.58017" lon="3.01092">
        <ele>206.34</ele>
        <time>2016-02-21T15:59:17Z</time>
      </trkpt>
      <trkpt lat="43.58027" lon="3.01103">
        <ele>206.34</ele>
        <time>2016-02-21T15:59:18Z</time>
      </trkpt>
      <trkpt lat="43.58036" lon="3.01113">
        <ele>206.82</ele>
        <time>2016-02-21T15:59:19Z</time>
      </trkpt>
      <trkpt lat="43.58045" lon="3.01127">
        <ele>207.3</ele>
        <time>2016-02-21T15:59:20Z</time>
      </trkpt>
      <trkpt lat="43.58052" lon="3.01142">
        <ele>208.26</ele>
        <time>2016-02-21T15:59:21Z</time>
      </trkpt>
      <trkpt lat="43.58066" lon="3.0117">
        <ele>209.7</ele>
        <time>2016-02-21T15:59:23Z</time>
      </trkpt>
      <trkpt lat="43.5808" lon="3.01198">
        <ele>210.67</ele>
        <time>2016-02-21T15:59:25Z</time>
      </trkpt>
      <trkpt lat="43.58085" lon="3.01213">
        <ele>211.15</ele>
        <time>2016-02-21T15:59:26Z</time>
      </trkpt>
      <trkpt lat="43.58089" lon="3.01229">
        <ele>211.63</ele>
        <time>2016-02-21T15:59:27Z</time>
      </trkpt>
      <trkpt lat="43.58095" lon="3.0126">
        <ele>212.11</ele>
        <time>2016-02-21T15:59:29Z</time>
      </trkpt>
      <trkpt lat="43.58096" lon="3.01276">
        <ele>212.11</ele>
        <time>2016-02-21T15:59:30Z</time>
      </trkpt>
      <trkpt lat="43.58095" lon="3.01291">
        <ele>212.59</ele>
        <time>2016-02-21T15:59:31Z</time>
      </trkpt>
      <trkpt lat="43.58092" lon="3.01307">
        <ele>213.07</ele>
        <time>2016-02-21T15:59:32Z</time>
      </trkpt>
      <trkpt lat="43.58086" lon="3.01322">
        <ele>213.07</ele>
        <time>2016-02-21T15:59:33Z</time>
      </trkpt>
      <trkpt lat="43.58078" lon="3.01336">
        <ele>213.07</ele>
        <time>2016-02-21T15:59:34Z</time>
      </trkpt>
      <trkpt lat="43.58069" lon="3.01349">
        <ele>213.55</ele>
        <time>2016-02-21T15:59:35Z</time>
      </trkpt>
      <trkpt lat="43.58059" lon="3.0136">
        <ele>213.55</ele>
        <time>2016-02-21T15:59:36Z</time>
      </trkpt>
      <trkpt lat="43.5805" lon="3.01372">
        <ele>214.03</ele>
        <time>2016-02-21T15:59:37Z</time>
      </trkpt>
      <trkpt lat="43.58041" lon="3.01385">
        <ele>213.55</ele>
        <time>2016-02-21T15:59:38Z</time>
      </trkpt>
      <trkpt lat="43.58035" lon="3.01402">
        <ele>214.03</ele>
        <time>2016-02-21T15:59:39Z</time>
      </trkpt>
      <trkpt lat="43.5803" lon="3.01421">
        <ele>214.03</ele>
        <time>2016-02-21T15:59:40Z</time>
      </trkpt>
      <trkpt lat="43.58026" lon="3.0144">
        <ele>214.03</ele>
        <time>2016-02-21T15:59:41Z</time>
      </trkpt>
      <trkpt lat="43.58015" lon="3.01476">
        <ele>214.51</ele>
        <time>2016-02-21T15:59:43Z</time>
      </trkpt>
      <trkpt lat="43.58007" lon="3.01492">
        <ele>214.99</ele>
        <time>2016-02-21T15:59:44Z</time>
      </trkpt>
      <trkpt lat="43.57997" lon="3.01506">
        <ele>214.99</ele>
        <time>2016-02-21T15:59:45Z</time>
      </trkpt>
      <trkpt lat="43.57913" lon="3.01617">
        <ele>218.84</ele>
        <time>2016-02-21T15:59:52Z</time>
      </trkpt>
      <trkpt lat="43.57906" lon="3.01637">
        <ele>218.84</ele>
        <time>2016-02-21T15:59:53Z</time>
      </trkpt>
      <trkpt lat="43.57904" lon="3.01661">
        <ele>218.84</ele>
        <time>2016-02-21T15:59:54Z</time>
      </trkpt>
      <trkpt lat="43.57901" lon="3.01688">
        <ele>218.36</ele>
        <time>2016-02-21T15:59:55Z</time>
      </trkpt>
      <trkpt lat="43.57899" lon="3.01717">
        <ele>217.4</ele>
        <time>2016-02-21T15:59:56Z</time>
      </trkpt>
      <trkpt lat="43.57878" lon="3.01986">
        <ele>211.15</ele>
        <time>2016-02-21T16:00:04Z</time>
      </trkpt>
      <trkpt lat="43.57869" lon="3.02153">
        <ele>208.26</ele>
        <time>2016-02-21T16:00:10Z</time>
      </trkpt>
      <trkpt lat="43.57873" lon="3.02179">
        <ele>208.26</ele>
        <time>2016-02-21T16:00:11Z</time>
      </trkpt>
      <trkpt lat="43.57879" lon="3.02204">
        <ele>207.78</ele>
        <time>2016-02-21T16:00:12Z</time>
      </trkpt>
      <trkpt lat="43.57887" lon="3.02227">
        <ele>207.3</ele>
        <time>2016-02-21T16:00:13Z</time>
      </trkpt>
      <trkpt lat="43.579" lon="3.02245">
        <ele>206.82</ele>
        <time>2016-02-21T16:00:14Z</time>
      </trkpt>
      <trkpt lat="43.57915" lon="3.02261">
        <ele>206.34</ele>
        <time>2016-02-21T16:00:15Z</time>
      </trkpt>
      <trkpt lat="43.5793" lon="3.02276">
        <ele>206.34</ele>
        <time>2016-02-21T16:00:16Z</time>
      </trkpt>
      <trkpt lat="43.57945" lon="3.02289">
        <ele>206.34</ele>
        <time>2016-02-21T16:00:17Z</time>
      </trkpt>
      <trkpt lat="43.57959" lon="3.02301">
        <ele>206.34</ele>
        <time>2016-02-21T16:00:18Z</time>
      </trkpt>
      <trkpt lat="43.57972" lon="3.02312">
        <ele>206.34</ele>
        <time>2016-02-21T16:00:19Z</time>
      </trkpt>
      <trkpt lat="43.57982" lon="3.02326">
        <ele>206.34</ele>
        <time>2016-02-21T16:00:20Z</time>
      </trkpt>
      <trkpt lat="43.57988" lon="3.02343">
        <ele>206.34</ele>
        <time>2016-02-21T16:00:21Z</time>
      </trkpt>
      <trkpt lat="43.5799" lon="3.02362">
        <ele>206.82</ele>
        <time>2016-02-21T16:00:22Z</time>
      </trkpt>
      <trkpt lat="43.57988" lon="3.0238">
        <ele>207.3</ele>
        <time>2016-02-21T16:00:23Z</time>
      </trkpt>
      <trkpt lat="43.57983" lon="3.02396">
        <ele>207.3</ele>
        <time>2016-02-21T16:00:24Z</time>
      </trkpt>
      <trkpt lat="43.57974" lon="3.02409">
        <ele>207.3</ele>
        <time>2016-02-21T16:00:25Z</time>
      </trkpt>
      <trkpt lat="43.57964" lon="3.02421">
        <ele>207.78</ele>
        <time>2016-02-21T16:00:26Z</time>
      </trkpt>
      <trkpt lat="43.57952" lon="3.02429">
        <ele>207.78</ele>
        <time>2016-02-21T16:00:27Z</time>
      </trkpt>
      <trkpt lat="43.5794" lon="3.02436">
        <ele>208.26</ele>
        <time>2016-02-21T16:00:28Z</time>
      </trkpt>
      <trkpt lat="43.57928" lon="3.02441">
        <ele>208.74</ele>
        <time>2016-02-21T16:00:29Z</time>
      </trkpt>
      <trkpt lat="43.57916" lon="3.02446">
        <ele>209.22</ele>
        <time>2016-02-21T16:00:30Z</time>
      </trkpt>
      <trkpt lat="43.5784" lon="3.02485">
        <ele>211.15</ele>
        <time>2016-02-21T16:00:36Z</time>
      </trkpt>
      <trkpt lat="43.57829" lon="3.02497">
        <ele>211.15</ele>
        <time>2016-02-21T16:00:37Z</time>
      </trkpt>
      <trkpt lat="43.57821" lon="3.02514">
        <ele>211.15</ele>
        <time>2016-02-21T16:00:38Z</time>
      </trkpt>
      <trkpt lat="43.57814" lon="3.02532">
        <ele>211.15</ele>
        <time>2016-02-21T16:00:39Z</time>
      </trkpt>
      <trkpt lat="43.57811" lon="3.02552">
        <ele>211.15</ele>
        <time>2016-02-21T16:00:40Z</time>
      </trkpt>
      <trkpt lat="43.57811" lon="3.02571">
        <ele>211.15</ele>
        <time>2016-02-21T16:00:41Z</time>
      </trkpt>
      <trkpt lat="43.57814" lon="3.02591">
        <ele>210.67</ele>
        <time>2016-02-21T16:00:42Z</time>
      </trkpt>
      <trkpt lat="43.57819" lon="3.02611">
        <ele>210.67</ele>
        <time>2016-02-21T16:00:43Z</time>
      </trkpt>
      <trkpt lat="43.57826" lon="3.02631">
        <ele>210.19</ele>
        <time>2016-02-21T16:00:44Z</time>
      </trkpt>
      <trkpt lat="43.57835" lon="3.02651">
        <ele>210.19</ele>
        <time>2016-02-21T16:00:45Z</time>
      </trkpt>
      <trkpt lat="43.57912" lon="3.02819">
        <ele>206.34</ele>
        <time>2016-02-21T16:00:52Z</time>
      </trkpt>
      <trkpt lat="43.58032" lon="3.03156">
        <ele>193.84</ele>
        <time>2016-02-21T16:01:03Z</time>
      </trkpt>
      <trkpt lat="43.58049" lon="3.03375">
        <ele>182.31</ele>
        <time>2016-02-21T16:01:09Z</time>
      </trkpt>
      <trkpt lat="43.58011" lon="3.036">
        <ele>175.1</ele>
        <time>2016-02-21T16:01:15Z</time>
      </trkpt>
      <trkpt lat="43.57887" lon="3.04001">
        <ele>173.66</ele>
        <time>2016-02-21T16:01:27Z</time>
      </trkpt>
      <trkpt lat="43.57874" lon="3.04022">
        <ele>173.66</ele>
        <time>2016-02-21T16:01:28Z</time>
      </trkpt>
      <trkpt lat="43.5786" lon="3.04041">
        <ele>173.66</ele>
        <time>2016-02-21T16:01:29Z</time>
      </trkpt>
      <trkpt lat="43.57835" lon="3.04079">
        <ele>174.14</ele>
        <time>2016-02-21T16:01:31Z</time>
      </trkpt>
      <trkpt lat="43.57826" lon="3.04104">
        <ele>174.14</ele>
        <time>2016-02-21T16:01:32Z</time>
      </trkpt>
      <trkpt lat="43.57818" lon="3.0413">
        <ele>173.66</ele>
        <time>2016-02-21T16:01:33Z</time>
      </trkpt>
      <trkpt lat="43.5771" lon="3.04436">
        <ele>170.29</ele>
        <time>2016-02-21T16:01:44Z</time>
      </trkpt>
      <trkpt lat="43.57616" lon="3.04613">
        <ele>167.89</ele>
        <time>2016-02-21T16:01:51Z</time>
      </trkpt>
      <trkpt lat="43.57529" lon="3.0481">
        <ele>165.48</ele>
        <time>2016-02-21T16:01:59Z</time>
      </trkpt>
      <trkpt lat="43.57523" lon="3.04832">
        <ele>165</ele>
        <time>2016-02-21T16:02:00Z</time>
      </trkpt>
      <trkpt lat="43.5752" lon="3.04856">
        <ele>164.52</ele>
        <time>2016-02-21T16:02:01Z</time>
      </trkpt>
      <trkpt lat="43.5752" lon="3.04882">
        <ele>164.04</ele>
        <time>2016-02-21T16:02:02Z</time>
      </trkpt>
      <trkpt lat="43.57522" lon="3.04906">
        <ele>164.04</ele>
        <time>2016-02-21T16:02:03Z</time>
      </trkpt>
      <trkpt lat="43.57528" lon="3.04929">
        <ele>163.08</ele>
        <time>2016-02-21T16:02:04Z</time>
      </trkpt>
      <trkpt lat="43.57536" lon="3.0495">
        <ele>163.08</ele>
        <time>2016-02-21T16:02:05Z</time>
      </trkpt>
      <trkpt lat="43.57549" lon="3.0497">
        <ele>162.6</ele>
        <time>2016-02-21T16:02:06Z</time>
      </trkpt>
      <trkpt lat="43.57564" lon="3.04989">
        <ele>163.08</ele>
        <time>2016-02-21T16:02:07Z</time>
      </trkpt>
      <trkpt lat="43.57582" lon="3.05006">
        <ele>163.56</ele>
        <time>2016-02-21T16:02:08Z</time>
      </trkpt>
      <trkpt lat="43.57599" lon="3.05023">
        <ele>163.56</ele>
        <time>2016-02-21T16:02:09Z</time>
      </trkpt>
      <trkpt lat="43.57723" lon="3.05164">
        <ele>164.52</ele>
        <time>2016-02-21T16:02:17Z</time>
      </trkpt>
      <trkpt lat="43.57734" lon="3.05185">
        <ele>165</ele>
        <time>2016-02-21T16:02:18Z</time>
      </trkpt>
      <trkpt lat="43.57743" lon="3.05206">
        <ele>165</ele>
        <time>2016-02-21T16:02:19Z</time>
      </trkpt>
      <trkpt lat="43.57788" lon="3.05331">
        <ele>164.52</ele>
        <time>2016-02-21T16:02:26Z</time>
      </trkpt>
      <trkpt lat="43.57835" lon="3.05482">
        <ele>163.56</ele>
        <time>2016-02-21T16:02:36Z</time>
      </trkpt>
      <trkpt lat="43.57863" lon="3.05585">
        <ele>163.08</ele>
        <time>2016-02-21T16:02:42Z</time>
      </trkpt>
      <trkpt lat="43.57865" lon="3.05602">
        <ele>163.08</ele>
        <time>2016-02-21T16:02:43Z</time>
      </trkpt>
      <trkpt lat="43.57866" lon="3.0562">
        <ele>163.08</ele>
        <time>2016-02-21T16:02:44Z</time>
      </trkpt>
      <trkpt lat="43.57866" lon="3.05638">
        <ele>163.08</ele>
        <time>2016-02-21T16:02:45Z</time>
      </trkpt>
      <trkpt lat="43.57866" lon="3.05656">
        <ele>163.08</ele>
        <time>2016-02-21T16:02:46Z</time>
      </trkpt>
      <trkpt lat="43.57873" lon="3.05817">
        <ele>163.08</ele>
        <time>2016-02-21T16:02:56Z</time>
      </trkpt>
      <trkpt lat="43.57872" lon="3.05831">
        <ele>163.08</ele>
        <time>2016-02-21T16:02:57Z</time>
      </trkpt>
      <trkpt lat="43.57869" lon="3.05846">
        <ele>163.08</ele>
        <time>2016-02-21T16:02:58Z</time>
      </trkpt>
      <trkpt lat="43.57871" lon="3.05996">
        <ele>165.48</ele>
        <time>2016-02-21T16:03:07Z</time>
      </trkpt>
      <trkpt lat="43.57899" lon="3.06189">
        <ele>164.04</ele>
        <time>2016-02-21T16:03:19Z</time>
      </trkpt>
      <trkpt lat="43.57922" lon="3.06282">
        <ele>165</ele>
        <time>2016-02-21T16:03:25Z</time>
      </trkpt>
      <trkpt lat="43.57928" lon="3.06297">
        <ele>165</ele>
        <time>2016-02-21T16:03:26Z</time>
      </trkpt>
      <trkpt lat="43.57935" lon="3.0631">
        <ele>165.48</ele>
        <time>2016-02-21T16:03:27Z</time>
      </trkpt>
      <trkpt lat="43.58034" lon="3.06438">
        <ele>167.89</ele>
        <time>2016-02-21T16:03:37Z</time>
      </trkpt>
      <trkpt lat="43.58181" lon="3.06624">
        <ele>170.77</ele>
        <time>2016-02-21T16:03:50Z</time>
      </trkpt>
      <trkpt lat="43.58337" lon="3.06821">
        <ele>170.29</ele>
        <time>2016-02-21T16:04:05Z</time>
      </trkpt>
      <trkpt lat="43.58383" lon="3.0688">
        <ele>170.29</ele>
        <time>2016-02-21T16:04:11Z</time>
      </trkpt>
      <trkpt lat="43.58397" lon="3.069">
        <ele>170.77</ele>
        <time>2016-02-21T16:04:13Z</time>
      </trkpt>
      <trkpt lat="43.58471" lon="3.0699">
        <ele>170.29</ele>
        <time>2016-02-21T16:04:20Z</time>
      </trkpt>
      <trkpt lat="43.5857" lon="3.07148">
        <ele>169.81</ele>
        <time>2016-02-21T16:04:29Z</time>
      </trkpt>
      <trkpt lat="43.58659" lon="3.07376">
        <ele>166.45</ele>
        <time>2016-02-21T16:04:39Z</time>
      </trkpt>
      <trkpt lat="43.58706" lon="3.07622">
        <ele>164.04</ele>
        <time>2016-02-21T16:04:48Z</time>
      </trkpt>
      <trkpt lat="43.58719" lon="3.07863">
        <ele>164.52</ele>
        <time>2016-02-21T16:04:57Z</time>
      </trkpt>
      <trkpt lat="43.58722" lon="3.08027">
        <ele>165.48</ele>
        <time>2016-02-21T16:05:04Z</time>
      </trkpt>
      <trkpt lat="43.58719" lon="3.0805">
        <ele>165.48</ele>
        <time>2016-02-21T16:05:05Z</time>
      </trkpt>
      <trkpt lat="43.587" lon="3.08174">
        <ele>166.45</ele>
        <time>2016-02-21T16:05:11Z</time>
      </trkpt>
      <trkpt lat="43.587" lon="3.08192">
        <ele>166.45</ele>
        <time>2016-02-21T16:05:12Z</time>
      </trkpt>
      <trkpt lat="43.58703" lon="3.0828">
        <ele>166.45</ele>
        <time>2016-02-21T16:05:18Z</time>
      </trkpt>
      <trkpt lat="43.58701" lon="3.08291">
        <ele>166.45</ele>
        <time>2016-02-21T16:05:19Z</time>
      </trkpt>
      <trkpt lat="43.58698" lon="3.08302">
        <ele>166.93</ele>
        <time>2016-02-21T16:05:20Z</time>
      </trkpt>
      <trkpt lat="43.58694" lon="3.08313">
        <ele>166.93</ele>
        <time>2016-02-21T16:05:21Z</time>
      </trkpt>
      <trkpt lat="43.58692" lon="3.08326">
        <ele>166.93</ele>
        <time>2016-02-21T16:05:22Z</time>
      </trkpt>
      <trkpt lat="43.58694" lon="3.08338">
        <ele>166.93</ele>
        <time>2016-02-21T16:05:23Z</time>
      </trkpt>
      <trkpt lat="43.587" lon="3.08348">
        <ele>167.41</ele>
        <time>2016-02-21T16:05:24Z</time>
      </trkpt>
      <trkpt lat="43.58708" lon="3.08358">
        <ele>167.41</ele>
        <time>2016-02-21T16:05:25Z</time>
      </trkpt>
      <trkpt lat="43.58716" lon="3.08371">
        <ele>167.41</ele>
        <time>2016-02-21T16:05:26Z</time>
      </trkpt>
      <trkpt lat="43.58723" lon="3.08387">
        <ele>167.89</ele>
        <time>2016-02-21T16:05:27Z</time>
      </trkpt>
      <trkpt lat="43.58728" lon="3.08407">
        <ele>167.89</ele>
        <time>2016-02-21T16:05:28Z</time>
      </trkpt>
      <trkpt lat="43.58733" lon="3.08429">
        <ele>168.37</ele>
        <time>2016-02-21T16:05:29Z</time>
      </trkpt>
      <trkpt lat="43.58769" lon="3.08634">
        <ele>169.33</ele>
        <time>2016-02-21T16:05:37Z</time>
      </trkpt>
      <trkpt lat="43.58832" lon="3.08888">
        <ele>173.17</ele>
        <time>2016-02-21T16:05:47Z</time>
      </trkpt>
      <trkpt lat="43.58835" lon="3.0905">
        <ele>175.58</ele>
        <time>2016-02-21T16:05:53Z</time>
      </trkpt>
      <trkpt lat="43.58821" lon="3.09387">
        <ele>173.66</ele>
        <time>2016-02-21T16:06:06Z</time>
      </trkpt>
      <trkpt lat="43.58819" lon="3.09618">
        <ele>170.77</ele>
        <time>2016-02-21T16:06:15Z</time>
      </trkpt>
      <trkpt lat="43.58861" lon="3.09782">
        <ele>168.85</ele>
        <time>2016-02-21T16:06:22Z</time>
      </trkpt>
      <trkpt lat="43.58982" lon="3.1003">
        <ele>168.85</ele>
        <time>2016-02-21T16:06:35Z</time>
      </trkpt>
      <trkpt lat="43.59042" lon="3.10141">
        <ele>169.81</ele>
        <time>2016-02-21T16:06:41Z</time>
      </trkpt>
      <trkpt lat="43.59056" lon="3.10157">
        <ele>170.29</ele>
        <time>2016-02-21T16:06:42Z</time>
      </trkpt>
      <trkpt lat="43.59177" lon="3.10323">
        <ele>175.1</ele>
        <time>2016-02-21T16:06:51Z</time>
      </trkpt>
      <trkpt lat="43.59225" lon="3.10474">
        <ele>178.46</ele>
        <time>2016-02-21T16:06:58Z</time>
      </trkpt>
      <trkpt lat="43.59259" lon="3.10646">
        <ele>180.87</ele>
        <time>2016-02-21T16:07:08Z</time>
      </trkpt>
      <trkpt lat="43.5926" lon="3.10656">
        <ele>181.35</ele>
        <time>2016-02-21T16:07:09Z</time>
      </trkpt>
      <trkpt lat="43.5926" lon="3.10667">
        <ele>181.83</ele>
        <time>2016-02-21T16:07:10Z</time>
      </trkpt>
      <trkpt lat="43.59259" lon="3.10678">
        <ele>181.83</ele>
        <time>2016-02-21T16:07:11Z</time>
      </trkpt>
      <trkpt lat="43.59257" lon="3.10687">
        <ele>182.31</ele>
        <time>2016-02-21T16:07:12Z</time>
      </trkpt>
      <trkpt lat="43.59256" lon="3.10696">
        <ele>182.31</ele>
        <time>2016-02-21T16:07:13Z</time>
      </trkpt>
      <trkpt lat="43.59258" lon="3.10706">
        <ele>182.31</ele>
        <time>2016-02-21T16:07:14Z</time>
      </trkpt>
      <trkpt lat="43.59263" lon="3.10714">
        <ele>182.79</ele>
        <time>2016-02-21T16:07:15Z</time>
      </trkpt>
      <trkpt lat="43.59268" lon="3.10724">
        <ele>182.79</ele>
        <time>2016-02-21T16:07:16Z</time>
      </trkpt>
      <trkpt lat="43.59273" lon="3.10735">
        <ele>182.79</ele>
        <time>2016-02-21T16:07:17Z</time>
      </trkpt>
      <trkpt lat="43.59276" lon="3.10749">
        <ele>182.79</ele>
        <time>2016-02-21T16:07:18Z</time>
      </trkpt>
      <trkpt lat="43.59279" lon="3.10764">
        <ele>182.79</ele>
        <time>2016-02-21T16:07:19Z</time>
      </trkpt>
      <trkpt lat="43.59281" lon="3.10779">
        <ele>182.79</ele>
        <time>2016-02-21T16:07:20Z</time>
      </trkpt>
      <trkpt lat="43.59305" lon="3.10972">
        <ele>182.31</ele>
        <time>2016-02-21T16:07:32Z</time>
      </trkpt>
      <trkpt lat="43.59315" lon="3.11065">
        <ele>181.83</ele>
        <time>2016-02-21T16:07:41Z</time>
      </trkpt>
      <trkpt lat="43.59324" lon="3.11146">
        <ele>181.83</ele>
        <time>2016-02-21T16:07:49Z</time>
      </trkpt>
      <trkpt lat="43.59334" lon="3.11235">
        <ele>182.31</ele>
        <time>2016-02-21T16:07:59Z</time>
      </trkpt>
      <trkpt lat="43.59345" lon="3.1133">
        <ele>182.79</ele>
        <time>2016-02-21T16:08:08Z</time>
      </trkpt>
      <trkpt lat="43.59352" lon="3.11393">
        <ele>183.27</ele>
        <time>2016-02-21T16:08:18Z</time>
      </trkpt>
      <trkpt lat="43.59355" lon="3.11429">
        <ele>184.23</ele>
        <time>2016-02-21T16:08:26Z</time>
      </trkpt>
      <trkpt lat="43.59356" lon="3.11445">
        <ele>184.23</ele>
        <time>2016-02-21T16:08:28Z</time>
      </trkpt>
      <trkpt lat="43.59367" lon="3.11544">
        <ele>181.83</ele>
        <time>2016-02-21T16:08:40Z</time>
      </trkpt>
      <trkpt lat="43.59383" lon="3.11659">
        <ele>180.38</ele>
        <time>2016-02-21T16:08:50Z</time>
      </trkpt>
      <trkpt lat="43.59384" lon="3.11683">
        <ele>179.9</ele>
        <time>2016-02-21T16:08:52Z</time>
      </trkpt>
      <trkpt lat="43.59402" lon="3.11845">
        <ele>177.5</ele>
        <time>2016-02-21T16:09:05Z</time>
      </trkpt>
      <trkpt lat="43.59404" lon="3.11875">
        <ele>177.02</ele>
        <time>2016-02-21T16:09:08Z</time>
      </trkpt>
      <trkpt lat="43.59403" lon="3.11883">
        <ele>177.5</ele>
        <time>2016-02-21T16:09:09Z</time>
      </trkpt>
      <trkpt lat="43.59402" lon="3.1189">
        <ele>177.5</ele>
        <time>2016-02-21T16:09:10Z</time>
      </trkpt>
      <trkpt lat="43.59399" lon="3.11897">
        <ele>177.5</ele>
        <time>2016-02-21T16:09:11Z</time>
      </trkpt>
      <trkpt lat="43.59396" lon="3.11903">
        <ele>177.98</ele>
        <time>2016-02-21T16:09:12Z</time>
      </trkpt>
      <trkpt lat="43.59392" lon="3.11909">
        <ele>177.98</ele>
        <time>2016-02-21T16:09:13Z</time>
      </trkpt>
      <trkpt lat="43.5939" lon="3.11916">
        <ele>177.98</ele>
        <time>2016-02-21T16:09:14Z</time>
      </trkpt>
      <trkpt lat="43.59391" lon="3.11924">
        <ele>177.98</ele>
        <time>2016-02-21T16:09:15Z</time>
      </trkpt>
      <trkpt lat="43.59395" lon="3.11931">
        <ele>177.98</ele>
        <time>2016-02-21T16:09:16Z</time>
      </trkpt>
      <trkpt lat="43.594" lon="3.11937">
        <ele>177.98</ele>
        <time>2016-02-21T16:09:17Z</time>
      </trkpt>
      <trkpt lat="43.59405" lon="3.11945">
        <ele>177.98</ele>
        <time>2016-02-21T16:09:18Z</time>
      </trkpt>
      <trkpt lat="43.5941" lon="3.11955">
        <ele>177.98</ele>
        <time>2016-02-21T16:09:19Z</time>
      </trkpt>
      <trkpt lat="43.59414" lon="3.11966">
        <ele>177.98</ele>
        <time>2016-02-21T16:09:20Z</time>
      </trkpt>
      <trkpt lat="43.59417" lon="3.11979">
        <ele>178.46</ele>
        <time>2016-02-21T16:09:21Z</time>
      </trkpt>
      <trkpt lat="43.59419" lon="3.11992">
        <ele>178.46</ele>
        <time>2016-02-21T16:09:22Z</time>
      </trkpt>
      <trkpt lat="43.5942" lon="3.12006">
        <ele>178.46</ele>
        <time>2016-02-21T16:09:23Z</time>
      </trkpt>
      <trkpt lat="43.59437" lon="3.12157">
        <ele>178.46</ele>
        <time>2016-02-21T16:09:31Z</time>
      </trkpt>
      <trkpt lat="43.59471" lon="3.12465">
        <ele>177.02</ele>
        <time>2016-02-21T16:09:44Z</time>
      </trkpt>
      <trkpt lat="43.59493" lon="3.1265">
        <ele>175.58</ele>
        <time>2016-02-21T16:09:53Z</time>
      </trkpt>
      <trkpt lat="43.59512" lon="3.1281">
        <ele>176.54</ele>
        <time>2016-02-21T16:10:04Z</time>
      </trkpt>
      <trkpt lat="43.59511" lon="3.12822">
        <ele>177.02</ele>
        <time>2016-02-21T16:10:05Z</time>
      </trkpt>
      <trkpt lat="43.59507" lon="3.12845">
        <ele>177.5</ele>
        <time>2016-02-21T16:10:07Z</time>
      </trkpt>
      <trkpt lat="43.5951" lon="3.12853">
        <ele>177.98</ele>
        <time>2016-02-21T16:10:08Z</time>
      </trkpt>
      <trkpt lat="43.59516" lon="3.1286">
        <ele>177.98</ele>
        <time>2016-02-21T16:10:09Z</time>
      </trkpt>
      <trkpt lat="43.5953" lon="3.12878">
        <ele>177.98</ele>
        <time>2016-02-21T16:10:11Z</time>
      </trkpt>
      <trkpt lat="43.59536" lon="3.12891">
        <ele>178.46</ele>
        <time>2016-02-21T16:10:12Z</time>
      </trkpt>
      <trkpt lat="43.59541" lon="3.12905">
        <ele>178.46</ele>
        <time>2016-02-21T16:10:13Z</time>
      </trkpt>
      <trkpt lat="43.59589" lon="3.13087">
        <ele>179.9</ele>
        <time>2016-02-21T16:10:24Z</time>
      </trkpt>
      <trkpt lat="43.59641" lon="3.13292">
        <ele>179.9</ele>
        <time>2016-02-21T16:10:35Z</time>
      </trkpt>
      <trkpt lat="43.59684" lon="3.13463">
        <ele>181.35</ele>
        <time>2016-02-21T16:10:45Z</time>
      </trkpt>
      <trkpt lat="43.59721" lon="3.13612">
        <ele>181.35</ele>
        <time>2016-02-21T16:10:54Z</time>
      </trkpt>
      <trkpt lat="43.59775" lon="3.13815">
        <ele>180.87</ele>
        <time>2016-02-21T16:11:05Z</time>
      </trkpt>
      <trkpt lat="43.59806" lon="3.13912">
        <ele>180.87</ele>
        <time>2016-02-21T16:11:11Z</time>
      </trkpt>
      <trkpt lat="43.59807" lon="3.13924">
        <ele>180.87</ele>
        <time>2016-02-21T16:11:12Z</time>
      </trkpt>
      <trkpt lat="43.59807" lon="3.13934">
        <ele>180.87</ele>
        <time>2016-02-21T16:11:13Z</time>
      </trkpt>
      <trkpt lat="43.59806" lon="3.13942">
        <ele>181.35</ele>
        <time>2016-02-21T16:11:14Z</time>
      </trkpt>
      <trkpt lat="43.59803" lon="3.1395">
        <ele>181.35</ele>
        <time>2016-02-21T16:11:15Z</time>
      </trkpt>
      <trkpt lat="43.59798" lon="3.13957">
        <ele>181.35</ele>
        <time>2016-02-21T16:11:16Z</time>
      </trkpt>
      <trkpt lat="43.59792" lon="3.13964">
        <ele>181.83</ele>
        <time>2016-02-21T16:11:17Z</time>
      </trkpt>
      <trkpt lat="43.59787" lon="3.13973">
        <ele>181.83</ele>
        <time>2016-02-21T16:11:18Z</time>
      </trkpt>
      <trkpt lat="43.59783" lon="3.13984">
        <ele>181.83</ele>
        <time>2016-02-21T16:11:19Z</time>
      </trkpt>
      <trkpt lat="43.59777" lon="3.13994">
        <ele>181.83</ele>
        <time>2016-02-21T16:11:20Z</time>
      </trkpt>
      <trkpt lat="43.59771" lon="3.14004">
        <ele>181.83</ele>
        <time>2016-02-21T16:11:21Z</time>
      </trkpt>
      <trkpt lat="43.59762" lon="3.14011">
        <ele>181.35</ele>
        <time>2016-02-21T16:11:22Z</time>
      </trkpt>
      <trkpt lat="43.59752" lon="3.14016">
        <ele>181.35</ele>
        <time>2016-02-21T16:11:23Z</time>
      </trkpt>
      <trkpt lat="43.59741" lon="3.1402">
        <ele>181.35</ele>
        <time>2016-02-21T16:11:24Z</time>
      </trkpt>
      <trkpt lat="43.59729" lon="3.14022">
        <ele>180.87</ele>
        <time>2016-02-21T16:11:25Z</time>
      </trkpt>
      <trkpt lat="43.59716" lon="3.14024">
        <ele>181.35</ele>
        <time>2016-02-21T16:11:26Z</time>
      </trkpt>
      <trkpt lat="43.59675" lon="3.14032">
        <ele>182.31</ele>
        <time>2016-02-21T16:11:29Z</time>
      </trkpt>
      <trkpt lat="43.59663" lon="3.1404">
        <ele>182.79</ele>
        <time>2016-02-21T16:11:30Z</time>
      </trkpt>
      <trkpt lat="43.59651" lon="3.14051">
        <ele>183.27</ele>
        <time>2016-02-21T16:11:31Z</time>
      </trkpt>
      <trkpt lat="43.59555" lon="3.14158">
        <ele>188.08</ele>
        <time>2016-02-21T16:11:41Z</time>
      </trkpt>
      <trkpt lat="43.59548" lon="3.14165">
        <ele>188.56</ele>
        <time>2016-02-21T16:11:42Z</time>
      </trkpt>
      <trkpt lat="43.59541" lon="3.14172">
        <ele>189.04</ele>
        <time>2016-02-21T16:11:43Z</time>
      </trkpt>
      <trkpt lat="43.59534" lon="3.14177">
        <ele>189.52</ele>
        <time>2016-02-21T16:11:44Z</time>
      </trkpt>
      <trkpt lat="43.59518" lon="3.14188">
        <ele>190.48</ele>
        <time>2016-02-21T16:11:46Z</time>
      </trkpt>
      <trkpt lat="43.59514" lon="3.14196">
        <ele>190.48</ele>
        <time>2016-02-21T16:11:47Z</time>
      </trkpt>
      <trkpt lat="43.59512" lon="3.14207">
        <ele>190.48</ele>
        <time>2016-02-21T16:11:48Z</time>
      </trkpt>
      <trkpt lat="43.59515" lon="3.14218">
        <ele>190.48</ele>
        <time>2016-02-21T16:11:49Z</time>
      </trkpt>
      <trkpt lat="43.59521" lon="3.14228">
        <ele>190</ele>
        <time>2016-02-21T16:11:50Z</time>
      </trkpt>
      <trkpt lat="43.5953" lon="3.14234">
        <ele>189.04</ele>
        <time>2016-02-21T16:11:51Z</time>
      </trkpt>
      <trkpt lat="43.59541" lon="3.14237">
        <ele>189.04</ele>
        <time>2016-02-21T16:11:52Z</time>
      </trkpt>
      <trkpt lat="43.59554" lon="3.14242">
        <ele>188.56</ele>
        <time>2016-02-21T16:11:53Z</time>
      </trkpt>
      <trkpt lat="43.59567" lon="3.1425">
        <ele>188.56</ele>
        <time>2016-02-21T16:11:54Z</time>
      </trkpt>
      <trkpt lat="43.59581" lon="3.14261">
        <ele>188.08</ele>
        <time>2016-02-21T16:11:55Z</time>
      </trkpt>
      <trkpt lat="43.59596" lon="3.14276">
        <ele>188.08</ele>
        <time>2016-02-21T16:11:56Z</time>
      </trkpt>
      <trkpt lat="43.59609" lon="3.14292">
        <ele>187.59</ele>
        <time>2016-02-21T16:11:57Z</time>
      </trkpt>
      <trkpt lat="43.59622" lon="3.14311">
        <ele>187.59</ele>
        <time>2016-02-21T16:11:58Z</time>
      </trkpt>
      <trkpt lat="43.59635" lon="3.14331">
        <ele>187.59</ele>
        <time>2016-02-21T16:11:59Z</time>
      </trkpt>
      <trkpt lat="43.59647" lon="3.14354">
        <ele>187.11</ele>
        <time>2016-02-21T16:12:00Z</time>
      </trkpt>
      <trkpt lat="43.59658" lon="3.14378">
        <ele>187.11</ele>
        <time>2016-02-21T16:12:01Z</time>
      </trkpt>
      <trkpt lat="43.59763" lon="3.14647">
        <ele>197.21</ele>
        <time>2016-02-21T16:12:11Z</time>
      </trkpt>
      <trkpt lat="43.59808" lon="3.14908">
        <ele>212.59</ele>
        <time>2016-02-21T16:12:19Z</time>
      </trkpt>
      <trkpt lat="43.59867" lon="3.15155">
        <ele>224.12</ele>
        <time>2016-02-21T16:12:27Z</time>
      </trkpt>
      <trkpt lat="43.59896" lon="3.15206">
        <ele>226.05</ele>
        <time>2016-02-21T16:12:29Z</time>
      </trkpt>
      <trkpt lat="43.59913" lon="3.15228">
        <ele>226.53</ele>
        <time>2016-02-21T16:12:30Z</time>
      </trkpt>
      <trkpt lat="43.60037" lon="3.15366">
        <ele>225.09</ele>
        <time>2016-02-21T16:12:38Z</time>
      </trkpt>
      <trkpt lat="43.6014" lon="3.15487">
        <ele>225.09</ele>
        <time>2016-02-21T16:12:44Z</time>
      </trkpt>
      <trkpt lat="43.60155" lon="3.15512">
        <ele>225.57</ele>
        <time>2016-02-21T16:12:45Z</time>
      </trkpt>
      <trkpt lat="43.60168" lon="3.15539">
        <ele>226.53</ele>
        <time>2016-02-21T16:12:46Z</time>
      </trkpt>
      <trkpt lat="43.6018" lon="3.15567">
        <ele>227.49</ele>
        <time>2016-02-21T16:12:47Z</time>
      </trkpt>
      <trkpt lat="43.60191" lon="3.15597">
        <ele>228.93</ele>
        <time>2016-02-21T16:12:48Z</time>
      </trkpt>
      <trkpt lat="43.60198" lon="3.15627">
        <ele>230.37</ele>
        <time>2016-02-21T16:12:49Z</time>
      </trkpt>
      <trkpt lat="43.60204" lon="3.15659">
        <ele>232.3</ele>
        <time>2016-02-21T16:12:50Z</time>
      </trkpt>
      <trkpt lat="43.60208" lon="3.15691">
        <ele>233.74</ele>
        <time>2016-02-21T16:12:51Z</time>
      </trkpt>
      <trkpt lat="43.6021" lon="3.15724">
        <ele>235.66</ele>
        <time>2016-02-21T16:12:52Z</time>
      </trkpt>
      <trkpt lat="43.60211" lon="3.15757">
        <ele>237.1</ele>
        <time>2016-02-21T16:12:53Z</time>
      </trkpt>
      <trkpt lat="43.60222" lon="3.16291">
        <ele>245.75</ele>
        <time>2016-02-21T16:13:09Z</time>
      </trkpt>
      <trkpt lat="43.60243" lon="3.16512">
        <ele>237.1</ele>
        <time>2016-02-21T16:13:16Z</time>
      </trkpt>
      <trkpt lat="43.60266" lon="3.16574">
        <ele>233.74</ele>
        <time>2016-02-21T16:13:18Z</time>
      </trkpt>
      <trkpt lat="43.6028" lon="3.16603">
        <ele>231.81</ele>
        <time>2016-02-21T16:13:19Z</time>
      </trkpt>
      <trkpt lat="43.60297" lon="3.1663">
        <ele>230.37</ele>
        <time>2016-02-21T16:13:20Z</time>
      </trkpt>
      <trkpt lat="43.60316" lon="3.16656">
        <ele>228.45</ele>
        <time>2016-02-21T16:13:21Z</time>
      </trkpt>
      <trkpt lat="43.60337" lon="3.16679">
        <ele>227.01</ele>
        <time>2016-02-21T16:13:22Z</time>
      </trkpt>
      <trkpt lat="43.6036" lon="3.16699">
        <ele>225.57</ele>
        <time>2016-02-21T16:13:23Z</time>
      </trkpt>
      <trkpt lat="43.60384" lon="3.16716">
        <ele>224.12</ele>
        <time>2016-02-21T16:13:24Z</time>
      </trkpt>
      <trkpt lat="43.6041" lon="3.1673">
        <ele>223.16</ele>
        <time>2016-02-21T16:13:25Z</time>
      </trkpt>
      <trkpt lat="43.60436" lon="3.1674">
        <ele>222.68</ele>
        <time>2016-02-21T16:13:26Z</time>
      </trkpt>
      <trkpt lat="43.60463" lon="3.16747">
        <ele>222.68</ele>
        <time>2016-02-21T16:13:27Z</time>
      </trkpt>
      <trkpt lat="43.60489" lon="3.16752">
        <ele>222.68</ele>
        <time>2016-02-21T16:13:28Z</time>
      </trkpt>
      <trkpt lat="43.60591" lon="3.1678">
        <ele>226.05</ele>
        <time>2016-02-21T16:13:32Z</time>
      </trkpt>
      <trkpt lat="43.60616" lon="3.16793">
        <ele>227.49</ele>
        <time>2016-02-21T16:13:33Z</time>
      </trkpt>
      <trkpt lat="43.6064" lon="3.1681">
        <ele>229.41</ele>
        <time>2016-02-21T16:13:34Z</time>
      </trkpt>
      <trkpt lat="43.60663" lon="3.16829">
        <ele>230.37</ele>
        <time>2016-02-21T16:13:35Z</time>
      </trkpt>
      <trkpt lat="43.60686" lon="3.1685">
        <ele>231.81</ele>
        <time>2016-02-21T16:13:36Z</time>
      </trkpt>
      <trkpt lat="43.60936" lon="3.171">
        <ele>232.3</ele>
        <time>2016-02-21T16:13:48Z</time>
      </trkpt>
      <trkpt lat="43.61024" lon="3.17194">
        <ele>227.01</ele>
        <time>2016-02-21T16:13:55Z</time>
      </trkpt>
      <trkpt lat="43.61029" lon="3.17204">
        <ele>227.49</ele>
        <time>2016-02-21T16:13:56Z</time>
      </trkpt>
      <trkpt lat="43.61038" lon="3.17226">
        <ele>227.49</ele>
        <time>2016-02-21T16:13:58Z</time>
      </trkpt>
      <trkpt lat="43.61045" lon="3.17234">
        <ele>227.01</ele>
        <time>2016-02-21T16:13:59Z</time>
      </trkpt>
      <trkpt lat="43.61054" lon="3.1724">
        <ele>226.53</ele>
        <time>2016-02-21T16:14:00Z</time>
      </trkpt>
      <trkpt lat="43.61063" lon="3.17248">
        <ele>226.05</ele>
        <time>2016-02-21T16:14:01Z</time>
      </trkpt>
      <trkpt lat="43.61072" lon="3.17259">
        <ele>226.05</ele>
        <time>2016-02-21T16:14:02Z</time>
      </trkpt>
      <trkpt lat="43.61079" lon="3.17272">
        <ele>225.57</ele>
        <time>2016-02-21T16:14:03Z</time>
      </trkpt>
      <trkpt lat="43.61086" lon="3.17287">
        <ele>225.09</ele>
        <time>2016-02-21T16:14:04Z</time>
      </trkpt>
      <trkpt lat="43.61092" lon="3.17301">
        <ele>225.09</ele>
        <time>2016-02-21T16:14:05Z</time>
      </trkpt>
      <trkpt lat="43.61137" lon="3.17423">
        <ele>225.09</ele>
        <time>2016-02-21T16:14:15Z</time>
      </trkpt>
      <trkpt lat="43.61139" lon="3.17427">
        <ele>224.61</ele>
        <time>2016-02-21T16:14:23Z</time>
      </trkpt>
      <trkpt lat="43.61137" lon="3.17424">
        <ele>224.12</ele>
        <time>2016-02-21T16:15:12Z</time>
      </trkpt>
      <trkpt lat="43.61137" lon="3.17424">
        <ele>226.53</ele>
        <time>2016-02-21T16:18:49Z</time>
      </trkpt>
      <trkpt lat="43.61139" lon="3.17424">
        <ele>227.97</ele>
        <time>2016-02-21T16:19:09Z</time>
      </trkpt>
      <trkpt lat="43.61139" lon="3.17424">
        <ele>228.45</ele>
        <time>2016-02-21T16:19:17Z</time>
      </trkpt>
      <trkpt lat="43.61146" lon="3.17434">
        <ele>228.45</ele>
        <time>2016-02-21T16:19:20Z</time>
      </trkpt>
      <trkpt lat="43.6115" lon="3.17444">
        <ele>228.93</ele>
        <time>2016-02-21T16:19:21Z</time>
      </trkpt>
      <trkpt lat="43.61156" lon="3.17457">
        <ele>228.93</ele>
        <time>2016-02-21T16:19:22Z</time>
      </trkpt>
      <trkpt lat="43.61201" lon="3.17588">
        <ele>233.26</ele>
        <time>2016-02-21T16:19:29Z</time>
      </trkpt>
      <trkpt lat="43.61208" lon="3.1777">
        <ele>239.51</ele>
        <time>2016-02-21T16:19:36Z</time>
      </trkpt>
      <trkpt lat="43.61214" lon="3.18075">
        <ele>243.35</ele>
        <time>2016-02-21T16:19:46Z</time>
      </trkpt>
      <trkpt lat="43.61273" lon="3.18213">
        <ele>245.75</ele>
        <time>2016-02-21T16:19:51Z</time>
      </trkpt>
      <trkpt lat="43.61433" lon="3.18482">
        <ele>259.69</ele>
        <time>2016-02-21T16:20:03Z</time>
      </trkpt>
      <trkpt lat="43.6152" lon="3.18682">
        <ele>268.83</ele>
        <time>2016-02-21T16:20:11Z</time>
      </trkpt>
      <trkpt lat="43.6162" lon="3.18975">
        <ele>278.92</ele>
        <time>2016-02-21T16:20:22Z</time>
      </trkpt>
      <trkpt lat="43.61724" lon="3.1924">
        <ele>278.44</ele>
        <time>2016-02-21T16:20:32Z</time>
      </trkpt>
      <trkpt lat="43.61837" lon="3.1962">
        <ele>274.11</ele>
        <time>2016-02-21T16:20:46Z</time>
      </trkpt>
      <trkpt lat="43.6187" lon="3.19928">
        <ele>277.48</ele>
        <time>2016-02-21T16:20:57Z</time>
      </trkpt>
      <trkpt lat="43.61924" lon="3.20258">
        <ele>284.69</ele>
        <time>2016-02-21T16:21:09Z</time>
      </trkpt>
      <trkpt lat="43.62065" lon="3.20553">
        <ele>289.97</ele>
        <time>2016-02-21T16:21:21Z</time>
      </trkpt>
      <trkpt lat="43.62167" lon="3.20663">
        <ele>293.34</ele>
        <time>2016-02-21T16:21:27Z</time>
      </trkpt>
      <trkpt lat="43.62403" lon="3.20844">
        <ele>299.11</ele>
        <time>2016-02-21T16:21:40Z</time>
      </trkpt>
      <trkpt lat="43.6242" lon="3.20862">
        <ele>299.59</ele>
        <time>2016-02-21T16:21:41Z</time>
      </trkpt>
      <trkpt lat="43.62435" lon="3.20882">
        <ele>300.07</ele>
        <time>2016-02-21T16:21:42Z</time>
      </trkpt>
      <trkpt lat="43.62448" lon="3.20905">
        <ele>300.55</ele>
        <time>2016-02-21T16:21:43Z</time>
      </trkpt>
      <trkpt lat="43.62459" lon="3.2093">
        <ele>301.03</ele>
        <time>2016-02-21T16:21:44Z</time>
      </trkpt>
      <trkpt lat="43.62468" lon="3.20956">
        <ele>301.51</ele>
        <time>2016-02-21T16:21:45Z</time>
      </trkpt>
      <trkpt lat="43.62474" lon="3.20984">
        <ele>301.99</ele>
        <time>2016-02-21T16:21:46Z</time>
      </trkpt>
      <trkpt lat="43.62478" lon="3.21013">
        <ele>302.95</ele>
        <time>2016-02-21T16:21:47Z</time>
      </trkpt>
      <trkpt lat="43.62481" lon="3.21043">
        <ele>303.43</ele>
        <time>2016-02-21T16:21:48Z</time>
      </trkpt>
      <trkpt lat="43.62483" lon="3.21075">
        <ele>303.91</ele>
        <time>2016-02-21T16:21:49Z</time>
      </trkpt>
      <trkpt lat="43.62494" lon="3.21285">
        <ele>306.8</ele>
        <time>2016-02-21T16:21:55Z</time>
      </trkpt>
      <trkpt lat="43.625" lon="3.21348">
        <ele>307.76</ele>
        <time>2016-02-21T16:21:57Z</time>
      </trkpt>
      <trkpt lat="43.62506" lon="3.21378">
        <ele>308.24</ele>
        <time>2016-02-21T16:21:58Z</time>
      </trkpt>
      <trkpt lat="43.62514" lon="3.21406">
        <ele>308.72</ele>
        <time>2016-02-21T16:21:59Z</time>
      </trkpt>
      <trkpt lat="43.62525" lon="3.21433">
        <ele>309.2</ele>
        <time>2016-02-21T16:22:00Z</time>
      </trkpt>
      <trkpt lat="43.62536" lon="3.21459">
        <ele>310.16</ele>
        <time>2016-02-21T16:22:01Z</time>
      </trkpt>
      <trkpt lat="43.62586" lon="3.21558">
        <ele>312.57</ele>
        <time>2016-02-21T16:22:05Z</time>
      </trkpt>
      <trkpt lat="43.62602" lon="3.21578">
        <ele>313.05</ele>
        <time>2016-02-21T16:22:06Z</time>
      </trkpt>
      <trkpt lat="43.62622" lon="3.21594">
        <ele>313.53</ele>
        <time>2016-02-21T16:22:07Z</time>
      </trkpt>
      <trkpt lat="43.62642" lon="3.21608">
        <ele>314.49</ele>
        <time>2016-02-21T16:22:08Z</time>
      </trkpt>
      <trkpt lat="43.62662" lon="3.2162">
        <ele>314.97</ele>
        <time>2016-02-21T16:22:09Z</time>
      </trkpt>
      <trkpt lat="43.6276" lon="3.21691">
        <ele>317.85</ele>
        <time>2016-02-21T16:22:14Z</time>
      </trkpt>
      <trkpt lat="43.62777" lon="3.21712">
        <ele>318.81</ele>
        <time>2016-02-21T16:22:15Z</time>
      </trkpt>
      <trkpt lat="43.62792" lon="3.21736">
        <ele>319.3</ele>
        <time>2016-02-21T16:22:16Z</time>
      </trkpt>
      <trkpt lat="43.62925" lon="3.21998">
        <ele>331.31</ele>
        <time>2016-02-21T16:22:26Z</time>
      </trkpt>
      <trkpt lat="43.62982" lon="3.22121">
        <ele>337.56</ele>
        <time>2016-02-21T16:22:31Z</time>
      </trkpt>
      <trkpt lat="43.62991" lon="3.22148">
        <ele>339</ele>
        <time>2016-02-21T16:22:32Z</time>
      </trkpt>
      <trkpt lat="43.62996" lon="3.22177">
        <ele>340.44</ele>
        <time>2016-02-21T16:22:33Z</time>
      </trkpt>
      <trkpt lat="43.63" lon="3.22207">
        <ele>341.41</ele>
        <time>2016-02-21T16:22:34Z</time>
      </trkpt>
      <trkpt lat="43.63" lon="3.22238">
        <ele>342.85</ele>
        <time>2016-02-21T16:22:35Z</time>
      </trkpt>
      <trkpt lat="43.62997" lon="3.22269">
        <ele>343.81</ele>
        <time>2016-02-21T16:22:36Z</time>
      </trkpt>
      <trkpt lat="43.62991" lon="3.223">
        <ele>344.77</ele>
        <time>2016-02-21T16:22:37Z</time>
      </trkpt>
      <trkpt lat="43.62983" lon="3.22329">
        <ele>346.21</ele>
        <time>2016-02-21T16:22:38Z</time>
      </trkpt>
      <trkpt lat="43.62971" lon="3.22357">
        <ele>347.65</ele>
        <time>2016-02-21T16:22:39Z</time>
      </trkpt>
      <trkpt lat="43.62958" lon="3.22384">
        <ele>349.58</ele>
        <time>2016-02-21T16:22:40Z</time>
      </trkpt>
      <trkpt lat="43.62945" lon="3.22411">
        <ele>351.02</ele>
        <time>2016-02-21T16:22:41Z</time>
      </trkpt>
      <trkpt lat="43.628" lon="3.2265">
        <ele>365.44</ele>
        <time>2016-02-21T16:22:51Z</time>
      </trkpt>
      <trkpt lat="43.62782" lon="3.22667">
        <ele>367.36</ele>
        <time>2016-02-21T16:22:52Z</time>
      </trkpt>
      <trkpt lat="43.6271" lon="3.22733">
        <ele>374.09</ele>
        <time>2016-02-21T16:22:56Z</time>
      </trkpt>
      <trkpt lat="43.62695" lon="3.22754">
        <ele>376.01</ele>
        <time>2016-02-21T16:22:57Z</time>
      </trkpt>
      <trkpt lat="43.62682" lon="3.22778">
        <ele>376.97</ele>
        <time>2016-02-21T16:22:58Z</time>
      </trkpt>
      <trkpt lat="43.6267" lon="3.22803">
        <ele>377.94</ele>
        <time>2016-02-21T16:22:59Z</time>
      </trkpt>
      <trkpt lat="43.62659" lon="3.2283">
        <ele>379.38</ele>
        <time>2016-02-21T16:23:00Z</time>
      </trkpt>
      <trkpt lat="43.6265" lon="3.22858">
        <ele>380.82</ele>
        <time>2016-02-21T16:23:01Z</time>
      </trkpt>
      <trkpt lat="43.62545" lon="3.23125">
        <ele>395.24</ele>
        <time>2016-02-21T16:23:11Z</time>
      </trkpt>
      <trkpt lat="43.62528" lon="3.23148">
        <ele>396.68</ele>
        <time>2016-02-21T16:23:12Z</time>
      </trkpt>
      <trkpt lat="43.6251" lon="3.23168">
        <ele>398.6</ele>
        <time>2016-02-21T16:23:13Z</time>
      </trkpt>
      <trkpt lat="43.62345" lon="3.23328">
        <ele>413.02</ele>
        <time>2016-02-21T16:23:22Z</time>
      </trkpt>
      <trkpt lat="43.62331" lon="3.23348">
        <ele>413.98</ele>
        <time>2016-02-21T16:23:23Z</time>
      </trkpt>
      <trkpt lat="43.6232" lon="3.23371">
        <ele>414.47</ele>
        <time>2016-02-21T16:23:24Z</time>
      </trkpt>
      <trkpt lat="43.6231" lon="3.23395">
        <ele>414.95</ele>
        <time>2016-02-21T16:23:25Z</time>
      </trkpt>
      <trkpt lat="43.62302" lon="3.23422">
        <ele>415.43</ele>
        <time>2016-02-21T16:23:26Z</time>
      </trkpt>
      <trkpt lat="43.62296" lon="3.23449">
        <ele>415.43</ele>
        <time>2016-02-21T16:23:27Z</time>
      </trkpt>
      <trkpt lat="43.62292" lon="3.23478">
        <ele>414.95</ele>
        <time>2016-02-21T16:23:28Z</time>
      </trkpt>
      <trkpt lat="43.62291" lon="3.23509">
        <ele>414.47</ele>
        <time>2016-02-21T16:23:29Z</time>
      </trkpt>
      <trkpt lat="43.62291" lon="3.2354">
        <ele>413.98</ele>
        <time>2016-02-21T16:23:30Z</time>
      </trkpt>
      <trkpt lat="43.62291" lon="3.23573">
        <ele>413.02</ele>
        <time>2016-02-21T16:23:31Z</time>
      </trkpt>
      <trkpt lat="43.62292" lon="3.23703">
        <ele>410.14</ele>
        <time>2016-02-21T16:23:35Z</time>
      </trkpt>
      <trkpt lat="43.62288" lon="3.23734">
        <ele>409.18</ele>
        <time>2016-02-21T16:23:36Z</time>
      </trkpt>
      <trkpt lat="43.62281" lon="3.23764">
        <ele>408.22</ele>
        <time>2016-02-21T16:23:37Z</time>
      </trkpt>
      <trkpt lat="43.62271" lon="3.23794">
        <ele>407.74</ele>
        <time>2016-02-21T16:23:38Z</time>
      </trkpt>
      <trkpt lat="43.62259" lon="3.23823">
        <ele>406.77</ele>
        <time>2016-02-21T16:23:39Z</time>
      </trkpt>
      <trkpt lat="43.62246" lon="3.23851">
        <ele>405.81</ele>
        <time>2016-02-21T16:23:40Z</time>
      </trkpt>
      <trkpt lat="43.62131" lon="3.24145">
        <ele>401.49</ele>
        <time>2016-02-21T16:23:50Z</time>
      </trkpt>
      <trkpt lat="43.62049" lon="3.24453">
        <ele>400.05</ele>
        <time>2016-02-21T16:24:01Z</time>
      </trkpt>
      <trkpt lat="43.61962" lon="3.24698">
        <ele>401.97</ele>
        <time>2016-02-21T16:24:11Z</time>
      </trkpt>
      <trkpt lat="43.61771" lon="3.25009">
        <ele>408.22</ele>
        <time>2016-02-21T16:24:26Z</time>
      </trkpt>
      <trkpt lat="43.6156" lon="3.25332">
        <ele>416.87</ele>
        <time>2016-02-21T16:24:41Z</time>
      </trkpt>
      <trkpt lat="43.61303" lon="3.25618">
        <ele>415.91</ele>
        <time>2016-02-21T16:24:57Z</time>
      </trkpt>
      <trkpt lat="43.61261" lon="3.25686">
        <ele>415.43</ele>
        <time>2016-02-21T16:25:00Z</time>
      </trkpt>
      <trkpt lat="43.6125" lon="3.25711">
        <ele>415.43</ele>
        <time>2016-02-21T16:25:01Z</time>
      </trkpt>
      <trkpt lat="43.6124" lon="3.25738">
        <ele>414.95</ele>
        <time>2016-02-21T16:25:02Z</time>
      </trkpt>
      <trkpt lat="43.61233" lon="3.25765">
        <ele>414.47</ele>
        <time>2016-02-21T16:25:03Z</time>
      </trkpt>
      <trkpt lat="43.61228" lon="3.25793">
        <ele>413.98</ele>
        <time>2016-02-21T16:25:04Z</time>
      </trkpt>
      <trkpt lat="43.61225" lon="3.25821">
        <ele>413.5</ele>
        <time>2016-02-21T16:25:05Z</time>
      </trkpt>
      <trkpt lat="43.61223" lon="3.25849">
        <ele>413.02</ele>
        <time>2016-02-21T16:25:06Z</time>
      </trkpt>
      <trkpt lat="43.61224" lon="3.25878">
        <ele>412.54</ele>
        <time>2016-02-21T16:25:07Z</time>
      </trkpt>
      <trkpt lat="43.61225" lon="3.25907">
        <ele>411.58</ele>
        <time>2016-02-21T16:25:08Z</time>
      </trkpt>
      <trkpt lat="43.61228" lon="3.25939">
        <ele>411.1</ele>
        <time>2016-02-21T16:25:09Z</time>
      </trkpt>
      <trkpt lat="43.61233" lon="3.25973">
        <ele>410.62</ele>
        <time>2016-02-21T16:25:10Z</time>
      </trkpt>
      <trkpt lat="43.61274" lon="3.26237">
        <ele>405.81</ele>
        <time>2016-02-21T16:25:17Z</time>
      </trkpt>
      <trkpt lat="43.61305" lon="3.26494">
        <ele>401.49</ele>
        <time>2016-02-21T16:25:24Z</time>
      </trkpt>
      <trkpt lat="43.61304" lon="3.26529">
        <ele>401.01</ele>
        <time>2016-02-21T16:25:25Z</time>
      </trkpt>
      <trkpt lat="43.613" lon="3.26564">
        <ele>400.05</ele>
        <time>2016-02-21T16:25:26Z</time>
      </trkpt>
      <trkpt lat="43.61294" lon="3.26597">
        <ele>399.57</ele>
        <time>2016-02-21T16:25:27Z</time>
      </trkpt>
      <trkpt lat="43.61285" lon="3.2663">
        <ele>399.08</ele>
        <time>2016-02-21T16:25:28Z</time>
      </trkpt>
      <trkpt lat="43.61274" lon="3.26661">
        <ele>398.12</ele>
        <time>2016-02-21T16:25:29Z</time>
      </trkpt>
      <trkpt lat="43.61258" lon="3.26688">
        <ele>397.64</ele>
        <time>2016-02-21T16:25:30Z</time>
      </trkpt>
      <trkpt lat="43.61241" lon="3.26714">
        <ele>397.16</ele>
        <time>2016-02-21T16:25:31Z</time>
      </trkpt>
      <trkpt lat="43.61222" lon="3.26737">
        <ele>396.68</ele>
        <time>2016-02-21T16:25:32Z</time>
      </trkpt>
      <trkpt lat="43.61202" lon="3.26757">
        <ele>396.2</ele>
        <time>2016-02-21T16:25:33Z</time>
      </trkpt>
      <trkpt lat="43.61181" lon="3.26775">
        <ele>395.72</ele>
        <time>2016-02-21T16:25:34Z</time>
      </trkpt>
      <trkpt lat="43.61159" lon="3.26792">
        <ele>395.72</ele>
        <time>2016-02-21T16:25:35Z</time>
      </trkpt>
      <trkpt lat="43.60957" lon="3.26928">
        <ele>395.24</ele>
        <time>2016-02-21T16:25:44Z</time>
      </trkpt>
      <trkpt lat="43.60773" lon="3.27132">
        <ele>392.84</ele>
        <time>2016-02-21T16:25:54Z</time>
      </trkpt>
      <trkpt lat="43.6074" lon="3.27212">
        <ele>391.39</ele>
        <time>2016-02-21T16:25:57Z</time>
      </trkpt>
      <trkpt lat="43.60734" lon="3.27241">
        <ele>390.91</ele>
        <time>2016-02-21T16:25:58Z</time>
      </trkpt>
      <trkpt lat="43.60729" lon="3.27272">
        <ele>390.43</ele>
        <time>2016-02-21T16:25:59Z</time>
      </trkpt>
      <trkpt lat="43.60728" lon="3.27303">
        <ele>389.95</ele>
        <time>2016-02-21T16:26:00Z</time>
      </trkpt>
      <trkpt lat="43.60728" lon="3.27335">
        <ele>388.99</ele>
        <time>2016-02-21T16:26:01Z</time>
      </trkpt>
      <trkpt lat="43.6073" lon="3.27367">
        <ele>388.51</ele>
        <time>2016-02-21T16:26:02Z</time>
      </trkpt>
      <trkpt lat="43.60735" lon="3.27399">
        <ele>388.03</ele>
        <time>2016-02-21T16:26:03Z</time>
      </trkpt>
      <trkpt lat="43.60742" lon="3.27432">
        <ele>387.55</ele>
        <time>2016-02-21T16:26:04Z</time>
      </trkpt>
      <trkpt lat="43.6075" lon="3.27463">
        <ele>386.59</ele>
        <time>2016-02-21T16:26:05Z</time>
      </trkpt>
      <trkpt lat="43.60871" lon="3.27848">
        <ele>374.57</ele>
        <time>2016-02-21T16:26:17Z</time>
      </trkpt>
      <trkpt lat="43.61037" lon="3.28372">
        <ele>363.52</ele>
        <time>2016-02-21T16:26:33Z</time>
      </trkpt>
      <trkpt lat="43.61091" lon="3.28604">
        <ele>361.59</ele>
        <time>2016-02-21T16:26:41Z</time>
      </trkpt>
      <trkpt lat="43.61094" lon="3.28817">
        <ele>364</ele>
        <time>2016-02-21T16:26:49Z</time>
      </trkpt>
      <trkpt lat="43.61099" lon="3.29218">
        <ele>368.8</ele>
        <time>2016-02-21T16:27:04Z</time>
      </trkpt>
      <trkpt lat="43.611" lon="3.29654">
        <ele>380.82</ele>
        <time>2016-02-21T16:27:19Z</time>
      </trkpt>
      <trkpt lat="43.61109" lon="3.29799">
        <ele>381.78</ele>
        <time>2016-02-21T16:27:25Z</time>
      </trkpt>
      <trkpt lat="43.61115" lon="3.29822">
        <ele>381.78</ele>
        <time>2016-02-21T16:27:26Z</time>
      </trkpt>
      <trkpt lat="43.61123" lon="3.29844">
        <ele>381.78</ele>
        <time>2016-02-21T16:27:27Z</time>
      </trkpt>
      <trkpt lat="43.61133" lon="3.29865">
        <ele>381.3</ele>
        <time>2016-02-21T16:27:28Z</time>
      </trkpt>
      <trkpt lat="43.61144" lon="3.29886">
        <ele>381.3</ele>
        <time>2016-02-21T16:27:29Z</time>
      </trkpt>
      <trkpt lat="43.61157" lon="3.29905">
        <ele>381.3</ele>
        <time>2016-02-21T16:27:30Z</time>
      </trkpt>
      <trkpt lat="43.6117" lon="3.29921">
        <ele>381.3</ele>
        <time>2016-02-21T16:27:31Z</time>
      </trkpt>
      <trkpt lat="43.61184" lon="3.29938">
        <ele>381.3</ele>
        <time>2016-02-21T16:27:32Z</time>
      </trkpt>
      <trkpt lat="43.61234" lon="3.30012">
        <ele>380.34</ele>
        <time>2016-02-21T16:27:36Z</time>
      </trkpt>
      <trkpt lat="43.61244" lon="3.30035">
        <ele>380.34</ele>
        <time>2016-02-21T16:27:37Z</time>
      </trkpt>
      <trkpt lat="43.61251" lon="3.30059">
        <ele>380.34</ele>
        <time>2016-02-21T16:27:38Z</time>
      </trkpt>
      <trkpt lat="43.61257" lon="3.30084">
        <ele>380.34</ele>
        <time>2016-02-21T16:27:39Z</time>
      </trkpt>
      <trkpt lat="43.61261" lon="3.3011">
        <ele>380.34</ele>
        <time>2016-02-21T16:27:40Z</time>
      </trkpt>
      <trkpt lat="43.61263" lon="3.30136">
        <ele>379.86</ele>
        <time>2016-02-21T16:27:41Z</time>
      </trkpt>
      <trkpt lat="43.61262" lon="3.30163">
        <ele>380.34</ele>
        <time>2016-02-21T16:27:42Z</time>
      </trkpt>
      <trkpt lat="43.6126" lon="3.30189">
        <ele>380.34</ele>
        <time>2016-02-21T16:27:43Z</time>
      </trkpt>
      <trkpt lat="43.61255" lon="3.30216">
        <ele>380.34</ele>
        <time>2016-02-21T16:27:44Z</time>
      </trkpt>
      <trkpt lat="43.61248" lon="3.30241">
        <ele>380.34</ele>
        <time>2016-02-21T16:27:45Z</time>
      </trkpt>
      <trkpt lat="43.61239" lon="3.30266">
        <ele>380.34</ele>
        <time>2016-02-21T16:27:46Z</time>
      </trkpt>
      <trkpt lat="43.61228" lon="3.30289">
        <ele>380.82</ele>
        <time>2016-02-21T16:27:47Z</time>
      </trkpt>
      <trkpt lat="43.61215" lon="3.3031">
        <ele>380.82</ele>
        <time>2016-02-21T16:27:48Z</time>
      </trkpt>
      <trkpt lat="43.612" lon="3.3033">
        <ele>380.82</ele>
        <time>2016-02-21T16:27:49Z</time>
      </trkpt>
      <trkpt lat="43.61183" lon="3.30347">
        <ele>381.3</ele>
        <time>2016-02-21T16:27:50Z</time>
      </trkpt>
      <trkpt lat="43.61165" lon="3.30361">
        <ele>381.3</ele>
        <time>2016-02-21T16:27:51Z</time>
      </trkpt>
      <trkpt lat="43.61145" lon="3.30373">
        <ele>381.78</ele>
        <time>2016-02-21T16:27:52Z</time>
      </trkpt>
      <trkpt lat="43.61125" lon="3.30381">
        <ele>382.26</ele>
        <time>2016-02-21T16:27:53Z</time>
      </trkpt>
      <trkpt lat="43.61103" lon="3.30386">
        <ele>382.26</ele>
        <time>2016-02-21T16:27:54Z</time>
      </trkpt>
      <trkpt lat="43.61081" lon="3.30387">
        <ele>382.74</ele>
        <time>2016-02-21T16:27:55Z</time>
      </trkpt>
      <trkpt lat="43.61059" lon="3.30385">
        <ele>382.74</ele>
        <time>2016-02-21T16:27:56Z</time>
      </trkpt>
      <trkpt lat="43.61037" lon="3.30381">
        <ele>383.22</ele>
        <time>2016-02-21T16:27:57Z</time>
      </trkpt>
      <trkpt lat="43.61016" lon="3.30374">
        <ele>382.74</ele>
        <time>2016-02-21T16:27:58Z</time>
      </trkpt>
      <trkpt lat="43.60995" lon="3.30366">
        <ele>382.74</ele>
        <time>2016-02-21T16:27:59Z</time>
      </trkpt>
      <trkpt lat="43.60914" lon="3.30342">
        <ele>381.3</ele>
        <time>2016-02-21T16:28:03Z</time>
      </trkpt>
      <trkpt lat="43.60894" lon="3.30342">
        <ele>380.82</ele>
        <time>2016-02-21T16:28:04Z</time>
      </trkpt>
      <trkpt lat="43.60874" lon="3.30345">
        <ele>380.34</ele>
        <time>2016-02-21T16:28:05Z</time>
      </trkpt>
      <trkpt lat="43.60854" lon="3.30352">
        <ele>379.86</ele>
        <time>2016-02-21T16:28:06Z</time>
      </trkpt>
      <trkpt lat="43.60836" lon="3.30364">
        <ele>378.9</ele>
        <time>2016-02-21T16:28:07Z</time>
      </trkpt>
      <trkpt lat="43.6082" lon="3.30379">
        <ele>378.42</ele>
        <time>2016-02-21T16:28:08Z</time>
      </trkpt>
      <trkpt lat="43.60805" lon="3.30397">
        <ele>377.94</ele>
        <time>2016-02-21T16:28:09Z</time>
      </trkpt>
      <trkpt lat="43.60792" lon="3.30418">
        <ele>377.45</ele>
        <time>2016-02-21T16:28:10Z</time>
      </trkpt>
      <trkpt lat="43.60782" lon="3.3044">
        <ele>376.97</ele>
        <time>2016-02-21T16:28:11Z</time>
      </trkpt>
      <trkpt lat="43.60774" lon="3.30464">
        <ele>376.01</ele>
        <time>2016-02-21T16:28:12Z</time>
      </trkpt>
      <trkpt lat="43.60769" lon="3.3049">
        <ele>375.53</ele>
        <time>2016-02-21T16:28:13Z</time>
      </trkpt>
      <trkpt lat="43.60766" lon="3.30516">
        <ele>375.05</ele>
        <time>2016-02-21T16:28:14Z</time>
      </trkpt>
      <trkpt lat="43.60765" lon="3.30543">
        <ele>374.09</ele>
        <time>2016-02-21T16:28:15Z</time>
      </trkpt>
      <trkpt lat="43.60768" lon="3.3057">
        <ele>373.13</ele>
        <time>2016-02-21T16:28:16Z</time>
      </trkpt>
      <trkpt lat="43.60773" lon="3.30597">
        <ele>372.65</ele>
        <time>2016-02-21T16:28:17Z</time>
      </trkpt>
      <trkpt lat="43.60781" lon="3.30623">
        <ele>371.69</ele>
        <time>2016-02-21T16:28:18Z</time>
      </trkpt>
      <trkpt lat="43.60791" lon="3.30649">
        <ele>370.73</ele>
        <time>2016-02-21T16:28:19Z</time>
      </trkpt>
      <trkpt lat="43.60803" lon="3.30673">
        <ele>369.76</ele>
        <time>2016-02-21T16:28:20Z</time>
      </trkpt>
      <trkpt lat="43.60815" lon="3.30697">
        <ele>369.28</ele>
        <time>2016-02-21T16:28:21Z</time>
      </trkpt>
      <trkpt lat="43.60862" lon="3.30791">
        <ele>366.88</ele>
        <time>2016-02-21T16:28:25Z</time>
      </trkpt>
      <trkpt lat="43.60869" lon="3.30817">
        <ele>366.4</ele>
        <time>2016-02-21T16:28:26Z</time>
      </trkpt>
      <trkpt lat="43.60874" lon="3.30844">
        <ele>365.44</ele>
        <time>2016-02-21T16:28:27Z</time>
      </trkpt>
      <trkpt lat="43.60877" lon="3.30872">
        <ele>364.96</ele>
        <time>2016-02-21T16:28:28Z</time>
      </trkpt>
      <trkpt lat="43.60877" lon="3.309">
        <ele>364.48</ele>
        <time>2016-02-21T16:28:29Z</time>
      </trkpt>
      <trkpt lat="43.60874" lon="3.30929">
        <ele>363.52</ele>
        <time>2016-02-21T16:28:30Z</time>
      </trkpt>
      <trkpt lat="43.60869" lon="3.30959">
        <ele>363.04</ele>
        <time>2016-02-21T16:28:31Z</time>
      </trkpt>
      <trkpt lat="43.60861" lon="3.30987">
        <ele>362.07</ele>
        <time>2016-02-21T16:28:32Z</time>
      </trkpt>
      <trkpt lat="43.60851" lon="3.31015">
        <ele>361.59</ele>
        <time>2016-02-21T16:28:33Z</time>
      </trkpt>
      <trkpt lat="43.60838" lon="3.3104">
        <ele>360.63</ele>
        <time>2016-02-21T16:28:34Z</time>
      </trkpt>
      <trkpt lat="43.60823" lon="3.31063">
        <ele>359.19</ele>
        <time>2016-02-21T16:28:35Z</time>
      </trkpt>
      <trkpt lat="43.60806" lon="3.31084">
        <ele>358.23</ele>
        <time>2016-02-21T16:28:36Z</time>
      </trkpt>
      <trkpt lat="43.60788" lon="3.31103">
        <ele>356.79</ele>
        <time>2016-02-21T16:28:37Z</time>
      </trkpt>
      <trkpt lat="43.60678" lon="3.31224">
        <ele>347.65</ele>
        <time>2016-02-21T16:28:44Z</time>
      </trkpt>
      <trkpt lat="43.60667" lon="3.31244">
        <ele>346.21</ele>
        <time>2016-02-21T16:28:45Z</time>
      </trkpt>
      <trkpt lat="43.60657" lon="3.31267">
        <ele>344.77</ele>
        <time>2016-02-21T16:28:46Z</time>
      </trkpt>
      <trkpt lat="43.60649" lon="3.3129">
        <ele>343.33</ele>
        <time>2016-02-21T16:28:47Z</time>
      </trkpt>
      <trkpt lat="43.60644" lon="3.31314">
        <ele>341.41</ele>
        <time>2016-02-21T16:28:48Z</time>
      </trkpt>
      <trkpt lat="43.60641" lon="3.3134">
        <ele>339.96</ele>
        <time>2016-02-21T16:28:49Z</time>
      </trkpt>
      <trkpt lat="43.6064" lon="3.31366">
        <ele>338.04</ele>
        <time>2016-02-21T16:28:50Z</time>
      </trkpt>
      <trkpt lat="43.60642" lon="3.31393">
        <ele>336.12</ele>
        <time>2016-02-21T16:28:51Z</time>
      </trkpt>
      <trkpt lat="43.60646" lon="3.31419">
        <ele>334.2</ele>
        <time>2016-02-21T16:28:52Z</time>
      </trkpt>
      <trkpt lat="43.60652" lon="3.31445">
        <ele>332.27</ele>
        <time>2016-02-21T16:28:53Z</time>
      </trkpt>
      <trkpt lat="43.60661" lon="3.3147">
        <ele>330.83</ele>
        <time>2016-02-21T16:28:54Z</time>
      </trkpt>
      <trkpt lat="43.60672" lon="3.31493">
        <ele>329.39</ele>
        <time>2016-02-21T16:28:55Z</time>
      </trkpt>
      <trkpt lat="43.60685" lon="3.31514">
        <ele>327.95</ele>
        <time>2016-02-21T16:28:56Z</time>
      </trkpt>
      <trkpt lat="43.607" lon="3.31533">
        <ele>326.5</ele>
        <time>2016-02-21T16:28:57Z</time>
      </trkpt>
      <trkpt lat="43.60717" lon="3.31548">
        <ele>325.54</ele>
        <time>2016-02-21T16:28:58Z</time>
      </trkpt>
      <trkpt lat="43.60735" lon="3.3156">
        <ele>324.58</ele>
        <time>2016-02-21T16:28:59Z</time>
      </trkpt>
      <trkpt lat="43.60754" lon="3.3157">
        <ele>323.62</ele>
        <time>2016-02-21T16:29:00Z</time>
      </trkpt>
      <trkpt lat="43.60773" lon="3.31575">
        <ele>322.66</ele>
        <time>2016-02-21T16:29:01Z</time>
      </trkpt>
      <trkpt lat="43.60794" lon="3.31578">
        <ele>321.7</ele>
        <time>2016-02-21T16:29:02Z</time>
      </trkpt>
      <trkpt lat="43.60815" lon="3.31576">
        <ele>321.22</ele>
        <time>2016-02-21T16:29:03Z</time>
      </trkpt>
      <trkpt lat="43.60835" lon="3.31572">
        <ele>319.78</ele>
        <time>2016-02-21T16:29:04Z</time>
      </trkpt>
      <trkpt lat="43.60855" lon="3.31565">
        <ele>317.37</ele>
        <time>2016-02-21T16:29:05Z</time>
      </trkpt>
      <trkpt lat="43.60874" lon="3.31557">
        <ele>314.97</ele>
        <time>2016-02-21T16:29:06Z</time>
      </trkpt>
      <trkpt lat="43.60985" lon="3.31525">
        <ele>304.39</ele>
        <time>2016-02-21T16:29:12Z</time>
      </trkpt>
      <trkpt lat="43.61005" lon="3.31527">
        <ele>302.47</ele>
        <time>2016-02-21T16:29:13Z</time>
      </trkpt>
      <trkpt lat="43.61024" lon="3.31532">
        <ele>301.03</ele>
        <time>2016-02-21T16:29:14Z</time>
      </trkpt>
      <trkpt lat="43.61043" lon="3.3154">
        <ele>299.11</ele>
        <time>2016-02-21T16:29:15Z</time>
      </trkpt>
      <trkpt lat="43.61061" lon="3.31551">
        <ele>297.67</ele>
        <time>2016-02-21T16:29:16Z</time>
      </trkpt>
      <trkpt lat="43.61077" lon="3.31565">
        <ele>296.7</ele>
        <time>2016-02-21T16:29:17Z</time>
      </trkpt>
      <trkpt lat="43.61093" lon="3.31582">
        <ele>295.26</ele>
        <time>2016-02-21T16:29:18Z</time>
      </trkpt>
      <trkpt lat="43.61107" lon="3.31601">
        <ele>293.82</ele>
        <time>2016-02-21T16:29:19Z</time>
      </trkpt>
      <trkpt lat="43.61119" lon="3.31623">
        <ele>292.38</ele>
        <time>2016-02-21T16:29:20Z</time>
      </trkpt>
      <trkpt lat="43.61129" lon="3.31647">
        <ele>290.94</ele>
        <time>2016-02-21T16:29:21Z</time>
      </trkpt>
      <trkpt lat="43.61137" lon="3.31672">
        <ele>289.49</ele>
        <time>2016-02-21T16:29:22Z</time>
      </trkpt>
      <trkpt lat="43.61142" lon="3.31698">
        <ele>288.53</ele>
        <time>2016-02-21T16:29:23Z</time>
      </trkpt>
      <trkpt lat="43.61146" lon="3.31723">
        <ele>288.05</ele>
        <time>2016-02-21T16:29:24Z</time>
      </trkpt>
      <trkpt lat="43.61147" lon="3.31749">
        <ele>287.09</ele>
        <time>2016-02-21T16:29:25Z</time>
      </trkpt>
      <trkpt lat="43.61148" lon="3.31775">
        <ele>286.13</ele>
        <time>2016-02-21T16:29:26Z</time>
      </trkpt>
      <trkpt lat="43.61152" lon="3.32096">
        <ele>275.56</ele>
        <time>2016-02-21T16:29:39Z</time>
      </trkpt>
      <trkpt lat="43.61139" lon="3.32166">
        <ele>273.63</ele>
        <time>2016-02-21T16:29:42Z</time>
      </trkpt>
      <trkpt lat="43.61131" lon="3.32188">
        <ele>273.15</ele>
        <time>2016-02-21T16:29:43Z</time>
      </trkpt>
      <trkpt lat="43.61117" lon="3.32208">
        <ele>272.67</ele>
        <time>2016-02-21T16:29:44Z</time>
      </trkpt>
      <trkpt lat="43.61102" lon="3.32225">
        <ele>272.19</ele>
        <time>2016-02-21T16:29:45Z</time>
      </trkpt>
      <trkpt lat="43.61087" lon="3.32239">
        <ele>272.19</ele>
        <time>2016-02-21T16:29:46Z</time>
      </trkpt>
      <trkpt lat="43.61073" lon="3.32251">
        <ele>272.19</ele>
        <time>2016-02-21T16:29:47Z</time>
      </trkpt>
      <trkpt lat="43.61057" lon="3.3226">
        <ele>272.19</ele>
        <time>2016-02-21T16:29:48Z</time>
      </trkpt>
      <trkpt lat="43.61041" lon="3.32266">
        <ele>272.19</ele>
        <time>2016-02-21T16:29:49Z</time>
      </trkpt>
      <trkpt lat="43.61022" lon="3.32266">
        <ele>272.19</ele>
        <time>2016-02-21T16:29:50Z</time>
      </trkpt>
      <trkpt lat="43.61006" lon="3.32265">
        <ele>272.19</ele>
        <time>2016-02-21T16:29:51Z</time>
      </trkpt>
      <trkpt lat="43.6099" lon="3.32261">
        <ele>272.19</ele>
        <time>2016-02-21T16:29:52Z</time>
      </trkpt>
      <trkpt lat="43.60975" lon="3.32256">
        <ele>272.19</ele>
        <time>2016-02-21T16:29:53Z</time>
      </trkpt>
      <trkpt lat="43.6091" lon="3.32241">
        <ele>272.19</ele>
        <time>2016-02-21T16:29:57Z</time>
      </trkpt>
      <trkpt lat="43.60893" lon="3.32243">
        <ele>272.19</ele>
        <time>2016-02-21T16:29:58Z</time>
      </trkpt>
      <trkpt lat="43.60877" lon="3.32246">
        <ele>272.19</ele>
        <time>2016-02-21T16:29:59Z</time>
      </trkpt>
      <trkpt lat="43.6086" lon="3.32253">
        <ele>272.19</ele>
        <time>2016-02-21T16:30:00Z</time>
      </trkpt>
      <trkpt lat="43.60844" lon="3.32263">
        <ele>271.71</ele>
        <time>2016-02-21T16:30:01Z</time>
      </trkpt>
      <trkpt lat="43.6083" lon="3.32276">
        <ele>271.71</ele>
        <time>2016-02-21T16:30:02Z</time>
      </trkpt>
      <trkpt lat="43.60816" lon="3.32293">
        <ele>271.71</ele>
        <time>2016-02-21T16:30:03Z</time>
      </trkpt>
      <trkpt lat="43.60803" lon="3.32311">
        <ele>271.71</ele>
        <time>2016-02-21T16:30:04Z</time>
      </trkpt>
      <trkpt lat="43.6071" lon="3.3247">
        <ele>273.63</ele>
        <time>2016-02-21T16:30:12Z</time>
      </trkpt>
      <trkpt lat="43.60702" lon="3.32492">
        <ele>273.63</ele>
        <time>2016-02-21T16:30:13Z</time>
      </trkpt>
      <trkpt lat="43.60695" lon="3.32515">
        <ele>273.63</ele>
        <time>2016-02-21T16:30:14Z</time>
      </trkpt>
      <trkpt lat="43.6069" lon="3.32538">
        <ele>273.63</ele>
        <time>2016-02-21T16:30:15Z</time>
      </trkpt>
      <trkpt lat="43.60686" lon="3.32561">
        <ele>273.63</ele>
        <time>2016-02-21T16:30:16Z</time>
      </trkpt>
      <trkpt lat="43.60682" lon="3.32584">
        <ele>273.63</ele>
        <time>2016-02-21T16:30:17Z</time>
      </trkpt>
      <trkpt lat="43.6068" lon="3.32607">
        <ele>273.63</ele>
        <time>2016-02-21T16:30:18Z</time>
      </trkpt>
      <trkpt lat="43.6068" lon="3.32631">
        <ele>273.63</ele>
        <time>2016-02-21T16:30:19Z</time>
      </trkpt>
      <trkpt lat="43.60681" lon="3.32655">
        <ele>273.63</ele>
        <time>2016-02-21T16:30:20Z</time>
      </trkpt>
      <trkpt lat="43.60683" lon="3.32679">
        <ele>273.15</ele>
        <time>2016-02-21T16:30:21Z</time>
      </trkpt>
      <trkpt lat="43.60687" lon="3.32703">
        <ele>273.15</ele>
        <time>2016-02-21T16:30:22Z</time>
      </trkpt>
      <trkpt lat="43.60692" lon="3.3273">
        <ele>273.15</ele>
        <time>2016-02-21T16:30:23Z</time>
      </trkpt>
      <trkpt lat="43.60699" lon="3.32758">
        <ele>273.15</ele>
        <time>2016-02-21T16:30:24Z</time>
      </trkpt>
      <trkpt lat="43.60708" lon="3.32789">
        <ele>273.15</ele>
        <time>2016-02-21T16:30:25Z</time>
      </trkpt>
      <trkpt lat="43.60793" lon="3.33064">
        <ele>274.11</ele>
        <time>2016-02-21T16:30:33Z</time>
      </trkpt>
      <trkpt lat="43.60942" lon="3.33529">
        <ele>274.59</ele>
        <time>2016-02-21T16:30:47Z</time>
      </trkpt>
      <trkpt lat="43.60946" lon="3.33564">
        <ele>274.11</ele>
        <time>2016-02-21T16:30:48Z</time>
      </trkpt>
      <trkpt lat="43.60947" lon="3.33599">
        <ele>274.11</ele>
        <time>2016-02-21T16:30:49Z</time>
      </trkpt>
      <trkpt lat="43.60964" lon="3.33844">
        <ele>273.63</ele>
        <time>2016-02-21T16:30:56Z</time>
      </trkpt>
      <trkpt lat="43.60951" lon="3.3409">
        <ele>274.11</ele>
        <time>2016-02-21T16:31:03Z</time>
      </trkpt>
      <trkpt lat="43.60951" lon="3.34125">
        <ele>274.11</ele>
        <time>2016-02-21T16:31:04Z</time>
      </trkpt>
      <trkpt lat="43.60954" lon="3.34159">
        <ele>274.11</ele>
        <time>2016-02-21T16:31:05Z</time>
      </trkpt>
      <trkpt lat="43.60959" lon="3.34194">
        <ele>273.63</ele>
        <time>2016-02-21T16:31:06Z</time>
      </trkpt>
      <trkpt lat="43.60977" lon="3.34331">
        <ele>273.15</ele>
        <time>2016-02-21T16:31:10Z</time>
      </trkpt>
      <trkpt lat="43.60976" lon="3.34366">
        <ele>272.67</ele>
        <time>2016-02-21T16:31:11Z</time>
      </trkpt>
      <trkpt lat="43.60942" lon="3.34749">
        <ele>268.83</ele>
        <time>2016-02-21T16:31:22Z</time>
      </trkpt>
      <trkpt lat="43.60872" lon="3.34929">
        <ele>266.9</ele>
        <time>2016-02-21T16:31:28Z</time>
      </trkpt>
      <trkpt lat="43.60789" lon="3.3506">
        <ele>264.98</ele>
        <time>2016-02-21T16:31:33Z</time>
      </trkpt>
      <trkpt lat="43.60769" lon="3.3508">
        <ele>264.98</ele>
        <time>2016-02-21T16:31:34Z</time>
      </trkpt>
      <trkpt lat="43.6066" lon="3.35205">
        <ele>260.17</ele>
        <time>2016-02-21T16:31:40Z</time>
      </trkpt>
      <trkpt lat="43.60647" lon="3.35229">
        <ele>259.69</ele>
        <time>2016-02-21T16:31:41Z</time>
      </trkpt>
      <trkpt lat="43.60637" lon="3.35257">
        <ele>258.73</ele>
        <time>2016-02-21T16:31:42Z</time>
      </trkpt>
      <trkpt lat="43.60632" lon="3.35287">
        <ele>258.25</ele>
        <time>2016-02-21T16:31:43Z</time>
      </trkpt>
      <trkpt lat="43.6063" lon="3.3532">
        <ele>256.81</ele>
        <time>2016-02-21T16:31:44Z</time>
      </trkpt>
      <trkpt lat="43.60631" lon="3.35353">
        <ele>255.37</ele>
        <time>2016-02-21T16:31:45Z</time>
      </trkpt>
      <trkpt lat="43.60633" lon="3.35386">
        <ele>254.41</ele>
        <time>2016-02-21T16:31:46Z</time>
      </trkpt>
      <trkpt lat="43.60636" lon="3.3542">
        <ele>253.44</ele>
        <time>2016-02-21T16:31:47Z</time>
      </trkpt>
      <trkpt lat="43.60636" lon="3.35513">
        <ele>250.08</ele>
        <time>2016-02-21T16:31:50Z</time>
      </trkpt>
      <trkpt lat="43.60631" lon="3.35544">
        <ele>249.12</ele>
        <time>2016-02-21T16:31:51Z</time>
      </trkpt>
      <trkpt lat="43.60622" lon="3.35574">
        <ele>248.16</ele>
        <time>2016-02-21T16:31:52Z</time>
      </trkpt>
      <trkpt lat="43.60533" lon="3.35846">
        <ele>238.54</ele>
        <time>2016-02-21T16:32:01Z</time>
      </trkpt>
      <trkpt lat="43.6053" lon="3.35877">
        <ele>237.58</ele>
        <time>2016-02-21T16:32:02Z</time>
      </trkpt>
      <trkpt lat="43.60531" lon="3.3591">
        <ele>236.62</ele>
        <time>2016-02-21T16:32:03Z</time>
      </trkpt>
      <trkpt lat="43.60534" lon="3.35944">
        <ele>235.66</ele>
        <time>2016-02-21T16:32:04Z</time>
      </trkpt>
      <trkpt lat="43.60539" lon="3.35979">
        <ele>234.22</ele>
        <time>2016-02-21T16:32:05Z</time>
      </trkpt>
      <trkpt lat="43.60572" lon="3.36282">
        <ele>225.57</ele>
        <time>2016-02-21T16:32:14Z</time>
      </trkpt>
      <trkpt lat="43.6057" lon="3.36315">
        <ele>225.09</ele>
        <time>2016-02-21T16:32:15Z</time>
      </trkpt>
      <trkpt lat="43.60565" lon="3.36348">
        <ele>224.12</ele>
        <time>2016-02-21T16:32:16Z</time>
      </trkpt>
      <trkpt lat="43.60556" lon="3.3638">
        <ele>223.64</ele>
        <time>2016-02-21T16:32:17Z</time>
      </trkpt>
      <trkpt lat="43.60545" lon="3.36411">
        <ele>222.68</ele>
        <time>2016-02-21T16:32:18Z</time>
      </trkpt>
      <trkpt lat="43.60534" lon="3.3644">
        <ele>221.72</ele>
        <time>2016-02-21T16:32:19Z</time>
      </trkpt>
      <trkpt lat="43.60499" lon="3.36546">
        <ele>219.32</ele>
        <time>2016-02-21T16:32:23Z</time>
      </trkpt>
      <trkpt lat="43.60495" lon="3.36572">
        <ele>218.36</ele>
        <time>2016-02-21T16:32:24Z</time>
      </trkpt>
      <trkpt lat="43.60496" lon="3.36597">
        <ele>217.88</ele>
        <time>2016-02-21T16:32:25Z</time>
      </trkpt>
      <trkpt lat="43.605" lon="3.36622">
        <ele>214.51</ele>
        <time>2016-02-21T16:32:26Z</time>
      </trkpt>
      <trkpt lat="43.6051" lon="3.36646">
        <ele>214.03</ele>
        <time>2016-02-21T16:32:27Z</time>
      </trkpt>
      <trkpt lat="43.60524" lon="3.36667">
        <ele>213.55</ele>
        <time>2016-02-21T16:32:28Z</time>
      </trkpt>
      <trkpt lat="43.60539" lon="3.36686">
        <ele>212.59</ele>
        <time>2016-02-21T16:32:29Z</time>
      </trkpt>
      <trkpt lat="43.60553" lon="3.36704">
        <ele>212.59</ele>
        <time>2016-02-21T16:32:30Z</time>
      </trkpt>
      <trkpt lat="43.60566" lon="3.36724">
        <ele>212.11</ele>
        <time>2016-02-21T16:32:31Z</time>
      </trkpt>
      <trkpt lat="43.60577" lon="3.36749">
        <ele>211.15</ele>
        <time>2016-02-21T16:32:32Z</time>
      </trkpt>
      <trkpt lat="43.60583" lon="3.36777">
        <ele>210.67</ele>
        <time>2016-02-21T16:32:33Z</time>
      </trkpt>
      <trkpt lat="43.60584" lon="3.36808">
        <ele>209.7</ele>
        <time>2016-02-21T16:32:34Z</time>
      </trkpt>
      <trkpt lat="43.60582" lon="3.36839">
        <ele>209.22</ele>
        <time>2016-02-21T16:32:35Z</time>
      </trkpt>
      <trkpt lat="43.60578" lon="3.36869">
        <ele>209.22</ele>
        <time>2016-02-21T16:32:36Z</time>
      </trkpt>
      <trkpt lat="43.60573" lon="3.36897">
        <ele>208.74</ele>
        <time>2016-02-21T16:32:37Z</time>
      </trkpt>
      <trkpt lat="43.60569" lon="3.3695">
        <ele>207.3</ele>
        <time>2016-02-21T16:32:39Z</time>
      </trkpt>
      <trkpt lat="43.60574" lon="3.36975">
        <ele>206.82</ele>
        <time>2016-02-21T16:32:40Z</time>
      </trkpt>
      <trkpt lat="43.60585" lon="3.36998">
        <ele>206.34</ele>
        <time>2016-02-21T16:32:41Z</time>
      </trkpt>
      <trkpt lat="43.60599" lon="3.37017">
        <ele>206.34</ele>
        <time>2016-02-21T16:32:42Z</time>
      </trkpt>
      <trkpt lat="43.60616" lon="3.37031">
        <ele>206.34</ele>
        <time>2016-02-21T16:32:43Z</time>
      </trkpt>
      <trkpt lat="43.60633" lon="3.37043">
        <ele>205.38</ele>
        <time>2016-02-21T16:32:44Z</time>
      </trkpt>
      <trkpt lat="43.60649" lon="3.37057">
        <ele>204.9</ele>
        <time>2016-02-21T16:32:45Z</time>
      </trkpt>
      <trkpt lat="43.60663" lon="3.37074">
        <ele>204.42</ele>
        <time>2016-02-21T16:32:46Z</time>
      </trkpt>
      <trkpt lat="43.60672" lon="3.37095">
        <ele>203.46</ele>
        <time>2016-02-21T16:32:47Z</time>
      </trkpt>
      <trkpt lat="43.60677" lon="3.3712">
        <ele>202.01</ele>
        <time>2016-02-21T16:32:48Z</time>
      </trkpt>
      <trkpt lat="43.60678" lon="3.37146">
        <ele>201.05</ele>
        <time>2016-02-21T16:32:49Z</time>
      </trkpt>
      <trkpt lat="43.60676" lon="3.37173">
        <ele>200.57</ele>
        <time>2016-02-21T16:32:50Z</time>
      </trkpt>
      <trkpt lat="43.60673" lon="3.37199">
        <ele>199.61</ele>
        <time>2016-02-21T16:32:51Z</time>
      </trkpt>
      <trkpt lat="43.6067" lon="3.37223">
        <ele>199.13</ele>
        <time>2016-02-21T16:32:52Z</time>
      </trkpt>
      <trkpt lat="43.60667" lon="3.37293">
        <ele>197.21</ele>
        <time>2016-02-21T16:32:55Z</time>
      </trkpt>
      <trkpt lat="43.60663" lon="3.37316">
        <ele>196.25</ele>
        <time>2016-02-21T16:32:56Z</time>
      </trkpt>
      <trkpt lat="43.60658" lon="3.37338">
        <ele>195.77</ele>
        <time>2016-02-21T16:32:57Z</time>
      </trkpt>
      <trkpt lat="43.60649" lon="3.37358">
        <ele>195.28</ele>
        <time>2016-02-21T16:32:58Z</time>
      </trkpt>
      <trkpt lat="43.60638" lon="3.37378">
        <ele>194.8</ele>
        <time>2016-02-21T16:32:59Z</time>
      </trkpt>
      <trkpt lat="43.60627" lon="3.37398">
        <ele>194.32</ele>
        <time>2016-02-21T16:33:00Z</time>
      </trkpt>
      <trkpt lat="43.60557" lon="3.37524">
        <ele>190.96</ele>
        <time>2016-02-21T16:33:07Z</time>
      </trkpt>
      <trkpt lat="43.60551" lon="3.37543">
        <ele>190</ele>
        <time>2016-02-21T16:33:08Z</time>
      </trkpt>
      <trkpt lat="43.60546" lon="3.37563">
        <ele>189.52</ele>
        <time>2016-02-21T16:33:09Z</time>
      </trkpt>
      <trkpt lat="43.60545" lon="3.37585">
        <ele>188.56</ele>
        <time>2016-02-21T16:33:10Z</time>
      </trkpt>
      <trkpt lat="43.60548" lon="3.37606">
        <ele>187.59</ele>
        <time>2016-02-21T16:33:11Z</time>
      </trkpt>
      <trkpt lat="43.60554" lon="3.37626">
        <ele>187.11</ele>
        <time>2016-02-21T16:33:12Z</time>
      </trkpt>
      <trkpt lat="43.60564" lon="3.37643">
        <ele>186.15</ele>
        <time>2016-02-21T16:33:13Z</time>
      </trkpt>
      <trkpt lat="43.60575" lon="3.37658">
        <ele>185.67</ele>
        <time>2016-02-21T16:33:14Z</time>
      </trkpt>
      <trkpt lat="43.60588" lon="3.37667">
        <ele>185.67</ele>
        <time>2016-02-21T16:33:15Z</time>
      </trkpt>
      <trkpt lat="43.60603" lon="3.37675">
        <ele>185.19</ele>
        <time>2016-02-21T16:33:16Z</time>
      </trkpt>
      <trkpt lat="43.60618" lon="3.37683">
        <ele>184.71</ele>
        <time>2016-02-21T16:33:17Z</time>
      </trkpt>
      <trkpt lat="43.60659" lon="3.37712">
        <ele>183.27</ele>
        <time>2016-02-21T16:33:20Z</time>
      </trkpt>
      <trkpt lat="43.6067" lon="3.37727">
        <ele>182.31</ele>
        <time>2016-02-21T16:33:21Z</time>
      </trkpt>
      <trkpt lat="43.60678" lon="3.37746">
        <ele>181.83</ele>
        <time>2016-02-21T16:33:22Z</time>
      </trkpt>
      <trkpt lat="43.60682" lon="3.37767">
        <ele>181.35</ele>
        <time>2016-02-21T16:33:23Z</time>
      </trkpt>
      <trkpt lat="43.60684" lon="3.37788">
        <ele>180.87</ele>
        <time>2016-02-21T16:33:24Z</time>
      </trkpt>
      <trkpt lat="43.60684" lon="3.3781">
        <ele>179.9</ele>
        <time>2016-02-21T16:33:25Z</time>
      </trkpt>
      <trkpt lat="43.60684" lon="3.37833">
        <ele>179.42</ele>
        <time>2016-02-21T16:33:26Z</time>
      </trkpt>
      <trkpt lat="43.60686" lon="3.37854">
        <ele>178.46</ele>
        <time>2016-02-21T16:33:27Z</time>
      </trkpt>
      <trkpt lat="43.60691" lon="3.37874">
        <ele>177.98</ele>
        <time>2016-02-21T16:33:28Z</time>
      </trkpt>
      <trkpt lat="43.60699" lon="3.37893">
        <ele>177.02</ele>
        <time>2016-02-21T16:33:29Z</time>
      </trkpt>
      <trkpt lat="43.6071" lon="3.3791">
        <ele>176.54</ele>
        <time>2016-02-21T16:33:30Z</time>
      </trkpt>
      <trkpt lat="43.60724" lon="3.37923">
        <ele>176.06</ele>
        <time>2016-02-21T16:33:31Z</time>
      </trkpt>
      <trkpt lat="43.60738" lon="3.37933">
        <ele>176.06</ele>
        <time>2016-02-21T16:33:32Z</time>
      </trkpt>
      <trkpt lat="43.60752" lon="3.3794">
        <ele>175.58</ele>
        <time>2016-02-21T16:33:33Z</time>
      </trkpt>
      <trkpt lat="43.60766" lon="3.37948">
        <ele>174.62</ele>
        <time>2016-02-21T16:33:34Z</time>
      </trkpt>
      <trkpt lat="43.60806" lon="3.37971">
        <ele>172.69</ele>
        <time>2016-02-21T16:33:37Z</time>
      </trkpt>
      <trkpt lat="43.60818" lon="3.37981">
        <ele>172.21</ele>
        <time>2016-02-21T16:33:38Z</time>
      </trkpt>
      <trkpt lat="43.60827" lon="3.37994">
        <ele>171.73</ele>
        <time>2016-02-21T16:33:39Z</time>
      </trkpt>
      <trkpt lat="43.60835" lon="3.38008">
        <ele>171.25</ele>
        <time>2016-02-21T16:33:40Z</time>
      </trkpt>
      <trkpt lat="43.60841" lon="3.38023">
        <ele>170.77</ele>
        <time>2016-02-21T16:33:41Z</time>
      </trkpt>
      <trkpt lat="43.60845" lon="3.38042">
        <ele>169.81</ele>
        <time>2016-02-21T16:33:42Z</time>
      </trkpt>
      <trkpt lat="43.60846" lon="3.38064">
        <ele>169.33</ele>
        <time>2016-02-21T16:33:43Z</time>
      </trkpt>
      <trkpt lat="43.60844" lon="3.38088">
        <ele>168.37</ele>
        <time>2016-02-21T16:33:44Z</time>
      </trkpt>
      <trkpt lat="43.60842" lon="3.3811">
        <ele>167.89</ele>
        <time>2016-02-21T16:33:45Z</time>
      </trkpt>
      <trkpt lat="43.60839" lon="3.38154">
        <ele>165.96</ele>
        <time>2016-02-21T16:33:47Z</time>
      </trkpt>
      <trkpt lat="43.60841" lon="3.38174">
        <ele>165</ele>
        <time>2016-02-21T16:33:48Z</time>
      </trkpt>
      <trkpt lat="43.60844" lon="3.38194">
        <ele>164.52</ele>
        <time>2016-02-21T16:33:49Z</time>
      </trkpt>
      <trkpt lat="43.60851" lon="3.38213">
        <ele>164.04</ele>
        <time>2016-02-21T16:33:50Z</time>
      </trkpt>
      <trkpt lat="43.60859" lon="3.3823">
        <ele>163.08</ele>
        <time>2016-02-21T16:33:51Z</time>
      </trkpt>
      <trkpt lat="43.60869" lon="3.38246">
        <ele>162.6</ele>
        <time>2016-02-21T16:33:52Z</time>
      </trkpt>
      <trkpt lat="43.6088" lon="3.38261">
        <ele>161.64</ele>
        <time>2016-02-21T16:33:53Z</time>
      </trkpt>
      <trkpt lat="43.60891" lon="3.38275">
        <ele>160.68</ele>
        <time>2016-02-21T16:33:54Z</time>
      </trkpt>
      <trkpt lat="43.60948" lon="3.38351">
        <ele>157.31</ele>
        <time>2016-02-21T16:33:59Z</time>
      </trkpt>
      <trkpt lat="43.60957" lon="3.38371">
        <ele>156.35</ele>
        <time>2016-02-21T16:34:00Z</time>
      </trkpt>
      <trkpt lat="43.60964" lon="3.38394">
        <ele>155.87</ele>
        <time>2016-02-21T16:34:01Z</time>
      </trkpt>
      <trkpt lat="43.60966" lon="3.38418">
        <ele>155.39</ele>
        <time>2016-02-21T16:34:02Z</time>
      </trkpt>
      <trkpt lat="43.60966" lon="3.38441">
        <ele>154.43</ele>
        <time>2016-02-21T16:34:03Z</time>
      </trkpt>
      <trkpt lat="43.60962" lon="3.38465">
        <ele>153.95</ele>
        <time>2016-02-21T16:34:04Z</time>
      </trkpt>
      <trkpt lat="43.60955" lon="3.38487">
        <ele>153.47</ele>
        <time>2016-02-21T16:34:05Z</time>
      </trkpt>
      <trkpt lat="43.60947" lon="3.38508">
        <ele>152.51</ele>
        <time>2016-02-21T16:34:06Z</time>
      </trkpt>
      <trkpt lat="43.60939" lon="3.38528">
        <ele>152.03</ele>
        <time>2016-02-21T16:34:07Z</time>
      </trkpt>
      <trkpt lat="43.60912" lon="3.38645">
        <ele>150.1</ele>
        <time>2016-02-21T16:34:13Z</time>
      </trkpt>
      <trkpt lat="43.60911" lon="3.38664">
        <ele>149.62</ele>
        <time>2016-02-21T16:34:14Z</time>
      </trkpt>
      <trkpt lat="43.60913" lon="3.38684">
        <ele>149.62</ele>
        <time>2016-02-21T16:34:15Z</time>
      </trkpt>
      <trkpt lat="43.60917" lon="3.38702">
        <ele>149.14</ele>
        <time>2016-02-21T16:34:16Z</time>
      </trkpt>
      <trkpt lat="43.60922" lon="3.38719">
        <ele>148.66</ele>
        <time>2016-02-21T16:34:17Z</time>
      </trkpt>
      <trkpt lat="43.60928" lon="3.38735">
        <ele>148.18</ele>
        <time>2016-02-21T16:34:18Z</time>
      </trkpt>
      <trkpt lat="43.60936" lon="3.38748">
        <ele>147.7</ele>
        <time>2016-02-21T16:34:19Z</time>
      </trkpt>
      <trkpt lat="43.60947" lon="3.38759">
        <ele>147.22</ele>
        <time>2016-02-21T16:34:20Z</time>
      </trkpt>
      <trkpt lat="43.60959" lon="3.38766">
        <ele>147.22</ele>
        <time>2016-02-21T16:34:21Z</time>
      </trkpt>
      <trkpt lat="43.60972" lon="3.38772">
        <ele>147.22</ele>
        <time>2016-02-21T16:34:22Z</time>
      </trkpt>
      <trkpt lat="43.60984" lon="3.38777">
        <ele>147.22</ele>
        <time>2016-02-21T16:34:23Z</time>
      </trkpt>
      <trkpt lat="43.61028" lon="3.38795">
        <ele>146.26</ele>
        <time>2016-02-21T16:34:27Z</time>
      </trkpt>
      <trkpt lat="43.61038" lon="3.38803">
        <ele>146.26</ele>
        <time>2016-02-21T16:34:28Z</time>
      </trkpt>
      <trkpt lat="43.61048" lon="3.38817">
        <ele>146.26</ele>
        <time>2016-02-21T16:34:29Z</time>
      </trkpt>
      <trkpt lat="43.61055" lon="3.38833">
        <ele>146.26</ele>
        <time>2016-02-21T16:34:30Z</time>
      </trkpt>
      <trkpt lat="43.61061" lon="3.38851">
        <ele>146.26</ele>
        <time>2016-02-21T16:34:31Z</time>
      </trkpt>
      <trkpt lat="43.61065" lon="3.38871">
        <ele>146.26</ele>
        <time>2016-02-21T16:34:32Z</time>
      </trkpt>
      <trkpt lat="43.61067" lon="3.38891">
        <ele>146.26</ele>
        <time>2016-02-21T16:34:33Z</time>
      </trkpt>
      <trkpt lat="43.6107" lon="3.38912">
        <ele>145.78</ele>
        <time>2016-02-21T16:34:34Z</time>
      </trkpt>
      <trkpt lat="43.61101" lon="3.39083">
        <ele>143.37</ele>
        <time>2016-02-21T16:34:44Z</time>
      </trkpt>
      <trkpt lat="43.61103" lon="3.39101">
        <ele>142.89</ele>
        <time>2016-02-21T16:34:45Z</time>
      </trkpt>
      <trkpt lat="43.61101" lon="3.39121">
        <ele>142.89</ele>
        <time>2016-02-21T16:34:46Z</time>
      </trkpt>
      <trkpt lat="43.61098" lon="3.39142">
        <ele>142.41</ele>
        <time>2016-02-21T16:34:47Z</time>
      </trkpt>
      <trkpt lat="43.61095" lon="3.39163">
        <ele>142.41</ele>
        <time>2016-02-21T16:34:48Z</time>
      </trkpt>
      <trkpt lat="43.61093" lon="3.39183">
        <ele>141.93</ele>
        <time>2016-02-21T16:34:49Z</time>
      </trkpt>
      <trkpt lat="43.61092" lon="3.39203">
        <ele>141.45</ele>
        <time>2016-02-21T16:34:50Z</time>
      </trkpt>
      <trkpt lat="43.61092" lon="3.39222">
        <ele>141.45</ele>
        <time>2016-02-21T16:34:51Z</time>
      </trkpt>
      <trkpt lat="43.61093" lon="3.39241">
        <ele>140.97</ele>
        <time>2016-02-21T16:34:52Z</time>
      </trkpt>
      <trkpt lat="43.61094" lon="3.39259">
        <ele>140.97</ele>
        <time>2016-02-21T16:34:53Z</time>
      </trkpt>
      <trkpt lat="43.611" lon="3.39408">
        <ele>137.13</ele>
        <time>2016-02-21T16:35:01Z</time>
      </trkpt>
      <trkpt lat="43.61097" lon="3.39427">
        <ele>136.64</ele>
        <time>2016-02-21T16:35:02Z</time>
      </trkpt>
      <trkpt lat="43.61091" lon="3.39447">
        <ele>135.68</ele>
        <time>2016-02-21T16:35:03Z</time>
      </trkpt>
      <trkpt lat="43.61082" lon="3.39464">
        <ele>135.2</ele>
        <time>2016-02-21T16:35:04Z</time>
      </trkpt>
      <trkpt lat="43.61071" lon="3.39481">
        <ele>134.72</ele>
        <time>2016-02-21T16:35:05Z</time>
      </trkpt>
      <trkpt lat="43.6106" lon="3.39496">
        <ele>134.24</ele>
        <time>2016-02-21T16:35:06Z</time>
      </trkpt>
      <trkpt lat="43.61047" lon="3.3951">
        <ele>133.76</ele>
        <time>2016-02-21T16:35:07Z</time>
      </trkpt>
      <trkpt lat="43.61033" lon="3.39523">
        <ele>133.28</ele>
        <time>2016-02-21T16:35:08Z</time>
      </trkpt>
      <trkpt lat="43.60911" lon="3.3963">
        <ele>128.95</ele>
        <time>2016-02-21T16:35:18Z</time>
      </trkpt>
      <trkpt lat="43.60893" lon="3.39659">
        <ele>128.95</ele>
        <time>2016-02-21T16:35:20Z</time>
      </trkpt>
      <trkpt lat="43.60887" lon="3.39678">
        <ele>127.99</ele>
        <time>2016-02-21T16:35:21Z</time>
      </trkpt>
      <trkpt lat="43.60882" lon="3.39699">
        <ele>127.99</ele>
        <time>2016-02-21T16:35:22Z</time>
      </trkpt>
      <trkpt lat="43.60879" lon="3.3972">
        <ele>127.51</ele>
        <time>2016-02-21T16:35:23Z</time>
      </trkpt>
      <trkpt lat="43.60877" lon="3.39741">
        <ele>126.55</ele>
        <time>2016-02-21T16:35:24Z</time>
      </trkpt>
      <trkpt lat="43.60876" lon="3.39762">
        <ele>126.55</ele>
        <time>2016-02-21T16:35:25Z</time>
      </trkpt>
      <trkpt lat="43.60868" lon="3.39867">
        <ele>125.11</ele>
        <time>2016-02-21T16:35:30Z</time>
      </trkpt>
      <trkpt lat="43.6087" lon="3.39888">
        <ele>124.63</ele>
        <time>2016-02-21T16:35:31Z</time>
      </trkpt>
      <trkpt lat="43.60874" lon="3.39908">
        <ele>124.15</ele>
        <time>2016-02-21T16:35:32Z</time>
      </trkpt>
      <trkpt lat="43.60904" lon="3.40032">
        <ele>122.22</ele>
        <time>2016-02-21T16:35:39Z</time>
      </trkpt>
      <trkpt lat="43.60904" lon="3.40048">
        <ele>121.74</ele>
        <time>2016-02-21T16:35:40Z</time>
      </trkpt>
      <trkpt lat="43.60903" lon="3.40063">
        <ele>122.22</ele>
        <time>2016-02-21T16:35:41Z</time>
      </trkpt>
      <trkpt lat="43.60899" lon="3.40077">
        <ele>122.22</ele>
        <time>2016-02-21T16:35:42Z</time>
      </trkpt>
      <trkpt lat="43.60896" lon="3.40091">
        <ele>121.74</ele>
        <time>2016-02-21T16:35:43Z</time>
      </trkpt>
      <trkpt lat="43.60894" lon="3.40106">
        <ele>121.26</ele>
        <time>2016-02-21T16:35:44Z</time>
      </trkpt>
      <trkpt lat="43.60894" lon="3.40121">
        <ele>120.78</ele>
        <time>2016-02-21T16:35:45Z</time>
      </trkpt>
      <trkpt lat="43.60897" lon="3.40136">
        <ele>120.78</ele>
        <time>2016-02-21T16:35:46Z</time>
      </trkpt>
      <trkpt lat="43.60902" lon="3.40149">
        <ele>120.3</ele>
        <time>2016-02-21T16:35:47Z</time>
      </trkpt>
      <trkpt lat="43.60908" lon="3.40161">
        <ele>120.3</ele>
        <time>2016-02-21T16:35:48Z</time>
      </trkpt>
      <trkpt lat="43.60913" lon="3.40172">
        <ele>120.3</ele>
        <time>2016-02-21T16:35:49Z</time>
      </trkpt>
      <trkpt lat="43.60918" lon="3.4018">
        <ele>120.3</ele>
        <time>2016-02-21T16:35:50Z</time>
      </trkpt>
      <trkpt lat="43.60924" lon="3.40186">
        <ele>120.3</ele>
        <time>2016-02-21T16:35:51Z</time>
      </trkpt>
      <trkpt lat="43.60931" lon="3.40189">
        <ele>120.3</ele>
        <time>2016-02-21T16:35:52Z</time>
      </trkpt>
      <trkpt lat="43.6094" lon="3.4019">
        <ele>120.78</ele>
        <time>2016-02-21T16:35:53Z</time>
      </trkpt>
      <trkpt lat="43.6095" lon="3.40193">
        <ele>120.78</ele>
        <time>2016-02-21T16:35:54Z</time>
      </trkpt>
      <trkpt lat="43.6096" lon="3.40199">
        <ele>120.78</ele>
        <time>2016-02-21T16:35:55Z</time>
      </trkpt>
      <trkpt lat="43.60969" lon="3.40206">
        <ele>121.74</ele>
        <time>2016-02-21T16:35:56Z</time>
      </trkpt>
      <trkpt lat="43.60978" lon="3.40216">
        <ele>121.74</ele>
        <time>2016-02-21T16:35:57Z</time>
      </trkpt>
      <trkpt lat="43.60987" lon="3.40227">
        <ele>122.22</ele>
        <time>2016-02-21T16:35:58Z</time>
      </trkpt>
      <trkpt lat="43.6106" lon="3.40325">
        <ele>123.19</ele>
        <time>2016-02-21T16:36:04Z</time>
      </trkpt>
      <trkpt lat="43.61194" lon="3.40506">
        <ele>123.67</ele>
        <time>2016-02-21T16:36:13Z</time>
      </trkpt>
      <trkpt lat="43.61362" lon="3.40729">
        <ele>130.88</ele>
        <time>2016-02-21T16:36:25Z</time>
      </trkpt>
      <trkpt lat="43.61415" lon="3.40777">
        <ele>132.32</ele>
        <time>2016-02-21T16:36:28Z</time>
      </trkpt>
      <trkpt lat="43.61438" lon="3.40791">
        <ele>133.28</ele>
        <time>2016-02-21T16:36:29Z</time>
      </trkpt>
      <trkpt lat="43.61614" lon="3.40907">
        <ele>141.93</ele>
        <time>2016-02-21T16:36:36Z</time>
      </trkpt>
      <trkpt lat="43.61793" lon="3.4102">
        <ele>151.54</ele>
        <time>2016-02-21T16:36:44Z</time>
      </trkpt>
      <trkpt lat="43.61905" lon="3.4109">
        <ele>157.31</ele>
        <time>2016-02-21T16:36:51Z</time>
      </trkpt>
      <trkpt lat="43.62068" lon="3.41187">
        <ele>154.43</ele>
        <time>2016-02-21T16:37:03Z</time>
      </trkpt>
      <trkpt lat="43.62159" lon="3.41289">
        <ele>148.66</ele>
        <time>2016-02-21T16:37:12Z</time>
      </trkpt>
      <trkpt lat="43.62267" lon="3.41481">
        <ele>140.97</ele>
        <time>2016-02-21T16:37:27Z</time>
      </trkpt>
      <trkpt lat="43.62343" lon="3.41617">
        <ele>135.68</ele>
        <time>2016-02-21T16:37:39Z</time>
      </trkpt>
      <trkpt lat="43.62347" lon="3.41627">
        <ele>135.2</ele>
        <time>2016-02-21T16:37:40Z</time>
      </trkpt>
      <trkpt lat="43.62351" lon="3.41637">
        <ele>134.72</ele>
        <time>2016-02-21T16:37:41Z</time>
      </trkpt>
      <trkpt lat="43.62359" lon="3.41668">
        <ele>133.76</ele>
        <time>2016-02-21T16:37:45Z</time>
      </trkpt>
      <trkpt lat="43.62363" lon="3.41672">
        <ele>133.28</ele>
        <time>2016-02-21T16:37:46Z</time>
      </trkpt>
      <trkpt lat="43.62369" lon="3.41674">
        <ele>133.28</ele>
        <time>2016-02-21T16:37:47Z</time>
      </trkpt>
      <trkpt lat="43.62376" lon="3.41678">
        <ele>132.8</ele>
        <time>2016-02-21T16:37:48Z</time>
      </trkpt>
      <trkpt lat="43.62383" lon="3.41685">
        <ele>132.8</ele>
        <time>2016-02-21T16:37:49Z</time>
      </trkpt>
      <trkpt lat="43.6239" lon="3.41693">
        <ele>132.32</ele>
        <time>2016-02-21T16:37:50Z</time>
      </trkpt>
      <trkpt lat="43.62395" lon="3.41703">
        <ele>132.32</ele>
        <time>2016-02-21T16:37:51Z</time>
      </trkpt>
      <trkpt lat="43.624" lon="3.41714">
        <ele>131.84</ele>
        <time>2016-02-21T16:37:52Z</time>
      </trkpt>
      <trkpt lat="43.62445" lon="3.41809">
        <ele>128.47</ele>
        <time>2016-02-21T16:38:00Z</time>
      </trkpt>
      <trkpt lat="43.62468" lon="3.41953">
        <ele>124.63</ele>
        <time>2016-02-21T16:38:09Z</time>
      </trkpt>
      <trkpt lat="43.62505" lon="3.42101">
        <ele>119.34</ele>
        <time>2016-02-21T16:38:18Z</time>
      </trkpt>
      <trkpt lat="43.62567" lon="3.42267">
        <ele>113.57</ele>
        <time>2016-02-21T16:38:30Z</time>
      </trkpt>
      <trkpt lat="43.62569" lon="3.42282">
        <ele>113.09</ele>
        <time>2016-02-21T16:38:31Z</time>
      </trkpt>
      <trkpt lat="43.6257" lon="3.42296">
        <ele>112.61</ele>
        <time>2016-02-21T16:38:32Z</time>
      </trkpt>
      <trkpt lat="43.6257" lon="3.42442">
        <ele>109.25</ele>
        <time>2016-02-21T16:38:43Z</time>
      </trkpt>
      <trkpt lat="43.62571" lon="3.42565">
        <ele>104.44</ele>
        <time>2016-02-21T16:38:55Z</time>
      </trkpt>
      <trkpt lat="43.62575" lon="3.42676">
        <ele>102.52</ele>
        <time>2016-02-21T16:39:04Z</time>
      </trkpt>
      <trkpt lat="43.62585" lon="3.42796">
        <ele>99.63</ele>
        <time>2016-02-21T16:39:15Z</time>
      </trkpt>
      <trkpt lat="43.62595" lon="3.42932">
        <ele>96.27</ele>
        <time>2016-02-21T16:39:28Z</time>
      </trkpt>
      <trkpt lat="43.62598" lon="3.43037">
        <ele>93.87</ele>
        <time>2016-02-21T16:39:39Z</time>
      </trkpt>
      <trkpt lat="43.62594" lon="3.43093">
        <ele>94.83</ele>
        <time>2016-02-21T16:39:50Z</time>
      </trkpt>
      <trkpt lat="43.62591" lon="3.43111">
        <ele>95.31</ele>
        <time>2016-02-21T16:39:53Z</time>
      </trkpt>
      <trkpt lat="43.6259" lon="3.43119">
        <ele>95.31</ele>
        <time>2016-02-21T16:39:54Z</time>
      </trkpt>
      <trkpt lat="43.62586" lon="3.43155">
        <ele>96.27</ele>
        <time>2016-02-21T16:39:58Z</time>
      </trkpt>
      <trkpt lat="43.62577" lon="3.43218">
        <ele>98.19</ele>
        <time>2016-02-21T16:40:05Z</time>
      </trkpt>
      <trkpt lat="43.62562" lon="3.43255">
        <ele>103.48</ele>
        <time>2016-02-21T16:40:13Z</time>
      </trkpt>
      <trkpt lat="43.62556" lon="3.43266">
        <ele>103.96</ele>
        <time>2016-02-21T16:40:17Z</time>
      </trkpt>
      <trkpt lat="43.62554" lon="3.43272">
        <ele>103.96</ele>
        <time>2016-02-21T16:40:18Z</time>
      </trkpt>
      <trkpt lat="43.62519" lon="3.43353">
        <ele>104.44</ele>
        <time>2016-02-21T16:40:31Z</time>
      </trkpt>
      <trkpt lat="43.62474" lon="3.43427">
        <ele>101.56</ele>
        <time>2016-02-21T16:40:41Z</time>
      </trkpt>
      <trkpt lat="43.62454" lon="3.43457">
        <ele>100.11</ele>
        <time>2016-02-21T16:40:48Z</time>
      </trkpt>
      <trkpt lat="43.62456" lon="3.43456">
        <ele>96.75</ele>
        <time>2016-02-21T16:41:08Z</time>
      </trkpt>
      <trkpt lat="43.6244" lon="3.43483">
        <ele>94.83</ele>
        <time>2016-02-21T16:41:17Z</time>
      </trkpt>
      <trkpt lat="43.62375" lon="3.43572">
        <ele>95.31</ele>
        <time>2016-02-21T16:41:27Z</time>
      </trkpt>
      <trkpt lat="43.62357" lon="3.43592">
        <ele>96.27</ele>
        <time>2016-02-21T16:41:30Z</time>
      </trkpt>
      <trkpt lat="43.62305" lon="3.43621">
        <ele>97.71</ele>
        <time>2016-02-21T16:41:36Z</time>
      </trkpt>
      <trkpt lat="43.62242" lon="3.43635">
        <ele>101.08</ele>
        <time>2016-02-21T16:41:43Z</time>
      </trkpt>
      <trkpt lat="43.62131" lon="3.43657">
        <ele>103.96</ele>
        <time>2016-02-21T16:41:55Z</time>
      </trkpt>
      <trkpt lat="43.62024" lon="3.4366">
        <ele>104.44</ele>
        <time>2016-02-21T16:42:06Z</time>
      </trkpt>
      <trkpt lat="43.61946" lon="3.43665">
        <ele>102.04</ele>
        <time>2016-02-21T16:42:14Z</time>
      </trkpt>
      <trkpt lat="43.61939" lon="3.43669">
        <ele>102.04</ele>
        <time>2016-02-21T16:42:15Z</time>
      </trkpt>
      <trkpt lat="43.61933" lon="3.43675">
        <ele>102.52</ele>
        <time>2016-02-21T16:42:16Z</time>
      </trkpt>
      <trkpt lat="43.61922" lon="3.43689">
        <ele>102.52</ele>
        <time>2016-02-21T16:42:18Z</time>
      </trkpt>
      <trkpt lat="43.61915" lon="3.43694">
        <ele>103</ele>
        <time>2016-02-21T16:42:19Z</time>
      </trkpt>
      <trkpt lat="43.61908" lon="3.43698">
        <ele>103</ele>
        <time>2016-02-21T16:42:20Z</time>
      </trkpt>
      <trkpt lat="43.61903" lon="3.43705">
        <ele>103</ele>
        <time>2016-02-21T16:42:21Z</time>
      </trkpt>
      <trkpt lat="43.619" lon="3.43714">
        <ele>102.52</ele>
        <time>2016-02-21T16:42:22Z</time>
      </trkpt>
      <trkpt lat="43.619" lon="3.43725">
        <ele>102.52</ele>
        <time>2016-02-21T16:42:23Z</time>
      </trkpt>
      <trkpt lat="43.61901" lon="3.43737">
        <ele>102.04</ele>
        <time>2016-02-21T16:42:24Z</time>
      </trkpt>
      <trkpt lat="43.61903" lon="3.43748">
        <ele>101.08</ele>
        <time>2016-02-21T16:42:25Z</time>
      </trkpt>
      <trkpt lat="43.61903" lon="3.43762">
        <ele>101.08</ele>
        <time>2016-02-21T16:42:26Z</time>
      </trkpt>
      <trkpt lat="43.61901" lon="3.43776">
        <ele>100.6</ele>
        <time>2016-02-21T16:42:27Z</time>
      </trkpt>
      <trkpt lat="43.61898" lon="3.4379">
        <ele>100.11</ele>
        <time>2016-02-21T16:42:28Z</time>
      </trkpt>
      <trkpt lat="43.61891" lon="3.43838">
        <ele>98.67</ele>
        <time>2016-02-21T16:42:31Z</time>
      </trkpt>
      <trkpt lat="43.61892" lon="3.43855">
        <ele>97.71</ele>
        <time>2016-02-21T16:42:32Z</time>
      </trkpt>
      <trkpt lat="43.61893" lon="3.43873">
        <ele>97.23</ele>
        <time>2016-02-21T16:42:33Z</time>
      </trkpt>
      <trkpt lat="43.61896" lon="3.43891">
        <ele>96.27</ele>
        <time>2016-02-21T16:42:34Z</time>
      </trkpt>
      <trkpt lat="43.61899" lon="3.43909">
        <ele>95.31</ele>
        <time>2016-02-21T16:42:35Z</time>
      </trkpt>
      <trkpt lat="43.61942" lon="3.44169">
        <ele>84.73</ele>
        <time>2016-02-21T16:42:48Z</time>
      </trkpt>
      <trkpt lat="43.61925" lon="3.44324">
        <ele>78.48</ele>
        <time>2016-02-21T16:42:55Z</time>
      </trkpt>
      <trkpt lat="43.61866" lon="3.44532">
        <ele>74.16</ele>
        <time>2016-02-21T16:43:04Z</time>
      </trkpt>
      <trkpt lat="43.61813" lon="3.44751">
        <ele>72.24</ele>
        <time>2016-02-21T16:43:14Z</time>
      </trkpt>
      <trkpt lat="43.61748" lon="3.45018">
        <ele>69.35</ele>
        <time>2016-02-21T16:43:28Z</time>
      </trkpt>
      <trkpt lat="43.61723" lon="3.4511">
        <ele>67.43</ele>
        <time>2016-02-21T16:43:35Z</time>
      </trkpt>
      <trkpt lat="43.61719" lon="3.45118">
        <ele>67.43</ele>
        <time>2016-02-21T16:43:36Z</time>
      </trkpt>
      <trkpt lat="43.61716" lon="3.45128">
        <ele>67.43</ele>
        <time>2016-02-21T16:43:37Z</time>
      </trkpt>
      <trkpt lat="43.61714" lon="3.45139">
        <ele>66.95</ele>
        <time>2016-02-21T16:43:38Z</time>
      </trkpt>
      <trkpt lat="43.61713" lon="3.45152">
        <ele>66.95</ele>
        <time>2016-02-21T16:43:39Z</time>
      </trkpt>
      <trkpt lat="43.61687" lon="3.45286">
        <ele>65.03</ele>
        <time>2016-02-21T16:43:47Z</time>
      </trkpt>
      <trkpt lat="43.61631" lon="3.45423">
        <ele>64.07</ele>
        <time>2016-02-21T16:43:55Z</time>
      </trkpt>
      <trkpt lat="43.61557" lon="3.45489">
        <ele>63.58</ele>
        <time>2016-02-21T16:44:02Z</time>
      </trkpt>
      <trkpt lat="43.61538" lon="3.45507">
        <ele>63.58</ele>
        <time>2016-02-21T16:44:04Z</time>
      </trkpt>
      <trkpt lat="43.61531" lon="3.45517">
        <ele>63.1</ele>
        <time>2016-02-21T16:44:05Z</time>
      </trkpt>
      <trkpt lat="43.61517" lon="3.4554">
        <ele>63.1</ele>
        <time>2016-02-21T16:44:10Z</time>
      </trkpt>
      <trkpt lat="43.61509" lon="3.45553">
        <ele>63.1</ele>
        <time>2016-02-21T16:44:19Z</time>
      </trkpt>
      <trkpt lat="43.61503" lon="3.45558">
        <ele>63.1</ele>
        <time>2016-02-21T16:44:24Z</time>
      </trkpt>
      <trkpt lat="43.6149" lon="3.45569">
        <ele>63.1</ele>
        <time>2016-02-21T16:44:26Z</time>
      </trkpt>
      <trkpt lat="43.61485" lon="3.45577">
        <ele>63.1</ele>
        <time>2016-02-21T16:44:27Z</time>
      </trkpt>
      <trkpt lat="43.61482" lon="3.45588">
        <ele>63.1</ele>
        <time>2016-02-21T16:44:28Z</time>
      </trkpt>
      <trkpt lat="43.61481" lon="3.456">
        <ele>62.62</ele>
        <time>2016-02-21T16:44:29Z</time>
      </trkpt>
      <trkpt lat="43.61484" lon="3.45613">
        <ele>62.62</ele>
        <time>2016-02-21T16:44:30Z</time>
      </trkpt>
      <trkpt lat="43.61486" lon="3.45627">
        <ele>62.14</ele>
        <time>2016-02-21T16:44:31Z</time>
      </trkpt>
      <trkpt lat="43.61487" lon="3.45641">
        <ele>61.66</ele>
        <time>2016-02-21T16:44:32Z</time>
      </trkpt>
      <trkpt lat="43.61486" lon="3.45657">
        <ele>61.18</ele>
        <time>2016-02-21T16:44:33Z</time>
      </trkpt>
      <trkpt lat="43.61483" lon="3.45672">
        <ele>61.18</ele>
        <time>2016-02-21T16:44:34Z</time>
      </trkpt>
      <trkpt lat="43.6148" lon="3.45687">
        <ele>61.18</ele>
        <time>2016-02-21T16:44:35Z</time>
      </trkpt>
      <trkpt lat="43.61444" lon="3.45835">
        <ele>60.22</ele>
        <time>2016-02-21T16:44:43Z</time>
      </trkpt>
      <trkpt lat="43.61358" lon="3.46174">
        <ele>63.1</ele>
        <time>2016-02-21T16:44:58Z</time>
      </trkpt>
      <trkpt lat="43.61264" lon="3.46394">
        <ele>56.37</ele>
        <time>2016-02-21T16:45:08Z</time>
      </trkpt>
      <trkpt lat="43.61201" lon="3.46491">
        <ele>55.89</ele>
        <time>2016-02-21T16:45:15Z</time>
      </trkpt>
      <trkpt lat="43.61188" lon="3.46504">
        <ele>55.89</ele>
        <time>2016-02-21T16:45:17Z</time>
      </trkpt>
      <trkpt lat="43.61181" lon="3.46509">
        <ele>55.89</ele>
        <time>2016-02-21T16:45:18Z</time>
      </trkpt>
      <trkpt lat="43.61173" lon="3.46513">
        <ele>55.89</ele>
        <time>2016-02-21T16:45:19Z</time>
      </trkpt>
      <trkpt lat="43.61166" lon="3.46518">
        <ele>55.89</ele>
        <time>2016-02-21T16:45:20Z</time>
      </trkpt>
      <trkpt lat="43.6116" lon="3.46525">
        <ele>55.89</ele>
        <time>2016-02-21T16:45:21Z</time>
      </trkpt>
      <trkpt lat="43.61158" lon="3.46536">
        <ele>55.89</ele>
        <time>2016-02-21T16:45:22Z</time>
      </trkpt>
      <trkpt lat="43.61159" lon="3.46547">
        <ele>55.89</ele>
        <time>2016-02-21T16:45:23Z</time>
      </trkpt>
      <trkpt lat="43.61165" lon="3.46556">
        <ele>55.41</ele>
        <time>2016-02-21T16:45:24Z</time>
      </trkpt>
      <trkpt lat="43.61173" lon="3.46562">
        <ele>54.93</ele>
        <time>2016-02-21T16:45:25Z</time>
      </trkpt>
      <trkpt lat="43.61182" lon="3.46563">
        <ele>54.45</ele>
        <time>2016-02-21T16:45:26Z</time>
      </trkpt>
      <trkpt lat="43.6119" lon="3.46557">
        <ele>54.45</ele>
        <time>2016-02-21T16:45:27Z</time>
      </trkpt>
      <trkpt lat="43.61196" lon="3.46547">
        <ele>54.45</ele>
        <time>2016-02-21T16:45:28Z</time>
      </trkpt>
      <trkpt lat="43.612" lon="3.46536">
        <ele>54.45</ele>
        <time>2016-02-21T16:45:29Z</time>
      </trkpt>
      <trkpt lat="43.61203" lon="3.46524">
        <ele>54.45</ele>
        <time>2016-02-21T16:45:30Z</time>
      </trkpt>
      <trkpt lat="43.61205" lon="3.46511">
        <ele>54.45</ele>
        <time>2016-02-21T16:45:31Z</time>
      </trkpt>
      <trkpt lat="43.61209" lon="3.46497">
        <ele>54.45</ele>
        <time>2016-02-21T16:45:32Z</time>
      </trkpt>
      <trkpt lat="43.61215" lon="3.46484">
        <ele>54.45</ele>
        <time>2016-02-21T16:45:33Z</time>
      </trkpt>
      <trkpt lat="43.61221" lon="3.46471">
        <ele>54.45</ele>
        <time>2016-02-21T16:45:34Z</time>
      </trkpt>
      <trkpt lat="43.61301" lon="3.46337">
        <ele>56.37</ele>
        <time>2016-02-21T16:45:43Z</time>
      </trkpt>
      <trkpt lat="43.61418" lon="3.46141">
        <ele>58.78</ele>
        <time>2016-02-21T16:45:53Z</time>
      </trkpt>
      <trkpt lat="43.61543" lon="3.46014">
        <ele>59.74</ele>
        <time>2016-02-21T16:46:00Z</time>
      </trkpt>
      <trkpt lat="43.61699" lon="3.45924">
        <ele>60.22</ele>
        <time>2016-02-21T16:46:07Z</time>
      </trkpt>
      <trkpt lat="43.61976" lon="3.45726">
        <ele>61.18</ele>
        <time>2016-02-21T16:46:20Z</time>
      </trkpt>
      <trkpt lat="43.622" lon="3.45505">
        <ele>63.1</ele>
        <time>2016-02-21T16:46:32Z</time>
      </trkpt>
      <trkpt lat="43.62545" lon="3.45171">
        <ele>66.95</ele>
        <time>2016-02-21T16:46:50Z</time>
      </trkpt>
      <trkpt lat="43.62782" lon="3.44998">
        <ele>69.83</ele>
        <time>2016-02-21T16:47:01Z</time>
      </trkpt>
      <trkpt lat="43.63048" lon="3.4487">
        <ele>72.24</ele>
        <time>2016-02-21T16:47:11Z</time>
      </trkpt>
      <trkpt lat="43.63365" lon="3.44772">
        <ele>73.68</ele>
        <time>2016-02-21T16:47:22Z</time>
      </trkpt>
      <trkpt lat="43.63708" lon="3.44689">
        <ele>71.76</ele>
        <time>2016-02-21T16:47:34Z</time>
      </trkpt>
      <trkpt lat="43.64028" lon="3.44631">
        <ele>65.03</ele>
        <time>2016-02-21T16:47:45Z</time>
      </trkpt>
      <trkpt lat="43.64231" lon="3.4467">
        <ele>60.22</ele>
        <time>2016-02-21T16:47:52Z</time>
      </trkpt>
      <trkpt lat="43.64407" lon="3.44775">
        <ele>55.41</ele>
        <time>2016-02-21T16:47:59Z</time>
      </trkpt>
      <trkpt lat="43.64647" lon="3.44948">
        <ele>54.45</ele>
        <time>2016-02-21T16:48:09Z</time>
      </trkpt>
      <trkpt lat="43.64831" lon="3.44986">
        <ele>61.66</ele>
        <time>2016-02-21T16:48:16Z</time>
      </trkpt>
      <trkpt lat="43.65009" lon="3.4495">
        <ele>69.35</ele>
        <time>2016-02-21T16:48:23Z</time>
      </trkpt>
      <trkpt lat="43.65302" lon="3.44864">
        <ele>73.68</ele>
        <time>2016-02-21T16:48:35Z</time>
      </trkpt>
      <trkpt lat="43.65326" lon="3.44869">
        <ele>73.68</ele>
        <time>2016-02-21T16:48:36Z</time>
      </trkpt>
      <trkpt lat="43.65349" lon="3.44876">
        <ele>73.68</ele>
        <time>2016-02-21T16:48:37Z</time>
      </trkpt>
      <trkpt lat="43.65371" lon="3.44887">
        <ele>73.68</ele>
        <time>2016-02-21T16:48:38Z</time>
      </trkpt>
      <trkpt lat="43.65392" lon="3.44901">
        <ele>73.68</ele>
        <time>2016-02-21T16:48:39Z</time>
      </trkpt>
      <trkpt lat="43.65411" lon="3.44917">
        <ele>73.68</ele>
        <time>2016-02-21T16:48:40Z</time>
      </trkpt>
      <trkpt lat="43.65428" lon="3.44935">
        <ele>73.68</ele>
        <time>2016-02-21T16:48:41Z</time>
      </trkpt>
      <trkpt lat="43.65443" lon="3.44955">
        <ele>74.16</ele>
        <time>2016-02-21T16:48:42Z</time>
      </trkpt>
      <trkpt lat="43.65457" lon="3.44977">
        <ele>74.16</ele>
        <time>2016-02-21T16:48:43Z</time>
      </trkpt>
      <trkpt lat="43.6547" lon="3.45002">
        <ele>74.64</ele>
        <time>2016-02-21T16:48:44Z</time>
      </trkpt>
      <trkpt lat="43.65481" lon="3.45028">
        <ele>74.64</ele>
        <time>2016-02-21T16:48:45Z</time>
      </trkpt>
      <trkpt lat="43.6549" lon="3.45056">
        <ele>74.64</ele>
        <time>2016-02-21T16:48:46Z</time>
      </trkpt>
      <trkpt lat="43.65497" lon="3.45086">
        <ele>74.16</ele>
        <time>2016-02-21T16:48:47Z</time>
      </trkpt>
      <trkpt lat="43.65503" lon="3.45116">
        <ele>73.68</ele>
        <time>2016-02-21T16:48:48Z</time>
      </trkpt>
      <trkpt lat="43.65507" lon="3.45147">
        <ele>73.68</ele>
        <time>2016-02-21T16:48:49Z</time>
      </trkpt>
      <trkpt lat="43.65579" lon="3.45595">
        <ele>74.16</ele>
        <time>2016-02-21T16:49:03Z</time>
      </trkpt>
      <trkpt lat="43.65642" lon="3.45968">
        <ele>73.68</ele>
        <time>2016-02-21T16:49:14Z</time>
      </trkpt>
      <trkpt lat="43.65735" lon="3.46527">
        <ele>72.72</ele>
        <time>2016-02-21T16:49:31Z</time>
      </trkpt>
      <trkpt lat="43.65831" lon="3.47179">
        <ele>74.16</ele>
        <time>2016-02-21T16:49:50Z</time>
      </trkpt>
      <trkpt lat="43.65904" lon="3.47761">
        <ele>78</ele>
        <time>2016-02-21T16:50:06Z</time>
      </trkpt>
      <trkpt lat="43.65922" lon="3.48163">
        <ele>78</ele>
        <time>2016-02-21T16:50:16Z</time>
      </trkpt>
      <trkpt lat="43.65904" lon="3.48628">
        <ele>77.52</ele>
        <time>2016-02-21T16:50:27Z</time>
      </trkpt>
      <trkpt lat="43.65851" lon="3.4928">
        <ele>77.04</ele>
        <time>2016-02-21T16:50:42Z</time>
      </trkpt>
      <trkpt lat="43.65866" lon="3.49641">
        <ele>76.56</ele>
        <time>2016-02-21T16:50:51Z</time>
      </trkpt>
      <trkpt lat="43.65921" lon="3.49988">
        <ele>75.12</ele>
        <time>2016-02-21T16:51:00Z</time>
      </trkpt>
      <trkpt lat="43.65975" lon="3.50428">
        <ele>73.2</ele>
        <time>2016-02-21T16:51:11Z</time>
      </trkpt>
      <trkpt lat="43.65973" lon="3.5083">
        <ele>71.27</ele>
        <time>2016-02-21T16:51:21Z</time>
      </trkpt>
      <trkpt lat="43.65918" lon="3.51226">
        <ele>69.83</ele>
        <time>2016-02-21T16:51:31Z</time>
      </trkpt>
      <trkpt lat="43.65812" lon="3.51605">
        <ele>67.91</ele>
        <time>2016-02-21T16:51:41Z</time>
      </trkpt>
      <trkpt lat="43.6568" lon="3.51909">
        <ele>65.99</ele>
        <time>2016-02-21T16:51:50Z</time>
      </trkpt>
      <trkpt lat="43.6541" lon="3.52468">
        <ele>57.34</ele>
        <time>2016-02-21T16:52:07Z</time>
      </trkpt>
      <trkpt lat="43.65282" lon="3.52832">
        <ele>52.53</ele>
        <time>2016-02-21T16:52:17Z</time>
      </trkpt>
      <trkpt lat="43.65213" lon="3.53194">
        <ele>47.24</ele>
        <time>2016-02-21T16:52:26Z</time>
      </trkpt>
      <trkpt lat="43.65154" lon="3.53769">
        <ele>43.88</ele>
        <time>2016-02-21T16:52:40Z</time>
      </trkpt>
      <trkpt lat="43.65087" lon="3.54083">
        <ele>43.4</ele>
        <time>2016-02-21T16:52:48Z</time>
      </trkpt>
      <trkpt lat="43.64982" lon="3.54332">
        <ele>45.32</ele>
        <time>2016-02-21T16:52:55Z</time>
      </trkpt>
      <trkpt lat="43.64841" lon="3.54537">
        <ele>48.2</ele>
        <time>2016-02-21T16:53:02Z</time>
      </trkpt>
      <trkpt lat="43.64664" lon="3.54786">
        <ele>58.78</ele>
        <time>2016-02-21T16:53:11Z</time>
      </trkpt>
      <trkpt lat="43.64562" lon="3.55034">
        <ele>65.99</ele>
        <time>2016-02-21T16:53:18Z</time>
      </trkpt>
      <trkpt lat="43.64497" lon="3.55352">
        <ele>69.83</ele>
        <time>2016-02-21T16:53:26Z</time>
      </trkpt>
      <trkpt lat="43.64465" lon="3.55768">
        <ele>74.64</ele>
        <time>2016-02-21T16:53:37Z</time>
      </trkpt>
      <trkpt lat="43.64408" lon="3.56305">
        <ele>92.9</ele>
        <time>2016-02-21T16:53:51Z</time>
      </trkpt>
      <trkpt lat="43.6433" lon="3.56556">
        <ele>97.71</ele>
        <time>2016-02-21T16:53:58Z</time>
      </trkpt>
      <trkpt lat="43.64168" lon="3.56949">
        <ele>104.44</ele>
        <time>2016-02-21T16:54:10Z</time>
      </trkpt>
      <trkpt lat="43.64072" lon="3.57279">
        <ele>110.21</ele>
        <time>2016-02-21T16:54:20Z</time>
      </trkpt>
      <trkpt lat="43.6397" lon="3.57647">
        <ele>112.13</ele>
        <time>2016-02-21T16:54:31Z</time>
      </trkpt>
      <trkpt lat="43.63859" lon="3.57927">
        <ele>111.17</ele>
        <time>2016-02-21T16:54:39Z</time>
      </trkpt>
      <trkpt lat="43.63706" lon="3.58158">
        <ele>110.69</ele>
        <time>2016-02-21T16:54:47Z</time>
      </trkpt>
      <trkpt lat="43.63398" lon="3.58568">
        <ele>117.9</ele>
        <time>2016-02-21T16:55:02Z</time>
      </trkpt>
      <trkpt lat="43.6297" lon="3.59144">
        <ele>143.37</ele>
        <time>2016-02-21T16:55:23Z</time>
      </trkpt>
      <trkpt lat="43.62811" lon="3.59427">
        <ele>157.31</ele>
        <time>2016-02-21T16:55:32Z</time>
      </trkpt>
      <trkpt lat="43.62713" lon="3.59727">
        <ele>167.89</ele>
        <time>2016-02-21T16:55:40Z</time>
      </trkpt>
      <trkpt lat="43.62665" lon="3.60053">
        <ele>174.14</ele>
        <time>2016-02-21T16:55:48Z</time>
      </trkpt>
      <trkpt lat="43.62665" lon="3.60381">
        <ele>183.27</ele>
        <time>2016-02-21T16:55:56Z</time>
      </trkpt>
      <trkpt lat="43.62649" lon="3.60716">
        <ele>193.36</ele>
        <time>2016-02-21T16:56:04Z</time>
      </trkpt>
      <trkpt lat="43.62583" lon="3.61029">
        <ele>204.42</ele>
        <time>2016-02-21T16:56:12Z</time>
      </trkpt>
      <trkpt lat="43.62546" lon="3.61348">
        <ele>214.51</ele>
        <time>2016-02-21T16:56:20Z</time>
      </trkpt>
      <trkpt lat="43.62489" lon="3.61827">
        <ele>221.24</ele>
        <time>2016-02-21T16:56:32Z</time>
      </trkpt>
      <trkpt lat="43.62394" lon="3.6221">
        <ele>217.88</ele>
        <time>2016-02-21T16:56:42Z</time>
      </trkpt>
      <trkpt lat="43.62338" lon="3.62525">
        <ele>214.03</ele>
        <time>2016-02-21T16:56:50Z</time>
      </trkpt>
      <trkpt lat="43.62324" lon="3.62891">
        <ele>209.7</ele>
        <time>2016-02-21T16:56:59Z</time>
      </trkpt>
      <trkpt lat="43.62358" lon="3.63253">
        <ele>204.42</ele>
        <time>2016-02-21T16:57:08Z</time>
      </trkpt>
      <trkpt lat="43.62445" lon="3.63927">
        <ele>195.28</ele>
        <time>2016-02-21T16:57:25Z</time>
      </trkpt>
      <trkpt lat="43.62545" lon="3.64707">
        <ele>180.38</ele>
        <time>2016-02-21T16:57:44Z</time>
      </trkpt>
      <trkpt lat="43.62555" lon="3.65041">
        <ele>171.73</ele>
        <time>2016-02-21T16:57:52Z</time>
      </trkpt>
      <trkpt lat="43.62562" lon="3.6541">
        <ele>160.68</ele>
        <time>2016-02-21T16:58:01Z</time>
      </trkpt>
      <trkpt lat="43.62626" lon="3.65687">
        <ele>152.51</ele>
        <time>2016-02-21T16:58:08Z</time>
      </trkpt>
      <trkpt lat="43.62669" lon="3.6598">
        <ele>147.7</ele>
        <time>2016-02-21T16:58:15Z</time>
      </trkpt>
      <trkpt lat="43.62665" lon="3.66316">
        <ele>150.1</ele>
        <time>2016-02-21T16:58:23Z</time>
      </trkpt>
      <trkpt lat="43.62694" lon="3.66649">
        <ele>159.72</ele>
        <time>2016-02-21T16:58:31Z</time>
      </trkpt>
      <trkpt lat="43.62779" lon="3.67076">
        <ele>173.66</ele>
        <time>2016-02-21T16:58:42Z</time>
      </trkpt>
      <trkpt lat="43.62914" lon="3.67617">
        <ele>179.42</ele>
        <time>2016-02-21T16:58:56Z</time>
      </trkpt>
      <trkpt lat="43.63054" lon="3.67995">
        <ele>172.21</ele>
        <time>2016-02-21T16:59:06Z</time>
      </trkpt>
      <trkpt lat="43.63104" lon="3.6828">
        <ele>162.6</ele>
        <time>2016-02-21T16:59:13Z</time>
      </trkpt>
      <trkpt lat="43.63097" lon="3.6857">
        <ele>151.06</ele>
        <time>2016-02-21T16:59:20Z</time>
      </trkpt>
      <trkpt lat="43.63036" lon="3.6889">
        <ele>138.57</ele>
        <time>2016-02-21T16:59:28Z</time>
      </trkpt>
      <trkpt lat="43.62901" lon="3.69494">
        <ele>132.32</ele>
        <time>2016-02-21T16:59:44Z</time>
      </trkpt>
      <trkpt lat="43.62844" lon="3.69765">
        <ele>133.76</ele>
        <time>2016-02-21T16:59:53Z</time>
      </trkpt>
      <trkpt lat="43.6281" lon="3.70021">
        <ele>135.68</ele>
        <time>2016-02-21T17:00:01Z</time>
      </trkpt>
      <trkpt lat="43.62796" lon="3.70413">
        <ele>137.61</ele>
        <time>2016-02-21T17:00:12Z</time>
      </trkpt>
      <trkpt lat="43.62831" lon="3.70796">
        <ele>139.05</ele>
        <time>2016-02-21T17:00:22Z</time>
      </trkpt>
      <trkpt lat="43.62913" lon="3.71177">
        <ele>140.97</ele>
        <time>2016-02-21T17:00:32Z</time>
      </trkpt>
      <trkpt lat="43.63086" lon="3.71875">
        <ele>146.26</ele>
        <time>2016-02-21T17:00:50Z</time>
      </trkpt>
      <trkpt lat="43.63243" lon="3.72527">
        <ele>150.1</ele>
        <time>2016-02-21T17:01:07Z</time>
      </trkpt>
      <trkpt lat="43.63289" lon="3.72886">
        <ele>152.03</ele>
        <time>2016-02-21T17:01:16Z</time>
      </trkpt>
      <trkpt lat="43.6329" lon="3.73288">
        <ele>153.95</ele>
        <time>2016-02-21T17:01:26Z</time>
      </trkpt>
      <trkpt lat="43.63236" lon="3.74179">
        <ele>152.51</ele>
        <time>2016-02-21T17:01:48Z</time>
      </trkpt>
      <trkpt lat="43.63248" lon="3.74513">
        <ele>149.14</ele>
        <time>2016-02-21T17:01:56Z</time>
      </trkpt>
      <trkpt lat="43.63308" lon="3.74831">
        <ele>144.82</ele>
        <time>2016-02-21T17:02:04Z</time>
      </trkpt>
      <trkpt lat="43.63392" lon="3.75237">
        <ele>136.16</ele>
        <time>2016-02-21T17:02:15Z</time>
      </trkpt>
      <trkpt lat="43.63397" lon="3.75502">
        <ele>130.4</ele>
        <time>2016-02-21T17:02:22Z</time>
      </trkpt>
      <trkpt lat="43.63354" lon="3.75769">
        <ele>124.15</ele>
        <time>2016-02-21T17:02:29Z</time>
      </trkpt>
      <trkpt lat="43.63257" lon="3.76036">
        <ele>118.38</ele>
        <time>2016-02-21T17:02:37Z</time>
      </trkpt>
      <trkpt lat="43.63106" lon="3.76466">
        <ele>113.09</ele>
        <time>2016-02-21T17:02:50Z</time>
      </trkpt>
      <trkpt lat="43.62997" lon="3.76939">
        <ele>100.11</ele>
        <time>2016-02-21T17:03:04Z</time>
      </trkpt>
      <trkpt lat="43.62885" lon="3.77484">
        <ele>94.35</ele>
        <time>2016-02-21T17:03:20Z</time>
      </trkpt>
      <trkpt lat="43.62895" lon="3.77707">
        <ele>94.35</ele>
        <time>2016-02-21T17:03:26Z</time>
      </trkpt>
      <trkpt lat="43.62901" lon="3.77972">
        <ele>93.87</ele>
        <time>2016-02-21T17:03:33Z</time>
      </trkpt>
      <trkpt lat="43.62875" lon="3.78083">
        <ele>93.87</ele>
        <time>2016-02-21T17:03:36Z</time>
      </trkpt>
      <trkpt lat="43.62862" lon="3.78117">
        <ele>93.39</ele>
        <time>2016-02-21T17:03:37Z</time>
      </trkpt>
      <trkpt lat="43.62847" lon="3.78149">
        <ele>93.39</ele>
        <time>2016-02-21T17:03:38Z</time>
      </trkpt>
      <trkpt lat="43.62831" lon="3.7818">
        <ele>92.9</ele>
        <time>2016-02-21T17:03:39Z</time>
      </trkpt>
      <trkpt lat="43.62813" lon="3.78209">
        <ele>92.9</ele>
        <time>2016-02-21T17:03:40Z</time>
      </trkpt>
      <trkpt lat="43.62795" lon="3.78237">
        <ele>92.42</ele>
        <time>2016-02-21T17:03:41Z</time>
      </trkpt>
      <trkpt lat="43.62544" lon="3.78578">
        <ele>84.73</ele>
        <time>2016-02-21T17:03:54Z</time>
      </trkpt>
      <trkpt lat="43.62293" lon="3.78904">
        <ele>74.64</ele>
        <time>2016-02-21T17:04:07Z</time>
      </trkpt>
      <trkpt lat="43.62273" lon="3.78926">
        <ele>74.16</ele>
        <time>2016-02-21T17:04:08Z</time>
      </trkpt>
      <trkpt lat="43.62253" lon="3.78945">
        <ele>73.68</ele>
        <time>2016-02-21T17:04:09Z</time>
      </trkpt>
      <trkpt lat="43.61974" lon="3.79172">
        <ele>65.51</ele>
        <time>2016-02-21T17:04:22Z</time>
      </trkpt>
      <trkpt lat="43.61847" lon="3.79317">
        <ele>63.58</ele>
        <time>2016-02-21T17:04:29Z</time>
      </trkpt>
      <trkpt lat="43.61716" lon="3.79574">
        <ele>56.86</ele>
        <time>2016-02-21T17:04:39Z</time>
      </trkpt>
      <trkpt lat="43.61572" lon="3.79819">
        <ele>57.82</ele>
        <time>2016-02-21T17:04:49Z</time>
      </trkpt>
      <trkpt lat="43.61428" lon="3.79933">
        <ele>60.22</ele>
        <time>2016-02-21T17:04:56Z</time>
      </trkpt>
      <trkpt lat="43.61208" lon="3.80096">
        <ele>53.49</ele>
        <time>2016-02-21T17:05:07Z</time>
      </trkpt>
      <trkpt lat="43.61046" lon="3.80324">
        <ele>41.95</ele>
        <time>2016-02-21T17:05:17Z</time>
      </trkpt>
      <trkpt lat="43.60877" lon="3.80536">
        <ele>34.74</ele>
        <time>2016-02-21T17:05:27Z</time>
      </trkpt>
      <trkpt lat="43.60782" lon="3.80719">
        <ele>32.82</ele>
        <time>2016-02-21T17:05:34Z</time>
      </trkpt>
      <trkpt lat="43.60683" lon="3.80984">
        <ele>30.9</ele>
        <time>2016-02-21T17:05:43Z</time>
      </trkpt>
      <trkpt lat="43.60545" lon="3.81253">
        <ele>28.98</ele>
        <time>2016-02-21T17:05:53Z</time>
      </trkpt>
      <trkpt lat="43.60519" lon="3.81441">
        <ele>27.53</ele>
        <time>2016-02-21T17:05:59Z</time>
      </trkpt>
      <trkpt lat="43.60554" lon="3.81631">
        <ele>27.05</ele>
        <time>2016-02-21T17:06:05Z</time>
      </trkpt>
      <trkpt lat="43.60661" lon="3.81849">
        <ele>28.02</ele>
        <time>2016-02-21T17:06:13Z</time>
      </trkpt>
      <trkpt lat="43.60804" lon="3.821">
        <ele>31.38</ele>
        <time>2016-02-21T17:06:23Z</time>
      </trkpt>
      <trkpt lat="43.60897" lon="3.82196">
        <ele>32.82</ele>
        <time>2016-02-21T17:06:29Z</time>
      </trkpt>
      <trkpt lat="43.61014" lon="3.82261">
        <ele>32.34</ele>
        <time>2016-02-21T17:06:37Z</time>
      </trkpt>
      <trkpt lat="43.61172" lon="3.82286">
        <ele>30.42</ele>
        <time>2016-02-21T17:06:47Z</time>
      </trkpt>
      <trkpt lat="43.61276" lon="3.82352">
        <ele>31.86</ele>
        <time>2016-02-21T17:06:54Z</time>
      </trkpt>
      <trkpt lat="43.61284" lon="3.82366">
        <ele>32.34</ele>
        <time>2016-02-21T17:06:55Z</time>
      </trkpt>
      <trkpt lat="43.61288" lon="3.82382">
        <ele>33.3</ele>
        <time>2016-02-21T17:06:56Z</time>
      </trkpt>
      <trkpt lat="43.61291" lon="3.82398">
        <ele>33.78</ele>
        <time>2016-02-21T17:06:57Z</time>
      </trkpt>
      <trkpt lat="43.61291" lon="3.82414">
        <ele>34.26</ele>
        <time>2016-02-21T17:06:58Z</time>
      </trkpt>
      <trkpt lat="43.61289" lon="3.8243">
        <ele>34.74</ele>
        <time>2016-02-21T17:06:59Z</time>
      </trkpt>
      <trkpt lat="43.61285" lon="3.82445">
        <ele>35.71</ele>
        <time>2016-02-21T17:07:00Z</time>
      </trkpt>
      <trkpt lat="43.6128" lon="3.82458">
        <ele>36.19</ele>
        <time>2016-02-21T17:07:01Z</time>
      </trkpt>
      <trkpt lat="43.61272" lon="3.8247">
        <ele>36.67</ele>
        <time>2016-02-21T17:07:02Z</time>
      </trkpt>
      <trkpt lat="43.61263" lon="3.82478">
        <ele>37.15</ele>
        <time>2016-02-21T17:07:03Z</time>
      </trkpt>
      <trkpt lat="43.61251" lon="3.82479">
        <ele>38.11</ele>
        <time>2016-02-21T17:07:04Z</time>
      </trkpt>
      <trkpt lat="43.61239" lon="3.82476">
        <ele>39.55</ele>
        <time>2016-02-21T17:07:05Z</time>
      </trkpt>
      <trkpt lat="43.6123" lon="3.82469">
        <ele>40.03</ele>
        <time>2016-02-21T17:07:06Z</time>
      </trkpt>
      <trkpt lat="43.61224" lon="3.82458">
        <ele>40.51</ele>
        <time>2016-02-21T17:07:07Z</time>
      </trkpt>
      <trkpt lat="43.61221" lon="3.82445">
        <ele>40.99</ele>
        <time>2016-02-21T17:07:08Z</time>
      </trkpt>
      <trkpt lat="43.6122" lon="3.82431">
        <ele>41.95</ele>
        <time>2016-02-21T17:07:09Z</time>
      </trkpt>
      <trkpt lat="43.61222" lon="3.82417">
        <ele>41.95</ele>
        <time>2016-02-21T17:07:10Z</time>
      </trkpt>
      <trkpt lat="43.61227" lon="3.82404">
        <ele>41.47</ele>
        <time>2016-02-21T17:07:11Z</time>
      </trkpt>
      <trkpt lat="43.61232" lon="3.82391">
        <ele>40.99</ele>
        <time>2016-02-21T17:07:12Z</time>
      </trkpt>
      <trkpt lat="43.61239" lon="3.82377">
        <ele>40.51</ele>
        <time>2016-02-21T17:07:13Z</time>
      </trkpt>
      <trkpt lat="43.61247" lon="3.82362">
        <ele>40.51</ele>
        <time>2016-02-21T17:07:14Z</time>
      </trkpt>
      <trkpt lat="43.61315" lon="3.82264">
        <ele>37.63</ele>
        <time>2016-02-21T17:07:20Z</time>
      </trkpt>
      <trkpt lat="43.61484" lon="3.82135">
        <ele>42.44</ele>
        <time>2016-02-21T17:07:31Z</time>
      </trkpt>
      <trkpt lat="43.61651" lon="3.82024">
        <ele>42.44</ele>
        <time>2016-02-21T17:07:41Z</time>
      </trkpt>
      <trkpt lat="43.61669" lon="3.82019">
        <ele>42.44</ele>
        <time>2016-02-21T17:07:42Z</time>
      </trkpt>
      <trkpt lat="43.61687" lon="3.82017">
        <ele>41.95</ele>
        <time>2016-02-21T17:07:43Z</time>
      </trkpt>
      <trkpt lat="43.61706" lon="3.82018">
        <ele>41.95</ele>
        <time>2016-02-21T17:07:44Z</time>
      </trkpt>
      <trkpt lat="43.61724" lon="3.82024">
        <ele>41.47</ele>
        <time>2016-02-21T17:07:45Z</time>
      </trkpt>
      <trkpt lat="43.61741" lon="3.82032">
        <ele>41.47</ele>
        <time>2016-02-21T17:07:46Z</time>
      </trkpt>
      <trkpt lat="43.61758" lon="3.82043">
        <ele>40.99</ele>
        <time>2016-02-21T17:07:47Z</time>
      </trkpt>
      <trkpt lat="43.61775" lon="3.82056">
        <ele>40.99</ele>
        <time>2016-02-21T17:07:48Z</time>
      </trkpt>
      <trkpt lat="43.61914" lon="3.82172">
        <ele>41.95</ele>
        <time>2016-02-21T17:07:57Z</time>
      </trkpt>
      <trkpt lat="43.62028" lon="3.82243">
        <ele>45.8</ele>
        <time>2016-02-21T17:08:05Z</time>
      </trkpt>
      <trkpt lat="43.62124" lon="3.82273">
        <ele>45.8</ele>
        <time>2016-02-21T17:08:14Z</time>
      </trkpt>
      <trkpt lat="43.62184" lon="3.82282">
        <ele>45.32</ele>
        <time>2016-02-21T17:08:24Z</time>
      </trkpt>
      <trkpt lat="43.6219" lon="3.82288">
        <ele>45.8</ele>
        <time>2016-02-21T17:08:29Z</time>
      </trkpt>
      <trkpt lat="43.62193" lon="3.82294">
        <ele>45.8</ele>
        <time>2016-02-21T17:08:30Z</time>
      </trkpt>
      <trkpt lat="43.62197" lon="3.823">
        <ele>45.8</ele>
        <time>2016-02-21T17:08:31Z</time>
      </trkpt>
      <trkpt lat="43.62202" lon="3.82304">
        <ele>46.28</ele>
        <time>2016-02-21T17:08:32Z</time>
      </trkpt>
      <trkpt lat="43.62208" lon="3.82305">
        <ele>46.28</ele>
        <time>2016-02-21T17:08:33Z</time>
      </trkpt>
      <trkpt lat="43.62214" lon="3.82303">
        <ele>46.28</ele>
        <time>2016-02-21T17:08:34Z</time>
      </trkpt>
      <trkpt lat="43.62221" lon="3.823">
        <ele>46.76</ele>
        <time>2016-02-21T17:08:35Z</time>
      </trkpt>
      <trkpt lat="43.62229" lon="3.82297">
        <ele>46.76</ele>
        <time>2016-02-21T17:08:36Z</time>
      </trkpt>
      <trkpt lat="43.62239" lon="3.82297">
        <ele>47.24</ele>
        <time>2016-02-21T17:08:37Z</time>
      </trkpt>
      <trkpt lat="43.62249" lon="3.82301">
        <ele>47.72</ele>
        <time>2016-02-21T17:08:38Z</time>
      </trkpt>
      <trkpt lat="43.62261" lon="3.8231">
        <ele>48.2</ele>
        <time>2016-02-21T17:08:39Z</time>
      </trkpt>
      <trkpt lat="43.62271" lon="3.82321">
        <ele>49.16</ele>
        <time>2016-02-21T17:08:40Z</time>
      </trkpt>
      <trkpt lat="43.62282" lon="3.82335">
        <ele>49.65</ele>
        <time>2016-02-21T17:08:41Z</time>
      </trkpt>
      <trkpt lat="43.62292" lon="3.82349">
        <ele>50.13</ele>
        <time>2016-02-21T17:08:42Z</time>
      </trkpt>
      <trkpt lat="43.62426" lon="3.82541">
        <ele>54.45</ele>
        <time>2016-02-21T17:08:55Z</time>
      </trkpt>
      <trkpt lat="43.6244" lon="3.82571">
        <ele>54.45</ele>
        <time>2016-02-21T17:08:57Z</time>
      </trkpt>
      <trkpt lat="43.62445" lon="3.82586">
        <ele>54.45</ele>
        <time>2016-02-21T17:08:58Z</time>
      </trkpt>
      <trkpt lat="43.62449" lon="3.826">
        <ele>54.93</ele>
        <time>2016-02-21T17:08:59Z</time>
      </trkpt>
      <trkpt lat="43.62452" lon="3.82612">
        <ele>54.93</ele>
        <time>2016-02-21T17:09:00Z</time>
      </trkpt>
      <trkpt lat="43.62453" lon="3.82621">
        <ele>54.93</ele>
        <time>2016-02-21T17:09:01Z</time>
      </trkpt>
      <trkpt lat="43.62454" lon="3.82626">
        <ele>54.93</ele>
        <time>2016-02-21T17:09:02Z</time>
      </trkpt>
      <trkpt lat="43.62453" lon="3.82637">
        <ele>55.41</ele>
        <time>2016-02-21T17:09:06Z</time>
      </trkpt>
      <trkpt lat="43.62452" lon="3.82645">
        <ele>55.41</ele>
        <time>2016-02-21T17:09:07Z</time>
      </trkpt>
      <trkpt lat="43.62451" lon="3.82655">
        <ele>55.89</ele>
        <time>2016-02-21T17:09:08Z</time>
      </trkpt>
      <trkpt lat="43.62453" lon="3.82665">
        <ele>55.89</ele>
        <time>2016-02-21T17:09:09Z</time>
      </trkpt>
      <trkpt lat="43.62458" lon="3.82674">
        <ele>55.89</ele>
        <time>2016-02-21T17:09:10Z</time>
      </trkpt>
      <trkpt lat="43.62464" lon="3.82684">
        <ele>55.89</ele>
        <time>2016-02-21T17:09:11Z</time>
      </trkpt>
      <trkpt lat="43.6247" lon="3.82695">
        <ele>55.89</ele>
        <time>2016-02-21T17:09:12Z</time>
      </trkpt>
      <trkpt lat="43.62473" lon="3.82707">
        <ele>55.89</ele>
        <time>2016-02-21T17:09:13Z</time>
      </trkpt>
      <trkpt lat="43.62473" lon="3.82721">
        <ele>56.37</ele>
        <time>2016-02-21T17:09:14Z</time>
      </trkpt>
      <trkpt lat="43.62471" lon="3.82736">
        <ele>56.37</ele>
        <time>2016-02-21T17:09:15Z</time>
      </trkpt>
      <trkpt lat="43.62467" lon="3.8275">
        <ele>56.86</ele>
        <time>2016-02-21T17:09:16Z</time>
      </trkpt>
      <trkpt lat="43.62461" lon="3.82764">
        <ele>57.34</ele>
        <time>2016-02-21T17:09:17Z</time>
      </trkpt>
      <trkpt lat="43.62454" lon="3.82777">
        <ele>57.34</ele>
        <time>2016-02-21T17:09:18Z</time>
      </trkpt>
      <trkpt lat="43.62446" lon="3.8279">
        <ele>57.34</ele>
        <time>2016-02-21T17:09:19Z</time>
      </trkpt>
      <trkpt lat="43.62374" lon="3.8295">
        <ele>60.7</ele>
        <time>2016-02-21T17:09:30Z</time>
      </trkpt>
      <trkpt lat="43.62337" lon="3.83062">
        <ele>61.18</ele>
        <time>2016-02-21T17:09:37Z</time>
      </trkpt>
      <trkpt lat="43.62327" lon="3.8309">
        <ele>61.18</ele>
        <time>2016-02-21T17:09:43Z</time>
      </trkpt>
      <trkpt lat="43.62327" lon="3.83088">
        <ele>61.18</ele>
        <time>2016-02-21T17:10:09Z</time>
      </trkpt>
      <trkpt lat="43.62327" lon="3.83094">
        <ele>64.07</ele>
        <time>2016-02-21T17:11:45Z</time>
      </trkpt>
      <trkpt lat="43.62324" lon="3.83102">
        <ele>64.07</ele>
        <time>2016-02-21T17:11:46Z</time>
      </trkpt>
      <trkpt lat="43.62321" lon="3.83114">
        <ele>64.07</ele>
        <time>2016-02-21T17:11:47Z</time>
      </trkpt>
      <trkpt lat="43.62296" lon="3.83228">
        <ele>65.03</ele>
        <time>2016-02-21T17:11:54Z</time>
      </trkpt>
      <trkpt lat="43.62296" lon="3.8332">
        <ele>66.95</ele>
        <time>2016-02-21T17:12:00Z</time>
      </trkpt>
      <trkpt lat="43.62293" lon="3.83333">
        <ele>67.43</ele>
        <time>2016-02-21T17:12:01Z</time>
      </trkpt>
      <trkpt lat="43.62286" lon="3.83363">
        <ele>68.39</ele>
        <time>2016-02-21T17:12:03Z</time>
      </trkpt>
      <trkpt lat="43.62285" lon="3.8338">
        <ele>68.87</ele>
        <time>2016-02-21T17:12:04Z</time>
      </trkpt>
      <trkpt lat="43.62286" lon="3.83414">
        <ele>69.35</ele>
        <time>2016-02-21T17:12:06Z</time>
      </trkpt>
      <trkpt lat="43.62283" lon="3.83432">
        <ele>69.83</ele>
        <time>2016-02-21T17:12:07Z</time>
      </trkpt>
      <trkpt lat="43.62279" lon="3.83447">
        <ele>70.31</ele>
        <time>2016-02-21T17:12:08Z</time>
      </trkpt>
      <trkpt lat="43.62274" lon="3.83461">
        <ele>70.79</ele>
        <time>2016-02-21T17:12:09Z</time>
      </trkpt>
      <trkpt lat="43.62269" lon="3.83473">
        <ele>71.27</ele>
        <time>2016-02-21T17:12:10Z</time>
      </trkpt>
      <trkpt lat="43.62255" lon="3.83509">
        <ele>72.24</ele>
        <time>2016-02-21T17:12:16Z</time>
      </trkpt>
      <trkpt lat="43.62249" lon="3.83524">
        <ele>72.72</ele>
        <time>2016-02-21T17:12:18Z</time>
      </trkpt>
      <trkpt lat="43.62197" lon="3.836">
        <ele>72.72</ele>
        <time>2016-02-21T17:12:26Z</time>
      </trkpt>
      <trkpt lat="43.62094" lon="3.83679">
        <ele>73.68</ele>
        <time>2016-02-21T17:12:36Z</time>
      </trkpt>
      <trkpt lat="43.61995" lon="3.83762">
        <ele>73.2</ele>
        <time>2016-02-21T17:12:48Z</time>
      </trkpt>
      <trkpt lat="43.61985" lon="3.83769">
        <ele>73.2</ele>
        <time>2016-02-21T17:12:55Z</time>
      </trkpt>
      <trkpt lat="43.61977" lon="3.83778">
        <ele>72.24</ele>
        <time>2016-02-21T17:13:39Z</time>
      </trkpt>
      <trkpt lat="43.61974" lon="3.83785">
        <ele>72.24</ele>
        <time>2016-02-21T17:13:40Z</time>
      </trkpt>
      <trkpt lat="43.61974" lon="3.83792">
        <ele>72.24</ele>
        <time>2016-02-21T17:13:41Z</time>
      </trkpt>
      <trkpt lat="43.61975" lon="3.838">
        <ele>71.76</ele>
        <time>2016-02-21T17:13:42Z</time>
      </trkpt>
      <trkpt lat="43.61979" lon="3.83807">
        <ele>71.76</ele>
        <time>2016-02-21T17:13:43Z</time>
      </trkpt>
      <trkpt lat="43.61984" lon="3.83814">
        <ele>71.76</ele>
        <time>2016-02-21T17:13:44Z</time>
      </trkpt>
      <trkpt lat="43.61989" lon="3.83821">
        <ele>72.24</ele>
        <time>2016-02-21T17:13:45Z</time>
      </trkpt>
      <trkpt lat="43.62052" lon="3.8389">
        <ele>73.68</ele>
        <time>2016-02-21T17:13:54Z</time>
      </trkpt>
      <trkpt lat="43.62101" lon="3.83971">
        <ele>66.47</ele>
        <time>2016-02-21T17:14:02Z</time>
      </trkpt>
      <trkpt lat="43.62103" lon="3.83984">
        <ele>65.03</ele>
        <time>2016-02-21T17:14:03Z</time>
      </trkpt>
      <trkpt lat="43.62111" lon="3.84033">
        <ele>60.7</ele>
        <time>2016-02-21T17:14:08Z</time>
      </trkpt>
      <trkpt lat="43.62108" lon="3.8404">
        <ele>59.74</ele>
        <time>2016-02-21T17:14:09Z</time>
      </trkpt>
      <trkpt lat="43.62102" lon="3.84043">
        <ele>59.26</ele>
        <time>2016-02-21T17:14:10Z</time>
      </trkpt>
      <trkpt lat="43.62095" lon="3.84047">
        <ele>59.26</ele>
        <time>2016-02-21T17:14:11Z</time>
      </trkpt>
      <trkpt lat="43.6209" lon="3.84048">
        <ele>58.78</ele>
        <time>2016-02-21T17:14:12Z</time>
      </trkpt>
      <trkpt lat="43.62086" lon="3.84047">
        <ele>58.78</ele>
        <time>2016-02-21T17:14:13Z</time>
      </trkpt>
      <trkpt lat="43.62084" lon="3.84043">
        <ele>58.3</ele>
        <time>2016-02-21T17:14:14Z</time>
      </trkpt>
      <trkpt lat="43.62083" lon="3.84039">
        <ele>58.3</ele>
        <time>2016-02-21T17:14:15Z</time>
      </trkpt>
    </trkseg>
  </trk>
</gpx>